<?xml version="1.0" encoding="UTF-8" standalone="no" ?>
<gpx xmlns="http://www.topografix.com/GPX/1/1" xmlns:xsi="http://www.w3.org/2001/XMLSchema-instance" xsi:schemaLocation="http://www.topografix.com/GPX/1/1 http://www.topografix.com/GPX/1/1/gpx.xsd" version="1.1" creator="VisuGPX - https://www.visugpx.com">
  <metadata>
    <name>boucle dévoluy étape 1</name>
    <desc><![CDATA[beau temps. Sentier des bancs magnifique. A partir de Chaudun, poussage jusqu'au col de Chétive, par des singles abandonnés et main courantes enlevées ; dangereux certains de ces singles sont en cours de refection. Du col dans la descente, 1 km,5 dans les cailloux inroulable ; après c'est tout bon.]]></desc>
  </metadata>
  <trk>
    <name><![CDATA[Sortie VTT le matin boucle dans le Dévoluy. ]]></name>
    <extensions>
      <line xmlns="http://www.topografix.com/GPX/gpx_style/0/2">
        <color>0000FF</color>
        <width>4</width>
      </line>
    </extensions>
    <trkseg>
      <trkpt lat="44.56037" lon="5.95881">
        <ele>967</ele>
        <time>2023-05-15T07:16:44Z</time>
      </trkpt>
      <trkpt lat="44.56037" lon="5.95881">
        <ele>950.4</ele>
        <time>2023-05-15T07:16:45Z</time>
      </trkpt>
      <trkpt lat="44.56037" lon="5.95881">
        <ele>953.6</ele>
        <time>2023-05-15T07:16:46Z</time>
      </trkpt>
      <trkpt lat="44.56037" lon="5.95881">
        <ele>954.2</ele>
        <time>2023-05-15T07:16:55Z</time>
      </trkpt>
      <trkpt lat="44.56038" lon="5.95883">
        <ele>953.6</ele>
        <time>2023-05-15T07:17:20Z</time>
      </trkpt>
      <trkpt lat="44.56043" lon="5.95882">
        <ele>953.6</ele>
        <time>2023-05-15T07:17:22Z</time>
      </trkpt>
      <trkpt lat="44.5605" lon="5.95863">
        <ele>953.6</ele>
        <time>2023-05-15T07:17:26Z</time>
      </trkpt>
      <trkpt lat="44.56061" lon="5.95827">
        <ele>952.6</ele>
        <time>2023-05-15T07:17:31Z</time>
      </trkpt>
      <trkpt lat="44.56063" lon="5.9582">
        <ele>952.4</ele>
        <time>2023-05-15T07:17:32Z</time>
      </trkpt>
      <trkpt lat="44.56064" lon="5.95813">
        <ele>951.8</ele>
        <time>2023-05-15T07:17:33Z</time>
      </trkpt>
      <trkpt lat="44.56064" lon="5.95807">
        <ele>951.4</ele>
        <time>2023-05-15T07:17:34Z</time>
      </trkpt>
      <trkpt lat="44.56065" lon="5.95801">
        <ele>950.8</ele>
        <time>2023-05-15T07:17:35Z</time>
      </trkpt>
      <trkpt lat="44.56065" lon="5.95794">
        <ele>950.4</ele>
        <time>2023-05-15T07:17:36Z</time>
      </trkpt>
      <trkpt lat="44.56066" lon="5.95786">
        <ele>949.8</ele>
        <time>2023-05-15T07:17:37Z</time>
      </trkpt>
      <trkpt lat="44.56069" lon="5.95771">
        <ele>948.8</ele>
        <time>2023-05-15T07:17:39Z</time>
      </trkpt>
      <trkpt lat="44.56071" lon="5.95763">
        <ele>948</ele>
        <time>2023-05-15T07:17:40Z</time>
      </trkpt>
      <trkpt lat="44.56072" lon="5.95754">
        <ele>947.6</ele>
        <time>2023-05-15T07:17:41Z</time>
      </trkpt>
      <trkpt lat="44.56076" lon="5.95726">
        <ele>946</ele>
        <time>2023-05-15T07:17:44Z</time>
      </trkpt>
      <trkpt lat="44.56078" lon="5.95718">
        <ele>945.8</ele>
        <time>2023-05-15T07:17:45Z</time>
      </trkpt>
      <trkpt lat="44.5608" lon="5.95711">
        <ele>945.2</ele>
        <time>2023-05-15T07:17:46Z</time>
      </trkpt>
      <trkpt lat="44.56083" lon="5.95707">
        <ele>944.4</ele>
        <time>2023-05-15T07:17:47Z</time>
      </trkpt>
      <trkpt lat="44.56087" lon="5.95706">
        <ele>944</ele>
        <time>2023-05-15T07:17:48Z</time>
      </trkpt>
      <trkpt lat="44.56089" lon="5.95706">
        <ele>943.2</ele>
        <time>2023-05-15T07:17:49Z</time>
      </trkpt>
      <trkpt lat="44.56091" lon="5.95706">
        <ele>942.8</ele>
        <time>2023-05-15T07:17:50Z</time>
      </trkpt>
      <trkpt lat="44.56091" lon="5.95706">
        <ele>942</ele>
        <time>2023-05-15T07:17:51Z</time>
      </trkpt>
      <trkpt lat="44.56091" lon="5.95706">
        <ele>941.8</ele>
        <time>2023-05-15T07:17:52Z</time>
      </trkpt>
      <trkpt lat="44.56091" lon="5.95706">
        <ele>941</ele>
        <time>2023-05-15T07:17:53Z</time>
      </trkpt>
      <trkpt lat="44.56091" lon="5.95706">
        <ele>939.8</ele>
        <time>2023-05-15T07:17:57Z</time>
      </trkpt>
      <trkpt lat="44.56091" lon="5.95706">
        <ele>939</ele>
        <time>2023-05-15T07:18:02Z</time>
      </trkpt>
      <trkpt lat="44.56091" lon="5.95706">
        <ele>938.8</ele>
        <time>2023-05-15T07:18:03Z</time>
      </trkpt>
      <trkpt lat="44.5609" lon="5.9571">
        <ele>938.6</ele>
        <time>2023-05-15T07:18:13Z</time>
      </trkpt>
      <trkpt lat="44.56088" lon="5.95712">
        <ele>938.6</ele>
        <time>2023-05-15T07:18:14Z</time>
      </trkpt>
      <trkpt lat="44.56087" lon="5.95712">
        <ele>938.8</ele>
        <time>2023-05-15T07:18:15Z</time>
      </trkpt>
      <trkpt lat="44.56086" lon="5.95709">
        <ele>939</ele>
        <time>2023-05-15T07:18:17Z</time>
      </trkpt>
      <trkpt lat="44.56086" lon="5.95707">
        <ele>939</ele>
        <time>2023-05-15T07:18:18Z</time>
      </trkpt>
      <trkpt lat="44.56087" lon="5.95704">
        <ele>939</ele>
        <time>2023-05-15T07:18:19Z</time>
      </trkpt>
      <trkpt lat="44.56085" lon="5.95696">
        <ele>939.2</ele>
        <time>2023-05-15T07:18:22Z</time>
      </trkpt>
      <trkpt lat="44.56087" lon="5.95686">
        <ele>939.6</ele>
        <time>2023-05-15T07:18:25Z</time>
      </trkpt>
      <trkpt lat="44.56088" lon="5.95682">
        <ele>939.6</ele>
        <time>2023-05-15T07:18:26Z</time>
      </trkpt>
      <trkpt lat="44.5609" lon="5.95677">
        <ele>939.8</ele>
        <time>2023-05-15T07:18:27Z</time>
      </trkpt>
      <trkpt lat="44.56095" lon="5.95646">
        <ele>939.8</ele>
        <time>2023-05-15T07:18:32Z</time>
      </trkpt>
      <trkpt lat="44.56095" lon="5.95641">
        <ele>939.6</ele>
        <time>2023-05-15T07:18:33Z</time>
      </trkpt>
      <trkpt lat="44.56094" lon="5.95636">
        <ele>939.6</ele>
        <time>2023-05-15T07:18:34Z</time>
      </trkpt>
      <trkpt lat="44.56093" lon="5.95632">
        <ele>939.6</ele>
        <time>2023-05-15T07:18:35Z</time>
      </trkpt>
      <trkpt lat="44.56093" lon="5.95629">
        <ele>939.4</ele>
        <time>2023-05-15T07:18:36Z</time>
      </trkpt>
      <trkpt lat="44.56094" lon="5.95626">
        <ele>939.4</ele>
        <time>2023-05-15T07:18:37Z</time>
      </trkpt>
      <trkpt lat="44.56096" lon="5.95624">
        <ele>939.2</ele>
        <time>2023-05-15T07:18:38Z</time>
      </trkpt>
      <trkpt lat="44.56098" lon="5.95623">
        <ele>939.2</ele>
        <time>2023-05-15T07:18:39Z</time>
      </trkpt>
      <trkpt lat="44.56105" lon="5.9562">
        <ele>939.2</ele>
        <time>2023-05-15T07:18:41Z</time>
      </trkpt>
      <trkpt lat="44.56108" lon="5.95618">
        <ele>939</ele>
        <time>2023-05-15T07:18:42Z</time>
      </trkpt>
      <trkpt lat="44.56126" lon="5.9561">
        <ele>939</ele>
        <time>2023-05-15T07:18:47Z</time>
      </trkpt>
      <trkpt lat="44.56152" lon="5.95598">
        <ele>938.6</ele>
        <time>2023-05-15T07:18:54Z</time>
      </trkpt>
      <trkpt lat="44.56156" lon="5.95596">
        <ele>938.4</ele>
        <time>2023-05-15T07:18:55Z</time>
      </trkpt>
      <trkpt lat="44.56163" lon="5.95591">
        <ele>938</ele>
        <time>2023-05-15T07:18:58Z</time>
      </trkpt>
      <trkpt lat="44.56163" lon="5.9559">
        <ele>937.8</ele>
        <time>2023-05-15T07:18:59Z</time>
      </trkpt>
      <trkpt lat="44.56163" lon="5.9559">
        <ele>937.8</ele>
        <time>2023-05-15T07:19:00Z</time>
      </trkpt>
      <trkpt lat="44.56163" lon="5.9559">
        <ele>937.4</ele>
        <time>2023-05-15T07:19:02Z</time>
      </trkpt>
      <trkpt lat="44.56163" lon="5.9559">
        <ele>937.2</ele>
        <time>2023-05-15T07:19:05Z</time>
      </trkpt>
      <trkpt lat="44.56165" lon="5.95589">
        <ele>937</ele>
        <time>2023-05-15T07:19:09Z</time>
      </trkpt>
      <trkpt lat="44.56168" lon="5.95586">
        <ele>936.8</ele>
        <time>2023-05-15T07:19:11Z</time>
      </trkpt>
      <trkpt lat="44.56172" lon="5.95582">
        <ele>936.8</ele>
        <time>2023-05-15T07:19:14Z</time>
      </trkpt>
      <trkpt lat="44.56173" lon="5.95581">
        <ele>936.6</ele>
        <time>2023-05-15T07:19:15Z</time>
      </trkpt>
      <trkpt lat="44.56173" lon="5.95581">
        <ele>936.6</ele>
        <time>2023-05-15T07:19:16Z</time>
      </trkpt>
      <trkpt lat="44.56173" lon="5.95581">
        <ele>936.6</ele>
        <time>2023-05-15T07:19:17Z</time>
      </trkpt>
      <trkpt lat="44.56173" lon="5.95581">
        <ele>936.4</ele>
        <time>2023-05-15T07:19:25Z</time>
      </trkpt>
      <trkpt lat="44.56173" lon="5.95581">
        <ele>937</ele>
        <time>2023-05-15T07:19:46Z</time>
      </trkpt>
      <trkpt lat="44.56173" lon="5.95581">
        <ele>937</ele>
        <time>2023-05-15T07:20:14Z</time>
      </trkpt>
      <trkpt lat="44.56173" lon="5.95581">
        <ele>937</ele>
        <time>2023-05-15T07:20:16Z</time>
      </trkpt>
      <trkpt lat="44.56173" lon="5.95581">
        <ele>937</ele>
        <time>2023-05-15T07:21:06Z</time>
      </trkpt>
      <trkpt lat="44.56173" lon="5.95581">
        <ele>936.6</ele>
        <time>2023-05-15T07:21:19Z</time>
      </trkpt>
      <trkpt lat="44.56173" lon="5.95581">
        <ele>936.8</ele>
        <time>2023-05-15T07:22:05Z</time>
      </trkpt>
      <trkpt lat="44.56175" lon="5.95582">
        <ele>937</ele>
        <time>2023-05-15T07:22:27Z</time>
      </trkpt>
      <trkpt lat="44.56177" lon="5.95585">
        <ele>937</ele>
        <time>2023-05-15T07:22:29Z</time>
      </trkpt>
      <trkpt lat="44.56178" lon="5.95588">
        <ele>937</ele>
        <time>2023-05-15T07:22:30Z</time>
      </trkpt>
      <trkpt lat="44.56179" lon="5.95591">
        <ele>937</ele>
        <time>2023-05-15T07:22:31Z</time>
      </trkpt>
      <trkpt lat="44.5618" lon="5.95593">
        <ele>936.8</ele>
        <time>2023-05-15T07:22:32Z</time>
      </trkpt>
      <trkpt lat="44.56184" lon="5.95599">
        <ele>936.8</ele>
        <time>2023-05-15T07:22:34Z</time>
      </trkpt>
      <trkpt lat="44.56189" lon="5.95611">
        <ele>936.6</ele>
        <time>2023-05-15T07:22:38Z</time>
      </trkpt>
      <trkpt lat="44.5619" lon="5.95614">
        <ele>936.6</ele>
        <time>2023-05-15T07:22:39Z</time>
      </trkpt>
      <trkpt lat="44.56194" lon="5.95624">
        <ele>936.6</ele>
        <time>2023-05-15T07:22:42Z</time>
      </trkpt>
      <trkpt lat="44.56206" lon="5.95653">
        <ele>937</ele>
        <time>2023-05-15T07:22:50Z</time>
      </trkpt>
      <trkpt lat="44.5621" lon="5.95664">
        <ele>937</ele>
        <time>2023-05-15T07:22:53Z</time>
      </trkpt>
      <trkpt lat="44.56216" lon="5.95677">
        <ele>937.4</ele>
        <time>2023-05-15T07:22:57Z</time>
      </trkpt>
      <trkpt lat="44.56217" lon="5.9568">
        <ele>937.6</ele>
        <time>2023-05-15T07:22:58Z</time>
      </trkpt>
      <trkpt lat="44.56219" lon="5.95684">
        <ele>937.8</ele>
        <time>2023-05-15T07:22:59Z</time>
      </trkpt>
      <trkpt lat="44.5622" lon="5.95687">
        <ele>937.8</ele>
        <time>2023-05-15T07:23:00Z</time>
      </trkpt>
      <trkpt lat="44.56222" lon="5.95691">
        <ele>938</ele>
        <time>2023-05-15T07:23:01Z</time>
      </trkpt>
      <trkpt lat="44.56223" lon="5.95694">
        <ele>938</ele>
        <time>2023-05-15T07:23:02Z</time>
      </trkpt>
      <trkpt lat="44.56225" lon="5.95697">
        <ele>938.2</ele>
        <time>2023-05-15T07:23:03Z</time>
      </trkpt>
      <trkpt lat="44.56226" lon="5.957">
        <ele>938.2</ele>
        <time>2023-05-15T07:23:04Z</time>
      </trkpt>
      <trkpt lat="44.5623" lon="5.95709">
        <ele>938.4</ele>
        <time>2023-05-15T07:23:07Z</time>
      </trkpt>
      <trkpt lat="44.56233" lon="5.95715">
        <ele>938.4</ele>
        <time>2023-05-15T07:23:09Z</time>
      </trkpt>
      <trkpt lat="44.56234" lon="5.9572">
        <ele>938.6</ele>
        <time>2023-05-15T07:23:10Z</time>
      </trkpt>
      <trkpt lat="44.56235" lon="5.95723">
        <ele>938.8</ele>
        <time>2023-05-15T07:23:11Z</time>
      </trkpt>
      <trkpt lat="44.56237" lon="5.95726">
        <ele>938.8</ele>
        <time>2023-05-15T07:23:12Z</time>
      </trkpt>
      <trkpt lat="44.56238" lon="5.95729">
        <ele>939</ele>
        <time>2023-05-15T07:23:13Z</time>
      </trkpt>
      <trkpt lat="44.56247" lon="5.95749">
        <ele>940</ele>
        <time>2023-05-15T07:23:19Z</time>
      </trkpt>
      <trkpt lat="44.56249" lon="5.95752">
        <ele>940.2</ele>
        <time>2023-05-15T07:23:20Z</time>
      </trkpt>
      <trkpt lat="44.56252" lon="5.95758">
        <ele>940.4</ele>
        <time>2023-05-15T07:23:22Z</time>
      </trkpt>
      <trkpt lat="44.56253" lon="5.95761">
        <ele>940.4</ele>
        <time>2023-05-15T07:23:23Z</time>
      </trkpt>
      <trkpt lat="44.56254" lon="5.95764">
        <ele>940.6</ele>
        <time>2023-05-15T07:23:24Z</time>
      </trkpt>
      <trkpt lat="44.56256" lon="5.95767">
        <ele>940.6</ele>
        <time>2023-05-15T07:23:25Z</time>
      </trkpt>
      <trkpt lat="44.56257" lon="5.9577">
        <ele>940.8</ele>
        <time>2023-05-15T07:23:26Z</time>
      </trkpt>
      <trkpt lat="44.56258" lon="5.95772">
        <ele>941</ele>
        <time>2023-05-15T07:23:27Z</time>
      </trkpt>
      <trkpt lat="44.5626" lon="5.95776">
        <ele>941</ele>
        <time>2023-05-15T07:23:28Z</time>
      </trkpt>
      <trkpt lat="44.56261" lon="5.95779">
        <ele>941.2</ele>
        <time>2023-05-15T07:23:29Z</time>
      </trkpt>
      <trkpt lat="44.56263" lon="5.95781">
        <ele>941.2</ele>
        <time>2023-05-15T07:23:30Z</time>
      </trkpt>
      <trkpt lat="44.56264" lon="5.95784">
        <ele>941.4</ele>
        <time>2023-05-15T07:23:31Z</time>
      </trkpt>
      <trkpt lat="44.56264" lon="5.95786">
        <ele>941.4</ele>
        <time>2023-05-15T07:23:32Z</time>
      </trkpt>
      <trkpt lat="44.56265" lon="5.95788">
        <ele>941.6</ele>
        <time>2023-05-15T07:23:33Z</time>
      </trkpt>
      <trkpt lat="44.56267" lon="5.95791">
        <ele>941.6</ele>
        <time>2023-05-15T07:23:34Z</time>
      </trkpt>
      <trkpt lat="44.56268" lon="5.95793">
        <ele>941.8</ele>
        <time>2023-05-15T07:23:35Z</time>
      </trkpt>
      <trkpt lat="44.56269" lon="5.95796">
        <ele>942</ele>
        <time>2023-05-15T07:23:36Z</time>
      </trkpt>
      <trkpt lat="44.56271" lon="5.95799">
        <ele>942.2</ele>
        <time>2023-05-15T07:23:37Z</time>
      </trkpt>
      <trkpt lat="44.56272" lon="5.95801">
        <ele>942.4</ele>
        <time>2023-05-15T07:23:38Z</time>
      </trkpt>
      <trkpt lat="44.56273" lon="5.95803">
        <ele>942.4</ele>
        <time>2023-05-15T07:23:39Z</time>
      </trkpt>
      <trkpt lat="44.56274" lon="5.95805">
        <ele>942.6</ele>
        <time>2023-05-15T07:23:40Z</time>
      </trkpt>
      <trkpt lat="44.56275" lon="5.95806">
        <ele>942.6</ele>
        <time>2023-05-15T07:23:41Z</time>
      </trkpt>
      <trkpt lat="44.56277" lon="5.95808">
        <ele>942.8</ele>
        <time>2023-05-15T07:23:42Z</time>
      </trkpt>
      <trkpt lat="44.56278" lon="5.9581">
        <ele>943</ele>
        <time>2023-05-15T07:23:43Z</time>
      </trkpt>
      <trkpt lat="44.5628" lon="5.95813">
        <ele>943.2</ele>
        <time>2023-05-15T07:23:44Z</time>
      </trkpt>
      <trkpt lat="44.56283" lon="5.95815">
        <ele>943.4</ele>
        <time>2023-05-15T07:23:45Z</time>
      </trkpt>
      <trkpt lat="44.56285" lon="5.95816">
        <ele>943.6</ele>
        <time>2023-05-15T07:23:46Z</time>
      </trkpt>
      <trkpt lat="44.56288" lon="5.95817">
        <ele>943.8</ele>
        <time>2023-05-15T07:23:47Z</time>
      </trkpt>
      <trkpt lat="44.56291" lon="5.95818">
        <ele>943.8</ele>
        <time>2023-05-15T07:23:48Z</time>
      </trkpt>
      <trkpt lat="44.56294" lon="5.95819">
        <ele>943.8</ele>
        <time>2023-05-15T07:23:49Z</time>
      </trkpt>
      <trkpt lat="44.56298" lon="5.95819">
        <ele>944</ele>
        <time>2023-05-15T07:23:50Z</time>
      </trkpt>
      <trkpt lat="44.56301" lon="5.95819">
        <ele>944</ele>
        <time>2023-05-15T07:23:51Z</time>
      </trkpt>
      <trkpt lat="44.56305" lon="5.9582">
        <ele>944</ele>
        <time>2023-05-15T07:23:52Z</time>
      </trkpt>
      <trkpt lat="44.56308" lon="5.95822">
        <ele>944</ele>
        <time>2023-05-15T07:23:53Z</time>
      </trkpt>
      <trkpt lat="44.56312" lon="5.95823">
        <ele>944</ele>
        <time>2023-05-15T07:23:54Z</time>
      </trkpt>
      <trkpt lat="44.56315" lon="5.95825">
        <ele>944</ele>
        <time>2023-05-15T07:23:55Z</time>
      </trkpt>
      <trkpt lat="44.56318" lon="5.95828">
        <ele>944</ele>
        <time>2023-05-15T07:23:56Z</time>
      </trkpt>
      <trkpt lat="44.56321" lon="5.9583">
        <ele>944</ele>
        <time>2023-05-15T07:23:57Z</time>
      </trkpt>
      <trkpt lat="44.56323" lon="5.95833">
        <ele>944</ele>
        <time>2023-05-15T07:23:58Z</time>
      </trkpt>
      <trkpt lat="44.56325" lon="5.95836">
        <ele>944</ele>
        <time>2023-05-15T07:23:59Z</time>
      </trkpt>
      <trkpt lat="44.56327" lon="5.9584">
        <ele>944</ele>
        <time>2023-05-15T07:24:00Z</time>
      </trkpt>
      <trkpt lat="44.56328" lon="5.95844">
        <ele>943.8</ele>
        <time>2023-05-15T07:24:01Z</time>
      </trkpt>
      <trkpt lat="44.5633" lon="5.95848">
        <ele>943.8</ele>
        <time>2023-05-15T07:24:02Z</time>
      </trkpt>
      <trkpt lat="44.56332" lon="5.95853">
        <ele>943.8</ele>
        <time>2023-05-15T07:24:03Z</time>
      </trkpt>
      <trkpt lat="44.56343" lon="5.95878">
        <ele>943.6</ele>
        <time>2023-05-15T07:24:09Z</time>
      </trkpt>
      <trkpt lat="44.5635" lon="5.95889">
        <ele>943.4</ele>
        <time>2023-05-15T07:24:13Z</time>
      </trkpt>
      <trkpt lat="44.56352" lon="5.95891">
        <ele>943.4</ele>
        <time>2023-05-15T07:24:14Z</time>
      </trkpt>
      <trkpt lat="44.56354" lon="5.95892">
        <ele>943.4</ele>
        <time>2023-05-15T07:24:15Z</time>
      </trkpt>
      <trkpt lat="44.56357" lon="5.95893">
        <ele>943.2</ele>
        <time>2023-05-15T07:24:16Z</time>
      </trkpt>
      <trkpt lat="44.5636" lon="5.95895">
        <ele>943.2</ele>
        <time>2023-05-15T07:24:17Z</time>
      </trkpt>
      <trkpt lat="44.56365" lon="5.95902">
        <ele>943.2</ele>
        <time>2023-05-15T07:24:19Z</time>
      </trkpt>
      <trkpt lat="44.56367" lon="5.95906">
        <ele>943.2</ele>
        <time>2023-05-15T07:24:20Z</time>
      </trkpt>
      <trkpt lat="44.56369" lon="5.95911">
        <ele>943.2</ele>
        <time>2023-05-15T07:24:21Z</time>
      </trkpt>
      <trkpt lat="44.56371" lon="5.95916">
        <ele>943.2</ele>
        <time>2023-05-15T07:24:22Z</time>
      </trkpt>
      <trkpt lat="44.56372" lon="5.95921">
        <ele>943.2</ele>
        <time>2023-05-15T07:24:23Z</time>
      </trkpt>
      <trkpt lat="44.56376" lon="5.95936">
        <ele>943</ele>
        <time>2023-05-15T07:24:26Z</time>
      </trkpt>
      <trkpt lat="44.56381" lon="5.95971">
        <ele>942.6</ele>
        <time>2023-05-15T07:24:33Z</time>
      </trkpt>
      <trkpt lat="44.56381" lon="5.95976">
        <ele>942.4</ele>
        <time>2023-05-15T07:24:34Z</time>
      </trkpt>
      <trkpt lat="44.56382" lon="5.95979">
        <ele>942.4</ele>
        <time>2023-05-15T07:24:35Z</time>
      </trkpt>
      <trkpt lat="44.56382" lon="5.95983">
        <ele>942.4</ele>
        <time>2023-05-15T07:24:36Z</time>
      </trkpt>
      <trkpt lat="44.56382" lon="5.95986">
        <ele>942.4</ele>
        <time>2023-05-15T07:24:37Z</time>
      </trkpt>
      <trkpt lat="44.56382" lon="5.9599">
        <ele>942.2</ele>
        <time>2023-05-15T07:24:38Z</time>
      </trkpt>
      <trkpt lat="44.56382" lon="5.95998">
        <ele>942</ele>
        <time>2023-05-15T07:24:40Z</time>
      </trkpt>
      <trkpt lat="44.56382" lon="5.96015">
        <ele>942.2</ele>
        <time>2023-05-15T07:24:44Z</time>
      </trkpt>
      <trkpt lat="44.56383" lon="5.9602">
        <ele>942.2</ele>
        <time>2023-05-15T07:24:45Z</time>
      </trkpt>
      <trkpt lat="44.56384" lon="5.96023">
        <ele>942</ele>
        <time>2023-05-15T07:24:46Z</time>
      </trkpt>
      <trkpt lat="44.56393" lon="5.96052">
        <ele>942.4</ele>
        <time>2023-05-15T07:24:53Z</time>
      </trkpt>
      <trkpt lat="44.56396" lon="5.96074">
        <ele>942.6</ele>
        <time>2023-05-15T07:24:58Z</time>
      </trkpt>
      <trkpt lat="44.56397" lon="5.96082">
        <ele>942.8</ele>
        <time>2023-05-15T07:25:00Z</time>
      </trkpt>
      <trkpt lat="44.56397" lon="5.96087">
        <ele>942.8</ele>
        <time>2023-05-15T07:25:01Z</time>
      </trkpt>
      <trkpt lat="44.56396" lon="5.96091">
        <ele>943</ele>
        <time>2023-05-15T07:25:02Z</time>
      </trkpt>
      <trkpt lat="44.56396" lon="5.96096">
        <ele>943.2</ele>
        <time>2023-05-15T07:25:03Z</time>
      </trkpt>
      <trkpt lat="44.56396" lon="5.96122">
        <ele>943.8</ele>
        <time>2023-05-15T07:25:09Z</time>
      </trkpt>
      <trkpt lat="44.56396" lon="5.96126">
        <ele>944</ele>
        <time>2023-05-15T07:25:10Z</time>
      </trkpt>
      <trkpt lat="44.56398" lon="5.9613">
        <ele>944</ele>
        <time>2023-05-15T07:25:11Z</time>
      </trkpt>
      <trkpt lat="44.564" lon="5.96134">
        <ele>944.2</ele>
        <time>2023-05-15T07:25:12Z</time>
      </trkpt>
      <trkpt lat="44.56407" lon="5.96158">
        <ele>944.6</ele>
        <time>2023-05-15T07:25:17Z</time>
      </trkpt>
      <trkpt lat="44.56421" lon="5.96182">
        <ele>945</ele>
        <time>2023-05-15T07:25:23Z</time>
      </trkpt>
      <trkpt lat="44.56431" lon="5.96191">
        <ele>945.2</ele>
        <time>2023-05-15T07:25:26Z</time>
      </trkpt>
      <trkpt lat="44.56444" lon="5.96201">
        <ele>945.6</ele>
        <time>2023-05-15T07:25:30Z</time>
      </trkpt>
      <trkpt lat="44.56455" lon="5.96217">
        <ele>946</ele>
        <time>2023-05-15T07:25:35Z</time>
      </trkpt>
      <trkpt lat="44.56457" lon="5.9622">
        <ele>946</ele>
        <time>2023-05-15T07:25:36Z</time>
      </trkpt>
      <trkpt lat="44.56458" lon="5.96223">
        <ele>946.2</ele>
        <time>2023-05-15T07:25:37Z</time>
      </trkpt>
      <trkpt lat="44.5646" lon="5.96226">
        <ele>946.2</ele>
        <time>2023-05-15T07:25:38Z</time>
      </trkpt>
      <trkpt lat="44.56462" lon="5.96228">
        <ele>946.6</ele>
        <time>2023-05-15T07:25:39Z</time>
      </trkpt>
      <trkpt lat="44.56463" lon="5.96232">
        <ele>946.6</ele>
        <time>2023-05-15T07:25:40Z</time>
      </trkpt>
      <trkpt lat="44.56466" lon="5.96237">
        <ele>947</ele>
        <time>2023-05-15T07:25:42Z</time>
      </trkpt>
      <trkpt lat="44.56468" lon="5.9624">
        <ele>947</ele>
        <time>2023-05-15T07:25:43Z</time>
      </trkpt>
      <trkpt lat="44.56469" lon="5.96242">
        <ele>947.2</ele>
        <time>2023-05-15T07:25:44Z</time>
      </trkpt>
      <trkpt lat="44.5647" lon="5.96246">
        <ele>947.4</ele>
        <time>2023-05-15T07:25:45Z</time>
      </trkpt>
      <trkpt lat="44.56471" lon="5.96249">
        <ele>947.6</ele>
        <time>2023-05-15T07:25:46Z</time>
      </trkpt>
      <trkpt lat="44.56473" lon="5.96252">
        <ele>947.8</ele>
        <time>2023-05-15T07:25:47Z</time>
      </trkpt>
      <trkpt lat="44.56474" lon="5.96255">
        <ele>948</ele>
        <time>2023-05-15T07:25:48Z</time>
      </trkpt>
      <trkpt lat="44.56475" lon="5.96259">
        <ele>948.2</ele>
        <time>2023-05-15T07:25:49Z</time>
      </trkpt>
      <trkpt lat="44.56476" lon="5.96261">
        <ele>948.6</ele>
        <time>2023-05-15T07:25:50Z</time>
      </trkpt>
      <trkpt lat="44.56477" lon="5.96265">
        <ele>949</ele>
        <time>2023-05-15T07:25:51Z</time>
      </trkpt>
      <trkpt lat="44.56478" lon="5.96268">
        <ele>949</ele>
        <time>2023-05-15T07:25:52Z</time>
      </trkpt>
      <trkpt lat="44.56479" lon="5.9627">
        <ele>949.2</ele>
        <time>2023-05-15T07:25:53Z</time>
      </trkpt>
      <trkpt lat="44.5648" lon="5.96273">
        <ele>949.2</ele>
        <time>2023-05-15T07:25:54Z</time>
      </trkpt>
      <trkpt lat="44.56481" lon="5.96275">
        <ele>949.2</ele>
        <time>2023-05-15T07:25:55Z</time>
      </trkpt>
      <trkpt lat="44.56482" lon="5.96278">
        <ele>949.4</ele>
        <time>2023-05-15T07:25:56Z</time>
      </trkpt>
      <trkpt lat="44.56483" lon="5.96281">
        <ele>949.6</ele>
        <time>2023-05-15T07:25:57Z</time>
      </trkpt>
      <trkpt lat="44.56484" lon="5.96283">
        <ele>949.8</ele>
        <time>2023-05-15T07:25:58Z</time>
      </trkpt>
      <trkpt lat="44.56484" lon="5.96286">
        <ele>950.2</ele>
        <time>2023-05-15T07:25:59Z</time>
      </trkpt>
      <trkpt lat="44.56485" lon="5.9629">
        <ele>950.4</ele>
        <time>2023-05-15T07:26:00Z</time>
      </trkpt>
      <trkpt lat="44.56486" lon="5.96292">
        <ele>950.6</ele>
        <time>2023-05-15T07:26:01Z</time>
      </trkpt>
      <trkpt lat="44.56487" lon="5.96294">
        <ele>950.8</ele>
        <time>2023-05-15T07:26:02Z</time>
      </trkpt>
      <trkpt lat="44.56488" lon="5.96296">
        <ele>950.8</ele>
        <time>2023-05-15T07:26:03Z</time>
      </trkpt>
      <trkpt lat="44.5649" lon="5.96298">
        <ele>951.2</ele>
        <time>2023-05-15T07:26:04Z</time>
      </trkpt>
      <trkpt lat="44.56491" lon="5.96299">
        <ele>951.2</ele>
        <time>2023-05-15T07:26:05Z</time>
      </trkpt>
      <trkpt lat="44.56492" lon="5.96301">
        <ele>951.4</ele>
        <time>2023-05-15T07:26:06Z</time>
      </trkpt>
      <trkpt lat="44.56494" lon="5.96302">
        <ele>951.8</ele>
        <time>2023-05-15T07:26:07Z</time>
      </trkpt>
      <trkpt lat="44.56496" lon="5.96303">
        <ele>952</ele>
        <time>2023-05-15T07:26:08Z</time>
      </trkpt>
      <trkpt lat="44.56498" lon="5.96305">
        <ele>952.4</ele>
        <time>2023-05-15T07:26:09Z</time>
      </trkpt>
      <trkpt lat="44.565" lon="5.96307">
        <ele>952.4</ele>
        <time>2023-05-15T07:26:10Z</time>
      </trkpt>
      <trkpt lat="44.56501" lon="5.96308">
        <ele>952.4</ele>
        <time>2023-05-15T07:26:11Z</time>
      </trkpt>
      <trkpt lat="44.56502" lon="5.9631">
        <ele>952.6</ele>
        <time>2023-05-15T07:26:12Z</time>
      </trkpt>
      <trkpt lat="44.56504" lon="5.96311">
        <ele>952.8</ele>
        <time>2023-05-15T07:26:13Z</time>
      </trkpt>
      <trkpt lat="44.56506" lon="5.96313">
        <ele>953</ele>
        <time>2023-05-15T07:26:14Z</time>
      </trkpt>
      <trkpt lat="44.56509" lon="5.96315">
        <ele>953.2</ele>
        <time>2023-05-15T07:26:15Z</time>
      </trkpt>
      <trkpt lat="44.56511" lon="5.96317">
        <ele>953.6</ele>
        <time>2023-05-15T07:26:16Z</time>
      </trkpt>
      <trkpt lat="44.56512" lon="5.96319">
        <ele>953.8</ele>
        <time>2023-05-15T07:26:17Z</time>
      </trkpt>
      <trkpt lat="44.56513" lon="5.96321">
        <ele>954</ele>
        <time>2023-05-15T07:26:18Z</time>
      </trkpt>
      <trkpt lat="44.56515" lon="5.96324">
        <ele>954.2</ele>
        <time>2023-05-15T07:26:19Z</time>
      </trkpt>
      <trkpt lat="44.56516" lon="5.96326">
        <ele>954.4</ele>
        <time>2023-05-15T07:26:20Z</time>
      </trkpt>
      <trkpt lat="44.56517" lon="5.96329">
        <ele>954.4</ele>
        <time>2023-05-15T07:26:21Z</time>
      </trkpt>
      <trkpt lat="44.56519" lon="5.96332">
        <ele>954.6</ele>
        <time>2023-05-15T07:26:22Z</time>
      </trkpt>
      <trkpt lat="44.56521" lon="5.96335">
        <ele>954.8</ele>
        <time>2023-05-15T07:26:23Z</time>
      </trkpt>
      <trkpt lat="44.56522" lon="5.96337">
        <ele>954.8</ele>
        <time>2023-05-15T07:26:24Z</time>
      </trkpt>
      <trkpt lat="44.56524" lon="5.96341">
        <ele>955</ele>
        <time>2023-05-15T07:26:25Z</time>
      </trkpt>
      <trkpt lat="44.56525" lon="5.96344">
        <ele>955.2</ele>
        <time>2023-05-15T07:26:26Z</time>
      </trkpt>
      <trkpt lat="44.56527" lon="5.96346">
        <ele>955.4</ele>
        <time>2023-05-15T07:26:27Z</time>
      </trkpt>
      <trkpt lat="44.56528" lon="5.96349">
        <ele>955.4</ele>
        <time>2023-05-15T07:26:28Z</time>
      </trkpt>
      <trkpt lat="44.5653" lon="5.96351">
        <ele>955.6</ele>
        <time>2023-05-15T07:26:29Z</time>
      </trkpt>
      <trkpt lat="44.56531" lon="5.96354">
        <ele>955.8</ele>
        <time>2023-05-15T07:26:30Z</time>
      </trkpt>
      <trkpt lat="44.56533" lon="5.96357">
        <ele>955.8</ele>
        <time>2023-05-15T07:26:31Z</time>
      </trkpt>
      <trkpt lat="44.56535" lon="5.96361">
        <ele>956</ele>
        <time>2023-05-15T07:26:32Z</time>
      </trkpt>
      <trkpt lat="44.56536" lon="5.96364">
        <ele>956</ele>
        <time>2023-05-15T07:26:33Z</time>
      </trkpt>
      <trkpt lat="44.56537" lon="5.96366">
        <ele>956.2</ele>
        <time>2023-05-15T07:26:34Z</time>
      </trkpt>
      <trkpt lat="44.56539" lon="5.96368">
        <ele>956.4</ele>
        <time>2023-05-15T07:26:35Z</time>
      </trkpt>
      <trkpt lat="44.5654" lon="5.9637">
        <ele>956.4</ele>
        <time>2023-05-15T07:26:36Z</time>
      </trkpt>
      <trkpt lat="44.56542" lon="5.96373">
        <ele>956.6</ele>
        <time>2023-05-15T07:26:37Z</time>
      </trkpt>
      <trkpt lat="44.56543" lon="5.96375">
        <ele>956.8</ele>
        <time>2023-05-15T07:26:38Z</time>
      </trkpt>
      <trkpt lat="44.56544" lon="5.96377">
        <ele>957</ele>
        <time>2023-05-15T07:26:39Z</time>
      </trkpt>
      <trkpt lat="44.56545" lon="5.9638">
        <ele>957</ele>
        <time>2023-05-15T07:26:40Z</time>
      </trkpt>
      <trkpt lat="44.56546" lon="5.96382">
        <ele>957.2</ele>
        <time>2023-05-15T07:26:41Z</time>
      </trkpt>
      <trkpt lat="44.56547" lon="5.96384">
        <ele>957.4</ele>
        <time>2023-05-15T07:26:42Z</time>
      </trkpt>
      <trkpt lat="44.56548" lon="5.96386">
        <ele>957.6</ele>
        <time>2023-05-15T07:26:43Z</time>
      </trkpt>
      <trkpt lat="44.56548" lon="5.96388">
        <ele>957.8</ele>
        <time>2023-05-15T07:26:44Z</time>
      </trkpt>
      <trkpt lat="44.56549" lon="5.9639">
        <ele>958</ele>
        <time>2023-05-15T07:26:45Z</time>
      </trkpt>
      <trkpt lat="44.5655" lon="5.96392">
        <ele>958.2</ele>
        <time>2023-05-15T07:26:46Z</time>
      </trkpt>
      <trkpt lat="44.56552" lon="5.96395">
        <ele>958.6</ele>
        <time>2023-05-15T07:26:47Z</time>
      </trkpt>
      <trkpt lat="44.56553" lon="5.96397">
        <ele>959</ele>
        <time>2023-05-15T07:26:48Z</time>
      </trkpt>
      <trkpt lat="44.56554" lon="5.964">
        <ele>959</ele>
        <time>2023-05-15T07:26:49Z</time>
      </trkpt>
      <trkpt lat="44.56555" lon="5.96402">
        <ele>959.2</ele>
        <time>2023-05-15T07:26:50Z</time>
      </trkpt>
      <trkpt lat="44.56556" lon="5.96405">
        <ele>959.4</ele>
        <time>2023-05-15T07:26:51Z</time>
      </trkpt>
      <trkpt lat="44.56557" lon="5.96408">
        <ele>959.8</ele>
        <time>2023-05-15T07:26:52Z</time>
      </trkpt>
      <trkpt lat="44.56558" lon="5.9641">
        <ele>959.8</ele>
        <time>2023-05-15T07:26:53Z</time>
      </trkpt>
      <trkpt lat="44.56559" lon="5.96413">
        <ele>960</ele>
        <time>2023-05-15T07:26:54Z</time>
      </trkpt>
      <trkpt lat="44.56559" lon="5.96416">
        <ele>959.8</ele>
        <time>2023-05-15T07:26:55Z</time>
      </trkpt>
      <trkpt lat="44.5656" lon="5.96419">
        <ele>960</ele>
        <time>2023-05-15T07:26:56Z</time>
      </trkpt>
      <trkpt lat="44.56561" lon="5.96422">
        <ele>960.2</ele>
        <time>2023-05-15T07:26:57Z</time>
      </trkpt>
      <trkpt lat="44.56561" lon="5.96424">
        <ele>960.2</ele>
        <time>2023-05-15T07:26:58Z</time>
      </trkpt>
      <trkpt lat="44.56561" lon="5.96427">
        <ele>960.4</ele>
        <time>2023-05-15T07:26:59Z</time>
      </trkpt>
      <trkpt lat="44.56562" lon="5.96431">
        <ele>960.6</ele>
        <time>2023-05-15T07:27:00Z</time>
      </trkpt>
      <trkpt lat="44.56562" lon="5.96433">
        <ele>961</ele>
        <time>2023-05-15T07:27:01Z</time>
      </trkpt>
      <trkpt lat="44.56562" lon="5.96435">
        <ele>961</ele>
        <time>2023-05-15T07:27:02Z</time>
      </trkpt>
      <trkpt lat="44.56562" lon="5.96438">
        <ele>961.2</ele>
        <time>2023-05-15T07:27:03Z</time>
      </trkpt>
      <trkpt lat="44.56563" lon="5.96441">
        <ele>961.4</ele>
        <time>2023-05-15T07:27:04Z</time>
      </trkpt>
      <trkpt lat="44.56563" lon="5.96444">
        <ele>961.6</ele>
        <time>2023-05-15T07:27:05Z</time>
      </trkpt>
      <trkpt lat="44.56563" lon="5.96446">
        <ele>962</ele>
        <time>2023-05-15T07:27:06Z</time>
      </trkpt>
      <trkpt lat="44.56563" lon="5.96448">
        <ele>962</ele>
        <time>2023-05-15T07:27:07Z</time>
      </trkpt>
      <trkpt lat="44.56564" lon="5.96451">
        <ele>962.4</ele>
        <time>2023-05-15T07:27:08Z</time>
      </trkpt>
      <trkpt lat="44.56564" lon="5.96454">
        <ele>962.6</ele>
        <time>2023-05-15T07:27:09Z</time>
      </trkpt>
      <trkpt lat="44.56565" lon="5.96456">
        <ele>962.8</ele>
        <time>2023-05-15T07:27:10Z</time>
      </trkpt>
      <trkpt lat="44.56566" lon="5.96459">
        <ele>963</ele>
        <time>2023-05-15T07:27:11Z</time>
      </trkpt>
      <trkpt lat="44.56566" lon="5.96461">
        <ele>963.2</ele>
        <time>2023-05-15T07:27:12Z</time>
      </trkpt>
      <trkpt lat="44.56567" lon="5.96464">
        <ele>963.4</ele>
        <time>2023-05-15T07:27:13Z</time>
      </trkpt>
      <trkpt lat="44.56567" lon="5.96467">
        <ele>963.6</ele>
        <time>2023-05-15T07:27:14Z</time>
      </trkpt>
      <trkpt lat="44.56568" lon="5.9647">
        <ele>963.8</ele>
        <time>2023-05-15T07:27:15Z</time>
      </trkpt>
      <trkpt lat="44.56569" lon="5.96473">
        <ele>963.8</ele>
        <time>2023-05-15T07:27:16Z</time>
      </trkpt>
      <trkpt lat="44.5657" lon="5.96476">
        <ele>963.8</ele>
        <time>2023-05-15T07:27:17Z</time>
      </trkpt>
      <trkpt lat="44.56571" lon="5.96478">
        <ele>964</ele>
        <time>2023-05-15T07:27:18Z</time>
      </trkpt>
      <trkpt lat="44.56571" lon="5.96481">
        <ele>964.2</ele>
        <time>2023-05-15T07:27:19Z</time>
      </trkpt>
      <trkpt lat="44.56572" lon="5.96484">
        <ele>964.4</ele>
        <time>2023-05-15T07:27:20Z</time>
      </trkpt>
      <trkpt lat="44.56573" lon="5.96487">
        <ele>964.4</ele>
        <time>2023-05-15T07:27:21Z</time>
      </trkpt>
      <trkpt lat="44.56574" lon="5.9649">
        <ele>964.6</ele>
        <time>2023-05-15T07:27:22Z</time>
      </trkpt>
      <trkpt lat="44.56575" lon="5.96493">
        <ele>964.8</ele>
        <time>2023-05-15T07:27:23Z</time>
      </trkpt>
      <trkpt lat="44.56576" lon="5.96495">
        <ele>965</ele>
        <time>2023-05-15T07:27:24Z</time>
      </trkpt>
      <trkpt lat="44.56576" lon="5.96498">
        <ele>965</ele>
        <time>2023-05-15T07:27:25Z</time>
      </trkpt>
      <trkpt lat="44.56577" lon="5.96502">
        <ele>965</ele>
        <time>2023-05-15T07:27:26Z</time>
      </trkpt>
      <trkpt lat="44.56578" lon="5.96505">
        <ele>965.4</ele>
        <time>2023-05-15T07:27:27Z</time>
      </trkpt>
      <trkpt lat="44.56579" lon="5.96508">
        <ele>965.4</ele>
        <time>2023-05-15T07:27:28Z</time>
      </trkpt>
      <trkpt lat="44.56579" lon="5.96511">
        <ele>965.4</ele>
        <time>2023-05-15T07:27:29Z</time>
      </trkpt>
      <trkpt lat="44.5658" lon="5.96514">
        <ele>965.4</ele>
        <time>2023-05-15T07:27:30Z</time>
      </trkpt>
      <trkpt lat="44.5658" lon="5.96517">
        <ele>965.6</ele>
        <time>2023-05-15T07:27:31Z</time>
      </trkpt>
      <trkpt lat="44.56581" lon="5.9652">
        <ele>965.6</ele>
        <time>2023-05-15T07:27:32Z</time>
      </trkpt>
      <trkpt lat="44.56581" lon="5.96523">
        <ele>965.8</ele>
        <time>2023-05-15T07:27:33Z</time>
      </trkpt>
      <trkpt lat="44.56582" lon="5.96525">
        <ele>966</ele>
        <time>2023-05-15T07:27:34Z</time>
      </trkpt>
      <trkpt lat="44.56583" lon="5.96527">
        <ele>966</ele>
        <time>2023-05-15T07:27:35Z</time>
      </trkpt>
      <trkpt lat="44.56583" lon="5.96529">
        <ele>966.4</ele>
        <time>2023-05-15T07:27:36Z</time>
      </trkpt>
      <trkpt lat="44.56583" lon="5.96531">
        <ele>966.4</ele>
        <time>2023-05-15T07:27:37Z</time>
      </trkpt>
      <trkpt lat="44.56584" lon="5.96533">
        <ele>966.6</ele>
        <time>2023-05-15T07:27:38Z</time>
      </trkpt>
      <trkpt lat="44.56584" lon="5.96535">
        <ele>966.8</ele>
        <time>2023-05-15T07:27:39Z</time>
      </trkpt>
      <trkpt lat="44.56585" lon="5.96537">
        <ele>967.2</ele>
        <time>2023-05-15T07:27:40Z</time>
      </trkpt>
      <trkpt lat="44.56586" lon="5.96539">
        <ele>967.4</ele>
        <time>2023-05-15T07:27:41Z</time>
      </trkpt>
      <trkpt lat="44.56586" lon="5.96542">
        <ele>967.6</ele>
        <time>2023-05-15T07:27:42Z</time>
      </trkpt>
      <trkpt lat="44.56587" lon="5.96545">
        <ele>967.8</ele>
        <time>2023-05-15T07:27:43Z</time>
      </trkpt>
      <trkpt lat="44.56588" lon="5.96548">
        <ele>967.8</ele>
        <time>2023-05-15T07:27:44Z</time>
      </trkpt>
      <trkpt lat="44.56589" lon="5.96551">
        <ele>968</ele>
        <time>2023-05-15T07:27:45Z</time>
      </trkpt>
      <trkpt lat="44.5659" lon="5.96553">
        <ele>968</ele>
        <time>2023-05-15T07:27:46Z</time>
      </trkpt>
      <trkpt lat="44.56591" lon="5.96556">
        <ele>968.2</ele>
        <time>2023-05-15T07:27:47Z</time>
      </trkpt>
      <trkpt lat="44.56593" lon="5.96558">
        <ele>968.2</ele>
        <time>2023-05-15T07:27:48Z</time>
      </trkpt>
      <trkpt lat="44.56594" lon="5.96561">
        <ele>968.4</ele>
        <time>2023-05-15T07:27:49Z</time>
      </trkpt>
      <trkpt lat="44.56595" lon="5.96564">
        <ele>968.4</ele>
        <time>2023-05-15T07:27:50Z</time>
      </trkpt>
      <trkpt lat="44.56596" lon="5.96566">
        <ele>968.6</ele>
        <time>2023-05-15T07:27:51Z</time>
      </trkpt>
      <trkpt lat="44.56597" lon="5.9657">
        <ele>968.8</ele>
        <time>2023-05-15T07:27:52Z</time>
      </trkpt>
      <trkpt lat="44.56598" lon="5.96573">
        <ele>968.8</ele>
        <time>2023-05-15T07:27:53Z</time>
      </trkpt>
      <trkpt lat="44.56599" lon="5.96576">
        <ele>969</ele>
        <time>2023-05-15T07:27:54Z</time>
      </trkpt>
      <trkpt lat="44.566" lon="5.96579">
        <ele>969</ele>
        <time>2023-05-15T07:27:55Z</time>
      </trkpt>
      <trkpt lat="44.56601" lon="5.96582">
        <ele>969.2</ele>
        <time>2023-05-15T07:27:56Z</time>
      </trkpt>
      <trkpt lat="44.56602" lon="5.96585">
        <ele>969.4</ele>
        <time>2023-05-15T07:27:57Z</time>
      </trkpt>
      <trkpt lat="44.56603" lon="5.96589">
        <ele>969.6</ele>
        <time>2023-05-15T07:27:58Z</time>
      </trkpt>
      <trkpt lat="44.56605" lon="5.96592">
        <ele>970</ele>
        <time>2023-05-15T07:27:59Z</time>
      </trkpt>
      <trkpt lat="44.56606" lon="5.96594">
        <ele>969.8</ele>
        <time>2023-05-15T07:28:00Z</time>
      </trkpt>
      <trkpt lat="44.56607" lon="5.96597">
        <ele>970</ele>
        <time>2023-05-15T07:28:01Z</time>
      </trkpt>
      <trkpt lat="44.56608" lon="5.966">
        <ele>970</ele>
        <time>2023-05-15T07:28:02Z</time>
      </trkpt>
      <trkpt lat="44.5661" lon="5.96603">
        <ele>970.2</ele>
        <time>2023-05-15T07:28:03Z</time>
      </trkpt>
      <trkpt lat="44.56611" lon="5.96607">
        <ele>970.2</ele>
        <time>2023-05-15T07:28:04Z</time>
      </trkpt>
      <trkpt lat="44.56612" lon="5.9661">
        <ele>970.4</ele>
        <time>2023-05-15T07:28:05Z</time>
      </trkpt>
      <trkpt lat="44.56614" lon="5.96614">
        <ele>970.4</ele>
        <time>2023-05-15T07:28:06Z</time>
      </trkpt>
      <trkpt lat="44.56615" lon="5.96617">
        <ele>970.4</ele>
        <time>2023-05-15T07:28:07Z</time>
      </trkpt>
      <trkpt lat="44.56616" lon="5.96621">
        <ele>970.6</ele>
        <time>2023-05-15T07:28:08Z</time>
      </trkpt>
      <trkpt lat="44.56618" lon="5.96624">
        <ele>970.6</ele>
        <time>2023-05-15T07:28:09Z</time>
      </trkpt>
      <trkpt lat="44.56619" lon="5.96628">
        <ele>970.8</ele>
        <time>2023-05-15T07:28:10Z</time>
      </trkpt>
      <trkpt lat="44.5662" lon="5.9663">
        <ele>970.8</ele>
        <time>2023-05-15T07:28:11Z</time>
      </trkpt>
      <trkpt lat="44.56622" lon="5.96632">
        <ele>971</ele>
        <time>2023-05-15T07:28:12Z</time>
      </trkpt>
      <trkpt lat="44.56624" lon="5.96636">
        <ele>971</ele>
        <time>2023-05-15T07:28:13Z</time>
      </trkpt>
      <trkpt lat="44.56625" lon="5.96639">
        <ele>971.2</ele>
        <time>2023-05-15T07:28:14Z</time>
      </trkpt>
      <trkpt lat="44.56627" lon="5.96643">
        <ele>971.4</ele>
        <time>2023-05-15T07:28:15Z</time>
      </trkpt>
      <trkpt lat="44.56629" lon="5.96645">
        <ele>971.4</ele>
        <time>2023-05-15T07:28:16Z</time>
      </trkpt>
      <trkpt lat="44.56632" lon="5.96648">
        <ele>971.6</ele>
        <time>2023-05-15T07:28:17Z</time>
      </trkpt>
      <trkpt lat="44.56634" lon="5.9665">
        <ele>971.6</ele>
        <time>2023-05-15T07:28:18Z</time>
      </trkpt>
      <trkpt lat="44.56636" lon="5.96653">
        <ele>971.8</ele>
        <time>2023-05-15T07:28:19Z</time>
      </trkpt>
      <trkpt lat="44.56638" lon="5.96656">
        <ele>971.8</ele>
        <time>2023-05-15T07:28:20Z</time>
      </trkpt>
      <trkpt lat="44.5664" lon="5.96658">
        <ele>972</ele>
        <time>2023-05-15T07:28:21Z</time>
      </trkpt>
      <trkpt lat="44.56643" lon="5.96661">
        <ele>972.2</ele>
        <time>2023-05-15T07:28:22Z</time>
      </trkpt>
      <trkpt lat="44.56645" lon="5.96663">
        <ele>972.4</ele>
        <time>2023-05-15T07:28:23Z</time>
      </trkpt>
      <trkpt lat="44.56648" lon="5.96666">
        <ele>972.4</ele>
        <time>2023-05-15T07:28:24Z</time>
      </trkpt>
      <trkpt lat="44.5665" lon="5.9667">
        <ele>972.6</ele>
        <time>2023-05-15T07:28:25Z</time>
      </trkpt>
      <trkpt lat="44.56654" lon="5.96673">
        <ele>972.6</ele>
        <time>2023-05-15T07:28:26Z</time>
      </trkpt>
      <trkpt lat="44.56657" lon="5.96676">
        <ele>972.8</ele>
        <time>2023-05-15T07:28:27Z</time>
      </trkpt>
      <trkpt lat="44.56659" lon="5.96679">
        <ele>972.8</ele>
        <time>2023-05-15T07:28:28Z</time>
      </trkpt>
      <trkpt lat="44.56662" lon="5.96682">
        <ele>973</ele>
        <time>2023-05-15T07:28:29Z</time>
      </trkpt>
      <trkpt lat="44.56666" lon="5.96684">
        <ele>973</ele>
        <time>2023-05-15T07:28:30Z</time>
      </trkpt>
      <trkpt lat="44.56669" lon="5.96688">
        <ele>973</ele>
        <time>2023-05-15T07:28:31Z</time>
      </trkpt>
      <trkpt lat="44.56672" lon="5.9669">
        <ele>973</ele>
        <time>2023-05-15T07:28:32Z</time>
      </trkpt>
      <trkpt lat="44.56676" lon="5.96693">
        <ele>972.6</ele>
        <time>2023-05-15T07:28:33Z</time>
      </trkpt>
      <trkpt lat="44.56679" lon="5.96695">
        <ele>972.6</ele>
        <time>2023-05-15T07:28:34Z</time>
      </trkpt>
      <trkpt lat="44.56683" lon="5.96698">
        <ele>972.6</ele>
        <time>2023-05-15T07:28:35Z</time>
      </trkpt>
      <trkpt lat="44.56686" lon="5.967">
        <ele>972.6</ele>
        <time>2023-05-15T07:28:36Z</time>
      </trkpt>
      <trkpt lat="44.56709" lon="5.96716">
        <ele>972.6</ele>
        <time>2023-05-15T07:28:42Z</time>
      </trkpt>
      <trkpt lat="44.56733" lon="5.96735">
        <ele>972.4</ele>
        <time>2023-05-15T07:28:48Z</time>
      </trkpt>
      <trkpt lat="44.56737" lon="5.96739">
        <ele>972.4</ele>
        <time>2023-05-15T07:28:49Z</time>
      </trkpt>
      <trkpt lat="44.56763" lon="5.96763">
        <ele>972.4</ele>
        <time>2023-05-15T07:28:56Z</time>
      </trkpt>
      <trkpt lat="44.56797" lon="5.968">
        <ele>972.2</ele>
        <time>2023-05-15T07:29:05Z</time>
      </trkpt>
      <trkpt lat="44.56807" lon="5.96812">
        <ele>972</ele>
        <time>2023-05-15T07:29:08Z</time>
      </trkpt>
      <trkpt lat="44.56813" lon="5.96821">
        <ele>971.6</ele>
        <time>2023-05-15T07:29:10Z</time>
      </trkpt>
      <trkpt lat="44.56817" lon="5.96826">
        <ele>971.6</ele>
        <time>2023-05-15T07:29:11Z</time>
      </trkpt>
      <trkpt lat="44.56823" lon="5.96836">
        <ele>971.4</ele>
        <time>2023-05-15T07:29:13Z</time>
      </trkpt>
      <trkpt lat="44.56826" lon="5.96841">
        <ele>971.4</ele>
        <time>2023-05-15T07:29:14Z</time>
      </trkpt>
      <trkpt lat="44.56829" lon="5.96847">
        <ele>971.4</ele>
        <time>2023-05-15T07:29:15Z</time>
      </trkpt>
      <trkpt lat="44.56832" lon="5.96852">
        <ele>971.4</ele>
        <time>2023-05-15T07:29:16Z</time>
      </trkpt>
      <trkpt lat="44.56839" lon="5.96863">
        <ele>971.4</ele>
        <time>2023-05-15T07:29:18Z</time>
      </trkpt>
      <trkpt lat="44.56864" lon="5.96901">
        <ele>971.4</ele>
        <time>2023-05-15T07:29:25Z</time>
      </trkpt>
      <trkpt lat="44.56878" lon="5.96921">
        <ele>971.2</ele>
        <time>2023-05-15T07:29:29Z</time>
      </trkpt>
      <trkpt lat="44.5688" lon="5.96926">
        <ele>971.2</ele>
        <time>2023-05-15T07:29:30Z</time>
      </trkpt>
      <trkpt lat="44.56883" lon="5.96931">
        <ele>971.2</ele>
        <time>2023-05-15T07:29:31Z</time>
      </trkpt>
      <trkpt lat="44.56886" lon="5.96936">
        <ele>971.2</ele>
        <time>2023-05-15T07:29:32Z</time>
      </trkpt>
      <trkpt lat="44.56887" lon="5.96941">
        <ele>971.2</ele>
        <time>2023-05-15T07:29:33Z</time>
      </trkpt>
      <trkpt lat="44.56889" lon="5.96946">
        <ele>971.2</ele>
        <time>2023-05-15T07:29:34Z</time>
      </trkpt>
      <trkpt lat="44.5689" lon="5.96951">
        <ele>971.2</ele>
        <time>2023-05-15T07:29:35Z</time>
      </trkpt>
      <trkpt lat="44.56892" lon="5.96956">
        <ele>971</ele>
        <time>2023-05-15T07:29:36Z</time>
      </trkpt>
      <trkpt lat="44.56894" lon="5.96962">
        <ele>970.8</ele>
        <time>2023-05-15T07:29:37Z</time>
      </trkpt>
      <trkpt lat="44.56906" lon="5.96982">
        <ele>970.6</ele>
        <time>2023-05-15T07:29:41Z</time>
      </trkpt>
      <trkpt lat="44.56915" lon="5.96997">
        <ele>970.4</ele>
        <time>2023-05-15T07:29:44Z</time>
      </trkpt>
      <trkpt lat="44.56918" lon="5.97003">
        <ele>970.4</ele>
        <time>2023-05-15T07:29:45Z</time>
      </trkpt>
      <trkpt lat="44.56931" lon="5.9704">
        <ele>970.2</ele>
        <time>2023-05-15T07:29:52Z</time>
      </trkpt>
      <trkpt lat="44.56933" lon="5.97044">
        <ele>970.2</ele>
        <time>2023-05-15T07:29:53Z</time>
      </trkpt>
      <trkpt lat="44.56934" lon="5.97049">
        <ele>970.2</ele>
        <time>2023-05-15T07:29:54Z</time>
      </trkpt>
      <trkpt lat="44.56936" lon="5.97053">
        <ele>970.4</ele>
        <time>2023-05-15T07:29:55Z</time>
      </trkpt>
      <trkpt lat="44.56937" lon="5.97057">
        <ele>970.6</ele>
        <time>2023-05-15T07:29:56Z</time>
      </trkpt>
      <trkpt lat="44.56938" lon="5.97062">
        <ele>970.8</ele>
        <time>2023-05-15T07:29:57Z</time>
      </trkpt>
      <trkpt lat="44.56939" lon="5.97066">
        <ele>971</ele>
        <time>2023-05-15T07:29:58Z</time>
      </trkpt>
      <trkpt lat="44.56941" lon="5.97104">
        <ele>971.6</ele>
        <time>2023-05-15T07:30:05Z</time>
      </trkpt>
      <trkpt lat="44.56941" lon="5.97116">
        <ele>971.8</ele>
        <time>2023-05-15T07:30:07Z</time>
      </trkpt>
      <trkpt lat="44.56942" lon="5.9714">
        <ele>972</ele>
        <time>2023-05-15T07:30:11Z</time>
      </trkpt>
      <trkpt lat="44.56943" lon="5.97158">
        <ele>972</ele>
        <time>2023-05-15T07:30:14Z</time>
      </trkpt>
      <trkpt lat="44.56944" lon="5.97163">
        <ele>972.2</ele>
        <time>2023-05-15T07:30:15Z</time>
      </trkpt>
      <trkpt lat="44.56951" lon="5.97186">
        <ele>972.4</ele>
        <time>2023-05-15T07:30:19Z</time>
      </trkpt>
      <trkpt lat="44.56953" lon="5.97191">
        <ele>972.6</ele>
        <time>2023-05-15T07:30:20Z</time>
      </trkpt>
      <trkpt lat="44.56955" lon="5.97195">
        <ele>972.6</ele>
        <time>2023-05-15T07:30:21Z</time>
      </trkpt>
      <trkpt lat="44.56957" lon="5.97199">
        <ele>972.8</ele>
        <time>2023-05-15T07:30:22Z</time>
      </trkpt>
      <trkpt lat="44.56958" lon="5.97203">
        <ele>972.8</ele>
        <time>2023-05-15T07:30:23Z</time>
      </trkpt>
      <trkpt lat="44.5696" lon="5.97208">
        <ele>972.8</ele>
        <time>2023-05-15T07:30:24Z</time>
      </trkpt>
      <trkpt lat="44.56962" lon="5.97213">
        <ele>973</ele>
        <time>2023-05-15T07:30:25Z</time>
      </trkpt>
      <trkpt lat="44.56964" lon="5.97217">
        <ele>973</ele>
        <time>2023-05-15T07:30:26Z</time>
      </trkpt>
      <trkpt lat="44.56965" lon="5.97222">
        <ele>973.2</ele>
        <time>2023-05-15T07:30:27Z</time>
      </trkpt>
      <trkpt lat="44.56967" lon="5.97226">
        <ele>973.2</ele>
        <time>2023-05-15T07:30:28Z</time>
      </trkpt>
      <trkpt lat="44.56968" lon="5.9723">
        <ele>973.4</ele>
        <time>2023-05-15T07:30:29Z</time>
      </trkpt>
      <trkpt lat="44.5697" lon="5.97234">
        <ele>973.4</ele>
        <time>2023-05-15T07:30:30Z</time>
      </trkpt>
      <trkpt lat="44.56971" lon="5.97238">
        <ele>973.4</ele>
        <time>2023-05-15T07:30:31Z</time>
      </trkpt>
      <trkpt lat="44.56973" lon="5.97242">
        <ele>973.6</ele>
        <time>2023-05-15T07:30:32Z</time>
      </trkpt>
      <trkpt lat="44.56978" lon="5.97251">
        <ele>974</ele>
        <time>2023-05-15T07:30:34Z</time>
      </trkpt>
      <trkpt lat="44.56988" lon="5.97264">
        <ele>974</ele>
        <time>2023-05-15T07:30:37Z</time>
      </trkpt>
      <trkpt lat="44.56995" lon="5.97272">
        <ele>974.2</ele>
        <time>2023-05-15T07:30:39Z</time>
      </trkpt>
      <trkpt lat="44.56998" lon="5.97276">
        <ele>974.2</ele>
        <time>2023-05-15T07:30:40Z</time>
      </trkpt>
      <trkpt lat="44.57" lon="5.9728">
        <ele>974</ele>
        <time>2023-05-15T07:30:41Z</time>
      </trkpt>
      <trkpt lat="44.57003" lon="5.97285">
        <ele>973.8</ele>
        <time>2023-05-15T07:30:42Z</time>
      </trkpt>
      <trkpt lat="44.57005" lon="5.97289">
        <ele>973.8</ele>
        <time>2023-05-15T07:30:43Z</time>
      </trkpt>
      <trkpt lat="44.57008" lon="5.97293">
        <ele>973.8</ele>
        <time>2023-05-15T07:30:44Z</time>
      </trkpt>
      <trkpt lat="44.57017" lon="5.97303">
        <ele>973.8</ele>
        <time>2023-05-15T07:30:47Z</time>
      </trkpt>
      <trkpt lat="44.5702" lon="5.97306">
        <ele>973.8</ele>
        <time>2023-05-15T07:30:48Z</time>
      </trkpt>
      <trkpt lat="44.57023" lon="5.9731">
        <ele>973.8</ele>
        <time>2023-05-15T07:30:49Z</time>
      </trkpt>
      <trkpt lat="44.57026" lon="5.97313">
        <ele>974</ele>
        <time>2023-05-15T07:30:50Z</time>
      </trkpt>
      <trkpt lat="44.57029" lon="5.97317">
        <ele>974</ele>
        <time>2023-05-15T07:30:51Z</time>
      </trkpt>
      <trkpt lat="44.5704" lon="5.9734">
        <ele>974.4</ele>
        <time>2023-05-15T07:30:56Z</time>
      </trkpt>
      <trkpt lat="44.57048" lon="5.97372">
        <ele>974.4</ele>
        <time>2023-05-15T07:31:02Z</time>
      </trkpt>
      <trkpt lat="44.57055" lon="5.97382">
        <ele>974.4</ele>
        <time>2023-05-15T07:31:04Z</time>
      </trkpt>
      <trkpt lat="44.57058" lon="5.97389">
        <ele>974.4</ele>
        <time>2023-05-15T07:31:05Z</time>
      </trkpt>
      <trkpt lat="44.5706" lon="5.97394">
        <ele>974.4</ele>
        <time>2023-05-15T07:31:06Z</time>
      </trkpt>
      <trkpt lat="44.57062" lon="5.97401">
        <ele>974.4</ele>
        <time>2023-05-15T07:31:07Z</time>
      </trkpt>
      <trkpt lat="44.57063" lon="5.97406">
        <ele>974.4</ele>
        <time>2023-05-15T07:31:08Z</time>
      </trkpt>
      <trkpt lat="44.57063" lon="5.97409">
        <ele>974.4</ele>
        <time>2023-05-15T07:31:09Z</time>
      </trkpt>
      <trkpt lat="44.57064" lon="5.97415">
        <ele>974.4</ele>
        <time>2023-05-15T07:31:10Z</time>
      </trkpt>
      <trkpt lat="44.57066" lon="5.97419">
        <ele>974.4</ele>
        <time>2023-05-15T07:31:11Z</time>
      </trkpt>
      <trkpt lat="44.57067" lon="5.97422">
        <ele>974.4</ele>
        <time>2023-05-15T07:31:12Z</time>
      </trkpt>
      <trkpt lat="44.57068" lon="5.97426">
        <ele>974.4</ele>
        <time>2023-05-15T07:31:13Z</time>
      </trkpt>
      <trkpt lat="44.57068" lon="5.97429">
        <ele>974.4</ele>
        <time>2023-05-15T07:31:14Z</time>
      </trkpt>
      <trkpt lat="44.5707" lon="5.97438">
        <ele>974.6</ele>
        <time>2023-05-15T07:31:16Z</time>
      </trkpt>
      <trkpt lat="44.57071" lon="5.97443">
        <ele>974.8</ele>
        <time>2023-05-15T07:31:17Z</time>
      </trkpt>
      <trkpt lat="44.57071" lon="5.97448">
        <ele>975</ele>
        <time>2023-05-15T07:31:18Z</time>
      </trkpt>
      <trkpt lat="44.57068" lon="5.97468">
        <ele>975.2</ele>
        <time>2023-05-15T07:31:22Z</time>
      </trkpt>
      <trkpt lat="44.57066" lon="5.97472">
        <ele>975.4</ele>
        <time>2023-05-15T07:31:23Z</time>
      </trkpt>
      <trkpt lat="44.57065" lon="5.97476">
        <ele>975.4</ele>
        <time>2023-05-15T07:31:24Z</time>
      </trkpt>
      <trkpt lat="44.57063" lon="5.97481">
        <ele>975.2</ele>
        <time>2023-05-15T07:31:25Z</time>
      </trkpt>
      <trkpt lat="44.57059" lon="5.97496">
        <ele>975</ele>
        <time>2023-05-15T07:31:28Z</time>
      </trkpt>
      <trkpt lat="44.5706" lon="5.97506">
        <ele>975</ele>
        <time>2023-05-15T07:31:30Z</time>
      </trkpt>
      <trkpt lat="44.57061" lon="5.9751">
        <ele>975</ele>
        <time>2023-05-15T07:31:31Z</time>
      </trkpt>
      <trkpt lat="44.57062" lon="5.97514">
        <ele>975</ele>
        <time>2023-05-15T07:31:32Z</time>
      </trkpt>
      <trkpt lat="44.57064" lon="5.97518">
        <ele>975</ele>
        <time>2023-05-15T07:31:33Z</time>
      </trkpt>
      <trkpt lat="44.57066" lon="5.97522">
        <ele>975</ele>
        <time>2023-05-15T07:31:34Z</time>
      </trkpt>
      <trkpt lat="44.57069" lon="5.97526">
        <ele>975</ele>
        <time>2023-05-15T07:31:35Z</time>
      </trkpt>
      <trkpt lat="44.57081" lon="5.97552">
        <ele>975.4</ele>
        <time>2023-05-15T07:31:40Z</time>
      </trkpt>
      <trkpt lat="44.57084" lon="5.97569">
        <ele>975.6</ele>
        <time>2023-05-15T07:31:43Z</time>
      </trkpt>
      <trkpt lat="44.57085" lon="5.97575">
        <ele>975.6</ele>
        <time>2023-05-15T07:31:44Z</time>
      </trkpt>
      <trkpt lat="44.57085" lon="5.9758">
        <ele>975.6</ele>
        <time>2023-05-15T07:31:45Z</time>
      </trkpt>
      <trkpt lat="44.57086" lon="5.97586">
        <ele>975.6</ele>
        <time>2023-05-15T07:31:46Z</time>
      </trkpt>
      <trkpt lat="44.57086" lon="5.97592">
        <ele>975.4</ele>
        <time>2023-05-15T07:31:47Z</time>
      </trkpt>
      <trkpt lat="44.57085" lon="5.97611">
        <ele>975.4</ele>
        <time>2023-05-15T07:31:50Z</time>
      </trkpt>
      <trkpt lat="44.57083" lon="5.97618">
        <ele>975.2</ele>
        <time>2023-05-15T07:31:51Z</time>
      </trkpt>
      <trkpt lat="44.57081" lon="5.97625">
        <ele>975.2</ele>
        <time>2023-05-15T07:31:52Z</time>
      </trkpt>
      <trkpt lat="44.57078" lon="5.97632">
        <ele>975.2</ele>
        <time>2023-05-15T07:31:53Z</time>
      </trkpt>
      <trkpt lat="44.57075" lon="5.97637">
        <ele>975</ele>
        <time>2023-05-15T07:31:54Z</time>
      </trkpt>
      <trkpt lat="44.57073" lon="5.97643">
        <ele>974.8</ele>
        <time>2023-05-15T07:31:55Z</time>
      </trkpt>
      <trkpt lat="44.57071" lon="5.97649">
        <ele>974.6</ele>
        <time>2023-05-15T07:31:56Z</time>
      </trkpt>
      <trkpt lat="44.5707" lon="5.97655">
        <ele>974.6</ele>
        <time>2023-05-15T07:31:57Z</time>
      </trkpt>
      <trkpt lat="44.5707" lon="5.97662">
        <ele>974.2</ele>
        <time>2023-05-15T07:31:58Z</time>
      </trkpt>
      <trkpt lat="44.57071" lon="5.97667">
        <ele>974.2</ele>
        <time>2023-05-15T07:31:59Z</time>
      </trkpt>
      <trkpt lat="44.57072" lon="5.97672">
        <ele>974.2</ele>
        <time>2023-05-15T07:32:00Z</time>
      </trkpt>
      <trkpt lat="44.57073" lon="5.97677">
        <ele>974</ele>
        <time>2023-05-15T07:32:01Z</time>
      </trkpt>
      <trkpt lat="44.57074" lon="5.97683">
        <ele>974</ele>
        <time>2023-05-15T07:32:02Z</time>
      </trkpt>
      <trkpt lat="44.57075" lon="5.97688">
        <ele>974</ele>
        <time>2023-05-15T07:32:03Z</time>
      </trkpt>
      <trkpt lat="44.5708" lon="5.97706">
        <ele>974.2</ele>
        <time>2023-05-15T07:32:07Z</time>
      </trkpt>
      <trkpt lat="44.57081" lon="5.9771">
        <ele>974.4</ele>
        <time>2023-05-15T07:32:08Z</time>
      </trkpt>
      <trkpt lat="44.57083" lon="5.97714">
        <ele>974.4</ele>
        <time>2023-05-15T07:32:09Z</time>
      </trkpt>
      <trkpt lat="44.57084" lon="5.97718">
        <ele>974.4</ele>
        <time>2023-05-15T07:32:10Z</time>
      </trkpt>
      <trkpt lat="44.57085" lon="5.97722">
        <ele>974.4</ele>
        <time>2023-05-15T07:32:11Z</time>
      </trkpt>
      <trkpt lat="44.57087" lon="5.97739">
        <ele>974.8</ele>
        <time>2023-05-15T07:32:14Z</time>
      </trkpt>
      <trkpt lat="44.57093" lon="5.97763">
        <ele>974.8</ele>
        <time>2023-05-15T07:32:18Z</time>
      </trkpt>
      <trkpt lat="44.57096" lon="5.97768">
        <ele>974.8</ele>
        <time>2023-05-15T07:32:19Z</time>
      </trkpt>
      <trkpt lat="44.571" lon="5.97772">
        <ele>974.8</ele>
        <time>2023-05-15T07:32:20Z</time>
      </trkpt>
      <trkpt lat="44.57103" lon="5.97777">
        <ele>974.6</ele>
        <time>2023-05-15T07:32:21Z</time>
      </trkpt>
      <trkpt lat="44.57105" lon="5.97781">
        <ele>974.4</ele>
        <time>2023-05-15T07:32:22Z</time>
      </trkpt>
      <trkpt lat="44.57108" lon="5.97791">
        <ele>974.4</ele>
        <time>2023-05-15T07:32:24Z</time>
      </trkpt>
      <trkpt lat="44.57108" lon="5.97796">
        <ele>974.4</ele>
        <time>2023-05-15T07:32:25Z</time>
      </trkpt>
      <trkpt lat="44.57108" lon="5.97801">
        <ele>974.4</ele>
        <time>2023-05-15T07:32:26Z</time>
      </trkpt>
      <trkpt lat="44.57107" lon="5.97806">
        <ele>974.4</ele>
        <time>2023-05-15T07:32:27Z</time>
      </trkpt>
      <trkpt lat="44.57106" lon="5.97811">
        <ele>974.4</ele>
        <time>2023-05-15T07:32:28Z</time>
      </trkpt>
      <trkpt lat="44.57105" lon="5.97816">
        <ele>974.4</ele>
        <time>2023-05-15T07:32:29Z</time>
      </trkpt>
      <trkpt lat="44.57095" lon="5.97843">
        <ele>974.6</ele>
        <time>2023-05-15T07:32:34Z</time>
      </trkpt>
      <trkpt lat="44.57093" lon="5.97848">
        <ele>974.6</ele>
        <time>2023-05-15T07:32:35Z</time>
      </trkpt>
      <trkpt lat="44.57087" lon="5.97859">
        <ele>974.8</ele>
        <time>2023-05-15T07:32:37Z</time>
      </trkpt>
      <trkpt lat="44.57084" lon="5.97872">
        <ele>974.8</ele>
        <time>2023-05-15T07:32:39Z</time>
      </trkpt>
      <trkpt lat="44.57085" lon="5.97878">
        <ele>974.8</ele>
        <time>2023-05-15T07:32:40Z</time>
      </trkpt>
      <trkpt lat="44.57088" lon="5.97888">
        <ele>974.2</ele>
        <time>2023-05-15T07:32:42Z</time>
      </trkpt>
      <trkpt lat="44.5709" lon="5.97894">
        <ele>973.8</ele>
        <time>2023-05-15T07:32:43Z</time>
      </trkpt>
      <trkpt lat="44.57091" lon="5.97899">
        <ele>973.6</ele>
        <time>2023-05-15T07:32:44Z</time>
      </trkpt>
      <trkpt lat="44.57093" lon="5.97904">
        <ele>973.4</ele>
        <time>2023-05-15T07:32:45Z</time>
      </trkpt>
      <trkpt lat="44.57094" lon="5.97909">
        <ele>973.2</ele>
        <time>2023-05-15T07:32:46Z</time>
      </trkpt>
      <trkpt lat="44.57095" lon="5.97915">
        <ele>973.2</ele>
        <time>2023-05-15T07:32:47Z</time>
      </trkpt>
      <trkpt lat="44.57096" lon="5.97921">
        <ele>972.8</ele>
        <time>2023-05-15T07:32:48Z</time>
      </trkpt>
      <trkpt lat="44.57097" lon="5.97925">
        <ele>972.8</ele>
        <time>2023-05-15T07:32:49Z</time>
      </trkpt>
      <trkpt lat="44.57099" lon="5.97932">
        <ele>972.6</ele>
        <time>2023-05-15T07:32:50Z</time>
      </trkpt>
      <trkpt lat="44.57101" lon="5.97937">
        <ele>972.6</ele>
        <time>2023-05-15T07:32:51Z</time>
      </trkpt>
      <trkpt lat="44.57102" lon="5.97942">
        <ele>972.6</ele>
        <time>2023-05-15T07:32:52Z</time>
      </trkpt>
      <trkpt lat="44.57103" lon="5.97947">
        <ele>972.6</ele>
        <time>2023-05-15T07:32:53Z</time>
      </trkpt>
      <trkpt lat="44.57104" lon="5.97952">
        <ele>972.6</ele>
        <time>2023-05-15T07:32:54Z</time>
      </trkpt>
      <trkpt lat="44.57106" lon="5.97957">
        <ele>972.4</ele>
        <time>2023-05-15T07:32:55Z</time>
      </trkpt>
      <trkpt lat="44.5711" lon="5.9797">
        <ele>972.6</ele>
        <time>2023-05-15T07:32:58Z</time>
      </trkpt>
      <trkpt lat="44.57112" lon="5.97974">
        <ele>972.6</ele>
        <time>2023-05-15T07:32:59Z</time>
      </trkpt>
      <trkpt lat="44.57114" lon="5.97978">
        <ele>972.6</ele>
        <time>2023-05-15T07:33:00Z</time>
      </trkpt>
      <trkpt lat="44.57116" lon="5.97982">
        <ele>972.6</ele>
        <time>2023-05-15T07:33:01Z</time>
      </trkpt>
      <trkpt lat="44.57118" lon="5.97986">
        <ele>972.6</ele>
        <time>2023-05-15T07:33:02Z</time>
      </trkpt>
      <trkpt lat="44.57119" lon="5.97989">
        <ele>972.6</ele>
        <time>2023-05-15T07:33:03Z</time>
      </trkpt>
      <trkpt lat="44.5712" lon="5.97993">
        <ele>972.6</ele>
        <time>2023-05-15T07:33:04Z</time>
      </trkpt>
      <trkpt lat="44.57121" lon="5.97996">
        <ele>972.4</ele>
        <time>2023-05-15T07:33:05Z</time>
      </trkpt>
      <trkpt lat="44.57122" lon="5.97999">
        <ele>972.4</ele>
        <time>2023-05-15T07:33:06Z</time>
      </trkpt>
      <trkpt lat="44.57123" lon="5.98002">
        <ele>972.4</ele>
        <time>2023-05-15T07:33:07Z</time>
      </trkpt>
      <trkpt lat="44.57124" lon="5.98005">
        <ele>972.4</ele>
        <time>2023-05-15T07:33:08Z</time>
      </trkpt>
      <trkpt lat="44.57126" lon="5.98012">
        <ele>972.4</ele>
        <time>2023-05-15T07:33:10Z</time>
      </trkpt>
      <trkpt lat="44.57126" lon="5.98015">
        <ele>972.4</ele>
        <time>2023-05-15T07:33:11Z</time>
      </trkpt>
      <trkpt lat="44.57126" lon="5.98019">
        <ele>972.4</ele>
        <time>2023-05-15T07:33:12Z</time>
      </trkpt>
      <trkpt lat="44.57126" lon="5.98022">
        <ele>972.4</ele>
        <time>2023-05-15T07:33:13Z</time>
      </trkpt>
      <trkpt lat="44.57125" lon="5.98025">
        <ele>972.4</ele>
        <time>2023-05-15T07:33:14Z</time>
      </trkpt>
      <trkpt lat="44.57125" lon="5.98028">
        <ele>972.4</ele>
        <time>2023-05-15T07:33:15Z</time>
      </trkpt>
      <trkpt lat="44.57124" lon="5.98031">
        <ele>972.4</ele>
        <time>2023-05-15T07:33:16Z</time>
      </trkpt>
      <trkpt lat="44.57124" lon="5.98033">
        <ele>972.4</ele>
        <time>2023-05-15T07:33:17Z</time>
      </trkpt>
      <trkpt lat="44.57123" lon="5.98035">
        <ele>972.2</ele>
        <time>2023-05-15T07:33:18Z</time>
      </trkpt>
      <trkpt lat="44.57122" lon="5.98038">
        <ele>972.2</ele>
        <time>2023-05-15T07:33:19Z</time>
      </trkpt>
      <trkpt lat="44.57122" lon="5.98041">
        <ele>972</ele>
        <time>2023-05-15T07:33:20Z</time>
      </trkpt>
      <trkpt lat="44.57123" lon="5.98043">
        <ele>971.8</ele>
        <time>2023-05-15T07:33:21Z</time>
      </trkpt>
      <trkpt lat="44.57125" lon="5.98045">
        <ele>971.8</ele>
        <time>2023-05-15T07:33:22Z</time>
      </trkpt>
      <trkpt lat="44.57125" lon="5.98047">
        <ele>971.8</ele>
        <time>2023-05-15T07:33:23Z</time>
      </trkpt>
      <trkpt lat="44.57126" lon="5.9805">
        <ele>971.8</ele>
        <time>2023-05-15T07:33:24Z</time>
      </trkpt>
      <trkpt lat="44.57126" lon="5.98053">
        <ele>971.8</ele>
        <time>2023-05-15T07:33:25Z</time>
      </trkpt>
      <trkpt lat="44.57125" lon="5.98056">
        <ele>971.8</ele>
        <time>2023-05-15T07:33:26Z</time>
      </trkpt>
      <trkpt lat="44.57126" lon="5.98079">
        <ele>971.8</ele>
        <time>2023-05-15T07:33:33Z</time>
      </trkpt>
      <trkpt lat="44.57127" lon="5.98083">
        <ele>971.8</ele>
        <time>2023-05-15T07:33:34Z</time>
      </trkpt>
      <trkpt lat="44.57128" lon="5.98086">
        <ele>971.8</ele>
        <time>2023-05-15T07:33:35Z</time>
      </trkpt>
      <trkpt lat="44.57134" lon="5.98104">
        <ele>971.8</ele>
        <time>2023-05-15T07:33:40Z</time>
      </trkpt>
      <trkpt lat="44.57144" lon="5.98126">
        <ele>972.2</ele>
        <time>2023-05-15T07:33:47Z</time>
      </trkpt>
      <trkpt lat="44.57148" lon="5.98134">
        <ele>972.2</ele>
        <time>2023-05-15T07:33:50Z</time>
      </trkpt>
      <trkpt lat="44.57149" lon="5.98137">
        <ele>972.2</ele>
        <time>2023-05-15T07:33:51Z</time>
      </trkpt>
      <trkpt lat="44.5715" lon="5.98139">
        <ele>972.2</ele>
        <time>2023-05-15T07:33:52Z</time>
      </trkpt>
      <trkpt lat="44.57152" lon="5.98143">
        <ele>972.2</ele>
        <time>2023-05-15T07:33:53Z</time>
      </trkpt>
      <trkpt lat="44.57153" lon="5.98146">
        <ele>972.2</ele>
        <time>2023-05-15T07:33:54Z</time>
      </trkpt>
      <trkpt lat="44.57154" lon="5.98148">
        <ele>972.4</ele>
        <time>2023-05-15T07:33:55Z</time>
      </trkpt>
      <trkpt lat="44.57155" lon="5.98151">
        <ele>972.4</ele>
        <time>2023-05-15T07:33:56Z</time>
      </trkpt>
      <trkpt lat="44.57156" lon="5.98154">
        <ele>972.4</ele>
        <time>2023-05-15T07:33:57Z</time>
      </trkpt>
      <trkpt lat="44.57156" lon="5.98156">
        <ele>972.4</ele>
        <time>2023-05-15T07:33:58Z</time>
      </trkpt>
      <trkpt lat="44.57156" lon="5.98157">
        <ele>972.6</ele>
        <time>2023-05-15T07:33:59Z</time>
      </trkpt>
      <trkpt lat="44.57157" lon="5.98158">
        <ele>972.6</ele>
        <time>2023-05-15T07:34:00Z</time>
      </trkpt>
      <trkpt lat="44.57157" lon="5.98158">
        <ele>972.6</ele>
        <time>2023-05-15T07:34:01Z</time>
      </trkpt>
      <trkpt lat="44.57157" lon="5.98159">
        <ele>972.8</ele>
        <time>2023-05-15T07:34:02Z</time>
      </trkpt>
      <trkpt lat="44.57158" lon="5.98161">
        <ele>972.8</ele>
        <time>2023-05-15T07:34:03Z</time>
      </trkpt>
      <trkpt lat="44.57159" lon="5.98162">
        <ele>972.8</ele>
        <time>2023-05-15T07:34:04Z</time>
      </trkpt>
      <trkpt lat="44.57159" lon="5.98164">
        <ele>972.8</ele>
        <time>2023-05-15T07:34:05Z</time>
      </trkpt>
      <trkpt lat="44.57159" lon="5.98166">
        <ele>973</ele>
        <time>2023-05-15T07:34:06Z</time>
      </trkpt>
      <trkpt lat="44.57159" lon="5.98184">
        <ele>973.2</ele>
        <time>2023-05-15T07:34:14Z</time>
      </trkpt>
      <trkpt lat="44.57158" lon="5.98191">
        <ele>973.4</ele>
        <time>2023-05-15T07:34:16Z</time>
      </trkpt>
      <trkpt lat="44.57155" lon="5.98201">
        <ele>973.6</ele>
        <time>2023-05-15T07:34:19Z</time>
      </trkpt>
      <trkpt lat="44.57153" lon="5.98208">
        <ele>973.6</ele>
        <time>2023-05-15T07:34:21Z</time>
      </trkpt>
      <trkpt lat="44.57153" lon="5.98211">
        <ele>973.6</ele>
        <time>2023-05-15T07:34:22Z</time>
      </trkpt>
      <trkpt lat="44.57152" lon="5.98212">
        <ele>973.6</ele>
        <time>2023-05-15T07:34:23Z</time>
      </trkpt>
      <trkpt lat="44.57152" lon="5.98212">
        <ele>973.6</ele>
        <time>2023-05-15T07:34:24Z</time>
      </trkpt>
      <trkpt lat="44.57152" lon="5.98212">
        <ele>973.4</ele>
        <time>2023-05-15T07:34:33Z</time>
      </trkpt>
      <trkpt lat="44.57152" lon="5.98222">
        <ele>973.2</ele>
        <time>2023-05-15T07:34:39Z</time>
      </trkpt>
      <trkpt lat="44.57152" lon="5.98224">
        <ele>973.2</ele>
        <time>2023-05-15T07:34:40Z</time>
      </trkpt>
      <trkpt lat="44.57153" lon="5.98227">
        <ele>973.2</ele>
        <time>2023-05-15T07:34:41Z</time>
      </trkpt>
      <trkpt lat="44.57153" lon="5.9823">
        <ele>973.2</ele>
        <time>2023-05-15T07:34:42Z</time>
      </trkpt>
      <trkpt lat="44.57154" lon="5.98232">
        <ele>973.2</ele>
        <time>2023-05-15T07:34:43Z</time>
      </trkpt>
      <trkpt lat="44.57154" lon="5.98235">
        <ele>973.2</ele>
        <time>2023-05-15T07:34:44Z</time>
      </trkpt>
      <trkpt lat="44.57154" lon="5.98237">
        <ele>973.2</ele>
        <time>2023-05-15T07:34:45Z</time>
      </trkpt>
      <trkpt lat="44.57154" lon="5.9824">
        <ele>973.2</ele>
        <time>2023-05-15T07:34:46Z</time>
      </trkpt>
      <trkpt lat="44.57155" lon="5.98253">
        <ele>973.4</ele>
        <time>2023-05-15T07:34:51Z</time>
      </trkpt>
      <trkpt lat="44.57156" lon="5.98257">
        <ele>973.6</ele>
        <time>2023-05-15T07:34:53Z</time>
      </trkpt>
      <trkpt lat="44.57156" lon="5.98259">
        <ele>973.8</ele>
        <time>2023-05-15T07:34:54Z</time>
      </trkpt>
      <trkpt lat="44.57159" lon="5.98262">
        <ele>974</ele>
        <time>2023-05-15T07:34:56Z</time>
      </trkpt>
      <trkpt lat="44.5716" lon="5.98264">
        <ele>974.2</ele>
        <time>2023-05-15T07:34:57Z</time>
      </trkpt>
      <trkpt lat="44.57162" lon="5.98265">
        <ele>974.2</ele>
        <time>2023-05-15T07:34:58Z</time>
      </trkpt>
      <trkpt lat="44.57164" lon="5.98266">
        <ele>974.2</ele>
        <time>2023-05-15T07:34:59Z</time>
      </trkpt>
      <trkpt lat="44.57166" lon="5.98266">
        <ele>974.2</ele>
        <time>2023-05-15T07:35:00Z</time>
      </trkpt>
      <trkpt lat="44.57167" lon="5.98265">
        <ele>974.2</ele>
        <time>2023-05-15T07:35:01Z</time>
      </trkpt>
      <trkpt lat="44.5717" lon="5.98265">
        <ele>974.4</ele>
        <time>2023-05-15T07:35:02Z</time>
      </trkpt>
      <trkpt lat="44.57171" lon="5.98264">
        <ele>974.4</ele>
        <time>2023-05-15T07:35:03Z</time>
      </trkpt>
      <trkpt lat="44.57173" lon="5.98264">
        <ele>974.6</ele>
        <time>2023-05-15T07:35:04Z</time>
      </trkpt>
      <trkpt lat="44.57179" lon="5.98261">
        <ele>975</ele>
        <time>2023-05-15T07:35:08Z</time>
      </trkpt>
      <trkpt lat="44.57186" lon="5.98261">
        <ele>975.2</ele>
        <time>2023-05-15T07:35:11Z</time>
      </trkpt>
      <trkpt lat="44.57188" lon="5.98262">
        <ele>975.2</ele>
        <time>2023-05-15T07:35:12Z</time>
      </trkpt>
      <trkpt lat="44.57189" lon="5.98263">
        <ele>975.2</ele>
        <time>2023-05-15T07:35:13Z</time>
      </trkpt>
      <trkpt lat="44.5719" lon="5.98265">
        <ele>975.2</ele>
        <time>2023-05-15T07:35:14Z</time>
      </trkpt>
      <trkpt lat="44.5719" lon="5.98266">
        <ele>975.4</ele>
        <time>2023-05-15T07:35:15Z</time>
      </trkpt>
      <trkpt lat="44.5719" lon="5.98266">
        <ele>975.4</ele>
        <time>2023-05-15T07:35:16Z</time>
      </trkpt>
      <trkpt lat="44.5719" lon="5.98266">
        <ele>975.4</ele>
        <time>2023-05-15T07:35:18Z</time>
      </trkpt>
      <trkpt lat="44.57194" lon="5.98276">
        <ele>975.4</ele>
        <time>2023-05-15T07:35:25Z</time>
      </trkpt>
      <trkpt lat="44.57196" lon="5.98303">
        <ele>975.6</ele>
        <time>2023-05-15T07:35:34Z</time>
      </trkpt>
      <trkpt lat="44.57197" lon="5.9831">
        <ele>976.2</ele>
        <time>2023-05-15T07:35:36Z</time>
      </trkpt>
      <trkpt lat="44.57198" lon="5.98314">
        <ele>976.4</ele>
        <time>2023-05-15T07:35:37Z</time>
      </trkpt>
      <trkpt lat="44.57203" lon="5.98329">
        <ele>976.6</ele>
        <time>2023-05-15T07:35:42Z</time>
      </trkpt>
      <trkpt lat="44.57206" lon="5.9834">
        <ele>976.6</ele>
        <time>2023-05-15T07:35:46Z</time>
      </trkpt>
      <trkpt lat="44.57206" lon="5.98342">
        <ele>976.6</ele>
        <time>2023-05-15T07:35:47Z</time>
      </trkpt>
      <trkpt lat="44.57206" lon="5.98344">
        <ele>976.6</ele>
        <time>2023-05-15T07:35:48Z</time>
      </trkpt>
      <trkpt lat="44.57206" lon="5.98347">
        <ele>976.8</ele>
        <time>2023-05-15T07:35:49Z</time>
      </trkpt>
      <trkpt lat="44.57206" lon="5.98349">
        <ele>976.8</ele>
        <time>2023-05-15T07:35:50Z</time>
      </trkpt>
      <trkpt lat="44.57206" lon="5.98351">
        <ele>977</ele>
        <time>2023-05-15T07:35:51Z</time>
      </trkpt>
      <trkpt lat="44.57207" lon="5.98354">
        <ele>977</ele>
        <time>2023-05-15T07:35:52Z</time>
      </trkpt>
      <trkpt lat="44.57208" lon="5.98357">
        <ele>977</ele>
        <time>2023-05-15T07:35:53Z</time>
      </trkpt>
      <trkpt lat="44.57209" lon="5.9836">
        <ele>977.2</ele>
        <time>2023-05-15T07:35:54Z</time>
      </trkpt>
      <trkpt lat="44.5721" lon="5.98363">
        <ele>977.2</ele>
        <time>2023-05-15T07:35:55Z</time>
      </trkpt>
      <trkpt lat="44.57212" lon="5.98372">
        <ele>977.4</ele>
        <time>2023-05-15T07:35:58Z</time>
      </trkpt>
      <trkpt lat="44.57213" lon="5.98375">
        <ele>977.6</ele>
        <time>2023-05-15T07:35:59Z</time>
      </trkpt>
      <trkpt lat="44.57216" lon="5.98385">
        <ele>977.8</ele>
        <time>2023-05-15T07:36:02Z</time>
      </trkpt>
      <trkpt lat="44.57218" lon="5.98394">
        <ele>978.2</ele>
        <time>2023-05-15T07:36:05Z</time>
      </trkpt>
      <trkpt lat="44.57218" lon="5.98397">
        <ele>978.2</ele>
        <time>2023-05-15T07:36:06Z</time>
      </trkpt>
      <trkpt lat="44.57218" lon="5.984">
        <ele>978.4</ele>
        <time>2023-05-15T07:36:07Z</time>
      </trkpt>
      <trkpt lat="44.5722" lon="5.98405">
        <ele>978.4</ele>
        <time>2023-05-15T07:36:09Z</time>
      </trkpt>
      <trkpt lat="44.57224" lon="5.98417">
        <ele>979</ele>
        <time>2023-05-15T07:36:13Z</time>
      </trkpt>
      <trkpt lat="44.57224" lon="5.98419">
        <ele>979.2</ele>
        <time>2023-05-15T07:36:14Z</time>
      </trkpt>
      <trkpt lat="44.57225" lon="5.9842">
        <ele>979.2</ele>
        <time>2023-05-15T07:36:15Z</time>
      </trkpt>
      <trkpt lat="44.57226" lon="5.98421">
        <ele>979.4</ele>
        <time>2023-05-15T07:36:16Z</time>
      </trkpt>
      <trkpt lat="44.57227" lon="5.98422">
        <ele>979.4</ele>
        <time>2023-05-15T07:36:17Z</time>
      </trkpt>
      <trkpt lat="44.57228" lon="5.98424">
        <ele>979.4</ele>
        <time>2023-05-15T07:36:18Z</time>
      </trkpt>
      <trkpt lat="44.57229" lon="5.98429">
        <ele>979.4</ele>
        <time>2023-05-15T07:36:20Z</time>
      </trkpt>
      <trkpt lat="44.5723" lon="5.9843">
        <ele>979.4</ele>
        <time>2023-05-15T07:36:21Z</time>
      </trkpt>
      <trkpt lat="44.5723" lon="5.9843">
        <ele>979.4</ele>
        <time>2023-05-15T07:36:22Z</time>
      </trkpt>
      <trkpt lat="44.5723" lon="5.98433">
        <ele>979.2</ele>
        <time>2023-05-15T07:36:36Z</time>
      </trkpt>
      <trkpt lat="44.57231" lon="5.98437">
        <ele>979.2</ele>
        <time>2023-05-15T07:36:38Z</time>
      </trkpt>
      <trkpt lat="44.57232" lon="5.98442">
        <ele>979.2</ele>
        <time>2023-05-15T07:36:40Z</time>
      </trkpt>
      <trkpt lat="44.57231" lon="5.98444">
        <ele>979.2</ele>
        <time>2023-05-15T07:36:41Z</time>
      </trkpt>
      <trkpt lat="44.57231" lon="5.98446">
        <ele>979.4</ele>
        <time>2023-05-15T07:36:42Z</time>
      </trkpt>
      <trkpt lat="44.57231" lon="5.98447">
        <ele>979.4</ele>
        <time>2023-05-15T07:36:43Z</time>
      </trkpt>
      <trkpt lat="44.57231" lon="5.98448">
        <ele>979.4</ele>
        <time>2023-05-15T07:36:44Z</time>
      </trkpt>
      <trkpt lat="44.57231" lon="5.9845">
        <ele>979.4</ele>
        <time>2023-05-15T07:36:45Z</time>
      </trkpt>
      <trkpt lat="44.57233" lon="5.98453">
        <ele>979.4</ele>
        <time>2023-05-15T07:36:47Z</time>
      </trkpt>
      <trkpt lat="44.57233" lon="5.98455">
        <ele>979.4</ele>
        <time>2023-05-15T07:36:48Z</time>
      </trkpt>
      <trkpt lat="44.57235" lon="5.98461">
        <ele>979.2</ele>
        <time>2023-05-15T07:36:51Z</time>
      </trkpt>
      <trkpt lat="44.57236" lon="5.98462">
        <ele>979.2</ele>
        <time>2023-05-15T07:36:52Z</time>
      </trkpt>
      <trkpt lat="44.5724" lon="5.98468">
        <ele>979</ele>
        <time>2023-05-15T07:36:55Z</time>
      </trkpt>
      <trkpt lat="44.57244" lon="5.98479">
        <ele>979.2</ele>
        <time>2023-05-15T07:37:01Z</time>
      </trkpt>
      <trkpt lat="44.57245" lon="5.98481">
        <ele>979.2</ele>
        <time>2023-05-15T07:37:02Z</time>
      </trkpt>
      <trkpt lat="44.57248" lon="5.98492">
        <ele>980.2</ele>
        <time>2023-05-15T07:37:07Z</time>
      </trkpt>
      <trkpt lat="44.57249" lon="5.98494">
        <ele>980.4</ele>
        <time>2023-05-15T07:37:08Z</time>
      </trkpt>
      <trkpt lat="44.57249" lon="5.98496">
        <ele>980.6</ele>
        <time>2023-05-15T07:37:09Z</time>
      </trkpt>
      <trkpt lat="44.57249" lon="5.98496">
        <ele>980.6</ele>
        <time>2023-05-15T07:37:10Z</time>
      </trkpt>
      <trkpt lat="44.57249" lon="5.98496">
        <ele>980.8</ele>
        <time>2023-05-15T07:37:11Z</time>
      </trkpt>
      <trkpt lat="44.57249" lon="5.98496">
        <ele>981</ele>
        <time>2023-05-15T07:37:13Z</time>
      </trkpt>
      <trkpt lat="44.57249" lon="5.98496">
        <ele>981.2</ele>
        <time>2023-05-15T07:37:14Z</time>
      </trkpt>
      <trkpt lat="44.57249" lon="5.98496">
        <ele>982</ele>
        <time>2023-05-15T07:37:24Z</time>
      </trkpt>
      <trkpt lat="44.57249" lon="5.98493">
        <ele>982</ele>
        <time>2023-05-15T07:37:40Z</time>
      </trkpt>
      <trkpt lat="44.57248" lon="5.9849">
        <ele>982</ele>
        <time>2023-05-15T07:37:41Z</time>
      </trkpt>
      <trkpt lat="44.57246" lon="5.98481">
        <ele>981.8</ele>
        <time>2023-05-15T07:37:43Z</time>
      </trkpt>
      <trkpt lat="44.57244" lon="5.98477">
        <ele>981.8</ele>
        <time>2023-05-15T07:37:44Z</time>
      </trkpt>
      <trkpt lat="44.57243" lon="5.98472">
        <ele>981.8</ele>
        <time>2023-05-15T07:37:45Z</time>
      </trkpt>
      <trkpt lat="44.57235" lon="5.98456">
        <ele>981</ele>
        <time>2023-05-15T07:37:49Z</time>
      </trkpt>
      <trkpt lat="44.57234" lon="5.98453">
        <ele>980.4</ele>
        <time>2023-05-15T07:37:50Z</time>
      </trkpt>
      <trkpt lat="44.57233" lon="5.98452">
        <ele>980.4</ele>
        <time>2023-05-15T07:37:51Z</time>
      </trkpt>
      <trkpt lat="44.57233" lon="5.9845">
        <ele>980</ele>
        <time>2023-05-15T07:37:52Z</time>
      </trkpt>
      <trkpt lat="44.57233" lon="5.98448">
        <ele>980</ele>
        <time>2023-05-15T07:37:53Z</time>
      </trkpt>
      <trkpt lat="44.57234" lon="5.98446">
        <ele>979.8</ele>
        <time>2023-05-15T07:37:54Z</time>
      </trkpt>
      <trkpt lat="44.57234" lon="5.98443">
        <ele>979.6</ele>
        <time>2023-05-15T07:37:55Z</time>
      </trkpt>
      <trkpt lat="44.57234" lon="5.9844">
        <ele>979.6</ele>
        <time>2023-05-15T07:37:56Z</time>
      </trkpt>
      <trkpt lat="44.57232" lon="5.98433">
        <ele>979.6</ele>
        <time>2023-05-15T07:37:59Z</time>
      </trkpt>
      <trkpt lat="44.57232" lon="5.9843">
        <ele>979.6</ele>
        <time>2023-05-15T07:38:00Z</time>
      </trkpt>
      <trkpt lat="44.57228" lon="5.98423">
        <ele>979.6</ele>
        <time>2023-05-15T07:38:03Z</time>
      </trkpt>
      <trkpt lat="44.57225" lon="5.98422">
        <ele>979.8</ele>
        <time>2023-05-15T07:38:05Z</time>
      </trkpt>
      <trkpt lat="44.57224" lon="5.98421">
        <ele>979.6</ele>
        <time>2023-05-15T07:38:06Z</time>
      </trkpt>
      <trkpt lat="44.57222" lon="5.98421">
        <ele>979.6</ele>
        <time>2023-05-15T07:38:07Z</time>
      </trkpt>
      <trkpt lat="44.57221" lon="5.98421">
        <ele>979.4</ele>
        <time>2023-05-15T07:38:08Z</time>
      </trkpt>
      <trkpt lat="44.57219" lon="5.98422">
        <ele>979.4</ele>
        <time>2023-05-15T07:38:09Z</time>
      </trkpt>
      <trkpt lat="44.57217" lon="5.98423">
        <ele>979.4</ele>
        <time>2023-05-15T07:38:10Z</time>
      </trkpt>
      <trkpt lat="44.57215" lon="5.98424">
        <ele>979.4</ele>
        <time>2023-05-15T07:38:11Z</time>
      </trkpt>
      <trkpt lat="44.57203" lon="5.98429">
        <ele>978.6</ele>
        <time>2023-05-15T07:38:15Z</time>
      </trkpt>
      <trkpt lat="44.57203" lon="5.98429">
        <ele>978.4</ele>
        <time>2023-05-15T07:38:16Z</time>
      </trkpt>
      <trkpt lat="44.57203" lon="5.98429">
        <ele>978</ele>
        <time>2023-05-15T07:38:18Z</time>
      </trkpt>
      <trkpt lat="44.57203" lon="5.98429">
        <ele>977.6</ele>
        <time>2023-05-15T07:38:23Z</time>
      </trkpt>
      <trkpt lat="44.57205" lon="5.98428">
        <ele>977.6</ele>
        <time>2023-05-15T07:38:28Z</time>
      </trkpt>
      <trkpt lat="44.57207" lon="5.98427">
        <ele>977.4</ele>
        <time>2023-05-15T07:38:30Z</time>
      </trkpt>
      <trkpt lat="44.57211" lon="5.98425">
        <ele>977</ele>
        <time>2023-05-15T07:38:35Z</time>
      </trkpt>
      <trkpt lat="44.57212" lon="5.98424">
        <ele>976.8</ele>
        <time>2023-05-15T07:38:36Z</time>
      </trkpt>
      <trkpt lat="44.57213" lon="5.98424">
        <ele>976.8</ele>
        <time>2023-05-15T07:38:37Z</time>
      </trkpt>
      <trkpt lat="44.57215" lon="5.98423">
        <ele>976.6</ele>
        <time>2023-05-15T07:38:41Z</time>
      </trkpt>
      <trkpt lat="44.57216" lon="5.98423">
        <ele>976.6</ele>
        <time>2023-05-15T07:38:43Z</time>
      </trkpt>
      <trkpt lat="44.57216" lon="5.98423">
        <ele>976.6</ele>
        <time>2023-05-15T07:38:44Z</time>
      </trkpt>
      <trkpt lat="44.57216" lon="5.98423">
        <ele>976.8</ele>
        <time>2023-05-15T07:38:45Z</time>
      </trkpt>
      <trkpt lat="44.57216" lon="5.98423">
        <ele>977.6</ele>
        <time>2023-05-15T07:38:52Z</time>
      </trkpt>
      <trkpt lat="44.57214" lon="5.98423">
        <ele>977.6</ele>
        <time>2023-05-15T07:38:58Z</time>
      </trkpt>
      <trkpt lat="44.57209" lon="5.98425">
        <ele>977.6</ele>
        <time>2023-05-15T07:39:00Z</time>
      </trkpt>
      <trkpt lat="44.57204" lon="5.98427">
        <ele>977.4</ele>
        <time>2023-05-15T07:39:03Z</time>
      </trkpt>
      <trkpt lat="44.57203" lon="5.98428">
        <ele>977.4</ele>
        <time>2023-05-15T07:39:04Z</time>
      </trkpt>
      <trkpt lat="44.57202" lon="5.98428">
        <ele>977.2</ele>
        <time>2023-05-15T07:39:05Z</time>
      </trkpt>
      <trkpt lat="44.57202" lon="5.98428">
        <ele>977.2</ele>
        <time>2023-05-15T07:39:06Z</time>
      </trkpt>
      <trkpt lat="44.57201" lon="5.98428">
        <ele>977</ele>
        <time>2023-05-15T07:39:08Z</time>
      </trkpt>
      <trkpt lat="44.57201" lon="5.98428">
        <ele>977</ele>
        <time>2023-05-15T07:39:09Z</time>
      </trkpt>
      <trkpt lat="44.57201" lon="5.98428">
        <ele>977</ele>
        <time>2023-05-15T07:39:11Z</time>
      </trkpt>
      <trkpt lat="44.57201" lon="5.98428">
        <ele>977</ele>
        <time>2023-05-15T07:39:29Z</time>
      </trkpt>
      <trkpt lat="44.57201" lon="5.98428">
        <ele>976.8</ele>
        <time>2023-05-15T07:39:49Z</time>
      </trkpt>
      <trkpt lat="44.57203" lon="5.98428">
        <ele>977</ele>
        <time>2023-05-15T07:40:19Z</time>
      </trkpt>
      <trkpt lat="44.57202" lon="5.98429">
        <ele>976.8</ele>
        <time>2023-05-15T07:40:23Z</time>
      </trkpt>
      <trkpt lat="44.57202" lon="5.9843">
        <ele>977</ele>
        <time>2023-05-15T07:40:30Z</time>
      </trkpt>
      <trkpt lat="44.57202" lon="5.9843">
        <ele>977.2</ele>
        <time>2023-05-15T07:40:38Z</time>
      </trkpt>
      <trkpt lat="44.57203" lon="5.98436">
        <ele>977.2</ele>
        <time>2023-05-15T07:40:48Z</time>
      </trkpt>
      <trkpt lat="44.57203" lon="5.9844">
        <ele>977.2</ele>
        <time>2023-05-15T07:40:50Z</time>
      </trkpt>
      <trkpt lat="44.57203" lon="5.98442">
        <ele>977</ele>
        <time>2023-05-15T07:40:51Z</time>
      </trkpt>
      <trkpt lat="44.57203" lon="5.98443">
        <ele>977.2</ele>
        <time>2023-05-15T07:40:52Z</time>
      </trkpt>
      <trkpt lat="44.57203" lon="5.98443">
        <ele>977.2</ele>
        <time>2023-05-15T07:40:53Z</time>
      </trkpt>
      <trkpt lat="44.57203" lon="5.98445">
        <ele>977.2</ele>
        <time>2023-05-15T07:40:54Z</time>
      </trkpt>
      <trkpt lat="44.57204" lon="5.98447">
        <ele>977.4</ele>
        <time>2023-05-15T07:40:55Z</time>
      </trkpt>
      <trkpt lat="44.57204" lon="5.98448">
        <ele>977.6</ele>
        <time>2023-05-15T07:40:56Z</time>
      </trkpt>
      <trkpt lat="44.57209" lon="5.98463">
        <ele>978.4</ele>
        <time>2023-05-15T07:41:02Z</time>
      </trkpt>
      <trkpt lat="44.5721" lon="5.98465">
        <ele>978.2</ele>
        <time>2023-05-15T07:41:03Z</time>
      </trkpt>
      <trkpt lat="44.57211" lon="5.98467">
        <ele>978.2</ele>
        <time>2023-05-15T07:41:04Z</time>
      </trkpt>
      <trkpt lat="44.57212" lon="5.98474">
        <ele>978.2</ele>
        <time>2023-05-15T07:41:06Z</time>
      </trkpt>
      <trkpt lat="44.57213" lon="5.98478">
        <ele>978.2</ele>
        <time>2023-05-15T07:41:07Z</time>
      </trkpt>
      <trkpt lat="44.57214" lon="5.98482">
        <ele>978.2</ele>
        <time>2023-05-15T07:41:08Z</time>
      </trkpt>
      <trkpt lat="44.57213" lon="5.98488">
        <ele>978.2</ele>
        <time>2023-05-15T07:41:10Z</time>
      </trkpt>
      <trkpt lat="44.57214" lon="5.98491">
        <ele>978.2</ele>
        <time>2023-05-15T07:41:11Z</time>
      </trkpt>
      <trkpt lat="44.57214" lon="5.98493">
        <ele>978.2</ele>
        <time>2023-05-15T07:41:12Z</time>
      </trkpt>
      <trkpt lat="44.57215" lon="5.98496">
        <ele>978.2</ele>
        <time>2023-05-15T07:41:13Z</time>
      </trkpt>
      <trkpt lat="44.57216" lon="5.98498">
        <ele>978.2</ele>
        <time>2023-05-15T07:41:14Z</time>
      </trkpt>
      <trkpt lat="44.57217" lon="5.98499">
        <ele>978.2</ele>
        <time>2023-05-15T07:41:15Z</time>
      </trkpt>
      <trkpt lat="44.5722" lon="5.98504">
        <ele>978.4</ele>
        <time>2023-05-15T07:41:17Z</time>
      </trkpt>
      <trkpt lat="44.57221" lon="5.98507">
        <ele>978.4</ele>
        <time>2023-05-15T07:41:18Z</time>
      </trkpt>
      <trkpt lat="44.57223" lon="5.98509">
        <ele>978.4</ele>
        <time>2023-05-15T07:41:19Z</time>
      </trkpt>
      <trkpt lat="44.57224" lon="5.98512">
        <ele>978.4</ele>
        <time>2023-05-15T07:41:20Z</time>
      </trkpt>
      <trkpt lat="44.57226" lon="5.98516">
        <ele>978.4</ele>
        <time>2023-05-15T07:41:22Z</time>
      </trkpt>
      <trkpt lat="44.57226" lon="5.98519">
        <ele>978.4</ele>
        <time>2023-05-15T07:41:23Z</time>
      </trkpt>
      <trkpt lat="44.57228" lon="5.98521">
        <ele>978.4</ele>
        <time>2023-05-15T07:41:24Z</time>
      </trkpt>
      <trkpt lat="44.57229" lon="5.98524">
        <ele>978.4</ele>
        <time>2023-05-15T07:41:25Z</time>
      </trkpt>
      <trkpt lat="44.57232" lon="5.98538">
        <ele>978.4</ele>
        <time>2023-05-15T07:41:31Z</time>
      </trkpt>
      <trkpt lat="44.57233" lon="5.9854">
        <ele>978.4</ele>
        <time>2023-05-15T07:41:32Z</time>
      </trkpt>
      <trkpt lat="44.57233" lon="5.98542">
        <ele>978.6</ele>
        <time>2023-05-15T07:41:33Z</time>
      </trkpt>
      <trkpt lat="44.57234" lon="5.98543">
        <ele>978.6</ele>
        <time>2023-05-15T07:41:34Z</time>
      </trkpt>
      <trkpt lat="44.57235" lon="5.98545">
        <ele>978.6</ele>
        <time>2023-05-15T07:41:35Z</time>
      </trkpt>
      <trkpt lat="44.57236" lon="5.98546">
        <ele>978.6</ele>
        <time>2023-05-15T07:41:36Z</time>
      </trkpt>
      <trkpt lat="44.57237" lon="5.98548">
        <ele>978.6</ele>
        <time>2023-05-15T07:41:37Z</time>
      </trkpt>
      <trkpt lat="44.57237" lon="5.9855">
        <ele>978.6</ele>
        <time>2023-05-15T07:41:38Z</time>
      </trkpt>
      <trkpt lat="44.57238" lon="5.98553">
        <ele>978.8</ele>
        <time>2023-05-15T07:41:39Z</time>
      </trkpt>
      <trkpt lat="44.57239" lon="5.98555">
        <ele>978.8</ele>
        <time>2023-05-15T07:41:40Z</time>
      </trkpt>
      <trkpt lat="44.57239" lon="5.98556">
        <ele>979</ele>
        <time>2023-05-15T07:41:41Z</time>
      </trkpt>
      <trkpt lat="44.5724" lon="5.98558">
        <ele>979</ele>
        <time>2023-05-15T07:41:42Z</time>
      </trkpt>
      <trkpt lat="44.5724" lon="5.98558">
        <ele>979</ele>
        <time>2023-05-15T07:41:43Z</time>
      </trkpt>
      <trkpt lat="44.57241" lon="5.9856">
        <ele>979.2</ele>
        <time>2023-05-15T07:41:44Z</time>
      </trkpt>
      <trkpt lat="44.57242" lon="5.98561">
        <ele>979.2</ele>
        <time>2023-05-15T07:41:45Z</time>
      </trkpt>
      <trkpt lat="44.57242" lon="5.98564">
        <ele>979.2</ele>
        <time>2023-05-15T07:41:46Z</time>
      </trkpt>
      <trkpt lat="44.57242" lon="5.98566">
        <ele>979.2</ele>
        <time>2023-05-15T07:41:47Z</time>
      </trkpt>
      <trkpt lat="44.57243" lon="5.98567">
        <ele>979.2</ele>
        <time>2023-05-15T07:41:48Z</time>
      </trkpt>
      <trkpt lat="44.57244" lon="5.98568">
        <ele>979.2</ele>
        <time>2023-05-15T07:41:49Z</time>
      </trkpt>
      <trkpt lat="44.57243" lon="5.98571">
        <ele>979.2</ele>
        <time>2023-05-15T07:41:51Z</time>
      </trkpt>
      <trkpt lat="44.57243" lon="5.98572">
        <ele>979.2</ele>
        <time>2023-05-15T07:41:52Z</time>
      </trkpt>
      <trkpt lat="44.57242" lon="5.98574">
        <ele>979.4</ele>
        <time>2023-05-15T07:41:53Z</time>
      </trkpt>
      <trkpt lat="44.57242" lon="5.98575">
        <ele>979.4</ele>
        <time>2023-05-15T07:41:54Z</time>
      </trkpt>
      <trkpt lat="44.57241" lon="5.98577">
        <ele>979.4</ele>
        <time>2023-05-15T07:41:55Z</time>
      </trkpt>
      <trkpt lat="44.57241" lon="5.98582">
        <ele>979.6</ele>
        <time>2023-05-15T07:41:57Z</time>
      </trkpt>
      <trkpt lat="44.57242" lon="5.98583">
        <ele>979.6</ele>
        <time>2023-05-15T07:41:58Z</time>
      </trkpt>
      <trkpt lat="44.57244" lon="5.98586">
        <ele>980</ele>
        <time>2023-05-15T07:42:00Z</time>
      </trkpt>
      <trkpt lat="44.57245" lon="5.98588">
        <ele>980.4</ele>
        <time>2023-05-15T07:42:01Z</time>
      </trkpt>
      <trkpt lat="44.57245" lon="5.98589">
        <ele>980.8</ele>
        <time>2023-05-15T07:42:02Z</time>
      </trkpt>
      <trkpt lat="44.57245" lon="5.98589">
        <ele>981.2</ele>
        <time>2023-05-15T07:42:03Z</time>
      </trkpt>
      <trkpt lat="44.57245" lon="5.9859">
        <ele>981.6</ele>
        <time>2023-05-15T07:42:04Z</time>
      </trkpt>
      <trkpt lat="44.57245" lon="5.98591">
        <ele>981.8</ele>
        <time>2023-05-15T07:42:05Z</time>
      </trkpt>
      <trkpt lat="44.57246" lon="5.98593">
        <ele>982.2</ele>
        <time>2023-05-15T07:42:06Z</time>
      </trkpt>
      <trkpt lat="44.57247" lon="5.98595">
        <ele>982.4</ele>
        <time>2023-05-15T07:42:07Z</time>
      </trkpt>
      <trkpt lat="44.57248" lon="5.98597">
        <ele>982.8</ele>
        <time>2023-05-15T07:42:08Z</time>
      </trkpt>
      <trkpt lat="44.57248" lon="5.98599">
        <ele>983</ele>
        <time>2023-05-15T07:42:09Z</time>
      </trkpt>
      <trkpt lat="44.57249" lon="5.98601">
        <ele>983</ele>
        <time>2023-05-15T07:42:10Z</time>
      </trkpt>
      <trkpt lat="44.5725" lon="5.98604">
        <ele>983.2</ele>
        <time>2023-05-15T07:42:11Z</time>
      </trkpt>
      <trkpt lat="44.57251" lon="5.98606">
        <ele>983.4</ele>
        <time>2023-05-15T07:42:12Z</time>
      </trkpt>
      <trkpt lat="44.57252" lon="5.98608">
        <ele>983.6</ele>
        <time>2023-05-15T07:42:13Z</time>
      </trkpt>
      <trkpt lat="44.57253" lon="5.9861">
        <ele>983.6</ele>
        <time>2023-05-15T07:42:14Z</time>
      </trkpt>
      <trkpt lat="44.57254" lon="5.98611">
        <ele>983.6</ele>
        <time>2023-05-15T07:42:15Z</time>
      </trkpt>
      <trkpt lat="44.57254" lon="5.98612">
        <ele>983.8</ele>
        <time>2023-05-15T07:42:16Z</time>
      </trkpt>
      <trkpt lat="44.57255" lon="5.98614">
        <ele>983.8</ele>
        <time>2023-05-15T07:42:17Z</time>
      </trkpt>
      <trkpt lat="44.57255" lon="5.98617">
        <ele>984</ele>
        <time>2023-05-15T07:42:18Z</time>
      </trkpt>
      <trkpt lat="44.57255" lon="5.98619">
        <ele>984</ele>
        <time>2023-05-15T07:42:19Z</time>
      </trkpt>
      <trkpt lat="44.57257" lon="5.98621">
        <ele>984.2</ele>
        <time>2023-05-15T07:42:20Z</time>
      </trkpt>
      <trkpt lat="44.57259" lon="5.98623">
        <ele>984.2</ele>
        <time>2023-05-15T07:42:21Z</time>
      </trkpt>
      <trkpt lat="44.5726" lon="5.98625">
        <ele>984.4</ele>
        <time>2023-05-15T07:42:22Z</time>
      </trkpt>
      <trkpt lat="44.57262" lon="5.98627">
        <ele>984.4</ele>
        <time>2023-05-15T07:42:23Z</time>
      </trkpt>
      <trkpt lat="44.57264" lon="5.9863">
        <ele>984.4</ele>
        <time>2023-05-15T07:42:24Z</time>
      </trkpt>
      <trkpt lat="44.57266" lon="5.98632">
        <ele>984.4</ele>
        <time>2023-05-15T07:42:25Z</time>
      </trkpt>
      <trkpt lat="44.57267" lon="5.98636">
        <ele>984.4</ele>
        <time>2023-05-15T07:42:26Z</time>
      </trkpt>
      <trkpt lat="44.57269" lon="5.9864">
        <ele>984.4</ele>
        <time>2023-05-15T07:42:27Z</time>
      </trkpt>
      <trkpt lat="44.57272" lon="5.98641">
        <ele>984</ele>
        <time>2023-05-15T07:42:28Z</time>
      </trkpt>
      <trkpt lat="44.57275" lon="5.98641">
        <ele>983.8</ele>
        <time>2023-05-15T07:42:29Z</time>
      </trkpt>
      <trkpt lat="44.57278" lon="5.98643">
        <ele>983.6</ele>
        <time>2023-05-15T07:42:30Z</time>
      </trkpt>
      <trkpt lat="44.5728" lon="5.98646">
        <ele>983</ele>
        <time>2023-05-15T07:42:31Z</time>
      </trkpt>
      <trkpt lat="44.57282" lon="5.98648">
        <ele>982.6</ele>
        <time>2023-05-15T07:42:32Z</time>
      </trkpt>
      <trkpt lat="44.57283" lon="5.9865">
        <ele>981.8</ele>
        <time>2023-05-15T07:42:33Z</time>
      </trkpt>
      <trkpt lat="44.57285" lon="5.98651">
        <ele>981.6</ele>
        <time>2023-05-15T07:42:34Z</time>
      </trkpt>
      <trkpt lat="44.57287" lon="5.98651">
        <ele>981.2</ele>
        <time>2023-05-15T07:42:35Z</time>
      </trkpt>
      <trkpt lat="44.57288" lon="5.98652">
        <ele>981</ele>
        <time>2023-05-15T07:42:36Z</time>
      </trkpt>
      <trkpt lat="44.57291" lon="5.98653">
        <ele>980.8</ele>
        <time>2023-05-15T07:42:37Z</time>
      </trkpt>
      <trkpt lat="44.57292" lon="5.98654">
        <ele>980.6</ele>
        <time>2023-05-15T07:42:38Z</time>
      </trkpt>
      <trkpt lat="44.57295" lon="5.98657">
        <ele>980.6</ele>
        <time>2023-05-15T07:42:40Z</time>
      </trkpt>
      <trkpt lat="44.57297" lon="5.98658">
        <ele>980.4</ele>
        <time>2023-05-15T07:42:41Z</time>
      </trkpt>
      <trkpt lat="44.57301" lon="5.9866">
        <ele>980.4</ele>
        <time>2023-05-15T07:42:43Z</time>
      </trkpt>
      <trkpt lat="44.57304" lon="5.98661">
        <ele>980.2</ele>
        <time>2023-05-15T07:42:44Z</time>
      </trkpt>
      <trkpt lat="44.57306" lon="5.98662">
        <ele>980.4</ele>
        <time>2023-05-15T07:42:45Z</time>
      </trkpt>
      <trkpt lat="44.57308" lon="5.98663">
        <ele>980.4</ele>
        <time>2023-05-15T07:42:46Z</time>
      </trkpt>
      <trkpt lat="44.57314" lon="5.98668">
        <ele>980.4</ele>
        <time>2023-05-15T07:42:49Z</time>
      </trkpt>
      <trkpt lat="44.57316" lon="5.98671">
        <ele>980.4</ele>
        <time>2023-05-15T07:42:50Z</time>
      </trkpt>
      <trkpt lat="44.57317" lon="5.98674">
        <ele>980.4</ele>
        <time>2023-05-15T07:42:51Z</time>
      </trkpt>
      <trkpt lat="44.57318" lon="5.98676">
        <ele>980.4</ele>
        <time>2023-05-15T07:42:52Z</time>
      </trkpt>
      <trkpt lat="44.5732" lon="5.98679">
        <ele>980.6</ele>
        <time>2023-05-15T07:42:53Z</time>
      </trkpt>
      <trkpt lat="44.57322" lon="5.98683">
        <ele>980.6</ele>
        <time>2023-05-15T07:42:55Z</time>
      </trkpt>
      <trkpt lat="44.57324" lon="5.98685">
        <ele>980.8</ele>
        <time>2023-05-15T07:42:56Z</time>
      </trkpt>
      <trkpt lat="44.57326" lon="5.98687">
        <ele>980.8</ele>
        <time>2023-05-15T07:42:57Z</time>
      </trkpt>
      <trkpt lat="44.57329" lon="5.98688">
        <ele>980.8</ele>
        <time>2023-05-15T07:42:58Z</time>
      </trkpt>
      <trkpt lat="44.57331" lon="5.98689">
        <ele>980.8</ele>
        <time>2023-05-15T07:42:59Z</time>
      </trkpt>
      <trkpt lat="44.57334" lon="5.98692">
        <ele>981</ele>
        <time>2023-05-15T07:43:01Z</time>
      </trkpt>
      <trkpt lat="44.57344" lon="5.98702">
        <ele>981.8</ele>
        <time>2023-05-15T07:43:06Z</time>
      </trkpt>
      <trkpt lat="44.57346" lon="5.98706">
        <ele>981.8</ele>
        <time>2023-05-15T07:43:08Z</time>
      </trkpt>
      <trkpt lat="44.57347" lon="5.98709">
        <ele>982</ele>
        <time>2023-05-15T07:43:09Z</time>
      </trkpt>
      <trkpt lat="44.57348" lon="5.98716">
        <ele>982</ele>
        <time>2023-05-15T07:43:11Z</time>
      </trkpt>
      <trkpt lat="44.57349" lon="5.9872">
        <ele>982</ele>
        <time>2023-05-15T07:43:12Z</time>
      </trkpt>
      <trkpt lat="44.57349" lon="5.98724">
        <ele>982</ele>
        <time>2023-05-15T07:43:13Z</time>
      </trkpt>
      <trkpt lat="44.5735" lon="5.98728">
        <ele>982.2</ele>
        <time>2023-05-15T07:43:14Z</time>
      </trkpt>
      <trkpt lat="44.5735" lon="5.98745">
        <ele>982.4</ele>
        <time>2023-05-15T07:43:19Z</time>
      </trkpt>
      <trkpt lat="44.57349" lon="5.98747">
        <ele>982.6</ele>
        <time>2023-05-15T07:43:20Z</time>
      </trkpt>
      <trkpt lat="44.57348" lon="5.98749">
        <ele>982.6</ele>
        <time>2023-05-15T07:43:21Z</time>
      </trkpt>
      <trkpt lat="44.57347" lon="5.98751">
        <ele>982.6</ele>
        <time>2023-05-15T07:43:22Z</time>
      </trkpt>
      <trkpt lat="44.57347" lon="5.98752">
        <ele>982.8</ele>
        <time>2023-05-15T07:43:23Z</time>
      </trkpt>
      <trkpt lat="44.57346" lon="5.98754">
        <ele>983</ele>
        <time>2023-05-15T07:43:24Z</time>
      </trkpt>
      <trkpt lat="44.57346" lon="5.98756">
        <ele>983</ele>
        <time>2023-05-15T07:43:25Z</time>
      </trkpt>
      <trkpt lat="44.57347" lon="5.98757">
        <ele>983.2</ele>
        <time>2023-05-15T07:43:26Z</time>
      </trkpt>
      <trkpt lat="44.57349" lon="5.98759">
        <ele>983.2</ele>
        <time>2023-05-15T07:43:27Z</time>
      </trkpt>
      <trkpt lat="44.57351" lon="5.98764">
        <ele>983.2</ele>
        <time>2023-05-15T07:43:29Z</time>
      </trkpt>
      <trkpt lat="44.5735" lon="5.98778">
        <ele>983.4</ele>
        <time>2023-05-15T07:43:34Z</time>
      </trkpt>
      <trkpt lat="44.5735" lon="5.9878">
        <ele>983.4</ele>
        <time>2023-05-15T07:43:35Z</time>
      </trkpt>
      <trkpt lat="44.5735" lon="5.98782">
        <ele>983.4</ele>
        <time>2023-05-15T07:43:36Z</time>
      </trkpt>
      <trkpt lat="44.57351" lon="5.98784">
        <ele>983.6</ele>
        <time>2023-05-15T07:43:37Z</time>
      </trkpt>
      <trkpt lat="44.57351" lon="5.98786">
        <ele>983.6</ele>
        <time>2023-05-15T07:43:38Z</time>
      </trkpt>
      <trkpt lat="44.57352" lon="5.98789">
        <ele>984</ele>
        <time>2023-05-15T07:43:39Z</time>
      </trkpt>
      <trkpt lat="44.57351" lon="5.98791">
        <ele>984</ele>
        <time>2023-05-15T07:43:40Z</time>
      </trkpt>
      <trkpt lat="44.57351" lon="5.98793">
        <ele>984</ele>
        <time>2023-05-15T07:43:41Z</time>
      </trkpt>
      <trkpt lat="44.57352" lon="5.98796">
        <ele>984.2</ele>
        <time>2023-05-15T07:43:42Z</time>
      </trkpt>
      <trkpt lat="44.57353" lon="5.98799">
        <ele>984.4</ele>
        <time>2023-05-15T07:43:43Z</time>
      </trkpt>
      <trkpt lat="44.57354" lon="5.98802">
        <ele>984.6</ele>
        <time>2023-05-15T07:43:44Z</time>
      </trkpt>
      <trkpt lat="44.57355" lon="5.98804">
        <ele>984.6</ele>
        <time>2023-05-15T07:43:45Z</time>
      </trkpt>
      <trkpt lat="44.57356" lon="5.98806">
        <ele>985</ele>
        <time>2023-05-15T07:43:46Z</time>
      </trkpt>
      <trkpt lat="44.57356" lon="5.98808">
        <ele>985</ele>
        <time>2023-05-15T07:43:47Z</time>
      </trkpt>
      <trkpt lat="44.57357" lon="5.98811">
        <ele>985.2</ele>
        <time>2023-05-15T07:43:48Z</time>
      </trkpt>
      <trkpt lat="44.57359" lon="5.98814">
        <ele>985.4</ele>
        <time>2023-05-15T07:43:49Z</time>
      </trkpt>
      <trkpt lat="44.5736" lon="5.98816">
        <ele>985.4</ele>
        <time>2023-05-15T07:43:50Z</time>
      </trkpt>
      <trkpt lat="44.57362" lon="5.98818">
        <ele>985.6</ele>
        <time>2023-05-15T07:43:51Z</time>
      </trkpt>
      <trkpt lat="44.57363" lon="5.9882">
        <ele>985.6</ele>
        <time>2023-05-15T07:43:52Z</time>
      </trkpt>
      <trkpt lat="44.57365" lon="5.98823">
        <ele>985.8</ele>
        <time>2023-05-15T07:43:53Z</time>
      </trkpt>
      <trkpt lat="44.57367" lon="5.98826">
        <ele>985.8</ele>
        <time>2023-05-15T07:43:54Z</time>
      </trkpt>
      <trkpt lat="44.57369" lon="5.98828">
        <ele>986</ele>
        <time>2023-05-15T07:43:55Z</time>
      </trkpt>
      <trkpt lat="44.57371" lon="5.98831">
        <ele>986.2</ele>
        <time>2023-05-15T07:43:56Z</time>
      </trkpt>
      <trkpt lat="44.57372" lon="5.98832">
        <ele>986.4</ele>
        <time>2023-05-15T07:43:57Z</time>
      </trkpt>
      <trkpt lat="44.57374" lon="5.98833">
        <ele>986.4</ele>
        <time>2023-05-15T07:43:58Z</time>
      </trkpt>
      <trkpt lat="44.57375" lon="5.98834">
        <ele>986.6</ele>
        <time>2023-05-15T07:43:59Z</time>
      </trkpt>
      <trkpt lat="44.57377" lon="5.98837">
        <ele>986.6</ele>
        <time>2023-05-15T07:44:00Z</time>
      </trkpt>
      <trkpt lat="44.57379" lon="5.9884">
        <ele>986.8</ele>
        <time>2023-05-15T07:44:01Z</time>
      </trkpt>
      <trkpt lat="44.57381" lon="5.98844">
        <ele>986.8</ele>
        <time>2023-05-15T07:44:02Z</time>
      </trkpt>
      <trkpt lat="44.57383" lon="5.98846">
        <ele>987</ele>
        <time>2023-05-15T07:44:03Z</time>
      </trkpt>
      <trkpt lat="44.57384" lon="5.9885">
        <ele>987</ele>
        <time>2023-05-15T07:44:04Z</time>
      </trkpt>
      <trkpt lat="44.57384" lon="5.98852">
        <ele>987.2</ele>
        <time>2023-05-15T07:44:05Z</time>
      </trkpt>
      <trkpt lat="44.57385" lon="5.98854">
        <ele>987.2</ele>
        <time>2023-05-15T07:44:06Z</time>
      </trkpt>
      <trkpt lat="44.57387" lon="5.98856">
        <ele>987.4</ele>
        <time>2023-05-15T07:44:07Z</time>
      </trkpt>
      <trkpt lat="44.57388" lon="5.98858">
        <ele>987.6</ele>
        <time>2023-05-15T07:44:08Z</time>
      </trkpt>
      <trkpt lat="44.5739" lon="5.9886">
        <ele>987.8</ele>
        <time>2023-05-15T07:44:09Z</time>
      </trkpt>
      <trkpt lat="44.57392" lon="5.98861">
        <ele>988</ele>
        <time>2023-05-15T07:44:10Z</time>
      </trkpt>
      <trkpt lat="44.57394" lon="5.98863">
        <ele>988</ele>
        <time>2023-05-15T07:44:11Z</time>
      </trkpt>
      <trkpt lat="44.57396" lon="5.98865">
        <ele>988.2</ele>
        <time>2023-05-15T07:44:12Z</time>
      </trkpt>
      <trkpt lat="44.57398" lon="5.98866">
        <ele>988.2</ele>
        <time>2023-05-15T07:44:13Z</time>
      </trkpt>
      <trkpt lat="44.574" lon="5.98867">
        <ele>988.4</ele>
        <time>2023-05-15T07:44:14Z</time>
      </trkpt>
      <trkpt lat="44.57402" lon="5.98868">
        <ele>988.6</ele>
        <time>2023-05-15T07:44:15Z</time>
      </trkpt>
      <trkpt lat="44.57404" lon="5.98869">
        <ele>988.8</ele>
        <time>2023-05-15T07:44:16Z</time>
      </trkpt>
      <trkpt lat="44.57406" lon="5.98869">
        <ele>988.8</ele>
        <time>2023-05-15T07:44:17Z</time>
      </trkpt>
      <trkpt lat="44.57408" lon="5.9887">
        <ele>989.2</ele>
        <time>2023-05-15T07:44:18Z</time>
      </trkpt>
      <trkpt lat="44.5741" lon="5.98871">
        <ele>989.4</ele>
        <time>2023-05-15T07:44:19Z</time>
      </trkpt>
      <trkpt lat="44.57412" lon="5.98871">
        <ele>989.8</ele>
        <time>2023-05-15T07:44:20Z</time>
      </trkpt>
      <trkpt lat="44.57414" lon="5.9887">
        <ele>990</ele>
        <time>2023-05-15T07:44:21Z</time>
      </trkpt>
      <trkpt lat="44.57416" lon="5.98869">
        <ele>990</ele>
        <time>2023-05-15T07:44:22Z</time>
      </trkpt>
      <trkpt lat="44.57418" lon="5.9887">
        <ele>990</ele>
        <time>2023-05-15T07:44:23Z</time>
      </trkpt>
      <trkpt lat="44.57419" lon="5.98872">
        <ele>990.2</ele>
        <time>2023-05-15T07:44:24Z</time>
      </trkpt>
      <trkpt lat="44.57421" lon="5.98875">
        <ele>990.2</ele>
        <time>2023-05-15T07:44:25Z</time>
      </trkpt>
      <trkpt lat="44.57422" lon="5.98877">
        <ele>990.2</ele>
        <time>2023-05-15T07:44:26Z</time>
      </trkpt>
      <trkpt lat="44.57423" lon="5.9888">
        <ele>990.2</ele>
        <time>2023-05-15T07:44:27Z</time>
      </trkpt>
      <trkpt lat="44.57424" lon="5.98882">
        <ele>990.2</ele>
        <time>2023-05-15T07:44:28Z</time>
      </trkpt>
      <trkpt lat="44.57425" lon="5.98884">
        <ele>990.2</ele>
        <time>2023-05-15T07:44:29Z</time>
      </trkpt>
      <trkpt lat="44.57428" lon="5.98886">
        <ele>990.2</ele>
        <time>2023-05-15T07:44:30Z</time>
      </trkpt>
      <trkpt lat="44.57429" lon="5.98887">
        <ele>990.2</ele>
        <time>2023-05-15T07:44:31Z</time>
      </trkpt>
      <trkpt lat="44.57431" lon="5.98889">
        <ele>990.2</ele>
        <time>2023-05-15T07:44:32Z</time>
      </trkpt>
      <trkpt lat="44.57432" lon="5.98891">
        <ele>990.2</ele>
        <time>2023-05-15T07:44:33Z</time>
      </trkpt>
      <trkpt lat="44.57433" lon="5.98893">
        <ele>990.2</ele>
        <time>2023-05-15T07:44:34Z</time>
      </trkpt>
      <trkpt lat="44.57433" lon="5.98895">
        <ele>990.4</ele>
        <time>2023-05-15T07:44:35Z</time>
      </trkpt>
      <trkpt lat="44.57434" lon="5.98897">
        <ele>990.6</ele>
        <time>2023-05-15T07:44:36Z</time>
      </trkpt>
      <trkpt lat="44.57433" lon="5.98899">
        <ele>990.8</ele>
        <time>2023-05-15T07:44:37Z</time>
      </trkpt>
      <trkpt lat="44.57434" lon="5.98901">
        <ele>991</ele>
        <time>2023-05-15T07:44:38Z</time>
      </trkpt>
      <trkpt lat="44.57434" lon="5.98903">
        <ele>991.2</ele>
        <time>2023-05-15T07:44:39Z</time>
      </trkpt>
      <trkpt lat="44.57434" lon="5.98905">
        <ele>991.2</ele>
        <time>2023-05-15T07:44:40Z</time>
      </trkpt>
      <trkpt lat="44.57435" lon="5.98907">
        <ele>991.4</ele>
        <time>2023-05-15T07:44:41Z</time>
      </trkpt>
      <trkpt lat="44.57436" lon="5.98909">
        <ele>991.4</ele>
        <time>2023-05-15T07:44:42Z</time>
      </trkpt>
      <trkpt lat="44.57437" lon="5.98911">
        <ele>991.6</ele>
        <time>2023-05-15T07:44:43Z</time>
      </trkpt>
      <trkpt lat="44.57437" lon="5.98912">
        <ele>991.8</ele>
        <time>2023-05-15T07:44:44Z</time>
      </trkpt>
      <trkpt lat="44.57438" lon="5.98914">
        <ele>992</ele>
        <time>2023-05-15T07:44:45Z</time>
      </trkpt>
      <trkpt lat="44.57438" lon="5.98915">
        <ele>992.2</ele>
        <time>2023-05-15T07:44:46Z</time>
      </trkpt>
      <trkpt lat="44.57438" lon="5.98915">
        <ele>992.2</ele>
        <time>2023-05-15T07:44:47Z</time>
      </trkpt>
      <trkpt lat="44.57439" lon="5.98917">
        <ele>992.4</ele>
        <time>2023-05-15T07:44:48Z</time>
      </trkpt>
      <trkpt lat="44.5744" lon="5.98919">
        <ele>992.4</ele>
        <time>2023-05-15T07:44:49Z</time>
      </trkpt>
      <trkpt lat="44.57441" lon="5.98921">
        <ele>992.6</ele>
        <time>2023-05-15T07:44:50Z</time>
      </trkpt>
      <trkpt lat="44.57441" lon="5.98922">
        <ele>992.8</ele>
        <time>2023-05-15T07:44:51Z</time>
      </trkpt>
      <trkpt lat="44.57442" lon="5.98925">
        <ele>993</ele>
        <time>2023-05-15T07:44:52Z</time>
      </trkpt>
      <trkpt lat="44.57443" lon="5.98927">
        <ele>993.2</ele>
        <time>2023-05-15T07:44:53Z</time>
      </trkpt>
      <trkpt lat="44.57443" lon="5.98929">
        <ele>993.2</ele>
        <time>2023-05-15T07:44:54Z</time>
      </trkpt>
      <trkpt lat="44.57444" lon="5.98931">
        <ele>993.4</ele>
        <time>2023-05-15T07:44:55Z</time>
      </trkpt>
      <trkpt lat="44.57445" lon="5.98932">
        <ele>993.4</ele>
        <time>2023-05-15T07:44:56Z</time>
      </trkpt>
      <trkpt lat="44.57445" lon="5.98933">
        <ele>993.6</ele>
        <time>2023-05-15T07:44:57Z</time>
      </trkpt>
      <trkpt lat="44.57445" lon="5.98934">
        <ele>994</ele>
        <time>2023-05-15T07:44:58Z</time>
      </trkpt>
      <trkpt lat="44.57446" lon="5.98936">
        <ele>994</ele>
        <time>2023-05-15T07:44:59Z</time>
      </trkpt>
      <trkpt lat="44.57446" lon="5.98939">
        <ele>994.2</ele>
        <time>2023-05-15T07:45:00Z</time>
      </trkpt>
      <trkpt lat="44.57446" lon="5.98941">
        <ele>994.6</ele>
        <time>2023-05-15T07:45:01Z</time>
      </trkpt>
      <trkpt lat="44.57447" lon="5.98943">
        <ele>994.6</ele>
        <time>2023-05-15T07:45:02Z</time>
      </trkpt>
      <trkpt lat="44.57447" lon="5.98946">
        <ele>994.8</ele>
        <time>2023-05-15T07:45:03Z</time>
      </trkpt>
      <trkpt lat="44.57448" lon="5.98948">
        <ele>995</ele>
        <time>2023-05-15T07:45:04Z</time>
      </trkpt>
      <trkpt lat="44.57449" lon="5.9895">
        <ele>995.2</ele>
        <time>2023-05-15T07:45:05Z</time>
      </trkpt>
      <trkpt lat="44.57449" lon="5.98952">
        <ele>995.2</ele>
        <time>2023-05-15T07:45:06Z</time>
      </trkpt>
      <trkpt lat="44.5745" lon="5.98953">
        <ele>995.2</ele>
        <time>2023-05-15T07:45:07Z</time>
      </trkpt>
      <trkpt lat="44.5745" lon="5.98955">
        <ele>995.4</ele>
        <time>2023-05-15T07:45:08Z</time>
      </trkpt>
      <trkpt lat="44.5745" lon="5.98957">
        <ele>995.6</ele>
        <time>2023-05-15T07:45:09Z</time>
      </trkpt>
      <trkpt lat="44.57451" lon="5.98959">
        <ele>995.8</ele>
        <time>2023-05-15T07:45:10Z</time>
      </trkpt>
      <trkpt lat="44.57451" lon="5.98961">
        <ele>996.2</ele>
        <time>2023-05-15T07:45:11Z</time>
      </trkpt>
      <trkpt lat="44.57452" lon="5.98963">
        <ele>996.2</ele>
        <time>2023-05-15T07:45:12Z</time>
      </trkpt>
      <trkpt lat="44.57452" lon="5.98966">
        <ele>996.6</ele>
        <time>2023-05-15T07:45:13Z</time>
      </trkpt>
      <trkpt lat="44.57453" lon="5.98968">
        <ele>996.8</ele>
        <time>2023-05-15T07:45:14Z</time>
      </trkpt>
      <trkpt lat="44.57453" lon="5.98969">
        <ele>997</ele>
        <time>2023-05-15T07:45:15Z</time>
      </trkpt>
      <trkpt lat="44.57453" lon="5.98971">
        <ele>997</ele>
        <time>2023-05-15T07:45:16Z</time>
      </trkpt>
      <trkpt lat="44.57453" lon="5.98973">
        <ele>997.2</ele>
        <time>2023-05-15T07:45:17Z</time>
      </trkpt>
      <trkpt lat="44.57453" lon="5.98975">
        <ele>997.4</ele>
        <time>2023-05-15T07:45:18Z</time>
      </trkpt>
      <trkpt lat="44.57453" lon="5.98977">
        <ele>997.4</ele>
        <time>2023-05-15T07:45:19Z</time>
      </trkpt>
      <trkpt lat="44.57454" lon="5.98979">
        <ele>997.6</ele>
        <time>2023-05-15T07:45:20Z</time>
      </trkpt>
      <trkpt lat="44.57454" lon="5.98981">
        <ele>997.6</ele>
        <time>2023-05-15T07:45:21Z</time>
      </trkpt>
      <trkpt lat="44.57454" lon="5.98982">
        <ele>997.8</ele>
        <time>2023-05-15T07:45:22Z</time>
      </trkpt>
      <trkpt lat="44.57455" lon="5.98984">
        <ele>997.8</ele>
        <time>2023-05-15T07:45:23Z</time>
      </trkpt>
      <trkpt lat="44.57455" lon="5.98986">
        <ele>998.2</ele>
        <time>2023-05-15T07:45:24Z</time>
      </trkpt>
      <trkpt lat="44.57456" lon="5.98989">
        <ele>998.4</ele>
        <time>2023-05-15T07:45:25Z</time>
      </trkpt>
      <trkpt lat="44.57456" lon="5.9899">
        <ele>998.4</ele>
        <time>2023-05-15T07:45:26Z</time>
      </trkpt>
      <trkpt lat="44.57456" lon="5.98992">
        <ele>998.6</ele>
        <time>2023-05-15T07:45:27Z</time>
      </trkpt>
      <trkpt lat="44.57456" lon="5.98994">
        <ele>998.8</ele>
        <time>2023-05-15T07:45:28Z</time>
      </trkpt>
      <trkpt lat="44.57455" lon="5.98996">
        <ele>998.8</ele>
        <time>2023-05-15T07:45:29Z</time>
      </trkpt>
      <trkpt lat="44.57455" lon="5.98998">
        <ele>999</ele>
        <time>2023-05-15T07:45:30Z</time>
      </trkpt>
      <trkpt lat="44.57455" lon="5.99">
        <ele>999.4</ele>
        <time>2023-05-15T07:45:31Z</time>
      </trkpt>
      <trkpt lat="44.57455" lon="5.99002">
        <ele>999.6</ele>
        <time>2023-05-15T07:45:32Z</time>
      </trkpt>
      <trkpt lat="44.57454" lon="5.99004">
        <ele>1000</ele>
        <time>2023-05-15T07:45:33Z</time>
      </trkpt>
      <trkpt lat="44.57454" lon="5.99005">
        <ele>1000.2</ele>
        <time>2023-05-15T07:45:34Z</time>
      </trkpt>
      <trkpt lat="44.57454" lon="5.99006">
        <ele>1000.4</ele>
        <time>2023-05-15T07:45:35Z</time>
      </trkpt>
      <trkpt lat="44.57454" lon="5.99008">
        <ele>1000.8</ele>
        <time>2023-05-15T07:45:36Z</time>
      </trkpt>
      <trkpt lat="44.57454" lon="5.99009">
        <ele>1001</ele>
        <time>2023-05-15T07:45:37Z</time>
      </trkpt>
      <trkpt lat="44.57453" lon="5.99011">
        <ele>1001</ele>
        <time>2023-05-15T07:45:38Z</time>
      </trkpt>
      <trkpt lat="44.57453" lon="5.99012">
        <ele>1001.2</ele>
        <time>2023-05-15T07:45:39Z</time>
      </trkpt>
      <trkpt lat="44.57453" lon="5.99013">
        <ele>1001.8</ele>
        <time>2023-05-15T07:45:40Z</time>
      </trkpt>
      <trkpt lat="44.57453" lon="5.99015">
        <ele>1002</ele>
        <time>2023-05-15T07:45:41Z</time>
      </trkpt>
      <trkpt lat="44.57452" lon="5.99017">
        <ele>1002</ele>
        <time>2023-05-15T07:45:42Z</time>
      </trkpt>
      <trkpt lat="44.57452" lon="5.99019">
        <ele>1002.2</ele>
        <time>2023-05-15T07:45:43Z</time>
      </trkpt>
      <trkpt lat="44.57452" lon="5.9902">
        <ele>1002.2</ele>
        <time>2023-05-15T07:45:44Z</time>
      </trkpt>
      <trkpt lat="44.57451" lon="5.99022">
        <ele>1002.4</ele>
        <time>2023-05-15T07:45:45Z</time>
      </trkpt>
      <trkpt lat="44.57451" lon="5.99025">
        <ele>1002.4</ele>
        <time>2023-05-15T07:45:46Z</time>
      </trkpt>
      <trkpt lat="44.57452" lon="5.99027">
        <ele>1002.8</ele>
        <time>2023-05-15T07:45:47Z</time>
      </trkpt>
      <trkpt lat="44.57452" lon="5.99028">
        <ele>1002.8</ele>
        <time>2023-05-15T07:45:48Z</time>
      </trkpt>
      <trkpt lat="44.57452" lon="5.9903">
        <ele>1003</ele>
        <time>2023-05-15T07:45:49Z</time>
      </trkpt>
      <trkpt lat="44.57452" lon="5.99031">
        <ele>1003.2</ele>
        <time>2023-05-15T07:45:50Z</time>
      </trkpt>
      <trkpt lat="44.57453" lon="5.99033">
        <ele>1003.2</ele>
        <time>2023-05-15T07:45:51Z</time>
      </trkpt>
      <trkpt lat="44.57454" lon="5.99035">
        <ele>1003.4</ele>
        <time>2023-05-15T07:45:52Z</time>
      </trkpt>
      <trkpt lat="44.57455" lon="5.99037">
        <ele>1003.6</ele>
        <time>2023-05-15T07:45:53Z</time>
      </trkpt>
      <trkpt lat="44.57456" lon="5.99039">
        <ele>1003.8</ele>
        <time>2023-05-15T07:45:54Z</time>
      </trkpt>
      <trkpt lat="44.57456" lon="5.99041">
        <ele>1004</ele>
        <time>2023-05-15T07:45:55Z</time>
      </trkpt>
      <trkpt lat="44.57457" lon="5.99043">
        <ele>1004.2</ele>
        <time>2023-05-15T07:45:56Z</time>
      </trkpt>
      <trkpt lat="44.57457" lon="5.99045">
        <ele>1004.4</ele>
        <time>2023-05-15T07:45:57Z</time>
      </trkpt>
      <trkpt lat="44.57457" lon="5.99047">
        <ele>1004.4</ele>
        <time>2023-05-15T07:45:58Z</time>
      </trkpt>
      <trkpt lat="44.57458" lon="5.99049">
        <ele>1004.6</ele>
        <time>2023-05-15T07:45:59Z</time>
      </trkpt>
      <trkpt lat="44.57459" lon="5.9905">
        <ele>1004.8</ele>
        <time>2023-05-15T07:46:00Z</time>
      </trkpt>
      <trkpt lat="44.57459" lon="5.99052">
        <ele>1005</ele>
        <time>2023-05-15T07:46:01Z</time>
      </trkpt>
      <trkpt lat="44.5746" lon="5.99054">
        <ele>1005.2</ele>
        <time>2023-05-15T07:46:02Z</time>
      </trkpt>
      <trkpt lat="44.57461" lon="5.99055">
        <ele>1005.6</ele>
        <time>2023-05-15T07:46:03Z</time>
      </trkpt>
      <trkpt lat="44.57461" lon="5.99057">
        <ele>1005.6</ele>
        <time>2023-05-15T07:46:04Z</time>
      </trkpt>
      <trkpt lat="44.57462" lon="5.99058">
        <ele>1005.6</ele>
        <time>2023-05-15T07:46:05Z</time>
      </trkpt>
      <trkpt lat="44.57462" lon="5.99059">
        <ele>1005.8</ele>
        <time>2023-05-15T07:46:06Z</time>
      </trkpt>
      <trkpt lat="44.57462" lon="5.9906">
        <ele>1006</ele>
        <time>2023-05-15T07:46:07Z</time>
      </trkpt>
      <trkpt lat="44.57462" lon="5.99062">
        <ele>1006.2</ele>
        <time>2023-05-15T07:46:08Z</time>
      </trkpt>
      <trkpt lat="44.57461" lon="5.99064">
        <ele>1006.2</ele>
        <time>2023-05-15T07:46:09Z</time>
      </trkpt>
      <trkpt lat="44.57461" lon="5.99065">
        <ele>1006.4</ele>
        <time>2023-05-15T07:46:10Z</time>
      </trkpt>
      <trkpt lat="44.57461" lon="5.99067">
        <ele>1006.4</ele>
        <time>2023-05-15T07:46:11Z</time>
      </trkpt>
      <trkpt lat="44.57461" lon="5.99068">
        <ele>1006.4</ele>
        <time>2023-05-15T07:46:12Z</time>
      </trkpt>
      <trkpt lat="44.57461" lon="5.9907">
        <ele>1006.6</ele>
        <time>2023-05-15T07:46:13Z</time>
      </trkpt>
      <trkpt lat="44.57461" lon="5.99071">
        <ele>1006.6</ele>
        <time>2023-05-15T07:46:14Z</time>
      </trkpt>
      <trkpt lat="44.57462" lon="5.99073">
        <ele>1007.2</ele>
        <time>2023-05-15T07:46:15Z</time>
      </trkpt>
      <trkpt lat="44.57462" lon="5.99074">
        <ele>1007.4</ele>
        <time>2023-05-15T07:46:16Z</time>
      </trkpt>
      <trkpt lat="44.57462" lon="5.99075">
        <ele>1007.8</ele>
        <time>2023-05-15T07:46:17Z</time>
      </trkpt>
      <trkpt lat="44.57462" lon="5.99077">
        <ele>1008</ele>
        <time>2023-05-15T07:46:18Z</time>
      </trkpt>
      <trkpt lat="44.57462" lon="5.99078">
        <ele>1008.2</ele>
        <time>2023-05-15T07:46:19Z</time>
      </trkpt>
      <trkpt lat="44.57462" lon="5.99079">
        <ele>1008.2</ele>
        <time>2023-05-15T07:46:20Z</time>
      </trkpt>
      <trkpt lat="44.57463" lon="5.9908">
        <ele>1008.2</ele>
        <time>2023-05-15T07:46:21Z</time>
      </trkpt>
      <trkpt lat="44.57463" lon="5.99081">
        <ele>1008.4</ele>
        <time>2023-05-15T07:46:22Z</time>
      </trkpt>
      <trkpt lat="44.57463" lon="5.99081">
        <ele>1008.4</ele>
        <time>2023-05-15T07:46:23Z</time>
      </trkpt>
      <trkpt lat="44.57463" lon="5.99081">
        <ele>1008.4</ele>
        <time>2023-05-15T07:46:24Z</time>
      </trkpt>
      <trkpt lat="44.57463" lon="5.99081">
        <ele>1008.6</ele>
        <time>2023-05-15T07:46:26Z</time>
      </trkpt>
      <trkpt lat="44.57463" lon="5.99081">
        <ele>1008.8</ele>
        <time>2023-05-15T07:46:28Z</time>
      </trkpt>
      <trkpt lat="44.57463" lon="5.99077">
        <ele>1009</ele>
        <time>2023-05-15T07:46:33Z</time>
      </trkpt>
      <trkpt lat="44.57463" lon="5.99075">
        <ele>1009</ele>
        <time>2023-05-15T07:46:34Z</time>
      </trkpt>
      <trkpt lat="44.57464" lon="5.99072">
        <ele>1009</ele>
        <time>2023-05-15T07:46:35Z</time>
      </trkpt>
      <trkpt lat="44.57464" lon="5.9907">
        <ele>1009</ele>
        <time>2023-05-15T07:46:36Z</time>
      </trkpt>
      <trkpt lat="44.57464" lon="5.99067">
        <ele>1009</ele>
        <time>2023-05-15T07:46:37Z</time>
      </trkpt>
      <trkpt lat="44.57465" lon="5.99063">
        <ele>1009</ele>
        <time>2023-05-15T07:46:38Z</time>
      </trkpt>
      <trkpt lat="44.57465" lon="5.99061">
        <ele>1008.8</ele>
        <time>2023-05-15T07:46:39Z</time>
      </trkpt>
      <trkpt lat="44.57466" lon="5.9906">
        <ele>1008.6</ele>
        <time>2023-05-15T07:46:40Z</time>
      </trkpt>
      <trkpt lat="44.57467" lon="5.99058">
        <ele>1008.6</ele>
        <time>2023-05-15T07:46:41Z</time>
      </trkpt>
      <trkpt lat="44.57469" lon="5.99055">
        <ele>1008.4</ele>
        <time>2023-05-15T07:46:42Z</time>
      </trkpt>
      <trkpt lat="44.5747" lon="5.99054">
        <ele>1008.2</ele>
        <time>2023-05-15T07:46:43Z</time>
      </trkpt>
      <trkpt lat="44.57473" lon="5.99053">
        <ele>1007.8</ele>
        <time>2023-05-15T07:46:44Z</time>
      </trkpt>
      <trkpt lat="44.57475" lon="5.99052">
        <ele>1007.8</ele>
        <time>2023-05-15T07:46:45Z</time>
      </trkpt>
      <trkpt lat="44.57478" lon="5.99052">
        <ele>1007.6</ele>
        <time>2023-05-15T07:46:46Z</time>
      </trkpt>
      <trkpt lat="44.5748" lon="5.99052">
        <ele>1007.4</ele>
        <time>2023-05-15T07:46:47Z</time>
      </trkpt>
      <trkpt lat="44.57482" lon="5.99052">
        <ele>1007.2</ele>
        <time>2023-05-15T07:46:48Z</time>
      </trkpt>
      <trkpt lat="44.57496" lon="5.99047">
        <ele>1006.2</ele>
        <time>2023-05-15T07:46:52Z</time>
      </trkpt>
      <trkpt lat="44.57505" lon="5.99044">
        <ele>1004.8</ele>
        <time>2023-05-15T07:46:54Z</time>
      </trkpt>
      <trkpt lat="44.57513" lon="5.99041">
        <ele>1004.4</ele>
        <time>2023-05-15T07:46:56Z</time>
      </trkpt>
      <trkpt lat="44.57516" lon="5.9904">
        <ele>1004.4</ele>
        <time>2023-05-15T07:46:57Z</time>
      </trkpt>
      <trkpt lat="44.57519" lon="5.99038">
        <ele>1004</ele>
        <time>2023-05-15T07:46:58Z</time>
      </trkpt>
      <trkpt lat="44.57522" lon="5.99037">
        <ele>1003.8</ele>
        <time>2023-05-15T07:46:59Z</time>
      </trkpt>
      <trkpt lat="44.57525" lon="5.99035">
        <ele>1003</ele>
        <time>2023-05-15T07:47:00Z</time>
      </trkpt>
      <trkpt lat="44.57528" lon="5.99033">
        <ele>1002.4</ele>
        <time>2023-05-15T07:47:01Z</time>
      </trkpt>
      <trkpt lat="44.57531" lon="5.99031">
        <ele>1001.6</ele>
        <time>2023-05-15T07:47:02Z</time>
      </trkpt>
      <trkpt lat="44.57534" lon="5.99029">
        <ele>1000.8</ele>
        <time>2023-05-15T07:47:03Z</time>
      </trkpt>
      <trkpt lat="44.5754" lon="5.99027">
        <ele>999.4</ele>
        <time>2023-05-15T07:47:05Z</time>
      </trkpt>
      <trkpt lat="44.57546" lon="5.99026">
        <ele>999.2</ele>
        <time>2023-05-15T07:47:06Z</time>
      </trkpt>
      <trkpt lat="44.57556" lon="5.99023">
        <ele>998.2</ele>
        <time>2023-05-15T07:47:08Z</time>
      </trkpt>
      <trkpt lat="44.57567" lon="5.99024">
        <ele>997</ele>
        <time>2023-05-15T07:47:10Z</time>
      </trkpt>
      <trkpt lat="44.57575" lon="5.99026">
        <ele>996.2</ele>
        <time>2023-05-15T07:47:12Z</time>
      </trkpt>
      <trkpt lat="44.57579" lon="5.99027">
        <ele>995.8</ele>
        <time>2023-05-15T07:47:13Z</time>
      </trkpt>
      <trkpt lat="44.57582" lon="5.99027">
        <ele>995.4</ele>
        <time>2023-05-15T07:47:14Z</time>
      </trkpt>
      <trkpt lat="44.57584" lon="5.99027">
        <ele>995.2</ele>
        <time>2023-05-15T07:47:15Z</time>
      </trkpt>
      <trkpt lat="44.57586" lon="5.99029">
        <ele>995</ele>
        <time>2023-05-15T07:47:16Z</time>
      </trkpt>
      <trkpt lat="44.57588" lon="5.99032">
        <ele>995</ele>
        <time>2023-05-15T07:47:17Z</time>
      </trkpt>
      <trkpt lat="44.5759" lon="5.99034">
        <ele>994.8</ele>
        <time>2023-05-15T07:47:18Z</time>
      </trkpt>
      <trkpt lat="44.57592" lon="5.99035">
        <ele>994.8</ele>
        <time>2023-05-15T07:47:19Z</time>
      </trkpt>
      <trkpt lat="44.57595" lon="5.99038">
        <ele>994.8</ele>
        <time>2023-05-15T07:47:20Z</time>
      </trkpt>
      <trkpt lat="44.57596" lon="5.99039">
        <ele>994.8</ele>
        <time>2023-05-15T07:47:21Z</time>
      </trkpt>
      <trkpt lat="44.57597" lon="5.99039">
        <ele>994.8</ele>
        <time>2023-05-15T07:47:23Z</time>
      </trkpt>
      <trkpt lat="44.57597" lon="5.99039">
        <ele>994.8</ele>
        <time>2023-05-15T07:47:24Z</time>
      </trkpt>
      <trkpt lat="44.57597" lon="5.99039">
        <ele>995</ele>
        <time>2023-05-15T07:47:25Z</time>
      </trkpt>
      <trkpt lat="44.57597" lon="5.99039">
        <ele>994.8</ele>
        <time>2023-05-15T07:47:36Z</time>
      </trkpt>
      <trkpt lat="44.57597" lon="5.99039">
        <ele>995.2</ele>
        <time>2023-05-15T07:48:05Z</time>
      </trkpt>
      <trkpt lat="44.57597" lon="5.99039">
        <ele>995</ele>
        <time>2023-05-15T07:48:14Z</time>
      </trkpt>
      <trkpt lat="44.57597" lon="5.99039">
        <ele>995</ele>
        <time>2023-05-15T07:48:46Z</time>
      </trkpt>
      <trkpt lat="44.576" lon="5.99041">
        <ele>995</ele>
        <time>2023-05-15T07:49:01Z</time>
      </trkpt>
      <trkpt lat="44.57602" lon="5.99042">
        <ele>995</ele>
        <time>2023-05-15T07:49:02Z</time>
      </trkpt>
      <trkpt lat="44.57607" lon="5.99044">
        <ele>995.2</ele>
        <time>2023-05-15T07:49:06Z</time>
      </trkpt>
      <trkpt lat="44.57608" lon="5.99044">
        <ele>995.2</ele>
        <time>2023-05-15T07:49:07Z</time>
      </trkpt>
      <trkpt lat="44.57609" lon="5.99045">
        <ele>995.6</ele>
        <time>2023-05-15T07:49:08Z</time>
      </trkpt>
      <trkpt lat="44.5761" lon="5.99045">
        <ele>995.6</ele>
        <time>2023-05-15T07:49:09Z</time>
      </trkpt>
      <trkpt lat="44.57615" lon="5.99047">
        <ele>996.2</ele>
        <time>2023-05-15T07:49:12Z</time>
      </trkpt>
      <trkpt lat="44.57618" lon="5.99048">
        <ele>996.6</ele>
        <time>2023-05-15T07:49:14Z</time>
      </trkpt>
      <trkpt lat="44.57622" lon="5.99051">
        <ele>997</ele>
        <time>2023-05-15T07:49:17Z</time>
      </trkpt>
      <trkpt lat="44.57623" lon="5.99053">
        <ele>997.2</ele>
        <time>2023-05-15T07:49:18Z</time>
      </trkpt>
      <trkpt lat="44.57625" lon="5.99053">
        <ele>997.2</ele>
        <time>2023-05-15T07:49:19Z</time>
      </trkpt>
      <trkpt lat="44.57627" lon="5.99053">
        <ele>997.4</ele>
        <time>2023-05-15T07:49:20Z</time>
      </trkpt>
      <trkpt lat="44.57631" lon="5.99054">
        <ele>997.6</ele>
        <time>2023-05-15T07:49:21Z</time>
      </trkpt>
      <trkpt lat="44.57637" lon="5.99055">
        <ele>998.2</ele>
        <time>2023-05-15T07:49:23Z</time>
      </trkpt>
      <trkpt lat="44.5764" lon="5.99055">
        <ele>998.4</ele>
        <time>2023-05-15T07:49:24Z</time>
      </trkpt>
      <trkpt lat="44.57643" lon="5.99055">
        <ele>998.4</ele>
        <time>2023-05-15T07:49:25Z</time>
      </trkpt>
      <trkpt lat="44.57646" lon="5.99055">
        <ele>998.6</ele>
        <time>2023-05-15T07:49:26Z</time>
      </trkpt>
      <trkpt lat="44.57649" lon="5.99055">
        <ele>998.6</ele>
        <time>2023-05-15T07:49:27Z</time>
      </trkpt>
      <trkpt lat="44.57653" lon="5.99056">
        <ele>998.6</ele>
        <time>2023-05-15T07:49:28Z</time>
      </trkpt>
      <trkpt lat="44.57656" lon="5.99058">
        <ele>998.6</ele>
        <time>2023-05-15T07:49:29Z</time>
      </trkpt>
      <trkpt lat="44.57658" lon="5.99058">
        <ele>998.6</ele>
        <time>2023-05-15T07:49:30Z</time>
      </trkpt>
      <trkpt lat="44.57661" lon="5.9906">
        <ele>998.6</ele>
        <time>2023-05-15T07:49:31Z</time>
      </trkpt>
      <trkpt lat="44.57663" lon="5.99062">
        <ele>998.6</ele>
        <time>2023-05-15T07:49:32Z</time>
      </trkpt>
      <trkpt lat="44.57666" lon="5.99064">
        <ele>998.4</ele>
        <time>2023-05-15T07:49:33Z</time>
      </trkpt>
      <trkpt lat="44.57668" lon="5.99066">
        <ele>998.4</ele>
        <time>2023-05-15T07:49:34Z</time>
      </trkpt>
      <trkpt lat="44.5767" lon="5.99069">
        <ele>998.2</ele>
        <time>2023-05-15T07:49:35Z</time>
      </trkpt>
      <trkpt lat="44.57672" lon="5.99072">
        <ele>998.2</ele>
        <time>2023-05-15T07:49:36Z</time>
      </trkpt>
      <trkpt lat="44.57673" lon="5.99074">
        <ele>998</ele>
        <time>2023-05-15T07:49:37Z</time>
      </trkpt>
      <trkpt lat="44.57674" lon="5.99075">
        <ele>997.8</ele>
        <time>2023-05-15T07:49:38Z</time>
      </trkpt>
      <trkpt lat="44.57674" lon="5.99075">
        <ele>997.8</ele>
        <time>2023-05-15T07:49:39Z</time>
      </trkpt>
      <trkpt lat="44.57674" lon="5.99075">
        <ele>996.8</ele>
        <time>2023-05-15T07:49:51Z</time>
      </trkpt>
      <trkpt lat="44.57674" lon="5.99075">
        <ele>997</ele>
        <time>2023-05-15T07:50:19Z</time>
      </trkpt>
      <trkpt lat="44.57674" lon="5.99075">
        <ele>996.8</ele>
        <time>2023-05-15T07:50:40Z</time>
      </trkpt>
      <trkpt lat="44.57679" lon="5.99081">
        <ele>996.6</ele>
        <time>2023-05-15T07:50:47Z</time>
      </trkpt>
      <trkpt lat="44.57681" lon="5.99084">
        <ele>996.6</ele>
        <time>2023-05-15T07:50:48Z</time>
      </trkpt>
      <trkpt lat="44.57683" lon="5.99087">
        <ele>996.6</ele>
        <time>2023-05-15T07:50:49Z</time>
      </trkpt>
      <trkpt lat="44.57686" lon="5.99088">
        <ele>996.6</ele>
        <time>2023-05-15T07:50:51Z</time>
      </trkpt>
      <trkpt lat="44.57688" lon="5.99087">
        <ele>996.4</ele>
        <time>2023-05-15T07:50:52Z</time>
      </trkpt>
      <trkpt lat="44.57689" lon="5.99086">
        <ele>996.4</ele>
        <time>2023-05-15T07:50:53Z</time>
      </trkpt>
      <trkpt lat="44.57691" lon="5.99085">
        <ele>996.2</ele>
        <time>2023-05-15T07:50:54Z</time>
      </trkpt>
      <trkpt lat="44.57694" lon="5.99082">
        <ele>995.6</ele>
        <time>2023-05-15T07:50:56Z</time>
      </trkpt>
      <trkpt lat="44.57698" lon="5.99079">
        <ele>995.4</ele>
        <time>2023-05-15T07:50:58Z</time>
      </trkpt>
      <trkpt lat="44.57718" lon="5.99067">
        <ele>994.4</ele>
        <time>2023-05-15T07:51:08Z</time>
      </trkpt>
      <trkpt lat="44.57719" lon="5.99068">
        <ele>994.2</ele>
        <time>2023-05-15T07:51:09Z</time>
      </trkpt>
      <trkpt lat="44.5772" lon="5.9907">
        <ele>994</ele>
        <time>2023-05-15T07:51:10Z</time>
      </trkpt>
      <trkpt lat="44.57722" lon="5.99072">
        <ele>993.8</ele>
        <time>2023-05-15T07:51:11Z</time>
      </trkpt>
      <trkpt lat="44.57724" lon="5.99074">
        <ele>993.6</ele>
        <time>2023-05-15T07:51:12Z</time>
      </trkpt>
      <trkpt lat="44.57727" lon="5.99076">
        <ele>993.4</ele>
        <time>2023-05-15T07:51:13Z</time>
      </trkpt>
      <trkpt lat="44.57729" lon="5.99078">
        <ele>993.2</ele>
        <time>2023-05-15T07:51:14Z</time>
      </trkpt>
      <trkpt lat="44.57732" lon="5.9908">
        <ele>992.8</ele>
        <time>2023-05-15T07:51:16Z</time>
      </trkpt>
      <trkpt lat="44.57734" lon="5.99081">
        <ele>992.8</ele>
        <time>2023-05-15T07:51:17Z</time>
      </trkpt>
      <trkpt lat="44.57735" lon="5.99083">
        <ele>992.6</ele>
        <time>2023-05-15T07:51:18Z</time>
      </trkpt>
      <trkpt lat="44.57737" lon="5.99085">
        <ele>992.6</ele>
        <time>2023-05-15T07:51:19Z</time>
      </trkpt>
      <trkpt lat="44.57737" lon="5.99087">
        <ele>992.6</ele>
        <time>2023-05-15T07:51:20Z</time>
      </trkpt>
      <trkpt lat="44.5774" lon="5.9909">
        <ele>992.6</ele>
        <time>2023-05-15T07:51:22Z</time>
      </trkpt>
      <trkpt lat="44.57741" lon="5.99091">
        <ele>992.6</ele>
        <time>2023-05-15T07:51:23Z</time>
      </trkpt>
      <trkpt lat="44.57742" lon="5.99093">
        <ele>992.6</ele>
        <time>2023-05-15T07:51:24Z</time>
      </trkpt>
      <trkpt lat="44.57744" lon="5.99094">
        <ele>992.6</ele>
        <time>2023-05-15T07:51:25Z</time>
      </trkpt>
      <trkpt lat="44.57745" lon="5.99096">
        <ele>992.8</ele>
        <time>2023-05-15T07:51:26Z</time>
      </trkpt>
      <trkpt lat="44.57753" lon="5.9911">
        <ele>993</ele>
        <time>2023-05-15T07:51:31Z</time>
      </trkpt>
      <trkpt lat="44.5776" lon="5.99122">
        <ele>993.4</ele>
        <time>2023-05-15T07:51:37Z</time>
      </trkpt>
      <trkpt lat="44.57761" lon="5.99123">
        <ele>993.4</ele>
        <time>2023-05-15T07:51:38Z</time>
      </trkpt>
      <trkpt lat="44.57763" lon="5.99125">
        <ele>993.6</ele>
        <time>2023-05-15T07:51:39Z</time>
      </trkpt>
      <trkpt lat="44.57763" lon="5.99127">
        <ele>993.8</ele>
        <time>2023-05-15T07:51:40Z</time>
      </trkpt>
      <trkpt lat="44.57764" lon="5.99128">
        <ele>994.2</ele>
        <time>2023-05-15T07:51:41Z</time>
      </trkpt>
      <trkpt lat="44.57766" lon="5.9913">
        <ele>994.2</ele>
        <time>2023-05-15T07:51:42Z</time>
      </trkpt>
      <trkpt lat="44.57767" lon="5.99131">
        <ele>994.2</ele>
        <time>2023-05-15T07:51:43Z</time>
      </trkpt>
      <trkpt lat="44.57768" lon="5.99133">
        <ele>994.4</ele>
        <time>2023-05-15T07:51:44Z</time>
      </trkpt>
      <trkpt lat="44.57769" lon="5.99136">
        <ele>994.4</ele>
        <time>2023-05-15T07:51:45Z</time>
      </trkpt>
      <trkpt lat="44.5777" lon="5.99138">
        <ele>994.6</ele>
        <time>2023-05-15T07:51:46Z</time>
      </trkpt>
      <trkpt lat="44.5777" lon="5.9914">
        <ele>994.6</ele>
        <time>2023-05-15T07:51:47Z</time>
      </trkpt>
      <trkpt lat="44.5777" lon="5.99143">
        <ele>994.6</ele>
        <time>2023-05-15T07:51:48Z</time>
      </trkpt>
      <trkpt lat="44.5777" lon="5.99144">
        <ele>994.6</ele>
        <time>2023-05-15T07:51:49Z</time>
      </trkpt>
      <trkpt lat="44.57772" lon="5.99146">
        <ele>994.6</ele>
        <time>2023-05-15T07:51:50Z</time>
      </trkpt>
      <trkpt lat="44.57773" lon="5.99148">
        <ele>995</ele>
        <time>2023-05-15T07:51:51Z</time>
      </trkpt>
      <trkpt lat="44.57774" lon="5.99149">
        <ele>995.2</ele>
        <time>2023-05-15T07:51:52Z</time>
      </trkpt>
      <trkpt lat="44.57777" lon="5.99149">
        <ele>995.4</ele>
        <time>2023-05-15T07:51:54Z</time>
      </trkpt>
      <trkpt lat="44.57778" lon="5.9915">
        <ele>995.8</ele>
        <time>2023-05-15T07:51:55Z</time>
      </trkpt>
      <trkpt lat="44.57779" lon="5.99151">
        <ele>995.8</ele>
        <time>2023-05-15T07:51:56Z</time>
      </trkpt>
      <trkpt lat="44.5778" lon="5.99152">
        <ele>996</ele>
        <time>2023-05-15T07:51:57Z</time>
      </trkpt>
      <trkpt lat="44.57781" lon="5.99153">
        <ele>996.2</ele>
        <time>2023-05-15T07:51:58Z</time>
      </trkpt>
      <trkpt lat="44.57783" lon="5.99153">
        <ele>996.4</ele>
        <time>2023-05-15T07:51:59Z</time>
      </trkpt>
      <trkpt lat="44.57785" lon="5.99153">
        <ele>996.8</ele>
        <time>2023-05-15T07:52:00Z</time>
      </trkpt>
      <trkpt lat="44.57787" lon="5.99154">
        <ele>996.6</ele>
        <time>2023-05-15T07:52:01Z</time>
      </trkpt>
      <trkpt lat="44.57788" lon="5.99154">
        <ele>997</ele>
        <time>2023-05-15T07:52:02Z</time>
      </trkpt>
      <trkpt lat="44.57791" lon="5.99156">
        <ele>997.2</ele>
        <time>2023-05-15T07:52:03Z</time>
      </trkpt>
      <trkpt lat="44.57793" lon="5.99157">
        <ele>997.4</ele>
        <time>2023-05-15T07:52:04Z</time>
      </trkpt>
      <trkpt lat="44.57794" lon="5.99159">
        <ele>997.4</ele>
        <time>2023-05-15T07:52:05Z</time>
      </trkpt>
      <trkpt lat="44.57794" lon="5.99159">
        <ele>997.6</ele>
        <time>2023-05-15T07:52:06Z</time>
      </trkpt>
      <trkpt lat="44.57795" lon="5.9916">
        <ele>997.8</ele>
        <time>2023-05-15T07:52:07Z</time>
      </trkpt>
      <trkpt lat="44.57795" lon="5.9916">
        <ele>997.6</ele>
        <time>2023-05-15T07:52:08Z</time>
      </trkpt>
      <trkpt lat="44.57795" lon="5.9916">
        <ele>997.8</ele>
        <time>2023-05-15T07:52:09Z</time>
      </trkpt>
      <trkpt lat="44.57797" lon="5.99161">
        <ele>998.4</ele>
        <time>2023-05-15T07:52:11Z</time>
      </trkpt>
      <trkpt lat="44.57797" lon="5.99161">
        <ele>998.6</ele>
        <time>2023-05-15T07:52:12Z</time>
      </trkpt>
      <trkpt lat="44.57798" lon="5.99162">
        <ele>998.8</ele>
        <time>2023-05-15T07:52:13Z</time>
      </trkpt>
      <trkpt lat="44.578" lon="5.99165">
        <ele>998.6</ele>
        <time>2023-05-15T07:52:14Z</time>
      </trkpt>
      <trkpt lat="44.57801" lon="5.99166">
        <ele>999</ele>
        <time>2023-05-15T07:52:15Z</time>
      </trkpt>
      <trkpt lat="44.57803" lon="5.99167">
        <ele>999.2</ele>
        <time>2023-05-15T07:52:16Z</time>
      </trkpt>
      <trkpt lat="44.57805" lon="5.99168">
        <ele>999.2</ele>
        <time>2023-05-15T07:52:17Z</time>
      </trkpt>
      <trkpt lat="44.57807" lon="5.99169">
        <ele>999</ele>
        <time>2023-05-15T07:52:18Z</time>
      </trkpt>
      <trkpt lat="44.57808" lon="5.9917">
        <ele>999.2</ele>
        <time>2023-05-15T07:52:19Z</time>
      </trkpt>
      <trkpt lat="44.5781" lon="5.99172">
        <ele>999.2</ele>
        <time>2023-05-15T07:52:20Z</time>
      </trkpt>
      <trkpt lat="44.57812" lon="5.99173">
        <ele>999.4</ele>
        <time>2023-05-15T07:52:21Z</time>
      </trkpt>
      <trkpt lat="44.57815" lon="5.99174">
        <ele>999.6</ele>
        <time>2023-05-15T07:52:22Z</time>
      </trkpt>
      <trkpt lat="44.57817" lon="5.99176">
        <ele>999.8</ele>
        <time>2023-05-15T07:52:23Z</time>
      </trkpt>
      <trkpt lat="44.57819" lon="5.99178">
        <ele>999.6</ele>
        <time>2023-05-15T07:52:24Z</time>
      </trkpt>
      <trkpt lat="44.57821" lon="5.9918">
        <ele>999.8</ele>
        <time>2023-05-15T07:52:25Z</time>
      </trkpt>
      <trkpt lat="44.57824" lon="5.99183">
        <ele>1000</ele>
        <time>2023-05-15T07:52:26Z</time>
      </trkpt>
      <trkpt lat="44.57826" lon="5.99185">
        <ele>1000</ele>
        <time>2023-05-15T07:52:27Z</time>
      </trkpt>
      <trkpt lat="44.57828" lon="5.99188">
        <ele>1000</ele>
        <time>2023-05-15T07:52:28Z</time>
      </trkpt>
      <trkpt lat="44.57829" lon="5.9919">
        <ele>1000</ele>
        <time>2023-05-15T07:52:29Z</time>
      </trkpt>
      <trkpt lat="44.57831" lon="5.99193">
        <ele>1000</ele>
        <time>2023-05-15T07:52:30Z</time>
      </trkpt>
      <trkpt lat="44.57832" lon="5.99197">
        <ele>1000</ele>
        <time>2023-05-15T07:52:31Z</time>
      </trkpt>
      <trkpt lat="44.57834" lon="5.99201">
        <ele>999.8</ele>
        <time>2023-05-15T07:52:32Z</time>
      </trkpt>
      <trkpt lat="44.57835" lon="5.99203">
        <ele>999.8</ele>
        <time>2023-05-15T07:52:33Z</time>
      </trkpt>
      <trkpt lat="44.57837" lon="5.99207">
        <ele>999.8</ele>
        <time>2023-05-15T07:52:34Z</time>
      </trkpt>
      <trkpt lat="44.57838" lon="5.99211">
        <ele>999.8</ele>
        <time>2023-05-15T07:52:35Z</time>
      </trkpt>
      <trkpt lat="44.57841" lon="5.99219">
        <ele>999.8</ele>
        <time>2023-05-15T07:52:37Z</time>
      </trkpt>
      <trkpt lat="44.57842" lon="5.99227">
        <ele>999.6</ele>
        <time>2023-05-15T07:52:39Z</time>
      </trkpt>
      <trkpt lat="44.57841" lon="5.9923">
        <ele>999.6</ele>
        <time>2023-05-15T07:52:40Z</time>
      </trkpt>
      <trkpt lat="44.5784" lon="5.99233">
        <ele>999.8</ele>
        <time>2023-05-15T07:52:41Z</time>
      </trkpt>
      <trkpt lat="44.5784" lon="5.99237">
        <ele>999.6</ele>
        <time>2023-05-15T07:52:42Z</time>
      </trkpt>
      <trkpt lat="44.5784" lon="5.9924">
        <ele>999.6</ele>
        <time>2023-05-15T07:52:43Z</time>
      </trkpt>
      <trkpt lat="44.5784" lon="5.99252">
        <ele>999.6</ele>
        <time>2023-05-15T07:52:46Z</time>
      </trkpt>
      <trkpt lat="44.57842" lon="5.99263">
        <ele>999.6</ele>
        <time>2023-05-15T07:52:49Z</time>
      </trkpt>
      <trkpt lat="44.57843" lon="5.99266">
        <ele>999.8</ele>
        <time>2023-05-15T07:52:50Z</time>
      </trkpt>
      <trkpt lat="44.57845" lon="5.99276">
        <ele>999.8</ele>
        <time>2023-05-15T07:52:53Z</time>
      </trkpt>
      <trkpt lat="44.57846" lon="5.99278">
        <ele>999.8</ele>
        <time>2023-05-15T07:52:54Z</time>
      </trkpt>
      <trkpt lat="44.57848" lon="5.99281">
        <ele>999.6</ele>
        <time>2023-05-15T07:52:55Z</time>
      </trkpt>
      <trkpt lat="44.5785" lon="5.99283">
        <ele>999.6</ele>
        <time>2023-05-15T07:52:56Z</time>
      </trkpt>
      <trkpt lat="44.57852" lon="5.99285">
        <ele>999.6</ele>
        <time>2023-05-15T07:52:57Z</time>
      </trkpt>
      <trkpt lat="44.57854" lon="5.99287">
        <ele>999.6</ele>
        <time>2023-05-15T07:52:58Z</time>
      </trkpt>
      <trkpt lat="44.57855" lon="5.9929">
        <ele>999.6</ele>
        <time>2023-05-15T07:52:59Z</time>
      </trkpt>
      <trkpt lat="44.57856" lon="5.99292">
        <ele>999.6</ele>
        <time>2023-05-15T07:53:00Z</time>
      </trkpt>
      <trkpt lat="44.57858" lon="5.99294">
        <ele>999.6</ele>
        <time>2023-05-15T07:53:01Z</time>
      </trkpt>
      <trkpt lat="44.5786" lon="5.99297">
        <ele>999.6</ele>
        <time>2023-05-15T07:53:02Z</time>
      </trkpt>
      <trkpt lat="44.57863" lon="5.99298">
        <ele>999.6</ele>
        <time>2023-05-15T07:53:03Z</time>
      </trkpt>
      <trkpt lat="44.57865" lon="5.99299">
        <ele>999.6</ele>
        <time>2023-05-15T07:53:04Z</time>
      </trkpt>
      <trkpt lat="44.57866" lon="5.99299">
        <ele>999.6</ele>
        <time>2023-05-15T07:53:05Z</time>
      </trkpt>
      <trkpt lat="44.57867" lon="5.99299">
        <ele>999.6</ele>
        <time>2023-05-15T07:53:06Z</time>
      </trkpt>
      <trkpt lat="44.57868" lon="5.99298">
        <ele>999.8</ele>
        <time>2023-05-15T07:53:07Z</time>
      </trkpt>
      <trkpt lat="44.57868" lon="5.99297">
        <ele>999.8</ele>
        <time>2023-05-15T07:53:08Z</time>
      </trkpt>
      <trkpt lat="44.57869" lon="5.99296">
        <ele>1000</ele>
        <time>2023-05-15T07:53:09Z</time>
      </trkpt>
      <trkpt lat="44.57869" lon="5.99296">
        <ele>1000.2</ele>
        <time>2023-05-15T07:53:10Z</time>
      </trkpt>
      <trkpt lat="44.57869" lon="5.99296">
        <ele>1000.6</ele>
        <time>2023-05-15T07:53:11Z</time>
      </trkpt>
      <trkpt lat="44.57869" lon="5.99295">
        <ele>1000.6</ele>
        <time>2023-05-15T07:53:12Z</time>
      </trkpt>
      <trkpt lat="44.57869" lon="5.99295">
        <ele>1001</ele>
        <time>2023-05-15T07:53:14Z</time>
      </trkpt>
      <trkpt lat="44.57869" lon="5.99295">
        <ele>1001.6</ele>
        <time>2023-05-15T07:53:15Z</time>
      </trkpt>
      <trkpt lat="44.57869" lon="5.99295">
        <ele>1002.6</ele>
        <time>2023-05-15T07:53:18Z</time>
      </trkpt>
      <trkpt lat="44.57869" lon="5.99295">
        <ele>1003</ele>
        <time>2023-05-15T07:53:19Z</time>
      </trkpt>
      <trkpt lat="44.57869" lon="5.99295">
        <ele>1003.2</ele>
        <time>2023-05-15T07:53:20Z</time>
      </trkpt>
      <trkpt lat="44.57871" lon="5.99294">
        <ele>1003.6</ele>
        <time>2023-05-15T07:53:23Z</time>
      </trkpt>
      <trkpt lat="44.57872" lon="5.99294">
        <ele>1003.8</ele>
        <time>2023-05-15T07:53:24Z</time>
      </trkpt>
      <trkpt lat="44.57873" lon="5.99294">
        <ele>1003.8</ele>
        <time>2023-05-15T07:53:25Z</time>
      </trkpt>
      <trkpt lat="44.57874" lon="5.99294">
        <ele>1004</ele>
        <time>2023-05-15T07:53:26Z</time>
      </trkpt>
      <trkpt lat="44.57874" lon="5.99294">
        <ele>1004.2</ele>
        <time>2023-05-15T07:53:27Z</time>
      </trkpt>
      <trkpt lat="44.57874" lon="5.99295">
        <ele>1004.6</ele>
        <time>2023-05-15T07:53:28Z</time>
      </trkpt>
      <trkpt lat="44.57874" lon="5.99295">
        <ele>1004.8</ele>
        <time>2023-05-15T07:53:29Z</time>
      </trkpt>
      <trkpt lat="44.57874" lon="5.99295">
        <ele>1004.8</ele>
        <time>2023-05-15T07:53:30Z</time>
      </trkpt>
      <trkpt lat="44.57874" lon="5.99295">
        <ele>1005</ele>
        <time>2023-05-15T07:53:32Z</time>
      </trkpt>
      <trkpt lat="44.57876" lon="5.99296">
        <ele>1005.2</ele>
        <time>2023-05-15T07:53:34Z</time>
      </trkpt>
      <trkpt lat="44.57878" lon="5.99297">
        <ele>1005.2</ele>
        <time>2023-05-15T07:53:35Z</time>
      </trkpt>
      <trkpt lat="44.57879" lon="5.99298">
        <ele>1005.2</ele>
        <time>2023-05-15T07:53:36Z</time>
      </trkpt>
      <trkpt lat="44.57881" lon="5.993">
        <ele>1005.2</ele>
        <time>2023-05-15T07:53:37Z</time>
      </trkpt>
      <trkpt lat="44.57884" lon="5.99301">
        <ele>1005.2</ele>
        <time>2023-05-15T07:53:38Z</time>
      </trkpt>
      <trkpt lat="44.57886" lon="5.99302">
        <ele>1005.2</ele>
        <time>2023-05-15T07:53:39Z</time>
      </trkpt>
      <trkpt lat="44.57889" lon="5.99305">
        <ele>1005</ele>
        <time>2023-05-15T07:53:40Z</time>
      </trkpt>
      <trkpt lat="44.57893" lon="5.99309">
        <ele>1005</ele>
        <time>2023-05-15T07:53:41Z</time>
      </trkpt>
      <trkpt lat="44.57897" lon="5.99313">
        <ele>1005</ele>
        <time>2023-05-15T07:53:42Z</time>
      </trkpt>
      <trkpt lat="44.57899" lon="5.99315">
        <ele>1005</ele>
        <time>2023-05-15T07:53:43Z</time>
      </trkpt>
      <trkpt lat="44.57904" lon="5.99317">
        <ele>1005</ele>
        <time>2023-05-15T07:53:44Z</time>
      </trkpt>
      <trkpt lat="44.57907" lon="5.99317">
        <ele>1004.4</ele>
        <time>2023-05-15T07:53:45Z</time>
      </trkpt>
      <trkpt lat="44.5791" lon="5.99317">
        <ele>1004</ele>
        <time>2023-05-15T07:53:46Z</time>
      </trkpt>
      <trkpt lat="44.57914" lon="5.99318">
        <ele>1003.6</ele>
        <time>2023-05-15T07:53:47Z</time>
      </trkpt>
      <trkpt lat="44.57926" lon="5.99323">
        <ele>1002.4</ele>
        <time>2023-05-15T07:53:50Z</time>
      </trkpt>
      <trkpt lat="44.57935" lon="5.99328">
        <ele>1001</ele>
        <time>2023-05-15T07:53:52Z</time>
      </trkpt>
      <trkpt lat="44.57939" lon="5.99329">
        <ele>1000.8</ele>
        <time>2023-05-15T07:53:53Z</time>
      </trkpt>
      <trkpt lat="44.57942" lon="5.99328">
        <ele>1000.6</ele>
        <time>2023-05-15T07:53:54Z</time>
      </trkpt>
      <trkpt lat="44.57945" lon="5.99328">
        <ele>1000.4</ele>
        <time>2023-05-15T07:53:55Z</time>
      </trkpt>
      <trkpt lat="44.57948" lon="5.99328">
        <ele>1000.2</ele>
        <time>2023-05-15T07:53:56Z</time>
      </trkpt>
      <trkpt lat="44.5795" lon="5.99328">
        <ele>1000</ele>
        <time>2023-05-15T07:53:57Z</time>
      </trkpt>
      <trkpt lat="44.57952" lon="5.99329">
        <ele>999.8</ele>
        <time>2023-05-15T07:53:58Z</time>
      </trkpt>
      <trkpt lat="44.57954" lon="5.99329">
        <ele>999.6</ele>
        <time>2023-05-15T07:53:59Z</time>
      </trkpt>
      <trkpt lat="44.57958" lon="5.99329">
        <ele>999.6</ele>
        <time>2023-05-15T07:54:00Z</time>
      </trkpt>
      <trkpt lat="44.57965" lon="5.9933">
        <ele>999.8</ele>
        <time>2023-05-15T07:54:03Z</time>
      </trkpt>
      <trkpt lat="44.57967" lon="5.99329">
        <ele>999.8</ele>
        <time>2023-05-15T07:54:04Z</time>
      </trkpt>
      <trkpt lat="44.5797" lon="5.99329">
        <ele>1000</ele>
        <time>2023-05-15T07:54:05Z</time>
      </trkpt>
      <trkpt lat="44.57973" lon="5.99328">
        <ele>1000</ele>
        <time>2023-05-15T07:54:06Z</time>
      </trkpt>
      <trkpt lat="44.57976" lon="5.99327">
        <ele>1000</ele>
        <time>2023-05-15T07:54:07Z</time>
      </trkpt>
      <trkpt lat="44.5798" lon="5.99327">
        <ele>1000.2</ele>
        <time>2023-05-15T07:54:08Z</time>
      </trkpt>
      <trkpt lat="44.57983" lon="5.99327">
        <ele>1000.2</ele>
        <time>2023-05-15T07:54:09Z</time>
      </trkpt>
      <trkpt lat="44.57986" lon="5.99327">
        <ele>1000.2</ele>
        <time>2023-05-15T07:54:10Z</time>
      </trkpt>
      <trkpt lat="44.5799" lon="5.99327">
        <ele>1000.2</ele>
        <time>2023-05-15T07:54:11Z</time>
      </trkpt>
      <trkpt lat="44.57992" lon="5.99327">
        <ele>1000.4</ele>
        <time>2023-05-15T07:54:12Z</time>
      </trkpt>
      <trkpt lat="44.57995" lon="5.99326">
        <ele>1000.4</ele>
        <time>2023-05-15T07:54:13Z</time>
      </trkpt>
      <trkpt lat="44.5801" lon="5.99331">
        <ele>1000.8</ele>
        <time>2023-05-15T07:54:18Z</time>
      </trkpt>
      <trkpt lat="44.58012" lon="5.99332">
        <ele>1001</ele>
        <time>2023-05-15T07:54:19Z</time>
      </trkpt>
      <trkpt lat="44.58014" lon="5.99334">
        <ele>1001</ele>
        <time>2023-05-15T07:54:20Z</time>
      </trkpt>
      <trkpt lat="44.58019" lon="5.99338">
        <ele>1001</ele>
        <time>2023-05-15T07:54:22Z</time>
      </trkpt>
      <trkpt lat="44.58028" lon="5.99348">
        <ele>1001</ele>
        <time>2023-05-15T07:54:27Z</time>
      </trkpt>
      <trkpt lat="44.5803" lon="5.9935">
        <ele>1001.2</ele>
        <time>2023-05-15T07:54:28Z</time>
      </trkpt>
      <trkpt lat="44.58031" lon="5.99351">
        <ele>1001.2</ele>
        <time>2023-05-15T07:54:29Z</time>
      </trkpt>
      <trkpt lat="44.58033" lon="5.99353">
        <ele>1001.4</ele>
        <time>2023-05-15T07:54:30Z</time>
      </trkpt>
      <trkpt lat="44.58034" lon="5.99357">
        <ele>1001.4</ele>
        <time>2023-05-15T07:54:31Z</time>
      </trkpt>
      <trkpt lat="44.58035" lon="5.99362">
        <ele>1001.4</ele>
        <time>2023-05-15T07:54:32Z</time>
      </trkpt>
      <trkpt lat="44.58035" lon="5.99366">
        <ele>1001.4</ele>
        <time>2023-05-15T07:54:33Z</time>
      </trkpt>
      <trkpt lat="44.58035" lon="5.9937">
        <ele>1001.4</ele>
        <time>2023-05-15T07:54:34Z</time>
      </trkpt>
      <trkpt lat="44.58034" lon="5.99377">
        <ele>1001.4</ele>
        <time>2023-05-15T07:54:36Z</time>
      </trkpt>
      <trkpt lat="44.58034" lon="5.99381">
        <ele>1001.4</ele>
        <time>2023-05-15T07:54:37Z</time>
      </trkpt>
      <trkpt lat="44.58035" lon="5.99392">
        <ele>1001.4</ele>
        <time>2023-05-15T07:54:40Z</time>
      </trkpt>
      <trkpt lat="44.58036" lon="5.99394">
        <ele>1001.4</ele>
        <time>2023-05-15T07:54:41Z</time>
      </trkpt>
      <trkpt lat="44.58038" lon="5.99397">
        <ele>1001.4</ele>
        <time>2023-05-15T07:54:42Z</time>
      </trkpt>
      <trkpt lat="44.58042" lon="5.99399">
        <ele>1001.4</ele>
        <time>2023-05-15T07:54:44Z</time>
      </trkpt>
      <trkpt lat="44.58045" lon="5.99401">
        <ele>1001.4</ele>
        <time>2023-05-15T07:54:45Z</time>
      </trkpt>
      <trkpt lat="44.58047" lon="5.99402">
        <ele>1001.4</ele>
        <time>2023-05-15T07:54:46Z</time>
      </trkpt>
      <trkpt lat="44.58049" lon="5.99404">
        <ele>1001.4</ele>
        <time>2023-05-15T07:54:47Z</time>
      </trkpt>
      <trkpt lat="44.58054" lon="5.99406">
        <ele>1001.4</ele>
        <time>2023-05-15T07:54:49Z</time>
      </trkpt>
      <trkpt lat="44.58056" lon="5.99407">
        <ele>1001.4</ele>
        <time>2023-05-15T07:54:50Z</time>
      </trkpt>
      <trkpt lat="44.58058" lon="5.99408">
        <ele>1001.6</ele>
        <time>2023-05-15T07:54:51Z</time>
      </trkpt>
      <trkpt lat="44.5806" lon="5.9941">
        <ele>1001.6</ele>
        <time>2023-05-15T07:54:52Z</time>
      </trkpt>
      <trkpt lat="44.58061" lon="5.99411">
        <ele>1001.6</ele>
        <time>2023-05-15T07:54:53Z</time>
      </trkpt>
      <trkpt lat="44.58063" lon="5.99412">
        <ele>1001.6</ele>
        <time>2023-05-15T07:54:54Z</time>
      </trkpt>
      <trkpt lat="44.58065" lon="5.99413">
        <ele>1001.8</ele>
        <time>2023-05-15T07:54:55Z</time>
      </trkpt>
      <trkpt lat="44.58067" lon="5.99415">
        <ele>1001.8</ele>
        <time>2023-05-15T07:54:56Z</time>
      </trkpt>
      <trkpt lat="44.58069" lon="5.99416">
        <ele>1002</ele>
        <time>2023-05-15T07:54:57Z</time>
      </trkpt>
      <trkpt lat="44.58076" lon="5.99419">
        <ele>1002</ele>
        <time>2023-05-15T07:55:00Z</time>
      </trkpt>
      <trkpt lat="44.58082" lon="5.99421">
        <ele>1002.2</ele>
        <time>2023-05-15T07:55:03Z</time>
      </trkpt>
      <trkpt lat="44.581" lon="5.99426">
        <ele>1003</ele>
        <time>2023-05-15T07:55:11Z</time>
      </trkpt>
      <trkpt lat="44.58101" lon="5.99426">
        <ele>1003</ele>
        <time>2023-05-15T07:55:12Z</time>
      </trkpt>
      <trkpt lat="44.58103" lon="5.99427">
        <ele>1003</ele>
        <time>2023-05-15T07:55:13Z</time>
      </trkpt>
      <trkpt lat="44.58105" lon="5.99427">
        <ele>1003</ele>
        <time>2023-05-15T07:55:14Z</time>
      </trkpt>
      <trkpt lat="44.58106" lon="5.99428">
        <ele>1003.2</ele>
        <time>2023-05-15T07:55:15Z</time>
      </trkpt>
      <trkpt lat="44.58108" lon="5.99428">
        <ele>1003.2</ele>
        <time>2023-05-15T07:55:16Z</time>
      </trkpt>
      <trkpt lat="44.58109" lon="5.99429">
        <ele>1003.2</ele>
        <time>2023-05-15T07:55:17Z</time>
      </trkpt>
      <trkpt lat="44.58111" lon="5.99429">
        <ele>1003.4</ele>
        <time>2023-05-15T07:55:18Z</time>
      </trkpt>
      <trkpt lat="44.58113" lon="5.99429">
        <ele>1003.6</ele>
        <time>2023-05-15T07:55:19Z</time>
      </trkpt>
      <trkpt lat="44.58114" lon="5.99429">
        <ele>1003.6</ele>
        <time>2023-05-15T07:55:20Z</time>
      </trkpt>
      <trkpt lat="44.58116" lon="5.99429">
        <ele>1003.8</ele>
        <time>2023-05-15T07:55:21Z</time>
      </trkpt>
      <trkpt lat="44.5812" lon="5.99429">
        <ele>1004</ele>
        <time>2023-05-15T07:55:23Z</time>
      </trkpt>
      <trkpt lat="44.5812" lon="5.99429">
        <ele>1004.4</ele>
        <time>2023-05-15T07:55:25Z</time>
      </trkpt>
      <trkpt lat="44.5812" lon="5.99429">
        <ele>1004.4</ele>
        <time>2023-05-15T07:55:26Z</time>
      </trkpt>
      <trkpt lat="44.5812" lon="5.99429">
        <ele>1004.6</ele>
        <time>2023-05-15T07:55:27Z</time>
      </trkpt>
      <trkpt lat="44.58121" lon="5.99429">
        <ele>1005</ele>
        <time>2023-05-15T07:55:29Z</time>
      </trkpt>
      <trkpt lat="44.58122" lon="5.9943">
        <ele>1005.6</ele>
        <time>2023-05-15T07:55:33Z</time>
      </trkpt>
      <trkpt lat="44.58123" lon="5.9943">
        <ele>1005.8</ele>
        <time>2023-05-15T07:55:34Z</time>
      </trkpt>
      <trkpt lat="44.58123" lon="5.9943">
        <ele>1005.8</ele>
        <time>2023-05-15T07:55:35Z</time>
      </trkpt>
      <trkpt lat="44.58123" lon="5.9943">
        <ele>1005.8</ele>
        <time>2023-05-15T07:55:36Z</time>
      </trkpt>
      <trkpt lat="44.58123" lon="5.9943">
        <ele>1006.2</ele>
        <time>2023-05-15T07:55:37Z</time>
      </trkpt>
      <trkpt lat="44.58123" lon="5.9943">
        <ele>1006.4</ele>
        <time>2023-05-15T07:55:38Z</time>
      </trkpt>
      <trkpt lat="44.58123" lon="5.9943">
        <ele>1006.6</ele>
        <time>2023-05-15T07:55:39Z</time>
      </trkpt>
      <trkpt lat="44.58123" lon="5.9943">
        <ele>1006.8</ele>
        <time>2023-05-15T07:55:40Z</time>
      </trkpt>
      <trkpt lat="44.58123" lon="5.99429">
        <ele>1007</ele>
        <time>2023-05-15T07:55:41Z</time>
      </trkpt>
      <trkpt lat="44.58124" lon="5.99429">
        <ele>1007.2</ele>
        <time>2023-05-15T07:55:42Z</time>
      </trkpt>
      <trkpt lat="44.58124" lon="5.99429">
        <ele>1007.2</ele>
        <time>2023-05-15T07:55:43Z</time>
      </trkpt>
      <trkpt lat="44.58124" lon="5.99428">
        <ele>1007.6</ele>
        <time>2023-05-15T07:55:44Z</time>
      </trkpt>
      <trkpt lat="44.58125" lon="5.99428">
        <ele>1007.6</ele>
        <time>2023-05-15T07:55:45Z</time>
      </trkpt>
      <trkpt lat="44.58125" lon="5.99427">
        <ele>1008</ele>
        <time>2023-05-15T07:55:46Z</time>
      </trkpt>
      <trkpt lat="44.58126" lon="5.99426">
        <ele>1008.2</ele>
        <time>2023-05-15T07:55:47Z</time>
      </trkpt>
      <trkpt lat="44.58127" lon="5.99426">
        <ele>1008.4</ele>
        <time>2023-05-15T07:55:48Z</time>
      </trkpt>
      <trkpt lat="44.58128" lon="5.99425">
        <ele>1008.4</ele>
        <time>2023-05-15T07:55:49Z</time>
      </trkpt>
      <trkpt lat="44.58128" lon="5.99425">
        <ele>1008.6</ele>
        <time>2023-05-15T07:55:50Z</time>
      </trkpt>
      <trkpt lat="44.58128" lon="5.99425">
        <ele>1008.6</ele>
        <time>2023-05-15T07:55:51Z</time>
      </trkpt>
      <trkpt lat="44.58129" lon="5.99424">
        <ele>1009</ele>
        <time>2023-05-15T07:55:52Z</time>
      </trkpt>
      <trkpt lat="44.5813" lon="5.99424">
        <ele>1009.2</ele>
        <time>2023-05-15T07:55:53Z</time>
      </trkpt>
      <trkpt lat="44.5813" lon="5.99424">
        <ele>1009.4</ele>
        <time>2023-05-15T07:55:54Z</time>
      </trkpt>
      <trkpt lat="44.58131" lon="5.99424">
        <ele>1009.6</ele>
        <time>2023-05-15T07:55:55Z</time>
      </trkpt>
      <trkpt lat="44.58131" lon="5.99424">
        <ele>1009.8</ele>
        <time>2023-05-15T07:55:56Z</time>
      </trkpt>
      <trkpt lat="44.58131" lon="5.99424">
        <ele>1010</ele>
        <time>2023-05-15T07:55:57Z</time>
      </trkpt>
      <trkpt lat="44.58131" lon="5.99424">
        <ele>1010.2</ele>
        <time>2023-05-15T07:55:58Z</time>
      </trkpt>
      <trkpt lat="44.58131" lon="5.99424">
        <ele>1010.2</ele>
        <time>2023-05-15T07:55:59Z</time>
      </trkpt>
      <trkpt lat="44.58131" lon="5.99423">
        <ele>1010.4</ele>
        <time>2023-05-15T07:56:01Z</time>
      </trkpt>
      <trkpt lat="44.58132" lon="5.99423">
        <ele>1010.8</ele>
        <time>2023-05-15T07:56:02Z</time>
      </trkpt>
      <trkpt lat="44.58133" lon="5.99423">
        <ele>1011</ele>
        <time>2023-05-15T07:56:03Z</time>
      </trkpt>
      <trkpt lat="44.58134" lon="5.99422">
        <ele>1011.4</ele>
        <time>2023-05-15T07:56:04Z</time>
      </trkpt>
      <trkpt lat="44.58134" lon="5.99422">
        <ele>1011.4</ele>
        <time>2023-05-15T07:56:05Z</time>
      </trkpt>
      <trkpt lat="44.58135" lon="5.99422">
        <ele>1011.6</ele>
        <time>2023-05-15T07:56:06Z</time>
      </trkpt>
      <trkpt lat="44.58136" lon="5.99421">
        <ele>1011.8</ele>
        <time>2023-05-15T07:56:07Z</time>
      </trkpt>
      <trkpt lat="44.58136" lon="5.99421">
        <ele>1012</ele>
        <time>2023-05-15T07:56:08Z</time>
      </trkpt>
      <trkpt lat="44.58136" lon="5.99421">
        <ele>1012</ele>
        <time>2023-05-15T07:56:09Z</time>
      </trkpt>
      <trkpt lat="44.58137" lon="5.99421">
        <ele>1012.2</ele>
        <time>2023-05-15T07:56:10Z</time>
      </trkpt>
      <trkpt lat="44.58138" lon="5.99421">
        <ele>1012.4</ele>
        <time>2023-05-15T07:56:11Z</time>
      </trkpt>
      <trkpt lat="44.58138" lon="5.99421">
        <ele>1012.4</ele>
        <time>2023-05-15T07:56:12Z</time>
      </trkpt>
      <trkpt lat="44.58138" lon="5.99421">
        <ele>1012.6</ele>
        <time>2023-05-15T07:56:13Z</time>
      </trkpt>
      <trkpt lat="44.58138" lon="5.99421">
        <ele>1012.8</ele>
        <time>2023-05-15T07:56:14Z</time>
      </trkpt>
      <trkpt lat="44.58139" lon="5.99422">
        <ele>1013.4</ele>
        <time>2023-05-15T07:56:16Z</time>
      </trkpt>
      <trkpt lat="44.58141" lon="5.99423">
        <ele>1013.8</ele>
        <time>2023-05-15T07:56:18Z</time>
      </trkpt>
      <trkpt lat="44.58141" lon="5.99423">
        <ele>1013.8</ele>
        <time>2023-05-15T07:56:19Z</time>
      </trkpt>
      <trkpt lat="44.58142" lon="5.99423">
        <ele>1014</ele>
        <time>2023-05-15T07:56:20Z</time>
      </trkpt>
      <trkpt lat="44.58142" lon="5.99423">
        <ele>1014.2</ele>
        <time>2023-05-15T07:56:21Z</time>
      </trkpt>
      <trkpt lat="44.58144" lon="5.99424">
        <ele>1014.4</ele>
        <time>2023-05-15T07:56:22Z</time>
      </trkpt>
      <trkpt lat="44.58145" lon="5.99425">
        <ele>1014.6</ele>
        <time>2023-05-15T07:56:23Z</time>
      </trkpt>
      <trkpt lat="44.58146" lon="5.99425">
        <ele>1014.6</ele>
        <time>2023-05-15T07:56:24Z</time>
      </trkpt>
      <trkpt lat="44.58148" lon="5.99425">
        <ele>1014.8</ele>
        <time>2023-05-15T07:56:25Z</time>
      </trkpt>
      <trkpt lat="44.5815" lon="5.99425">
        <ele>1015</ele>
        <time>2023-05-15T07:56:26Z</time>
      </trkpt>
      <trkpt lat="44.58152" lon="5.99424">
        <ele>1015.2</ele>
        <time>2023-05-15T07:56:27Z</time>
      </trkpt>
      <trkpt lat="44.58154" lon="5.99424">
        <ele>1015.2</ele>
        <time>2023-05-15T07:56:28Z</time>
      </trkpt>
      <trkpt lat="44.58155" lon="5.99424">
        <ele>1015.4</ele>
        <time>2023-05-15T07:56:29Z</time>
      </trkpt>
      <trkpt lat="44.58155" lon="5.99424">
        <ele>1015.6</ele>
        <time>2023-05-15T07:56:30Z</time>
      </trkpt>
      <trkpt lat="44.58155" lon="5.99424">
        <ele>1016.2</ele>
        <time>2023-05-15T07:56:33Z</time>
      </trkpt>
      <trkpt lat="44.58157" lon="5.99426">
        <ele>1016.6</ele>
        <time>2023-05-15T07:56:36Z</time>
      </trkpt>
      <trkpt lat="44.5816" lon="5.99428">
        <ele>1016.6</ele>
        <time>2023-05-15T07:56:37Z</time>
      </trkpt>
      <trkpt lat="44.58162" lon="5.99429">
        <ele>1016.8</ele>
        <time>2023-05-15T07:56:38Z</time>
      </trkpt>
      <trkpt lat="44.58164" lon="5.99431">
        <ele>1016.8</ele>
        <time>2023-05-15T07:56:39Z</time>
      </trkpt>
      <trkpt lat="44.58167" lon="5.99431">
        <ele>1016.8</ele>
        <time>2023-05-15T07:56:40Z</time>
      </trkpt>
      <trkpt lat="44.58169" lon="5.99431">
        <ele>1016.8</ele>
        <time>2023-05-15T07:56:41Z</time>
      </trkpt>
      <trkpt lat="44.58171" lon="5.9943">
        <ele>1016.8</ele>
        <time>2023-05-15T07:56:42Z</time>
      </trkpt>
      <trkpt lat="44.58173" lon="5.99429">
        <ele>1017</ele>
        <time>2023-05-15T07:56:43Z</time>
      </trkpt>
      <trkpt lat="44.58175" lon="5.99428">
        <ele>1017</ele>
        <time>2023-05-15T07:56:44Z</time>
      </trkpt>
      <trkpt lat="44.58177" lon="5.99427">
        <ele>1017</ele>
        <time>2023-05-15T07:56:45Z</time>
      </trkpt>
      <trkpt lat="44.5818" lon="5.99426">
        <ele>1017.2</ele>
        <time>2023-05-15T07:56:46Z</time>
      </trkpt>
      <trkpt lat="44.58182" lon="5.99425">
        <ele>1017.2</ele>
        <time>2023-05-15T07:56:47Z</time>
      </trkpt>
      <trkpt lat="44.58184" lon="5.99425">
        <ele>1017.2</ele>
        <time>2023-05-15T07:56:48Z</time>
      </trkpt>
      <trkpt lat="44.58186" lon="5.99424">
        <ele>1017.4</ele>
        <time>2023-05-15T07:56:49Z</time>
      </trkpt>
      <trkpt lat="44.58187" lon="5.99422">
        <ele>1017.6</ele>
        <time>2023-05-15T07:56:50Z</time>
      </trkpt>
      <trkpt lat="44.58188" lon="5.9942">
        <ele>1017.6</ele>
        <time>2023-05-15T07:56:51Z</time>
      </trkpt>
      <trkpt lat="44.58189" lon="5.99419">
        <ele>1017.8</ele>
        <time>2023-05-15T07:56:52Z</time>
      </trkpt>
      <trkpt lat="44.5819" lon="5.99418">
        <ele>1017.8</ele>
        <time>2023-05-15T07:56:53Z</time>
      </trkpt>
      <trkpt lat="44.58192" lon="5.99417">
        <ele>1018</ele>
        <time>2023-05-15T07:56:54Z</time>
      </trkpt>
      <trkpt lat="44.58194" lon="5.99417">
        <ele>1018</ele>
        <time>2023-05-15T07:56:55Z</time>
      </trkpt>
      <trkpt lat="44.58196" lon="5.99416">
        <ele>1018.2</ele>
        <time>2023-05-15T07:56:56Z</time>
      </trkpt>
      <trkpt lat="44.58198" lon="5.99416">
        <ele>1018.4</ele>
        <time>2023-05-15T07:56:57Z</time>
      </trkpt>
      <trkpt lat="44.58204" lon="5.99414">
        <ele>1018.6</ele>
        <time>2023-05-15T07:57:00Z</time>
      </trkpt>
      <trkpt lat="44.58218" lon="5.99408">
        <ele>1019.2</ele>
        <time>2023-05-15T07:57:07Z</time>
      </trkpt>
      <trkpt lat="44.58221" lon="5.99406">
        <ele>1019.8</ele>
        <time>2023-05-15T07:57:09Z</time>
      </trkpt>
      <trkpt lat="44.58223" lon="5.99402">
        <ele>1019.8</ele>
        <time>2023-05-15T07:57:11Z</time>
      </trkpt>
      <trkpt lat="44.58224" lon="5.99401">
        <ele>1020.2</ele>
        <time>2023-05-15T07:57:12Z</time>
      </trkpt>
      <trkpt lat="44.58225" lon="5.994">
        <ele>1020.4</ele>
        <time>2023-05-15T07:57:13Z</time>
      </trkpt>
      <trkpt lat="44.58226" lon="5.99399">
        <ele>1020.4</ele>
        <time>2023-05-15T07:57:14Z</time>
      </trkpt>
      <trkpt lat="44.58228" lon="5.99398">
        <ele>1020.8</ele>
        <time>2023-05-15T07:57:15Z</time>
      </trkpt>
      <trkpt lat="44.58229" lon="5.99396">
        <ele>1021</ele>
        <time>2023-05-15T07:57:16Z</time>
      </trkpt>
      <trkpt lat="44.5823" lon="5.99395">
        <ele>1021.2</ele>
        <time>2023-05-15T07:57:17Z</time>
      </trkpt>
      <trkpt lat="44.58231" lon="5.99393">
        <ele>1021.2</ele>
        <time>2023-05-15T07:57:18Z</time>
      </trkpt>
      <trkpt lat="44.58232" lon="5.99391">
        <ele>1021.4</ele>
        <time>2023-05-15T07:57:19Z</time>
      </trkpt>
      <trkpt lat="44.58232" lon="5.99389">
        <ele>1021.4</ele>
        <time>2023-05-15T07:57:20Z</time>
      </trkpt>
      <trkpt lat="44.58233" lon="5.99388">
        <ele>1021.6</ele>
        <time>2023-05-15T07:57:21Z</time>
      </trkpt>
      <trkpt lat="44.58233" lon="5.99387">
        <ele>1022</ele>
        <time>2023-05-15T07:57:22Z</time>
      </trkpt>
      <trkpt lat="44.58234" lon="5.99385">
        <ele>1022</ele>
        <time>2023-05-15T07:57:23Z</time>
      </trkpt>
      <trkpt lat="44.58234" lon="5.99384">
        <ele>1022.4</ele>
        <time>2023-05-15T07:57:24Z</time>
      </trkpt>
      <trkpt lat="44.58235" lon="5.99383">
        <ele>1022.6</ele>
        <time>2023-05-15T07:57:25Z</time>
      </trkpt>
      <trkpt lat="44.58235" lon="5.99381">
        <ele>1022.8</ele>
        <time>2023-05-15T07:57:26Z</time>
      </trkpt>
      <trkpt lat="44.58236" lon="5.99379">
        <ele>1023</ele>
        <time>2023-05-15T07:57:27Z</time>
      </trkpt>
      <trkpt lat="44.58237" lon="5.99378">
        <ele>1023.6</ele>
        <time>2023-05-15T07:57:28Z</time>
      </trkpt>
      <trkpt lat="44.58238" lon="5.99377">
        <ele>1023.8</ele>
        <time>2023-05-15T07:57:29Z</time>
      </trkpt>
      <trkpt lat="44.58239" lon="5.99375">
        <ele>1024</ele>
        <time>2023-05-15T07:57:30Z</time>
      </trkpt>
      <trkpt lat="44.58239" lon="5.99374">
        <ele>1024.2</ele>
        <time>2023-05-15T07:57:31Z</time>
      </trkpt>
      <trkpt lat="44.5824" lon="5.99373">
        <ele>1024.4</ele>
        <time>2023-05-15T07:57:32Z</time>
      </trkpt>
      <trkpt lat="44.58241" lon="5.99372">
        <ele>1024.8</ele>
        <time>2023-05-15T07:57:33Z</time>
      </trkpt>
      <trkpt lat="44.58242" lon="5.99371">
        <ele>1025</ele>
        <time>2023-05-15T07:57:34Z</time>
      </trkpt>
      <trkpt lat="44.58242" lon="5.9937">
        <ele>1025.2</ele>
        <time>2023-05-15T07:57:35Z</time>
      </trkpt>
      <trkpt lat="44.58243" lon="5.99369">
        <ele>1025.4</ele>
        <time>2023-05-15T07:57:36Z</time>
      </trkpt>
      <trkpt lat="44.58244" lon="5.99368">
        <ele>1025.8</ele>
        <time>2023-05-15T07:57:37Z</time>
      </trkpt>
      <trkpt lat="44.58245" lon="5.99368">
        <ele>1026.2</ele>
        <time>2023-05-15T07:57:38Z</time>
      </trkpt>
      <trkpt lat="44.58247" lon="5.99367">
        <ele>1026.4</ele>
        <time>2023-05-15T07:57:39Z</time>
      </trkpt>
      <trkpt lat="44.58248" lon="5.99367">
        <ele>1026.6</ele>
        <time>2023-05-15T07:57:40Z</time>
      </trkpt>
      <trkpt lat="44.58249" lon="5.99366">
        <ele>1026.6</ele>
        <time>2023-05-15T07:57:41Z</time>
      </trkpt>
      <trkpt lat="44.58251" lon="5.99365">
        <ele>1026.8</ele>
        <time>2023-05-15T07:57:42Z</time>
      </trkpt>
      <trkpt lat="44.58252" lon="5.99365">
        <ele>1027</ele>
        <time>2023-05-15T07:57:43Z</time>
      </trkpt>
      <trkpt lat="44.58253" lon="5.99363">
        <ele>1027</ele>
        <time>2023-05-15T07:57:44Z</time>
      </trkpt>
      <trkpt lat="44.58254" lon="5.99362">
        <ele>1027.2</ele>
        <time>2023-05-15T07:57:45Z</time>
      </trkpt>
      <trkpt lat="44.58256" lon="5.99361">
        <ele>1027.2</ele>
        <time>2023-05-15T07:57:46Z</time>
      </trkpt>
      <trkpt lat="44.58257" lon="5.99361">
        <ele>1027.6</ele>
        <time>2023-05-15T07:57:47Z</time>
      </trkpt>
      <trkpt lat="44.58258" lon="5.9936">
        <ele>1027.6</ele>
        <time>2023-05-15T07:57:48Z</time>
      </trkpt>
      <trkpt lat="44.5826" lon="5.99359">
        <ele>1027.8</ele>
        <time>2023-05-15T07:57:49Z</time>
      </trkpt>
      <trkpt lat="44.58261" lon="5.99358">
        <ele>1028</ele>
        <time>2023-05-15T07:57:50Z</time>
      </trkpt>
      <trkpt lat="44.58262" lon="5.99357">
        <ele>1028.2</ele>
        <time>2023-05-15T07:57:51Z</time>
      </trkpt>
      <trkpt lat="44.58263" lon="5.99356">
        <ele>1028.2</ele>
        <time>2023-05-15T07:57:52Z</time>
      </trkpt>
      <trkpt lat="44.58264" lon="5.99354">
        <ele>1028.6</ele>
        <time>2023-05-15T07:57:53Z</time>
      </trkpt>
      <trkpt lat="44.58265" lon="5.99353">
        <ele>1028.6</ele>
        <time>2023-05-15T07:57:54Z</time>
      </trkpt>
      <trkpt lat="44.58266" lon="5.99352">
        <ele>1028.8</ele>
        <time>2023-05-15T07:57:55Z</time>
      </trkpt>
      <trkpt lat="44.58266" lon="5.99351">
        <ele>1029</ele>
        <time>2023-05-15T07:57:56Z</time>
      </trkpt>
      <trkpt lat="44.58267" lon="5.9935">
        <ele>1029</ele>
        <time>2023-05-15T07:57:57Z</time>
      </trkpt>
      <trkpt lat="44.58268" lon="5.99349">
        <ele>1029.2</ele>
        <time>2023-05-15T07:57:58Z</time>
      </trkpt>
      <trkpt lat="44.58269" lon="5.99349">
        <ele>1029.4</ele>
        <time>2023-05-15T07:57:59Z</time>
      </trkpt>
      <trkpt lat="44.5827" lon="5.99348">
        <ele>1029.6</ele>
        <time>2023-05-15T07:58:00Z</time>
      </trkpt>
      <trkpt lat="44.58271" lon="5.99347">
        <ele>1029.6</ele>
        <time>2023-05-15T07:58:01Z</time>
      </trkpt>
      <trkpt lat="44.58271" lon="5.99346">
        <ele>1030</ele>
        <time>2023-05-15T07:58:02Z</time>
      </trkpt>
      <trkpt lat="44.58272" lon="5.99345">
        <ele>1030.4</ele>
        <time>2023-05-15T07:58:03Z</time>
      </trkpt>
      <trkpt lat="44.58273" lon="5.99345">
        <ele>1030.4</ele>
        <time>2023-05-15T07:58:04Z</time>
      </trkpt>
      <trkpt lat="44.58273" lon="5.99344">
        <ele>1030.8</ele>
        <time>2023-05-15T07:58:05Z</time>
      </trkpt>
      <trkpt lat="44.58273" lon="5.99343">
        <ele>1030.8</ele>
        <time>2023-05-15T07:58:06Z</time>
      </trkpt>
      <trkpt lat="44.58274" lon="5.99343">
        <ele>1031</ele>
        <time>2023-05-15T07:58:07Z</time>
      </trkpt>
      <trkpt lat="44.58275" lon="5.99343">
        <ele>1031.2</ele>
        <time>2023-05-15T07:58:08Z</time>
      </trkpt>
      <trkpt lat="44.58275" lon="5.99342">
        <ele>1031.6</ele>
        <time>2023-05-15T07:58:09Z</time>
      </trkpt>
      <trkpt lat="44.58276" lon="5.99341">
        <ele>1031.6</ele>
        <time>2023-05-15T07:58:10Z</time>
      </trkpt>
      <trkpt lat="44.58276" lon="5.99341">
        <ele>1031.8</ele>
        <time>2023-05-15T07:58:11Z</time>
      </trkpt>
      <trkpt lat="44.58277" lon="5.99341">
        <ele>1032</ele>
        <time>2023-05-15T07:58:12Z</time>
      </trkpt>
      <trkpt lat="44.58277" lon="5.99341">
        <ele>1032.2</ele>
        <time>2023-05-15T07:58:13Z</time>
      </trkpt>
      <trkpt lat="44.58277" lon="5.99341">
        <ele>1032.6</ele>
        <time>2023-05-15T07:58:16Z</time>
      </trkpt>
      <trkpt lat="44.58277" lon="5.99341">
        <ele>1033</ele>
        <time>2023-05-15T07:58:19Z</time>
      </trkpt>
      <trkpt lat="44.58277" lon="5.99341">
        <ele>1033.2</ele>
        <time>2023-05-15T07:58:24Z</time>
      </trkpt>
      <trkpt lat="44.58277" lon="5.99341">
        <ele>1033.2</ele>
        <time>2023-05-15T07:58:28Z</time>
      </trkpt>
      <trkpt lat="44.58277" lon="5.9934">
        <ele>1033.6</ele>
        <time>2023-05-15T07:58:49Z</time>
      </trkpt>
      <trkpt lat="44.58278" lon="5.9934">
        <ele>1033.4</ele>
        <time>2023-05-15T07:58:50Z</time>
      </trkpt>
      <trkpt lat="44.58279" lon="5.9934">
        <ele>1033.4</ele>
        <time>2023-05-15T07:58:52Z</time>
      </trkpt>
      <trkpt lat="44.5828" lon="5.99339">
        <ele>1033.4</ele>
        <time>2023-05-15T07:58:53Z</time>
      </trkpt>
      <trkpt lat="44.58281" lon="5.99339">
        <ele>1033.4</ele>
        <time>2023-05-15T07:58:55Z</time>
      </trkpt>
      <trkpt lat="44.58285" lon="5.99335">
        <ele>1033.8</ele>
        <time>2023-05-15T07:58:58Z</time>
      </trkpt>
      <trkpt lat="44.58286" lon="5.99333">
        <ele>1034.2</ele>
        <time>2023-05-15T07:58:59Z</time>
      </trkpt>
      <trkpt lat="44.58288" lon="5.9933">
        <ele>1034.6</ele>
        <time>2023-05-15T07:59:01Z</time>
      </trkpt>
      <trkpt lat="44.58291" lon="5.99328">
        <ele>1035.2</ele>
        <time>2023-05-15T07:59:03Z</time>
      </trkpt>
      <trkpt lat="44.58292" lon="5.99327">
        <ele>1035.6</ele>
        <time>2023-05-15T07:59:04Z</time>
      </trkpt>
      <trkpt lat="44.58292" lon="5.99326">
        <ele>1035.6</ele>
        <time>2023-05-15T07:59:05Z</time>
      </trkpt>
      <trkpt lat="44.58293" lon="5.99326">
        <ele>1035.8</ele>
        <time>2023-05-15T07:59:06Z</time>
      </trkpt>
      <trkpt lat="44.58293" lon="5.99326">
        <ele>1036.2</ele>
        <time>2023-05-15T07:59:07Z</time>
      </trkpt>
      <trkpt lat="44.58293" lon="5.99326">
        <ele>1036.6</ele>
        <time>2023-05-15T07:59:09Z</time>
      </trkpt>
      <trkpt lat="44.58293" lon="5.99323">
        <ele>1037.4</ele>
        <time>2023-05-15T07:59:15Z</time>
      </trkpt>
      <trkpt lat="44.58293" lon="5.99323">
        <ele>1037.4</ele>
        <time>2023-05-15T07:59:17Z</time>
      </trkpt>
      <trkpt lat="44.58294" lon="5.9932">
        <ele>1037.8</ele>
        <time>2023-05-15T07:59:20Z</time>
      </trkpt>
      <trkpt lat="44.58294" lon="5.99319">
        <ele>1037.8</ele>
        <time>2023-05-15T07:59:21Z</time>
      </trkpt>
      <trkpt lat="44.58295" lon="5.99319">
        <ele>1037.8</ele>
        <time>2023-05-15T07:59:23Z</time>
      </trkpt>
      <trkpt lat="44.58295" lon="5.99319">
        <ele>1037.8</ele>
        <time>2023-05-15T07:59:24Z</time>
      </trkpt>
      <trkpt lat="44.58295" lon="5.99319">
        <ele>1037.8</ele>
        <time>2023-05-15T07:59:25Z</time>
      </trkpt>
      <trkpt lat="44.58296" lon="5.99317">
        <ele>1038</ele>
        <time>2023-05-15T07:59:28Z</time>
      </trkpt>
      <trkpt lat="44.58296" lon="5.99316">
        <ele>1038.2</ele>
        <time>2023-05-15T07:59:29Z</time>
      </trkpt>
      <trkpt lat="44.58296" lon="5.99315">
        <ele>1038.4</ele>
        <time>2023-05-15T07:59:30Z</time>
      </trkpt>
      <trkpt lat="44.58297" lon="5.99314">
        <ele>1038.6</ele>
        <time>2023-05-15T07:59:31Z</time>
      </trkpt>
      <trkpt lat="44.58297" lon="5.99313">
        <ele>1038.8</ele>
        <time>2023-05-15T07:59:32Z</time>
      </trkpt>
      <trkpt lat="44.58297" lon="5.99313">
        <ele>1039.2</ele>
        <time>2023-05-15T07:59:33Z</time>
      </trkpt>
      <trkpt lat="44.58297" lon="5.99311">
        <ele>1039.6</ele>
        <time>2023-05-15T07:59:36Z</time>
      </trkpt>
      <trkpt lat="44.58297" lon="5.9931">
        <ele>1039.8</ele>
        <time>2023-05-15T07:59:37Z</time>
      </trkpt>
      <trkpt lat="44.58298" lon="5.99309">
        <ele>1040.2</ele>
        <time>2023-05-15T07:59:38Z</time>
      </trkpt>
      <trkpt lat="44.58298" lon="5.99308">
        <ele>1040.4</ele>
        <time>2023-05-15T07:59:39Z</time>
      </trkpt>
      <trkpt lat="44.58298" lon="5.99308">
        <ele>1040.6</ele>
        <time>2023-05-15T07:59:40Z</time>
      </trkpt>
      <trkpt lat="44.58299" lon="5.99307">
        <ele>1040.8</ele>
        <time>2023-05-15T07:59:41Z</time>
      </trkpt>
      <trkpt lat="44.58299" lon="5.99306">
        <ele>1041</ele>
        <time>2023-05-15T07:59:42Z</time>
      </trkpt>
      <trkpt lat="44.58299" lon="5.99306">
        <ele>1041</ele>
        <time>2023-05-15T07:59:43Z</time>
      </trkpt>
      <trkpt lat="44.58299" lon="5.99306">
        <ele>1041</ele>
        <time>2023-05-15T07:59:44Z</time>
      </trkpt>
      <trkpt lat="44.583" lon="5.99305">
        <ele>1041</ele>
        <time>2023-05-15T07:59:46Z</time>
      </trkpt>
      <trkpt lat="44.583" lon="5.99305">
        <ele>1041.2</ele>
        <time>2023-05-15T07:59:48Z</time>
      </trkpt>
      <trkpt lat="44.583" lon="5.99304">
        <ele>1041.4</ele>
        <time>2023-05-15T07:59:50Z</time>
      </trkpt>
      <trkpt lat="44.583" lon="5.99304">
        <ele>1041.4</ele>
        <time>2023-05-15T07:59:51Z</time>
      </trkpt>
      <trkpt lat="44.58301" lon="5.99302">
        <ele>1041.4</ele>
        <time>2023-05-15T07:59:52Z</time>
      </trkpt>
      <trkpt lat="44.58301" lon="5.99301">
        <ele>1041.4</ele>
        <time>2023-05-15T07:59:53Z</time>
      </trkpt>
      <trkpt lat="44.58302" lon="5.993">
        <ele>1041.8</ele>
        <time>2023-05-15T07:59:54Z</time>
      </trkpt>
      <trkpt lat="44.58302" lon="5.99299">
        <ele>1042</ele>
        <time>2023-05-15T07:59:55Z</time>
      </trkpt>
      <trkpt lat="44.58303" lon="5.99298">
        <ele>1042</ele>
        <time>2023-05-15T07:59:56Z</time>
      </trkpt>
      <trkpt lat="44.58304" lon="5.99297">
        <ele>1042.4</ele>
        <time>2023-05-15T07:59:57Z</time>
      </trkpt>
      <trkpt lat="44.58305" lon="5.99297">
        <ele>1042.4</ele>
        <time>2023-05-15T07:59:58Z</time>
      </trkpt>
      <trkpt lat="44.58305" lon="5.99296">
        <ele>1042.6</ele>
        <time>2023-05-15T07:59:59Z</time>
      </trkpt>
      <trkpt lat="44.58305" lon="5.99295">
        <ele>1042.6</ele>
        <time>2023-05-15T08:00:00Z</time>
      </trkpt>
      <trkpt lat="44.58305" lon="5.99294">
        <ele>1042.8</ele>
        <time>2023-05-15T08:00:01Z</time>
      </trkpt>
      <trkpt lat="44.58305" lon="5.99293">
        <ele>1043</ele>
        <time>2023-05-15T08:00:02Z</time>
      </trkpt>
      <trkpt lat="44.58305" lon="5.99292">
        <ele>1043.4</ele>
        <time>2023-05-15T08:00:03Z</time>
      </trkpt>
      <trkpt lat="44.58305" lon="5.99291">
        <ele>1044.2</ele>
        <time>2023-05-15T08:00:04Z</time>
      </trkpt>
      <trkpt lat="44.58305" lon="5.9929">
        <ele>1044.4</ele>
        <time>2023-05-15T08:00:05Z</time>
      </trkpt>
      <trkpt lat="44.58305" lon="5.99289">
        <ele>1044.6</ele>
        <time>2023-05-15T08:00:06Z</time>
      </trkpt>
      <trkpt lat="44.58306" lon="5.99288">
        <ele>1044.6</ele>
        <time>2023-05-15T08:00:07Z</time>
      </trkpt>
      <trkpt lat="44.58306" lon="5.99287">
        <ele>1044.6</ele>
        <time>2023-05-15T08:00:08Z</time>
      </trkpt>
      <trkpt lat="44.58306" lon="5.99286">
        <ele>1044.8</ele>
        <time>2023-05-15T08:00:09Z</time>
      </trkpt>
      <trkpt lat="44.58306" lon="5.99284">
        <ele>1044.8</ele>
        <time>2023-05-15T08:00:10Z</time>
      </trkpt>
      <trkpt lat="44.58307" lon="5.99284">
        <ele>1044.8</ele>
        <time>2023-05-15T08:00:11Z</time>
      </trkpt>
      <trkpt lat="44.58307" lon="5.99284">
        <ele>1044.8</ele>
        <time>2023-05-15T08:00:12Z</time>
      </trkpt>
      <trkpt lat="44.58307" lon="5.99281">
        <ele>1045.6</ele>
        <time>2023-05-15T08:00:17Z</time>
      </trkpt>
      <trkpt lat="44.58307" lon="5.9928">
        <ele>1045.8</ele>
        <time>2023-05-15T08:00:18Z</time>
      </trkpt>
      <trkpt lat="44.58308" lon="5.99279">
        <ele>1045.8</ele>
        <time>2023-05-15T08:00:19Z</time>
      </trkpt>
      <trkpt lat="44.58308" lon="5.99278">
        <ele>1046</ele>
        <time>2023-05-15T08:00:20Z</time>
      </trkpt>
      <trkpt lat="44.58308" lon="5.99277">
        <ele>1046.2</ele>
        <time>2023-05-15T08:00:21Z</time>
      </trkpt>
      <trkpt lat="44.58308" lon="5.99276">
        <ele>1046.4</ele>
        <time>2023-05-15T08:00:22Z</time>
      </trkpt>
      <trkpt lat="44.58308" lon="5.99275">
        <ele>1046.6</ele>
        <time>2023-05-15T08:00:23Z</time>
      </trkpt>
      <trkpt lat="44.58307" lon="5.99275">
        <ele>1046.8</ele>
        <time>2023-05-15T08:00:24Z</time>
      </trkpt>
      <trkpt lat="44.58307" lon="5.99274">
        <ele>1046.8</ele>
        <time>2023-05-15T08:00:25Z</time>
      </trkpt>
      <trkpt lat="44.58307" lon="5.99274">
        <ele>1047</ele>
        <time>2023-05-15T08:00:26Z</time>
      </trkpt>
      <trkpt lat="44.58306" lon="5.99273">
        <ele>1047</ele>
        <time>2023-05-15T08:00:27Z</time>
      </trkpt>
      <trkpt lat="44.58306" lon="5.99273">
        <ele>1047</ele>
        <time>2023-05-15T08:00:28Z</time>
      </trkpt>
      <trkpt lat="44.58305" lon="5.99272">
        <ele>1047.2</ele>
        <time>2023-05-15T08:00:29Z</time>
      </trkpt>
      <trkpt lat="44.58305" lon="5.99272">
        <ele>1047.2</ele>
        <time>2023-05-15T08:00:30Z</time>
      </trkpt>
      <trkpt lat="44.58305" lon="5.99271">
        <ele>1047.2</ele>
        <time>2023-05-15T08:00:31Z</time>
      </trkpt>
      <trkpt lat="44.58305" lon="5.99271">
        <ele>1047.2</ele>
        <time>2023-05-15T08:00:32Z</time>
      </trkpt>
      <trkpt lat="44.58305" lon="5.9927">
        <ele>1047.4</ele>
        <time>2023-05-15T08:00:33Z</time>
      </trkpt>
      <trkpt lat="44.58304" lon="5.9927">
        <ele>1047.4</ele>
        <time>2023-05-15T08:00:34Z</time>
      </trkpt>
      <trkpt lat="44.58304" lon="5.9927">
        <ele>1047.6</ele>
        <time>2023-05-15T08:00:35Z</time>
      </trkpt>
      <trkpt lat="44.58304" lon="5.99269">
        <ele>1047.8</ele>
        <time>2023-05-15T08:00:36Z</time>
      </trkpt>
      <trkpt lat="44.58303" lon="5.99268">
        <ele>1047.8</ele>
        <time>2023-05-15T08:00:37Z</time>
      </trkpt>
      <trkpt lat="44.58302" lon="5.99268">
        <ele>1048</ele>
        <time>2023-05-15T08:00:38Z</time>
      </trkpt>
      <trkpt lat="44.58301" lon="5.99267">
        <ele>1048.2</ele>
        <time>2023-05-15T08:00:39Z</time>
      </trkpt>
      <trkpt lat="44.583" lon="5.99266">
        <ele>1048.2</ele>
        <time>2023-05-15T08:00:40Z</time>
      </trkpt>
      <trkpt lat="44.58299" lon="5.99265">
        <ele>1048.4</ele>
        <time>2023-05-15T08:00:41Z</time>
      </trkpt>
      <trkpt lat="44.58299" lon="5.99265">
        <ele>1048.6</ele>
        <time>2023-05-15T08:00:42Z</time>
      </trkpt>
      <trkpt lat="44.58299" lon="5.99265">
        <ele>1048.8</ele>
        <time>2023-05-15T08:00:43Z</time>
      </trkpt>
      <trkpt lat="44.58297" lon="5.99264">
        <ele>1049</ele>
        <time>2023-05-15T08:00:46Z</time>
      </trkpt>
      <trkpt lat="44.58295" lon="5.99263">
        <ele>1049</ele>
        <time>2023-05-15T08:00:47Z</time>
      </trkpt>
      <trkpt lat="44.58293" lon="5.99263">
        <ele>1049</ele>
        <time>2023-05-15T08:00:48Z</time>
      </trkpt>
      <trkpt lat="44.58292" lon="5.99262">
        <ele>1049.2</ele>
        <time>2023-05-15T08:00:49Z</time>
      </trkpt>
      <trkpt lat="44.5829" lon="5.99261">
        <ele>1049.2</ele>
        <time>2023-05-15T08:00:50Z</time>
      </trkpt>
      <trkpt lat="44.58288" lon="5.9926">
        <ele>1049.2</ele>
        <time>2023-05-15T08:00:51Z</time>
      </trkpt>
      <trkpt lat="44.58286" lon="5.99259">
        <ele>1049.4</ele>
        <time>2023-05-15T08:00:52Z</time>
      </trkpt>
      <trkpt lat="44.58285" lon="5.99258">
        <ele>1049.4</ele>
        <time>2023-05-15T08:00:53Z</time>
      </trkpt>
      <trkpt lat="44.58283" lon="5.99257">
        <ele>1049.4</ele>
        <time>2023-05-15T08:00:54Z</time>
      </trkpt>
      <trkpt lat="44.58282" lon="5.99256">
        <ele>1049.4</ele>
        <time>2023-05-15T08:00:55Z</time>
      </trkpt>
      <trkpt lat="44.58281" lon="5.99255">
        <ele>1049.4</ele>
        <time>2023-05-15T08:00:56Z</time>
      </trkpt>
      <trkpt lat="44.5828" lon="5.99253">
        <ele>1049.4</ele>
        <time>2023-05-15T08:00:58Z</time>
      </trkpt>
      <trkpt lat="44.58279" lon="5.99251">
        <ele>1049.4</ele>
        <time>2023-05-15T08:00:59Z</time>
      </trkpt>
      <trkpt lat="44.58279" lon="5.99251">
        <ele>1049.4</ele>
        <time>2023-05-15T08:01:00Z</time>
      </trkpt>
      <trkpt lat="44.58279" lon="5.99251">
        <ele>1049.4</ele>
        <time>2023-05-15T08:01:01Z</time>
      </trkpt>
      <trkpt lat="44.58279" lon="5.99251">
        <ele>1049.6</ele>
        <time>2023-05-15T08:01:05Z</time>
      </trkpt>
      <trkpt lat="44.58279" lon="5.99252">
        <ele>1049.6</ele>
        <time>2023-05-15T08:01:18Z</time>
      </trkpt>
      <trkpt lat="44.58279" lon="5.99252">
        <ele>1049.4</ele>
        <time>2023-05-15T08:01:19Z</time>
      </trkpt>
      <trkpt lat="44.58279" lon="5.99252">
        <ele>1049.4</ele>
        <time>2023-05-15T08:01:20Z</time>
      </trkpt>
      <trkpt lat="44.5828" lon="5.99254">
        <ele>1048.8</ele>
        <time>2023-05-15T08:01:23Z</time>
      </trkpt>
      <trkpt lat="44.58281" lon="5.99256">
        <ele>1048.6</ele>
        <time>2023-05-15T08:01:24Z</time>
      </trkpt>
      <trkpt lat="44.58282" lon="5.99257">
        <ele>1048.6</ele>
        <time>2023-05-15T08:01:25Z</time>
      </trkpt>
      <trkpt lat="44.58283" lon="5.99258">
        <ele>1048.4</ele>
        <time>2023-05-15T08:01:26Z</time>
      </trkpt>
      <trkpt lat="44.58285" lon="5.99259">
        <ele>1048.4</ele>
        <time>2023-05-15T08:01:27Z</time>
      </trkpt>
      <trkpt lat="44.58286" lon="5.99259">
        <ele>1048.4</ele>
        <time>2023-05-15T08:01:28Z</time>
      </trkpt>
      <trkpt lat="44.58287" lon="5.9926">
        <ele>1048.2</ele>
        <time>2023-05-15T08:01:29Z</time>
      </trkpt>
      <trkpt lat="44.58289" lon="5.9926">
        <ele>1048.2</ele>
        <time>2023-05-15T08:01:30Z</time>
      </trkpt>
      <trkpt lat="44.58295" lon="5.99262">
        <ele>1048.2</ele>
        <time>2023-05-15T08:01:35Z</time>
      </trkpt>
      <trkpt lat="44.58296" lon="5.99262">
        <ele>1048.2</ele>
        <time>2023-05-15T08:01:36Z</time>
      </trkpt>
      <trkpt lat="44.58296" lon="5.99262">
        <ele>1048.2</ele>
        <time>2023-05-15T08:01:37Z</time>
      </trkpt>
      <trkpt lat="44.58296" lon="5.99263">
        <ele>1048.2</ele>
        <time>2023-05-15T08:01:41Z</time>
      </trkpt>
      <trkpt lat="44.58297" lon="5.99264">
        <ele>1048</ele>
        <time>2023-05-15T08:01:42Z</time>
      </trkpt>
      <trkpt lat="44.58299" lon="5.99266">
        <ele>1048</ele>
        <time>2023-05-15T08:01:43Z</time>
      </trkpt>
      <trkpt lat="44.58302" lon="5.99268">
        <ele>1048</ele>
        <time>2023-05-15T08:01:44Z</time>
      </trkpt>
      <trkpt lat="44.58306" lon="5.99277">
        <ele>1047.8</ele>
        <time>2023-05-15T08:01:47Z</time>
      </trkpt>
      <trkpt lat="44.58307" lon="5.99279">
        <ele>1047.6</ele>
        <time>2023-05-15T08:01:48Z</time>
      </trkpt>
      <trkpt lat="44.58306" lon="5.99283">
        <ele>1047.2</ele>
        <time>2023-05-15T08:01:49Z</time>
      </trkpt>
      <trkpt lat="44.58304" lon="5.99291">
        <ele>1046.4</ele>
        <time>2023-05-15T08:01:51Z</time>
      </trkpt>
      <trkpt lat="44.58302" lon="5.99296">
        <ele>1046</ele>
        <time>2023-05-15T08:01:52Z</time>
      </trkpt>
      <trkpt lat="44.58301" lon="5.993">
        <ele>1045.4</ele>
        <time>2023-05-15T08:01:53Z</time>
      </trkpt>
      <trkpt lat="44.583" lon="5.99304">
        <ele>1045</ele>
        <time>2023-05-15T08:01:54Z</time>
      </trkpt>
      <trkpt lat="44.58299" lon="5.99313">
        <ele>1043.6</ele>
        <time>2023-05-15T08:01:56Z</time>
      </trkpt>
      <trkpt lat="44.58297" lon="5.9932">
        <ele>1042.4</ele>
        <time>2023-05-15T08:01:58Z</time>
      </trkpt>
      <trkpt lat="44.58296" lon="5.99322">
        <ele>1042</ele>
        <time>2023-05-15T08:01:59Z</time>
      </trkpt>
      <trkpt lat="44.58296" lon="5.99324">
        <ele>1041.2</ele>
        <time>2023-05-15T08:02:00Z</time>
      </trkpt>
      <trkpt lat="44.58297" lon="5.99326">
        <ele>1040.8</ele>
        <time>2023-05-15T08:02:01Z</time>
      </trkpt>
      <trkpt lat="44.58299" lon="5.99328">
        <ele>1039.2</ele>
        <time>2023-05-15T08:02:02Z</time>
      </trkpt>
      <trkpt lat="44.583" lon="5.9933">
        <ele>1038.6</ele>
        <time>2023-05-15T08:02:03Z</time>
      </trkpt>
      <trkpt lat="44.583" lon="5.99332">
        <ele>1037.6</ele>
        <time>2023-05-15T08:02:04Z</time>
      </trkpt>
      <trkpt lat="44.583" lon="5.99334">
        <ele>1036.8</ele>
        <time>2023-05-15T08:02:05Z</time>
      </trkpt>
      <trkpt lat="44.583" lon="5.99335">
        <ele>1036.4</ele>
        <time>2023-05-15T08:02:06Z</time>
      </trkpt>
      <trkpt lat="44.583" lon="5.99336">
        <ele>1035.8</ele>
        <time>2023-05-15T08:02:07Z</time>
      </trkpt>
      <trkpt lat="44.583" lon="5.99336">
        <ele>1035.4</ele>
        <time>2023-05-15T08:02:08Z</time>
      </trkpt>
      <trkpt lat="44.58301" lon="5.99336">
        <ele>1034.4</ele>
        <time>2023-05-15T08:02:10Z</time>
      </trkpt>
      <trkpt lat="44.58301" lon="5.99337">
        <ele>1034</ele>
        <time>2023-05-15T08:02:11Z</time>
      </trkpt>
      <trkpt lat="44.58302" lon="5.99337">
        <ele>1033.8</ele>
        <time>2023-05-15T08:02:14Z</time>
      </trkpt>
      <trkpt lat="44.58303" lon="5.99337">
        <ele>1033.8</ele>
        <time>2023-05-15T08:02:15Z</time>
      </trkpt>
      <trkpt lat="44.58303" lon="5.99337">
        <ele>1033.8</ele>
        <time>2023-05-15T08:02:16Z</time>
      </trkpt>
      <trkpt lat="44.58303" lon="5.99337">
        <ele>1033.8</ele>
        <time>2023-05-15T08:02:17Z</time>
      </trkpt>
      <trkpt lat="44.58304" lon="5.99337">
        <ele>1033.8</ele>
        <time>2023-05-15T08:02:18Z</time>
      </trkpt>
      <trkpt lat="44.58304" lon="5.99337">
        <ele>1033.8</ele>
        <time>2023-05-15T08:02:19Z</time>
      </trkpt>
      <trkpt lat="44.58306" lon="5.99336">
        <ele>1034</ele>
        <time>2023-05-15T08:02:22Z</time>
      </trkpt>
      <trkpt lat="44.58307" lon="5.99336">
        <ele>1034</ele>
        <time>2023-05-15T08:02:23Z</time>
      </trkpt>
      <trkpt lat="44.58308" lon="5.99337">
        <ele>1034.2</ele>
        <time>2023-05-15T08:02:24Z</time>
      </trkpt>
      <trkpt lat="44.58308" lon="5.99337">
        <ele>1034.2</ele>
        <time>2023-05-15T08:02:25Z</time>
      </trkpt>
      <trkpt lat="44.58309" lon="5.99338">
        <ele>1034.4</ele>
        <time>2023-05-15T08:02:26Z</time>
      </trkpt>
      <trkpt lat="44.5831" lon="5.99337">
        <ele>1034.4</ele>
        <time>2023-05-15T08:02:27Z</time>
      </trkpt>
      <trkpt lat="44.5831" lon="5.99338">
        <ele>1034.6</ele>
        <time>2023-05-15T08:02:28Z</time>
      </trkpt>
      <trkpt lat="44.58311" lon="5.99338">
        <ele>1034.8</ele>
        <time>2023-05-15T08:02:29Z</time>
      </trkpt>
      <trkpt lat="44.58312" lon="5.99338">
        <ele>1035</ele>
        <time>2023-05-15T08:02:30Z</time>
      </trkpt>
      <trkpt lat="44.58313" lon="5.99338">
        <ele>1035.2</ele>
        <time>2023-05-15T08:02:31Z</time>
      </trkpt>
      <trkpt lat="44.58314" lon="5.99338">
        <ele>1035.4</ele>
        <time>2023-05-15T08:02:33Z</time>
      </trkpt>
      <trkpt lat="44.58315" lon="5.99338">
        <ele>1035.6</ele>
        <time>2023-05-15T08:02:34Z</time>
      </trkpt>
      <trkpt lat="44.58316" lon="5.99338">
        <ele>1035.8</ele>
        <time>2023-05-15T08:02:35Z</time>
      </trkpt>
      <trkpt lat="44.58317" lon="5.99338">
        <ele>1036</ele>
        <time>2023-05-15T08:02:37Z</time>
      </trkpt>
      <trkpt lat="44.58317" lon="5.99338">
        <ele>1036.4</ele>
        <time>2023-05-15T08:02:39Z</time>
      </trkpt>
      <trkpt lat="44.58317" lon="5.99339">
        <ele>1037</ele>
        <time>2023-05-15T08:02:41Z</time>
      </trkpt>
      <trkpt lat="44.5832" lon="5.99342">
        <ele>1037.2</ele>
        <time>2023-05-15T08:02:43Z</time>
      </trkpt>
      <trkpt lat="44.5832" lon="5.99344">
        <ele>1037.2</ele>
        <time>2023-05-15T08:02:44Z</time>
      </trkpt>
      <trkpt lat="44.58321" lon="5.99347">
        <ele>1037.2</ele>
        <time>2023-05-15T08:02:45Z</time>
      </trkpt>
      <trkpt lat="44.58324" lon="5.99359">
        <ele>1037.2</ele>
        <time>2023-05-15T08:02:49Z</time>
      </trkpt>
      <trkpt lat="44.58325" lon="5.99361">
        <ele>1037.2</ele>
        <time>2023-05-15T08:02:50Z</time>
      </trkpt>
      <trkpt lat="44.58327" lon="5.99366">
        <ele>1037</ele>
        <time>2023-05-15T08:02:52Z</time>
      </trkpt>
      <trkpt lat="44.58331" lon="5.99374">
        <ele>1035.6</ele>
        <time>2023-05-15T08:02:55Z</time>
      </trkpt>
      <trkpt lat="44.58333" lon="5.9938">
        <ele>1034.8</ele>
        <time>2023-05-15T08:02:57Z</time>
      </trkpt>
      <trkpt lat="44.58334" lon="5.99382">
        <ele>1034.6</ele>
        <time>2023-05-15T08:02:58Z</time>
      </trkpt>
      <trkpt lat="44.58334" lon="5.99383">
        <ele>1034</ele>
        <time>2023-05-15T08:02:59Z</time>
      </trkpt>
      <trkpt lat="44.58335" lon="5.99383">
        <ele>1033.2</ele>
        <time>2023-05-15T08:03:00Z</time>
      </trkpt>
      <trkpt lat="44.58335" lon="5.99383">
        <ele>1033</ele>
        <time>2023-05-15T08:03:01Z</time>
      </trkpt>
      <trkpt lat="44.58335" lon="5.99383">
        <ele>1032.2</ele>
        <time>2023-05-15T08:03:03Z</time>
      </trkpt>
      <trkpt lat="44.58335" lon="5.99383">
        <ele>1031.6</ele>
        <time>2023-05-15T08:03:07Z</time>
      </trkpt>
      <trkpt lat="44.58336" lon="5.99384">
        <ele>1031.2</ele>
        <time>2023-05-15T08:03:10Z</time>
      </trkpt>
      <trkpt lat="44.58337" lon="5.99384">
        <ele>1031.2</ele>
        <time>2023-05-15T08:03:11Z</time>
      </trkpt>
      <trkpt lat="44.58339" lon="5.99385">
        <ele>1031</ele>
        <time>2023-05-15T08:03:13Z</time>
      </trkpt>
      <trkpt lat="44.5834" lon="5.99386">
        <ele>1031</ele>
        <time>2023-05-15T08:03:14Z</time>
      </trkpt>
      <trkpt lat="44.5834" lon="5.99387">
        <ele>1030.8</ele>
        <time>2023-05-15T08:03:15Z</time>
      </trkpt>
      <trkpt lat="44.5834" lon="5.9939">
        <ele>1030</ele>
        <time>2023-05-15T08:03:17Z</time>
      </trkpt>
      <trkpt lat="44.5834" lon="5.99391">
        <ele>1029.8</ele>
        <time>2023-05-15T08:03:18Z</time>
      </trkpt>
      <trkpt lat="44.5834" lon="5.99392">
        <ele>1029.8</ele>
        <time>2023-05-15T08:03:19Z</time>
      </trkpt>
      <trkpt lat="44.5834" lon="5.99394">
        <ele>1029.6</ele>
        <time>2023-05-15T08:03:20Z</time>
      </trkpt>
      <trkpt lat="44.5834" lon="5.99395">
        <ele>1029.6</ele>
        <time>2023-05-15T08:03:21Z</time>
      </trkpt>
      <trkpt lat="44.58341" lon="5.99396">
        <ele>1029.6</ele>
        <time>2023-05-15T08:03:22Z</time>
      </trkpt>
      <trkpt lat="44.5834" lon="5.99398">
        <ele>1029.6</ele>
        <time>2023-05-15T08:03:23Z</time>
      </trkpt>
      <trkpt lat="44.58339" lon="5.994">
        <ele>1029.6</ele>
        <time>2023-05-15T08:03:24Z</time>
      </trkpt>
      <trkpt lat="44.58339" lon="5.99403">
        <ele>1029.6</ele>
        <time>2023-05-15T08:03:25Z</time>
      </trkpt>
      <trkpt lat="44.58339" lon="5.99406">
        <ele>1029.6</ele>
        <time>2023-05-15T08:03:26Z</time>
      </trkpt>
      <trkpt lat="44.58338" lon="5.99417">
        <ele>1029.4</ele>
        <time>2023-05-15T08:03:29Z</time>
      </trkpt>
      <trkpt lat="44.58337" lon="5.99419">
        <ele>1029.4</ele>
        <time>2023-05-15T08:03:30Z</time>
      </trkpt>
      <trkpt lat="44.58337" lon="5.9942">
        <ele>1029.2</ele>
        <time>2023-05-15T08:03:31Z</time>
      </trkpt>
      <trkpt lat="44.58337" lon="5.99421">
        <ele>1029</ele>
        <time>2023-05-15T08:03:32Z</time>
      </trkpt>
      <trkpt lat="44.58337" lon="5.99422">
        <ele>1028.8</ele>
        <time>2023-05-15T08:03:33Z</time>
      </trkpt>
      <trkpt lat="44.58337" lon="5.99427">
        <ele>1028.6</ele>
        <time>2023-05-15T08:03:35Z</time>
      </trkpt>
      <trkpt lat="44.58338" lon="5.99429">
        <ele>1028.4</ele>
        <time>2023-05-15T08:03:36Z</time>
      </trkpt>
      <trkpt lat="44.58339" lon="5.99431">
        <ele>1028.4</ele>
        <time>2023-05-15T08:03:37Z</time>
      </trkpt>
      <trkpt lat="44.5834" lon="5.99434">
        <ele>1028.2</ele>
        <time>2023-05-15T08:03:38Z</time>
      </trkpt>
      <trkpt lat="44.5834" lon="5.99435">
        <ele>1028.2</ele>
        <time>2023-05-15T08:03:39Z</time>
      </trkpt>
      <trkpt lat="44.58339" lon="5.99438">
        <ele>1028.2</ele>
        <time>2023-05-15T08:03:40Z</time>
      </trkpt>
      <trkpt lat="44.58339" lon="5.99441">
        <ele>1028.2</ele>
        <time>2023-05-15T08:03:41Z</time>
      </trkpt>
      <trkpt lat="44.58338" lon="5.99443">
        <ele>1028</ele>
        <time>2023-05-15T08:03:42Z</time>
      </trkpt>
      <trkpt lat="44.58337" lon="5.99446">
        <ele>1028</ele>
        <time>2023-05-15T08:03:43Z</time>
      </trkpt>
      <trkpt lat="44.58336" lon="5.99449">
        <ele>1028</ele>
        <time>2023-05-15T08:03:44Z</time>
      </trkpt>
      <trkpt lat="44.58336" lon="5.99451">
        <ele>1027.6</ele>
        <time>2023-05-15T08:03:45Z</time>
      </trkpt>
      <trkpt lat="44.58337" lon="5.99454">
        <ele>1027.6</ele>
        <time>2023-05-15T08:03:46Z</time>
      </trkpt>
      <trkpt lat="44.58337" lon="5.99457">
        <ele>1027.4</ele>
        <time>2023-05-15T08:03:47Z</time>
      </trkpt>
      <trkpt lat="44.58337" lon="5.99459">
        <ele>1027.4</ele>
        <time>2023-05-15T08:03:48Z</time>
      </trkpt>
      <trkpt lat="44.58338" lon="5.99463">
        <ele>1026.8</ele>
        <time>2023-05-15T08:03:49Z</time>
      </trkpt>
      <trkpt lat="44.58338" lon="5.99471">
        <ele>1026.2</ele>
        <time>2023-05-15T08:03:51Z</time>
      </trkpt>
      <trkpt lat="44.58337" lon="5.99475">
        <ele>1026</ele>
        <time>2023-05-15T08:03:52Z</time>
      </trkpt>
      <trkpt lat="44.58337" lon="5.99479">
        <ele>1025.8</ele>
        <time>2023-05-15T08:03:53Z</time>
      </trkpt>
      <trkpt lat="44.58337" lon="5.99485">
        <ele>1025.4</ele>
        <time>2023-05-15T08:03:55Z</time>
      </trkpt>
      <trkpt lat="44.58337" lon="5.99486">
        <ele>1025.2</ele>
        <time>2023-05-15T08:03:56Z</time>
      </trkpt>
      <trkpt lat="44.58337" lon="5.99488">
        <ele>1024.8</ele>
        <time>2023-05-15T08:03:57Z</time>
      </trkpt>
      <trkpt lat="44.58336" lon="5.9949">
        <ele>1024.8</ele>
        <time>2023-05-15T08:03:58Z</time>
      </trkpt>
      <trkpt lat="44.58335" lon="5.99491">
        <ele>1024.4</ele>
        <time>2023-05-15T08:03:59Z</time>
      </trkpt>
      <trkpt lat="44.58335" lon="5.99493">
        <ele>1024</ele>
        <time>2023-05-15T08:04:00Z</time>
      </trkpt>
      <trkpt lat="44.58336" lon="5.99495">
        <ele>1023.6</ele>
        <time>2023-05-15T08:04:01Z</time>
      </trkpt>
      <trkpt lat="44.58337" lon="5.99498">
        <ele>1023.4</ele>
        <time>2023-05-15T08:04:02Z</time>
      </trkpt>
      <trkpt lat="44.5834" lon="5.99507">
        <ele>1023.2</ele>
        <time>2023-05-15T08:04:04Z</time>
      </trkpt>
      <trkpt lat="44.58342" lon="5.99511">
        <ele>1023</ele>
        <time>2023-05-15T08:04:05Z</time>
      </trkpt>
      <trkpt lat="44.58344" lon="5.99516">
        <ele>1022.4</ele>
        <time>2023-05-15T08:04:06Z</time>
      </trkpt>
      <trkpt lat="44.58353" lon="5.99537">
        <ele>1021</ele>
        <time>2023-05-15T08:04:10Z</time>
      </trkpt>
      <trkpt lat="44.5836" lon="5.99552">
        <ele>1020.4</ele>
        <time>2023-05-15T08:04:13Z</time>
      </trkpt>
      <trkpt lat="44.58366" lon="5.99561">
        <ele>1020</ele>
        <time>2023-05-15T08:04:15Z</time>
      </trkpt>
      <trkpt lat="44.58369" lon="5.99565">
        <ele>1019.8</ele>
        <time>2023-05-15T08:04:16Z</time>
      </trkpt>
      <trkpt lat="44.58372" lon="5.99568">
        <ele>1019.4</ele>
        <time>2023-05-15T08:04:17Z</time>
      </trkpt>
      <trkpt lat="44.58374" lon="5.99571">
        <ele>1019.4</ele>
        <time>2023-05-15T08:04:18Z</time>
      </trkpt>
      <trkpt lat="44.58376" lon="5.99572">
        <ele>1019.2</ele>
        <time>2023-05-15T08:04:19Z</time>
      </trkpt>
      <trkpt lat="44.58377" lon="5.99574">
        <ele>1019.2</ele>
        <time>2023-05-15T08:04:20Z</time>
      </trkpt>
      <trkpt lat="44.58378" lon="5.99575">
        <ele>1019.4</ele>
        <time>2023-05-15T08:04:21Z</time>
      </trkpt>
      <trkpt lat="44.58379" lon="5.99576">
        <ele>1019.4</ele>
        <time>2023-05-15T08:04:22Z</time>
      </trkpt>
      <trkpt lat="44.5838" lon="5.99577">
        <ele>1019.4</ele>
        <time>2023-05-15T08:04:23Z</time>
      </trkpt>
      <trkpt lat="44.58381" lon="5.99578">
        <ele>1019.6</ele>
        <time>2023-05-15T08:04:24Z</time>
      </trkpt>
      <trkpt lat="44.58383" lon="5.99579">
        <ele>1019.8</ele>
        <time>2023-05-15T08:04:25Z</time>
      </trkpt>
      <trkpt lat="44.58384" lon="5.9958">
        <ele>1020</ele>
        <time>2023-05-15T08:04:26Z</time>
      </trkpt>
      <trkpt lat="44.58393" lon="5.99586">
        <ele>1020.6</ele>
        <time>2023-05-15T08:04:31Z</time>
      </trkpt>
      <trkpt lat="44.58402" lon="5.99594">
        <ele>1020.8</ele>
        <time>2023-05-15T08:04:36Z</time>
      </trkpt>
      <trkpt lat="44.58404" lon="5.99596">
        <ele>1021</ele>
        <time>2023-05-15T08:04:37Z</time>
      </trkpt>
      <trkpt lat="44.58406" lon="5.99598">
        <ele>1021</ele>
        <time>2023-05-15T08:04:38Z</time>
      </trkpt>
      <trkpt lat="44.58414" lon="5.9961">
        <ele>1021.2</ele>
        <time>2023-05-15T08:04:42Z</time>
      </trkpt>
      <trkpt lat="44.58416" lon="5.99613">
        <ele>1021</ele>
        <time>2023-05-15T08:04:43Z</time>
      </trkpt>
      <trkpt lat="44.58417" lon="5.99616">
        <ele>1021</ele>
        <time>2023-05-15T08:04:44Z</time>
      </trkpt>
      <trkpt lat="44.58418" lon="5.99619">
        <ele>1021</ele>
        <time>2023-05-15T08:04:45Z</time>
      </trkpt>
      <trkpt lat="44.58419" lon="5.99622">
        <ele>1021</ele>
        <time>2023-05-15T08:04:46Z</time>
      </trkpt>
      <trkpt lat="44.58421" lon="5.99624">
        <ele>1021</ele>
        <time>2023-05-15T08:04:47Z</time>
      </trkpt>
      <trkpt lat="44.58422" lon="5.99626">
        <ele>1021</ele>
        <time>2023-05-15T08:04:48Z</time>
      </trkpt>
      <trkpt lat="44.58423" lon="5.99629">
        <ele>1021</ele>
        <time>2023-05-15T08:04:49Z</time>
      </trkpt>
      <trkpt lat="44.58424" lon="5.99631">
        <ele>1021</ele>
        <time>2023-05-15T08:04:50Z</time>
      </trkpt>
      <trkpt lat="44.58425" lon="5.99634">
        <ele>1021</ele>
        <time>2023-05-15T08:04:51Z</time>
      </trkpt>
      <trkpt lat="44.58426" lon="5.99637">
        <ele>1021.2</ele>
        <time>2023-05-15T08:04:52Z</time>
      </trkpt>
      <trkpt lat="44.58427" lon="5.99639">
        <ele>1021.4</ele>
        <time>2023-05-15T08:04:53Z</time>
      </trkpt>
      <trkpt lat="44.58428" lon="5.99642">
        <ele>1021.4</ele>
        <time>2023-05-15T08:04:54Z</time>
      </trkpt>
      <trkpt lat="44.58429" lon="5.99644">
        <ele>1021.6</ele>
        <time>2023-05-15T08:04:55Z</time>
      </trkpt>
      <trkpt lat="44.5843" lon="5.99647">
        <ele>1021.6</ele>
        <time>2023-05-15T08:04:56Z</time>
      </trkpt>
      <trkpt lat="44.5843" lon="5.9965">
        <ele>1021.8</ele>
        <time>2023-05-15T08:04:57Z</time>
      </trkpt>
      <trkpt lat="44.58431" lon="5.99652">
        <ele>1022</ele>
        <time>2023-05-15T08:04:58Z</time>
      </trkpt>
      <trkpt lat="44.58432" lon="5.99655">
        <ele>1022</ele>
        <time>2023-05-15T08:04:59Z</time>
      </trkpt>
      <trkpt lat="44.58436" lon="5.99665">
        <ele>1023</ele>
        <time>2023-05-15T08:05:03Z</time>
      </trkpt>
      <trkpt lat="44.58439" lon="5.99672">
        <ele>1023.4</ele>
        <time>2023-05-15T08:05:06Z</time>
      </trkpt>
      <trkpt lat="44.58441" lon="5.99682">
        <ele>1023.4</ele>
        <time>2023-05-15T08:05:09Z</time>
      </trkpt>
      <trkpt lat="44.58442" lon="5.99686">
        <ele>1023.4</ele>
        <time>2023-05-15T08:05:10Z</time>
      </trkpt>
      <trkpt lat="44.58443" lon="5.9969">
        <ele>1023.4</ele>
        <time>2023-05-15T08:05:11Z</time>
      </trkpt>
      <trkpt lat="44.58445" lon="5.99695">
        <ele>1023.2</ele>
        <time>2023-05-15T08:05:12Z</time>
      </trkpt>
      <trkpt lat="44.58446" lon="5.99699">
        <ele>1023</ele>
        <time>2023-05-15T08:05:13Z</time>
      </trkpt>
      <trkpt lat="44.58447" lon="5.99703">
        <ele>1022.6</ele>
        <time>2023-05-15T08:05:14Z</time>
      </trkpt>
      <trkpt lat="44.58448" lon="5.99708">
        <ele>1022.6</ele>
        <time>2023-05-15T08:05:15Z</time>
      </trkpt>
      <trkpt lat="44.58452" lon="5.99723">
        <ele>1022</ele>
        <time>2023-05-15T08:05:18Z</time>
      </trkpt>
      <trkpt lat="44.58453" lon="5.99728">
        <ele>1021.6</ele>
        <time>2023-05-15T08:05:19Z</time>
      </trkpt>
      <trkpt lat="44.5846" lon="5.9974">
        <ele>1020.8</ele>
        <time>2023-05-15T08:05:22Z</time>
      </trkpt>
      <trkpt lat="44.58462" lon="5.99742">
        <ele>1020.4</ele>
        <time>2023-05-15T08:05:23Z</time>
      </trkpt>
      <trkpt lat="44.58465" lon="5.99745">
        <ele>1020.2</ele>
        <time>2023-05-15T08:05:24Z</time>
      </trkpt>
      <trkpt lat="44.58467" lon="5.99746">
        <ele>1019.6</ele>
        <time>2023-05-15T08:05:25Z</time>
      </trkpt>
      <trkpt lat="44.58469" lon="5.99747">
        <ele>1018.8</ele>
        <time>2023-05-15T08:05:26Z</time>
      </trkpt>
      <trkpt lat="44.5847" lon="5.99748">
        <ele>1018.4</ele>
        <time>2023-05-15T08:05:27Z</time>
      </trkpt>
      <trkpt lat="44.58471" lon="5.99749">
        <ele>1018</ele>
        <time>2023-05-15T08:05:28Z</time>
      </trkpt>
      <trkpt lat="44.58472" lon="5.99749">
        <ele>1017.8</ele>
        <time>2023-05-15T08:05:29Z</time>
      </trkpt>
      <trkpt lat="44.58473" lon="5.9975">
        <ele>1017.6</ele>
        <time>2023-05-15T08:05:30Z</time>
      </trkpt>
      <trkpt lat="44.58475" lon="5.99751">
        <ele>1016.8</ele>
        <time>2023-05-15T08:05:32Z</time>
      </trkpt>
      <trkpt lat="44.58475" lon="5.99751">
        <ele>1016.2</ele>
        <time>2023-05-15T08:05:33Z</time>
      </trkpt>
      <trkpt lat="44.58475" lon="5.99751">
        <ele>1016</ele>
        <time>2023-05-15T08:05:34Z</time>
      </trkpt>
      <trkpt lat="44.58475" lon="5.99751">
        <ele>1015</ele>
        <time>2023-05-15T08:05:36Z</time>
      </trkpt>
      <trkpt lat="44.58472" lon="5.99749">
        <ele>1014.4</ele>
        <time>2023-05-15T08:05:41Z</time>
      </trkpt>
      <trkpt lat="44.58471" lon="5.99749">
        <ele>1014.4</ele>
        <time>2023-05-15T08:05:43Z</time>
      </trkpt>
      <trkpt lat="44.58471" lon="5.9975">
        <ele>1014.4</ele>
        <time>2023-05-15T08:05:44Z</time>
      </trkpt>
      <trkpt lat="44.58471" lon="5.9975">
        <ele>1014.8</ele>
        <time>2023-05-15T08:05:46Z</time>
      </trkpt>
      <trkpt lat="44.58467" lon="5.99748">
        <ele>1015.4</ele>
        <time>2023-05-15T08:05:55Z</time>
      </trkpt>
      <trkpt lat="44.58466" lon="5.99748">
        <ele>1015.4</ele>
        <time>2023-05-15T08:06:00Z</time>
      </trkpt>
      <trkpt lat="44.58465" lon="5.99748">
        <ele>1015.6</ele>
        <time>2023-05-15T08:06:01Z</time>
      </trkpt>
      <trkpt lat="44.58465" lon="5.99749">
        <ele>1015.6</ele>
        <time>2023-05-15T08:06:03Z</time>
      </trkpt>
      <trkpt lat="44.58465" lon="5.9975">
        <ele>1015.6</ele>
        <time>2023-05-15T08:06:06Z</time>
      </trkpt>
      <trkpt lat="44.58465" lon="5.9975">
        <ele>1015.2</ele>
        <time>2023-05-15T08:06:10Z</time>
      </trkpt>
      <trkpt lat="44.58465" lon="5.99752">
        <ele>1014.8</ele>
        <time>2023-05-15T08:06:17Z</time>
      </trkpt>
      <trkpt lat="44.58465" lon="5.99752">
        <ele>1014.6</ele>
        <time>2023-05-15T08:06:18Z</time>
      </trkpt>
      <trkpt lat="44.58465" lon="5.99752">
        <ele>1014.8</ele>
        <time>2023-05-15T08:06:20Z</time>
      </trkpt>
      <trkpt lat="44.58464" lon="5.99752">
        <ele>1014.8</ele>
        <time>2023-05-15T08:06:22Z</time>
      </trkpt>
      <trkpt lat="44.58465" lon="5.99753">
        <ele>1014.8</ele>
        <time>2023-05-15T08:06:23Z</time>
      </trkpt>
      <trkpt lat="44.58465" lon="5.99753">
        <ele>1017.2</ele>
        <time>2023-05-15T08:06:25Z</time>
      </trkpt>
      <trkpt lat="44.58465" lon="5.99753">
        <ele>1021</ele>
        <time>2023-05-15T08:06:26Z</time>
      </trkpt>
      <trkpt lat="44.58465" lon="5.99753">
        <ele>1024.8</ele>
        <time>2023-05-15T08:06:27Z</time>
      </trkpt>
      <trkpt lat="44.58465" lon="5.99753">
        <ele>1026.4</ele>
        <time>2023-05-15T08:06:29Z</time>
      </trkpt>
      <trkpt lat="44.58465" lon="5.99753">
        <ele>1026.2</ele>
        <time>2023-05-15T08:06:30Z</time>
      </trkpt>
      <trkpt lat="44.58465" lon="5.99753">
        <ele>1025.4</ele>
        <time>2023-05-15T08:06:31Z</time>
      </trkpt>
      <trkpt lat="44.58465" lon="5.99753">
        <ele>1023.2</ele>
        <time>2023-05-15T08:06:32Z</time>
      </trkpt>
      <trkpt lat="44.58465" lon="5.99753">
        <ele>1021.6</ele>
        <time>2023-05-15T08:06:33Z</time>
      </trkpt>
      <trkpt lat="44.58465" lon="5.99753">
        <ele>1020.2</ele>
        <time>2023-05-15T08:06:34Z</time>
      </trkpt>
      <trkpt lat="44.58465" lon="5.99753">
        <ele>1020.4</ele>
        <time>2023-05-15T08:06:35Z</time>
      </trkpt>
      <trkpt lat="44.58465" lon="5.99753">
        <ele>1019.2</ele>
        <time>2023-05-15T08:06:38Z</time>
      </trkpt>
      <trkpt lat="44.58465" lon="5.99753">
        <ele>1018</ele>
        <time>2023-05-15T08:06:39Z</time>
      </trkpt>
      <trkpt lat="44.58465" lon="5.99753">
        <ele>1016.8</ele>
        <time>2023-05-15T08:06:42Z</time>
      </trkpt>
      <trkpt lat="44.58465" lon="5.99753">
        <ele>1015.8</ele>
        <time>2023-05-15T08:06:46Z</time>
      </trkpt>
      <trkpt lat="44.58465" lon="5.99753">
        <ele>1015.8</ele>
        <time>2023-05-15T08:06:48Z</time>
      </trkpt>
      <trkpt lat="44.58465" lon="5.99753">
        <ele>1015</ele>
        <time>2023-05-15T08:07:20Z</time>
      </trkpt>
      <trkpt lat="44.58465" lon="5.99753">
        <ele>1014.8</ele>
        <time>2023-05-15T08:07:44Z</time>
      </trkpt>
      <trkpt lat="44.58465" lon="5.99753">
        <ele>1015.6</ele>
        <time>2023-05-15T08:07:58Z</time>
      </trkpt>
      <trkpt lat="44.58465" lon="5.99753">
        <ele>1014.6</ele>
        <time>2023-05-15T08:08:09Z</time>
      </trkpt>
      <trkpt lat="44.58465" lon="5.99753">
        <ele>1014.2</ele>
        <time>2023-05-15T08:08:12Z</time>
      </trkpt>
      <trkpt lat="44.58465" lon="5.99753">
        <ele>1014</ele>
        <time>2023-05-15T08:08:18Z</time>
      </trkpt>
      <trkpt lat="44.58465" lon="5.99753">
        <ele>1013.4</ele>
        <time>2023-05-15T08:08:30Z</time>
      </trkpt>
      <trkpt lat="44.58465" lon="5.99753">
        <ele>1013.2</ele>
        <time>2023-05-15T08:08:33Z</time>
      </trkpt>
      <trkpt lat="44.58465" lon="5.99754">
        <ele>1012.8</ele>
        <time>2023-05-15T08:08:44Z</time>
      </trkpt>
      <trkpt lat="44.58465" lon="5.99754">
        <ele>1013.2</ele>
        <time>2023-05-15T08:08:57Z</time>
      </trkpt>
      <trkpt lat="44.58466" lon="5.99755">
        <ele>1013</ele>
        <time>2023-05-15T08:09:07Z</time>
      </trkpt>
      <trkpt lat="44.58466" lon="5.99755">
        <ele>1013.8</ele>
        <time>2023-05-15T08:09:23Z</time>
      </trkpt>
      <trkpt lat="44.58466" lon="5.99755">
        <ele>1014</ele>
        <time>2023-05-15T08:09:34Z</time>
      </trkpt>
      <trkpt lat="44.58466" lon="5.99755">
        <ele>1014</ele>
        <time>2023-05-15T08:09:43Z</time>
      </trkpt>
      <trkpt lat="44.58466" lon="5.99755">
        <ele>1014.2</ele>
        <time>2023-05-15T08:09:48Z</time>
      </trkpt>
      <trkpt lat="44.58466" lon="5.99755">
        <ele>1014</ele>
        <time>2023-05-15T08:10:09Z</time>
      </trkpt>
      <trkpt lat="44.58465" lon="5.99755">
        <ele>1014.2</ele>
        <time>2023-05-15T08:10:20Z</time>
      </trkpt>
      <trkpt lat="44.58465" lon="5.99755">
        <ele>1015.6</ele>
        <time>2023-05-15T08:10:22Z</time>
      </trkpt>
      <trkpt lat="44.58465" lon="5.99755">
        <ele>1014.6</ele>
        <time>2023-05-15T08:10:34Z</time>
      </trkpt>
      <trkpt lat="44.58465" lon="5.99755">
        <ele>1014.6</ele>
        <time>2023-05-15T08:10:35Z</time>
      </trkpt>
      <trkpt lat="44.58465" lon="5.99755">
        <ele>1014.4</ele>
        <time>2023-05-15T08:10:54Z</time>
      </trkpt>
      <trkpt lat="44.58465" lon="5.99755">
        <ele>1014</ele>
        <time>2023-05-15T08:11:06Z</time>
      </trkpt>
      <trkpt lat="44.58466" lon="5.99756">
        <ele>1014.2</ele>
        <time>2023-05-15T08:11:24Z</time>
      </trkpt>
      <trkpt lat="44.58466" lon="5.99756">
        <ele>1015.4</ele>
        <time>2023-05-15T08:11:37Z</time>
      </trkpt>
      <trkpt lat="44.58466" lon="5.99756">
        <ele>1015.4</ele>
        <time>2023-05-15T08:11:38Z</time>
      </trkpt>
      <trkpt lat="44.58465" lon="5.99758">
        <ele>1015.8</ele>
        <time>2023-05-15T08:11:44Z</time>
      </trkpt>
      <trkpt lat="44.58464" lon="5.99761">
        <ele>1015.8</ele>
        <time>2023-05-15T08:11:47Z</time>
      </trkpt>
      <trkpt lat="44.58463" lon="5.99769">
        <ele>1016.4</ele>
        <time>2023-05-15T08:11:55Z</time>
      </trkpt>
      <trkpt lat="44.58463" lon="5.99772">
        <ele>1016.6</ele>
        <time>2023-05-15T08:11:56Z</time>
      </trkpt>
      <trkpt lat="44.58463" lon="5.99773">
        <ele>1016.6</ele>
        <time>2023-05-15T08:11:57Z</time>
      </trkpt>
      <trkpt lat="44.58462" lon="5.99774">
        <ele>1017.4</ele>
        <time>2023-05-15T08:12:01Z</time>
      </trkpt>
      <trkpt lat="44.58462" lon="5.99774">
        <ele>1017.6</ele>
        <time>2023-05-15T08:12:02Z</time>
      </trkpt>
      <trkpt lat="44.58462" lon="5.99776">
        <ele>1018</ele>
        <time>2023-05-15T08:12:03Z</time>
      </trkpt>
      <trkpt lat="44.58462" lon="5.9978">
        <ele>1018.4</ele>
        <time>2023-05-15T08:12:06Z</time>
      </trkpt>
      <trkpt lat="44.58462" lon="5.9978">
        <ele>1018.6</ele>
        <time>2023-05-15T08:12:07Z</time>
      </trkpt>
      <trkpt lat="44.58462" lon="5.9978">
        <ele>1018.8</ele>
        <time>2023-05-15T08:12:08Z</time>
      </trkpt>
      <trkpt lat="44.58462" lon="5.99781">
        <ele>1019</ele>
        <time>2023-05-15T08:12:09Z</time>
      </trkpt>
      <trkpt lat="44.58462" lon="5.99781">
        <ele>1019.2</ele>
        <time>2023-05-15T08:12:10Z</time>
      </trkpt>
      <trkpt lat="44.58462" lon="5.99783">
        <ele>1019.4</ele>
        <time>2023-05-15T08:12:11Z</time>
      </trkpt>
      <trkpt lat="44.58462" lon="5.99783">
        <ele>1019.8</ele>
        <time>2023-05-15T08:12:12Z</time>
      </trkpt>
      <trkpt lat="44.58462" lon="5.99783">
        <ele>1019.8</ele>
        <time>2023-05-15T08:12:13Z</time>
      </trkpt>
      <trkpt lat="44.58462" lon="5.99783">
        <ele>1020</ele>
        <time>2023-05-15T08:12:14Z</time>
      </trkpt>
      <trkpt lat="44.58462" lon="5.99783">
        <ele>1020.2</ele>
        <time>2023-05-15T08:12:15Z</time>
      </trkpt>
      <trkpt lat="44.58462" lon="5.99785">
        <ele>1020.2</ele>
        <time>2023-05-15T08:12:16Z</time>
      </trkpt>
      <trkpt lat="44.58462" lon="5.99788">
        <ele>1020.6</ele>
        <time>2023-05-15T08:12:17Z</time>
      </trkpt>
      <trkpt lat="44.58462" lon="5.99788">
        <ele>1020.6</ele>
        <time>2023-05-15T08:12:18Z</time>
      </trkpt>
      <trkpt lat="44.58462" lon="5.99788">
        <ele>1021</ele>
        <time>2023-05-15T08:12:19Z</time>
      </trkpt>
      <trkpt lat="44.58462" lon="5.99788">
        <ele>1021</ele>
        <time>2023-05-15T08:12:20Z</time>
      </trkpt>
      <trkpt lat="44.58462" lon="5.99789">
        <ele>1021.2</ele>
        <time>2023-05-15T08:12:21Z</time>
      </trkpt>
      <trkpt lat="44.58462" lon="5.9979">
        <ele>1021.2</ele>
        <time>2023-05-15T08:12:22Z</time>
      </trkpt>
      <trkpt lat="44.58463" lon="5.99791">
        <ele>1021.6</ele>
        <time>2023-05-15T08:12:24Z</time>
      </trkpt>
      <trkpt lat="44.58463" lon="5.99791">
        <ele>1021.8</ele>
        <time>2023-05-15T08:12:25Z</time>
      </trkpt>
      <trkpt lat="44.58463" lon="5.99792">
        <ele>1022</ele>
        <time>2023-05-15T08:12:26Z</time>
      </trkpt>
      <trkpt lat="44.58463" lon="5.99793">
        <ele>1022.2</ele>
        <time>2023-05-15T08:12:27Z</time>
      </trkpt>
      <trkpt lat="44.58463" lon="5.99793">
        <ele>1022.4</ele>
        <time>2023-05-15T08:12:28Z</time>
      </trkpt>
      <trkpt lat="44.58463" lon="5.99793">
        <ele>1022.6</ele>
        <time>2023-05-15T08:12:29Z</time>
      </trkpt>
      <trkpt lat="44.58463" lon="5.99793">
        <ele>1022.8</ele>
        <time>2023-05-15T08:12:30Z</time>
      </trkpt>
      <trkpt lat="44.58463" lon="5.99796">
        <ele>1023.2</ele>
        <time>2023-05-15T08:12:32Z</time>
      </trkpt>
      <trkpt lat="44.58463" lon="5.99796">
        <ele>1023.4</ele>
        <time>2023-05-15T08:12:33Z</time>
      </trkpt>
      <trkpt lat="44.58463" lon="5.99796">
        <ele>1023.4</ele>
        <time>2023-05-15T08:12:34Z</time>
      </trkpt>
      <trkpt lat="44.58463" lon="5.99796">
        <ele>1023.6</ele>
        <time>2023-05-15T08:12:35Z</time>
      </trkpt>
      <trkpt lat="44.58463" lon="5.99796">
        <ele>1023.6</ele>
        <time>2023-05-15T08:12:36Z</time>
      </trkpt>
      <trkpt lat="44.58462" lon="5.99797">
        <ele>1024</ele>
        <time>2023-05-15T08:12:38Z</time>
      </trkpt>
      <trkpt lat="44.58462" lon="5.99798">
        <ele>1024.2</ele>
        <time>2023-05-15T08:12:39Z</time>
      </trkpt>
      <trkpt lat="44.58462" lon="5.998">
        <ele>1024.4</ele>
        <time>2023-05-15T08:12:40Z</time>
      </trkpt>
      <trkpt lat="44.58462" lon="5.998">
        <ele>1024.4</ele>
        <time>2023-05-15T08:12:41Z</time>
      </trkpt>
      <trkpt lat="44.58462" lon="5.998">
        <ele>1024.8</ele>
        <time>2023-05-15T08:12:42Z</time>
      </trkpt>
      <trkpt lat="44.58461" lon="5.998">
        <ele>1025.2</ele>
        <time>2023-05-15T08:12:45Z</time>
      </trkpt>
      <trkpt lat="44.58462" lon="5.99801">
        <ele>1025.4</ele>
        <time>2023-05-15T08:12:46Z</time>
      </trkpt>
      <trkpt lat="44.58462" lon="5.99801">
        <ele>1025.4</ele>
        <time>2023-05-15T08:12:47Z</time>
      </trkpt>
      <trkpt lat="44.58462" lon="5.99801">
        <ele>1025.6</ele>
        <time>2023-05-15T08:12:48Z</time>
      </trkpt>
      <trkpt lat="44.58462" lon="5.99801">
        <ele>1025.8</ele>
        <time>2023-05-15T08:12:49Z</time>
      </trkpt>
      <trkpt lat="44.58462" lon="5.99801">
        <ele>1026</ele>
        <time>2023-05-15T08:12:50Z</time>
      </trkpt>
      <trkpt lat="44.58462" lon="5.99801">
        <ele>1026.2</ele>
        <time>2023-05-15T08:12:51Z</time>
      </trkpt>
      <trkpt lat="44.58462" lon="5.99801">
        <ele>1026.4</ele>
        <time>2023-05-15T08:12:52Z</time>
      </trkpt>
      <trkpt lat="44.58462" lon="5.99801">
        <ele>1026.4</ele>
        <time>2023-05-15T08:12:53Z</time>
      </trkpt>
      <trkpt lat="44.58461" lon="5.99803">
        <ele>1026.6</ele>
        <time>2023-05-15T08:12:54Z</time>
      </trkpt>
      <trkpt lat="44.58461" lon="5.99803">
        <ele>1026.6</ele>
        <time>2023-05-15T08:12:55Z</time>
      </trkpt>
      <trkpt lat="44.58461" lon="5.99804">
        <ele>1026.8</ele>
        <time>2023-05-15T08:12:56Z</time>
      </trkpt>
      <trkpt lat="44.5846" lon="5.99804">
        <ele>1027</ele>
        <time>2023-05-15T08:12:57Z</time>
      </trkpt>
      <trkpt lat="44.5846" lon="5.99805">
        <ele>1027.2</ele>
        <time>2023-05-15T08:12:58Z</time>
      </trkpt>
      <trkpt lat="44.5846" lon="5.99806">
        <ele>1027.4</ele>
        <time>2023-05-15T08:12:59Z</time>
      </trkpt>
      <trkpt lat="44.5846" lon="5.99808">
        <ele>1027.6</ele>
        <time>2023-05-15T08:13:00Z</time>
      </trkpt>
      <trkpt lat="44.5846" lon="5.9981">
        <ele>1027.6</ele>
        <time>2023-05-15T08:13:01Z</time>
      </trkpt>
      <trkpt lat="44.5846" lon="5.99811">
        <ele>1027.8</ele>
        <time>2023-05-15T08:13:02Z</time>
      </trkpt>
      <trkpt lat="44.58459" lon="5.99812">
        <ele>1027.8</ele>
        <time>2023-05-15T08:13:03Z</time>
      </trkpt>
      <trkpt lat="44.58459" lon="5.99812">
        <ele>1027.8</ele>
        <time>2023-05-15T08:13:04Z</time>
      </trkpt>
      <trkpt lat="44.58459" lon="5.99812">
        <ele>1028</ele>
        <time>2023-05-15T08:13:05Z</time>
      </trkpt>
      <trkpt lat="44.58459" lon="5.99813">
        <ele>1028</ele>
        <time>2023-05-15T08:13:06Z</time>
      </trkpt>
      <trkpt lat="44.58459" lon="5.99814">
        <ele>1028</ele>
        <time>2023-05-15T08:13:07Z</time>
      </trkpt>
      <trkpt lat="44.58459" lon="5.99814">
        <ele>1028.2</ele>
        <time>2023-05-15T08:13:08Z</time>
      </trkpt>
      <trkpt lat="44.58459" lon="5.99815">
        <ele>1028.2</ele>
        <time>2023-05-15T08:13:09Z</time>
      </trkpt>
      <trkpt lat="44.58459" lon="5.99816">
        <ele>1028.6</ele>
        <time>2023-05-15T08:13:11Z</time>
      </trkpt>
      <trkpt lat="44.58459" lon="5.99817">
        <ele>1028.8</ele>
        <time>2023-05-15T08:13:12Z</time>
      </trkpt>
      <trkpt lat="44.58458" lon="5.99818">
        <ele>1029</ele>
        <time>2023-05-15T08:13:13Z</time>
      </trkpt>
      <trkpt lat="44.58458" lon="5.99818">
        <ele>1029</ele>
        <time>2023-05-15T08:13:14Z</time>
      </trkpt>
      <trkpt lat="44.58458" lon="5.99818">
        <ele>1029.2</ele>
        <time>2023-05-15T08:13:15Z</time>
      </trkpt>
      <trkpt lat="44.58458" lon="5.99818">
        <ele>1029.2</ele>
        <time>2023-05-15T08:13:16Z</time>
      </trkpt>
      <trkpt lat="44.58458" lon="5.99818">
        <ele>1029.4</ele>
        <time>2023-05-15T08:13:17Z</time>
      </trkpt>
      <trkpt lat="44.58458" lon="5.99818">
        <ele>1029.8</ele>
        <time>2023-05-15T08:13:19Z</time>
      </trkpt>
      <trkpt lat="44.58458" lon="5.99818">
        <ele>1029.8</ele>
        <time>2023-05-15T08:13:20Z</time>
      </trkpt>
      <trkpt lat="44.58458" lon="5.99818">
        <ele>1030.2</ele>
        <time>2023-05-15T08:13:21Z</time>
      </trkpt>
      <trkpt lat="44.58457" lon="5.99821">
        <ele>1030.2</ele>
        <time>2023-05-15T08:13:22Z</time>
      </trkpt>
      <trkpt lat="44.58457" lon="5.99824">
        <ele>1030.4</ele>
        <time>2023-05-15T08:13:23Z</time>
      </trkpt>
      <trkpt lat="44.58456" lon="5.99825">
        <ele>1030.4</ele>
        <time>2023-05-15T08:13:24Z</time>
      </trkpt>
      <trkpt lat="44.58456" lon="5.99826">
        <ele>1030.6</ele>
        <time>2023-05-15T08:13:25Z</time>
      </trkpt>
      <trkpt lat="44.58455" lon="5.99828">
        <ele>1030.8</ele>
        <time>2023-05-15T08:13:26Z</time>
      </trkpt>
      <trkpt lat="44.58455" lon="5.99828">
        <ele>1030.8</ele>
        <time>2023-05-15T08:13:27Z</time>
      </trkpt>
      <trkpt lat="44.58455" lon="5.99828">
        <ele>1031.2</ele>
        <time>2023-05-15T08:13:28Z</time>
      </trkpt>
      <trkpt lat="44.58455" lon="5.99828">
        <ele>1031.4</ele>
        <time>2023-05-15T08:13:29Z</time>
      </trkpt>
      <trkpt lat="44.58455" lon="5.99828">
        <ele>1031.6</ele>
        <time>2023-05-15T08:13:30Z</time>
      </trkpt>
      <trkpt lat="44.58455" lon="5.9983">
        <ele>1031.8</ele>
        <time>2023-05-15T08:13:31Z</time>
      </trkpt>
      <trkpt lat="44.58455" lon="5.9983">
        <ele>1032</ele>
        <time>2023-05-15T08:13:32Z</time>
      </trkpt>
      <trkpt lat="44.58455" lon="5.9983">
        <ele>1032</ele>
        <time>2023-05-15T08:13:33Z</time>
      </trkpt>
      <trkpt lat="44.58455" lon="5.9983">
        <ele>1032.2</ele>
        <time>2023-05-15T08:13:34Z</time>
      </trkpt>
      <trkpt lat="44.58455" lon="5.9983">
        <ele>1032.4</ele>
        <time>2023-05-15T08:13:35Z</time>
      </trkpt>
      <trkpt lat="44.58455" lon="5.9983">
        <ele>1032.6</ele>
        <time>2023-05-15T08:13:36Z</time>
      </trkpt>
      <trkpt lat="44.58455" lon="5.9983">
        <ele>1032.6</ele>
        <time>2023-05-15T08:13:37Z</time>
      </trkpt>
      <trkpt lat="44.58455" lon="5.9983">
        <ele>1032.6</ele>
        <time>2023-05-15T08:13:38Z</time>
      </trkpt>
      <trkpt lat="44.58455" lon="5.9983">
        <ele>1032.8</ele>
        <time>2023-05-15T08:13:39Z</time>
      </trkpt>
      <trkpt lat="44.58455" lon="5.9983">
        <ele>1032.8</ele>
        <time>2023-05-15T08:13:40Z</time>
      </trkpt>
      <trkpt lat="44.58455" lon="5.9983">
        <ele>1033</ele>
        <time>2023-05-15T08:13:41Z</time>
      </trkpt>
      <trkpt lat="44.58455" lon="5.9983">
        <ele>1033</ele>
        <time>2023-05-15T08:13:42Z</time>
      </trkpt>
      <trkpt lat="44.58455" lon="5.9983">
        <ele>1033.2</ele>
        <time>2023-05-15T08:13:43Z</time>
      </trkpt>
      <trkpt lat="44.58455" lon="5.9983">
        <ele>1033.4</ele>
        <time>2023-05-15T08:13:44Z</time>
      </trkpt>
      <trkpt lat="44.58454" lon="5.99832">
        <ele>1033.6</ele>
        <time>2023-05-15T08:13:45Z</time>
      </trkpt>
      <trkpt lat="44.58454" lon="5.99832">
        <ele>1033.8</ele>
        <time>2023-05-15T08:13:46Z</time>
      </trkpt>
      <trkpt lat="44.58453" lon="5.99833">
        <ele>1034.2</ele>
        <time>2023-05-15T08:13:48Z</time>
      </trkpt>
      <trkpt lat="44.58453" lon="5.99835">
        <ele>1034.4</ele>
        <time>2023-05-15T08:13:49Z</time>
      </trkpt>
      <trkpt lat="44.58453" lon="5.99836">
        <ele>1034.4</ele>
        <time>2023-05-15T08:13:50Z</time>
      </trkpt>
      <trkpt lat="44.58453" lon="5.99836">
        <ele>1034.6</ele>
        <time>2023-05-15T08:13:51Z</time>
      </trkpt>
      <trkpt lat="44.58453" lon="5.99836">
        <ele>1034.6</ele>
        <time>2023-05-15T08:13:52Z</time>
      </trkpt>
      <trkpt lat="44.58453" lon="5.99836">
        <ele>1034.6</ele>
        <time>2023-05-15T08:13:53Z</time>
      </trkpt>
      <trkpt lat="44.58452" lon="5.99838">
        <ele>1034.8</ele>
        <time>2023-05-15T08:13:54Z</time>
      </trkpt>
      <trkpt lat="44.58452" lon="5.99841">
        <ele>1035</ele>
        <time>2023-05-15T08:13:55Z</time>
      </trkpt>
      <trkpt lat="44.58452" lon="5.99841">
        <ele>1035.2</ele>
        <time>2023-05-15T08:13:57Z</time>
      </trkpt>
      <trkpt lat="44.58452" lon="5.99841">
        <ele>1035.4</ele>
        <time>2023-05-15T08:13:58Z</time>
      </trkpt>
      <trkpt lat="44.58452" lon="5.99841">
        <ele>1035.4</ele>
        <time>2023-05-15T08:13:59Z</time>
      </trkpt>
      <trkpt lat="44.58452" lon="5.99841">
        <ele>1035.6</ele>
        <time>2023-05-15T08:14:01Z</time>
      </trkpt>
      <trkpt lat="44.58452" lon="5.99841">
        <ele>1035.8</ele>
        <time>2023-05-15T08:14:02Z</time>
      </trkpt>
      <trkpt lat="44.58452" lon="5.99843">
        <ele>1036</ele>
        <time>2023-05-15T08:14:03Z</time>
      </trkpt>
      <trkpt lat="44.58452" lon="5.99843">
        <ele>1036.4</ele>
        <time>2023-05-15T08:14:04Z</time>
      </trkpt>
      <trkpt lat="44.58452" lon="5.99844">
        <ele>1036.4</ele>
        <time>2023-05-15T08:14:05Z</time>
      </trkpt>
      <trkpt lat="44.58452" lon="5.99844">
        <ele>1036.6</ele>
        <time>2023-05-15T08:14:06Z</time>
      </trkpt>
      <trkpt lat="44.58452" lon="5.99844">
        <ele>1036.6</ele>
        <time>2023-05-15T08:14:07Z</time>
      </trkpt>
      <trkpt lat="44.58452" lon="5.99844">
        <ele>1036.8</ele>
        <time>2023-05-15T08:14:08Z</time>
      </trkpt>
      <trkpt lat="44.58453" lon="5.99845">
        <ele>1037</ele>
        <time>2023-05-15T08:14:09Z</time>
      </trkpt>
      <trkpt lat="44.58453" lon="5.99845">
        <ele>1037.2</ele>
        <time>2023-05-15T08:14:10Z</time>
      </trkpt>
      <trkpt lat="44.58453" lon="5.99845">
        <ele>1037.4</ele>
        <time>2023-05-15T08:14:11Z</time>
      </trkpt>
      <trkpt lat="44.58453" lon="5.99845">
        <ele>1037.4</ele>
        <time>2023-05-15T08:14:12Z</time>
      </trkpt>
      <trkpt lat="44.58453" lon="5.99845">
        <ele>1037.6</ele>
        <time>2023-05-15T08:14:13Z</time>
      </trkpt>
      <trkpt lat="44.58453" lon="5.99846">
        <ele>1037.6</ele>
        <time>2023-05-15T08:14:14Z</time>
      </trkpt>
      <trkpt lat="44.58454" lon="5.99847">
        <ele>1037.8</ele>
        <time>2023-05-15T08:14:15Z</time>
      </trkpt>
      <trkpt lat="44.58454" lon="5.99848">
        <ele>1038.2</ele>
        <time>2023-05-15T08:14:16Z</time>
      </trkpt>
      <trkpt lat="44.58454" lon="5.99848">
        <ele>1038.2</ele>
        <time>2023-05-15T08:14:17Z</time>
      </trkpt>
      <trkpt lat="44.58454" lon="5.99848">
        <ele>1038.6</ele>
        <time>2023-05-15T08:14:18Z</time>
      </trkpt>
      <trkpt lat="44.58454" lon="5.99848">
        <ele>1038.8</ele>
        <time>2023-05-15T08:14:19Z</time>
      </trkpt>
      <trkpt lat="44.58454" lon="5.99848">
        <ele>1039</ele>
        <time>2023-05-15T08:14:20Z</time>
      </trkpt>
      <trkpt lat="44.58454" lon="5.99848">
        <ele>1039</ele>
        <time>2023-05-15T08:14:21Z</time>
      </trkpt>
      <trkpt lat="44.58454" lon="5.99848">
        <ele>1039.4</ele>
        <time>2023-05-15T08:14:22Z</time>
      </trkpt>
      <trkpt lat="44.58454" lon="5.99848">
        <ele>1039.8</ele>
        <time>2023-05-15T08:14:23Z</time>
      </trkpt>
      <trkpt lat="44.58455" lon="5.9985">
        <ele>1040.2</ele>
        <time>2023-05-15T08:14:25Z</time>
      </trkpt>
      <trkpt lat="44.58456" lon="5.99851">
        <ele>1040.2</ele>
        <time>2023-05-15T08:14:26Z</time>
      </trkpt>
      <trkpt lat="44.58456" lon="5.99851">
        <ele>1040.6</ele>
        <time>2023-05-15T08:14:27Z</time>
      </trkpt>
      <trkpt lat="44.58456" lon="5.99851">
        <ele>1040.6</ele>
        <time>2023-05-15T08:14:28Z</time>
      </trkpt>
      <trkpt lat="44.58456" lon="5.99852">
        <ele>1040.8</ele>
        <time>2023-05-15T08:14:29Z</time>
      </trkpt>
      <trkpt lat="44.58457" lon="5.99853">
        <ele>1041</ele>
        <time>2023-05-15T08:14:30Z</time>
      </trkpt>
      <trkpt lat="44.58459" lon="5.99854">
        <ele>1041</ele>
        <time>2023-05-15T08:14:31Z</time>
      </trkpt>
      <trkpt lat="44.5846" lon="5.99855">
        <ele>1041.2</ele>
        <time>2023-05-15T08:14:32Z</time>
      </trkpt>
      <trkpt lat="44.58461" lon="5.99855">
        <ele>1041.2</ele>
        <time>2023-05-15T08:14:33Z</time>
      </trkpt>
      <trkpt lat="44.58462" lon="5.99856">
        <ele>1041.2</ele>
        <time>2023-05-15T08:14:34Z</time>
      </trkpt>
      <trkpt lat="44.58463" lon="5.99856">
        <ele>1041.2</ele>
        <time>2023-05-15T08:14:35Z</time>
      </trkpt>
      <trkpt lat="44.58464" lon="5.99857">
        <ele>1041.2</ele>
        <time>2023-05-15T08:14:36Z</time>
      </trkpt>
      <trkpt lat="44.58464" lon="5.99858">
        <ele>1041.2</ele>
        <time>2023-05-15T08:14:37Z</time>
      </trkpt>
      <trkpt lat="44.58465" lon="5.99858">
        <ele>1041.2</ele>
        <time>2023-05-15T08:14:38Z</time>
      </trkpt>
      <trkpt lat="44.58465" lon="5.99859">
        <ele>1041.2</ele>
        <time>2023-05-15T08:14:39Z</time>
      </trkpt>
      <trkpt lat="44.58466" lon="5.9986">
        <ele>1041.2</ele>
        <time>2023-05-15T08:14:40Z</time>
      </trkpt>
      <trkpt lat="44.58467" lon="5.9986">
        <ele>1041.2</ele>
        <time>2023-05-15T08:14:41Z</time>
      </trkpt>
      <trkpt lat="44.58468" lon="5.9986">
        <ele>1041.2</ele>
        <time>2023-05-15T08:14:42Z</time>
      </trkpt>
      <trkpt lat="44.58469" lon="5.9986">
        <ele>1041.2</ele>
        <time>2023-05-15T08:14:43Z</time>
      </trkpt>
      <trkpt lat="44.5847" lon="5.99861">
        <ele>1041.2</ele>
        <time>2023-05-15T08:14:44Z</time>
      </trkpt>
      <trkpt lat="44.58471" lon="5.99861">
        <ele>1041.2</ele>
        <time>2023-05-15T08:14:45Z</time>
      </trkpt>
      <trkpt lat="44.58472" lon="5.99861">
        <ele>1041.2</ele>
        <time>2023-05-15T08:14:46Z</time>
      </trkpt>
      <trkpt lat="44.58472" lon="5.99861">
        <ele>1041.2</ele>
        <time>2023-05-15T08:14:47Z</time>
      </trkpt>
      <trkpt lat="44.58476" lon="5.99861">
        <ele>1042</ele>
        <time>2023-05-15T08:14:52Z</time>
      </trkpt>
      <trkpt lat="44.58477" lon="5.99861">
        <ele>1042.2</ele>
        <time>2023-05-15T08:14:53Z</time>
      </trkpt>
      <trkpt lat="44.58477" lon="5.99861">
        <ele>1042.4</ele>
        <time>2023-05-15T08:14:54Z</time>
      </trkpt>
      <trkpt lat="44.58478" lon="5.99861">
        <ele>1042.4</ele>
        <time>2023-05-15T08:14:55Z</time>
      </trkpt>
      <trkpt lat="44.58478" lon="5.9986">
        <ele>1043.4</ele>
        <time>2023-05-15T08:14:57Z</time>
      </trkpt>
      <trkpt lat="44.58478" lon="5.9986">
        <ele>1044</ele>
        <time>2023-05-15T08:15:00Z</time>
      </trkpt>
      <trkpt lat="44.58479" lon="5.9986">
        <ele>1044.2</ele>
        <time>2023-05-15T08:15:02Z</time>
      </trkpt>
      <trkpt lat="44.58479" lon="5.9986">
        <ele>1044.4</ele>
        <time>2023-05-15T08:15:03Z</time>
      </trkpt>
      <trkpt lat="44.58479" lon="5.9986">
        <ele>1044.6</ele>
        <time>2023-05-15T08:15:04Z</time>
      </trkpt>
      <trkpt lat="44.58479" lon="5.9986">
        <ele>1044.6</ele>
        <time>2023-05-15T08:15:05Z</time>
      </trkpt>
      <trkpt lat="44.5848" lon="5.9986">
        <ele>1044.8</ele>
        <time>2023-05-15T08:15:06Z</time>
      </trkpt>
      <trkpt lat="44.5848" lon="5.99859">
        <ele>1044.8</ele>
        <time>2023-05-15T08:15:07Z</time>
      </trkpt>
      <trkpt lat="44.58481" lon="5.99859">
        <ele>1045</ele>
        <time>2023-05-15T08:15:08Z</time>
      </trkpt>
      <trkpt lat="44.58482" lon="5.99859">
        <ele>1045</ele>
        <time>2023-05-15T08:15:09Z</time>
      </trkpt>
      <trkpt lat="44.58483" lon="5.99859">
        <ele>1045.2</ele>
        <time>2023-05-15T08:15:10Z</time>
      </trkpt>
      <trkpt lat="44.58484" lon="5.99859">
        <ele>1045.2</ele>
        <time>2023-05-15T08:15:11Z</time>
      </trkpt>
      <trkpt lat="44.58484" lon="5.99859">
        <ele>1045.6</ele>
        <time>2023-05-15T08:15:12Z</time>
      </trkpt>
      <trkpt lat="44.58484" lon="5.99859">
        <ele>1045.6</ele>
        <time>2023-05-15T08:15:13Z</time>
      </trkpt>
      <trkpt lat="44.58484" lon="5.99859">
        <ele>1045.8</ele>
        <time>2023-05-15T08:15:14Z</time>
      </trkpt>
      <trkpt lat="44.58485" lon="5.99859">
        <ele>1046.2</ele>
        <time>2023-05-15T08:15:15Z</time>
      </trkpt>
      <trkpt lat="44.58485" lon="5.99859">
        <ele>1046.4</ele>
        <time>2023-05-15T08:15:16Z</time>
      </trkpt>
      <trkpt lat="44.58485" lon="5.99859">
        <ele>1046.6</ele>
        <time>2023-05-15T08:15:17Z</time>
      </trkpt>
      <trkpt lat="44.58485" lon="5.99859">
        <ele>1046.6</ele>
        <time>2023-05-15T08:15:18Z</time>
      </trkpt>
      <trkpt lat="44.58485" lon="5.99859">
        <ele>1047</ele>
        <time>2023-05-15T08:15:19Z</time>
      </trkpt>
      <trkpt lat="44.58485" lon="5.99858">
        <ele>1047.2</ele>
        <time>2023-05-15T08:15:20Z</time>
      </trkpt>
      <trkpt lat="44.58485" lon="5.99858">
        <ele>1047.4</ele>
        <time>2023-05-15T08:15:21Z</time>
      </trkpt>
      <trkpt lat="44.58485" lon="5.99858">
        <ele>1047.4</ele>
        <time>2023-05-15T08:15:22Z</time>
      </trkpt>
      <trkpt lat="44.58485" lon="5.99858">
        <ele>1047.6</ele>
        <time>2023-05-15T08:15:23Z</time>
      </trkpt>
      <trkpt lat="44.58486" lon="5.99858">
        <ele>1047.6</ele>
        <time>2023-05-15T08:15:24Z</time>
      </trkpt>
      <trkpt lat="44.58487" lon="5.99858">
        <ele>1047.6</ele>
        <time>2023-05-15T08:15:25Z</time>
      </trkpt>
      <trkpt lat="44.58488" lon="5.99857">
        <ele>1047.6</ele>
        <time>2023-05-15T08:15:26Z</time>
      </trkpt>
      <trkpt lat="44.58488" lon="5.99857">
        <ele>1047.6</ele>
        <time>2023-05-15T08:15:27Z</time>
      </trkpt>
      <trkpt lat="44.58488" lon="5.99857">
        <ele>1047.6</ele>
        <time>2023-05-15T08:15:28Z</time>
      </trkpt>
      <trkpt lat="44.58488" lon="5.99857">
        <ele>1047.6</ele>
        <time>2023-05-15T08:15:31Z</time>
      </trkpt>
      <trkpt lat="44.5849" lon="5.99857">
        <ele>1048.4</ele>
        <time>2023-05-15T08:15:37Z</time>
      </trkpt>
      <trkpt lat="44.58491" lon="5.99858">
        <ele>1048.6</ele>
        <time>2023-05-15T08:15:38Z</time>
      </trkpt>
      <trkpt lat="44.5849" lon="5.99859">
        <ele>1048.6</ele>
        <time>2023-05-15T08:15:39Z</time>
      </trkpt>
      <trkpt lat="44.5849" lon="5.99859">
        <ele>1048.8</ele>
        <time>2023-05-15T08:15:40Z</time>
      </trkpt>
      <trkpt lat="44.5849" lon="5.9986">
        <ele>1048.8</ele>
        <time>2023-05-15T08:15:41Z</time>
      </trkpt>
      <trkpt lat="44.5849" lon="5.9986">
        <ele>1048.8</ele>
        <time>2023-05-15T08:15:42Z</time>
      </trkpt>
      <trkpt lat="44.5849" lon="5.9986">
        <ele>1049</ele>
        <time>2023-05-15T08:15:43Z</time>
      </trkpt>
      <trkpt lat="44.5849" lon="5.99861">
        <ele>1049.4</ele>
        <time>2023-05-15T08:15:45Z</time>
      </trkpt>
      <trkpt lat="44.5849" lon="5.99862">
        <ele>1049.6</ele>
        <time>2023-05-15T08:15:48Z</time>
      </trkpt>
      <trkpt lat="44.5849" lon="5.99863">
        <ele>1049.8</ele>
        <time>2023-05-15T08:15:49Z</time>
      </trkpt>
      <trkpt lat="44.5849" lon="5.99864">
        <ele>1049.8</ele>
        <time>2023-05-15T08:15:50Z</time>
      </trkpt>
      <trkpt lat="44.5849" lon="5.99864">
        <ele>1050</ele>
        <time>2023-05-15T08:15:51Z</time>
      </trkpt>
      <trkpt lat="44.58491" lon="5.99865">
        <ele>1050.6</ele>
        <time>2023-05-15T08:15:54Z</time>
      </trkpt>
      <trkpt lat="44.58491" lon="5.99866">
        <ele>1050.6</ele>
        <time>2023-05-15T08:15:55Z</time>
      </trkpt>
      <trkpt lat="44.58491" lon="5.99866">
        <ele>1051.2</ele>
        <time>2023-05-15T08:15:56Z</time>
      </trkpt>
      <trkpt lat="44.58491" lon="5.99866">
        <ele>1051.4</ele>
        <time>2023-05-15T08:15:57Z</time>
      </trkpt>
      <trkpt lat="44.5849" lon="5.99867">
        <ele>1051.6</ele>
        <time>2023-05-15T08:15:58Z</time>
      </trkpt>
      <trkpt lat="44.5849" lon="5.99867">
        <ele>1051.6</ele>
        <time>2023-05-15T08:15:59Z</time>
      </trkpt>
      <trkpt lat="44.58491" lon="5.99867">
        <ele>1051.8</ele>
        <time>2023-05-15T08:16:00Z</time>
      </trkpt>
      <trkpt lat="44.58491" lon="5.99868">
        <ele>1052</ele>
        <time>2023-05-15T08:16:01Z</time>
      </trkpt>
      <trkpt lat="44.58491" lon="5.99868">
        <ele>1052.2</ele>
        <time>2023-05-15T08:16:02Z</time>
      </trkpt>
      <trkpt lat="44.58491" lon="5.99868">
        <ele>1052.4</ele>
        <time>2023-05-15T08:16:03Z</time>
      </trkpt>
      <trkpt lat="44.58491" lon="5.99868">
        <ele>1052.6</ele>
        <time>2023-05-15T08:16:04Z</time>
      </trkpt>
      <trkpt lat="44.5849" lon="5.9987">
        <ele>1052.8</ele>
        <time>2023-05-15T08:16:05Z</time>
      </trkpt>
      <trkpt lat="44.5849" lon="5.9987">
        <ele>1052.8</ele>
        <time>2023-05-15T08:16:06Z</time>
      </trkpt>
      <trkpt lat="44.5849" lon="5.9987">
        <ele>1052.8</ele>
        <time>2023-05-15T08:16:07Z</time>
      </trkpt>
      <trkpt lat="44.5849" lon="5.9987">
        <ele>1053</ele>
        <time>2023-05-15T08:16:08Z</time>
      </trkpt>
      <trkpt lat="44.5849" lon="5.9987">
        <ele>1053</ele>
        <time>2023-05-15T08:16:09Z</time>
      </trkpt>
      <trkpt lat="44.5849" lon="5.9987">
        <ele>1053.4</ele>
        <time>2023-05-15T08:16:11Z</time>
      </trkpt>
      <trkpt lat="44.5849" lon="5.99871">
        <ele>1053.4</ele>
        <time>2023-05-15T08:16:12Z</time>
      </trkpt>
      <trkpt lat="44.5849" lon="5.99872">
        <ele>1053.8</ele>
        <time>2023-05-15T08:16:18Z</time>
      </trkpt>
      <trkpt lat="44.5849" lon="5.99873">
        <ele>1054.2</ele>
        <time>2023-05-15T08:16:19Z</time>
      </trkpt>
      <trkpt lat="44.5849" lon="5.99874">
        <ele>1054.4</ele>
        <time>2023-05-15T08:16:22Z</time>
      </trkpt>
      <trkpt lat="44.5849" lon="5.99874">
        <ele>1054.6</ele>
        <time>2023-05-15T08:16:24Z</time>
      </trkpt>
      <trkpt lat="44.5849" lon="5.99877">
        <ele>1055.6</ele>
        <time>2023-05-15T08:16:31Z</time>
      </trkpt>
      <trkpt lat="44.5849" lon="5.99878">
        <ele>1055.8</ele>
        <time>2023-05-15T08:16:32Z</time>
      </trkpt>
      <trkpt lat="44.5849" lon="5.99878">
        <ele>1056.4</ele>
        <time>2023-05-15T08:16:33Z</time>
      </trkpt>
      <trkpt lat="44.5849" lon="5.99878">
        <ele>1057</ele>
        <time>2023-05-15T08:16:36Z</time>
      </trkpt>
      <trkpt lat="44.5849" lon="5.99883">
        <ele>1058.2</ele>
        <time>2023-05-15T08:16:44Z</time>
      </trkpt>
      <trkpt lat="44.5849" lon="5.99883">
        <ele>1058.4</ele>
        <time>2023-05-15T08:16:45Z</time>
      </trkpt>
      <trkpt lat="44.5849" lon="5.99883">
        <ele>1058.4</ele>
        <time>2023-05-15T08:16:46Z</time>
      </trkpt>
      <trkpt lat="44.5849" lon="5.99884">
        <ele>1058.4</ele>
        <time>2023-05-15T08:16:47Z</time>
      </trkpt>
      <trkpt lat="44.5849" lon="5.99884">
        <ele>1058.8</ele>
        <time>2023-05-15T08:16:49Z</time>
      </trkpt>
      <trkpt lat="44.5849" lon="5.99884">
        <ele>1059</ele>
        <time>2023-05-15T08:16:50Z</time>
      </trkpt>
      <trkpt lat="44.5849" lon="5.99885">
        <ele>1059.6</ele>
        <time>2023-05-15T08:16:53Z</time>
      </trkpt>
      <trkpt lat="44.58491" lon="5.99886">
        <ele>1059.8</ele>
        <time>2023-05-15T08:16:57Z</time>
      </trkpt>
      <trkpt lat="44.58491" lon="5.9989">
        <ele>1060</ele>
        <time>2023-05-15T08:17:01Z</time>
      </trkpt>
      <trkpt lat="44.58491" lon="5.9989">
        <ele>1060</ele>
        <time>2023-05-15T08:17:02Z</time>
      </trkpt>
      <trkpt lat="44.58491" lon="5.99891">
        <ele>1060.2</ele>
        <time>2023-05-15T08:17:03Z</time>
      </trkpt>
      <trkpt lat="44.58491" lon="5.99892">
        <ele>1060.2</ele>
        <time>2023-05-15T08:17:04Z</time>
      </trkpt>
      <trkpt lat="44.58491" lon="5.99894">
        <ele>1060.4</ele>
        <time>2023-05-15T08:17:05Z</time>
      </trkpt>
      <trkpt lat="44.58491" lon="5.99895">
        <ele>1060.4</ele>
        <time>2023-05-15T08:17:06Z</time>
      </trkpt>
      <trkpt lat="44.58491" lon="5.99897">
        <ele>1060.6</ele>
        <time>2023-05-15T08:17:07Z</time>
      </trkpt>
      <trkpt lat="44.58491" lon="5.99897">
        <ele>1060.6</ele>
        <time>2023-05-15T08:17:08Z</time>
      </trkpt>
      <trkpt lat="44.58491" lon="5.99897">
        <ele>1061</ele>
        <time>2023-05-15T08:17:09Z</time>
      </trkpt>
      <trkpt lat="44.58491" lon="5.99897">
        <ele>1061.2</ele>
        <time>2023-05-15T08:17:10Z</time>
      </trkpt>
      <trkpt lat="44.58491" lon="5.99898">
        <ele>1061.4</ele>
        <time>2023-05-15T08:17:11Z</time>
      </trkpt>
      <trkpt lat="44.58491" lon="5.99898">
        <ele>1061.6</ele>
        <time>2023-05-15T08:17:12Z</time>
      </trkpt>
      <trkpt lat="44.58491" lon="5.99898">
        <ele>1061.6</ele>
        <time>2023-05-15T08:17:13Z</time>
      </trkpt>
      <trkpt lat="44.58491" lon="5.99898">
        <ele>1061.8</ele>
        <time>2023-05-15T08:17:14Z</time>
      </trkpt>
      <trkpt lat="44.58491" lon="5.99898">
        <ele>1062</ele>
        <time>2023-05-15T08:17:15Z</time>
      </trkpt>
      <trkpt lat="44.58491" lon="5.99898">
        <ele>1062.2</ele>
        <time>2023-05-15T08:17:16Z</time>
      </trkpt>
      <trkpt lat="44.58491" lon="5.99898">
        <ele>1062.4</ele>
        <time>2023-05-15T08:17:17Z</time>
      </trkpt>
      <trkpt lat="44.58491" lon="5.99898">
        <ele>1062.6</ele>
        <time>2023-05-15T08:17:18Z</time>
      </trkpt>
      <trkpt lat="44.58491" lon="5.99898">
        <ele>1062.8</ele>
        <time>2023-05-15T08:17:19Z</time>
      </trkpt>
      <trkpt lat="44.5849" lon="5.99899">
        <ele>1062.8</ele>
        <time>2023-05-15T08:17:20Z</time>
      </trkpt>
      <trkpt lat="44.5849" lon="5.99901">
        <ele>1063</ele>
        <time>2023-05-15T08:17:21Z</time>
      </trkpt>
      <trkpt lat="44.5849" lon="5.99902">
        <ele>1063.2</ele>
        <time>2023-05-15T08:17:22Z</time>
      </trkpt>
      <trkpt lat="44.58489" lon="5.99902">
        <ele>1063.4</ele>
        <time>2023-05-15T08:17:23Z</time>
      </trkpt>
      <trkpt lat="44.58489" lon="5.99902">
        <ele>1063.4</ele>
        <time>2023-05-15T08:17:24Z</time>
      </trkpt>
      <trkpt lat="44.58489" lon="5.99902">
        <ele>1063.6</ele>
        <time>2023-05-15T08:17:25Z</time>
      </trkpt>
      <trkpt lat="44.58489" lon="5.99902">
        <ele>1063.8</ele>
        <time>2023-05-15T08:17:26Z</time>
      </trkpt>
      <trkpt lat="44.58489" lon="5.99902">
        <ele>1064</ele>
        <time>2023-05-15T08:17:27Z</time>
      </trkpt>
      <trkpt lat="44.58489" lon="5.99903">
        <ele>1064.2</ele>
        <time>2023-05-15T08:17:28Z</time>
      </trkpt>
      <trkpt lat="44.58487" lon="5.99905">
        <ele>1064.4</ele>
        <time>2023-05-15T08:17:29Z</time>
      </trkpt>
      <trkpt lat="44.58486" lon="5.99906">
        <ele>1065</ele>
        <time>2023-05-15T08:17:30Z</time>
      </trkpt>
      <trkpt lat="44.58486" lon="5.99906">
        <ele>1065.2</ele>
        <time>2023-05-15T08:17:31Z</time>
      </trkpt>
      <trkpt lat="44.58486" lon="5.99907">
        <ele>1065.4</ele>
        <time>2023-05-15T08:17:32Z</time>
      </trkpt>
      <trkpt lat="44.58485" lon="5.99907">
        <ele>1065.4</ele>
        <time>2023-05-15T08:17:33Z</time>
      </trkpt>
      <trkpt lat="44.58485" lon="5.99907">
        <ele>1065.6</ele>
        <time>2023-05-15T08:17:34Z</time>
      </trkpt>
      <trkpt lat="44.58485" lon="5.99908">
        <ele>1065.6</ele>
        <time>2023-05-15T08:17:35Z</time>
      </trkpt>
      <trkpt lat="44.58485" lon="5.99908">
        <ele>1066</ele>
        <time>2023-05-15T08:17:36Z</time>
      </trkpt>
      <trkpt lat="44.58484" lon="5.99909">
        <ele>1066.2</ele>
        <time>2023-05-15T08:17:37Z</time>
      </trkpt>
      <trkpt lat="44.58484" lon="5.99909">
        <ele>1066.2</ele>
        <time>2023-05-15T08:17:38Z</time>
      </trkpt>
      <trkpt lat="44.58484" lon="5.99909">
        <ele>1066.6</ele>
        <time>2023-05-15T08:17:39Z</time>
      </trkpt>
      <trkpt lat="44.58484" lon="5.99909">
        <ele>1066.6</ele>
        <time>2023-05-15T08:17:40Z</time>
      </trkpt>
      <trkpt lat="44.58484" lon="5.9991">
        <ele>1067</ele>
        <time>2023-05-15T08:17:41Z</time>
      </trkpt>
      <trkpt lat="44.58484" lon="5.9991">
        <ele>1067.6</ele>
        <time>2023-05-15T08:17:44Z</time>
      </trkpt>
      <trkpt lat="44.58484" lon="5.9991">
        <ele>1067.6</ele>
        <time>2023-05-15T08:17:45Z</time>
      </trkpt>
      <trkpt lat="44.58484" lon="5.9991">
        <ele>1067.8</ele>
        <time>2023-05-15T08:17:46Z</time>
      </trkpt>
      <trkpt lat="44.58483" lon="5.9991">
        <ele>1068.8</ele>
        <time>2023-05-15T08:17:54Z</time>
      </trkpt>
      <trkpt lat="44.58483" lon="5.99911">
        <ele>1069.6</ele>
        <time>2023-05-15T08:17:58Z</time>
      </trkpt>
      <trkpt lat="44.58483" lon="5.99911">
        <ele>1070</ele>
        <time>2023-05-15T08:18:00Z</time>
      </trkpt>
      <trkpt lat="44.58483" lon="5.99911">
        <ele>1070.2</ele>
        <time>2023-05-15T08:18:01Z</time>
      </trkpt>
      <trkpt lat="44.58482" lon="5.99914">
        <ele>1070.4</ele>
        <time>2023-05-15T08:18:03Z</time>
      </trkpt>
      <trkpt lat="44.58482" lon="5.99914">
        <ele>1070.6</ele>
        <time>2023-05-15T08:18:04Z</time>
      </trkpt>
      <trkpt lat="44.58481" lon="5.99915">
        <ele>1071</ele>
        <time>2023-05-15T08:18:06Z</time>
      </trkpt>
      <trkpt lat="44.58481" lon="5.99916">
        <ele>1071.2</ele>
        <time>2023-05-15T08:18:07Z</time>
      </trkpt>
      <trkpt lat="44.5848" lon="5.99917">
        <ele>1071.6</ele>
        <time>2023-05-15T08:18:08Z</time>
      </trkpt>
      <trkpt lat="44.58479" lon="5.99918">
        <ele>1071.8</ele>
        <time>2023-05-15T08:18:09Z</time>
      </trkpt>
      <trkpt lat="44.58479" lon="5.9992">
        <ele>1072</ele>
        <time>2023-05-15T08:18:10Z</time>
      </trkpt>
      <trkpt lat="44.58479" lon="5.99921">
        <ele>1072</ele>
        <time>2023-05-15T08:18:11Z</time>
      </trkpt>
      <trkpt lat="44.58479" lon="5.99922">
        <ele>1072</ele>
        <time>2023-05-15T08:18:12Z</time>
      </trkpt>
      <trkpt lat="44.58479" lon="5.99922">
        <ele>1072.4</ele>
        <time>2023-05-15T08:18:13Z</time>
      </trkpt>
      <trkpt lat="44.58479" lon="5.99922">
        <ele>1072.4</ele>
        <time>2023-05-15T08:18:14Z</time>
      </trkpt>
      <trkpt lat="44.58479" lon="5.99922">
        <ele>1072.6</ele>
        <time>2023-05-15T08:18:15Z</time>
      </trkpt>
      <trkpt lat="44.58479" lon="5.99922">
        <ele>1072.8</ele>
        <time>2023-05-15T08:18:16Z</time>
      </trkpt>
      <trkpt lat="44.58478" lon="5.99924">
        <ele>1073</ele>
        <time>2023-05-15T08:18:17Z</time>
      </trkpt>
      <trkpt lat="44.58478" lon="5.99924">
        <ele>1073.2</ele>
        <time>2023-05-15T08:18:18Z</time>
      </trkpt>
      <trkpt lat="44.58478" lon="5.99924">
        <ele>1073.4</ele>
        <time>2023-05-15T08:18:19Z</time>
      </trkpt>
      <trkpt lat="44.58478" lon="5.99924">
        <ele>1073.6</ele>
        <time>2023-05-15T08:18:20Z</time>
      </trkpt>
      <trkpt lat="44.58478" lon="5.99925">
        <ele>1074</ele>
        <time>2023-05-15T08:18:22Z</time>
      </trkpt>
      <trkpt lat="44.58477" lon="5.99927">
        <ele>1074.8</ele>
        <time>2023-05-15T08:18:28Z</time>
      </trkpt>
      <trkpt lat="44.58477" lon="5.99927">
        <ele>1075.2</ele>
        <time>2023-05-15T08:18:29Z</time>
      </trkpt>
      <trkpt lat="44.58477" lon="5.99927">
        <ele>1076.4</ele>
        <time>2023-05-15T08:18:37Z</time>
      </trkpt>
      <trkpt lat="44.58476" lon="5.9993">
        <ele>1077.6</ele>
        <time>2023-05-15T08:18:45Z</time>
      </trkpt>
      <trkpt lat="44.58475" lon="5.99932">
        <ele>1078.2</ele>
        <time>2023-05-15T08:18:47Z</time>
      </trkpt>
      <trkpt lat="44.58473" lon="5.99934">
        <ele>1078.2</ele>
        <time>2023-05-15T08:18:48Z</time>
      </trkpt>
      <trkpt lat="44.58472" lon="5.99935">
        <ele>1078.6</ele>
        <time>2023-05-15T08:18:52Z</time>
      </trkpt>
      <trkpt lat="44.58471" lon="5.99937">
        <ele>1078.8</ele>
        <time>2023-05-15T08:18:53Z</time>
      </trkpt>
      <trkpt lat="44.58471" lon="5.99937">
        <ele>1078.8</ele>
        <time>2023-05-15T08:18:54Z</time>
      </trkpt>
      <trkpt lat="44.58469" lon="5.99938">
        <ele>1078.8</ele>
        <time>2023-05-15T08:18:55Z</time>
      </trkpt>
      <trkpt lat="44.58468" lon="5.9994">
        <ele>1079</ele>
        <time>2023-05-15T08:18:56Z</time>
      </trkpt>
      <trkpt lat="44.58468" lon="5.9994">
        <ele>1079.2</ele>
        <time>2023-05-15T08:18:57Z</time>
      </trkpt>
      <trkpt lat="44.58468" lon="5.9994">
        <ele>1079.4</ele>
        <time>2023-05-15T08:18:58Z</time>
      </trkpt>
      <trkpt lat="44.58468" lon="5.9994">
        <ele>1079.6</ele>
        <time>2023-05-15T08:18:59Z</time>
      </trkpt>
      <trkpt lat="44.58466" lon="5.99942">
        <ele>1079.6</ele>
        <time>2023-05-15T08:19:00Z</time>
      </trkpt>
      <trkpt lat="44.58466" lon="5.99942">
        <ele>1079.8</ele>
        <time>2023-05-15T08:19:01Z</time>
      </trkpt>
      <trkpt lat="44.58465" lon="5.99943">
        <ele>1079.8</ele>
        <time>2023-05-15T08:19:02Z</time>
      </trkpt>
      <trkpt lat="44.58465" lon="5.99944">
        <ele>1079.8</ele>
        <time>2023-05-15T08:19:03Z</time>
      </trkpt>
      <trkpt lat="44.58464" lon="5.99945">
        <ele>1080</ele>
        <time>2023-05-15T08:19:04Z</time>
      </trkpt>
      <trkpt lat="44.58463" lon="5.99947">
        <ele>1080</ele>
        <time>2023-05-15T08:19:05Z</time>
      </trkpt>
      <trkpt lat="44.58461" lon="5.99949">
        <ele>1080</ele>
        <time>2023-05-15T08:19:06Z</time>
      </trkpt>
      <trkpt lat="44.5846" lon="5.9995">
        <ele>1080.2</ele>
        <time>2023-05-15T08:19:07Z</time>
      </trkpt>
      <trkpt lat="44.58459" lon="5.99951">
        <ele>1080.2</ele>
        <time>2023-05-15T08:19:08Z</time>
      </trkpt>
      <trkpt lat="44.58458" lon="5.99951">
        <ele>1080.4</ele>
        <time>2023-05-15T08:19:09Z</time>
      </trkpt>
      <trkpt lat="44.58458" lon="5.99952">
        <ele>1080.8</ele>
        <time>2023-05-15T08:19:11Z</time>
      </trkpt>
      <trkpt lat="44.58457" lon="5.99953">
        <ele>1081</ele>
        <time>2023-05-15T08:19:12Z</time>
      </trkpt>
      <trkpt lat="44.58454" lon="5.99956">
        <ele>1081.2</ele>
        <time>2023-05-15T08:19:13Z</time>
      </trkpt>
      <trkpt lat="44.58451" lon="5.99958">
        <ele>1081.4</ele>
        <time>2023-05-15T08:19:14Z</time>
      </trkpt>
      <trkpt lat="44.58448" lon="5.9996">
        <ele>1081.4</ele>
        <time>2023-05-15T08:19:15Z</time>
      </trkpt>
      <trkpt lat="44.58447" lon="5.99962">
        <ele>1081.6</ele>
        <time>2023-05-15T08:19:16Z</time>
      </trkpt>
      <trkpt lat="44.58446" lon="5.99962">
        <ele>1081.8</ele>
        <time>2023-05-15T08:19:17Z</time>
      </trkpt>
      <trkpt lat="44.58446" lon="5.99962">
        <ele>1082</ele>
        <time>2023-05-15T08:19:18Z</time>
      </trkpt>
      <trkpt lat="44.58446" lon="5.99962">
        <ele>1082.2</ele>
        <time>2023-05-15T08:19:19Z</time>
      </trkpt>
      <trkpt lat="44.58446" lon="5.99962">
        <ele>1082.2</ele>
        <time>2023-05-15T08:19:20Z</time>
      </trkpt>
      <trkpt lat="44.58445" lon="5.99964">
        <ele>1082.4</ele>
        <time>2023-05-15T08:19:21Z</time>
      </trkpt>
      <trkpt lat="44.58445" lon="5.99964">
        <ele>1082.6</ele>
        <time>2023-05-15T08:19:22Z</time>
      </trkpt>
      <trkpt lat="44.58445" lon="5.99964">
        <ele>1082.8</ele>
        <time>2023-05-15T08:19:23Z</time>
      </trkpt>
      <trkpt lat="44.58445" lon="5.99964">
        <ele>1083</ele>
        <time>2023-05-15T08:19:24Z</time>
      </trkpt>
      <trkpt lat="44.58445" lon="5.99964">
        <ele>1083.2</ele>
        <time>2023-05-15T08:19:25Z</time>
      </trkpt>
      <trkpt lat="44.58444" lon="5.99965">
        <ele>1083</ele>
        <time>2023-05-15T08:19:26Z</time>
      </trkpt>
      <trkpt lat="44.58442" lon="5.99967">
        <ele>1083.4</ele>
        <time>2023-05-15T08:19:27Z</time>
      </trkpt>
      <trkpt lat="44.58441" lon="5.99967">
        <ele>1083.4</ele>
        <time>2023-05-15T08:19:28Z</time>
      </trkpt>
      <trkpt lat="44.5844" lon="5.99967">
        <ele>1083.6</ele>
        <time>2023-05-15T08:19:29Z</time>
      </trkpt>
      <trkpt lat="44.5844" lon="5.99967">
        <ele>1084</ele>
        <time>2023-05-15T08:19:30Z</time>
      </trkpt>
      <trkpt lat="44.58439" lon="5.99968">
        <ele>1084.2</ele>
        <time>2023-05-15T08:19:31Z</time>
      </trkpt>
      <trkpt lat="44.58438" lon="5.99967">
        <ele>1084.4</ele>
        <time>2023-05-15T08:19:32Z</time>
      </trkpt>
      <trkpt lat="44.58438" lon="5.99967">
        <ele>1084.4</ele>
        <time>2023-05-15T08:19:33Z</time>
      </trkpt>
      <trkpt lat="44.58437" lon="5.99968">
        <ele>1084.6</ele>
        <time>2023-05-15T08:19:34Z</time>
      </trkpt>
      <trkpt lat="44.58435" lon="5.99969">
        <ele>1084.8</ele>
        <time>2023-05-15T08:19:35Z</time>
      </trkpt>
      <trkpt lat="44.58435" lon="5.99969">
        <ele>1084.8</ele>
        <time>2023-05-15T08:19:36Z</time>
      </trkpt>
      <trkpt lat="44.58434" lon="5.9997">
        <ele>1085</ele>
        <time>2023-05-15T08:19:37Z</time>
      </trkpt>
      <trkpt lat="44.58432" lon="5.99971">
        <ele>1085.2</ele>
        <time>2023-05-15T08:19:38Z</time>
      </trkpt>
      <trkpt lat="44.58431" lon="5.99972">
        <ele>1085.4</ele>
        <time>2023-05-15T08:19:39Z</time>
      </trkpt>
      <trkpt lat="44.5843" lon="5.99975">
        <ele>1085.6</ele>
        <time>2023-05-15T08:19:40Z</time>
      </trkpt>
      <trkpt lat="44.5843" lon="5.99975">
        <ele>1085.8</ele>
        <time>2023-05-15T08:19:41Z</time>
      </trkpt>
      <trkpt lat="44.5843" lon="5.99975">
        <ele>1085.8</ele>
        <time>2023-05-15T08:19:42Z</time>
      </trkpt>
      <trkpt lat="44.58428" lon="5.99977">
        <ele>1086</ele>
        <time>2023-05-15T08:19:45Z</time>
      </trkpt>
      <trkpt lat="44.58428" lon="5.99977">
        <ele>1086.2</ele>
        <time>2023-05-15T08:19:46Z</time>
      </trkpt>
      <trkpt lat="44.58428" lon="5.99977">
        <ele>1086.2</ele>
        <time>2023-05-15T08:19:47Z</time>
      </trkpt>
      <trkpt lat="44.58428" lon="5.99977">
        <ele>1086.4</ele>
        <time>2023-05-15T08:19:48Z</time>
      </trkpt>
      <trkpt lat="44.58425" lon="5.99979">
        <ele>1086.4</ele>
        <time>2023-05-15T08:19:50Z</time>
      </trkpt>
      <trkpt lat="44.58425" lon="5.99979">
        <ele>1086.6</ele>
        <time>2023-05-15T08:19:52Z</time>
      </trkpt>
      <trkpt lat="44.58425" lon="5.99979">
        <ele>1086.8</ele>
        <time>2023-05-15T08:19:53Z</time>
      </trkpt>
      <trkpt lat="44.58425" lon="5.99979">
        <ele>1087</ele>
        <time>2023-05-15T08:19:54Z</time>
      </trkpt>
      <trkpt lat="44.58425" lon="5.99979">
        <ele>1087</ele>
        <time>2023-05-15T08:19:55Z</time>
      </trkpt>
      <trkpt lat="44.58425" lon="5.99979">
        <ele>1087</ele>
        <time>2023-05-15T08:19:56Z</time>
      </trkpt>
      <trkpt lat="44.58425" lon="5.99979">
        <ele>1087.2</ele>
        <time>2023-05-15T08:19:57Z</time>
      </trkpt>
      <trkpt lat="44.58425" lon="5.99979">
        <ele>1087.4</ele>
        <time>2023-05-15T08:19:58Z</time>
      </trkpt>
      <trkpt lat="44.58425" lon="5.99979">
        <ele>1087.4</ele>
        <time>2023-05-15T08:19:59Z</time>
      </trkpt>
      <trkpt lat="44.58425" lon="5.99979">
        <ele>1087.6</ele>
        <time>2023-05-15T08:20:01Z</time>
      </trkpt>
      <trkpt lat="44.58423" lon="5.9998">
        <ele>1087.8</ele>
        <time>2023-05-15T08:20:02Z</time>
      </trkpt>
      <trkpt lat="44.58423" lon="5.9998">
        <ele>1088</ele>
        <time>2023-05-15T08:20:03Z</time>
      </trkpt>
      <trkpt lat="44.58422" lon="5.99982">
        <ele>1088.2</ele>
        <time>2023-05-15T08:20:05Z</time>
      </trkpt>
      <trkpt lat="44.58421" lon="5.99982">
        <ele>1088.2</ele>
        <time>2023-05-15T08:20:06Z</time>
      </trkpt>
      <trkpt lat="44.58421" lon="5.99982">
        <ele>1088.4</ele>
        <time>2023-05-15T08:20:07Z</time>
      </trkpt>
      <trkpt lat="44.58421" lon="5.99982">
        <ele>1089.2</ele>
        <time>2023-05-15T08:20:10Z</time>
      </trkpt>
      <trkpt lat="44.58421" lon="5.99982">
        <ele>1089.4</ele>
        <time>2023-05-15T08:20:11Z</time>
      </trkpt>
      <trkpt lat="44.58421" lon="5.99982">
        <ele>1089.6</ele>
        <time>2023-05-15T08:20:12Z</time>
      </trkpt>
      <trkpt lat="44.58421" lon="5.99982">
        <ele>1090</ele>
        <time>2023-05-15T08:20:14Z</time>
      </trkpt>
      <trkpt lat="44.58421" lon="5.99982">
        <ele>1090.2</ele>
        <time>2023-05-15T08:20:15Z</time>
      </trkpt>
      <trkpt lat="44.58421" lon="5.99982">
        <ele>1090.4</ele>
        <time>2023-05-15T08:20:16Z</time>
      </trkpt>
      <trkpt lat="44.58421" lon="5.99982">
        <ele>1090.6</ele>
        <time>2023-05-15T08:20:17Z</time>
      </trkpt>
      <trkpt lat="44.58421" lon="5.99982">
        <ele>1091</ele>
        <time>2023-05-15T08:20:18Z</time>
      </trkpt>
      <trkpt lat="44.58421" lon="5.99982">
        <ele>1091</ele>
        <time>2023-05-15T08:20:19Z</time>
      </trkpt>
      <trkpt lat="44.58421" lon="5.99982">
        <ele>1091.2</ele>
        <time>2023-05-15T08:20:20Z</time>
      </trkpt>
      <trkpt lat="44.58421" lon="5.99985">
        <ele>1091.4</ele>
        <time>2023-05-15T08:20:21Z</time>
      </trkpt>
      <trkpt lat="44.58418" lon="5.99987">
        <ele>1091.4</ele>
        <time>2023-05-15T08:20:22Z</time>
      </trkpt>
      <trkpt lat="44.58416" lon="5.99989">
        <ele>1091.6</ele>
        <time>2023-05-15T08:20:23Z</time>
      </trkpt>
      <trkpt lat="44.58414" lon="5.9999">
        <ele>1091.8</ele>
        <time>2023-05-15T08:20:24Z</time>
      </trkpt>
      <trkpt lat="44.58413" lon="5.99992">
        <ele>1092</ele>
        <time>2023-05-15T08:20:25Z</time>
      </trkpt>
      <trkpt lat="44.58413" lon="5.99992">
        <ele>1092.2</ele>
        <time>2023-05-15T08:20:26Z</time>
      </trkpt>
      <trkpt lat="44.58411" lon="5.99994">
        <ele>1092.2</ele>
        <time>2023-05-15T08:20:27Z</time>
      </trkpt>
      <trkpt lat="44.58411" lon="5.99996">
        <ele>1092.4</ele>
        <time>2023-05-15T08:20:28Z</time>
      </trkpt>
      <trkpt lat="44.5841" lon="5.99996">
        <ele>1092.4</ele>
        <time>2023-05-15T08:20:29Z</time>
      </trkpt>
      <trkpt lat="44.5841" lon="5.99996">
        <ele>1092.6</ele>
        <time>2023-05-15T08:20:30Z</time>
      </trkpt>
      <trkpt lat="44.5841" lon="5.99996">
        <ele>1092.6</ele>
        <time>2023-05-15T08:20:31Z</time>
      </trkpt>
      <trkpt lat="44.5841" lon="5.99996">
        <ele>1092.8</ele>
        <time>2023-05-15T08:20:32Z</time>
      </trkpt>
      <trkpt lat="44.5841" lon="5.99996">
        <ele>1093</ele>
        <time>2023-05-15T08:20:34Z</time>
      </trkpt>
      <trkpt lat="44.58409" lon="5.99997">
        <ele>1093.2</ele>
        <time>2023-05-15T08:20:35Z</time>
      </trkpt>
      <trkpt lat="44.58408" lon="5.99998">
        <ele>1093.2</ele>
        <time>2023-05-15T08:20:36Z</time>
      </trkpt>
      <trkpt lat="44.58406" lon="5.99998">
        <ele>1093.4</ele>
        <time>2023-05-15T08:20:37Z</time>
      </trkpt>
      <trkpt lat="44.58405" lon="5.99999">
        <ele>1093.4</ele>
        <time>2023-05-15T08:20:38Z</time>
      </trkpt>
      <trkpt lat="44.58405" lon="5.99999">
        <ele>1093.4</ele>
        <time>2023-05-15T08:20:39Z</time>
      </trkpt>
      <trkpt lat="44.58405" lon="5.99999">
        <ele>1093.6</ele>
        <time>2023-05-15T08:20:40Z</time>
      </trkpt>
      <trkpt lat="44.58405" lon="5.99999">
        <ele>1093.6</ele>
        <time>2023-05-15T08:20:41Z</time>
      </trkpt>
      <trkpt lat="44.58405" lon="5.99999">
        <ele>1093.6</ele>
        <time>2023-05-15T08:20:42Z</time>
      </trkpt>
      <trkpt lat="44.58405" lon="5.99999">
        <ele>1093.8</ele>
        <time>2023-05-15T08:20:43Z</time>
      </trkpt>
      <trkpt lat="44.58405" lon="5.99999">
        <ele>1094.2</ele>
        <time>2023-05-15T08:20:44Z</time>
      </trkpt>
      <trkpt lat="44.58405" lon="5.99999">
        <ele>1094.4</ele>
        <time>2023-05-15T08:20:45Z</time>
      </trkpt>
      <trkpt lat="44.58405" lon="5.99999">
        <ele>1094.4</ele>
        <time>2023-05-15T08:20:46Z</time>
      </trkpt>
      <trkpt lat="44.58405" lon="5.99999">
        <ele>1094.4</ele>
        <time>2023-05-15T08:20:47Z</time>
      </trkpt>
      <trkpt lat="44.58405" lon="5.99999">
        <ele>1094.8</ele>
        <time>2023-05-15T08:20:48Z</time>
      </trkpt>
      <trkpt lat="44.58405" lon="5.99999">
        <ele>1094.8</ele>
        <time>2023-05-15T08:20:49Z</time>
      </trkpt>
      <trkpt lat="44.58403" lon="6">
        <ele>1095</ele>
        <time>2023-05-15T08:20:50Z</time>
      </trkpt>
      <trkpt lat="44.58401" lon="6.00003">
        <ele>1095.4</ele>
        <time>2023-05-15T08:20:51Z</time>
      </trkpt>
      <trkpt lat="44.584" lon="6.00002">
        <ele>1095.4</ele>
        <time>2023-05-15T08:20:52Z</time>
      </trkpt>
      <trkpt lat="44.58399" lon="6.00007">
        <ele>1095.6</ele>
        <time>2023-05-15T08:20:53Z</time>
      </trkpt>
      <trkpt lat="44.58399" lon="6.00008">
        <ele>1095.8</ele>
        <time>2023-05-15T08:20:54Z</time>
      </trkpt>
      <trkpt lat="44.58398" lon="6.0001">
        <ele>1096</ele>
        <time>2023-05-15T08:20:55Z</time>
      </trkpt>
      <trkpt lat="44.58398" lon="6.0001">
        <ele>1096.2</ele>
        <time>2023-05-15T08:20:56Z</time>
      </trkpt>
      <trkpt lat="44.58398" lon="6.0001">
        <ele>1096.4</ele>
        <time>2023-05-15T08:20:57Z</time>
      </trkpt>
      <trkpt lat="44.58398" lon="6.0001">
        <ele>1096.6</ele>
        <time>2023-05-15T08:20:58Z</time>
      </trkpt>
      <trkpt lat="44.58398" lon="6.0001">
        <ele>1096.8</ele>
        <time>2023-05-15T08:20:59Z</time>
      </trkpt>
      <trkpt lat="44.58396" lon="6.00012">
        <ele>1097</ele>
        <time>2023-05-15T08:21:00Z</time>
      </trkpt>
      <trkpt lat="44.58394" lon="6.00012">
        <ele>1097.2</ele>
        <time>2023-05-15T08:21:01Z</time>
      </trkpt>
      <trkpt lat="44.58392" lon="6.00013">
        <ele>1097.2</ele>
        <time>2023-05-15T08:21:02Z</time>
      </trkpt>
      <trkpt lat="44.58392" lon="6.00013">
        <ele>1097.4</ele>
        <time>2023-05-15T08:21:03Z</time>
      </trkpt>
      <trkpt lat="44.58392" lon="6.00013">
        <ele>1097.4</ele>
        <time>2023-05-15T08:21:04Z</time>
      </trkpt>
      <trkpt lat="44.58392" lon="6.00013">
        <ele>1097.4</ele>
        <time>2023-05-15T08:21:05Z</time>
      </trkpt>
      <trkpt lat="44.5839" lon="6.00015">
        <ele>1097.6</ele>
        <time>2023-05-15T08:21:06Z</time>
      </trkpt>
      <trkpt lat="44.5839" lon="6.00015">
        <ele>1097.6</ele>
        <time>2023-05-15T08:21:07Z</time>
      </trkpt>
      <trkpt lat="44.58386" lon="6.00017">
        <ele>1097.6</ele>
        <time>2023-05-15T08:21:08Z</time>
      </trkpt>
      <trkpt lat="44.58385" lon="6.00018">
        <ele>1097.8</ele>
        <time>2023-05-15T08:21:09Z</time>
      </trkpt>
      <trkpt lat="44.58382" lon="6.00019">
        <ele>1097.8</ele>
        <time>2023-05-15T08:21:10Z</time>
      </trkpt>
      <trkpt lat="44.58381" lon="6.0002">
        <ele>1098</ele>
        <time>2023-05-15T08:21:11Z</time>
      </trkpt>
      <trkpt lat="44.58381" lon="6.00021">
        <ele>1098</ele>
        <time>2023-05-15T08:21:12Z</time>
      </trkpt>
      <trkpt lat="44.58381" lon="6.00021">
        <ele>1098.2</ele>
        <time>2023-05-15T08:21:13Z</time>
      </trkpt>
      <trkpt lat="44.58381" lon="6.00021">
        <ele>1098.2</ele>
        <time>2023-05-15T08:21:14Z</time>
      </trkpt>
      <trkpt lat="44.58381" lon="6.00021">
        <ele>1098.4</ele>
        <time>2023-05-15T08:21:15Z</time>
      </trkpt>
      <trkpt lat="44.58379" lon="6.00021">
        <ele>1098.6</ele>
        <time>2023-05-15T08:21:16Z</time>
      </trkpt>
      <trkpt lat="44.58379" lon="6.00021">
        <ele>1098.6</ele>
        <time>2023-05-15T08:21:17Z</time>
      </trkpt>
      <trkpt lat="44.58379" lon="6.00021">
        <ele>1099</ele>
        <time>2023-05-15T08:21:18Z</time>
      </trkpt>
      <trkpt lat="44.58377" lon="6.00024">
        <ele>1099.4</ele>
        <time>2023-05-15T08:21:20Z</time>
      </trkpt>
      <trkpt lat="44.58377" lon="6.00024">
        <ele>1099.6</ele>
        <time>2023-05-15T08:21:21Z</time>
      </trkpt>
      <trkpt lat="44.58377" lon="6.00026">
        <ele>1099.8</ele>
        <time>2023-05-15T08:21:22Z</time>
      </trkpt>
      <trkpt lat="44.58376" lon="6.00026">
        <ele>1099.8</ele>
        <time>2023-05-15T08:21:23Z</time>
      </trkpt>
      <trkpt lat="44.58376" lon="6.00026">
        <ele>1100</ele>
        <time>2023-05-15T08:21:24Z</time>
      </trkpt>
      <trkpt lat="44.58376" lon="6.00026">
        <ele>1100.2</ele>
        <time>2023-05-15T08:21:28Z</time>
      </trkpt>
      <trkpt lat="44.58376" lon="6.00026">
        <ele>1100.6</ele>
        <time>2023-05-15T08:21:29Z</time>
      </trkpt>
      <trkpt lat="44.58375" lon="6.00028">
        <ele>1100.6</ele>
        <time>2023-05-15T08:21:30Z</time>
      </trkpt>
      <trkpt lat="44.58375" lon="6.00027">
        <ele>1100.8</ele>
        <time>2023-05-15T08:21:31Z</time>
      </trkpt>
      <trkpt lat="44.58374" lon="6.00028">
        <ele>1101</ele>
        <time>2023-05-15T08:21:32Z</time>
      </trkpt>
      <trkpt lat="44.58371" lon="6.00028">
        <ele>1101</ele>
        <time>2023-05-15T08:21:33Z</time>
      </trkpt>
      <trkpt lat="44.58369" lon="6.00027">
        <ele>1101.4</ele>
        <time>2023-05-15T08:21:34Z</time>
      </trkpt>
      <trkpt lat="44.58367" lon="6.00029">
        <ele>1101.6</ele>
        <time>2023-05-15T08:21:35Z</time>
      </trkpt>
      <trkpt lat="44.58366" lon="6.00029">
        <ele>1101.8</ele>
        <time>2023-05-15T08:21:36Z</time>
      </trkpt>
      <trkpt lat="44.58365" lon="6.0003">
        <ele>1101.8</ele>
        <time>2023-05-15T08:21:37Z</time>
      </trkpt>
      <trkpt lat="44.58365" lon="6.0003">
        <ele>1102</ele>
        <time>2023-05-15T08:21:38Z</time>
      </trkpt>
      <trkpt lat="44.58365" lon="6.00031">
        <ele>1102.2</ele>
        <time>2023-05-15T08:21:39Z</time>
      </trkpt>
      <trkpt lat="44.58364" lon="6.00031">
        <ele>1102.2</ele>
        <time>2023-05-15T08:21:40Z</time>
      </trkpt>
      <trkpt lat="44.58364" lon="6.00031">
        <ele>1102.4</ele>
        <time>2023-05-15T08:21:41Z</time>
      </trkpt>
      <trkpt lat="44.58364" lon="6.00031">
        <ele>1102.6</ele>
        <time>2023-05-15T08:21:43Z</time>
      </trkpt>
      <trkpt lat="44.58364" lon="6.00031">
        <ele>1102.6</ele>
        <time>2023-05-15T08:21:44Z</time>
      </trkpt>
      <trkpt lat="44.58364" lon="6.00031">
        <ele>1103</ele>
        <time>2023-05-15T08:21:47Z</time>
      </trkpt>
      <trkpt lat="44.58363" lon="6.00032">
        <ele>1103.2</ele>
        <time>2023-05-15T08:21:50Z</time>
      </trkpt>
      <trkpt lat="44.58363" lon="6.00031">
        <ele>1103.2</ele>
        <time>2023-05-15T08:21:52Z</time>
      </trkpt>
      <trkpt lat="44.58362" lon="6.00034">
        <ele>1103.2</ele>
        <time>2023-05-15T08:21:54Z</time>
      </trkpt>
      <trkpt lat="44.58361" lon="6.00035">
        <ele>1103.4</ele>
        <time>2023-05-15T08:21:55Z</time>
      </trkpt>
      <trkpt lat="44.5836" lon="6.00037">
        <ele>1103.4</ele>
        <time>2023-05-15T08:21:56Z</time>
      </trkpt>
      <trkpt lat="44.58359" lon="6.00038">
        <ele>1103.6</ele>
        <time>2023-05-15T08:21:57Z</time>
      </trkpt>
      <trkpt lat="44.58357" lon="6.0004">
        <ele>1103.4</ele>
        <time>2023-05-15T08:21:58Z</time>
      </trkpt>
      <trkpt lat="44.58355" lon="6.00043">
        <ele>1103.6</ele>
        <time>2023-05-15T08:21:59Z</time>
      </trkpt>
      <trkpt lat="44.58353" lon="6.00045">
        <ele>1103.6</ele>
        <time>2023-05-15T08:22:00Z</time>
      </trkpt>
      <trkpt lat="44.58353" lon="6.00048">
        <ele>1104</ele>
        <time>2023-05-15T08:22:01Z</time>
      </trkpt>
      <trkpt lat="44.58352" lon="6.00049">
        <ele>1104</ele>
        <time>2023-05-15T08:22:02Z</time>
      </trkpt>
      <trkpt lat="44.58351" lon="6.00052">
        <ele>1104.4</ele>
        <time>2023-05-15T08:22:04Z</time>
      </trkpt>
      <trkpt lat="44.58351" lon="6.00052">
        <ele>1104.4</ele>
        <time>2023-05-15T08:22:05Z</time>
      </trkpt>
      <trkpt lat="44.58351" lon="6.00052">
        <ele>1104.8</ele>
        <time>2023-05-15T08:22:06Z</time>
      </trkpt>
      <trkpt lat="44.58348" lon="6.00055">
        <ele>1105.2</ele>
        <time>2023-05-15T08:22:10Z</time>
      </trkpt>
      <trkpt lat="44.58348" lon="6.00056">
        <ele>1105.4</ele>
        <time>2023-05-15T08:22:11Z</time>
      </trkpt>
      <trkpt lat="44.58344" lon="6.0006">
        <ele>1105.8</ele>
        <time>2023-05-15T08:22:14Z</time>
      </trkpt>
      <trkpt lat="44.58344" lon="6.0006">
        <ele>1106</ele>
        <time>2023-05-15T08:22:15Z</time>
      </trkpt>
      <trkpt lat="44.58344" lon="6.00062">
        <ele>1106.2</ele>
        <time>2023-05-15T08:22:16Z</time>
      </trkpt>
      <trkpt lat="44.58344" lon="6.00062">
        <ele>1106.4</ele>
        <time>2023-05-15T08:22:17Z</time>
      </trkpt>
      <trkpt lat="44.58344" lon="6.00064">
        <ele>1106.6</ele>
        <time>2023-05-15T08:22:18Z</time>
      </trkpt>
      <trkpt lat="44.58344" lon="6.00065">
        <ele>1106.8</ele>
        <time>2023-05-15T08:22:19Z</time>
      </trkpt>
      <trkpt lat="44.58344" lon="6.00067">
        <ele>1107</ele>
        <time>2023-05-15T08:22:20Z</time>
      </trkpt>
      <trkpt lat="44.58343" lon="6.00069">
        <ele>1107</ele>
        <time>2023-05-15T08:22:21Z</time>
      </trkpt>
      <trkpt lat="44.58341" lon="6.00071">
        <ele>1107.2</ele>
        <time>2023-05-15T08:22:22Z</time>
      </trkpt>
      <trkpt lat="44.58341" lon="6.00072">
        <ele>1107.2</ele>
        <time>2023-05-15T08:22:23Z</time>
      </trkpt>
      <trkpt lat="44.58341" lon="6.00072">
        <ele>1107.4</ele>
        <time>2023-05-15T08:22:24Z</time>
      </trkpt>
      <trkpt lat="44.58341" lon="6.00073">
        <ele>1107.6</ele>
        <time>2023-05-15T08:22:25Z</time>
      </trkpt>
      <trkpt lat="44.5834" lon="6.00074">
        <ele>1107.8</ele>
        <time>2023-05-15T08:22:26Z</time>
      </trkpt>
      <trkpt lat="44.5834" lon="6.00074">
        <ele>1107.8</ele>
        <time>2023-05-15T08:22:27Z</time>
      </trkpt>
      <trkpt lat="44.5834" lon="6.00075">
        <ele>1108</ele>
        <time>2023-05-15T08:22:28Z</time>
      </trkpt>
      <trkpt lat="44.5834" lon="6.00075">
        <ele>1108.2</ele>
        <time>2023-05-15T08:22:29Z</time>
      </trkpt>
      <trkpt lat="44.5834" lon="6.00076">
        <ele>1108.4</ele>
        <time>2023-05-15T08:22:31Z</time>
      </trkpt>
      <trkpt lat="44.58339" lon="6.00077">
        <ele>1108.6</ele>
        <time>2023-05-15T08:22:32Z</time>
      </trkpt>
      <trkpt lat="44.58339" lon="6.00077">
        <ele>1108.6</ele>
        <time>2023-05-15T08:22:33Z</time>
      </trkpt>
      <trkpt lat="44.58339" lon="6.00078">
        <ele>1108.6</ele>
        <time>2023-05-15T08:22:34Z</time>
      </trkpt>
      <trkpt lat="44.58339" lon="6.00078">
        <ele>1108.6</ele>
        <time>2023-05-15T08:22:35Z</time>
      </trkpt>
      <trkpt lat="44.58339" lon="6.00079">
        <ele>1108.8</ele>
        <time>2023-05-15T08:22:36Z</time>
      </trkpt>
      <trkpt lat="44.58338" lon="6.0008">
        <ele>1108.8</ele>
        <time>2023-05-15T08:22:37Z</time>
      </trkpt>
      <trkpt lat="44.58338" lon="6.0008">
        <ele>1109</ele>
        <time>2023-05-15T08:22:38Z</time>
      </trkpt>
      <trkpt lat="44.58338" lon="6.00081">
        <ele>1109</ele>
        <time>2023-05-15T08:22:39Z</time>
      </trkpt>
      <trkpt lat="44.58338" lon="6.00081">
        <ele>1109.2</ele>
        <time>2023-05-15T08:22:40Z</time>
      </trkpt>
      <trkpt lat="44.58338" lon="6.00082">
        <ele>1109.2</ele>
        <time>2023-05-15T08:22:41Z</time>
      </trkpt>
      <trkpt lat="44.58337" lon="6.00083">
        <ele>1109.8</ele>
        <time>2023-05-15T08:22:43Z</time>
      </trkpt>
      <trkpt lat="44.58337" lon="6.00083">
        <ele>1109.8</ele>
        <time>2023-05-15T08:22:44Z</time>
      </trkpt>
      <trkpt lat="44.58337" lon="6.00084">
        <ele>1110.2</ele>
        <time>2023-05-15T08:22:45Z</time>
      </trkpt>
      <trkpt lat="44.58337" lon="6.00084">
        <ele>1110.2</ele>
        <time>2023-05-15T08:22:46Z</time>
      </trkpt>
      <trkpt lat="44.58337" lon="6.00085">
        <ele>1110.4</ele>
        <time>2023-05-15T08:22:47Z</time>
      </trkpt>
      <trkpt lat="44.58336" lon="6.00086">
        <ele>1110.4</ele>
        <time>2023-05-15T08:22:48Z</time>
      </trkpt>
      <trkpt lat="44.58336" lon="6.00086">
        <ele>1110.4</ele>
        <time>2023-05-15T08:22:49Z</time>
      </trkpt>
      <trkpt lat="44.58336" lon="6.00087">
        <ele>1110.6</ele>
        <time>2023-05-15T08:22:50Z</time>
      </trkpt>
      <trkpt lat="44.58336" lon="6.00087">
        <ele>1110.8</ele>
        <time>2023-05-15T08:22:51Z</time>
      </trkpt>
      <trkpt lat="44.58336" lon="6.00088">
        <ele>1111</ele>
        <time>2023-05-15T08:22:52Z</time>
      </trkpt>
      <trkpt lat="44.58335" lon="6.00089">
        <ele>1111</ele>
        <time>2023-05-15T08:22:53Z</time>
      </trkpt>
      <trkpt lat="44.58335" lon="6.00089">
        <ele>1111.2</ele>
        <time>2023-05-15T08:22:54Z</time>
      </trkpt>
      <trkpt lat="44.58335" lon="6.0009">
        <ele>1111.8</ele>
        <time>2023-05-15T08:22:58Z</time>
      </trkpt>
      <trkpt lat="44.58335" lon="6.0009">
        <ele>1112.2</ele>
        <time>2023-05-15T08:23:00Z</time>
      </trkpt>
      <trkpt lat="44.58335" lon="6.00091">
        <ele>1112.2</ele>
        <time>2023-05-15T08:23:01Z</time>
      </trkpt>
      <trkpt lat="44.58334" lon="6.00092">
        <ele>1112.4</ele>
        <time>2023-05-15T08:23:02Z</time>
      </trkpt>
      <trkpt lat="44.58334" lon="6.00092">
        <ele>1112.8</ele>
        <time>2023-05-15T08:23:03Z</time>
      </trkpt>
      <trkpt lat="44.58334" lon="6.00093">
        <ele>1112.8</ele>
        <time>2023-05-15T08:23:04Z</time>
      </trkpt>
      <trkpt lat="44.58334" lon="6.00093">
        <ele>1113</ele>
        <time>2023-05-15T08:23:05Z</time>
      </trkpt>
      <trkpt lat="44.58334" lon="6.00094">
        <ele>1113</ele>
        <time>2023-05-15T08:23:06Z</time>
      </trkpt>
      <trkpt lat="44.58333" lon="6.00095">
        <ele>1113.4</ele>
        <time>2023-05-15T08:23:07Z</time>
      </trkpt>
      <trkpt lat="44.58333" lon="6.00095">
        <ele>1113.6</ele>
        <time>2023-05-15T08:23:08Z</time>
      </trkpt>
      <trkpt lat="44.58333" lon="6.00096">
        <ele>1114</ele>
        <time>2023-05-15T08:23:10Z</time>
      </trkpt>
      <trkpt lat="44.58333" lon="6.00097">
        <ele>1114</ele>
        <time>2023-05-15T08:23:11Z</time>
      </trkpt>
      <trkpt lat="44.58333" lon="6.00097">
        <ele>1114.4</ele>
        <time>2023-05-15T08:23:12Z</time>
      </trkpt>
      <trkpt lat="44.58332" lon="6.00098">
        <ele>1114.4</ele>
        <time>2023-05-15T08:23:13Z</time>
      </trkpt>
      <trkpt lat="44.58332" lon="6.00098">
        <ele>1114.6</ele>
        <time>2023-05-15T08:23:14Z</time>
      </trkpt>
      <trkpt lat="44.58332" lon="6.00099">
        <ele>1114.6</ele>
        <time>2023-05-15T08:23:15Z</time>
      </trkpt>
      <trkpt lat="44.58332" lon="6.001">
        <ele>1114.8</ele>
        <time>2023-05-15T08:23:16Z</time>
      </trkpt>
      <trkpt lat="44.58332" lon="6.001">
        <ele>1115</ele>
        <time>2023-05-15T08:23:17Z</time>
      </trkpt>
      <trkpt lat="44.58331" lon="6.00101">
        <ele>1115.2</ele>
        <time>2023-05-15T08:23:18Z</time>
      </trkpt>
      <trkpt lat="44.58331" lon="6.00101">
        <ele>1115.4</ele>
        <time>2023-05-15T08:23:19Z</time>
      </trkpt>
      <trkpt lat="44.58331" lon="6.00102">
        <ele>1115.6</ele>
        <time>2023-05-15T08:23:20Z</time>
      </trkpt>
      <trkpt lat="44.58331" lon="6.00103">
        <ele>1115.8</ele>
        <time>2023-05-15T08:23:21Z</time>
      </trkpt>
      <trkpt lat="44.58331" lon="6.00103">
        <ele>1116</ele>
        <time>2023-05-15T08:23:22Z</time>
      </trkpt>
      <trkpt lat="44.5833" lon="6.00104">
        <ele>1116</ele>
        <time>2023-05-15T08:23:23Z</time>
      </trkpt>
      <trkpt lat="44.5833" lon="6.00104">
        <ele>1116.2</ele>
        <time>2023-05-15T08:23:24Z</time>
      </trkpt>
      <trkpt lat="44.5833" lon="6.00105">
        <ele>1116.4</ele>
        <time>2023-05-15T08:23:25Z</time>
      </trkpt>
      <trkpt lat="44.5833" lon="6.00106">
        <ele>1116.6</ele>
        <time>2023-05-15T08:23:26Z</time>
      </trkpt>
      <trkpt lat="44.5833" lon="6.00106">
        <ele>1116.6</ele>
        <time>2023-05-15T08:23:27Z</time>
      </trkpt>
      <trkpt lat="44.58329" lon="6.00107">
        <ele>1116.8</ele>
        <time>2023-05-15T08:23:28Z</time>
      </trkpt>
      <trkpt lat="44.58329" lon="6.00107">
        <ele>1116.8</ele>
        <time>2023-05-15T08:23:29Z</time>
      </trkpt>
      <trkpt lat="44.58329" lon="6.00108">
        <ele>1117</ele>
        <time>2023-05-15T08:23:30Z</time>
      </trkpt>
      <trkpt lat="44.58329" lon="6.00109">
        <ele>1117</ele>
        <time>2023-05-15T08:23:31Z</time>
      </trkpt>
      <trkpt lat="44.58329" lon="6.00109">
        <ele>1117.2</ele>
        <time>2023-05-15T08:23:32Z</time>
      </trkpt>
      <trkpt lat="44.58328" lon="6.0011">
        <ele>1117.4</ele>
        <time>2023-05-15T08:23:33Z</time>
      </trkpt>
      <trkpt lat="44.58328" lon="6.0011">
        <ele>1117.4</ele>
        <time>2023-05-15T08:23:34Z</time>
      </trkpt>
      <trkpt lat="44.58328" lon="6.00111">
        <ele>1117.4</ele>
        <time>2023-05-15T08:23:35Z</time>
      </trkpt>
      <trkpt lat="44.58326" lon="6.00114">
        <ele>1117.6</ele>
        <time>2023-05-15T08:23:36Z</time>
      </trkpt>
      <trkpt lat="44.58327" lon="6.00114">
        <ele>1117.8</ele>
        <time>2023-05-15T08:23:37Z</time>
      </trkpt>
      <trkpt lat="44.58327" lon="6.00114">
        <ele>1117.8</ele>
        <time>2023-05-15T08:23:38Z</time>
      </trkpt>
      <trkpt lat="44.58327" lon="6.00114">
        <ele>1118</ele>
        <time>2023-05-15T08:23:39Z</time>
      </trkpt>
      <trkpt lat="44.58327" lon="6.00114">
        <ele>1118.2</ele>
        <time>2023-05-15T08:23:40Z</time>
      </trkpt>
      <trkpt lat="44.58327" lon="6.00114">
        <ele>1118.2</ele>
        <time>2023-05-15T08:23:41Z</time>
      </trkpt>
      <trkpt lat="44.58327" lon="6.00114">
        <ele>1118.4</ele>
        <time>2023-05-15T08:23:42Z</time>
      </trkpt>
      <trkpt lat="44.58326" lon="6.00115">
        <ele>1118.6</ele>
        <time>2023-05-15T08:23:43Z</time>
      </trkpt>
      <trkpt lat="44.58326" lon="6.00116">
        <ele>1118.8</ele>
        <time>2023-05-15T08:23:44Z</time>
      </trkpt>
      <trkpt lat="44.58326" lon="6.00116">
        <ele>1119</ele>
        <time>2023-05-15T08:23:45Z</time>
      </trkpt>
      <trkpt lat="44.58326" lon="6.00116">
        <ele>1119.2</ele>
        <time>2023-05-15T08:23:46Z</time>
      </trkpt>
      <trkpt lat="44.58326" lon="6.00116">
        <ele>1119.2</ele>
        <time>2023-05-15T08:23:47Z</time>
      </trkpt>
      <trkpt lat="44.58326" lon="6.00116">
        <ele>1119.6</ele>
        <time>2023-05-15T08:23:48Z</time>
      </trkpt>
      <trkpt lat="44.58326" lon="6.00116">
        <ele>1119.8</ele>
        <time>2023-05-15T08:23:49Z</time>
      </trkpt>
      <trkpt lat="44.58326" lon="6.00116">
        <ele>1120</ele>
        <time>2023-05-15T08:23:50Z</time>
      </trkpt>
      <trkpt lat="44.58327" lon="6.00119">
        <ele>1120.2</ele>
        <time>2023-05-15T08:23:51Z</time>
      </trkpt>
      <trkpt lat="44.58327" lon="6.00119">
        <ele>1120.2</ele>
        <time>2023-05-15T08:23:52Z</time>
      </trkpt>
      <trkpt lat="44.58327" lon="6.00119">
        <ele>1120.4</ele>
        <time>2023-05-15T08:23:53Z</time>
      </trkpt>
      <trkpt lat="44.58327" lon="6.00119">
        <ele>1120.2</ele>
        <time>2023-05-15T08:23:54Z</time>
      </trkpt>
      <trkpt lat="44.58327" lon="6.00119">
        <ele>1120.4</ele>
        <time>2023-05-15T08:23:55Z</time>
      </trkpt>
      <trkpt lat="44.58327" lon="6.00119">
        <ele>1120.6</ele>
        <time>2023-05-15T08:23:56Z</time>
      </trkpt>
      <trkpt lat="44.58327" lon="6.00119">
        <ele>1120.6</ele>
        <time>2023-05-15T08:23:57Z</time>
      </trkpt>
      <trkpt lat="44.58327" lon="6.00119">
        <ele>1120.8</ele>
        <time>2023-05-15T08:23:58Z</time>
      </trkpt>
      <trkpt lat="44.58327" lon="6.00119">
        <ele>1120.8</ele>
        <time>2023-05-15T08:23:59Z</time>
      </trkpt>
      <trkpt lat="44.58327" lon="6.00119">
        <ele>1120.8</ele>
        <time>2023-05-15T08:24:00Z</time>
      </trkpt>
      <trkpt lat="44.58327" lon="6.00119">
        <ele>1121</ele>
        <time>2023-05-15T08:24:01Z</time>
      </trkpt>
      <trkpt lat="44.58327" lon="6.00119">
        <ele>1121.2</ele>
        <time>2023-05-15T08:24:02Z</time>
      </trkpt>
      <trkpt lat="44.58327" lon="6.00119">
        <ele>1121.2</ele>
        <time>2023-05-15T08:24:03Z</time>
      </trkpt>
      <trkpt lat="44.58327" lon="6.00119">
        <ele>1121.2</ele>
        <time>2023-05-15T08:24:04Z</time>
      </trkpt>
      <trkpt lat="44.58327" lon="6.00119">
        <ele>1121.4</ele>
        <time>2023-05-15T08:24:05Z</time>
      </trkpt>
      <trkpt lat="44.58327" lon="6.00119">
        <ele>1121.6</ele>
        <time>2023-05-15T08:24:06Z</time>
      </trkpt>
      <trkpt lat="44.58327" lon="6.00119">
        <ele>1121.8</ele>
        <time>2023-05-15T08:24:07Z</time>
      </trkpt>
      <trkpt lat="44.58327" lon="6.00119">
        <ele>1122.2</ele>
        <time>2023-05-15T08:24:10Z</time>
      </trkpt>
      <trkpt lat="44.58326" lon="6.00125">
        <ele>1122.6</ele>
        <time>2023-05-15T08:24:12Z</time>
      </trkpt>
      <trkpt lat="44.58326" lon="6.00127">
        <ele>1122.8</ele>
        <time>2023-05-15T08:24:13Z</time>
      </trkpt>
      <trkpt lat="44.58325" lon="6.00127">
        <ele>1123</ele>
        <time>2023-05-15T08:24:14Z</time>
      </trkpt>
      <trkpt lat="44.58325" lon="6.00127">
        <ele>1123.2</ele>
        <time>2023-05-15T08:24:15Z</time>
      </trkpt>
      <trkpt lat="44.58325" lon="6.00129">
        <ele>1123.2</ele>
        <time>2023-05-15T08:24:16Z</time>
      </trkpt>
      <trkpt lat="44.58325" lon="6.00129">
        <ele>1123.4</ele>
        <time>2023-05-15T08:24:17Z</time>
      </trkpt>
      <trkpt lat="44.58325" lon="6.00129">
        <ele>1123.6</ele>
        <time>2023-05-15T08:24:18Z</time>
      </trkpt>
      <trkpt lat="44.58325" lon="6.00129">
        <ele>1123.6</ele>
        <time>2023-05-15T08:24:19Z</time>
      </trkpt>
      <trkpt lat="44.58325" lon="6.00129">
        <ele>1123.8</ele>
        <time>2023-05-15T08:24:20Z</time>
      </trkpt>
      <trkpt lat="44.58325" lon="6.00129">
        <ele>1123.8</ele>
        <time>2023-05-15T08:24:21Z</time>
      </trkpt>
      <trkpt lat="44.58325" lon="6.00129">
        <ele>1124</ele>
        <time>2023-05-15T08:24:22Z</time>
      </trkpt>
      <trkpt lat="44.58325" lon="6.00129">
        <ele>1124.2</ele>
        <time>2023-05-15T08:24:23Z</time>
      </trkpt>
      <trkpt lat="44.58325" lon="6.00129">
        <ele>1124.2</ele>
        <time>2023-05-15T08:24:24Z</time>
      </trkpt>
      <trkpt lat="44.58325" lon="6.00129">
        <ele>1124.4</ele>
        <time>2023-05-15T08:24:25Z</time>
      </trkpt>
      <trkpt lat="44.58326" lon="6.00131">
        <ele>1124.8</ele>
        <time>2023-05-15T08:24:28Z</time>
      </trkpt>
      <trkpt lat="44.58326" lon="6.00131">
        <ele>1125</ele>
        <time>2023-05-15T08:24:29Z</time>
      </trkpt>
      <trkpt lat="44.58326" lon="6.00131">
        <ele>1125.2</ele>
        <time>2023-05-15T08:24:30Z</time>
      </trkpt>
      <trkpt lat="44.58326" lon="6.00133">
        <ele>1125.2</ele>
        <time>2023-05-15T08:24:31Z</time>
      </trkpt>
      <trkpt lat="44.58325" lon="6.00133">
        <ele>1125.4</ele>
        <time>2023-05-15T08:24:32Z</time>
      </trkpt>
      <trkpt lat="44.58325" lon="6.00133">
        <ele>1125.6</ele>
        <time>2023-05-15T08:24:33Z</time>
      </trkpt>
      <trkpt lat="44.58325" lon="6.00133">
        <ele>1126</ele>
        <time>2023-05-15T08:24:34Z</time>
      </trkpt>
      <trkpt lat="44.58325" lon="6.00133">
        <ele>1126</ele>
        <time>2023-05-15T08:24:35Z</time>
      </trkpt>
      <trkpt lat="44.58325" lon="6.00133">
        <ele>1126.4</ele>
        <time>2023-05-15T08:24:36Z</time>
      </trkpt>
      <trkpt lat="44.58325" lon="6.00133">
        <ele>1126.6</ele>
        <time>2023-05-15T08:24:38Z</time>
      </trkpt>
      <trkpt lat="44.58325" lon="6.00133">
        <ele>1127</ele>
        <time>2023-05-15T08:24:39Z</time>
      </trkpt>
      <trkpt lat="44.58325" lon="6.00133">
        <ele>1127</ele>
        <time>2023-05-15T08:24:40Z</time>
      </trkpt>
      <trkpt lat="44.58325" lon="6.00133">
        <ele>1127.2</ele>
        <time>2023-05-15T08:24:41Z</time>
      </trkpt>
      <trkpt lat="44.58325" lon="6.00133">
        <ele>1127.2</ele>
        <time>2023-05-15T08:24:42Z</time>
      </trkpt>
      <trkpt lat="44.58324" lon="6.00134">
        <ele>1127.4</ele>
        <time>2023-05-15T08:24:43Z</time>
      </trkpt>
      <trkpt lat="44.58324" lon="6.00134">
        <ele>1127.6</ele>
        <time>2023-05-15T08:24:44Z</time>
      </trkpt>
      <trkpt lat="44.58324" lon="6.00134">
        <ele>1127.8</ele>
        <time>2023-05-15T08:24:45Z</time>
      </trkpt>
      <trkpt lat="44.58324" lon="6.00134">
        <ele>1128</ele>
        <time>2023-05-15T08:24:46Z</time>
      </trkpt>
      <trkpt lat="44.58324" lon="6.00134">
        <ele>1128.2</ele>
        <time>2023-05-15T08:24:47Z</time>
      </trkpt>
      <trkpt lat="44.58324" lon="6.00134">
        <ele>1128.2</ele>
        <time>2023-05-15T08:24:48Z</time>
      </trkpt>
      <trkpt lat="44.58324" lon="6.00134">
        <ele>1128.4</ele>
        <time>2023-05-15T08:24:50Z</time>
      </trkpt>
      <trkpt lat="44.58324" lon="6.00134">
        <ele>1128.4</ele>
        <time>2023-05-15T08:24:51Z</time>
      </trkpt>
      <trkpt lat="44.58324" lon="6.00135">
        <ele>1128.6</ele>
        <time>2023-05-15T08:24:52Z</time>
      </trkpt>
      <trkpt lat="44.58323" lon="6.00135">
        <ele>1128.8</ele>
        <time>2023-05-15T08:24:53Z</time>
      </trkpt>
      <trkpt lat="44.58323" lon="6.00136">
        <ele>1128.8</ele>
        <time>2023-05-15T08:24:54Z</time>
      </trkpt>
      <trkpt lat="44.58322" lon="6.00136">
        <ele>1129</ele>
        <time>2023-05-15T08:24:55Z</time>
      </trkpt>
      <trkpt lat="44.58322" lon="6.00137">
        <ele>1129.2</ele>
        <time>2023-05-15T08:24:57Z</time>
      </trkpt>
      <trkpt lat="44.58322" lon="6.00137">
        <ele>1129.2</ele>
        <time>2023-05-15T08:24:58Z</time>
      </trkpt>
      <trkpt lat="44.58321" lon="6.00137">
        <ele>1129.4</ele>
        <time>2023-05-15T08:24:59Z</time>
      </trkpt>
      <trkpt lat="44.58321" lon="6.00137">
        <ele>1129.4</ele>
        <time>2023-05-15T08:25:00Z</time>
      </trkpt>
      <trkpt lat="44.58321" lon="6.00137">
        <ele>1129.8</ele>
        <time>2023-05-15T08:25:02Z</time>
      </trkpt>
      <trkpt lat="44.58321" lon="6.00137">
        <ele>1130</ele>
        <time>2023-05-15T08:25:04Z</time>
      </trkpt>
      <trkpt lat="44.5832" lon="6.00139">
        <ele>1130</ele>
        <time>2023-05-15T08:25:05Z</time>
      </trkpt>
      <trkpt lat="44.5832" lon="6.00139">
        <ele>1130.2</ele>
        <time>2023-05-15T08:25:06Z</time>
      </trkpt>
      <trkpt lat="44.5832" lon="6.00139">
        <ele>1130.2</ele>
        <time>2023-05-15T08:25:07Z</time>
      </trkpt>
      <trkpt lat="44.58319" lon="6.00141">
        <ele>1130.4</ele>
        <time>2023-05-15T08:25:08Z</time>
      </trkpt>
      <trkpt lat="44.58319" lon="6.00141">
        <ele>1130.6</ele>
        <time>2023-05-15T08:25:09Z</time>
      </trkpt>
      <trkpt lat="44.58318" lon="6.00142">
        <ele>1130.6</ele>
        <time>2023-05-15T08:25:10Z</time>
      </trkpt>
      <trkpt lat="44.58318" lon="6.00143">
        <ele>1130.8</ele>
        <time>2023-05-15T08:25:11Z</time>
      </trkpt>
      <trkpt lat="44.58317" lon="6.00143">
        <ele>1131</ele>
        <time>2023-05-15T08:25:12Z</time>
      </trkpt>
      <trkpt lat="44.58317" lon="6.00143">
        <ele>1131.2</ele>
        <time>2023-05-15T08:25:13Z</time>
      </trkpt>
      <trkpt lat="44.58317" lon="6.00143">
        <ele>1132</ele>
        <time>2023-05-15T08:25:17Z</time>
      </trkpt>
      <trkpt lat="44.58317" lon="6.00144">
        <ele>1132.2</ele>
        <time>2023-05-15T08:25:19Z</time>
      </trkpt>
      <trkpt lat="44.58315" lon="6.00145">
        <ele>1132.4</ele>
        <time>2023-05-15T08:25:20Z</time>
      </trkpt>
      <trkpt lat="44.58315" lon="6.00145">
        <ele>1132.4</ele>
        <time>2023-05-15T08:25:21Z</time>
      </trkpt>
      <trkpt lat="44.58315" lon="6.00145">
        <ele>1132.6</ele>
        <time>2023-05-15T08:25:22Z</time>
      </trkpt>
      <trkpt lat="44.58315" lon="6.00145">
        <ele>1132.6</ele>
        <time>2023-05-15T08:25:23Z</time>
      </trkpt>
      <trkpt lat="44.58315" lon="6.00145">
        <ele>1133.4</ele>
        <time>2023-05-15T08:25:30Z</time>
      </trkpt>
      <trkpt lat="44.58314" lon="6.00145">
        <ele>1134</ele>
        <time>2023-05-15T08:25:34Z</time>
      </trkpt>
      <trkpt lat="44.58314" lon="6.00145">
        <ele>1134</ele>
        <time>2023-05-15T08:25:35Z</time>
      </trkpt>
      <trkpt lat="44.58312" lon="6.00146">
        <ele>1134.2</ele>
        <time>2023-05-15T08:25:36Z</time>
      </trkpt>
      <trkpt lat="44.58311" lon="6.00147">
        <ele>1134.2</ele>
        <time>2023-05-15T08:25:37Z</time>
      </trkpt>
      <trkpt lat="44.58311" lon="6.00147">
        <ele>1134.4</ele>
        <time>2023-05-15T08:25:38Z</time>
      </trkpt>
      <trkpt lat="44.58311" lon="6.00147">
        <ele>1134.4</ele>
        <time>2023-05-15T08:25:39Z</time>
      </trkpt>
      <trkpt lat="44.58311" lon="6.00147">
        <ele>1134.6</ele>
        <time>2023-05-15T08:25:40Z</time>
      </trkpt>
      <trkpt lat="44.58311" lon="6.00147">
        <ele>1134.6</ele>
        <time>2023-05-15T08:25:41Z</time>
      </trkpt>
      <trkpt lat="44.58311" lon="6.00147">
        <ele>1134.8</ele>
        <time>2023-05-15T08:25:42Z</time>
      </trkpt>
      <trkpt lat="44.58311" lon="6.00147">
        <ele>1134.8</ele>
        <time>2023-05-15T08:25:43Z</time>
      </trkpt>
      <trkpt lat="44.58311" lon="6.00147">
        <ele>1134.8</ele>
        <time>2023-05-15T08:25:44Z</time>
      </trkpt>
      <trkpt lat="44.58311" lon="6.00147">
        <ele>1135</ele>
        <time>2023-05-15T08:25:45Z</time>
      </trkpt>
      <trkpt lat="44.58311" lon="6.00147">
        <ele>1135</ele>
        <time>2023-05-15T08:25:46Z</time>
      </trkpt>
      <trkpt lat="44.58308" lon="6.00148">
        <ele>1135.4</ele>
        <time>2023-05-15T08:25:47Z</time>
      </trkpt>
      <trkpt lat="44.58308" lon="6.00148">
        <ele>1135.4</ele>
        <time>2023-05-15T08:25:48Z</time>
      </trkpt>
      <trkpt lat="44.58308" lon="6.00149">
        <ele>1135.6</ele>
        <time>2023-05-15T08:25:49Z</time>
      </trkpt>
      <trkpt lat="44.58308" lon="6.00149">
        <ele>1135.8</ele>
        <time>2023-05-15T08:25:50Z</time>
      </trkpt>
      <trkpt lat="44.58308" lon="6.00149">
        <ele>1135.8</ele>
        <time>2023-05-15T08:25:51Z</time>
      </trkpt>
      <trkpt lat="44.58308" lon="6.00149">
        <ele>1136</ele>
        <time>2023-05-15T08:25:52Z</time>
      </trkpt>
      <trkpt lat="44.58308" lon="6.00149">
        <ele>1136</ele>
        <time>2023-05-15T08:25:53Z</time>
      </trkpt>
      <trkpt lat="44.58307" lon="6.00149">
        <ele>1136.2</ele>
        <time>2023-05-15T08:25:54Z</time>
      </trkpt>
      <trkpt lat="44.58306" lon="6.00149">
        <ele>1136.6</ele>
        <time>2023-05-15T08:25:56Z</time>
      </trkpt>
      <trkpt lat="44.58306" lon="6.00151">
        <ele>1136.6</ele>
        <time>2023-05-15T08:25:57Z</time>
      </trkpt>
      <trkpt lat="44.58305" lon="6.00151">
        <ele>1136.8</ele>
        <time>2023-05-15T08:25:58Z</time>
      </trkpt>
      <trkpt lat="44.58305" lon="6.00151">
        <ele>1137</ele>
        <time>2023-05-15T08:26:00Z</time>
      </trkpt>
      <trkpt lat="44.58305" lon="6.00151">
        <ele>1137.2</ele>
        <time>2023-05-15T08:26:01Z</time>
      </trkpt>
      <trkpt lat="44.58305" lon="6.00151">
        <ele>1137.4</ele>
        <time>2023-05-15T08:26:03Z</time>
      </trkpt>
      <trkpt lat="44.58304" lon="6.00154">
        <ele>1137.6</ele>
        <time>2023-05-15T08:26:04Z</time>
      </trkpt>
      <trkpt lat="44.58304" lon="6.00155">
        <ele>1137.8</ele>
        <time>2023-05-15T08:26:05Z</time>
      </trkpt>
      <trkpt lat="44.58303" lon="6.00155">
        <ele>1138</ele>
        <time>2023-05-15T08:26:06Z</time>
      </trkpt>
      <trkpt lat="44.58303" lon="6.00155">
        <ele>1138.2</ele>
        <time>2023-05-15T08:26:08Z</time>
      </trkpt>
      <trkpt lat="44.58303" lon="6.00155">
        <ele>1138.2</ele>
        <time>2023-05-15T08:26:09Z</time>
      </trkpt>
      <trkpt lat="44.58303" lon="6.00155">
        <ele>1138.4</ele>
        <time>2023-05-15T08:26:10Z</time>
      </trkpt>
      <trkpt lat="44.58302" lon="6.00156">
        <ele>1138.4</ele>
        <time>2023-05-15T08:26:11Z</time>
      </trkpt>
      <trkpt lat="44.58302" lon="6.00156">
        <ele>1138.6</ele>
        <time>2023-05-15T08:26:12Z</time>
      </trkpt>
      <trkpt lat="44.58302" lon="6.00156">
        <ele>1138.8</ele>
        <time>2023-05-15T08:26:13Z</time>
      </trkpt>
      <trkpt lat="44.58301" lon="6.00156">
        <ele>1139</ele>
        <time>2023-05-15T08:26:14Z</time>
      </trkpt>
      <trkpt lat="44.58301" lon="6.00156">
        <ele>1139</ele>
        <time>2023-05-15T08:26:15Z</time>
      </trkpt>
      <trkpt lat="44.58301" lon="6.00156">
        <ele>1139.2</ele>
        <time>2023-05-15T08:26:16Z</time>
      </trkpt>
      <trkpt lat="44.58301" lon="6.00156">
        <ele>1139.2</ele>
        <time>2023-05-15T08:26:17Z</time>
      </trkpt>
      <trkpt lat="44.583" lon="6.00157">
        <ele>1139.4</ele>
        <time>2023-05-15T08:26:18Z</time>
      </trkpt>
      <trkpt lat="44.583" lon="6.00157">
        <ele>1139.8</ele>
        <time>2023-05-15T08:26:19Z</time>
      </trkpt>
      <trkpt lat="44.583" lon="6.00157">
        <ele>1139.8</ele>
        <time>2023-05-15T08:26:20Z</time>
      </trkpt>
      <trkpt lat="44.58299" lon="6.00157">
        <ele>1140</ele>
        <time>2023-05-15T08:26:21Z</time>
      </trkpt>
      <trkpt lat="44.58299" lon="6.00157">
        <ele>1140.2</ele>
        <time>2023-05-15T08:26:22Z</time>
      </trkpt>
      <trkpt lat="44.58299" lon="6.00157">
        <ele>1140.2</ele>
        <time>2023-05-15T08:26:23Z</time>
      </trkpt>
      <trkpt lat="44.58299" lon="6.00157">
        <ele>1140.4</ele>
        <time>2023-05-15T08:26:24Z</time>
      </trkpt>
      <trkpt lat="44.58298" lon="6.00157">
        <ele>1140.4</ele>
        <time>2023-05-15T08:26:25Z</time>
      </trkpt>
      <trkpt lat="44.58298" lon="6.00158">
        <ele>1140.6</ele>
        <time>2023-05-15T08:26:26Z</time>
      </trkpt>
      <trkpt lat="44.58298" lon="6.00158">
        <ele>1140.8</ele>
        <time>2023-05-15T08:26:27Z</time>
      </trkpt>
      <trkpt lat="44.58297" lon="6.00158">
        <ele>1141</ele>
        <time>2023-05-15T08:26:28Z</time>
      </trkpt>
      <trkpt lat="44.58297" lon="6.00158">
        <ele>1141.2</ele>
        <time>2023-05-15T08:26:29Z</time>
      </trkpt>
      <trkpt lat="44.58297" lon="6.00158">
        <ele>1141.4</ele>
        <time>2023-05-15T08:26:30Z</time>
      </trkpt>
      <trkpt lat="44.58297" lon="6.00158">
        <ele>1141.6</ele>
        <time>2023-05-15T08:26:31Z</time>
      </trkpt>
      <trkpt lat="44.58296" lon="6.00158">
        <ele>1141.8</ele>
        <time>2023-05-15T08:26:32Z</time>
      </trkpt>
      <trkpt lat="44.58296" lon="6.00159">
        <ele>1142</ele>
        <time>2023-05-15T08:26:33Z</time>
      </trkpt>
      <trkpt lat="44.58296" lon="6.00159">
        <ele>1142.2</ele>
        <time>2023-05-15T08:26:34Z</time>
      </trkpt>
      <trkpt lat="44.58295" lon="6.00159">
        <ele>1142.6</ele>
        <time>2023-05-15T08:26:35Z</time>
      </trkpt>
      <trkpt lat="44.58295" lon="6.00159">
        <ele>1142.8</ele>
        <time>2023-05-15T08:26:36Z</time>
      </trkpt>
      <trkpt lat="44.58295" lon="6.00159">
        <ele>1143</ele>
        <time>2023-05-15T08:26:37Z</time>
      </trkpt>
      <trkpt lat="44.58294" lon="6.00159">
        <ele>1143.4</ele>
        <time>2023-05-15T08:26:38Z</time>
      </trkpt>
      <trkpt lat="44.58294" lon="6.00159">
        <ele>1143.4</ele>
        <time>2023-05-15T08:26:39Z</time>
      </trkpt>
      <trkpt lat="44.58294" lon="6.0016">
        <ele>1143.6</ele>
        <time>2023-05-15T08:26:41Z</time>
      </trkpt>
      <trkpt lat="44.58294" lon="6.0016">
        <ele>1143.8</ele>
        <time>2023-05-15T08:26:42Z</time>
      </trkpt>
      <trkpt lat="44.58293" lon="6.0016">
        <ele>1144</ele>
        <time>2023-05-15T08:26:43Z</time>
      </trkpt>
      <trkpt lat="44.58293" lon="6.0016">
        <ele>1144.2</ele>
        <time>2023-05-15T08:26:44Z</time>
      </trkpt>
      <trkpt lat="44.58293" lon="6.0016">
        <ele>1144.4</ele>
        <time>2023-05-15T08:26:45Z</time>
      </trkpt>
      <trkpt lat="44.58292" lon="6.0016">
        <ele>1144.6</ele>
        <time>2023-05-15T08:26:46Z</time>
      </trkpt>
      <trkpt lat="44.58292" lon="6.0016">
        <ele>1145.4</ele>
        <time>2023-05-15T08:26:49Z</time>
      </trkpt>
      <trkpt lat="44.58292" lon="6.00161">
        <ele>1146.4</ele>
        <time>2023-05-15T08:26:55Z</time>
      </trkpt>
      <trkpt lat="44.58292" lon="6.00161">
        <ele>1146.6</ele>
        <time>2023-05-15T08:26:57Z</time>
      </trkpt>
      <trkpt lat="44.58291" lon="6.00161">
        <ele>1146.8</ele>
        <time>2023-05-15T08:26:58Z</time>
      </trkpt>
      <trkpt lat="44.58291" lon="6.00161">
        <ele>1146.8</ele>
        <time>2023-05-15T08:27:00Z</time>
      </trkpt>
      <trkpt lat="44.58291" lon="6.00161">
        <ele>1146.8</ele>
        <time>2023-05-15T08:27:01Z</time>
      </trkpt>
      <trkpt lat="44.5829" lon="6.00161">
        <ele>1147</ele>
        <time>2023-05-15T08:27:02Z</time>
      </trkpt>
      <trkpt lat="44.5829" lon="6.00161">
        <ele>1147.2</ele>
        <time>2023-05-15T08:27:03Z</time>
      </trkpt>
      <trkpt lat="44.5829" lon="6.00162">
        <ele>1147.2</ele>
        <time>2023-05-15T08:27:04Z</time>
      </trkpt>
      <trkpt lat="44.5829" lon="6.00162">
        <ele>1147.4</ele>
        <time>2023-05-15T08:27:05Z</time>
      </trkpt>
      <trkpt lat="44.58289" lon="6.00162">
        <ele>1147.4</ele>
        <time>2023-05-15T08:27:06Z</time>
      </trkpt>
      <trkpt lat="44.58289" lon="6.00162">
        <ele>1147.6</ele>
        <time>2023-05-15T08:27:07Z</time>
      </trkpt>
      <trkpt lat="44.58289" lon="6.00162">
        <ele>1147.8</ele>
        <time>2023-05-15T08:27:08Z</time>
      </trkpt>
      <trkpt lat="44.58288" lon="6.00162">
        <ele>1148</ele>
        <time>2023-05-15T08:27:09Z</time>
      </trkpt>
      <trkpt lat="44.58288" lon="6.00162">
        <ele>1148.2</ele>
        <time>2023-05-15T08:27:10Z</time>
      </trkpt>
      <trkpt lat="44.58288" lon="6.00162">
        <ele>1148.6</ele>
        <time>2023-05-15T08:27:12Z</time>
      </trkpt>
      <trkpt lat="44.58288" lon="6.00163">
        <ele>1149.4</ele>
        <time>2023-05-15T08:27:19Z</time>
      </trkpt>
      <trkpt lat="44.58287" lon="6.00163">
        <ele>1149.4</ele>
        <time>2023-05-15T08:27:20Z</time>
      </trkpt>
      <trkpt lat="44.58287" lon="6.00163">
        <ele>1149.6</ele>
        <time>2023-05-15T08:27:21Z</time>
      </trkpt>
      <trkpt lat="44.58287" lon="6.00163">
        <ele>1149.6</ele>
        <time>2023-05-15T08:27:22Z</time>
      </trkpt>
      <trkpt lat="44.58286" lon="6.00163">
        <ele>1150</ele>
        <time>2023-05-15T08:27:25Z</time>
      </trkpt>
      <trkpt lat="44.58286" lon="6.00163">
        <ele>1150.6</ele>
        <time>2023-05-15T08:27:32Z</time>
      </trkpt>
      <trkpt lat="44.58286" lon="6.00163">
        <ele>1150.6</ele>
        <time>2023-05-15T08:27:33Z</time>
      </trkpt>
      <trkpt lat="44.58286" lon="6.00164">
        <ele>1151.4</ele>
        <time>2023-05-15T08:27:39Z</time>
      </trkpt>
      <trkpt lat="44.58285" lon="6.00164">
        <ele>1151.6</ele>
        <time>2023-05-15T08:27:42Z</time>
      </trkpt>
      <trkpt lat="44.58285" lon="6.00164">
        <ele>1152</ele>
        <time>2023-05-15T08:27:44Z</time>
      </trkpt>
      <trkpt lat="44.58285" lon="6.00164">
        <ele>1152</ele>
        <time>2023-05-15T08:27:45Z</time>
      </trkpt>
      <trkpt lat="44.58284" lon="6.00164">
        <ele>1152.8</ele>
        <time>2023-05-15T08:27:50Z</time>
      </trkpt>
      <trkpt lat="44.58284" lon="6.00164">
        <ele>1152.8</ele>
        <time>2023-05-15T08:27:51Z</time>
      </trkpt>
      <trkpt lat="44.58284" lon="6.00164">
        <ele>1153</ele>
        <time>2023-05-15T08:27:52Z</time>
      </trkpt>
      <trkpt lat="44.58284" lon="6.00164">
        <ele>1153</ele>
        <time>2023-05-15T08:27:53Z</time>
      </trkpt>
      <trkpt lat="44.58284" lon="6.00164">
        <ele>1153.2</ele>
        <time>2023-05-15T08:27:54Z</time>
      </trkpt>
      <trkpt lat="44.58284" lon="6.00164">
        <ele>1153.2</ele>
        <time>2023-05-15T08:27:55Z</time>
      </trkpt>
      <trkpt lat="44.58284" lon="6.00164">
        <ele>1153.2</ele>
        <time>2023-05-15T08:27:56Z</time>
      </trkpt>
      <trkpt lat="44.58283" lon="6.00165">
        <ele>1153.4</ele>
        <time>2023-05-15T08:27:57Z</time>
      </trkpt>
      <trkpt lat="44.58282" lon="6.00165">
        <ele>1153.6</ele>
        <time>2023-05-15T08:27:58Z</time>
      </trkpt>
      <trkpt lat="44.58282" lon="6.00165">
        <ele>1153.6</ele>
        <time>2023-05-15T08:27:59Z</time>
      </trkpt>
      <trkpt lat="44.58282" lon="6.00165">
        <ele>1154</ele>
        <time>2023-05-15T08:28:01Z</time>
      </trkpt>
      <trkpt lat="44.5828" lon="6.00166">
        <ele>1154.2</ele>
        <time>2023-05-15T08:28:02Z</time>
      </trkpt>
      <trkpt lat="44.5828" lon="6.00166">
        <ele>1154.2</ele>
        <time>2023-05-15T08:28:03Z</time>
      </trkpt>
      <trkpt lat="44.5828" lon="6.00166">
        <ele>1154.6</ele>
        <time>2023-05-15T08:28:04Z</time>
      </trkpt>
      <trkpt lat="44.5828" lon="6.00166">
        <ele>1155</ele>
        <time>2023-05-15T08:28:06Z</time>
      </trkpt>
      <trkpt lat="44.5828" lon="6.00166">
        <ele>1155</ele>
        <time>2023-05-15T08:28:07Z</time>
      </trkpt>
      <trkpt lat="44.5828" lon="6.00166">
        <ele>1155.2</ele>
        <time>2023-05-15T08:28:08Z</time>
      </trkpt>
      <trkpt lat="44.5828" lon="6.00166">
        <ele>1155.2</ele>
        <time>2023-05-15T08:28:09Z</time>
      </trkpt>
      <trkpt lat="44.58278" lon="6.00167">
        <ele>1155.4</ele>
        <time>2023-05-15T08:28:10Z</time>
      </trkpt>
      <trkpt lat="44.58278" lon="6.00167">
        <ele>1155.4</ele>
        <time>2023-05-15T08:28:11Z</time>
      </trkpt>
      <trkpt lat="44.58277" lon="6.00167">
        <ele>1155.4</ele>
        <time>2023-05-15T08:28:13Z</time>
      </trkpt>
      <trkpt lat="44.58276" lon="6.00168">
        <ele>1155.6</ele>
        <time>2023-05-15T08:28:14Z</time>
      </trkpt>
      <trkpt lat="44.58275" lon="6.00168">
        <ele>1155.8</ele>
        <time>2023-05-15T08:28:15Z</time>
      </trkpt>
      <trkpt lat="44.58275" lon="6.00168">
        <ele>1156</ele>
        <time>2023-05-15T08:28:16Z</time>
      </trkpt>
      <trkpt lat="44.58275" lon="6.00168">
        <ele>1156</ele>
        <time>2023-05-15T08:28:17Z</time>
      </trkpt>
      <trkpt lat="44.58274" lon="6.00169">
        <ele>1156.2</ele>
        <time>2023-05-15T08:28:18Z</time>
      </trkpt>
      <trkpt lat="44.58273" lon="6.00169">
        <ele>1156.4</ele>
        <time>2023-05-15T08:28:19Z</time>
      </trkpt>
      <trkpt lat="44.5827" lon="6.00169">
        <ele>1156.6</ele>
        <time>2023-05-15T08:28:20Z</time>
      </trkpt>
      <trkpt lat="44.58269" lon="6.00171">
        <ele>1156.6</ele>
        <time>2023-05-15T08:28:21Z</time>
      </trkpt>
      <trkpt lat="44.58268" lon="6.00171">
        <ele>1156.8</ele>
        <time>2023-05-15T08:28:22Z</time>
      </trkpt>
      <trkpt lat="44.58267" lon="6.00172">
        <ele>1156.8</ele>
        <time>2023-05-15T08:28:23Z</time>
      </trkpt>
      <trkpt lat="44.58266" lon="6.00173">
        <ele>1157</ele>
        <time>2023-05-15T08:28:24Z</time>
      </trkpt>
      <trkpt lat="44.58265" lon="6.00174">
        <ele>1157.2</ele>
        <time>2023-05-15T08:28:25Z</time>
      </trkpt>
      <trkpt lat="44.58265" lon="6.00174">
        <ele>1157.2</ele>
        <time>2023-05-15T08:28:26Z</time>
      </trkpt>
      <trkpt lat="44.58265" lon="6.00174">
        <ele>1157.4</ele>
        <time>2023-05-15T08:28:27Z</time>
      </trkpt>
      <trkpt lat="44.58265" lon="6.00174">
        <ele>1158</ele>
        <time>2023-05-15T08:28:34Z</time>
      </trkpt>
      <trkpt lat="44.58263" lon="6.00176">
        <ele>1158.2</ele>
        <time>2023-05-15T08:28:36Z</time>
      </trkpt>
      <trkpt lat="44.58263" lon="6.00176">
        <ele>1158.2</ele>
        <time>2023-05-15T08:28:37Z</time>
      </trkpt>
      <trkpt lat="44.58262" lon="6.00177">
        <ele>1158.2</ele>
        <time>2023-05-15T08:28:38Z</time>
      </trkpt>
      <trkpt lat="44.58262" lon="6.00177">
        <ele>1158.6</ele>
        <time>2023-05-15T08:28:40Z</time>
      </trkpt>
      <trkpt lat="44.58261" lon="6.00178">
        <ele>1159.6</ele>
        <time>2023-05-15T08:28:49Z</time>
      </trkpt>
      <trkpt lat="44.58261" lon="6.00178">
        <ele>1159.8</ele>
        <time>2023-05-15T08:28:50Z</time>
      </trkpt>
      <trkpt lat="44.5826" lon="6.00178">
        <ele>1160.4</ele>
        <time>2023-05-15T08:28:55Z</time>
      </trkpt>
      <trkpt lat="44.58258" lon="6.00179">
        <ele>1160.4</ele>
        <time>2023-05-15T08:28:56Z</time>
      </trkpt>
      <trkpt lat="44.58258" lon="6.00179">
        <ele>1160.8</ele>
        <time>2023-05-15T08:28:58Z</time>
      </trkpt>
      <trkpt lat="44.58257" lon="6.0018">
        <ele>1161</ele>
        <time>2023-05-15T08:28:59Z</time>
      </trkpt>
      <trkpt lat="44.58257" lon="6.0018">
        <ele>1161</ele>
        <time>2023-05-15T08:29:00Z</time>
      </trkpt>
      <trkpt lat="44.58257" lon="6.0018">
        <ele>1161.2</ele>
        <time>2023-05-15T08:29:01Z</time>
      </trkpt>
      <trkpt lat="44.58256" lon="6.0018">
        <ele>1161.4</ele>
        <time>2023-05-15T08:29:02Z</time>
      </trkpt>
      <trkpt lat="44.58256" lon="6.00179">
        <ele>1161.4</ele>
        <time>2023-05-15T08:29:03Z</time>
      </trkpt>
      <trkpt lat="44.58256" lon="6.00179">
        <ele>1161.6</ele>
        <time>2023-05-15T08:29:04Z</time>
      </trkpt>
      <trkpt lat="44.58256" lon="6.00179">
        <ele>1161.6</ele>
        <time>2023-05-15T08:29:05Z</time>
      </trkpt>
      <trkpt lat="44.58255" lon="6.00179">
        <ele>1161.8</ele>
        <time>2023-05-15T08:29:06Z</time>
      </trkpt>
      <trkpt lat="44.58254" lon="6.00179">
        <ele>1162</ele>
        <time>2023-05-15T08:29:07Z</time>
      </trkpt>
      <trkpt lat="44.58254" lon="6.00179">
        <ele>1162.2</ele>
        <time>2023-05-15T08:29:08Z</time>
      </trkpt>
      <trkpt lat="44.58254" lon="6.00179">
        <ele>1162.2</ele>
        <time>2023-05-15T08:29:09Z</time>
      </trkpt>
      <trkpt lat="44.58253" lon="6.0018">
        <ele>1162.8</ele>
        <time>2023-05-15T08:29:12Z</time>
      </trkpt>
      <trkpt lat="44.58253" lon="6.0018">
        <ele>1163</ele>
        <time>2023-05-15T08:29:13Z</time>
      </trkpt>
      <trkpt lat="44.58253" lon="6.0018">
        <ele>1163</ele>
        <time>2023-05-15T08:29:14Z</time>
      </trkpt>
      <trkpt lat="44.58253" lon="6.0018">
        <ele>1163.2</ele>
        <time>2023-05-15T08:29:15Z</time>
      </trkpt>
      <trkpt lat="44.58253" lon="6.0018">
        <ele>1163.4</ele>
        <time>2023-05-15T08:29:16Z</time>
      </trkpt>
      <trkpt lat="44.58253" lon="6.0018">
        <ele>1163.8</ele>
        <time>2023-05-15T08:29:17Z</time>
      </trkpt>
      <trkpt lat="44.58251" lon="6.00181">
        <ele>1164.4</ele>
        <time>2023-05-15T08:29:20Z</time>
      </trkpt>
      <trkpt lat="44.5825" lon="6.00181">
        <ele>1164.4</ele>
        <time>2023-05-15T08:29:21Z</time>
      </trkpt>
      <trkpt lat="44.5825" lon="6.00181">
        <ele>1164.6</ele>
        <time>2023-05-15T08:29:22Z</time>
      </trkpt>
      <trkpt lat="44.5825" lon="6.00181">
        <ele>1165.4</ele>
        <time>2023-05-15T08:29:26Z</time>
      </trkpt>
      <trkpt lat="44.58249" lon="6.00181">
        <ele>1165.6</ele>
        <time>2023-05-15T08:29:28Z</time>
      </trkpt>
      <trkpt lat="44.58248" lon="6.00182">
        <ele>1165.8</ele>
        <time>2023-05-15T08:29:29Z</time>
      </trkpt>
      <trkpt lat="44.58248" lon="6.00183">
        <ele>1166</ele>
        <time>2023-05-15T08:29:30Z</time>
      </trkpt>
      <trkpt lat="44.58246" lon="6.00184">
        <ele>1166.6</ele>
        <time>2023-05-15T08:29:33Z</time>
      </trkpt>
      <trkpt lat="44.58247" lon="6.00184">
        <ele>1166.6</ele>
        <time>2023-05-15T08:29:34Z</time>
      </trkpt>
      <trkpt lat="44.58247" lon="6.00184">
        <ele>1167</ele>
        <time>2023-05-15T08:29:35Z</time>
      </trkpt>
      <trkpt lat="44.58247" lon="6.00184">
        <ele>1167.2</ele>
        <time>2023-05-15T08:29:36Z</time>
      </trkpt>
      <trkpt lat="44.58246" lon="6.00185">
        <ele>1167.2</ele>
        <time>2023-05-15T08:29:37Z</time>
      </trkpt>
      <trkpt lat="44.58245" lon="6.00185">
        <ele>1167.4</ele>
        <time>2023-05-15T08:29:38Z</time>
      </trkpt>
      <trkpt lat="44.58245" lon="6.00185">
        <ele>1167.6</ele>
        <time>2023-05-15T08:29:39Z</time>
      </trkpt>
      <trkpt lat="44.58245" lon="6.00185">
        <ele>1167.8</ele>
        <time>2023-05-15T08:29:40Z</time>
      </trkpt>
      <trkpt lat="44.58245" lon="6.00185">
        <ele>1167.8</ele>
        <time>2023-05-15T08:29:41Z</time>
      </trkpt>
      <trkpt lat="44.58245" lon="6.00185">
        <ele>1168</ele>
        <time>2023-05-15T08:29:42Z</time>
      </trkpt>
      <trkpt lat="44.58245" lon="6.00186">
        <ele>1168.2</ele>
        <time>2023-05-15T08:29:43Z</time>
      </trkpt>
      <trkpt lat="44.58243" lon="6.00188">
        <ele>1168.2</ele>
        <time>2023-05-15T08:29:44Z</time>
      </trkpt>
      <trkpt lat="44.58242" lon="6.00189">
        <ele>1168.4</ele>
        <time>2023-05-15T08:29:45Z</time>
      </trkpt>
      <trkpt lat="44.58242" lon="6.0019">
        <ele>1168.4</ele>
        <time>2023-05-15T08:29:46Z</time>
      </trkpt>
      <trkpt lat="44.58241" lon="6.0019">
        <ele>1168.6</ele>
        <time>2023-05-15T08:29:47Z</time>
      </trkpt>
      <trkpt lat="44.5824" lon="6.00191">
        <ele>1168.6</ele>
        <time>2023-05-15T08:29:48Z</time>
      </trkpt>
      <trkpt lat="44.5824" lon="6.0019">
        <ele>1168.8</ele>
        <time>2023-05-15T08:29:49Z</time>
      </trkpt>
      <trkpt lat="44.5824" lon="6.0019">
        <ele>1168.8</ele>
        <time>2023-05-15T08:29:50Z</time>
      </trkpt>
      <trkpt lat="44.58237" lon="6.00191">
        <ele>1169.4</ele>
        <time>2023-05-15T08:29:55Z</time>
      </trkpt>
      <trkpt lat="44.58235" lon="6.00192">
        <ele>1169.4</ele>
        <time>2023-05-15T08:29:56Z</time>
      </trkpt>
      <trkpt lat="44.58235" lon="6.00191">
        <ele>1169.4</ele>
        <time>2023-05-15T08:29:57Z</time>
      </trkpt>
      <trkpt lat="44.58235" lon="6.00192">
        <ele>1169.6</ele>
        <time>2023-05-15T08:29:58Z</time>
      </trkpt>
      <trkpt lat="44.58233" lon="6.00192">
        <ele>1169.6</ele>
        <time>2023-05-15T08:29:59Z</time>
      </trkpt>
      <trkpt lat="44.58233" lon="6.00192">
        <ele>1169.6</ele>
        <time>2023-05-15T08:30:00Z</time>
      </trkpt>
      <trkpt lat="44.58233" lon="6.00192">
        <ele>1169.8</ele>
        <time>2023-05-15T08:30:01Z</time>
      </trkpt>
      <trkpt lat="44.58232" lon="6.00192">
        <ele>1169.8</ele>
        <time>2023-05-15T08:30:02Z</time>
      </trkpt>
      <trkpt lat="44.58231" lon="6.00192">
        <ele>1170</ele>
        <time>2023-05-15T08:30:03Z</time>
      </trkpt>
      <trkpt lat="44.58231" lon="6.00192">
        <ele>1170</ele>
        <time>2023-05-15T08:30:04Z</time>
      </trkpt>
      <trkpt lat="44.5823" lon="6.00193">
        <ele>1170.2</ele>
        <time>2023-05-15T08:30:05Z</time>
      </trkpt>
      <trkpt lat="44.58229" lon="6.00193">
        <ele>1170.2</ele>
        <time>2023-05-15T08:30:06Z</time>
      </trkpt>
      <trkpt lat="44.58228" lon="6.00194">
        <ele>1170.4</ele>
        <time>2023-05-15T08:30:07Z</time>
      </trkpt>
      <trkpt lat="44.58228" lon="6.00194">
        <ele>1170.6</ele>
        <time>2023-05-15T08:30:08Z</time>
      </trkpt>
      <trkpt lat="44.58228" lon="6.00194">
        <ele>1170.6</ele>
        <time>2023-05-15T08:30:09Z</time>
      </trkpt>
      <trkpt lat="44.58228" lon="6.00194">
        <ele>1170.8</ele>
        <time>2023-05-15T08:30:10Z</time>
      </trkpt>
      <trkpt lat="44.58227" lon="6.00195">
        <ele>1171</ele>
        <time>2023-05-15T08:30:11Z</time>
      </trkpt>
      <trkpt lat="44.58227" lon="6.00196">
        <ele>1171.2</ele>
        <time>2023-05-15T08:30:12Z</time>
      </trkpt>
      <trkpt lat="44.58227" lon="6.00197">
        <ele>1171.2</ele>
        <time>2023-05-15T08:30:13Z</time>
      </trkpt>
      <trkpt lat="44.58227" lon="6.00197">
        <ele>1171.2</ele>
        <time>2023-05-15T08:30:14Z</time>
      </trkpt>
      <trkpt lat="44.58227" lon="6.00197">
        <ele>1171.4</ele>
        <time>2023-05-15T08:30:15Z</time>
      </trkpt>
      <trkpt lat="44.58227" lon="6.00198">
        <ele>1171.6</ele>
        <time>2023-05-15T08:30:16Z</time>
      </trkpt>
      <trkpt lat="44.58227" lon="6.00199">
        <ele>1171.8</ele>
        <time>2023-05-15T08:30:17Z</time>
      </trkpt>
      <trkpt lat="44.58227" lon="6.00199">
        <ele>1172</ele>
        <time>2023-05-15T08:30:18Z</time>
      </trkpt>
      <trkpt lat="44.58227" lon="6.002">
        <ele>1172.2</ele>
        <time>2023-05-15T08:30:19Z</time>
      </trkpt>
      <trkpt lat="44.58227" lon="6.002">
        <ele>1172.2</ele>
        <time>2023-05-15T08:30:20Z</time>
      </trkpt>
      <trkpt lat="44.58226" lon="6.00201">
        <ele>1172.4</ele>
        <time>2023-05-15T08:30:21Z</time>
      </trkpt>
      <trkpt lat="44.58226" lon="6.00202">
        <ele>1172.4</ele>
        <time>2023-05-15T08:30:22Z</time>
      </trkpt>
      <trkpt lat="44.58226" lon="6.00203">
        <ele>1172.8</ele>
        <time>2023-05-15T08:30:23Z</time>
      </trkpt>
      <trkpt lat="44.58226" lon="6.00203">
        <ele>1172.8</ele>
        <time>2023-05-15T08:30:24Z</time>
      </trkpt>
      <trkpt lat="44.58225" lon="6.00204">
        <ele>1172.8</ele>
        <time>2023-05-15T08:30:25Z</time>
      </trkpt>
      <trkpt lat="44.58225" lon="6.00205">
        <ele>1173</ele>
        <time>2023-05-15T08:30:26Z</time>
      </trkpt>
      <trkpt lat="44.58225" lon="6.00206">
        <ele>1173</ele>
        <time>2023-05-15T08:30:27Z</time>
      </trkpt>
      <trkpt lat="44.58225" lon="6.00207">
        <ele>1173.4</ele>
        <time>2023-05-15T08:30:28Z</time>
      </trkpt>
      <trkpt lat="44.58225" lon="6.00208">
        <ele>1173.4</ele>
        <time>2023-05-15T08:30:29Z</time>
      </trkpt>
      <trkpt lat="44.58225" lon="6.00208">
        <ele>1173.6</ele>
        <time>2023-05-15T08:30:30Z</time>
      </trkpt>
      <trkpt lat="44.58225" lon="6.00208">
        <ele>1173.8</ele>
        <time>2023-05-15T08:30:31Z</time>
      </trkpt>
      <trkpt lat="44.58225" lon="6.00208">
        <ele>1174</ele>
        <time>2023-05-15T08:30:32Z</time>
      </trkpt>
      <trkpt lat="44.58225" lon="6.00208">
        <ele>1174</ele>
        <time>2023-05-15T08:30:33Z</time>
      </trkpt>
      <trkpt lat="44.58225" lon="6.0021">
        <ele>1174.2</ele>
        <time>2023-05-15T08:30:34Z</time>
      </trkpt>
      <trkpt lat="44.58225" lon="6.00211">
        <ele>1174.4</ele>
        <time>2023-05-15T08:30:35Z</time>
      </trkpt>
      <trkpt lat="44.58225" lon="6.00212">
        <ele>1174.4</ele>
        <time>2023-05-15T08:30:36Z</time>
      </trkpt>
      <trkpt lat="44.58225" lon="6.00214">
        <ele>1174.6</ele>
        <time>2023-05-15T08:30:37Z</time>
      </trkpt>
      <trkpt lat="44.58225" lon="6.00214">
        <ele>1174.8</ele>
        <time>2023-05-15T08:30:38Z</time>
      </trkpt>
      <trkpt lat="44.58225" lon="6.00214">
        <ele>1175</ele>
        <time>2023-05-15T08:30:39Z</time>
      </trkpt>
      <trkpt lat="44.58225" lon="6.00214">
        <ele>1175.2</ele>
        <time>2023-05-15T08:30:40Z</time>
      </trkpt>
      <trkpt lat="44.58225" lon="6.00215">
        <ele>1175</ele>
        <time>2023-05-15T08:30:41Z</time>
      </trkpt>
      <trkpt lat="44.58225" lon="6.00217">
        <ele>1175.2</ele>
        <time>2023-05-15T08:30:42Z</time>
      </trkpt>
      <trkpt lat="44.58225" lon="6.00217">
        <ele>1175.4</ele>
        <time>2023-05-15T08:30:43Z</time>
      </trkpt>
      <trkpt lat="44.58225" lon="6.00217">
        <ele>1175.4</ele>
        <time>2023-05-15T08:30:44Z</time>
      </trkpt>
      <trkpt lat="44.58225" lon="6.00217">
        <ele>1175.6</ele>
        <time>2023-05-15T08:30:45Z</time>
      </trkpt>
      <trkpt lat="44.58225" lon="6.00217">
        <ele>1175.8</ele>
        <time>2023-05-15T08:30:46Z</time>
      </trkpt>
      <trkpt lat="44.58225" lon="6.00217">
        <ele>1175.8</ele>
        <time>2023-05-15T08:30:47Z</time>
      </trkpt>
      <trkpt lat="44.58225" lon="6.00217">
        <ele>1176</ele>
        <time>2023-05-15T08:30:48Z</time>
      </trkpt>
      <trkpt lat="44.58225" lon="6.00217">
        <ele>1176.2</ele>
        <time>2023-05-15T08:30:49Z</time>
      </trkpt>
      <trkpt lat="44.58225" lon="6.00218">
        <ele>1176.2</ele>
        <time>2023-05-15T08:30:50Z</time>
      </trkpt>
      <trkpt lat="44.58224" lon="6.0022">
        <ele>1176.4</ele>
        <time>2023-05-15T08:30:51Z</time>
      </trkpt>
      <trkpt lat="44.58224" lon="6.00222">
        <ele>1176.4</ele>
        <time>2023-05-15T08:30:52Z</time>
      </trkpt>
      <trkpt lat="44.58223" lon="6.00223">
        <ele>1176.6</ele>
        <time>2023-05-15T08:30:53Z</time>
      </trkpt>
      <trkpt lat="44.58223" lon="6.00224">
        <ele>1176.6</ele>
        <time>2023-05-15T08:30:54Z</time>
      </trkpt>
      <trkpt lat="44.58223" lon="6.00225">
        <ele>1176.6</ele>
        <time>2023-05-15T08:30:55Z</time>
      </trkpt>
      <trkpt lat="44.58223" lon="6.00227">
        <ele>1176.6</ele>
        <time>2023-05-15T08:30:56Z</time>
      </trkpt>
      <trkpt lat="44.58223" lon="6.00229">
        <ele>1176.6</ele>
        <time>2023-05-15T08:30:57Z</time>
      </trkpt>
      <trkpt lat="44.58223" lon="6.00231">
        <ele>1177</ele>
        <time>2023-05-15T08:30:58Z</time>
      </trkpt>
      <trkpt lat="44.58224" lon="6.00234">
        <ele>1177</ele>
        <time>2023-05-15T08:30:59Z</time>
      </trkpt>
      <trkpt lat="44.58224" lon="6.00235">
        <ele>1177.2</ele>
        <time>2023-05-15T08:31:00Z</time>
      </trkpt>
      <trkpt lat="44.58224" lon="6.00237">
        <ele>1177.2</ele>
        <time>2023-05-15T08:31:01Z</time>
      </trkpt>
      <trkpt lat="44.58225" lon="6.00239">
        <ele>1177.4</ele>
        <time>2023-05-15T08:31:02Z</time>
      </trkpt>
      <trkpt lat="44.58225" lon="6.00243">
        <ele>1177.6</ele>
        <time>2023-05-15T08:31:03Z</time>
      </trkpt>
      <trkpt lat="44.58226" lon="6.00247">
        <ele>1177.8</ele>
        <time>2023-05-15T08:31:04Z</time>
      </trkpt>
      <trkpt lat="44.58227" lon="6.0025">
        <ele>1178</ele>
        <time>2023-05-15T08:31:05Z</time>
      </trkpt>
      <trkpt lat="44.58226" lon="6.00253">
        <ele>1178</ele>
        <time>2023-05-15T08:31:06Z</time>
      </trkpt>
      <trkpt lat="44.58227" lon="6.00255">
        <ele>1178</ele>
        <time>2023-05-15T08:31:07Z</time>
      </trkpt>
      <trkpt lat="44.58228" lon="6.00258">
        <ele>1178.2</ele>
        <time>2023-05-15T08:31:08Z</time>
      </trkpt>
      <trkpt lat="44.58228" lon="6.00258">
        <ele>1178.4</ele>
        <time>2023-05-15T08:31:09Z</time>
      </trkpt>
      <trkpt lat="44.58228" lon="6.00259">
        <ele>1178.4</ele>
        <time>2023-05-15T08:31:10Z</time>
      </trkpt>
      <trkpt lat="44.58229" lon="6.00261">
        <ele>1178.6</ele>
        <time>2023-05-15T08:31:11Z</time>
      </trkpt>
      <trkpt lat="44.5823" lon="6.00262">
        <ele>1178.6</ele>
        <time>2023-05-15T08:31:12Z</time>
      </trkpt>
      <trkpt lat="44.5823" lon="6.00263">
        <ele>1178.8</ele>
        <time>2023-05-15T08:31:13Z</time>
      </trkpt>
      <trkpt lat="44.58231" lon="6.00264">
        <ele>1179</ele>
        <time>2023-05-15T08:31:14Z</time>
      </trkpt>
      <trkpt lat="44.58232" lon="6.00265">
        <ele>1179</ele>
        <time>2023-05-15T08:31:15Z</time>
      </trkpt>
      <trkpt lat="44.58233" lon="6.00267">
        <ele>1179</ele>
        <time>2023-05-15T08:31:16Z</time>
      </trkpt>
      <trkpt lat="44.58234" lon="6.00269">
        <ele>1179</ele>
        <time>2023-05-15T08:31:17Z</time>
      </trkpt>
      <trkpt lat="44.58236" lon="6.00271">
        <ele>1179.2</ele>
        <time>2023-05-15T08:31:18Z</time>
      </trkpt>
      <trkpt lat="44.58237" lon="6.00271">
        <ele>1179.2</ele>
        <time>2023-05-15T08:31:19Z</time>
      </trkpt>
      <trkpt lat="44.58236" lon="6.00272">
        <ele>1179.2</ele>
        <time>2023-05-15T08:31:20Z</time>
      </trkpt>
      <trkpt lat="44.58237" lon="6.00273">
        <ele>1179.4</ele>
        <time>2023-05-15T08:31:21Z</time>
      </trkpt>
      <trkpt lat="44.58237" lon="6.00274">
        <ele>1179.6</ele>
        <time>2023-05-15T08:31:22Z</time>
      </trkpt>
      <trkpt lat="44.58237" lon="6.00275">
        <ele>1179.8</ele>
        <time>2023-05-15T08:31:23Z</time>
      </trkpt>
      <trkpt lat="44.58237" lon="6.00275">
        <ele>1179.8</ele>
        <time>2023-05-15T08:31:24Z</time>
      </trkpt>
      <trkpt lat="44.58237" lon="6.00275">
        <ele>1180</ele>
        <time>2023-05-15T08:31:25Z</time>
      </trkpt>
      <trkpt lat="44.58238" lon="6.00276">
        <ele>1180</ele>
        <time>2023-05-15T08:31:26Z</time>
      </trkpt>
      <trkpt lat="44.58238" lon="6.00276">
        <ele>1180.2</ele>
        <time>2023-05-15T08:31:27Z</time>
      </trkpt>
      <trkpt lat="44.5824" lon="6.00277">
        <ele>1180.6</ele>
        <time>2023-05-15T08:31:28Z</time>
      </trkpt>
      <trkpt lat="44.58241" lon="6.00278">
        <ele>1180.6</ele>
        <time>2023-05-15T08:31:29Z</time>
      </trkpt>
      <trkpt lat="44.58241" lon="6.00278">
        <ele>1180.8</ele>
        <time>2023-05-15T08:31:30Z</time>
      </trkpt>
      <trkpt lat="44.58241" lon="6.00278">
        <ele>1180.8</ele>
        <time>2023-05-15T08:31:31Z</time>
      </trkpt>
      <trkpt lat="44.58242" lon="6.00279">
        <ele>1181.2</ele>
        <time>2023-05-15T08:31:32Z</time>
      </trkpt>
      <trkpt lat="44.58242" lon="6.0028">
        <ele>1181.4</ele>
        <time>2023-05-15T08:31:33Z</time>
      </trkpt>
      <trkpt lat="44.58242" lon="6.0028">
        <ele>1181.4</ele>
        <time>2023-05-15T08:31:34Z</time>
      </trkpt>
      <trkpt lat="44.58242" lon="6.00281">
        <ele>1181.6</ele>
        <time>2023-05-15T08:31:35Z</time>
      </trkpt>
      <trkpt lat="44.58243" lon="6.00283">
        <ele>1181.8</ele>
        <time>2023-05-15T08:31:36Z</time>
      </trkpt>
      <trkpt lat="44.58243" lon="6.00284">
        <ele>1182</ele>
        <time>2023-05-15T08:31:37Z</time>
      </trkpt>
      <trkpt lat="44.58243" lon="6.00284">
        <ele>1182</ele>
        <time>2023-05-15T08:31:38Z</time>
      </trkpt>
      <trkpt lat="44.58243" lon="6.00284">
        <ele>1182.2</ele>
        <time>2023-05-15T08:31:39Z</time>
      </trkpt>
      <trkpt lat="44.58243" lon="6.00284">
        <ele>1182.4</ele>
        <time>2023-05-15T08:31:40Z</time>
      </trkpt>
      <trkpt lat="44.58243" lon="6.00284">
        <ele>1182.6</ele>
        <time>2023-05-15T08:31:41Z</time>
      </trkpt>
      <trkpt lat="44.58244" lon="6.00285">
        <ele>1183</ele>
        <time>2023-05-15T08:31:42Z</time>
      </trkpt>
      <trkpt lat="44.58244" lon="6.00285">
        <ele>1183.2</ele>
        <time>2023-05-15T08:31:43Z</time>
      </trkpt>
      <trkpt lat="44.58244" lon="6.00285">
        <ele>1183.6</ele>
        <time>2023-05-15T08:31:44Z</time>
      </trkpt>
      <trkpt lat="44.58244" lon="6.00285">
        <ele>1183.8</ele>
        <time>2023-05-15T08:31:45Z</time>
      </trkpt>
      <trkpt lat="44.58244" lon="6.00285">
        <ele>1184.2</ele>
        <time>2023-05-15T08:31:46Z</time>
      </trkpt>
      <trkpt lat="44.58244" lon="6.00285">
        <ele>1184.4</ele>
        <time>2023-05-15T08:31:47Z</time>
      </trkpt>
      <trkpt lat="44.58244" lon="6.00285">
        <ele>1184.8</ele>
        <time>2023-05-15T08:31:48Z</time>
      </trkpt>
      <trkpt lat="44.58246" lon="6.00287">
        <ele>1185</ele>
        <time>2023-05-15T08:31:49Z</time>
      </trkpt>
      <trkpt lat="44.58247" lon="6.00288">
        <ele>1185.4</ele>
        <time>2023-05-15T08:31:50Z</time>
      </trkpt>
      <trkpt lat="44.58249" lon="6.00288">
        <ele>1185.6</ele>
        <time>2023-05-15T08:31:51Z</time>
      </trkpt>
      <trkpt lat="44.58249" lon="6.00288">
        <ele>1185.8</ele>
        <time>2023-05-15T08:31:52Z</time>
      </trkpt>
      <trkpt lat="44.5825" lon="6.00289">
        <ele>1186</ele>
        <time>2023-05-15T08:31:53Z</time>
      </trkpt>
      <trkpt lat="44.58252" lon="6.0029">
        <ele>1186.2</ele>
        <time>2023-05-15T08:31:54Z</time>
      </trkpt>
      <trkpt lat="44.58253" lon="6.00291">
        <ele>1186.4</ele>
        <time>2023-05-15T08:31:55Z</time>
      </trkpt>
      <trkpt lat="44.58255" lon="6.00293">
        <ele>1186.6</ele>
        <time>2023-05-15T08:31:56Z</time>
      </trkpt>
      <trkpt lat="44.58255" lon="6.00293">
        <ele>1186.8</ele>
        <time>2023-05-15T08:31:57Z</time>
      </trkpt>
      <trkpt lat="44.58255" lon="6.00293">
        <ele>1186.8</ele>
        <time>2023-05-15T08:31:58Z</time>
      </trkpt>
      <trkpt lat="44.58257" lon="6.00294">
        <ele>1187</ele>
        <time>2023-05-15T08:31:59Z</time>
      </trkpt>
      <trkpt lat="44.58257" lon="6.00295">
        <ele>1187</ele>
        <time>2023-05-15T08:32:00Z</time>
      </trkpt>
      <trkpt lat="44.58259" lon="6.00295">
        <ele>1187.2</ele>
        <time>2023-05-15T08:32:03Z</time>
      </trkpt>
      <trkpt lat="44.58261" lon="6.00297">
        <ele>1187.2</ele>
        <time>2023-05-15T08:32:04Z</time>
      </trkpt>
      <trkpt lat="44.58264" lon="6.00299">
        <ele>1187.4</ele>
        <time>2023-05-15T08:32:05Z</time>
      </trkpt>
      <trkpt lat="44.58268" lon="6.00302">
        <ele>1187.6</ele>
        <time>2023-05-15T08:32:06Z</time>
      </trkpt>
      <trkpt lat="44.58269" lon="6.00303">
        <ele>1187.6</ele>
        <time>2023-05-15T08:32:07Z</time>
      </trkpt>
      <trkpt lat="44.58271" lon="6.00303">
        <ele>1188</ele>
        <time>2023-05-15T08:32:08Z</time>
      </trkpt>
      <trkpt lat="44.58272" lon="6.00305">
        <ele>1188.2</ele>
        <time>2023-05-15T08:32:09Z</time>
      </trkpt>
      <trkpt lat="44.58273" lon="6.00306">
        <ele>1188.4</ele>
        <time>2023-05-15T08:32:10Z</time>
      </trkpt>
      <trkpt lat="44.58276" lon="6.00308">
        <ele>1188.6</ele>
        <time>2023-05-15T08:32:11Z</time>
      </trkpt>
      <trkpt lat="44.58277" lon="6.0031">
        <ele>1188.6</ele>
        <time>2023-05-15T08:32:12Z</time>
      </trkpt>
      <trkpt lat="44.58278" lon="6.0031">
        <ele>1188.6</ele>
        <time>2023-05-15T08:32:13Z</time>
      </trkpt>
      <trkpt lat="44.58279" lon="6.00311">
        <ele>1188.6</ele>
        <time>2023-05-15T08:32:14Z</time>
      </trkpt>
      <trkpt lat="44.5828" lon="6.00312">
        <ele>1188.6</ele>
        <time>2023-05-15T08:32:15Z</time>
      </trkpt>
      <trkpt lat="44.58281" lon="6.00313">
        <ele>1188.8</ele>
        <time>2023-05-15T08:32:16Z</time>
      </trkpt>
      <trkpt lat="44.58282" lon="6.00315">
        <ele>1188.8</ele>
        <time>2023-05-15T08:32:17Z</time>
      </trkpt>
      <trkpt lat="44.58283" lon="6.00315">
        <ele>1188.8</ele>
        <time>2023-05-15T08:32:18Z</time>
      </trkpt>
      <trkpt lat="44.58283" lon="6.00315">
        <ele>1188.8</ele>
        <time>2023-05-15T08:32:19Z</time>
      </trkpt>
      <trkpt lat="44.58284" lon="6.00316">
        <ele>1189</ele>
        <time>2023-05-15T08:32:20Z</time>
      </trkpt>
      <trkpt lat="44.58284" lon="6.00316">
        <ele>1189.6</ele>
        <time>2023-05-15T08:32:22Z</time>
      </trkpt>
      <trkpt lat="44.58285" lon="6.00317">
        <ele>1189.6</ele>
        <time>2023-05-15T08:32:23Z</time>
      </trkpt>
      <trkpt lat="44.58285" lon="6.00317">
        <ele>1189.8</ele>
        <time>2023-05-15T08:32:24Z</time>
      </trkpt>
      <trkpt lat="44.58285" lon="6.00317">
        <ele>1190.2</ele>
        <time>2023-05-15T08:32:25Z</time>
      </trkpt>
      <trkpt lat="44.58287" lon="6.00318">
        <ele>1190.2</ele>
        <time>2023-05-15T08:32:26Z</time>
      </trkpt>
      <trkpt lat="44.58288" lon="6.00319">
        <ele>1190.6</ele>
        <time>2023-05-15T08:32:27Z</time>
      </trkpt>
      <trkpt lat="44.58288" lon="6.00319">
        <ele>1190.8</ele>
        <time>2023-05-15T08:32:28Z</time>
      </trkpt>
      <trkpt lat="44.58288" lon="6.00319">
        <ele>1191.2</ele>
        <time>2023-05-15T08:32:29Z</time>
      </trkpt>
      <trkpt lat="44.58288" lon="6.00319">
        <ele>1191.2</ele>
        <time>2023-05-15T08:32:30Z</time>
      </trkpt>
      <trkpt lat="44.58288" lon="6.00319">
        <ele>1191.4</ele>
        <time>2023-05-15T08:32:31Z</time>
      </trkpt>
      <trkpt lat="44.5829" lon="6.00319">
        <ele>1191.4</ele>
        <time>2023-05-15T08:32:32Z</time>
      </trkpt>
      <trkpt lat="44.58292" lon="6.0032">
        <ele>1191.6</ele>
        <time>2023-05-15T08:32:33Z</time>
      </trkpt>
      <trkpt lat="44.58293" lon="6.00321">
        <ele>1191.8</ele>
        <time>2023-05-15T08:32:34Z</time>
      </trkpt>
      <trkpt lat="44.58295" lon="6.00322">
        <ele>1191.8</ele>
        <time>2023-05-15T08:32:35Z</time>
      </trkpt>
      <trkpt lat="44.58298" lon="6.00323">
        <ele>1192</ele>
        <time>2023-05-15T08:32:36Z</time>
      </trkpt>
      <trkpt lat="44.58299" lon="6.00324">
        <ele>1192.2</ele>
        <time>2023-05-15T08:32:37Z</time>
      </trkpt>
      <trkpt lat="44.58301" lon="6.00325">
        <ele>1192.4</ele>
        <time>2023-05-15T08:32:38Z</time>
      </trkpt>
      <trkpt lat="44.58302" lon="6.00325">
        <ele>1192.4</ele>
        <time>2023-05-15T08:32:39Z</time>
      </trkpt>
      <trkpt lat="44.58302" lon="6.00325">
        <ele>1192.6</ele>
        <time>2023-05-15T08:32:40Z</time>
      </trkpt>
      <trkpt lat="44.58302" lon="6.00325">
        <ele>1192.8</ele>
        <time>2023-05-15T08:32:41Z</time>
      </trkpt>
      <trkpt lat="44.58304" lon="6.00326">
        <ele>1193</ele>
        <time>2023-05-15T08:32:42Z</time>
      </trkpt>
      <trkpt lat="44.58306" lon="6.00326">
        <ele>1193.2</ele>
        <time>2023-05-15T08:32:43Z</time>
      </trkpt>
      <trkpt lat="44.58307" lon="6.00326">
        <ele>1193.4</ele>
        <time>2023-05-15T08:32:44Z</time>
      </trkpt>
      <trkpt lat="44.58307" lon="6.00326">
        <ele>1193.8</ele>
        <time>2023-05-15T08:32:45Z</time>
      </trkpt>
      <trkpt lat="44.5831" lon="6.00327">
        <ele>1194</ele>
        <time>2023-05-15T08:32:46Z</time>
      </trkpt>
      <trkpt lat="44.58312" lon="6.00329">
        <ele>1194.2</ele>
        <time>2023-05-15T08:32:47Z</time>
      </trkpt>
      <trkpt lat="44.58312" lon="6.00329">
        <ele>1194.4</ele>
        <time>2023-05-15T08:32:48Z</time>
      </trkpt>
      <trkpt lat="44.58312" lon="6.00329">
        <ele>1194.4</ele>
        <time>2023-05-15T08:32:49Z</time>
      </trkpt>
      <trkpt lat="44.58314" lon="6.0033">
        <ele>1194.8</ele>
        <time>2023-05-15T08:32:52Z</time>
      </trkpt>
      <trkpt lat="44.58315" lon="6.0033">
        <ele>1195</ele>
        <time>2023-05-15T08:32:53Z</time>
      </trkpt>
      <trkpt lat="44.58317" lon="6.00331">
        <ele>1195</ele>
        <time>2023-05-15T08:32:54Z</time>
      </trkpt>
      <trkpt lat="44.58319" lon="6.00331">
        <ele>1195</ele>
        <time>2023-05-15T08:32:55Z</time>
      </trkpt>
      <trkpt lat="44.58321" lon="6.00332">
        <ele>1195.2</ele>
        <time>2023-05-15T08:32:56Z</time>
      </trkpt>
      <trkpt lat="44.58324" lon="6.00334">
        <ele>1195.2</ele>
        <time>2023-05-15T08:32:57Z</time>
      </trkpt>
      <trkpt lat="44.58324" lon="6.00334">
        <ele>1195.2</ele>
        <time>2023-05-15T08:32:58Z</time>
      </trkpt>
      <trkpt lat="44.58324" lon="6.00334">
        <ele>1195.4</ele>
        <time>2023-05-15T08:32:59Z</time>
      </trkpt>
      <trkpt lat="44.58325" lon="6.00334">
        <ele>1195.4</ele>
        <time>2023-05-15T08:33:00Z</time>
      </trkpt>
      <trkpt lat="44.58327" lon="6.00334">
        <ele>1195.4</ele>
        <time>2023-05-15T08:33:01Z</time>
      </trkpt>
      <trkpt lat="44.58327" lon="6.00334">
        <ele>1195.4</ele>
        <time>2023-05-15T08:33:02Z</time>
      </trkpt>
      <trkpt lat="44.58328" lon="6.00335">
        <ele>1195.6</ele>
        <time>2023-05-15T08:33:03Z</time>
      </trkpt>
      <trkpt lat="44.5833" lon="6.00336">
        <ele>1195.6</ele>
        <time>2023-05-15T08:33:04Z</time>
      </trkpt>
      <trkpt lat="44.58332" lon="6.00338">
        <ele>1195.8</ele>
        <time>2023-05-15T08:33:05Z</time>
      </trkpt>
      <trkpt lat="44.58332" lon="6.00338">
        <ele>1196</ele>
        <time>2023-05-15T08:33:06Z</time>
      </trkpt>
      <trkpt lat="44.58333" lon="6.00338">
        <ele>1196</ele>
        <time>2023-05-15T08:33:07Z</time>
      </trkpt>
      <trkpt lat="44.58334" lon="6.00339">
        <ele>1196.2</ele>
        <time>2023-05-15T08:33:08Z</time>
      </trkpt>
      <trkpt lat="44.58336" lon="6.0034">
        <ele>1196.2</ele>
        <time>2023-05-15T08:33:09Z</time>
      </trkpt>
      <trkpt lat="44.58338" lon="6.00341">
        <ele>1196.4</ele>
        <time>2023-05-15T08:33:10Z</time>
      </trkpt>
      <trkpt lat="44.58339" lon="6.00341">
        <ele>1196.4</ele>
        <time>2023-05-15T08:33:11Z</time>
      </trkpt>
      <trkpt lat="44.58339" lon="6.00341">
        <ele>1196.6</ele>
        <time>2023-05-15T08:33:12Z</time>
      </trkpt>
      <trkpt lat="44.5834" lon="6.00341">
        <ele>1196.8</ele>
        <time>2023-05-15T08:33:13Z</time>
      </trkpt>
      <trkpt lat="44.5834" lon="6.00341">
        <ele>1197</ele>
        <time>2023-05-15T08:33:14Z</time>
      </trkpt>
      <trkpt lat="44.58341" lon="6.00341">
        <ele>1197.2</ele>
        <time>2023-05-15T08:33:15Z</time>
      </trkpt>
      <trkpt lat="44.58342" lon="6.00341">
        <ele>1197.4</ele>
        <time>2023-05-15T08:33:16Z</time>
      </trkpt>
      <trkpt lat="44.58344" lon="6.00342">
        <ele>1197.8</ele>
        <time>2023-05-15T08:33:17Z</time>
      </trkpt>
      <trkpt lat="44.58346" lon="6.00342">
        <ele>1198</ele>
        <time>2023-05-15T08:33:18Z</time>
      </trkpt>
      <trkpt lat="44.58347" lon="6.00342">
        <ele>1198.4</ele>
        <time>2023-05-15T08:33:19Z</time>
      </trkpt>
      <trkpt lat="44.58347" lon="6.00342">
        <ele>1198.6</ele>
        <time>2023-05-15T08:33:20Z</time>
      </trkpt>
      <trkpt lat="44.58347" lon="6.00342">
        <ele>1199.4</ele>
        <time>2023-05-15T08:33:22Z</time>
      </trkpt>
      <trkpt lat="44.58347" lon="6.00342">
        <ele>1199.8</ele>
        <time>2023-05-15T08:33:24Z</time>
      </trkpt>
      <trkpt lat="44.58349" lon="6.00342">
        <ele>1200</ele>
        <time>2023-05-15T08:33:29Z</time>
      </trkpt>
      <trkpt lat="44.58349" lon="6.00342">
        <ele>1200.2</ele>
        <time>2023-05-15T08:33:32Z</time>
      </trkpt>
      <trkpt lat="44.58349" lon="6.00342">
        <ele>1200.8</ele>
        <time>2023-05-15T08:33:39Z</time>
      </trkpt>
      <trkpt lat="44.58349" lon="6.00342">
        <ele>1201.4</ele>
        <time>2023-05-15T08:33:45Z</time>
      </trkpt>
      <trkpt lat="44.58349" lon="6.00341">
        <ele>1201.8</ele>
        <time>2023-05-15T08:33:47Z</time>
      </trkpt>
      <trkpt lat="44.58351" lon="6.00342">
        <ele>1202</ele>
        <time>2023-05-15T08:33:48Z</time>
      </trkpt>
      <trkpt lat="44.58351" lon="6.00342">
        <ele>1202.2</ele>
        <time>2023-05-15T08:33:50Z</time>
      </trkpt>
      <trkpt lat="44.58357" lon="6.00343">
        <ele>1202.8</ele>
        <time>2023-05-15T08:33:56Z</time>
      </trkpt>
      <trkpt lat="44.58357" lon="6.00343">
        <ele>1203</ele>
        <time>2023-05-15T08:33:58Z</time>
      </trkpt>
      <trkpt lat="44.58358" lon="6.00344">
        <ele>1203.8</ele>
        <time>2023-05-15T08:34:04Z</time>
      </trkpt>
      <trkpt lat="44.5836" lon="6.00344">
        <ele>1204.2</ele>
        <time>2023-05-15T08:34:07Z</time>
      </trkpt>
      <trkpt lat="44.58365" lon="6.00346">
        <ele>1204.4</ele>
        <time>2023-05-15T08:34:11Z</time>
      </trkpt>
      <trkpt lat="44.58366" lon="6.00347">
        <ele>1204.4</ele>
        <time>2023-05-15T08:34:12Z</time>
      </trkpt>
      <trkpt lat="44.58366" lon="6.00347">
        <ele>1204.4</ele>
        <time>2023-05-15T08:34:13Z</time>
      </trkpt>
      <trkpt lat="44.58366" lon="6.00347">
        <ele>1204.6</ele>
        <time>2023-05-15T08:34:14Z</time>
      </trkpt>
      <trkpt lat="44.58368" lon="6.00348">
        <ele>1205.2</ele>
        <time>2023-05-15T08:34:22Z</time>
      </trkpt>
      <trkpt lat="44.58368" lon="6.00348">
        <ele>1205.2</ele>
        <time>2023-05-15T08:34:23Z</time>
      </trkpt>
      <trkpt lat="44.58371" lon="6.00352">
        <ele>1206.2</ele>
        <time>2023-05-15T08:34:31Z</time>
      </trkpt>
      <trkpt lat="44.58371" lon="6.00352">
        <ele>1206.4</ele>
        <time>2023-05-15T08:34:32Z</time>
      </trkpt>
      <trkpt lat="44.58372" lon="6.00353">
        <ele>1207</ele>
        <time>2023-05-15T08:34:37Z</time>
      </trkpt>
      <trkpt lat="44.58374" lon="6.00355">
        <ele>1207.2</ele>
        <time>2023-05-15T08:34:43Z</time>
      </trkpt>
      <trkpt lat="44.58384" lon="6.00363">
        <ele>1207</ele>
        <time>2023-05-15T08:34:47Z</time>
      </trkpt>
      <trkpt lat="44.58387" lon="6.00365">
        <ele>1207</ele>
        <time>2023-05-15T08:34:48Z</time>
      </trkpt>
      <trkpt lat="44.58393" lon="6.00368">
        <ele>1206.8</ele>
        <time>2023-05-15T08:34:50Z</time>
      </trkpt>
      <trkpt lat="44.58396" lon="6.0037">
        <ele>1206.8</ele>
        <time>2023-05-15T08:34:51Z</time>
      </trkpt>
      <trkpt lat="44.58403" lon="6.00376">
        <ele>1206.2</ele>
        <time>2023-05-15T08:34:53Z</time>
      </trkpt>
      <trkpt lat="44.58411" lon="6.00383">
        <ele>1205.4</ele>
        <time>2023-05-15T08:34:55Z</time>
      </trkpt>
      <trkpt lat="44.58429" lon="6.00395">
        <ele>1204.6</ele>
        <time>2023-05-15T08:34:59Z</time>
      </trkpt>
      <trkpt lat="44.58434" lon="6.00398">
        <ele>1204.4</ele>
        <time>2023-05-15T08:35:00Z</time>
      </trkpt>
      <trkpt lat="44.58454" lon="6.00414">
        <ele>1203.4</ele>
        <time>2023-05-15T08:35:04Z</time>
      </trkpt>
      <trkpt lat="44.58463" lon="6.00423">
        <ele>1202.6</ele>
        <time>2023-05-15T08:35:06Z</time>
      </trkpt>
      <trkpt lat="44.58468" lon="6.00427">
        <ele>1202.2</ele>
        <time>2023-05-15T08:35:07Z</time>
      </trkpt>
      <trkpt lat="44.58478" lon="6.00436">
        <ele>1201.6</ele>
        <time>2023-05-15T08:35:09Z</time>
      </trkpt>
      <trkpt lat="44.58488" lon="6.00446">
        <ele>1200.8</ele>
        <time>2023-05-15T08:35:11Z</time>
      </trkpt>
      <trkpt lat="44.58502" lon="6.00461">
        <ele>1199.4</ele>
        <time>2023-05-15T08:35:14Z</time>
      </trkpt>
      <trkpt lat="44.58513" lon="6.00472">
        <ele>1197.8</ele>
        <time>2023-05-15T08:35:16Z</time>
      </trkpt>
      <trkpt lat="44.58519" lon="6.00478">
        <ele>1197.6</ele>
        <time>2023-05-15T08:35:17Z</time>
      </trkpt>
      <trkpt lat="44.5853" lon="6.00489">
        <ele>1196.6</ele>
        <time>2023-05-15T08:35:19Z</time>
      </trkpt>
      <trkpt lat="44.58535" lon="6.00494">
        <ele>1196</ele>
        <time>2023-05-15T08:35:20Z</time>
      </trkpt>
      <trkpt lat="44.5854" lon="6.005">
        <ele>1195.6</ele>
        <time>2023-05-15T08:35:21Z</time>
      </trkpt>
      <trkpt lat="44.58552" lon="6.0051">
        <ele>1194</ele>
        <time>2023-05-15T08:35:23Z</time>
      </trkpt>
      <trkpt lat="44.58558" lon="6.00516">
        <ele>1193.6</ele>
        <time>2023-05-15T08:35:24Z</time>
      </trkpt>
      <trkpt lat="44.58563" lon="6.00521">
        <ele>1192.8</ele>
        <time>2023-05-15T08:35:25Z</time>
      </trkpt>
      <trkpt lat="44.58568" lon="6.00526">
        <ele>1192.6</ele>
        <time>2023-05-15T08:35:26Z</time>
      </trkpt>
      <trkpt lat="44.58573" lon="6.0053">
        <ele>1191.6</ele>
        <time>2023-05-15T08:35:27Z</time>
      </trkpt>
      <trkpt lat="44.58577" lon="6.00533">
        <ele>1191.4</ele>
        <time>2023-05-15T08:35:28Z</time>
      </trkpt>
      <trkpt lat="44.5858" lon="6.00537">
        <ele>1190.8</ele>
        <time>2023-05-15T08:35:29Z</time>
      </trkpt>
      <trkpt lat="44.58584" lon="6.0054">
        <ele>1190.4</ele>
        <time>2023-05-15T08:35:30Z</time>
      </trkpt>
      <trkpt lat="44.58587" lon="6.00544">
        <ele>1189.6</ele>
        <time>2023-05-15T08:35:31Z</time>
      </trkpt>
      <trkpt lat="44.58589" lon="6.00547">
        <ele>1189</ele>
        <time>2023-05-15T08:35:32Z</time>
      </trkpt>
      <trkpt lat="44.58592" lon="6.0055">
        <ele>1188.6</ele>
        <time>2023-05-15T08:35:33Z</time>
      </trkpt>
      <trkpt lat="44.58594" lon="6.00554">
        <ele>1188.2</ele>
        <time>2023-05-15T08:35:34Z</time>
      </trkpt>
      <trkpt lat="44.58598" lon="6.00563">
        <ele>1187.8</ele>
        <time>2023-05-15T08:35:36Z</time>
      </trkpt>
      <trkpt lat="44.58607" lon="6.00582">
        <ele>1186.6</ele>
        <time>2023-05-15T08:35:39Z</time>
      </trkpt>
      <trkpt lat="44.58616" lon="6.006">
        <ele>1185</ele>
        <time>2023-05-15T08:35:42Z</time>
      </trkpt>
      <trkpt lat="44.58622" lon="6.00612">
        <ele>1184</ele>
        <time>2023-05-15T08:35:44Z</time>
      </trkpt>
      <trkpt lat="44.58629" lon="6.00624">
        <ele>1183</ele>
        <time>2023-05-15T08:35:46Z</time>
      </trkpt>
      <trkpt lat="44.58636" lon="6.00635">
        <ele>1181.8</ele>
        <time>2023-05-15T08:35:48Z</time>
      </trkpt>
      <trkpt lat="44.58643" lon="6.00646">
        <ele>1180.6</ele>
        <time>2023-05-15T08:35:50Z</time>
      </trkpt>
      <trkpt lat="44.58647" lon="6.00652">
        <ele>1180.4</ele>
        <time>2023-05-15T08:35:51Z</time>
      </trkpt>
      <trkpt lat="44.58649" lon="6.00657">
        <ele>1179.6</ele>
        <time>2023-05-15T08:35:52Z</time>
      </trkpt>
      <trkpt lat="44.58651" lon="6.00661">
        <ele>1179.4</ele>
        <time>2023-05-15T08:35:53Z</time>
      </trkpt>
      <trkpt lat="44.58654" lon="6.00665">
        <ele>1178.8</ele>
        <time>2023-05-15T08:35:54Z</time>
      </trkpt>
      <trkpt lat="44.58656" lon="6.00669">
        <ele>1178.4</ele>
        <time>2023-05-15T08:35:55Z</time>
      </trkpt>
      <trkpt lat="44.58658" lon="6.00673">
        <ele>1178</ele>
        <time>2023-05-15T08:35:56Z</time>
      </trkpt>
      <trkpt lat="44.58659" lon="6.00678">
        <ele>1177.8</ele>
        <time>2023-05-15T08:35:57Z</time>
      </trkpt>
      <trkpt lat="44.58662" lon="6.00686">
        <ele>1177.2</ele>
        <time>2023-05-15T08:35:59Z</time>
      </trkpt>
      <trkpt lat="44.58662" lon="6.00689">
        <ele>1177</ele>
        <time>2023-05-15T08:36:00Z</time>
      </trkpt>
      <trkpt lat="44.58662" lon="6.00692">
        <ele>1176.6</ele>
        <time>2023-05-15T08:36:01Z</time>
      </trkpt>
      <trkpt lat="44.58662" lon="6.00693">
        <ele>1176.4</ele>
        <time>2023-05-15T08:36:02Z</time>
      </trkpt>
      <trkpt lat="44.58663" lon="6.00695">
        <ele>1176</ele>
        <time>2023-05-15T08:36:03Z</time>
      </trkpt>
      <trkpt lat="44.58663" lon="6.00696">
        <ele>1176</ele>
        <time>2023-05-15T08:36:04Z</time>
      </trkpt>
      <trkpt lat="44.58663" lon="6.00697">
        <ele>1175.8</ele>
        <time>2023-05-15T08:36:05Z</time>
      </trkpt>
      <trkpt lat="44.58663" lon="6.00697">
        <ele>1175.8</ele>
        <time>2023-05-15T08:36:06Z</time>
      </trkpt>
      <trkpt lat="44.58664" lon="6.00698">
        <ele>1175.6</ele>
        <time>2023-05-15T08:36:07Z</time>
      </trkpt>
      <trkpt lat="44.58665" lon="6.00705">
        <ele>1175.2</ele>
        <time>2023-05-15T08:36:10Z</time>
      </trkpt>
      <trkpt lat="44.58665" lon="6.00708">
        <ele>1175</ele>
        <time>2023-05-15T08:36:11Z</time>
      </trkpt>
      <trkpt lat="44.58666" lon="6.00721">
        <ele>1174.8</ele>
        <time>2023-05-15T08:36:14Z</time>
      </trkpt>
      <trkpt lat="44.58665" lon="6.0073">
        <ele>1174.4</ele>
        <time>2023-05-15T08:36:16Z</time>
      </trkpt>
      <trkpt lat="44.58665" lon="6.00735">
        <ele>1174.4</ele>
        <time>2023-05-15T08:36:17Z</time>
      </trkpt>
      <trkpt lat="44.58664" lon="6.00744">
        <ele>1173.8</ele>
        <time>2023-05-15T08:36:19Z</time>
      </trkpt>
      <trkpt lat="44.58661" lon="6.0077">
        <ele>1173</ele>
        <time>2023-05-15T08:36:24Z</time>
      </trkpt>
      <trkpt lat="44.58661" lon="6.00778">
        <ele>1173</ele>
        <time>2023-05-15T08:36:25Z</time>
      </trkpt>
      <trkpt lat="44.5866" lon="6.00786">
        <ele>1172.6</ele>
        <time>2023-05-15T08:36:26Z</time>
      </trkpt>
      <trkpt lat="44.58659" lon="6.00802">
        <ele>1172.2</ele>
        <time>2023-05-15T08:36:28Z</time>
      </trkpt>
      <trkpt lat="44.58657" lon="6.00819">
        <ele>1171.6</ele>
        <time>2023-05-15T08:36:30Z</time>
      </trkpt>
      <trkpt lat="44.58656" lon="6.00827">
        <ele>1171.2</ele>
        <time>2023-05-15T08:36:31Z</time>
      </trkpt>
      <trkpt lat="44.58658" lon="6.00851">
        <ele>1170</ele>
        <time>2023-05-15T08:36:34Z</time>
      </trkpt>
      <trkpt lat="44.58659" lon="6.00859">
        <ele>1169.2</ele>
        <time>2023-05-15T08:36:35Z</time>
      </trkpt>
      <trkpt lat="44.58659" lon="6.00868">
        <ele>1168.8</ele>
        <time>2023-05-15T08:36:36Z</time>
      </trkpt>
      <trkpt lat="44.5866" lon="6.00908">
        <ele>1167</ele>
        <time>2023-05-15T08:36:40Z</time>
      </trkpt>
      <trkpt lat="44.5866" lon="6.00938">
        <ele>1165.2</ele>
        <time>2023-05-15T08:36:43Z</time>
      </trkpt>
      <trkpt lat="44.58659" lon="6.00948">
        <ele>1165</ele>
        <time>2023-05-15T08:36:44Z</time>
      </trkpt>
      <trkpt lat="44.58659" lon="6.00958">
        <ele>1164.2</ele>
        <time>2023-05-15T08:36:45Z</time>
      </trkpt>
      <trkpt lat="44.58659" lon="6.00967">
        <ele>1164</ele>
        <time>2023-05-15T08:36:46Z</time>
      </trkpt>
      <trkpt lat="44.5866" lon="6.00975">
        <ele>1163.6</ele>
        <time>2023-05-15T08:36:47Z</time>
      </trkpt>
      <trkpt lat="44.58664" lon="6.00982">
        <ele>1163</ele>
        <time>2023-05-15T08:36:48Z</time>
      </trkpt>
      <trkpt lat="44.58669" lon="6.00987">
        <ele>1162.6</ele>
        <time>2023-05-15T08:36:49Z</time>
      </trkpt>
      <trkpt lat="44.58674" lon="6.00988">
        <ele>1162.4</ele>
        <time>2023-05-15T08:36:50Z</time>
      </trkpt>
      <trkpt lat="44.58679" lon="6.00988">
        <ele>1162</ele>
        <time>2023-05-15T08:36:51Z</time>
      </trkpt>
      <trkpt lat="44.58684" lon="6.00986">
        <ele>1161.6</ele>
        <time>2023-05-15T08:36:52Z</time>
      </trkpt>
      <trkpt lat="44.58689" lon="6.00983">
        <ele>1161.6</ele>
        <time>2023-05-15T08:36:53Z</time>
      </trkpt>
      <trkpt lat="44.58693" lon="6.00979">
        <ele>1161.6</ele>
        <time>2023-05-15T08:36:54Z</time>
      </trkpt>
      <trkpt lat="44.58697" lon="6.00975">
        <ele>1161.4</ele>
        <time>2023-05-15T08:36:55Z</time>
      </trkpt>
      <trkpt lat="44.58701" lon="6.00971">
        <ele>1161.4</ele>
        <time>2023-05-15T08:36:56Z</time>
      </trkpt>
      <trkpt lat="44.58708" lon="6.00962">
        <ele>1161.2</ele>
        <time>2023-05-15T08:36:58Z</time>
      </trkpt>
      <trkpt lat="44.58711" lon="6.00958">
        <ele>1161</ele>
        <time>2023-05-15T08:36:59Z</time>
      </trkpt>
      <trkpt lat="44.58714" lon="6.00954">
        <ele>1161</ele>
        <time>2023-05-15T08:37:00Z</time>
      </trkpt>
      <trkpt lat="44.58718" lon="6.0095">
        <ele>1160.8</ele>
        <time>2023-05-15T08:37:01Z</time>
      </trkpt>
      <trkpt lat="44.58721" lon="6.00947">
        <ele>1160.8</ele>
        <time>2023-05-15T08:37:02Z</time>
      </trkpt>
      <trkpt lat="44.58726" lon="6.00945">
        <ele>1160.8</ele>
        <time>2023-05-15T08:37:03Z</time>
      </trkpt>
      <trkpt lat="44.5873" lon="6.00944">
        <ele>1160.8</ele>
        <time>2023-05-15T08:37:04Z</time>
      </trkpt>
      <trkpt lat="44.58735" lon="6.00945">
        <ele>1160.8</ele>
        <time>2023-05-15T08:37:05Z</time>
      </trkpt>
      <trkpt lat="44.5874" lon="6.00946">
        <ele>1160.6</ele>
        <time>2023-05-15T08:37:06Z</time>
      </trkpt>
      <trkpt lat="44.58745" lon="6.00949">
        <ele>1160.6</ele>
        <time>2023-05-15T08:37:07Z</time>
      </trkpt>
      <trkpt lat="44.5875" lon="6.00952">
        <ele>1160.4</ele>
        <time>2023-05-15T08:37:08Z</time>
      </trkpt>
      <trkpt lat="44.58753" lon="6.00955">
        <ele>1160.2</ele>
        <time>2023-05-15T08:37:09Z</time>
      </trkpt>
      <trkpt lat="44.58757" lon="6.00958">
        <ele>1160</ele>
        <time>2023-05-15T08:37:10Z</time>
      </trkpt>
      <trkpt lat="44.5876" lon="6.00961">
        <ele>1160</ele>
        <time>2023-05-15T08:37:11Z</time>
      </trkpt>
      <trkpt lat="44.58763" lon="6.00962">
        <ele>1159.8</ele>
        <time>2023-05-15T08:37:12Z</time>
      </trkpt>
      <trkpt lat="44.58764" lon="6.00962">
        <ele>1159.6</ele>
        <time>2023-05-15T08:37:13Z</time>
      </trkpt>
      <trkpt lat="44.58765" lon="6.00963">
        <ele>1159</ele>
        <time>2023-05-15T08:37:14Z</time>
      </trkpt>
      <trkpt lat="44.58765" lon="6.00963">
        <ele>1158.6</ele>
        <time>2023-05-15T08:37:15Z</time>
      </trkpt>
      <trkpt lat="44.58765" lon="6.00963">
        <ele>1157.6</ele>
        <time>2023-05-15T08:37:21Z</time>
      </trkpt>
      <trkpt lat="44.58766" lon="6.00964">
        <ele>1156.6</ele>
        <time>2023-05-15T08:38:02Z</time>
      </trkpt>
      <trkpt lat="44.58767" lon="6.00966">
        <ele>1156.6</ele>
        <time>2023-05-15T08:38:03Z</time>
      </trkpt>
      <trkpt lat="44.58768" lon="6.00967">
        <ele>1156.8</ele>
        <time>2023-05-15T08:38:04Z</time>
      </trkpt>
      <trkpt lat="44.58771" lon="6.00969">
        <ele>1156.8</ele>
        <time>2023-05-15T08:38:05Z</time>
      </trkpt>
      <trkpt lat="44.58783" lon="6.00976">
        <ele>1156.6</ele>
        <time>2023-05-15T08:38:09Z</time>
      </trkpt>
      <trkpt lat="44.58791" lon="6.00978">
        <ele>1156.4</ele>
        <time>2023-05-15T08:38:11Z</time>
      </trkpt>
      <trkpt lat="44.58796" lon="6.00978">
        <ele>1156.2</ele>
        <time>2023-05-15T08:38:12Z</time>
      </trkpt>
      <trkpt lat="44.58807" lon="6.0098">
        <ele>1155.8</ele>
        <time>2023-05-15T08:38:15Z</time>
      </trkpt>
      <trkpt lat="44.58813" lon="6.00983">
        <ele>1155.4</ele>
        <time>2023-05-15T08:38:17Z</time>
      </trkpt>
      <trkpt lat="44.58816" lon="6.00984">
        <ele>1155.2</ele>
        <time>2023-05-15T08:38:18Z</time>
      </trkpt>
      <trkpt lat="44.58818" lon="6.00986">
        <ele>1155.2</ele>
        <time>2023-05-15T08:38:19Z</time>
      </trkpt>
      <trkpt lat="44.58819" lon="6.00988">
        <ele>1155</ele>
        <time>2023-05-15T08:38:20Z</time>
      </trkpt>
      <trkpt lat="44.58819" lon="6.00989">
        <ele>1155</ele>
        <time>2023-05-15T08:38:21Z</time>
      </trkpt>
      <trkpt lat="44.58819" lon="6.00989">
        <ele>1155</ele>
        <time>2023-05-15T08:38:22Z</time>
      </trkpt>
      <trkpt lat="44.5882" lon="6.0099">
        <ele>1155</ele>
        <time>2023-05-15T08:38:23Z</time>
      </trkpt>
      <trkpt lat="44.58821" lon="6.0099">
        <ele>1154.8</ele>
        <time>2023-05-15T08:38:24Z</time>
      </trkpt>
      <trkpt lat="44.58822" lon="6.00992">
        <ele>1154.8</ele>
        <time>2023-05-15T08:38:25Z</time>
      </trkpt>
      <trkpt lat="44.58824" lon="6.00999">
        <ele>1154.8</ele>
        <time>2023-05-15T08:38:28Z</time>
      </trkpt>
      <trkpt lat="44.58825" lon="6.01001">
        <ele>1154.8</ele>
        <time>2023-05-15T08:38:29Z</time>
      </trkpt>
      <trkpt lat="44.58825" lon="6.01003">
        <ele>1155</ele>
        <time>2023-05-15T08:38:30Z</time>
      </trkpt>
      <trkpt lat="44.58825" lon="6.01005">
        <ele>1155.2</ele>
        <time>2023-05-15T08:38:31Z</time>
      </trkpt>
      <trkpt lat="44.58827" lon="6.01006">
        <ele>1155.2</ele>
        <time>2023-05-15T08:38:32Z</time>
      </trkpt>
      <trkpt lat="44.58828" lon="6.01006">
        <ele>1155.4</ele>
        <time>2023-05-15T08:38:33Z</time>
      </trkpt>
      <trkpt lat="44.58828" lon="6.01004">
        <ele>1155.8</ele>
        <time>2023-05-15T08:38:34Z</time>
      </trkpt>
      <trkpt lat="44.58829" lon="6.01003">
        <ele>1156.2</ele>
        <time>2023-05-15T08:38:38Z</time>
      </trkpt>
      <trkpt lat="44.58828" lon="6.01">
        <ele>1156.4</ele>
        <time>2023-05-15T08:38:50Z</time>
      </trkpt>
      <trkpt lat="44.58827" lon="6.00995">
        <ele>1156.4</ele>
        <time>2023-05-15T08:38:52Z</time>
      </trkpt>
      <trkpt lat="44.58824" lon="6.00985">
        <ele>1156.4</ele>
        <time>2023-05-15T08:38:55Z</time>
      </trkpt>
      <trkpt lat="44.58826" lon="6.00983">
        <ele>1156.2</ele>
        <time>2023-05-15T08:38:56Z</time>
      </trkpt>
      <trkpt lat="44.58834" lon="6.00991">
        <ele>1155.8</ele>
        <time>2023-05-15T08:38:59Z</time>
      </trkpt>
      <trkpt lat="44.58836" lon="6.00995">
        <ele>1155.6</ele>
        <time>2023-05-15T08:39:00Z</time>
      </trkpt>
      <trkpt lat="44.58837" lon="6.01011">
        <ele>1154.8</ele>
        <time>2023-05-15T08:39:02Z</time>
      </trkpt>
      <trkpt lat="44.58837" lon="6.01018">
        <ele>1154.6</ele>
        <time>2023-05-15T08:39:03Z</time>
      </trkpt>
      <trkpt lat="44.58836" lon="6.01026">
        <ele>1154.2</ele>
        <time>2023-05-15T08:39:04Z</time>
      </trkpt>
      <trkpt lat="44.58836" lon="6.01041">
        <ele>1153.4</ele>
        <time>2023-05-15T08:39:06Z</time>
      </trkpt>
      <trkpt lat="44.58836" lon="6.01064">
        <ele>1153</ele>
        <time>2023-05-15T08:39:09Z</time>
      </trkpt>
      <trkpt lat="44.58836" lon="6.01073">
        <ele>1152.8</ele>
        <time>2023-05-15T08:39:10Z</time>
      </trkpt>
      <trkpt lat="44.58837" lon="6.01081">
        <ele>1152.6</ele>
        <time>2023-05-15T08:39:11Z</time>
      </trkpt>
      <trkpt lat="44.58838" lon="6.01087">
        <ele>1152.4</ele>
        <time>2023-05-15T08:39:12Z</time>
      </trkpt>
      <trkpt lat="44.58841" lon="6.01095">
        <ele>1151.8</ele>
        <time>2023-05-15T08:39:13Z</time>
      </trkpt>
      <trkpt lat="44.58844" lon="6.01102">
        <ele>1151.6</ele>
        <time>2023-05-15T08:39:14Z</time>
      </trkpt>
      <trkpt lat="44.58847" lon="6.01107">
        <ele>1151.2</ele>
        <time>2023-05-15T08:39:15Z</time>
      </trkpt>
      <trkpt lat="44.5885" lon="6.01112">
        <ele>1151</ele>
        <time>2023-05-15T08:39:16Z</time>
      </trkpt>
      <trkpt lat="44.5886" lon="6.01128">
        <ele>1150.6</ele>
        <time>2023-05-15T08:39:19Z</time>
      </trkpt>
      <trkpt lat="44.58865" lon="6.01134">
        <ele>1150.6</ele>
        <time>2023-05-15T08:39:20Z</time>
      </trkpt>
      <trkpt lat="44.58869" lon="6.01137">
        <ele>1150.4</ele>
        <time>2023-05-15T08:39:21Z</time>
      </trkpt>
      <trkpt lat="44.58874" lon="6.01143">
        <ele>1150</ele>
        <time>2023-05-15T08:39:22Z</time>
      </trkpt>
      <trkpt lat="44.58877" lon="6.01146">
        <ele>1150</ele>
        <time>2023-05-15T08:39:23Z</time>
      </trkpt>
      <trkpt lat="44.58887" lon="6.01157">
        <ele>1149.6</ele>
        <time>2023-05-15T08:39:25Z</time>
      </trkpt>
      <trkpt lat="44.5889" lon="6.01162">
        <ele>1149.4</ele>
        <time>2023-05-15T08:39:26Z</time>
      </trkpt>
      <trkpt lat="44.58895" lon="6.0117">
        <ele>1148.8</ele>
        <time>2023-05-15T08:39:27Z</time>
      </trkpt>
      <trkpt lat="44.58904" lon="6.01183">
        <ele>1148.2</ele>
        <time>2023-05-15T08:39:29Z</time>
      </trkpt>
      <trkpt lat="44.5891" lon="6.01187">
        <ele>1148.2</ele>
        <time>2023-05-15T08:39:30Z</time>
      </trkpt>
      <trkpt lat="44.58916" lon="6.01189">
        <ele>1147.6</ele>
        <time>2023-05-15T08:39:31Z</time>
      </trkpt>
      <trkpt lat="44.58922" lon="6.0119">
        <ele>1147.2</ele>
        <time>2023-05-15T08:39:32Z</time>
      </trkpt>
      <trkpt lat="44.58927" lon="6.01188">
        <ele>1147.2</ele>
        <time>2023-05-15T08:39:33Z</time>
      </trkpt>
      <trkpt lat="44.58931" lon="6.01185">
        <ele>1146.4</ele>
        <time>2023-05-15T08:39:34Z</time>
      </trkpt>
      <trkpt lat="44.58936" lon="6.01182">
        <ele>1146</ele>
        <time>2023-05-15T08:39:35Z</time>
      </trkpt>
      <trkpt lat="44.58942" lon="6.01176">
        <ele>1145.2</ele>
        <time>2023-05-15T08:39:36Z</time>
      </trkpt>
      <trkpt lat="44.58946" lon="6.0117">
        <ele>1145</ele>
        <time>2023-05-15T08:39:37Z</time>
      </trkpt>
      <trkpt lat="44.5895" lon="6.01163">
        <ele>1144.4</ele>
        <time>2023-05-15T08:39:38Z</time>
      </trkpt>
      <trkpt lat="44.58954" lon="6.01155">
        <ele>1144</ele>
        <time>2023-05-15T08:39:39Z</time>
      </trkpt>
      <trkpt lat="44.58957" lon="6.01147">
        <ele>1143</ele>
        <time>2023-05-15T08:39:40Z</time>
      </trkpt>
      <trkpt lat="44.5896" lon="6.0114">
        <ele>1142.6</ele>
        <time>2023-05-15T08:39:41Z</time>
      </trkpt>
      <trkpt lat="44.58963" lon="6.01129">
        <ele>1142.4</ele>
        <time>2023-05-15T08:39:42Z</time>
      </trkpt>
      <trkpt lat="44.58967" lon="6.01109">
        <ele>1141.2</ele>
        <time>2023-05-15T08:39:44Z</time>
      </trkpt>
      <trkpt lat="44.58969" lon="6.01088">
        <ele>1140</ele>
        <time>2023-05-15T08:39:46Z</time>
      </trkpt>
      <trkpt lat="44.58971" lon="6.01078">
        <ele>1139.4</ele>
        <time>2023-05-15T08:39:47Z</time>
      </trkpt>
      <trkpt lat="44.58972" lon="6.01067">
        <ele>1138.8</ele>
        <time>2023-05-15T08:39:48Z</time>
      </trkpt>
      <trkpt lat="44.58974" lon="6.01057">
        <ele>1138.6</ele>
        <time>2023-05-15T08:39:49Z</time>
      </trkpt>
      <trkpt lat="44.58981" lon="6.01038">
        <ele>1137.8</ele>
        <time>2023-05-15T08:39:51Z</time>
      </trkpt>
      <trkpt lat="44.58988" lon="6.01031">
        <ele>1137.2</ele>
        <time>2023-05-15T08:39:52Z</time>
      </trkpt>
      <trkpt lat="44.58996" lon="6.01026">
        <ele>1137</ele>
        <time>2023-05-15T08:39:53Z</time>
      </trkpt>
      <trkpt lat="44.59005" lon="6.01024">
        <ele>1136.4</ele>
        <time>2023-05-15T08:39:54Z</time>
      </trkpt>
      <trkpt lat="44.59014" lon="6.01023">
        <ele>1136.2</ele>
        <time>2023-05-15T08:39:55Z</time>
      </trkpt>
      <trkpt lat="44.59022" lon="6.01021">
        <ele>1134.8</ele>
        <time>2023-05-15T08:39:56Z</time>
      </trkpt>
      <trkpt lat="44.59031" lon="6.01017">
        <ele>1133.6</ele>
        <time>2023-05-15T08:39:57Z</time>
      </trkpt>
      <trkpt lat="44.59039" lon="6.01011">
        <ele>1133.2</ele>
        <time>2023-05-15T08:39:58Z</time>
      </trkpt>
      <trkpt lat="44.59047" lon="6.01004">
        <ele>1132.6</ele>
        <time>2023-05-15T08:39:59Z</time>
      </trkpt>
      <trkpt lat="44.59062" lon="6.00988">
        <ele>1131.6</ele>
        <time>2023-05-15T08:40:01Z</time>
      </trkpt>
      <trkpt lat="44.59069" lon="6.0098">
        <ele>1131</ele>
        <time>2023-05-15T08:40:02Z</time>
      </trkpt>
      <trkpt lat="44.59076" lon="6.00973">
        <ele>1129.4</ele>
        <time>2023-05-15T08:40:03Z</time>
      </trkpt>
      <trkpt lat="44.59083" lon="6.00967">
        <ele>1128.2</ele>
        <time>2023-05-15T08:40:04Z</time>
      </trkpt>
      <trkpt lat="44.59091" lon="6.00962">
        <ele>1127.8</ele>
        <time>2023-05-15T08:40:05Z</time>
      </trkpt>
      <trkpt lat="44.59099" lon="6.00959">
        <ele>1126.6</ele>
        <time>2023-05-15T08:40:06Z</time>
      </trkpt>
      <trkpt lat="44.59124" lon="6.00951">
        <ele>1125.2</ele>
        <time>2023-05-15T08:40:09Z</time>
      </trkpt>
      <trkpt lat="44.59133" lon="6.00948">
        <ele>1124.6</ele>
        <time>2023-05-15T08:40:10Z</time>
      </trkpt>
      <trkpt lat="44.59149" lon="6.00944">
        <ele>1123.8</ele>
        <time>2023-05-15T08:40:12Z</time>
      </trkpt>
      <trkpt lat="44.59156" lon="6.00946">
        <ele>1123.4</ele>
        <time>2023-05-15T08:40:13Z</time>
      </trkpt>
      <trkpt lat="44.59163" lon="6.0095">
        <ele>1123.2</ele>
        <time>2023-05-15T08:40:14Z</time>
      </trkpt>
      <trkpt lat="44.5917" lon="6.00957">
        <ele>1122.8</ele>
        <time>2023-05-15T08:40:15Z</time>
      </trkpt>
      <trkpt lat="44.59175" lon="6.00964">
        <ele>1122.6</ele>
        <time>2023-05-15T08:40:16Z</time>
      </trkpt>
      <trkpt lat="44.59178" lon="6.0097">
        <ele>1122</ele>
        <time>2023-05-15T08:40:17Z</time>
      </trkpt>
      <trkpt lat="44.59183" lon="6.00977">
        <ele>1121.8</ele>
        <time>2023-05-15T08:40:18Z</time>
      </trkpt>
      <trkpt lat="44.59189" lon="6.00986">
        <ele>1121.4</ele>
        <time>2023-05-15T08:40:19Z</time>
      </trkpt>
      <trkpt lat="44.59204" lon="6.01005">
        <ele>1120.4</ele>
        <time>2023-05-15T08:40:22Z</time>
      </trkpt>
      <trkpt lat="44.5921" lon="6.01012">
        <ele>1120.2</ele>
        <time>2023-05-15T08:40:23Z</time>
      </trkpt>
      <trkpt lat="44.59229" lon="6.01026">
        <ele>1119.2</ele>
        <time>2023-05-15T08:40:26Z</time>
      </trkpt>
      <trkpt lat="44.59235" lon="6.01029">
        <ele>1119</ele>
        <time>2023-05-15T08:40:27Z</time>
      </trkpt>
      <trkpt lat="44.59241" lon="6.0103">
        <ele>1118.6</ele>
        <time>2023-05-15T08:40:28Z</time>
      </trkpt>
      <trkpt lat="44.59246" lon="6.0103">
        <ele>1118.2</ele>
        <time>2023-05-15T08:40:29Z</time>
      </trkpt>
      <trkpt lat="44.5925" lon="6.01027">
        <ele>1118</ele>
        <time>2023-05-15T08:40:30Z</time>
      </trkpt>
      <trkpt lat="44.59253" lon="6.01023">
        <ele>1117.8</ele>
        <time>2023-05-15T08:40:31Z</time>
      </trkpt>
      <trkpt lat="44.59255" lon="6.01017">
        <ele>1117.8</ele>
        <time>2023-05-15T08:40:32Z</time>
      </trkpt>
      <trkpt lat="44.59256" lon="6.01012">
        <ele>1117.6</ele>
        <time>2023-05-15T08:40:33Z</time>
      </trkpt>
      <trkpt lat="44.59255" lon="6.01007">
        <ele>1117.6</ele>
        <time>2023-05-15T08:40:34Z</time>
      </trkpt>
      <trkpt lat="44.59253" lon="6.01003">
        <ele>1117.4</ele>
        <time>2023-05-15T08:40:35Z</time>
      </trkpt>
      <trkpt lat="44.59251" lon="6.01001">
        <ele>1117.4</ele>
        <time>2023-05-15T08:40:36Z</time>
      </trkpt>
      <trkpt lat="44.59247" lon="6.00998">
        <ele>1117.4</ele>
        <time>2023-05-15T08:40:37Z</time>
      </trkpt>
      <trkpt lat="44.59244" lon="6.00996">
        <ele>1117.4</ele>
        <time>2023-05-15T08:40:38Z</time>
      </trkpt>
      <trkpt lat="44.59236" lon="6.0099">
        <ele>1117</ele>
        <time>2023-05-15T08:40:41Z</time>
      </trkpt>
      <trkpt lat="44.59233" lon="6.00988">
        <ele>1117.2</ele>
        <time>2023-05-15T08:40:42Z</time>
      </trkpt>
      <trkpt lat="44.59231" lon="6.00986">
        <ele>1117.2</ele>
        <time>2023-05-15T08:40:43Z</time>
      </trkpt>
      <trkpt lat="44.5923" lon="6.00984">
        <ele>1117.2</ele>
        <time>2023-05-15T08:40:44Z</time>
      </trkpt>
      <trkpt lat="44.59227" lon="6.00983">
        <ele>1117.4</ele>
        <time>2023-05-15T08:40:45Z</time>
      </trkpt>
      <trkpt lat="44.59223" lon="6.00978">
        <ele>1117.6</ele>
        <time>2023-05-15T08:40:47Z</time>
      </trkpt>
      <trkpt lat="44.59221" lon="6.00976">
        <ele>1117.4</ele>
        <time>2023-05-15T08:40:48Z</time>
      </trkpt>
      <trkpt lat="44.59219" lon="6.00973">
        <ele>1117.4</ele>
        <time>2023-05-15T08:40:49Z</time>
      </trkpt>
      <trkpt lat="44.59218" lon="6.00971">
        <ele>1117.4</ele>
        <time>2023-05-15T08:40:50Z</time>
      </trkpt>
      <trkpt lat="44.59217" lon="6.00969">
        <ele>1117.6</ele>
        <time>2023-05-15T08:40:51Z</time>
      </trkpt>
      <trkpt lat="44.59215" lon="6.00967">
        <ele>1117.6</ele>
        <time>2023-05-15T08:40:52Z</time>
      </trkpt>
      <trkpt lat="44.59214" lon="6.00964">
        <ele>1117.8</ele>
        <time>2023-05-15T08:40:53Z</time>
      </trkpt>
      <trkpt lat="44.59213" lon="6.00962">
        <ele>1118</ele>
        <time>2023-05-15T08:40:54Z</time>
      </trkpt>
      <trkpt lat="44.59213" lon="6.00959">
        <ele>1118</ele>
        <time>2023-05-15T08:40:55Z</time>
      </trkpt>
      <trkpt lat="44.59213" lon="6.00957">
        <ele>1118.2</ele>
        <time>2023-05-15T08:40:56Z</time>
      </trkpt>
      <trkpt lat="44.59214" lon="6.00954">
        <ele>1118.4</ele>
        <time>2023-05-15T08:40:57Z</time>
      </trkpt>
      <trkpt lat="44.59214" lon="6.00952">
        <ele>1118.6</ele>
        <time>2023-05-15T08:40:58Z</time>
      </trkpt>
      <trkpt lat="44.59214" lon="6.00948">
        <ele>1118.6</ele>
        <time>2023-05-15T08:40:59Z</time>
      </trkpt>
      <trkpt lat="44.59214" lon="6.00946">
        <ele>1118.8</ele>
        <time>2023-05-15T08:41:00Z</time>
      </trkpt>
      <trkpt lat="44.59213" lon="6.00943">
        <ele>1119.2</ele>
        <time>2023-05-15T08:41:01Z</time>
      </trkpt>
      <trkpt lat="44.59213" lon="6.00941">
        <ele>1119.4</ele>
        <time>2023-05-15T08:41:02Z</time>
      </trkpt>
      <trkpt lat="44.59212" lon="6.00939">
        <ele>1119.6</ele>
        <time>2023-05-15T08:41:03Z</time>
      </trkpt>
      <trkpt lat="44.59212" lon="6.00928">
        <ele>1120.4</ele>
        <time>2023-05-15T08:41:07Z</time>
      </trkpt>
      <trkpt lat="44.59211" lon="6.00918">
        <ele>1121</ele>
        <time>2023-05-15T08:41:11Z</time>
      </trkpt>
      <trkpt lat="44.59211" lon="6.00915">
        <ele>1121</ele>
        <time>2023-05-15T08:41:12Z</time>
      </trkpt>
      <trkpt lat="44.59211" lon="6.00913">
        <ele>1121.2</ele>
        <time>2023-05-15T08:41:13Z</time>
      </trkpt>
      <trkpt lat="44.5921" lon="6.0091">
        <ele>1121.4</ele>
        <time>2023-05-15T08:41:14Z</time>
      </trkpt>
      <trkpt lat="44.59211" lon="6.00908">
        <ele>1121.6</ele>
        <time>2023-05-15T08:41:15Z</time>
      </trkpt>
      <trkpt lat="44.59211" lon="6.00905">
        <ele>1121.8</ele>
        <time>2023-05-15T08:41:16Z</time>
      </trkpt>
      <trkpt lat="44.59211" lon="6.00903">
        <ele>1122</ele>
        <time>2023-05-15T08:41:17Z</time>
      </trkpt>
      <trkpt lat="44.59211" lon="6.009">
        <ele>1122</ele>
        <time>2023-05-15T08:41:18Z</time>
      </trkpt>
      <trkpt lat="44.59211" lon="6.00898">
        <ele>1122.2</ele>
        <time>2023-05-15T08:41:19Z</time>
      </trkpt>
      <trkpt lat="44.59212" lon="6.00895">
        <ele>1122.2</ele>
        <time>2023-05-15T08:41:20Z</time>
      </trkpt>
      <trkpt lat="44.59212" lon="6.00893">
        <ele>1122.4</ele>
        <time>2023-05-15T08:41:21Z</time>
      </trkpt>
      <trkpt lat="44.59212" lon="6.0089">
        <ele>1122.6</ele>
        <time>2023-05-15T08:41:22Z</time>
      </trkpt>
      <trkpt lat="44.59212" lon="6.00887">
        <ele>1122.8</ele>
        <time>2023-05-15T08:41:23Z</time>
      </trkpt>
      <trkpt lat="44.59212" lon="6.00884">
        <ele>1122.8</ele>
        <time>2023-05-15T08:41:24Z</time>
      </trkpt>
      <trkpt lat="44.59212" lon="6.00882">
        <ele>1123</ele>
        <time>2023-05-15T08:41:25Z</time>
      </trkpt>
      <trkpt lat="44.59212" lon="6.00879">
        <ele>1123.4</ele>
        <time>2023-05-15T08:41:26Z</time>
      </trkpt>
      <trkpt lat="44.59212" lon="6.00877">
        <ele>1123.6</ele>
        <time>2023-05-15T08:41:27Z</time>
      </trkpt>
      <trkpt lat="44.59212" lon="6.00874">
        <ele>1123.8</ele>
        <time>2023-05-15T08:41:28Z</time>
      </trkpt>
      <trkpt lat="44.59212" lon="6.00872">
        <ele>1124</ele>
        <time>2023-05-15T08:41:29Z</time>
      </trkpt>
      <trkpt lat="44.59212" lon="6.0087">
        <ele>1124.2</ele>
        <time>2023-05-15T08:41:30Z</time>
      </trkpt>
      <trkpt lat="44.59212" lon="6.00868">
        <ele>1124.4</ele>
        <time>2023-05-15T08:41:31Z</time>
      </trkpt>
      <trkpt lat="44.59211" lon="6.00865">
        <ele>1124.8</ele>
        <time>2023-05-15T08:41:32Z</time>
      </trkpt>
      <trkpt lat="44.59211" lon="6.00863">
        <ele>1125.2</ele>
        <time>2023-05-15T08:41:33Z</time>
      </trkpt>
      <trkpt lat="44.59211" lon="6.00861">
        <ele>1125.2</ele>
        <time>2023-05-15T08:41:34Z</time>
      </trkpt>
      <trkpt lat="44.59211" lon="6.00859">
        <ele>1125.4</ele>
        <time>2023-05-15T08:41:35Z</time>
      </trkpt>
      <trkpt lat="44.5921" lon="6.00856">
        <ele>1125.4</ele>
        <time>2023-05-15T08:41:36Z</time>
      </trkpt>
      <trkpt lat="44.5921" lon="6.00853">
        <ele>1125.6</ele>
        <time>2023-05-15T08:41:37Z</time>
      </trkpt>
      <trkpt lat="44.5921" lon="6.00851">
        <ele>1125.8</ele>
        <time>2023-05-15T08:41:38Z</time>
      </trkpt>
      <trkpt lat="44.5921" lon="6.00849">
        <ele>1126</ele>
        <time>2023-05-15T08:41:39Z</time>
      </trkpt>
      <trkpt lat="44.5921" lon="6.00847">
        <ele>1126</ele>
        <time>2023-05-15T08:41:40Z</time>
      </trkpt>
      <trkpt lat="44.5921" lon="6.00844">
        <ele>1126.4</ele>
        <time>2023-05-15T08:41:41Z</time>
      </trkpt>
      <trkpt lat="44.59209" lon="6.00842">
        <ele>1126.4</ele>
        <time>2023-05-15T08:41:42Z</time>
      </trkpt>
      <trkpt lat="44.59209" lon="6.0084">
        <ele>1126.6</ele>
        <time>2023-05-15T08:41:43Z</time>
      </trkpt>
      <trkpt lat="44.59209" lon="6.00838">
        <ele>1126.8</ele>
        <time>2023-05-15T08:41:44Z</time>
      </trkpt>
      <trkpt lat="44.59208" lon="6.00836">
        <ele>1126.8</ele>
        <time>2023-05-15T08:41:45Z</time>
      </trkpt>
      <trkpt lat="44.59208" lon="6.00833">
        <ele>1127</ele>
        <time>2023-05-15T08:41:46Z</time>
      </trkpt>
      <trkpt lat="44.59208" lon="6.00831">
        <ele>1127.2</ele>
        <time>2023-05-15T08:41:47Z</time>
      </trkpt>
      <trkpt lat="44.59208" lon="6.00829">
        <ele>1127.2</ele>
        <time>2023-05-15T08:41:48Z</time>
      </trkpt>
      <trkpt lat="44.59208" lon="6.00827">
        <ele>1127.4</ele>
        <time>2023-05-15T08:41:49Z</time>
      </trkpt>
      <trkpt lat="44.59208" lon="6.00824">
        <ele>1127.4</ele>
        <time>2023-05-15T08:41:50Z</time>
      </trkpt>
      <trkpt lat="44.59207" lon="6.00822">
        <ele>1127.6</ele>
        <time>2023-05-15T08:41:51Z</time>
      </trkpt>
      <trkpt lat="44.59207" lon="6.0082">
        <ele>1127.8</ele>
        <time>2023-05-15T08:41:52Z</time>
      </trkpt>
      <trkpt lat="44.59207" lon="6.00817">
        <ele>1128</ele>
        <time>2023-05-15T08:41:53Z</time>
      </trkpt>
      <trkpt lat="44.59207" lon="6.00815">
        <ele>1128.2</ele>
        <time>2023-05-15T08:41:54Z</time>
      </trkpt>
      <trkpt lat="44.59206" lon="6.00813">
        <ele>1128.4</ele>
        <time>2023-05-15T08:41:55Z</time>
      </trkpt>
      <trkpt lat="44.59205" lon="6.00812">
        <ele>1128.6</ele>
        <time>2023-05-15T08:41:56Z</time>
      </trkpt>
      <trkpt lat="44.59204" lon="6.0081">
        <ele>1128.8</ele>
        <time>2023-05-15T08:41:57Z</time>
      </trkpt>
      <trkpt lat="44.59203" lon="6.00808">
        <ele>1128.8</ele>
        <time>2023-05-15T08:41:58Z</time>
      </trkpt>
      <trkpt lat="44.59202" lon="6.00807">
        <ele>1129</ele>
        <time>2023-05-15T08:41:59Z</time>
      </trkpt>
      <trkpt lat="44.59202" lon="6.00805">
        <ele>1129.2</ele>
        <time>2023-05-15T08:42:00Z</time>
      </trkpt>
      <trkpt lat="44.59201" lon="6.00803">
        <ele>1129.2</ele>
        <time>2023-05-15T08:42:01Z</time>
      </trkpt>
      <trkpt lat="44.592" lon="6.00802">
        <ele>1129.4</ele>
        <time>2023-05-15T08:42:02Z</time>
      </trkpt>
      <trkpt lat="44.59199" lon="6.008">
        <ele>1129.4</ele>
        <time>2023-05-15T08:42:03Z</time>
      </trkpt>
      <trkpt lat="44.59198" lon="6.00799">
        <ele>1129.6</ele>
        <time>2023-05-15T08:42:04Z</time>
      </trkpt>
      <trkpt lat="44.59197" lon="6.00798">
        <ele>1129.8</ele>
        <time>2023-05-15T08:42:05Z</time>
      </trkpt>
      <trkpt lat="44.59196" lon="6.00796">
        <ele>1130</ele>
        <time>2023-05-15T08:42:06Z</time>
      </trkpt>
      <trkpt lat="44.59195" lon="6.00795">
        <ele>1130.2</ele>
        <time>2023-05-15T08:42:07Z</time>
      </trkpt>
      <trkpt lat="44.59194" lon="6.00793">
        <ele>1130.4</ele>
        <time>2023-05-15T08:42:08Z</time>
      </trkpt>
      <trkpt lat="44.59193" lon="6.00791">
        <ele>1130.6</ele>
        <time>2023-05-15T08:42:09Z</time>
      </trkpt>
      <trkpt lat="44.59192" lon="6.0079">
        <ele>1130.8</ele>
        <time>2023-05-15T08:42:10Z</time>
      </trkpt>
      <trkpt lat="44.59191" lon="6.00789">
        <ele>1131</ele>
        <time>2023-05-15T08:42:11Z</time>
      </trkpt>
      <trkpt lat="44.5919" lon="6.00787">
        <ele>1131</ele>
        <time>2023-05-15T08:42:12Z</time>
      </trkpt>
      <trkpt lat="44.5919" lon="6.00786">
        <ele>1131.2</ele>
        <time>2023-05-15T08:42:13Z</time>
      </trkpt>
      <trkpt lat="44.59189" lon="6.00784">
        <ele>1131.2</ele>
        <time>2023-05-15T08:42:14Z</time>
      </trkpt>
      <trkpt lat="44.59188" lon="6.00783">
        <ele>1131.4</ele>
        <time>2023-05-15T08:42:15Z</time>
      </trkpt>
      <trkpt lat="44.59187" lon="6.00782">
        <ele>1131.6</ele>
        <time>2023-05-15T08:42:16Z</time>
      </trkpt>
      <trkpt lat="44.59185" lon="6.00781">
        <ele>1131.6</ele>
        <time>2023-05-15T08:42:17Z</time>
      </trkpt>
      <trkpt lat="44.59185" lon="6.00779">
        <ele>1131.8</ele>
        <time>2023-05-15T08:42:18Z</time>
      </trkpt>
      <trkpt lat="44.59183" lon="6.00777">
        <ele>1132</ele>
        <time>2023-05-15T08:42:19Z</time>
      </trkpt>
      <trkpt lat="44.59182" lon="6.00776">
        <ele>1132.2</ele>
        <time>2023-05-15T08:42:20Z</time>
      </trkpt>
      <trkpt lat="44.59181" lon="6.00774">
        <ele>1132.2</ele>
        <time>2023-05-15T08:42:21Z</time>
      </trkpt>
      <trkpt lat="44.5918" lon="6.00773">
        <ele>1132.2</ele>
        <time>2023-05-15T08:42:22Z</time>
      </trkpt>
      <trkpt lat="44.59179" lon="6.00771">
        <ele>1132.6</ele>
        <time>2023-05-15T08:42:23Z</time>
      </trkpt>
      <trkpt lat="44.59178" lon="6.0077">
        <ele>1132.6</ele>
        <time>2023-05-15T08:42:24Z</time>
      </trkpt>
      <trkpt lat="44.59176" lon="6.00769">
        <ele>1132.6</ele>
        <time>2023-05-15T08:42:25Z</time>
      </trkpt>
      <trkpt lat="44.59175" lon="6.00768">
        <ele>1132.8</ele>
        <time>2023-05-15T08:42:26Z</time>
      </trkpt>
      <trkpt lat="44.59174" lon="6.00766">
        <ele>1133</ele>
        <time>2023-05-15T08:42:27Z</time>
      </trkpt>
      <trkpt lat="44.59172" lon="6.00765">
        <ele>1133</ele>
        <time>2023-05-15T08:42:28Z</time>
      </trkpt>
      <trkpt lat="44.59171" lon="6.00764">
        <ele>1133</ele>
        <time>2023-05-15T08:42:29Z</time>
      </trkpt>
      <trkpt lat="44.5917" lon="6.00763">
        <ele>1133</ele>
        <time>2023-05-15T08:42:30Z</time>
      </trkpt>
      <trkpt lat="44.59168" lon="6.00762">
        <ele>1133.2</ele>
        <time>2023-05-15T08:42:31Z</time>
      </trkpt>
      <trkpt lat="44.59167" lon="6.00761">
        <ele>1133.4</ele>
        <time>2023-05-15T08:42:32Z</time>
      </trkpt>
      <trkpt lat="44.59166" lon="6.00759">
        <ele>1133.4</ele>
        <time>2023-05-15T08:42:33Z</time>
      </trkpt>
      <trkpt lat="44.59165" lon="6.00758">
        <ele>1133.6</ele>
        <time>2023-05-15T08:42:34Z</time>
      </trkpt>
      <trkpt lat="44.59163" lon="6.00757">
        <ele>1133.6</ele>
        <time>2023-05-15T08:42:35Z</time>
      </trkpt>
      <trkpt lat="44.59162" lon="6.00756">
        <ele>1133.8</ele>
        <time>2023-05-15T08:42:36Z</time>
      </trkpt>
      <trkpt lat="44.59161" lon="6.00754">
        <ele>1134</ele>
        <time>2023-05-15T08:42:37Z</time>
      </trkpt>
      <trkpt lat="44.59159" lon="6.00753">
        <ele>1134</ele>
        <time>2023-05-15T08:42:38Z</time>
      </trkpt>
      <trkpt lat="44.59158" lon="6.00752">
        <ele>1134.4</ele>
        <time>2023-05-15T08:42:39Z</time>
      </trkpt>
      <trkpt lat="44.59157" lon="6.0075">
        <ele>1134.6</ele>
        <time>2023-05-15T08:42:40Z</time>
      </trkpt>
      <trkpt lat="44.59155" lon="6.00749">
        <ele>1134.8</ele>
        <time>2023-05-15T08:42:41Z</time>
      </trkpt>
      <trkpt lat="44.59154" lon="6.00747">
        <ele>1134.8</ele>
        <time>2023-05-15T08:42:42Z</time>
      </trkpt>
      <trkpt lat="44.59152" lon="6.00746">
        <ele>1135</ele>
        <time>2023-05-15T08:42:43Z</time>
      </trkpt>
      <trkpt lat="44.59151" lon="6.00745">
        <ele>1135.2</ele>
        <time>2023-05-15T08:42:44Z</time>
      </trkpt>
      <trkpt lat="44.5915" lon="6.00744">
        <ele>1135.4</ele>
        <time>2023-05-15T08:42:45Z</time>
      </trkpt>
      <trkpt lat="44.59149" lon="6.00743">
        <ele>1135.4</ele>
        <time>2023-05-15T08:42:46Z</time>
      </trkpt>
      <trkpt lat="44.59147" lon="6.00742">
        <ele>1135.6</ele>
        <time>2023-05-15T08:42:47Z</time>
      </trkpt>
      <trkpt lat="44.59146" lon="6.00741">
        <ele>1135.6</ele>
        <time>2023-05-15T08:42:48Z</time>
      </trkpt>
      <trkpt lat="44.59145" lon="6.0074">
        <ele>1135.8</ele>
        <time>2023-05-15T08:42:49Z</time>
      </trkpt>
      <trkpt lat="44.59143" lon="6.00739">
        <ele>1136</ele>
        <time>2023-05-15T08:42:50Z</time>
      </trkpt>
      <trkpt lat="44.59142" lon="6.00738">
        <ele>1136</ele>
        <time>2023-05-15T08:42:51Z</time>
      </trkpt>
      <trkpt lat="44.59141" lon="6.00736">
        <ele>1136.2</ele>
        <time>2023-05-15T08:42:52Z</time>
      </trkpt>
      <trkpt lat="44.5914" lon="6.00734">
        <ele>1136.2</ele>
        <time>2023-05-15T08:42:53Z</time>
      </trkpt>
      <trkpt lat="44.59139" lon="6.00733">
        <ele>1136.4</ele>
        <time>2023-05-15T08:42:54Z</time>
      </trkpt>
      <trkpt lat="44.59138" lon="6.00732">
        <ele>1136.6</ele>
        <time>2023-05-15T08:42:55Z</time>
      </trkpt>
      <trkpt lat="44.59137" lon="6.0073">
        <ele>1136.8</ele>
        <time>2023-05-15T08:42:56Z</time>
      </trkpt>
      <trkpt lat="44.59136" lon="6.00729">
        <ele>1137</ele>
        <time>2023-05-15T08:42:57Z</time>
      </trkpt>
      <trkpt lat="44.59135" lon="6.00727">
        <ele>1137</ele>
        <time>2023-05-15T08:42:58Z</time>
      </trkpt>
      <trkpt lat="44.59133" lon="6.00726">
        <ele>1137.2</ele>
        <time>2023-05-15T08:42:59Z</time>
      </trkpt>
      <trkpt lat="44.59132" lon="6.00725">
        <ele>1137.2</ele>
        <time>2023-05-15T08:43:00Z</time>
      </trkpt>
      <trkpt lat="44.5913" lon="6.00724">
        <ele>1137.6</ele>
        <time>2023-05-15T08:43:01Z</time>
      </trkpt>
      <trkpt lat="44.59129" lon="6.00723">
        <ele>1137.6</ele>
        <time>2023-05-15T08:43:02Z</time>
      </trkpt>
      <trkpt lat="44.59128" lon="6.00722">
        <ele>1137.8</ele>
        <time>2023-05-15T08:43:03Z</time>
      </trkpt>
      <trkpt lat="44.59127" lon="6.00721">
        <ele>1137.8</ele>
        <time>2023-05-15T08:43:04Z</time>
      </trkpt>
      <trkpt lat="44.59126" lon="6.00719">
        <ele>1138</ele>
        <time>2023-05-15T08:43:05Z</time>
      </trkpt>
      <trkpt lat="44.59125" lon="6.00718">
        <ele>1138.2</ele>
        <time>2023-05-15T08:43:06Z</time>
      </trkpt>
      <trkpt lat="44.59124" lon="6.00716">
        <ele>1138.4</ele>
        <time>2023-05-15T08:43:07Z</time>
      </trkpt>
      <trkpt lat="44.59123" lon="6.00715">
        <ele>1138.6</ele>
        <time>2023-05-15T08:43:08Z</time>
      </trkpt>
      <trkpt lat="44.59122" lon="6.00713">
        <ele>1138.6</ele>
        <time>2023-05-15T08:43:09Z</time>
      </trkpt>
      <trkpt lat="44.59121" lon="6.00712">
        <ele>1138.8</ele>
        <time>2023-05-15T08:43:10Z</time>
      </trkpt>
      <trkpt lat="44.59119" lon="6.00711">
        <ele>1139</ele>
        <time>2023-05-15T08:43:11Z</time>
      </trkpt>
      <trkpt lat="44.59118" lon="6.0071">
        <ele>1139.2</ele>
        <time>2023-05-15T08:43:12Z</time>
      </trkpt>
      <trkpt lat="44.59117" lon="6.00709">
        <ele>1139.2</ele>
        <time>2023-05-15T08:43:13Z</time>
      </trkpt>
      <trkpt lat="44.59115" lon="6.00707">
        <ele>1139.2</ele>
        <time>2023-05-15T08:43:14Z</time>
      </trkpt>
      <trkpt lat="44.59114" lon="6.00706">
        <ele>1139.4</ele>
        <time>2023-05-15T08:43:15Z</time>
      </trkpt>
      <trkpt lat="44.59113" lon="6.00704">
        <ele>1139.6</ele>
        <time>2023-05-15T08:43:16Z</time>
      </trkpt>
      <trkpt lat="44.59112" lon="6.00703">
        <ele>1139.8</ele>
        <time>2023-05-15T08:43:17Z</time>
      </trkpt>
      <trkpt lat="44.5911" lon="6.00701">
        <ele>1140</ele>
        <time>2023-05-15T08:43:18Z</time>
      </trkpt>
      <trkpt lat="44.59109" lon="6.007">
        <ele>1140</ele>
        <time>2023-05-15T08:43:19Z</time>
      </trkpt>
      <trkpt lat="44.59108" lon="6.00698">
        <ele>1140.2</ele>
        <time>2023-05-15T08:43:20Z</time>
      </trkpt>
      <trkpt lat="44.59107" lon="6.00696">
        <ele>1140.2</ele>
        <time>2023-05-15T08:43:21Z</time>
      </trkpt>
      <trkpt lat="44.59106" lon="6.00694">
        <ele>1140.2</ele>
        <time>2023-05-15T08:43:22Z</time>
      </trkpt>
      <trkpt lat="44.59105" lon="6.00692">
        <ele>1140.4</ele>
        <time>2023-05-15T08:43:23Z</time>
      </trkpt>
      <trkpt lat="44.59104" lon="6.0069">
        <ele>1140.6</ele>
        <time>2023-05-15T08:43:24Z</time>
      </trkpt>
      <trkpt lat="44.59103" lon="6.00689">
        <ele>1140.8</ele>
        <time>2023-05-15T08:43:25Z</time>
      </trkpt>
      <trkpt lat="44.59103" lon="6.00686">
        <ele>1141</ele>
        <time>2023-05-15T08:43:26Z</time>
      </trkpt>
      <trkpt lat="44.59102" lon="6.00685">
        <ele>1141.2</ele>
        <time>2023-05-15T08:43:27Z</time>
      </trkpt>
      <trkpt lat="44.59101" lon="6.00683">
        <ele>1141.4</ele>
        <time>2023-05-15T08:43:28Z</time>
      </trkpt>
      <trkpt lat="44.591" lon="6.0068">
        <ele>1141.6</ele>
        <time>2023-05-15T08:43:29Z</time>
      </trkpt>
      <trkpt lat="44.591" lon="6.00678">
        <ele>1141.8</ele>
        <time>2023-05-15T08:43:30Z</time>
      </trkpt>
      <trkpt lat="44.591" lon="6.00676">
        <ele>1142</ele>
        <time>2023-05-15T08:43:31Z</time>
      </trkpt>
      <trkpt lat="44.59099" lon="6.00674">
        <ele>1142</ele>
        <time>2023-05-15T08:43:32Z</time>
      </trkpt>
      <trkpt lat="44.59098" lon="6.00673">
        <ele>1142.4</ele>
        <time>2023-05-15T08:43:33Z</time>
      </trkpt>
      <trkpt lat="44.59098" lon="6.0067">
        <ele>1142.4</ele>
        <time>2023-05-15T08:43:34Z</time>
      </trkpt>
      <trkpt lat="44.59097" lon="6.00668">
        <ele>1142.6</ele>
        <time>2023-05-15T08:43:35Z</time>
      </trkpt>
      <trkpt lat="44.59096" lon="6.00666">
        <ele>1142.8</ele>
        <time>2023-05-15T08:43:36Z</time>
      </trkpt>
      <trkpt lat="44.59096" lon="6.00664">
        <ele>1143</ele>
        <time>2023-05-15T08:43:37Z</time>
      </trkpt>
      <trkpt lat="44.59096" lon="6.00661">
        <ele>1143</ele>
        <time>2023-05-15T08:43:38Z</time>
      </trkpt>
      <trkpt lat="44.59095" lon="6.00658">
        <ele>1143</ele>
        <time>2023-05-15T08:43:39Z</time>
      </trkpt>
      <trkpt lat="44.59095" lon="6.00657">
        <ele>1143.2</ele>
        <time>2023-05-15T08:43:40Z</time>
      </trkpt>
      <trkpt lat="44.59094" lon="6.00654">
        <ele>1143.2</ele>
        <time>2023-05-15T08:43:41Z</time>
      </trkpt>
      <trkpt lat="44.59094" lon="6.00652">
        <ele>1143.4</ele>
        <time>2023-05-15T08:43:42Z</time>
      </trkpt>
      <trkpt lat="44.59094" lon="6.0065">
        <ele>1143.6</ele>
        <time>2023-05-15T08:43:43Z</time>
      </trkpt>
      <trkpt lat="44.59094" lon="6.00647">
        <ele>1143.6</ele>
        <time>2023-05-15T08:43:44Z</time>
      </trkpt>
      <trkpt lat="44.59094" lon="6.00645">
        <ele>1143.8</ele>
        <time>2023-05-15T08:43:45Z</time>
      </trkpt>
      <trkpt lat="44.59094" lon="6.00643">
        <ele>1143.8</ele>
        <time>2023-05-15T08:43:46Z</time>
      </trkpt>
      <trkpt lat="44.59094" lon="6.00641">
        <ele>1144</ele>
        <time>2023-05-15T08:43:47Z</time>
      </trkpt>
      <trkpt lat="44.59094" lon="6.0064">
        <ele>1144</ele>
        <time>2023-05-15T08:43:48Z</time>
      </trkpt>
      <trkpt lat="44.59094" lon="6.00637">
        <ele>1144.2</ele>
        <time>2023-05-15T08:43:49Z</time>
      </trkpt>
      <trkpt lat="44.59094" lon="6.00635">
        <ele>1144.4</ele>
        <time>2023-05-15T08:43:50Z</time>
      </trkpt>
      <trkpt lat="44.59094" lon="6.00633">
        <ele>1144.4</ele>
        <time>2023-05-15T08:43:51Z</time>
      </trkpt>
      <trkpt lat="44.59094" lon="6.00631">
        <ele>1144.6</ele>
        <time>2023-05-15T08:43:52Z</time>
      </trkpt>
      <trkpt lat="44.59094" lon="6.00629">
        <ele>1144.8</ele>
        <time>2023-05-15T08:43:53Z</time>
      </trkpt>
      <trkpt lat="44.59093" lon="6.00626">
        <ele>1145.2</ele>
        <time>2023-05-15T08:43:54Z</time>
      </trkpt>
      <trkpt lat="44.59093" lon="6.00624">
        <ele>1145.2</ele>
        <time>2023-05-15T08:43:55Z</time>
      </trkpt>
      <trkpt lat="44.59093" lon="6.00622">
        <ele>1145.6</ele>
        <time>2023-05-15T08:43:56Z</time>
      </trkpt>
      <trkpt lat="44.59092" lon="6.0062">
        <ele>1145.6</ele>
        <time>2023-05-15T08:43:57Z</time>
      </trkpt>
      <trkpt lat="44.59092" lon="6.00617">
        <ele>1145.8</ele>
        <time>2023-05-15T08:43:58Z</time>
      </trkpt>
      <trkpt lat="44.59092" lon="6.00616">
        <ele>1146</ele>
        <time>2023-05-15T08:43:59Z</time>
      </trkpt>
      <trkpt lat="44.59091" lon="6.00614">
        <ele>1146</ele>
        <time>2023-05-15T08:44:00Z</time>
      </trkpt>
      <trkpt lat="44.59091" lon="6.00612">
        <ele>1146.2</ele>
        <time>2023-05-15T08:44:01Z</time>
      </trkpt>
      <trkpt lat="44.59091" lon="6.0061">
        <ele>1146.4</ele>
        <time>2023-05-15T08:44:02Z</time>
      </trkpt>
      <trkpt lat="44.59091" lon="6.00608">
        <ele>1146.4</ele>
        <time>2023-05-15T08:44:03Z</time>
      </trkpt>
      <trkpt lat="44.59091" lon="6.00606">
        <ele>1146.6</ele>
        <time>2023-05-15T08:44:04Z</time>
      </trkpt>
      <trkpt lat="44.5909" lon="6.00604">
        <ele>1147</ele>
        <time>2023-05-15T08:44:05Z</time>
      </trkpt>
      <trkpt lat="44.5909" lon="6.00602">
        <ele>1147.2</ele>
        <time>2023-05-15T08:44:06Z</time>
      </trkpt>
      <trkpt lat="44.59089" lon="6.006">
        <ele>1147.2</ele>
        <time>2023-05-15T08:44:07Z</time>
      </trkpt>
      <trkpt lat="44.59089" lon="6.00598">
        <ele>1147.4</ele>
        <time>2023-05-15T08:44:08Z</time>
      </trkpt>
      <trkpt lat="44.59089" lon="6.00597">
        <ele>1147.6</ele>
        <time>2023-05-15T08:44:09Z</time>
      </trkpt>
      <trkpt lat="44.59089" lon="6.00595">
        <ele>1147.8</ele>
        <time>2023-05-15T08:44:10Z</time>
      </trkpt>
      <trkpt lat="44.59088" lon="6.00593">
        <ele>1147.8</ele>
        <time>2023-05-15T08:44:11Z</time>
      </trkpt>
      <trkpt lat="44.59087" lon="6.00591">
        <ele>1148</ele>
        <time>2023-05-15T08:44:12Z</time>
      </trkpt>
      <trkpt lat="44.59086" lon="6.00589">
        <ele>1148.2</ele>
        <time>2023-05-15T08:44:13Z</time>
      </trkpt>
      <trkpt lat="44.59084" lon="6.00587">
        <ele>1148.2</ele>
        <time>2023-05-15T08:44:14Z</time>
      </trkpt>
      <trkpt lat="44.59083" lon="6.00585">
        <ele>1148.4</ele>
        <time>2023-05-15T08:44:15Z</time>
      </trkpt>
      <trkpt lat="44.59082" lon="6.00584">
        <ele>1148.4</ele>
        <time>2023-05-15T08:44:16Z</time>
      </trkpt>
      <trkpt lat="44.59082" lon="6.00582">
        <ele>1148.8</ele>
        <time>2023-05-15T08:44:17Z</time>
      </trkpt>
      <trkpt lat="44.59081" lon="6.00581">
        <ele>1148.8</ele>
        <time>2023-05-15T08:44:18Z</time>
      </trkpt>
      <trkpt lat="44.59079" lon="6.00579">
        <ele>1149</ele>
        <time>2023-05-15T08:44:19Z</time>
      </trkpt>
      <trkpt lat="44.59079" lon="6.00578">
        <ele>1149.2</ele>
        <time>2023-05-15T08:44:20Z</time>
      </trkpt>
      <trkpt lat="44.59077" lon="6.00577">
        <ele>1149.6</ele>
        <time>2023-05-15T08:44:21Z</time>
      </trkpt>
      <trkpt lat="44.59076" lon="6.00576">
        <ele>1149.8</ele>
        <time>2023-05-15T08:44:22Z</time>
      </trkpt>
      <trkpt lat="44.59074" lon="6.00575">
        <ele>1149.8</ele>
        <time>2023-05-15T08:44:23Z</time>
      </trkpt>
      <trkpt lat="44.59073" lon="6.00574">
        <ele>1150</ele>
        <time>2023-05-15T08:44:24Z</time>
      </trkpt>
      <trkpt lat="44.59072" lon="6.00573">
        <ele>1150</ele>
        <time>2023-05-15T08:44:25Z</time>
      </trkpt>
      <trkpt lat="44.59071" lon="6.00571">
        <ele>1150</ele>
        <time>2023-05-15T08:44:26Z</time>
      </trkpt>
      <trkpt lat="44.59069" lon="6.0057">
        <ele>1150</ele>
        <time>2023-05-15T08:44:27Z</time>
      </trkpt>
      <trkpt lat="44.59068" lon="6.00569">
        <ele>1150.2</ele>
        <time>2023-05-15T08:44:28Z</time>
      </trkpt>
      <trkpt lat="44.59067" lon="6.00568">
        <ele>1150.2</ele>
        <time>2023-05-15T08:44:29Z</time>
      </trkpt>
      <trkpt lat="44.59065" lon="6.00567">
        <ele>1150.4</ele>
        <time>2023-05-15T08:44:30Z</time>
      </trkpt>
      <trkpt lat="44.59063" lon="6.00567">
        <ele>1150.6</ele>
        <time>2023-05-15T08:44:31Z</time>
      </trkpt>
      <trkpt lat="44.59062" lon="6.00566">
        <ele>1150.8</ele>
        <time>2023-05-15T08:44:32Z</time>
      </trkpt>
      <trkpt lat="44.5906" lon="6.00565">
        <ele>1151.2</ele>
        <time>2023-05-15T08:44:33Z</time>
      </trkpt>
      <trkpt lat="44.59059" lon="6.00565">
        <ele>1151.4</ele>
        <time>2023-05-15T08:44:34Z</time>
      </trkpt>
      <trkpt lat="44.59057" lon="6.00564">
        <ele>1151.6</ele>
        <time>2023-05-15T08:44:35Z</time>
      </trkpt>
      <trkpt lat="44.59056" lon="6.00563">
        <ele>1151.8</ele>
        <time>2023-05-15T08:44:36Z</time>
      </trkpt>
      <trkpt lat="44.59055" lon="6.00563">
        <ele>1151.8</ele>
        <time>2023-05-15T08:44:37Z</time>
      </trkpt>
      <trkpt lat="44.59053" lon="6.00562">
        <ele>1152</ele>
        <time>2023-05-15T08:44:38Z</time>
      </trkpt>
      <trkpt lat="44.59052" lon="6.00561">
        <ele>1152.2</ele>
        <time>2023-05-15T08:44:39Z</time>
      </trkpt>
      <trkpt lat="44.5905" lon="6.00561">
        <ele>1152.2</ele>
        <time>2023-05-15T08:44:40Z</time>
      </trkpt>
      <trkpt lat="44.59048" lon="6.00561">
        <ele>1152.2</ele>
        <time>2023-05-15T08:44:41Z</time>
      </trkpt>
      <trkpt lat="44.59046" lon="6.0056">
        <ele>1152.4</ele>
        <time>2023-05-15T08:44:42Z</time>
      </trkpt>
      <trkpt lat="44.59044" lon="6.0056">
        <ele>1152.4</ele>
        <time>2023-05-15T08:44:43Z</time>
      </trkpt>
      <trkpt lat="44.59043" lon="6.0056">
        <ele>1152.6</ele>
        <time>2023-05-15T08:44:44Z</time>
      </trkpt>
      <trkpt lat="44.59041" lon="6.00559">
        <ele>1152.6</ele>
        <time>2023-05-15T08:44:45Z</time>
      </trkpt>
      <trkpt lat="44.59039" lon="6.00558">
        <ele>1152.6</ele>
        <time>2023-05-15T08:44:46Z</time>
      </trkpt>
      <trkpt lat="44.59038" lon="6.00557">
        <ele>1152.6</ele>
        <time>2023-05-15T08:44:47Z</time>
      </trkpt>
      <trkpt lat="44.59036" lon="6.00556">
        <ele>1152.8</ele>
        <time>2023-05-15T08:44:48Z</time>
      </trkpt>
      <trkpt lat="44.59035" lon="6.00554">
        <ele>1152.8</ele>
        <time>2023-05-15T08:44:49Z</time>
      </trkpt>
      <trkpt lat="44.59034" lon="6.00553">
        <ele>1152.8</ele>
        <time>2023-05-15T08:44:50Z</time>
      </trkpt>
      <trkpt lat="44.59032" lon="6.00552">
        <ele>1153</ele>
        <time>2023-05-15T08:44:51Z</time>
      </trkpt>
      <trkpt lat="44.59031" lon="6.00551">
        <ele>1153</ele>
        <time>2023-05-15T08:44:52Z</time>
      </trkpt>
      <trkpt lat="44.5903" lon="6.0055">
        <ele>1153.4</ele>
        <time>2023-05-15T08:44:53Z</time>
      </trkpt>
      <trkpt lat="44.59028" lon="6.00549">
        <ele>1153.4</ele>
        <time>2023-05-15T08:44:54Z</time>
      </trkpt>
      <trkpt lat="44.59027" lon="6.00548">
        <ele>1153.6</ele>
        <time>2023-05-15T08:44:55Z</time>
      </trkpt>
      <trkpt lat="44.59026" lon="6.00547">
        <ele>1153.6</ele>
        <time>2023-05-15T08:44:56Z</time>
      </trkpt>
      <trkpt lat="44.59025" lon="6.00545">
        <ele>1153.8</ele>
        <time>2023-05-15T08:44:57Z</time>
      </trkpt>
      <trkpt lat="44.59023" lon="6.00544">
        <ele>1153.8</ele>
        <time>2023-05-15T08:44:58Z</time>
      </trkpt>
      <trkpt lat="44.59022" lon="6.00543">
        <ele>1153.8</ele>
        <time>2023-05-15T08:44:59Z</time>
      </trkpt>
      <trkpt lat="44.5902" lon="6.00541">
        <ele>1154</ele>
        <time>2023-05-15T08:45:00Z</time>
      </trkpt>
      <trkpt lat="44.59019" lon="6.00539">
        <ele>1154.2</ele>
        <time>2023-05-15T08:45:01Z</time>
      </trkpt>
      <trkpt lat="44.59018" lon="6.00537">
        <ele>1154.8</ele>
        <time>2023-05-15T08:45:02Z</time>
      </trkpt>
      <trkpt lat="44.59018" lon="6.00535">
        <ele>1155</ele>
        <time>2023-05-15T08:45:03Z</time>
      </trkpt>
      <trkpt lat="44.59017" lon="6.00533">
        <ele>1155</ele>
        <time>2023-05-15T08:45:04Z</time>
      </trkpt>
      <trkpt lat="44.59015" lon="6.00532">
        <ele>1155.2</ele>
        <time>2023-05-15T08:45:05Z</time>
      </trkpt>
      <trkpt lat="44.59014" lon="6.00531">
        <ele>1155.2</ele>
        <time>2023-05-15T08:45:06Z</time>
      </trkpt>
      <trkpt lat="44.59013" lon="6.00529">
        <ele>1155.2</ele>
        <time>2023-05-15T08:45:07Z</time>
      </trkpt>
      <trkpt lat="44.59012" lon="6.00528">
        <ele>1155.2</ele>
        <time>2023-05-15T08:45:08Z</time>
      </trkpt>
      <trkpt lat="44.59011" lon="6.00527">
        <ele>1155.4</ele>
        <time>2023-05-15T08:45:09Z</time>
      </trkpt>
      <trkpt lat="44.5901" lon="6.00525">
        <ele>1155.4</ele>
        <time>2023-05-15T08:45:10Z</time>
      </trkpt>
      <trkpt lat="44.59009" lon="6.00524">
        <ele>1155.6</ele>
        <time>2023-05-15T08:45:11Z</time>
      </trkpt>
      <trkpt lat="44.59008" lon="6.00522">
        <ele>1156</ele>
        <time>2023-05-15T08:45:12Z</time>
      </trkpt>
      <trkpt lat="44.59007" lon="6.00521">
        <ele>1156</ele>
        <time>2023-05-15T08:45:13Z</time>
      </trkpt>
      <trkpt lat="44.59006" lon="6.00519">
        <ele>1156</ele>
        <time>2023-05-15T08:45:14Z</time>
      </trkpt>
      <trkpt lat="44.59006" lon="6.00518">
        <ele>1156.2</ele>
        <time>2023-05-15T08:45:15Z</time>
      </trkpt>
      <trkpt lat="44.59005" lon="6.00516">
        <ele>1156.2</ele>
        <time>2023-05-15T08:45:16Z</time>
      </trkpt>
      <trkpt lat="44.59004" lon="6.00514">
        <ele>1156.4</ele>
        <time>2023-05-15T08:45:17Z</time>
      </trkpt>
      <trkpt lat="44.59003" lon="6.00513">
        <ele>1156.4</ele>
        <time>2023-05-15T08:45:18Z</time>
      </trkpt>
      <trkpt lat="44.59002" lon="6.00511">
        <ele>1156.8</ele>
        <time>2023-05-15T08:45:19Z</time>
      </trkpt>
      <trkpt lat="44.59001" lon="6.0051">
        <ele>1156.8</ele>
        <time>2023-05-15T08:45:20Z</time>
      </trkpt>
      <trkpt lat="44.59" lon="6.00509">
        <ele>1157.2</ele>
        <time>2023-05-15T08:45:21Z</time>
      </trkpt>
      <trkpt lat="44.58999" lon="6.00508">
        <ele>1157.2</ele>
        <time>2023-05-15T08:45:22Z</time>
      </trkpt>
      <trkpt lat="44.58997" lon="6.00507">
        <ele>1157.6</ele>
        <time>2023-05-15T08:45:23Z</time>
      </trkpt>
      <trkpt lat="44.58996" lon="6.00507">
        <ele>1157.6</ele>
        <time>2023-05-15T08:45:24Z</time>
      </trkpt>
      <trkpt lat="44.58995" lon="6.00506">
        <ele>1158</ele>
        <time>2023-05-15T08:45:25Z</time>
      </trkpt>
      <trkpt lat="44.58994" lon="6.00505">
        <ele>1158</ele>
        <time>2023-05-15T08:45:26Z</time>
      </trkpt>
      <trkpt lat="44.58993" lon="6.00504">
        <ele>1158.4</ele>
        <time>2023-05-15T08:45:27Z</time>
      </trkpt>
      <trkpt lat="44.58991" lon="6.00503">
        <ele>1158.6</ele>
        <time>2023-05-15T08:45:28Z</time>
      </trkpt>
      <trkpt lat="44.5899" lon="6.00502">
        <ele>1158.8</ele>
        <time>2023-05-15T08:45:29Z</time>
      </trkpt>
      <trkpt lat="44.58988" lon="6.005">
        <ele>1159</ele>
        <time>2023-05-15T08:45:30Z</time>
      </trkpt>
      <trkpt lat="44.58986" lon="6.005">
        <ele>1159.4</ele>
        <time>2023-05-15T08:45:31Z</time>
      </trkpt>
      <trkpt lat="44.58984" lon="6.00499">
        <ele>1159.4</ele>
        <time>2023-05-15T08:45:32Z</time>
      </trkpt>
      <trkpt lat="44.58983" lon="6.00498">
        <ele>1159.4</ele>
        <time>2023-05-15T08:45:33Z</time>
      </trkpt>
      <trkpt lat="44.58981" lon="6.00497">
        <ele>1159.4</ele>
        <time>2023-05-15T08:45:34Z</time>
      </trkpt>
      <trkpt lat="44.5898" lon="6.00496">
        <ele>1159.6</ele>
        <time>2023-05-15T08:45:35Z</time>
      </trkpt>
      <trkpt lat="44.58978" lon="6.00495">
        <ele>1159.6</ele>
        <time>2023-05-15T08:45:36Z</time>
      </trkpt>
      <trkpt lat="44.58977" lon="6.00494">
        <ele>1159.6</ele>
        <time>2023-05-15T08:45:37Z</time>
      </trkpt>
      <trkpt lat="44.58976" lon="6.00493">
        <ele>1159.6</ele>
        <time>2023-05-15T08:45:38Z</time>
      </trkpt>
      <trkpt lat="44.58975" lon="6.00492">
        <ele>1159.6</ele>
        <time>2023-05-15T08:45:39Z</time>
      </trkpt>
      <trkpt lat="44.58974" lon="6.0049">
        <ele>1159.6</ele>
        <time>2023-05-15T08:45:40Z</time>
      </trkpt>
      <trkpt lat="44.58974" lon="6.00487">
        <ele>1159.6</ele>
        <time>2023-05-15T08:45:41Z</time>
      </trkpt>
      <trkpt lat="44.58974" lon="6.00486">
        <ele>1159.6</ele>
        <time>2023-05-15T08:45:42Z</time>
      </trkpt>
      <trkpt lat="44.58973" lon="6.00485">
        <ele>1159.6</ele>
        <time>2023-05-15T08:45:43Z</time>
      </trkpt>
      <trkpt lat="44.58973" lon="6.00485">
        <ele>1159.6</ele>
        <time>2023-05-15T08:45:44Z</time>
      </trkpt>
      <trkpt lat="44.58973" lon="6.00485">
        <ele>1159.6</ele>
        <time>2023-05-15T08:45:45Z</time>
      </trkpt>
      <trkpt lat="44.58973" lon="6.00485">
        <ele>1158.6</ele>
        <time>2023-05-15T08:46:02Z</time>
      </trkpt>
      <trkpt lat="44.58973" lon="6.00485">
        <ele>1158.6</ele>
        <time>2023-05-15T08:46:07Z</time>
      </trkpt>
      <trkpt lat="44.58973" lon="6.00485">
        <ele>1158.6</ele>
        <time>2023-05-15T08:46:25Z</time>
      </trkpt>
      <trkpt lat="44.58973" lon="6.00485">
        <ele>1158.8</ele>
        <time>2023-05-15T08:46:32Z</time>
      </trkpt>
      <trkpt lat="44.58973" lon="6.00485">
        <ele>1158.8</ele>
        <time>2023-05-15T08:46:45Z</time>
      </trkpt>
      <trkpt lat="44.58973" lon="6.00485">
        <ele>1159</ele>
        <time>2023-05-15T08:46:55Z</time>
      </trkpt>
      <trkpt lat="44.58973" lon="6.00485">
        <ele>1158.8</ele>
        <time>2023-05-15T08:47:01Z</time>
      </trkpt>
      <trkpt lat="44.58973" lon="6.00485">
        <ele>1159</ele>
        <time>2023-05-15T08:47:17Z</time>
      </trkpt>
      <trkpt lat="44.58973" lon="6.00485">
        <ele>1158.6</ele>
        <time>2023-05-15T08:47:42Z</time>
      </trkpt>
      <trkpt lat="44.58973" lon="6.00485">
        <ele>1158.6</ele>
        <time>2023-05-15T08:47:56Z</time>
      </trkpt>
      <trkpt lat="44.58973" lon="6.00485">
        <ele>1158.2</ele>
        <time>2023-05-15T08:48:08Z</time>
      </trkpt>
      <trkpt lat="44.58973" lon="6.00485">
        <ele>1158.2</ele>
        <time>2023-05-15T08:48:35Z</time>
      </trkpt>
      <trkpt lat="44.58973" lon="6.00485">
        <ele>1158.4</ele>
        <time>2023-05-15T08:48:51Z</time>
      </trkpt>
      <trkpt lat="44.58973" lon="6.00485">
        <ele>1158.6</ele>
        <time>2023-05-15T08:49:00Z</time>
      </trkpt>
      <trkpt lat="44.58973" lon="6.00485">
        <ele>1158.6</ele>
        <time>2023-05-15T08:49:01Z</time>
      </trkpt>
      <trkpt lat="44.58973" lon="6.00485">
        <ele>1158.4</ele>
        <time>2023-05-15T08:49:27Z</time>
      </trkpt>
      <trkpt lat="44.58973" lon="6.00485">
        <ele>1158.4</ele>
        <time>2023-05-15T08:49:53Z</time>
      </trkpt>
      <trkpt lat="44.58973" lon="6.00485">
        <ele>1158.4</ele>
        <time>2023-05-15T08:50:00Z</time>
      </trkpt>
      <trkpt lat="44.58973" lon="6.00487">
        <ele>1158.2</ele>
        <time>2023-05-15T08:50:20Z</time>
      </trkpt>
      <trkpt lat="44.58973" lon="6.00489">
        <ele>1158.4</ele>
        <time>2023-05-15T08:50:24Z</time>
      </trkpt>
      <trkpt lat="44.58973" lon="6.00491">
        <ele>1158.6</ele>
        <time>2023-05-15T08:50:25Z</time>
      </trkpt>
      <trkpt lat="44.58973" lon="6.00492">
        <ele>1158.8</ele>
        <time>2023-05-15T08:50:26Z</time>
      </trkpt>
      <trkpt lat="44.58975" lon="6.00495">
        <ele>1158.8</ele>
        <time>2023-05-15T08:50:28Z</time>
      </trkpt>
      <trkpt lat="44.58976" lon="6.00496">
        <ele>1159.2</ele>
        <time>2023-05-15T08:50:29Z</time>
      </trkpt>
      <trkpt lat="44.58978" lon="6.00497">
        <ele>1159.4</ele>
        <time>2023-05-15T08:50:31Z</time>
      </trkpt>
      <trkpt lat="44.58979" lon="6.00498">
        <ele>1159.4</ele>
        <time>2023-05-15T08:50:32Z</time>
      </trkpt>
      <trkpt lat="44.58979" lon="6.00499">
        <ele>1159.4</ele>
        <time>2023-05-15T08:50:33Z</time>
      </trkpt>
      <trkpt lat="44.58979" lon="6.00499">
        <ele>1159.4</ele>
        <time>2023-05-15T08:50:38Z</time>
      </trkpt>
      <trkpt lat="44.58979" lon="6.00499">
        <ele>1159</ele>
        <time>2023-05-15T08:50:52Z</time>
      </trkpt>
      <trkpt lat="44.58979" lon="6.00499">
        <ele>1159.2</ele>
        <time>2023-05-15T08:50:54Z</time>
      </trkpt>
      <trkpt lat="44.58981" lon="6.005">
        <ele>1159.2</ele>
        <time>2023-05-15T08:51:09Z</time>
      </trkpt>
      <trkpt lat="44.58985" lon="6.00502">
        <ele>1159.2</ele>
        <time>2023-05-15T08:51:12Z</time>
      </trkpt>
      <trkpt lat="44.58988" lon="6.00503">
        <ele>1159.4</ele>
        <time>2023-05-15T08:51:13Z</time>
      </trkpt>
      <trkpt lat="44.5899" lon="6.00503">
        <ele>1159.4</ele>
        <time>2023-05-15T08:51:14Z</time>
      </trkpt>
      <trkpt lat="44.58992" lon="6.00502">
        <ele>1159.6</ele>
        <time>2023-05-15T08:51:15Z</time>
      </trkpt>
      <trkpt lat="44.58994" lon="6.00501">
        <ele>1159.6</ele>
        <time>2023-05-15T08:51:16Z</time>
      </trkpt>
      <trkpt lat="44.58996" lon="6.005">
        <ele>1159.8</ele>
        <time>2023-05-15T08:51:17Z</time>
      </trkpt>
      <trkpt lat="44.58998" lon="6.00498">
        <ele>1160</ele>
        <time>2023-05-15T08:51:18Z</time>
      </trkpt>
      <trkpt lat="44.59" lon="6.00496">
        <ele>1160</ele>
        <time>2023-05-15T08:51:19Z</time>
      </trkpt>
      <trkpt lat="44.59001" lon="6.00495">
        <ele>1160</ele>
        <time>2023-05-15T08:51:20Z</time>
      </trkpt>
      <trkpt lat="44.59005" lon="6.00491">
        <ele>1160.4</ele>
        <time>2023-05-15T08:51:23Z</time>
      </trkpt>
      <trkpt lat="44.59007" lon="6.0049">
        <ele>1160.4</ele>
        <time>2023-05-15T08:51:24Z</time>
      </trkpt>
      <trkpt lat="44.59008" lon="6.0049">
        <ele>1160.6</ele>
        <time>2023-05-15T08:51:25Z</time>
      </trkpt>
      <trkpt lat="44.5901" lon="6.0049">
        <ele>1160.8</ele>
        <time>2023-05-15T08:51:26Z</time>
      </trkpt>
      <trkpt lat="44.59012" lon="6.0049">
        <ele>1161</ele>
        <time>2023-05-15T08:51:27Z</time>
      </trkpt>
      <trkpt lat="44.59013" lon="6.0049">
        <ele>1161</ele>
        <time>2023-05-15T08:51:28Z</time>
      </trkpt>
      <trkpt lat="44.59015" lon="6.0049">
        <ele>1161.2</ele>
        <time>2023-05-15T08:51:29Z</time>
      </trkpt>
      <trkpt lat="44.59016" lon="6.0049">
        <ele>1161.4</ele>
        <time>2023-05-15T08:51:30Z</time>
      </trkpt>
      <trkpt lat="44.5902" lon="6.00493">
        <ele>1161.8</ele>
        <time>2023-05-15T08:51:32Z</time>
      </trkpt>
      <trkpt lat="44.59022" lon="6.00494">
        <ele>1162</ele>
        <time>2023-05-15T08:51:33Z</time>
      </trkpt>
      <trkpt lat="44.59023" lon="6.00495">
        <ele>1162.2</ele>
        <time>2023-05-15T08:51:34Z</time>
      </trkpt>
      <trkpt lat="44.59024" lon="6.00495">
        <ele>1162.4</ele>
        <time>2023-05-15T08:51:35Z</time>
      </trkpt>
      <trkpt lat="44.59026" lon="6.00496">
        <ele>1162.6</ele>
        <time>2023-05-15T08:51:36Z</time>
      </trkpt>
      <trkpt lat="44.59028" lon="6.00496">
        <ele>1162.8</ele>
        <time>2023-05-15T08:51:37Z</time>
      </trkpt>
      <trkpt lat="44.5903" lon="6.00496">
        <ele>1163</ele>
        <time>2023-05-15T08:51:38Z</time>
      </trkpt>
      <trkpt lat="44.59031" lon="6.00496">
        <ele>1163</ele>
        <time>2023-05-15T08:51:39Z</time>
      </trkpt>
      <trkpt lat="44.59033" lon="6.00496">
        <ele>1163.2</ele>
        <time>2023-05-15T08:51:40Z</time>
      </trkpt>
      <trkpt lat="44.59035" lon="6.00496">
        <ele>1163.4</ele>
        <time>2023-05-15T08:51:41Z</time>
      </trkpt>
      <trkpt lat="44.59036" lon="6.00497">
        <ele>1163.8</ele>
        <time>2023-05-15T08:51:42Z</time>
      </trkpt>
      <trkpt lat="44.59037" lon="6.00498">
        <ele>1164</ele>
        <time>2023-05-15T08:51:43Z</time>
      </trkpt>
      <trkpt lat="44.59038" lon="6.00498">
        <ele>1164</ele>
        <time>2023-05-15T08:51:44Z</time>
      </trkpt>
      <trkpt lat="44.59039" lon="6.00498">
        <ele>1164.2</ele>
        <time>2023-05-15T08:51:45Z</time>
      </trkpt>
      <trkpt lat="44.59041" lon="6.00499">
        <ele>1164.2</ele>
        <time>2023-05-15T08:51:46Z</time>
      </trkpt>
      <trkpt lat="44.59042" lon="6.005">
        <ele>1164.4</ele>
        <time>2023-05-15T08:51:47Z</time>
      </trkpt>
      <trkpt lat="44.59044" lon="6.00501">
        <ele>1164.6</ele>
        <time>2023-05-15T08:51:48Z</time>
      </trkpt>
      <trkpt lat="44.59045" lon="6.00501">
        <ele>1164.8</ele>
        <time>2023-05-15T08:51:49Z</time>
      </trkpt>
      <trkpt lat="44.59046" lon="6.00502">
        <ele>1165</ele>
        <time>2023-05-15T08:51:50Z</time>
      </trkpt>
      <trkpt lat="44.59047" lon="6.00502">
        <ele>1164.8</ele>
        <time>2023-05-15T08:51:51Z</time>
      </trkpt>
      <trkpt lat="44.59048" lon="6.00503">
        <ele>1164.8</ele>
        <time>2023-05-15T08:51:52Z</time>
      </trkpt>
      <trkpt lat="44.59049" lon="6.00503">
        <ele>1164.8</ele>
        <time>2023-05-15T08:51:53Z</time>
      </trkpt>
      <trkpt lat="44.5905" lon="6.00503">
        <ele>1164.8</ele>
        <time>2023-05-15T08:51:54Z</time>
      </trkpt>
      <trkpt lat="44.59051" lon="6.00503">
        <ele>1165</ele>
        <time>2023-05-15T08:51:55Z</time>
      </trkpt>
      <trkpt lat="44.59053" lon="6.00504">
        <ele>1165.2</ele>
        <time>2023-05-15T08:51:56Z</time>
      </trkpt>
      <trkpt lat="44.59055" lon="6.00504">
        <ele>1165.4</ele>
        <time>2023-05-15T08:51:57Z</time>
      </trkpt>
      <trkpt lat="44.59056" lon="6.00505">
        <ele>1165.4</ele>
        <time>2023-05-15T08:51:58Z</time>
      </trkpt>
      <trkpt lat="44.59058" lon="6.00507">
        <ele>1165.6</ele>
        <time>2023-05-15T08:51:59Z</time>
      </trkpt>
      <trkpt lat="44.5906" lon="6.00508">
        <ele>1165.6</ele>
        <time>2023-05-15T08:52:00Z</time>
      </trkpt>
      <trkpt lat="44.59062" lon="6.00508">
        <ele>1165.6</ele>
        <time>2023-05-15T08:52:01Z</time>
      </trkpt>
      <trkpt lat="44.59063" lon="6.00509">
        <ele>1165.6</ele>
        <time>2023-05-15T08:52:02Z</time>
      </trkpt>
      <trkpt lat="44.59064" lon="6.0051">
        <ele>1165.8</ele>
        <time>2023-05-15T08:52:03Z</time>
      </trkpt>
      <trkpt lat="44.59066" lon="6.00511">
        <ele>1165.8</ele>
        <time>2023-05-15T08:52:04Z</time>
      </trkpt>
      <trkpt lat="44.59068" lon="6.00513">
        <ele>1165.8</ele>
        <time>2023-05-15T08:52:05Z</time>
      </trkpt>
      <trkpt lat="44.5907" lon="6.00515">
        <ele>1165.8</ele>
        <time>2023-05-15T08:52:06Z</time>
      </trkpt>
      <trkpt lat="44.59072" lon="6.00517">
        <ele>1165.8</ele>
        <time>2023-05-15T08:52:07Z</time>
      </trkpt>
      <trkpt lat="44.59076" lon="6.0052">
        <ele>1165.8</ele>
        <time>2023-05-15T08:52:09Z</time>
      </trkpt>
      <trkpt lat="44.59076" lon="6.00522">
        <ele>1165.4</ele>
        <time>2023-05-15T08:52:10Z</time>
      </trkpt>
      <trkpt lat="44.59076" lon="6.00523">
        <ele>1165.4</ele>
        <time>2023-05-15T08:52:11Z</time>
      </trkpt>
      <trkpt lat="44.59076" lon="6.00523">
        <ele>1164.8</ele>
        <time>2023-05-15T08:52:14Z</time>
      </trkpt>
      <trkpt lat="44.59076" lon="6.00523">
        <ele>1164.2</ele>
        <time>2023-05-15T08:52:17Z</time>
      </trkpt>
      <trkpt lat="44.59078" lon="6.00523">
        <ele>1164.4</ele>
        <time>2023-05-15T08:53:04Z</time>
      </trkpt>
      <trkpt lat="44.59089" lon="6.00525">
        <ele>1164.2</ele>
        <time>2023-05-15T08:53:10Z</time>
      </trkpt>
      <trkpt lat="44.5909" lon="6.00525">
        <ele>1164.2</ele>
        <time>2023-05-15T08:53:11Z</time>
      </trkpt>
      <trkpt lat="44.59092" lon="6.00524">
        <ele>1164.2</ele>
        <time>2023-05-15T08:53:12Z</time>
      </trkpt>
      <trkpt lat="44.59093" lon="6.00524">
        <ele>1164.2</ele>
        <time>2023-05-15T08:53:13Z</time>
      </trkpt>
      <trkpt lat="44.59098" lon="6.00523">
        <ele>1163.8</ele>
        <time>2023-05-15T08:53:17Z</time>
      </trkpt>
      <trkpt lat="44.59098" lon="6.00522">
        <ele>1163.8</ele>
        <time>2023-05-15T08:53:18Z</time>
      </trkpt>
      <trkpt lat="44.59099" lon="6.00522">
        <ele>1163.8</ele>
        <time>2023-05-15T08:53:19Z</time>
      </trkpt>
      <trkpt lat="44.591" lon="6.00521">
        <ele>1163.8</ele>
        <time>2023-05-15T08:53:20Z</time>
      </trkpt>
      <trkpt lat="44.59101" lon="6.0052">
        <ele>1163.6</ele>
        <time>2023-05-15T08:53:21Z</time>
      </trkpt>
      <trkpt lat="44.59102" lon="6.00519">
        <ele>1163.6</ele>
        <time>2023-05-15T08:53:22Z</time>
      </trkpt>
      <trkpt lat="44.59107" lon="6.00516">
        <ele>1163.6</ele>
        <time>2023-05-15T08:53:27Z</time>
      </trkpt>
      <trkpt lat="44.59109" lon="6.00516">
        <ele>1163.6</ele>
        <time>2023-05-15T08:53:29Z</time>
      </trkpt>
      <trkpt lat="44.5911" lon="6.00516">
        <ele>1163.6</ele>
        <time>2023-05-15T08:53:30Z</time>
      </trkpt>
      <trkpt lat="44.59111" lon="6.00516">
        <ele>1163.6</ele>
        <time>2023-05-15T08:53:31Z</time>
      </trkpt>
      <trkpt lat="44.59114" lon="6.00517">
        <ele>1163.6</ele>
        <time>2023-05-15T08:53:34Z</time>
      </trkpt>
      <trkpt lat="44.59115" lon="6.00517">
        <ele>1163.6</ele>
        <time>2023-05-15T08:53:35Z</time>
      </trkpt>
      <trkpt lat="44.59115" lon="6.00516">
        <ele>1163.6</ele>
        <time>2023-05-15T08:53:36Z</time>
      </trkpt>
      <trkpt lat="44.59116" lon="6.00516">
        <ele>1163.6</ele>
        <time>2023-05-15T08:53:37Z</time>
      </trkpt>
      <trkpt lat="44.59117" lon="6.00516">
        <ele>1163.6</ele>
        <time>2023-05-15T08:53:38Z</time>
      </trkpt>
      <trkpt lat="44.59118" lon="6.00516">
        <ele>1163.6</ele>
        <time>2023-05-15T08:53:39Z</time>
      </trkpt>
      <trkpt lat="44.59118" lon="6.00517">
        <ele>1163.6</ele>
        <time>2023-05-15T08:53:40Z</time>
      </trkpt>
      <trkpt lat="44.59118" lon="6.00517">
        <ele>1163.8</ele>
        <time>2023-05-15T08:53:42Z</time>
      </trkpt>
      <trkpt lat="44.59119" lon="6.00519">
        <ele>1164</ele>
        <time>2023-05-15T08:54:06Z</time>
      </trkpt>
      <trkpt lat="44.5912" lon="6.0052">
        <ele>1164</ele>
        <time>2023-05-15T08:54:07Z</time>
      </trkpt>
      <trkpt lat="44.59122" lon="6.00521">
        <ele>1164</ele>
        <time>2023-05-15T08:54:08Z</time>
      </trkpt>
      <trkpt lat="44.59123" lon="6.00521">
        <ele>1164</ele>
        <time>2023-05-15T08:54:09Z</time>
      </trkpt>
      <trkpt lat="44.59125" lon="6.00522">
        <ele>1164</ele>
        <time>2023-05-15T08:54:10Z</time>
      </trkpt>
      <trkpt lat="44.59126" lon="6.00523">
        <ele>1164</ele>
        <time>2023-05-15T08:54:11Z</time>
      </trkpt>
      <trkpt lat="44.59132" lon="6.00527">
        <ele>1164.2</ele>
        <time>2023-05-15T08:54:15Z</time>
      </trkpt>
      <trkpt lat="44.59134" lon="6.00529">
        <ele>1164.6</ele>
        <time>2023-05-15T08:54:16Z</time>
      </trkpt>
      <trkpt lat="44.59135" lon="6.00531">
        <ele>1164.6</ele>
        <time>2023-05-15T08:54:17Z</time>
      </trkpt>
      <trkpt lat="44.59135" lon="6.00533">
        <ele>1164.8</ele>
        <time>2023-05-15T08:54:18Z</time>
      </trkpt>
      <trkpt lat="44.5914" lon="6.00542">
        <ele>1165.8</ele>
        <time>2023-05-15T08:54:23Z</time>
      </trkpt>
      <trkpt lat="44.59141" lon="6.00543">
        <ele>1166</ele>
        <time>2023-05-15T08:54:24Z</time>
      </trkpt>
      <trkpt lat="44.59143" lon="6.00547">
        <ele>1166.2</ele>
        <time>2023-05-15T08:54:26Z</time>
      </trkpt>
      <trkpt lat="44.59145" lon="6.00552">
        <ele>1167.4</ele>
        <time>2023-05-15T08:54:29Z</time>
      </trkpt>
      <trkpt lat="44.59147" lon="6.00556">
        <ele>1167.8</ele>
        <time>2023-05-15T08:54:31Z</time>
      </trkpt>
      <trkpt lat="44.59148" lon="6.00557">
        <ele>1167.8</ele>
        <time>2023-05-15T08:54:32Z</time>
      </trkpt>
      <trkpt lat="44.59148" lon="6.00559">
        <ele>1168</ele>
        <time>2023-05-15T08:54:33Z</time>
      </trkpt>
      <trkpt lat="44.59149" lon="6.00561">
        <ele>1168.2</ele>
        <time>2023-05-15T08:54:34Z</time>
      </trkpt>
      <trkpt lat="44.59149" lon="6.00563">
        <ele>1168.2</ele>
        <time>2023-05-15T08:54:35Z</time>
      </trkpt>
      <trkpt lat="44.59149" lon="6.00565">
        <ele>1168.4</ele>
        <time>2023-05-15T08:54:36Z</time>
      </trkpt>
      <trkpt lat="44.5915" lon="6.00567">
        <ele>1168.4</ele>
        <time>2023-05-15T08:54:37Z</time>
      </trkpt>
      <trkpt lat="44.59151" lon="6.00568">
        <ele>1168.6</ele>
        <time>2023-05-15T08:54:38Z</time>
      </trkpt>
      <trkpt lat="44.59151" lon="6.0057">
        <ele>1168.8</ele>
        <time>2023-05-15T08:54:39Z</time>
      </trkpt>
      <trkpt lat="44.59151" lon="6.00571">
        <ele>1169</ele>
        <time>2023-05-15T08:54:40Z</time>
      </trkpt>
      <trkpt lat="44.59152" lon="6.00573">
        <ele>1169.2</ele>
        <time>2023-05-15T08:54:41Z</time>
      </trkpt>
      <trkpt lat="44.59152" lon="6.00574">
        <ele>1169.2</ele>
        <time>2023-05-15T08:54:42Z</time>
      </trkpt>
      <trkpt lat="44.59153" lon="6.00575">
        <ele>1169.4</ele>
        <time>2023-05-15T08:54:43Z</time>
      </trkpt>
      <trkpt lat="44.59153" lon="6.00577">
        <ele>1169.6</ele>
        <time>2023-05-15T08:54:44Z</time>
      </trkpt>
      <trkpt lat="44.59154" lon="6.00579">
        <ele>1169.8</ele>
        <time>2023-05-15T08:54:45Z</time>
      </trkpt>
      <trkpt lat="44.59155" lon="6.00581">
        <ele>1170.2</ele>
        <time>2023-05-15T08:54:46Z</time>
      </trkpt>
      <trkpt lat="44.59155" lon="6.00583">
        <ele>1170.2</ele>
        <time>2023-05-15T08:54:47Z</time>
      </trkpt>
      <trkpt lat="44.59156" lon="6.00585">
        <ele>1170.6</ele>
        <time>2023-05-15T08:54:48Z</time>
      </trkpt>
      <trkpt lat="44.59156" lon="6.00587">
        <ele>1170.6</ele>
        <time>2023-05-15T08:54:49Z</time>
      </trkpt>
      <trkpt lat="44.59157" lon="6.00589">
        <ele>1170.8</ele>
        <time>2023-05-15T08:54:50Z</time>
      </trkpt>
      <trkpt lat="44.59157" lon="6.00591">
        <ele>1171</ele>
        <time>2023-05-15T08:54:51Z</time>
      </trkpt>
      <trkpt lat="44.59158" lon="6.00592">
        <ele>1171.2</ele>
        <time>2023-05-15T08:54:52Z</time>
      </trkpt>
      <trkpt lat="44.59159" lon="6.00594">
        <ele>1171.2</ele>
        <time>2023-05-15T08:54:53Z</time>
      </trkpt>
      <trkpt lat="44.59159" lon="6.00595">
        <ele>1171.4</ele>
        <time>2023-05-15T08:54:54Z</time>
      </trkpt>
      <trkpt lat="44.5916" lon="6.00597">
        <ele>1171.4</ele>
        <time>2023-05-15T08:54:55Z</time>
      </trkpt>
      <trkpt lat="44.59161" lon="6.00598">
        <ele>1171.6</ele>
        <time>2023-05-15T08:54:56Z</time>
      </trkpt>
      <trkpt lat="44.59162" lon="6.00598">
        <ele>1171.6</ele>
        <time>2023-05-15T08:54:57Z</time>
      </trkpt>
      <trkpt lat="44.59164" lon="6.00599">
        <ele>1171.8</ele>
        <time>2023-05-15T08:54:58Z</time>
      </trkpt>
      <trkpt lat="44.59165" lon="6.00599">
        <ele>1172</ele>
        <time>2023-05-15T08:54:59Z</time>
      </trkpt>
      <trkpt lat="44.59167" lon="6.006">
        <ele>1172</ele>
        <time>2023-05-15T08:55:00Z</time>
      </trkpt>
      <trkpt lat="44.59168" lon="6.006">
        <ele>1172.2</ele>
        <time>2023-05-15T08:55:01Z</time>
      </trkpt>
      <trkpt lat="44.59169" lon="6.00599">
        <ele>1172.4</ele>
        <time>2023-05-15T08:55:02Z</time>
      </trkpt>
      <trkpt lat="44.5917" lon="6.00597">
        <ele>1172.6</ele>
        <time>2023-05-15T08:55:03Z</time>
      </trkpt>
      <trkpt lat="44.59171" lon="6.00596">
        <ele>1173</ele>
        <time>2023-05-15T08:55:04Z</time>
      </trkpt>
      <trkpt lat="44.59172" lon="6.00595">
        <ele>1173</ele>
        <time>2023-05-15T08:55:05Z</time>
      </trkpt>
      <trkpt lat="44.59173" lon="6.00593">
        <ele>1173.2</ele>
        <time>2023-05-15T08:55:06Z</time>
      </trkpt>
      <trkpt lat="44.59174" lon="6.00591">
        <ele>1173.4</ele>
        <time>2023-05-15T08:55:07Z</time>
      </trkpt>
      <trkpt lat="44.59175" lon="6.0059">
        <ele>1174</ele>
        <time>2023-05-15T08:55:08Z</time>
      </trkpt>
      <trkpt lat="44.59176" lon="6.00588">
        <ele>1174</ele>
        <time>2023-05-15T08:55:09Z</time>
      </trkpt>
      <trkpt lat="44.59177" lon="6.00586">
        <ele>1174.4</ele>
        <time>2023-05-15T08:55:10Z</time>
      </trkpt>
      <trkpt lat="44.59177" lon="6.00585">
        <ele>1174.6</ele>
        <time>2023-05-15T08:55:11Z</time>
      </trkpt>
      <trkpt lat="44.59178" lon="6.00584">
        <ele>1174.8</ele>
        <time>2023-05-15T08:55:12Z</time>
      </trkpt>
      <trkpt lat="44.59178" lon="6.00583">
        <ele>1175</ele>
        <time>2023-05-15T08:55:13Z</time>
      </trkpt>
      <trkpt lat="44.59179" lon="6.00582">
        <ele>1175.2</ele>
        <time>2023-05-15T08:55:14Z</time>
      </trkpt>
      <trkpt lat="44.5918" lon="6.00581">
        <ele>1175.4</ele>
        <time>2023-05-15T08:55:15Z</time>
      </trkpt>
      <trkpt lat="44.59181" lon="6.0058">
        <ele>1175.4</ele>
        <time>2023-05-15T08:55:16Z</time>
      </trkpt>
      <trkpt lat="44.59182" lon="6.00579">
        <ele>1175.8</ele>
        <time>2023-05-15T08:55:17Z</time>
      </trkpt>
      <trkpt lat="44.59183" lon="6.00579">
        <ele>1176</ele>
        <time>2023-05-15T08:55:18Z</time>
      </trkpt>
      <trkpt lat="44.59184" lon="6.00578">
        <ele>1176</ele>
        <time>2023-05-15T08:55:19Z</time>
      </trkpt>
      <trkpt lat="44.59185" lon="6.00578">
        <ele>1176.2</ele>
        <time>2023-05-15T08:55:20Z</time>
      </trkpt>
      <trkpt lat="44.59187" lon="6.00578">
        <ele>1176.2</ele>
        <time>2023-05-15T08:55:21Z</time>
      </trkpt>
      <trkpt lat="44.59188" lon="6.00577">
        <ele>1176.4</ele>
        <time>2023-05-15T08:55:22Z</time>
      </trkpt>
      <trkpt lat="44.59189" lon="6.00577">
        <ele>1176.4</ele>
        <time>2023-05-15T08:55:23Z</time>
      </trkpt>
      <trkpt lat="44.59191" lon="6.00577">
        <ele>1176.6</ele>
        <time>2023-05-15T08:55:24Z</time>
      </trkpt>
      <trkpt lat="44.59192" lon="6.00577">
        <ele>1176.6</ele>
        <time>2023-05-15T08:55:25Z</time>
      </trkpt>
      <trkpt lat="44.59193" lon="6.00577">
        <ele>1176.8</ele>
        <time>2023-05-15T08:55:26Z</time>
      </trkpt>
      <trkpt lat="44.59195" lon="6.00577">
        <ele>1176.8</ele>
        <time>2023-05-15T08:55:27Z</time>
      </trkpt>
      <trkpt lat="44.59196" lon="6.00577">
        <ele>1177</ele>
        <time>2023-05-15T08:55:28Z</time>
      </trkpt>
      <trkpt lat="44.59197" lon="6.00577">
        <ele>1177.2</ele>
        <time>2023-05-15T08:55:29Z</time>
      </trkpt>
      <trkpt lat="44.59198" lon="6.00578">
        <ele>1177.2</ele>
        <time>2023-05-15T08:55:30Z</time>
      </trkpt>
      <trkpt lat="44.592" lon="6.00578">
        <ele>1177.6</ele>
        <time>2023-05-15T08:55:31Z</time>
      </trkpt>
      <trkpt lat="44.59201" lon="6.00578">
        <ele>1177.8</ele>
        <time>2023-05-15T08:55:32Z</time>
      </trkpt>
      <trkpt lat="44.59202" lon="6.00578">
        <ele>1178</ele>
        <time>2023-05-15T08:55:33Z</time>
      </trkpt>
      <trkpt lat="44.59203" lon="6.00578">
        <ele>1178.2</ele>
        <time>2023-05-15T08:55:34Z</time>
      </trkpt>
      <trkpt lat="44.59204" lon="6.00578">
        <ele>1178.2</ele>
        <time>2023-05-15T08:55:35Z</time>
      </trkpt>
      <trkpt lat="44.59205" lon="6.00578">
        <ele>1178.4</ele>
        <time>2023-05-15T08:55:36Z</time>
      </trkpt>
      <trkpt lat="44.59207" lon="6.00579">
        <ele>1178.6</ele>
        <time>2023-05-15T08:55:37Z</time>
      </trkpt>
      <trkpt lat="44.59208" lon="6.00579">
        <ele>1178.8</ele>
        <time>2023-05-15T08:55:38Z</time>
      </trkpt>
      <trkpt lat="44.59209" lon="6.00579">
        <ele>1179</ele>
        <time>2023-05-15T08:55:39Z</time>
      </trkpt>
      <trkpt lat="44.5921" lon="6.00579">
        <ele>1179.2</ele>
        <time>2023-05-15T08:55:40Z</time>
      </trkpt>
      <trkpt lat="44.59212" lon="6.00579">
        <ele>1179.4</ele>
        <time>2023-05-15T08:55:41Z</time>
      </trkpt>
      <trkpt lat="44.59213" lon="6.00579">
        <ele>1179.8</ele>
        <time>2023-05-15T08:55:42Z</time>
      </trkpt>
      <trkpt lat="44.59214" lon="6.00579">
        <ele>1180</ele>
        <time>2023-05-15T08:55:43Z</time>
      </trkpt>
      <trkpt lat="44.59215" lon="6.0058">
        <ele>1180</ele>
        <time>2023-05-15T08:55:44Z</time>
      </trkpt>
      <trkpt lat="44.59217" lon="6.0058">
        <ele>1180.2</ele>
        <time>2023-05-15T08:55:45Z</time>
      </trkpt>
      <trkpt lat="44.59218" lon="6.0058">
        <ele>1180.2</ele>
        <time>2023-05-15T08:55:46Z</time>
      </trkpt>
      <trkpt lat="44.59219" lon="6.0058">
        <ele>1180.4</ele>
        <time>2023-05-15T08:55:47Z</time>
      </trkpt>
      <trkpt lat="44.5922" lon="6.00581">
        <ele>1180.6</ele>
        <time>2023-05-15T08:55:48Z</time>
      </trkpt>
      <trkpt lat="44.59221" lon="6.00581">
        <ele>1181</ele>
        <time>2023-05-15T08:55:49Z</time>
      </trkpt>
      <trkpt lat="44.59223" lon="6.00581">
        <ele>1181.4</ele>
        <time>2023-05-15T08:55:50Z</time>
      </trkpt>
      <trkpt lat="44.59224" lon="6.00582">
        <ele>1181.6</ele>
        <time>2023-05-15T08:55:51Z</time>
      </trkpt>
      <trkpt lat="44.59225" lon="6.00583">
        <ele>1181.8</ele>
        <time>2023-05-15T08:55:52Z</time>
      </trkpt>
      <trkpt lat="44.59227" lon="6.00583">
        <ele>1181.8</ele>
        <time>2023-05-15T08:55:53Z</time>
      </trkpt>
      <trkpt lat="44.59228" lon="6.00584">
        <ele>1182</ele>
        <time>2023-05-15T08:55:54Z</time>
      </trkpt>
      <trkpt lat="44.59229" lon="6.00585">
        <ele>1182</ele>
        <time>2023-05-15T08:55:55Z</time>
      </trkpt>
      <trkpt lat="44.59231" lon="6.00586">
        <ele>1182.2</ele>
        <time>2023-05-15T08:55:56Z</time>
      </trkpt>
      <trkpt lat="44.59232" lon="6.00587">
        <ele>1182.4</ele>
        <time>2023-05-15T08:55:57Z</time>
      </trkpt>
      <trkpt lat="44.59233" lon="6.00587">
        <ele>1182.6</ele>
        <time>2023-05-15T08:55:58Z</time>
      </trkpt>
      <trkpt lat="44.59234" lon="6.00588">
        <ele>1182.8</ele>
        <time>2023-05-15T08:55:59Z</time>
      </trkpt>
      <trkpt lat="44.59235" lon="6.0059">
        <ele>1182.8</ele>
        <time>2023-05-15T08:56:00Z</time>
      </trkpt>
      <trkpt lat="44.59237" lon="6.00591">
        <ele>1183</ele>
        <time>2023-05-15T08:56:01Z</time>
      </trkpt>
      <trkpt lat="44.59238" lon="6.00592">
        <ele>1183.2</ele>
        <time>2023-05-15T08:56:02Z</time>
      </trkpt>
      <trkpt lat="44.59239" lon="6.00593">
        <ele>1183.2</ele>
        <time>2023-05-15T08:56:03Z</time>
      </trkpt>
      <trkpt lat="44.5924" lon="6.00594">
        <ele>1183.4</ele>
        <time>2023-05-15T08:56:04Z</time>
      </trkpt>
      <trkpt lat="44.59241" lon="6.00595">
        <ele>1183.6</ele>
        <time>2023-05-15T08:56:05Z</time>
      </trkpt>
      <trkpt lat="44.59242" lon="6.00597">
        <ele>1183.6</ele>
        <time>2023-05-15T08:56:06Z</time>
      </trkpt>
      <trkpt lat="44.59243" lon="6.00598">
        <ele>1183.8</ele>
        <time>2023-05-15T08:56:07Z</time>
      </trkpt>
      <trkpt lat="44.59244" lon="6.006">
        <ele>1184.2</ele>
        <time>2023-05-15T08:56:08Z</time>
      </trkpt>
      <trkpt lat="44.59246" lon="6.00601">
        <ele>1184.2</ele>
        <time>2023-05-15T08:56:09Z</time>
      </trkpt>
      <trkpt lat="44.59247" lon="6.00602">
        <ele>1184.6</ele>
        <time>2023-05-15T08:56:10Z</time>
      </trkpt>
      <trkpt lat="44.59249" lon="6.00604">
        <ele>1184.6</ele>
        <time>2023-05-15T08:56:11Z</time>
      </trkpt>
      <trkpt lat="44.5925" lon="6.00605">
        <ele>1184.8</ele>
        <time>2023-05-15T08:56:12Z</time>
      </trkpt>
      <trkpt lat="44.59251" lon="6.00607">
        <ele>1184.8</ele>
        <time>2023-05-15T08:56:13Z</time>
      </trkpt>
      <trkpt lat="44.59252" lon="6.00609">
        <ele>1184.8</ele>
        <time>2023-05-15T08:56:14Z</time>
      </trkpt>
      <trkpt lat="44.59254" lon="6.0061">
        <ele>1185</ele>
        <time>2023-05-15T08:56:15Z</time>
      </trkpt>
      <trkpt lat="44.59255" lon="6.00611">
        <ele>1185.2</ele>
        <time>2023-05-15T08:56:16Z</time>
      </trkpt>
      <trkpt lat="44.59256" lon="6.00613">
        <ele>1185.2</ele>
        <time>2023-05-15T08:56:17Z</time>
      </trkpt>
      <trkpt lat="44.59257" lon="6.00614">
        <ele>1185.4</ele>
        <time>2023-05-15T08:56:18Z</time>
      </trkpt>
      <trkpt lat="44.59258" lon="6.00615">
        <ele>1185.6</ele>
        <time>2023-05-15T08:56:19Z</time>
      </trkpt>
      <trkpt lat="44.5926" lon="6.00616">
        <ele>1185.8</ele>
        <time>2023-05-15T08:56:20Z</time>
      </trkpt>
      <trkpt lat="44.59261" lon="6.00617">
        <ele>1186.4</ele>
        <time>2023-05-15T08:56:21Z</time>
      </trkpt>
      <trkpt lat="44.59262" lon="6.00619">
        <ele>1186.6</ele>
        <time>2023-05-15T08:56:22Z</time>
      </trkpt>
      <trkpt lat="44.59263" lon="6.00621">
        <ele>1186.8</ele>
        <time>2023-05-15T08:56:23Z</time>
      </trkpt>
      <trkpt lat="44.59264" lon="6.00622">
        <ele>1186.8</ele>
        <time>2023-05-15T08:56:24Z</time>
      </trkpt>
      <trkpt lat="44.59266" lon="6.00623">
        <ele>1187</ele>
        <time>2023-05-15T08:56:25Z</time>
      </trkpt>
      <trkpt lat="44.59267" lon="6.00625">
        <ele>1187</ele>
        <time>2023-05-15T08:56:26Z</time>
      </trkpt>
      <trkpt lat="44.59269" lon="6.00626">
        <ele>1187</ele>
        <time>2023-05-15T08:56:27Z</time>
      </trkpt>
      <trkpt lat="44.59271" lon="6.00627">
        <ele>1187</ele>
        <time>2023-05-15T08:56:28Z</time>
      </trkpt>
      <trkpt lat="44.59272" lon="6.00629">
        <ele>1187</ele>
        <time>2023-05-15T08:56:29Z</time>
      </trkpt>
      <trkpt lat="44.59274" lon="6.0063">
        <ele>1187</ele>
        <time>2023-05-15T08:56:30Z</time>
      </trkpt>
      <trkpt lat="44.59276" lon="6.00632">
        <ele>1187</ele>
        <time>2023-05-15T08:56:31Z</time>
      </trkpt>
      <trkpt lat="44.59278" lon="6.00634">
        <ele>1187.2</ele>
        <time>2023-05-15T08:56:32Z</time>
      </trkpt>
      <trkpt lat="44.59279" lon="6.00635">
        <ele>1187.2</ele>
        <time>2023-05-15T08:56:33Z</time>
      </trkpt>
      <trkpt lat="44.59281" lon="6.00637">
        <ele>1187.4</ele>
        <time>2023-05-15T08:56:34Z</time>
      </trkpt>
      <trkpt lat="44.59282" lon="6.00638">
        <ele>1187.8</ele>
        <time>2023-05-15T08:56:35Z</time>
      </trkpt>
      <trkpt lat="44.59284" lon="6.0064">
        <ele>1188</ele>
        <time>2023-05-15T08:56:36Z</time>
      </trkpt>
      <trkpt lat="44.59286" lon="6.00642">
        <ele>1188.2</ele>
        <time>2023-05-15T08:56:37Z</time>
      </trkpt>
      <trkpt lat="44.59288" lon="6.00643">
        <ele>1188.2</ele>
        <time>2023-05-15T08:56:38Z</time>
      </trkpt>
      <trkpt lat="44.5929" lon="6.00645">
        <ele>1188.4</ele>
        <time>2023-05-15T08:56:39Z</time>
      </trkpt>
      <trkpt lat="44.59293" lon="6.00646">
        <ele>1188.4</ele>
        <time>2023-05-15T08:56:40Z</time>
      </trkpt>
      <trkpt lat="44.59295" lon="6.00647">
        <ele>1188.4</ele>
        <time>2023-05-15T08:56:41Z</time>
      </trkpt>
      <trkpt lat="44.59297" lon="6.00649">
        <ele>1188.6</ele>
        <time>2023-05-15T08:56:42Z</time>
      </trkpt>
      <trkpt lat="44.593" lon="6.00651">
        <ele>1188.6</ele>
        <time>2023-05-15T08:56:43Z</time>
      </trkpt>
      <trkpt lat="44.59302" lon="6.00652">
        <ele>1188.6</ele>
        <time>2023-05-15T08:56:44Z</time>
      </trkpt>
      <trkpt lat="44.59305" lon="6.00653">
        <ele>1188.6</ele>
        <time>2023-05-15T08:56:45Z</time>
      </trkpt>
      <trkpt lat="44.59307" lon="6.00653">
        <ele>1188.8</ele>
        <time>2023-05-15T08:56:46Z</time>
      </trkpt>
      <trkpt lat="44.5931" lon="6.00654">
        <ele>1188.8</ele>
        <time>2023-05-15T08:56:47Z</time>
      </trkpt>
      <trkpt lat="44.59313" lon="6.00654">
        <ele>1189</ele>
        <time>2023-05-15T08:56:48Z</time>
      </trkpt>
      <trkpt lat="44.59316" lon="6.00654">
        <ele>1189</ele>
        <time>2023-05-15T08:56:49Z</time>
      </trkpt>
      <trkpt lat="44.59319" lon="6.00655">
        <ele>1189</ele>
        <time>2023-05-15T08:56:50Z</time>
      </trkpt>
      <trkpt lat="44.59321" lon="6.00655">
        <ele>1189.2</ele>
        <time>2023-05-15T08:56:51Z</time>
      </trkpt>
      <trkpt lat="44.59323" lon="6.00655">
        <ele>1189.2</ele>
        <time>2023-05-15T08:56:52Z</time>
      </trkpt>
      <trkpt lat="44.59326" lon="6.00656">
        <ele>1189.2</ele>
        <time>2023-05-15T08:56:53Z</time>
      </trkpt>
      <trkpt lat="44.59329" lon="6.00656">
        <ele>1189.4</ele>
        <time>2023-05-15T08:56:54Z</time>
      </trkpt>
      <trkpt lat="44.59336" lon="6.00656">
        <ele>1189.4</ele>
        <time>2023-05-15T08:56:57Z</time>
      </trkpt>
      <trkpt lat="44.59338" lon="6.00656">
        <ele>1189.4</ele>
        <time>2023-05-15T08:56:58Z</time>
      </trkpt>
      <trkpt lat="44.59341" lon="6.00656">
        <ele>1189.6</ele>
        <time>2023-05-15T08:56:59Z</time>
      </trkpt>
      <trkpt lat="44.59343" lon="6.00656">
        <ele>1189.6</ele>
        <time>2023-05-15T08:57:00Z</time>
      </trkpt>
      <trkpt lat="44.59345" lon="6.00656">
        <ele>1189.6</ele>
        <time>2023-05-15T08:57:01Z</time>
      </trkpt>
      <trkpt lat="44.59346" lon="6.00656">
        <ele>1189.6</ele>
        <time>2023-05-15T08:57:02Z</time>
      </trkpt>
      <trkpt lat="44.59348" lon="6.00656">
        <ele>1189.6</ele>
        <time>2023-05-15T08:57:03Z</time>
      </trkpt>
      <trkpt lat="44.59353" lon="6.00657">
        <ele>1189.8</ele>
        <time>2023-05-15T08:57:06Z</time>
      </trkpt>
      <trkpt lat="44.59357" lon="6.00658">
        <ele>1190</ele>
        <time>2023-05-15T08:57:08Z</time>
      </trkpt>
      <trkpt lat="44.59379" lon="6.00664">
        <ele>1190.4</ele>
        <time>2023-05-15T08:57:18Z</time>
      </trkpt>
      <trkpt lat="44.59401" lon="6.00671">
        <ele>1190.6</ele>
        <time>2023-05-15T08:57:27Z</time>
      </trkpt>
      <trkpt lat="44.59406" lon="6.00673">
        <ele>1190.8</ele>
        <time>2023-05-15T08:57:29Z</time>
      </trkpt>
      <trkpt lat="44.59427" lon="6.00681">
        <ele>1191</ele>
        <time>2023-05-15T08:57:36Z</time>
      </trkpt>
      <trkpt lat="44.59437" lon="6.00685">
        <ele>1191</ele>
        <time>2023-05-15T08:57:40Z</time>
      </trkpt>
      <trkpt lat="44.5944" lon="6.00685">
        <ele>1191</ele>
        <time>2023-05-15T08:57:41Z</time>
      </trkpt>
      <trkpt lat="44.59443" lon="6.00686">
        <ele>1191</ele>
        <time>2023-05-15T08:57:42Z</time>
      </trkpt>
      <trkpt lat="44.59445" lon="6.00687">
        <ele>1190.8</ele>
        <time>2023-05-15T08:57:43Z</time>
      </trkpt>
      <trkpt lat="44.59448" lon="6.00688">
        <ele>1190.8</ele>
        <time>2023-05-15T08:57:44Z</time>
      </trkpt>
      <trkpt lat="44.5945" lon="6.00689">
        <ele>1190.8</ele>
        <time>2023-05-15T08:57:45Z</time>
      </trkpt>
      <trkpt lat="44.59453" lon="6.0069">
        <ele>1190.8</ele>
        <time>2023-05-15T08:57:46Z</time>
      </trkpt>
      <trkpt lat="44.59455" lon="6.0069">
        <ele>1190.8</ele>
        <time>2023-05-15T08:57:47Z</time>
      </trkpt>
      <trkpt lat="44.59457" lon="6.0069">
        <ele>1190.8</ele>
        <time>2023-05-15T08:57:48Z</time>
      </trkpt>
      <trkpt lat="44.59458" lon="6.00691">
        <ele>1190.6</ele>
        <time>2023-05-15T08:57:49Z</time>
      </trkpt>
      <trkpt lat="44.5946" lon="6.00691">
        <ele>1190.6</ele>
        <time>2023-05-15T08:57:50Z</time>
      </trkpt>
      <trkpt lat="44.59461" lon="6.00692">
        <ele>1190.6</ele>
        <time>2023-05-15T08:57:51Z</time>
      </trkpt>
      <trkpt lat="44.59461" lon="6.00692">
        <ele>1190.8</ele>
        <time>2023-05-15T08:57:52Z</time>
      </trkpt>
      <trkpt lat="44.59461" lon="6.00692">
        <ele>1190.8</ele>
        <time>2023-05-15T08:57:58Z</time>
      </trkpt>
      <trkpt lat="44.59464" lon="6.00691">
        <ele>1190.8</ele>
        <time>2023-05-15T08:58:00Z</time>
      </trkpt>
      <trkpt lat="44.59468" lon="6.00686">
        <ele>1190.8</ele>
        <time>2023-05-15T08:58:03Z</time>
      </trkpt>
      <trkpt lat="44.5947" lon="6.00686">
        <ele>1190.8</ele>
        <time>2023-05-15T08:58:04Z</time>
      </trkpt>
      <trkpt lat="44.59472" lon="6.00686">
        <ele>1190.6</ele>
        <time>2023-05-15T08:58:05Z</time>
      </trkpt>
      <trkpt lat="44.59473" lon="6.00688">
        <ele>1190.6</ele>
        <time>2023-05-15T08:58:06Z</time>
      </trkpt>
      <trkpt lat="44.59475" lon="6.00689">
        <ele>1190.6</ele>
        <time>2023-05-15T08:58:07Z</time>
      </trkpt>
      <trkpt lat="44.59478" lon="6.0069">
        <ele>1190.4</ele>
        <time>2023-05-15T08:58:08Z</time>
      </trkpt>
      <trkpt lat="44.5948" lon="6.00691">
        <ele>1190.4</ele>
        <time>2023-05-15T08:58:09Z</time>
      </trkpt>
      <trkpt lat="44.59491" lon="6.00694">
        <ele>1190.6</ele>
        <time>2023-05-15T08:58:13Z</time>
      </trkpt>
      <trkpt lat="44.59496" lon="6.00698">
        <ele>1190.4</ele>
        <time>2023-05-15T08:58:15Z</time>
      </trkpt>
      <trkpt lat="44.59499" lon="6.007">
        <ele>1190.4</ele>
        <time>2023-05-15T08:58:16Z</time>
      </trkpt>
      <trkpt lat="44.59503" lon="6.00705">
        <ele>1190.4</ele>
        <time>2023-05-15T08:58:18Z</time>
      </trkpt>
      <trkpt lat="44.59521" lon="6.00714">
        <ele>1190</ele>
        <time>2023-05-15T08:58:24Z</time>
      </trkpt>
      <trkpt lat="44.59531" lon="6.0072">
        <ele>1190</ele>
        <time>2023-05-15T08:58:28Z</time>
      </trkpt>
      <trkpt lat="44.59539" lon="6.00725">
        <ele>1190</ele>
        <time>2023-05-15T08:58:31Z</time>
      </trkpt>
      <trkpt lat="44.59542" lon="6.00727">
        <ele>1190</ele>
        <time>2023-05-15T08:58:32Z</time>
      </trkpt>
      <trkpt lat="44.59544" lon="6.00729">
        <ele>1190.2</ele>
        <time>2023-05-15T08:58:33Z</time>
      </trkpt>
      <trkpt lat="44.59546" lon="6.0073">
        <ele>1190.2</ele>
        <time>2023-05-15T08:58:34Z</time>
      </trkpt>
      <trkpt lat="44.59549" lon="6.00732">
        <ele>1190.4</ele>
        <time>2023-05-15T08:58:35Z</time>
      </trkpt>
      <trkpt lat="44.59551" lon="6.00733">
        <ele>1190.4</ele>
        <time>2023-05-15T08:58:36Z</time>
      </trkpt>
      <trkpt lat="44.59554" lon="6.00733">
        <ele>1190.4</ele>
        <time>2023-05-15T08:58:37Z</time>
      </trkpt>
      <trkpt lat="44.59557" lon="6.00734">
        <ele>1190.6</ele>
        <time>2023-05-15T08:58:38Z</time>
      </trkpt>
      <trkpt lat="44.59559" lon="6.00735">
        <ele>1190.6</ele>
        <time>2023-05-15T08:58:39Z</time>
      </trkpt>
      <trkpt lat="44.59562" lon="6.00736">
        <ele>1190.6</ele>
        <time>2023-05-15T08:58:40Z</time>
      </trkpt>
      <trkpt lat="44.59564" lon="6.00737">
        <ele>1190.6</ele>
        <time>2023-05-15T08:58:41Z</time>
      </trkpt>
      <trkpt lat="44.59566" lon="6.00737">
        <ele>1190.8</ele>
        <time>2023-05-15T08:58:42Z</time>
      </trkpt>
      <trkpt lat="44.59569" lon="6.00738">
        <ele>1190.8</ele>
        <time>2023-05-15T08:58:43Z</time>
      </trkpt>
      <trkpt lat="44.59577" lon="6.00739">
        <ele>1191</ele>
        <time>2023-05-15T08:58:46Z</time>
      </trkpt>
      <trkpt lat="44.59579" lon="6.00739">
        <ele>1191.2</ele>
        <time>2023-05-15T08:58:47Z</time>
      </trkpt>
      <trkpt lat="44.59582" lon="6.0074">
        <ele>1191.2</ele>
        <time>2023-05-15T08:58:48Z</time>
      </trkpt>
      <trkpt lat="44.59584" lon="6.0074">
        <ele>1191.4</ele>
        <time>2023-05-15T08:58:49Z</time>
      </trkpt>
      <trkpt lat="44.59586" lon="6.0074">
        <ele>1191.4</ele>
        <time>2023-05-15T08:58:50Z</time>
      </trkpt>
      <trkpt lat="44.59588" lon="6.0074">
        <ele>1191.8</ele>
        <time>2023-05-15T08:58:51Z</time>
      </trkpt>
      <trkpt lat="44.5959" lon="6.0074">
        <ele>1191.8</ele>
        <time>2023-05-15T08:58:52Z</time>
      </trkpt>
      <trkpt lat="44.59592" lon="6.00741">
        <ele>1192</ele>
        <time>2023-05-15T08:58:53Z</time>
      </trkpt>
      <trkpt lat="44.59594" lon="6.00741">
        <ele>1192.2</ele>
        <time>2023-05-15T08:58:54Z</time>
      </trkpt>
      <trkpt lat="44.59596" lon="6.00741">
        <ele>1192.4</ele>
        <time>2023-05-15T08:58:55Z</time>
      </trkpt>
      <trkpt lat="44.59598" lon="6.00741">
        <ele>1192.6</ele>
        <time>2023-05-15T08:58:56Z</time>
      </trkpt>
      <trkpt lat="44.596" lon="6.00741">
        <ele>1193</ele>
        <time>2023-05-15T08:58:57Z</time>
      </trkpt>
      <trkpt lat="44.59602" lon="6.00742">
        <ele>1193.2</ele>
        <time>2023-05-15T08:58:58Z</time>
      </trkpt>
      <trkpt lat="44.59604" lon="6.00742">
        <ele>1193.2</ele>
        <time>2023-05-15T08:58:59Z</time>
      </trkpt>
      <trkpt lat="44.59606" lon="6.00742">
        <ele>1193.4</ele>
        <time>2023-05-15T08:59:00Z</time>
      </trkpt>
      <trkpt lat="44.59607" lon="6.00742">
        <ele>1193.6</ele>
        <time>2023-05-15T08:59:01Z</time>
      </trkpt>
      <trkpt lat="44.59609" lon="6.00743">
        <ele>1193.8</ele>
        <time>2023-05-15T08:59:02Z</time>
      </trkpt>
      <trkpt lat="44.59611" lon="6.00743">
        <ele>1193.8</ele>
        <time>2023-05-15T08:59:03Z</time>
      </trkpt>
      <trkpt lat="44.59612" lon="6.00743">
        <ele>1194</ele>
        <time>2023-05-15T08:59:04Z</time>
      </trkpt>
      <trkpt lat="44.59614" lon="6.00743">
        <ele>1194</ele>
        <time>2023-05-15T08:59:05Z</time>
      </trkpt>
      <trkpt lat="44.59615" lon="6.00743">
        <ele>1194.2</ele>
        <time>2023-05-15T08:59:06Z</time>
      </trkpt>
      <trkpt lat="44.59616" lon="6.00743">
        <ele>1194.4</ele>
        <time>2023-05-15T08:59:07Z</time>
      </trkpt>
      <trkpt lat="44.59618" lon="6.00742">
        <ele>1194.4</ele>
        <time>2023-05-15T08:59:08Z</time>
      </trkpt>
      <trkpt lat="44.59619" lon="6.00742">
        <ele>1194.6</ele>
        <time>2023-05-15T08:59:09Z</time>
      </trkpt>
      <trkpt lat="44.5962" lon="6.00743">
        <ele>1194.8</ele>
        <time>2023-05-15T08:59:10Z</time>
      </trkpt>
      <trkpt lat="44.59621" lon="6.00743">
        <ele>1195.2</ele>
        <time>2023-05-15T08:59:11Z</time>
      </trkpt>
      <trkpt lat="44.59622" lon="6.00743">
        <ele>1195.2</ele>
        <time>2023-05-15T08:59:12Z</time>
      </trkpt>
      <trkpt lat="44.59624" lon="6.00743">
        <ele>1195.4</ele>
        <time>2023-05-15T08:59:13Z</time>
      </trkpt>
      <trkpt lat="44.59625" lon="6.00744">
        <ele>1195.4</ele>
        <time>2023-05-15T08:59:14Z</time>
      </trkpt>
      <trkpt lat="44.59627" lon="6.00744">
        <ele>1196</ele>
        <time>2023-05-15T08:59:15Z</time>
      </trkpt>
      <trkpt lat="44.59628" lon="6.00744">
        <ele>1196.2</ele>
        <time>2023-05-15T08:59:16Z</time>
      </trkpt>
      <trkpt lat="44.59629" lon="6.00744">
        <ele>1196.4</ele>
        <time>2023-05-15T08:59:17Z</time>
      </trkpt>
      <trkpt lat="44.5963" lon="6.00744">
        <ele>1196.6</ele>
        <time>2023-05-15T08:59:18Z</time>
      </trkpt>
      <trkpt lat="44.59631" lon="6.00744">
        <ele>1196.8</ele>
        <time>2023-05-15T08:59:19Z</time>
      </trkpt>
      <trkpt lat="44.59633" lon="6.00744">
        <ele>1197</ele>
        <time>2023-05-15T08:59:20Z</time>
      </trkpt>
      <trkpt lat="44.59634" lon="6.00744">
        <ele>1197</ele>
        <time>2023-05-15T08:59:21Z</time>
      </trkpt>
      <trkpt lat="44.59635" lon="6.00743">
        <ele>1197.2</ele>
        <time>2023-05-15T08:59:22Z</time>
      </trkpt>
      <trkpt lat="44.59636" lon="6.00743">
        <ele>1197.4</ele>
        <time>2023-05-15T08:59:23Z</time>
      </trkpt>
      <trkpt lat="44.59637" lon="6.00741">
        <ele>1197.4</ele>
        <time>2023-05-15T08:59:24Z</time>
      </trkpt>
      <trkpt lat="44.59638" lon="6.0074">
        <ele>1197.6</ele>
        <time>2023-05-15T08:59:25Z</time>
      </trkpt>
      <trkpt lat="44.59639" lon="6.00738">
        <ele>1197.6</ele>
        <time>2023-05-15T08:59:26Z</time>
      </trkpt>
      <trkpt lat="44.59639" lon="6.00736">
        <ele>1198</ele>
        <time>2023-05-15T08:59:27Z</time>
      </trkpt>
      <trkpt lat="44.5964" lon="6.00734">
        <ele>1198.2</ele>
        <time>2023-05-15T08:59:28Z</time>
      </trkpt>
      <trkpt lat="44.59641" lon="6.00732">
        <ele>1198.4</ele>
        <time>2023-05-15T08:59:29Z</time>
      </trkpt>
      <trkpt lat="44.59643" lon="6.0073">
        <ele>1198.6</ele>
        <time>2023-05-15T08:59:30Z</time>
      </trkpt>
      <trkpt lat="44.59645" lon="6.00727">
        <ele>1198.6</ele>
        <time>2023-05-15T08:59:31Z</time>
      </trkpt>
      <trkpt lat="44.59646" lon="6.00725">
        <ele>1198.8</ele>
        <time>2023-05-15T08:59:32Z</time>
      </trkpt>
      <trkpt lat="44.59648" lon="6.00722">
        <ele>1198.8</ele>
        <time>2023-05-15T08:59:33Z</time>
      </trkpt>
      <trkpt lat="44.5965" lon="6.0072">
        <ele>1198.8</ele>
        <time>2023-05-15T08:59:34Z</time>
      </trkpt>
      <trkpt lat="44.59652" lon="6.00718">
        <ele>1198.8</ele>
        <time>2023-05-15T08:59:35Z</time>
      </trkpt>
      <trkpt lat="44.59653" lon="6.00715">
        <ele>1198.8</ele>
        <time>2023-05-15T08:59:36Z</time>
      </trkpt>
      <trkpt lat="44.59655" lon="6.00713">
        <ele>1198.8</ele>
        <time>2023-05-15T08:59:37Z</time>
      </trkpt>
      <trkpt lat="44.59657" lon="6.0071">
        <ele>1199</ele>
        <time>2023-05-15T08:59:38Z</time>
      </trkpt>
      <trkpt lat="44.5966" lon="6.00707">
        <ele>1199</ele>
        <time>2023-05-15T08:59:39Z</time>
      </trkpt>
      <trkpt lat="44.59663" lon="6.00704">
        <ele>1198.8</ele>
        <time>2023-05-15T08:59:40Z</time>
      </trkpt>
      <trkpt lat="44.59665" lon="6.00701">
        <ele>1198.8</ele>
        <time>2023-05-15T08:59:41Z</time>
      </trkpt>
      <trkpt lat="44.59668" lon="6.00698">
        <ele>1198.8</ele>
        <time>2023-05-15T08:59:42Z</time>
      </trkpt>
      <trkpt lat="44.59671" lon="6.00695">
        <ele>1198.8</ele>
        <time>2023-05-15T08:59:43Z</time>
      </trkpt>
      <trkpt lat="44.59674" lon="6.00692">
        <ele>1198.6</ele>
        <time>2023-05-15T08:59:44Z</time>
      </trkpt>
      <trkpt lat="44.59677" lon="6.00689">
        <ele>1198.6</ele>
        <time>2023-05-15T08:59:45Z</time>
      </trkpt>
      <trkpt lat="44.5968" lon="6.00687">
        <ele>1198.6</ele>
        <time>2023-05-15T08:59:46Z</time>
      </trkpt>
      <trkpt lat="44.59683" lon="6.00685">
        <ele>1198.6</ele>
        <time>2023-05-15T08:59:47Z</time>
      </trkpt>
      <trkpt lat="44.59688" lon="6.00681">
        <ele>1198.4</ele>
        <time>2023-05-15T08:59:49Z</time>
      </trkpt>
      <trkpt lat="44.5969" lon="6.00679">
        <ele>1198.4</ele>
        <time>2023-05-15T08:59:50Z</time>
      </trkpt>
      <trkpt lat="44.59693" lon="6.00677">
        <ele>1198.4</ele>
        <time>2023-05-15T08:59:51Z</time>
      </trkpt>
      <trkpt lat="44.59695" lon="6.00676">
        <ele>1198.4</ele>
        <time>2023-05-15T08:59:52Z</time>
      </trkpt>
      <trkpt lat="44.59712" lon="6.00664">
        <ele>1198.4</ele>
        <time>2023-05-15T08:59:58Z</time>
      </trkpt>
      <trkpt lat="44.59732" lon="6.00645">
        <ele>1197.4</ele>
        <time>2023-05-15T09:00:05Z</time>
      </trkpt>
      <trkpt lat="44.59739" lon="6.00639">
        <ele>1196.8</ele>
        <time>2023-05-15T09:00:07Z</time>
      </trkpt>
      <trkpt lat="44.59749" lon="6.00633">
        <ele>1196</ele>
        <time>2023-05-15T09:00:09Z</time>
      </trkpt>
      <trkpt lat="44.59755" lon="6.00631">
        <ele>1195</ele>
        <time>2023-05-15T09:00:10Z</time>
      </trkpt>
      <trkpt lat="44.59761" lon="6.00629">
        <ele>1194.8</ele>
        <time>2023-05-15T09:00:11Z</time>
      </trkpt>
      <trkpt lat="44.59766" lon="6.00628">
        <ele>1193.8</ele>
        <time>2023-05-15T09:00:12Z</time>
      </trkpt>
      <trkpt lat="44.5977" lon="6.00627">
        <ele>1193.2</ele>
        <time>2023-05-15T09:00:13Z</time>
      </trkpt>
      <trkpt lat="44.59774" lon="6.00625">
        <ele>1192.6</ele>
        <time>2023-05-15T09:00:14Z</time>
      </trkpt>
      <trkpt lat="44.59778" lon="6.00624">
        <ele>1192.2</ele>
        <time>2023-05-15T09:00:15Z</time>
      </trkpt>
      <trkpt lat="44.59781" lon="6.00622">
        <ele>1191.8</ele>
        <time>2023-05-15T09:00:16Z</time>
      </trkpt>
      <trkpt lat="44.59783" lon="6.00621">
        <ele>1191.6</ele>
        <time>2023-05-15T09:00:17Z</time>
      </trkpt>
      <trkpt lat="44.59785" lon="6.0062">
        <ele>1191.4</ele>
        <time>2023-05-15T09:00:18Z</time>
      </trkpt>
      <trkpt lat="44.59786" lon="6.00618">
        <ele>1191</ele>
        <time>2023-05-15T09:00:19Z</time>
      </trkpt>
      <trkpt lat="44.59786" lon="6.00616">
        <ele>1191</ele>
        <time>2023-05-15T09:00:20Z</time>
      </trkpt>
      <trkpt lat="44.59786" lon="6.00613">
        <ele>1190.8</ele>
        <time>2023-05-15T09:00:21Z</time>
      </trkpt>
      <trkpt lat="44.59786" lon="6.0061">
        <ele>1190.6</ele>
        <time>2023-05-15T09:00:22Z</time>
      </trkpt>
      <trkpt lat="44.59785" lon="6.00606">
        <ele>1190</ele>
        <time>2023-05-15T09:00:23Z</time>
      </trkpt>
      <trkpt lat="44.59785" lon="6.00595">
        <ele>1188.8</ele>
        <time>2023-05-15T09:00:26Z</time>
      </trkpt>
      <trkpt lat="44.59786" lon="6.00588">
        <ele>1188.4</ele>
        <time>2023-05-15T09:00:28Z</time>
      </trkpt>
      <trkpt lat="44.59787" lon="6.00584">
        <ele>1188.2</ele>
        <time>2023-05-15T09:00:29Z</time>
      </trkpt>
      <trkpt lat="44.59787" lon="6.00575">
        <ele>1188</ele>
        <time>2023-05-15T09:00:32Z</time>
      </trkpt>
      <trkpt lat="44.59787" lon="6.00572">
        <ele>1187.8</ele>
        <time>2023-05-15T09:00:33Z</time>
      </trkpt>
      <trkpt lat="44.59788" lon="6.00569">
        <ele>1187.6</ele>
        <time>2023-05-15T09:00:34Z</time>
      </trkpt>
      <trkpt lat="44.59789" lon="6.00567">
        <ele>1187.4</ele>
        <time>2023-05-15T09:00:35Z</time>
      </trkpt>
      <trkpt lat="44.5979" lon="6.00565">
        <ele>1187.4</ele>
        <time>2023-05-15T09:00:36Z</time>
      </trkpt>
      <trkpt lat="44.5979" lon="6.00562">
        <ele>1187.2</ele>
        <time>2023-05-15T09:00:37Z</time>
      </trkpt>
      <trkpt lat="44.59792" lon="6.00559">
        <ele>1187.2</ele>
        <time>2023-05-15T09:00:38Z</time>
      </trkpt>
      <trkpt lat="44.59793" lon="6.00557">
        <ele>1186.8</ele>
        <time>2023-05-15T09:00:39Z</time>
      </trkpt>
      <trkpt lat="44.59794" lon="6.00554">
        <ele>1186.6</ele>
        <time>2023-05-15T09:00:40Z</time>
      </trkpt>
      <trkpt lat="44.59801" lon="6.00545">
        <ele>1186.6</ele>
        <time>2023-05-15T09:00:44Z</time>
      </trkpt>
      <trkpt lat="44.59802" lon="6.00544">
        <ele>1186.6</ele>
        <time>2023-05-15T09:00:45Z</time>
      </trkpt>
      <trkpt lat="44.59803" lon="6.00543">
        <ele>1186.6</ele>
        <time>2023-05-15T09:00:46Z</time>
      </trkpt>
      <trkpt lat="44.59804" lon="6.00543">
        <ele>1186.8</ele>
        <time>2023-05-15T09:00:47Z</time>
      </trkpt>
      <trkpt lat="44.59806" lon="6.00541">
        <ele>1187.8</ele>
        <time>2023-05-15T09:00:53Z</time>
      </trkpt>
      <trkpt lat="44.59809" lon="6.00539">
        <ele>1188.8</ele>
        <time>2023-05-15T09:00:57Z</time>
      </trkpt>
      <trkpt lat="44.5981" lon="6.00539">
        <ele>1189</ele>
        <time>2023-05-15T09:00:58Z</time>
      </trkpt>
      <trkpt lat="44.5981" lon="6.00539">
        <ele>1189.2</ele>
        <time>2023-05-15T09:00:59Z</time>
      </trkpt>
      <trkpt lat="44.5981" lon="6.00539">
        <ele>1189.2</ele>
        <time>2023-05-15T09:01:00Z</time>
      </trkpt>
      <trkpt lat="44.5981" lon="6.00539">
        <ele>1189.2</ele>
        <time>2023-05-15T09:01:01Z</time>
      </trkpt>
      <trkpt lat="44.59815" lon="6.00537">
        <ele>1190</ele>
        <time>2023-05-15T09:01:07Z</time>
      </trkpt>
      <trkpt lat="44.59815" lon="6.00537">
        <ele>1190.2</ele>
        <time>2023-05-15T09:01:08Z</time>
      </trkpt>
      <trkpt lat="44.59815" lon="6.00537">
        <ele>1190.4</ele>
        <time>2023-05-15T09:01:11Z</time>
      </trkpt>
      <trkpt lat="44.59816" lon="6.00536">
        <ele>1190.6</ele>
        <time>2023-05-15T09:01:14Z</time>
      </trkpt>
      <trkpt lat="44.59817" lon="6.00536">
        <ele>1190.6</ele>
        <time>2023-05-15T09:01:15Z</time>
      </trkpt>
      <trkpt lat="44.59819" lon="6.00535">
        <ele>1190.8</ele>
        <time>2023-05-15T09:01:16Z</time>
      </trkpt>
      <trkpt lat="44.59821" lon="6.00534">
        <ele>1190.8</ele>
        <time>2023-05-15T09:01:17Z</time>
      </trkpt>
      <trkpt lat="44.59822" lon="6.00533">
        <ele>1190.8</ele>
        <time>2023-05-15T09:01:18Z</time>
      </trkpt>
      <trkpt lat="44.59825" lon="6.0053">
        <ele>1191</ele>
        <time>2023-05-15T09:01:20Z</time>
      </trkpt>
      <trkpt lat="44.59828" lon="6.00527">
        <ele>1191.4</ele>
        <time>2023-05-15T09:01:22Z</time>
      </trkpt>
      <trkpt lat="44.59834" lon="6.00523">
        <ele>1192</ele>
        <time>2023-05-15T09:01:26Z</time>
      </trkpt>
      <trkpt lat="44.59837" lon="6.00521">
        <ele>1192.2</ele>
        <time>2023-05-15T09:01:28Z</time>
      </trkpt>
      <trkpt lat="44.59837" lon="6.00521">
        <ele>1192.4</ele>
        <time>2023-05-15T09:01:29Z</time>
      </trkpt>
      <trkpt lat="44.59837" lon="6.00521">
        <ele>1192.6</ele>
        <time>2023-05-15T09:01:30Z</time>
      </trkpt>
      <trkpt lat="44.59837" lon="6.00521">
        <ele>1192.6</ele>
        <time>2023-05-15T09:01:31Z</time>
      </trkpt>
      <trkpt lat="44.59837" lon="6.0052">
        <ele>1192.8</ele>
        <time>2023-05-15T09:01:32Z</time>
      </trkpt>
      <trkpt lat="44.59838" lon="6.00519">
        <ele>1193</ele>
        <time>2023-05-15T09:01:33Z</time>
      </trkpt>
      <trkpt lat="44.59839" lon="6.00518">
        <ele>1193.2</ele>
        <time>2023-05-15T09:01:34Z</time>
      </trkpt>
      <trkpt lat="44.5984" lon="6.00517">
        <ele>1193.4</ele>
        <time>2023-05-15T09:01:35Z</time>
      </trkpt>
      <trkpt lat="44.5984" lon="6.00516">
        <ele>1193.4</ele>
        <time>2023-05-15T09:01:36Z</time>
      </trkpt>
      <trkpt lat="44.59841" lon="6.00515">
        <ele>1193.6</ele>
        <time>2023-05-15T09:01:37Z</time>
      </trkpt>
      <trkpt lat="44.59841" lon="6.00514">
        <ele>1193.8</ele>
        <time>2023-05-15T09:01:38Z</time>
      </trkpt>
      <trkpt lat="44.59842" lon="6.00513">
        <ele>1194</ele>
        <time>2023-05-15T09:01:39Z</time>
      </trkpt>
      <trkpt lat="44.59843" lon="6.00512">
        <ele>1194.2</ele>
        <time>2023-05-15T09:01:40Z</time>
      </trkpt>
      <trkpt lat="44.59844" lon="6.00512">
        <ele>1194.2</ele>
        <time>2023-05-15T09:01:41Z</time>
      </trkpt>
      <trkpt lat="44.59844" lon="6.00512">
        <ele>1194.4</ele>
        <time>2023-05-15T09:01:42Z</time>
      </trkpt>
      <trkpt lat="44.59844" lon="6.00512">
        <ele>1194.4</ele>
        <time>2023-05-15T09:01:43Z</time>
      </trkpt>
      <trkpt lat="44.59845" lon="6.00512">
        <ele>1194.6</ele>
        <time>2023-05-15T09:01:45Z</time>
      </trkpt>
      <trkpt lat="44.59846" lon="6.00511">
        <ele>1194.8</ele>
        <time>2023-05-15T09:01:46Z</time>
      </trkpt>
      <trkpt lat="44.59848" lon="6.0051">
        <ele>1194.8</ele>
        <time>2023-05-15T09:01:47Z</time>
      </trkpt>
      <trkpt lat="44.5985" lon="6.0051">
        <ele>1194.8</ele>
        <time>2023-05-15T09:01:48Z</time>
      </trkpt>
      <trkpt lat="44.59852" lon="6.00509">
        <ele>1194.8</ele>
        <time>2023-05-15T09:01:49Z</time>
      </trkpt>
      <trkpt lat="44.59855" lon="6.00508">
        <ele>1195</ele>
        <time>2023-05-15T09:01:50Z</time>
      </trkpt>
      <trkpt lat="44.59857" lon="6.00507">
        <ele>1195.2</ele>
        <time>2023-05-15T09:01:51Z</time>
      </trkpt>
      <trkpt lat="44.5986" lon="6.00506">
        <ele>1195.2</ele>
        <time>2023-05-15T09:01:52Z</time>
      </trkpt>
      <trkpt lat="44.59863" lon="6.00505">
        <ele>1195.2</ele>
        <time>2023-05-15T09:01:53Z</time>
      </trkpt>
      <trkpt lat="44.59865" lon="6.00505">
        <ele>1195.2</ele>
        <time>2023-05-15T09:01:54Z</time>
      </trkpt>
      <trkpt lat="44.59867" lon="6.00505">
        <ele>1195</ele>
        <time>2023-05-15T09:01:55Z</time>
      </trkpt>
      <trkpt lat="44.59869" lon="6.00504">
        <ele>1195</ele>
        <time>2023-05-15T09:01:56Z</time>
      </trkpt>
      <trkpt lat="44.59872" lon="6.00503">
        <ele>1195</ele>
        <time>2023-05-15T09:01:57Z</time>
      </trkpt>
      <trkpt lat="44.59875" lon="6.00502">
        <ele>1195</ele>
        <time>2023-05-15T09:01:58Z</time>
      </trkpt>
      <trkpt lat="44.59885" lon="6.005">
        <ele>1194.8</ele>
        <time>2023-05-15T09:02:01Z</time>
      </trkpt>
      <trkpt lat="44.59887" lon="6.005">
        <ele>1194.8</ele>
        <time>2023-05-15T09:02:02Z</time>
      </trkpt>
      <trkpt lat="44.59889" lon="6.005">
        <ele>1194.6</ele>
        <time>2023-05-15T09:02:03Z</time>
      </trkpt>
      <trkpt lat="44.5989" lon="6.005">
        <ele>1194.6</ele>
        <time>2023-05-15T09:02:04Z</time>
      </trkpt>
      <trkpt lat="44.59891" lon="6.00499">
        <ele>1194.4</ele>
        <time>2023-05-15T09:02:05Z</time>
      </trkpt>
      <trkpt lat="44.59893" lon="6.00498">
        <ele>1194.2</ele>
        <time>2023-05-15T09:02:06Z</time>
      </trkpt>
      <trkpt lat="44.59894" lon="6.00498">
        <ele>1194</ele>
        <time>2023-05-15T09:02:07Z</time>
      </trkpt>
      <trkpt lat="44.59898" lon="6.00498">
        <ele>1193.8</ele>
        <time>2023-05-15T09:02:09Z</time>
      </trkpt>
      <trkpt lat="44.59899" lon="6.00498">
        <ele>1193.6</ele>
        <time>2023-05-15T09:02:10Z</time>
      </trkpt>
      <trkpt lat="44.59901" lon="6.00499">
        <ele>1193.4</ele>
        <time>2023-05-15T09:02:11Z</time>
      </trkpt>
      <trkpt lat="44.59903" lon="6.00499">
        <ele>1193.2</ele>
        <time>2023-05-15T09:02:12Z</time>
      </trkpt>
      <trkpt lat="44.59911" lon="6.00502">
        <ele>1192.8</ele>
        <time>2023-05-15T09:02:16Z</time>
      </trkpt>
      <trkpt lat="44.59918" lon="6.00505">
        <ele>1192.8</ele>
        <time>2023-05-15T09:02:20Z</time>
      </trkpt>
      <trkpt lat="44.59919" lon="6.00506">
        <ele>1193</ele>
        <time>2023-05-15T09:02:21Z</time>
      </trkpt>
      <trkpt lat="44.59921" lon="6.00507">
        <ele>1193</ele>
        <time>2023-05-15T09:02:22Z</time>
      </trkpt>
      <trkpt lat="44.59922" lon="6.00507">
        <ele>1193.2</ele>
        <time>2023-05-15T09:02:23Z</time>
      </trkpt>
      <trkpt lat="44.59922" lon="6.00507">
        <ele>1193.6</ele>
        <time>2023-05-15T09:02:26Z</time>
      </trkpt>
      <trkpt lat="44.59923" lon="6.00508">
        <ele>1193.8</ele>
        <time>2023-05-15T09:02:28Z</time>
      </trkpt>
      <trkpt lat="44.59923" lon="6.00508">
        <ele>1194</ele>
        <time>2023-05-15T09:02:30Z</time>
      </trkpt>
      <trkpt lat="44.59923" lon="6.00508">
        <ele>1194.4</ele>
        <time>2023-05-15T09:02:34Z</time>
      </trkpt>
      <trkpt lat="44.59926" lon="6.00511">
        <ele>1193.4</ele>
        <time>2023-05-15T09:03:14Z</time>
      </trkpt>
      <trkpt lat="44.59926" lon="6.00511">
        <ele>1193.4</ele>
        <time>2023-05-15T09:03:15Z</time>
      </trkpt>
      <trkpt lat="44.59927" lon="6.00512">
        <ele>1193.4</ele>
        <time>2023-05-15T09:03:16Z</time>
      </trkpt>
      <trkpt lat="44.59929" lon="6.00514">
        <ele>1194</ele>
        <time>2023-05-15T09:03:18Z</time>
      </trkpt>
      <trkpt lat="44.5993" lon="6.00516">
        <ele>1194.4</ele>
        <time>2023-05-15T09:03:20Z</time>
      </trkpt>
      <trkpt lat="44.5993" lon="6.00516">
        <ele>1194.4</ele>
        <time>2023-05-15T09:03:21Z</time>
      </trkpt>
      <trkpt lat="44.5993" lon="6.00516">
        <ele>1194.8</ele>
        <time>2023-05-15T09:03:22Z</time>
      </trkpt>
      <trkpt lat="44.59934" lon="6.00519">
        <ele>1195.8</ele>
        <time>2023-05-15T09:03:28Z</time>
      </trkpt>
      <trkpt lat="44.59935" lon="6.00518">
        <ele>1195.8</ele>
        <time>2023-05-15T09:03:29Z</time>
      </trkpt>
      <trkpt lat="44.59936" lon="6.00518">
        <ele>1195.8</ele>
        <time>2023-05-15T09:03:30Z</time>
      </trkpt>
      <trkpt lat="44.59942" lon="6.00513">
        <ele>1196.4</ele>
        <time>2023-05-15T09:03:34Z</time>
      </trkpt>
      <trkpt lat="44.59943" lon="6.00513">
        <ele>1196.4</ele>
        <time>2023-05-15T09:03:35Z</time>
      </trkpt>
      <trkpt lat="44.59944" lon="6.00513">
        <ele>1196.4</ele>
        <time>2023-05-15T09:03:36Z</time>
      </trkpt>
      <trkpt lat="44.59946" lon="6.00512">
        <ele>1196.4</ele>
        <time>2023-05-15T09:03:37Z</time>
      </trkpt>
      <trkpt lat="44.59946" lon="6.00512">
        <ele>1196.6</ele>
        <time>2023-05-15T09:03:38Z</time>
      </trkpt>
      <trkpt lat="44.59946" lon="6.00512">
        <ele>1196.6</ele>
        <time>2023-05-15T09:03:40Z</time>
      </trkpt>
      <trkpt lat="44.59947" lon="6.00511">
        <ele>1196.6</ele>
        <time>2023-05-15T09:03:41Z</time>
      </trkpt>
      <trkpt lat="44.59948" lon="6.0051">
        <ele>1196.8</ele>
        <time>2023-05-15T09:03:42Z</time>
      </trkpt>
      <trkpt lat="44.59948" lon="6.00509">
        <ele>1196.8</ele>
        <time>2023-05-15T09:03:43Z</time>
      </trkpt>
      <trkpt lat="44.59949" lon="6.00507">
        <ele>1197.4</ele>
        <time>2023-05-15T09:03:44Z</time>
      </trkpt>
      <trkpt lat="44.59949" lon="6.00506">
        <ele>1197.6</ele>
        <time>2023-05-15T09:03:45Z</time>
      </trkpt>
      <trkpt lat="44.5995" lon="6.00505">
        <ele>1197.8</ele>
        <time>2023-05-15T09:03:46Z</time>
      </trkpt>
      <trkpt lat="44.59951" lon="6.00503">
        <ele>1197.8</ele>
        <time>2023-05-15T09:03:47Z</time>
      </trkpt>
      <trkpt lat="44.59951" lon="6.00501">
        <ele>1197.8</ele>
        <time>2023-05-15T09:03:48Z</time>
      </trkpt>
      <trkpt lat="44.59952" lon="6.005">
        <ele>1198</ele>
        <time>2023-05-15T09:03:49Z</time>
      </trkpt>
      <trkpt lat="44.59952" lon="6.00498">
        <ele>1198</ele>
        <time>2023-05-15T09:03:50Z</time>
      </trkpt>
      <trkpt lat="44.59953" lon="6.00497">
        <ele>1198</ele>
        <time>2023-05-15T09:03:51Z</time>
      </trkpt>
      <trkpt lat="44.59953" lon="6.00495">
        <ele>1198</ele>
        <time>2023-05-15T09:03:52Z</time>
      </trkpt>
      <trkpt lat="44.59953" lon="6.00492">
        <ele>1198.2</ele>
        <time>2023-05-15T09:03:53Z</time>
      </trkpt>
      <trkpt lat="44.59953" lon="6.0049">
        <ele>1198.2</ele>
        <time>2023-05-15T09:03:54Z</time>
      </trkpt>
      <trkpt lat="44.59953" lon="6.00488">
        <ele>1198.2</ele>
        <time>2023-05-15T09:03:55Z</time>
      </trkpt>
      <trkpt lat="44.59954" lon="6.00486">
        <ele>1198.4</ele>
        <time>2023-05-15T09:03:56Z</time>
      </trkpt>
      <trkpt lat="44.59954" lon="6.00484">
        <ele>1198.6</ele>
        <time>2023-05-15T09:03:57Z</time>
      </trkpt>
      <trkpt lat="44.59955" lon="6.00483">
        <ele>1198.8</ele>
        <time>2023-05-15T09:03:58Z</time>
      </trkpt>
      <trkpt lat="44.59955" lon="6.00481">
        <ele>1199</ele>
        <time>2023-05-15T09:03:59Z</time>
      </trkpt>
      <trkpt lat="44.59954" lon="6.00479">
        <ele>1199.2</ele>
        <time>2023-05-15T09:04:00Z</time>
      </trkpt>
      <trkpt lat="44.59954" lon="6.00477">
        <ele>1199.4</ele>
        <time>2023-05-15T09:04:01Z</time>
      </trkpt>
      <trkpt lat="44.59954" lon="6.00475">
        <ele>1199.4</ele>
        <time>2023-05-15T09:04:02Z</time>
      </trkpt>
      <trkpt lat="44.59955" lon="6.00474">
        <ele>1199.6</ele>
        <time>2023-05-15T09:04:03Z</time>
      </trkpt>
      <trkpt lat="44.59956" lon="6.00472">
        <ele>1199.8</ele>
        <time>2023-05-15T09:04:04Z</time>
      </trkpt>
      <trkpt lat="44.59956" lon="6.0047">
        <ele>1200</ele>
        <time>2023-05-15T09:04:05Z</time>
      </trkpt>
      <trkpt lat="44.59957" lon="6.00469">
        <ele>1200</ele>
        <time>2023-05-15T09:04:06Z</time>
      </trkpt>
      <trkpt lat="44.59958" lon="6.00467">
        <ele>1200.2</ele>
        <time>2023-05-15T09:04:07Z</time>
      </trkpt>
      <trkpt lat="44.59959" lon="6.00465">
        <ele>1200.2</ele>
        <time>2023-05-15T09:04:08Z</time>
      </trkpt>
      <trkpt lat="44.59959" lon="6.00464">
        <ele>1200.6</ele>
        <time>2023-05-15T09:04:09Z</time>
      </trkpt>
      <trkpt lat="44.59959" lon="6.00464">
        <ele>1200.8</ele>
        <time>2023-05-15T09:04:11Z</time>
      </trkpt>
      <trkpt lat="44.59959" lon="6.00464">
        <ele>1201</ele>
        <time>2023-05-15T09:04:12Z</time>
      </trkpt>
      <trkpt lat="44.5996" lon="6.00464">
        <ele>1201</ele>
        <time>2023-05-15T09:04:14Z</time>
      </trkpt>
      <trkpt lat="44.5996" lon="6.00464">
        <ele>1201</ele>
        <time>2023-05-15T09:04:15Z</time>
      </trkpt>
      <trkpt lat="44.5996" lon="6.00464">
        <ele>1201.2</ele>
        <time>2023-05-15T09:04:16Z</time>
      </trkpt>
      <trkpt lat="44.5996" lon="6.00464">
        <ele>1201.2</ele>
        <time>2023-05-15T09:04:17Z</time>
      </trkpt>
      <trkpt lat="44.5996" lon="6.00464">
        <ele>1201.2</ele>
        <time>2023-05-15T09:04:18Z</time>
      </trkpt>
      <trkpt lat="44.5996" lon="6.00464">
        <ele>1201.4</ele>
        <time>2023-05-15T09:04:19Z</time>
      </trkpt>
      <trkpt lat="44.5996" lon="6.00463">
        <ele>1201.4</ele>
        <time>2023-05-15T09:04:20Z</time>
      </trkpt>
      <trkpt lat="44.59961" lon="6.00463">
        <ele>1201.4</ele>
        <time>2023-05-15T09:04:21Z</time>
      </trkpt>
      <trkpt lat="44.59962" lon="6.00462">
        <ele>1201.6</ele>
        <time>2023-05-15T09:04:22Z</time>
      </trkpt>
      <trkpt lat="44.59962" lon="6.00461">
        <ele>1201.8</ele>
        <time>2023-05-15T09:04:23Z</time>
      </trkpt>
      <trkpt lat="44.59962" lon="6.0046">
        <ele>1201.8</ele>
        <time>2023-05-15T09:04:24Z</time>
      </trkpt>
      <trkpt lat="44.59962" lon="6.0046">
        <ele>1202</ele>
        <time>2023-05-15T09:04:25Z</time>
      </trkpt>
      <trkpt lat="44.59962" lon="6.0046">
        <ele>1202</ele>
        <time>2023-05-15T09:04:26Z</time>
      </trkpt>
      <trkpt lat="44.59963" lon="6.00459">
        <ele>1202</ele>
        <time>2023-05-15T09:04:27Z</time>
      </trkpt>
      <trkpt lat="44.59963" lon="6.00459">
        <ele>1202</ele>
        <time>2023-05-15T09:04:28Z</time>
      </trkpt>
      <trkpt lat="44.59963" lon="6.00458">
        <ele>1202.2</ele>
        <time>2023-05-15T09:04:29Z</time>
      </trkpt>
      <trkpt lat="44.59964" lon="6.00457">
        <ele>1202.2</ele>
        <time>2023-05-15T09:04:30Z</time>
      </trkpt>
      <trkpt lat="44.59964" lon="6.00457">
        <ele>1202.4</ele>
        <time>2023-05-15T09:04:31Z</time>
      </trkpt>
      <trkpt lat="44.59964" lon="6.00457">
        <ele>1202.6</ele>
        <time>2023-05-15T09:04:32Z</time>
      </trkpt>
      <trkpt lat="44.59964" lon="6.00457">
        <ele>1202.6</ele>
        <time>2023-05-15T09:04:33Z</time>
      </trkpt>
      <trkpt lat="44.59964" lon="6.00457">
        <ele>1202.8</ele>
        <time>2023-05-15T09:04:34Z</time>
      </trkpt>
      <trkpt lat="44.59964" lon="6.00455">
        <ele>1202.8</ele>
        <time>2023-05-15T09:04:35Z</time>
      </trkpt>
      <trkpt lat="44.59965" lon="6.00454">
        <ele>1203</ele>
        <time>2023-05-15T09:04:36Z</time>
      </trkpt>
      <trkpt lat="44.59965" lon="6.00453">
        <ele>1203</ele>
        <time>2023-05-15T09:04:37Z</time>
      </trkpt>
      <trkpt lat="44.59965" lon="6.00451">
        <ele>1203.2</ele>
        <time>2023-05-15T09:04:38Z</time>
      </trkpt>
      <trkpt lat="44.59966" lon="6.0045">
        <ele>1203.4</ele>
        <time>2023-05-15T09:04:39Z</time>
      </trkpt>
      <trkpt lat="44.59966" lon="6.00448">
        <ele>1203.4</ele>
        <time>2023-05-15T09:04:40Z</time>
      </trkpt>
      <trkpt lat="44.59967" lon="6.00447">
        <ele>1203.8</ele>
        <time>2023-05-15T09:04:41Z</time>
      </trkpt>
      <trkpt lat="44.59967" lon="6.00446">
        <ele>1204</ele>
        <time>2023-05-15T09:04:42Z</time>
      </trkpt>
      <trkpt lat="44.59968" lon="6.00444">
        <ele>1204.2</ele>
        <time>2023-05-15T09:04:43Z</time>
      </trkpt>
      <trkpt lat="44.59968" lon="6.00443">
        <ele>1204.2</ele>
        <time>2023-05-15T09:04:44Z</time>
      </trkpt>
      <trkpt lat="44.59969" lon="6.00442">
        <ele>1204.4</ele>
        <time>2023-05-15T09:04:45Z</time>
      </trkpt>
      <trkpt lat="44.59969" lon="6.00441">
        <ele>1204.6</ele>
        <time>2023-05-15T09:04:46Z</time>
      </trkpt>
      <trkpt lat="44.5997" lon="6.00439">
        <ele>1204.6</ele>
        <time>2023-05-15T09:04:47Z</time>
      </trkpt>
      <trkpt lat="44.5997" lon="6.00438">
        <ele>1204.8</ele>
        <time>2023-05-15T09:04:48Z</time>
      </trkpt>
      <trkpt lat="44.59971" lon="6.00437">
        <ele>1205</ele>
        <time>2023-05-15T09:04:49Z</time>
      </trkpt>
      <trkpt lat="44.59971" lon="6.00435">
        <ele>1205.2</ele>
        <time>2023-05-15T09:04:50Z</time>
      </trkpt>
      <trkpt lat="44.59972" lon="6.00434">
        <ele>1205.2</ele>
        <time>2023-05-15T09:04:51Z</time>
      </trkpt>
      <trkpt lat="44.59972" lon="6.00432">
        <ele>1205.4</ele>
        <time>2023-05-15T09:04:52Z</time>
      </trkpt>
      <trkpt lat="44.59972" lon="6.00432">
        <ele>1205.6</ele>
        <time>2023-05-15T09:04:53Z</time>
      </trkpt>
      <trkpt lat="44.59972" lon="6.00432">
        <ele>1205.8</ele>
        <time>2023-05-15T09:04:54Z</time>
      </trkpt>
      <trkpt lat="44.59973" lon="6.00431">
        <ele>1206.2</ele>
        <time>2023-05-15T09:04:58Z</time>
      </trkpt>
      <trkpt lat="44.59973" lon="6.0043">
        <ele>1206.4</ele>
        <time>2023-05-15T09:04:59Z</time>
      </trkpt>
      <trkpt lat="44.59974" lon="6.00429">
        <ele>1206.4</ele>
        <time>2023-05-15T09:05:00Z</time>
      </trkpt>
      <trkpt lat="44.59975" lon="6.00427">
        <ele>1206.4</ele>
        <time>2023-05-15T09:05:01Z</time>
      </trkpt>
      <trkpt lat="44.59976" lon="6.00425">
        <ele>1206.4</ele>
        <time>2023-05-15T09:05:02Z</time>
      </trkpt>
      <trkpt lat="44.59976" lon="6.00424">
        <ele>1206.6</ele>
        <time>2023-05-15T09:05:03Z</time>
      </trkpt>
      <trkpt lat="44.59977" lon="6.00422">
        <ele>1206.6</ele>
        <time>2023-05-15T09:05:04Z</time>
      </trkpt>
      <trkpt lat="44.59978" lon="6.0042">
        <ele>1206.8</ele>
        <time>2023-05-15T09:05:05Z</time>
      </trkpt>
      <trkpt lat="44.59979" lon="6.00418">
        <ele>1206.8</ele>
        <time>2023-05-15T09:05:06Z</time>
      </trkpt>
      <trkpt lat="44.5998" lon="6.00417">
        <ele>1207.2</ele>
        <time>2023-05-15T09:05:07Z</time>
      </trkpt>
      <trkpt lat="44.59981" lon="6.00416">
        <ele>1207.4</ele>
        <time>2023-05-15T09:05:08Z</time>
      </trkpt>
      <trkpt lat="44.59982" lon="6.00415">
        <ele>1207.6</ele>
        <time>2023-05-15T09:05:09Z</time>
      </trkpt>
      <trkpt lat="44.59983" lon="6.00413">
        <ele>1207.8</ele>
        <time>2023-05-15T09:05:10Z</time>
      </trkpt>
      <trkpt lat="44.59984" lon="6.00413">
        <ele>1207.8</ele>
        <time>2023-05-15T09:05:11Z</time>
      </trkpt>
      <trkpt lat="44.59985" lon="6.00411">
        <ele>1208</ele>
        <time>2023-05-15T09:05:12Z</time>
      </trkpt>
      <trkpt lat="44.59985" lon="6.0041">
        <ele>1208.2</ele>
        <time>2023-05-15T09:05:13Z</time>
      </trkpt>
      <trkpt lat="44.59986" lon="6.00408">
        <ele>1208.6</ele>
        <time>2023-05-15T09:05:14Z</time>
      </trkpt>
      <trkpt lat="44.59987" lon="6.00407">
        <ele>1209</ele>
        <time>2023-05-15T09:05:15Z</time>
      </trkpt>
      <trkpt lat="44.59988" lon="6.00405">
        <ele>1209.4</ele>
        <time>2023-05-15T09:05:16Z</time>
      </trkpt>
      <trkpt lat="44.59989" lon="6.00404">
        <ele>1209.8</ele>
        <time>2023-05-15T09:05:17Z</time>
      </trkpt>
      <trkpt lat="44.5999" lon="6.00403">
        <ele>1209.8</ele>
        <time>2023-05-15T09:05:18Z</time>
      </trkpt>
      <trkpt lat="44.59991" lon="6.00402">
        <ele>1210</ele>
        <time>2023-05-15T09:05:19Z</time>
      </trkpt>
      <trkpt lat="44.59991" lon="6.00401">
        <ele>1210.2</ele>
        <time>2023-05-15T09:05:20Z</time>
      </trkpt>
      <trkpt lat="44.59992" lon="6.004">
        <ele>1210.2</ele>
        <time>2023-05-15T09:05:21Z</time>
      </trkpt>
      <trkpt lat="44.59994" lon="6.00399">
        <ele>1210.2</ele>
        <time>2023-05-15T09:05:22Z</time>
      </trkpt>
      <trkpt lat="44.59995" lon="6.00399">
        <ele>1210.6</ele>
        <time>2023-05-15T09:05:23Z</time>
      </trkpt>
      <trkpt lat="44.59996" lon="6.00398">
        <ele>1210.6</ele>
        <time>2023-05-15T09:05:24Z</time>
      </trkpt>
      <trkpt lat="44.59997" lon="6.00398">
        <ele>1211</ele>
        <time>2023-05-15T09:05:25Z</time>
      </trkpt>
      <trkpt lat="44.59998" lon="6.00397">
        <ele>1211.2</ele>
        <time>2023-05-15T09:05:26Z</time>
      </trkpt>
      <trkpt lat="44.59999" lon="6.00396">
        <ele>1211.2</ele>
        <time>2023-05-15T09:05:27Z</time>
      </trkpt>
      <trkpt lat="44.6" lon="6.00395">
        <ele>1211.4</ele>
        <time>2023-05-15T09:05:28Z</time>
      </trkpt>
      <trkpt lat="44.60002" lon="6.00394">
        <ele>1211.6</ele>
        <time>2023-05-15T09:05:29Z</time>
      </trkpt>
      <trkpt lat="44.60003" lon="6.00394">
        <ele>1211.6</ele>
        <time>2023-05-15T09:05:30Z</time>
      </trkpt>
      <trkpt lat="44.60004" lon="6.00393">
        <ele>1211.6</ele>
        <time>2023-05-15T09:05:31Z</time>
      </trkpt>
      <trkpt lat="44.60005" lon="6.00393">
        <ele>1211.8</ele>
        <time>2023-05-15T09:05:32Z</time>
      </trkpt>
      <trkpt lat="44.60006" lon="6.00393">
        <ele>1212.2</ele>
        <time>2023-05-15T09:05:33Z</time>
      </trkpt>
      <trkpt lat="44.60007" lon="6.00393">
        <ele>1212.2</ele>
        <time>2023-05-15T09:05:34Z</time>
      </trkpt>
      <trkpt lat="44.60009" lon="6.00393">
        <ele>1212.4</ele>
        <time>2023-05-15T09:05:35Z</time>
      </trkpt>
      <trkpt lat="44.6001" lon="6.00393">
        <ele>1212.4</ele>
        <time>2023-05-15T09:05:36Z</time>
      </trkpt>
      <trkpt lat="44.60011" lon="6.00393">
        <ele>1212.6</ele>
        <time>2023-05-15T09:05:37Z</time>
      </trkpt>
      <trkpt lat="44.60012" lon="6.00393">
        <ele>1212.6</ele>
        <time>2023-05-15T09:05:38Z</time>
      </trkpt>
      <trkpt lat="44.60012" lon="6.00393">
        <ele>1213.4</ele>
        <time>2023-05-15T09:05:41Z</time>
      </trkpt>
      <trkpt lat="44.60012" lon="6.00393">
        <ele>1213.6</ele>
        <time>2023-05-15T09:05:43Z</time>
      </trkpt>
      <trkpt lat="44.60012" lon="6.00393">
        <ele>1213.8</ele>
        <time>2023-05-15T09:05:44Z</time>
      </trkpt>
      <trkpt lat="44.60012" lon="6.00393">
        <ele>1214</ele>
        <time>2023-05-15T09:05:45Z</time>
      </trkpt>
      <trkpt lat="44.60012" lon="6.00393">
        <ele>1214.2</ele>
        <time>2023-05-15T09:05:46Z</time>
      </trkpt>
      <trkpt lat="44.60013" lon="6.00393">
        <ele>1214.2</ele>
        <time>2023-05-15T09:05:47Z</time>
      </trkpt>
      <trkpt lat="44.60013" lon="6.00393">
        <ele>1214.4</ele>
        <time>2023-05-15T09:05:48Z</time>
      </trkpt>
      <trkpt lat="44.60013" lon="6.00393">
        <ele>1214.6</ele>
        <time>2023-05-15T09:05:50Z</time>
      </trkpt>
      <trkpt lat="44.60014" lon="6.00393">
        <ele>1214.6</ele>
        <time>2023-05-15T09:05:51Z</time>
      </trkpt>
      <trkpt lat="44.60014" lon="6.00393">
        <ele>1214.6</ele>
        <time>2023-05-15T09:05:52Z</time>
      </trkpt>
      <trkpt lat="44.60015" lon="6.00393">
        <ele>1214.8</ele>
        <time>2023-05-15T09:05:53Z</time>
      </trkpt>
      <trkpt lat="44.60015" lon="6.00393">
        <ele>1214.8</ele>
        <time>2023-05-15T09:05:54Z</time>
      </trkpt>
      <trkpt lat="44.60015" lon="6.00393">
        <ele>1215</ele>
        <time>2023-05-15T09:05:55Z</time>
      </trkpt>
      <trkpt lat="44.60016" lon="6.00393">
        <ele>1215</ele>
        <time>2023-05-15T09:05:56Z</time>
      </trkpt>
      <trkpt lat="44.60017" lon="6.00393">
        <ele>1215</ele>
        <time>2023-05-15T09:05:57Z</time>
      </trkpt>
      <trkpt lat="44.60018" lon="6.00393">
        <ele>1215.2</ele>
        <time>2023-05-15T09:05:58Z</time>
      </trkpt>
      <trkpt lat="44.60018" lon="6.00393">
        <ele>1215.4</ele>
        <time>2023-05-15T09:05:59Z</time>
      </trkpt>
      <trkpt lat="44.60019" lon="6.00393">
        <ele>1215.6</ele>
        <time>2023-05-15T09:06:00Z</time>
      </trkpt>
      <trkpt lat="44.60019" lon="6.00393">
        <ele>1215.8</ele>
        <time>2023-05-15T09:06:01Z</time>
      </trkpt>
      <trkpt lat="44.6002" lon="6.00393">
        <ele>1216</ele>
        <time>2023-05-15T09:06:02Z</time>
      </trkpt>
      <trkpt lat="44.60021" lon="6.00393">
        <ele>1216</ele>
        <time>2023-05-15T09:06:03Z</time>
      </trkpt>
      <trkpt lat="44.60022" lon="6.00393">
        <ele>1216.2</ele>
        <time>2023-05-15T09:06:04Z</time>
      </trkpt>
      <trkpt lat="44.60022" lon="6.00393">
        <ele>1216.2</ele>
        <time>2023-05-15T09:06:05Z</time>
      </trkpt>
      <trkpt lat="44.60023" lon="6.00394">
        <ele>1216.2</ele>
        <time>2023-05-15T09:06:06Z</time>
      </trkpt>
      <trkpt lat="44.60024" lon="6.00394">
        <ele>1216.4</ele>
        <time>2023-05-15T09:06:07Z</time>
      </trkpt>
      <trkpt lat="44.60025" lon="6.00394">
        <ele>1216.4</ele>
        <time>2023-05-15T09:06:08Z</time>
      </trkpt>
      <trkpt lat="44.60026" lon="6.00394">
        <ele>1216.4</ele>
        <time>2023-05-15T09:06:09Z</time>
      </trkpt>
      <trkpt lat="44.60027" lon="6.00395">
        <ele>1216.6</ele>
        <time>2023-05-15T09:06:10Z</time>
      </trkpt>
      <trkpt lat="44.60028" lon="6.00395">
        <ele>1216.6</ele>
        <time>2023-05-15T09:06:11Z</time>
      </trkpt>
      <trkpt lat="44.60029" lon="6.00395">
        <ele>1216.8</ele>
        <time>2023-05-15T09:06:12Z</time>
      </trkpt>
      <trkpt lat="44.60029" lon="6.00394">
        <ele>1217</ele>
        <time>2023-05-15T09:06:13Z</time>
      </trkpt>
      <trkpt lat="44.6003" lon="6.00394">
        <ele>1217.2</ele>
        <time>2023-05-15T09:06:14Z</time>
      </trkpt>
      <trkpt lat="44.6003" lon="6.00394">
        <ele>1217.4</ele>
        <time>2023-05-15T09:06:15Z</time>
      </trkpt>
      <trkpt lat="44.60031" lon="6.00394">
        <ele>1217.4</ele>
        <time>2023-05-15T09:06:16Z</time>
      </trkpt>
      <trkpt lat="44.60032" lon="6.00394">
        <ele>1217.6</ele>
        <time>2023-05-15T09:06:17Z</time>
      </trkpt>
      <trkpt lat="44.60032" lon="6.00394">
        <ele>1217.8</ele>
        <time>2023-05-15T09:06:18Z</time>
      </trkpt>
      <trkpt lat="44.60032" lon="6.00394">
        <ele>1217.8</ele>
        <time>2023-05-15T09:06:19Z</time>
      </trkpt>
      <trkpt lat="44.60032" lon="6.00394">
        <ele>1218</ele>
        <time>2023-05-15T09:06:20Z</time>
      </trkpt>
      <trkpt lat="44.60032" lon="6.00394">
        <ele>1218.2</ele>
        <time>2023-05-15T09:06:22Z</time>
      </trkpt>
      <trkpt lat="44.60034" lon="6.00394">
        <ele>1218.6</ele>
        <time>2023-05-15T09:06:24Z</time>
      </trkpt>
      <trkpt lat="44.60035" lon="6.00394">
        <ele>1218.6</ele>
        <time>2023-05-15T09:06:25Z</time>
      </trkpt>
      <trkpt lat="44.60036" lon="6.00394">
        <ele>1218.8</ele>
        <time>2023-05-15T09:06:26Z</time>
      </trkpt>
      <trkpt lat="44.60036" lon="6.00393">
        <ele>1219</ele>
        <time>2023-05-15T09:06:27Z</time>
      </trkpt>
      <trkpt lat="44.60038" lon="6.00393">
        <ele>1219.2</ele>
        <time>2023-05-15T09:06:28Z</time>
      </trkpt>
      <trkpt lat="44.60039" lon="6.00394">
        <ele>1219.4</ele>
        <time>2023-05-15T09:06:29Z</time>
      </trkpt>
      <trkpt lat="44.6004" lon="6.00394">
        <ele>1219.6</ele>
        <time>2023-05-15T09:06:30Z</time>
      </trkpt>
      <trkpt lat="44.60041" lon="6.00394">
        <ele>1219.6</ele>
        <time>2023-05-15T09:06:31Z</time>
      </trkpt>
      <trkpt lat="44.60042" lon="6.00395">
        <ele>1219.8</ele>
        <time>2023-05-15T09:06:32Z</time>
      </trkpt>
      <trkpt lat="44.60043" lon="6.00395">
        <ele>1219.8</ele>
        <time>2023-05-15T09:06:33Z</time>
      </trkpt>
      <trkpt lat="44.60044" lon="6.00396">
        <ele>1220</ele>
        <time>2023-05-15T09:06:34Z</time>
      </trkpt>
      <trkpt lat="44.60044" lon="6.00396">
        <ele>1220.2</ele>
        <time>2023-05-15T09:06:35Z</time>
      </trkpt>
      <trkpt lat="44.60046" lon="6.00397">
        <ele>1220.4</ele>
        <time>2023-05-15T09:06:36Z</time>
      </trkpt>
      <trkpt lat="44.60046" lon="6.00397">
        <ele>1220.6</ele>
        <time>2023-05-15T09:06:37Z</time>
      </trkpt>
      <trkpt lat="44.60048" lon="6.00398">
        <ele>1220.8</ele>
        <time>2023-05-15T09:06:38Z</time>
      </trkpt>
      <trkpt lat="44.60049" lon="6.00399">
        <ele>1220.8</ele>
        <time>2023-05-15T09:06:39Z</time>
      </trkpt>
      <trkpt lat="44.6005" lon="6.00399">
        <ele>1221</ele>
        <time>2023-05-15T09:06:40Z</time>
      </trkpt>
      <trkpt lat="44.60051" lon="6.00399">
        <ele>1221</ele>
        <time>2023-05-15T09:06:41Z</time>
      </trkpt>
      <trkpt lat="44.60052" lon="6.00399">
        <ele>1221.2</ele>
        <time>2023-05-15T09:06:42Z</time>
      </trkpt>
      <trkpt lat="44.60052" lon="6.00398">
        <ele>1221.2</ele>
        <time>2023-05-15T09:06:43Z</time>
      </trkpt>
      <trkpt lat="44.60053" lon="6.00397">
        <ele>1221.4</ele>
        <time>2023-05-15T09:06:46Z</time>
      </trkpt>
      <trkpt lat="44.60053" lon="6.00396">
        <ele>1221.4</ele>
        <time>2023-05-15T09:06:47Z</time>
      </trkpt>
      <trkpt lat="44.60053" lon="6.00396">
        <ele>1221.6</ele>
        <time>2023-05-15T09:06:48Z</time>
      </trkpt>
      <trkpt lat="44.60054" lon="6.00394">
        <ele>1221.4</ele>
        <time>2023-05-15T09:06:49Z</time>
      </trkpt>
      <trkpt lat="44.60054" lon="6.00394">
        <ele>1221.6</ele>
        <time>2023-05-15T09:06:50Z</time>
      </trkpt>
      <trkpt lat="44.60053" lon="6.00393">
        <ele>1222</ele>
        <time>2023-05-15T09:06:51Z</time>
      </trkpt>
      <trkpt lat="44.60053" lon="6.00392">
        <ele>1222</ele>
        <time>2023-05-15T09:06:52Z</time>
      </trkpt>
      <trkpt lat="44.60053" lon="6.00391">
        <ele>1222</ele>
        <time>2023-05-15T09:06:53Z</time>
      </trkpt>
      <trkpt lat="44.60053" lon="6.00389">
        <ele>1222</ele>
        <time>2023-05-15T09:06:54Z</time>
      </trkpt>
      <trkpt lat="44.60052" lon="6.00388">
        <ele>1222.2</ele>
        <time>2023-05-15T09:06:55Z</time>
      </trkpt>
      <trkpt lat="44.60052" lon="6.00387">
        <ele>1222.2</ele>
        <time>2023-05-15T09:06:56Z</time>
      </trkpt>
      <trkpt lat="44.60052" lon="6.00386">
        <ele>1222.2</ele>
        <time>2023-05-15T09:06:57Z</time>
      </trkpt>
      <trkpt lat="44.60052" lon="6.00385">
        <ele>1222.2</ele>
        <time>2023-05-15T09:06:58Z</time>
      </trkpt>
      <trkpt lat="44.60052" lon="6.00385">
        <ele>1222</ele>
        <time>2023-05-15T09:07:01Z</time>
      </trkpt>
      <trkpt lat="44.60052" lon="6.00385">
        <ele>1222</ele>
        <time>2023-05-15T09:07:09Z</time>
      </trkpt>
      <trkpt lat="44.6005" lon="6.00381">
        <ele>1222.2</ele>
        <time>2023-05-15T09:07:19Z</time>
      </trkpt>
      <trkpt lat="44.6005" lon="6.00378">
        <ele>1222.2</ele>
        <time>2023-05-15T09:07:21Z</time>
      </trkpt>
      <trkpt lat="44.60049" lon="6.00377">
        <ele>1222.2</ele>
        <time>2023-05-15T09:07:22Z</time>
      </trkpt>
      <trkpt lat="44.60049" lon="6.00375">
        <ele>1222.2</ele>
        <time>2023-05-15T09:07:23Z</time>
      </trkpt>
      <trkpt lat="44.60049" lon="6.00372">
        <ele>1222.4</ele>
        <time>2023-05-15T09:07:25Z</time>
      </trkpt>
      <trkpt lat="44.6005" lon="6.00368">
        <ele>1222.6</ele>
        <time>2023-05-15T09:07:27Z</time>
      </trkpt>
      <trkpt lat="44.6005" lon="6.00367">
        <ele>1222.6</ele>
        <time>2023-05-15T09:07:28Z</time>
      </trkpt>
      <trkpt lat="44.60051" lon="6.00361">
        <ele>1222.8</ele>
        <time>2023-05-15T09:07:31Z</time>
      </trkpt>
      <trkpt lat="44.60052" lon="6.0036">
        <ele>1222.8</ele>
        <time>2023-05-15T09:07:32Z</time>
      </trkpt>
      <trkpt lat="44.60053" lon="6.0036">
        <ele>1222.8</ele>
        <time>2023-05-15T09:07:33Z</time>
      </trkpt>
      <trkpt lat="44.60053" lon="6.0036">
        <ele>1222.8</ele>
        <time>2023-05-15T09:07:35Z</time>
      </trkpt>
      <trkpt lat="44.60053" lon="6.0036">
        <ele>1222.2</ele>
        <time>2023-05-15T09:07:55Z</time>
      </trkpt>
      <trkpt lat="44.60053" lon="6.0036">
        <ele>1222</ele>
        <time>2023-05-15T09:08:34Z</time>
      </trkpt>
      <trkpt lat="44.60054" lon="6.00357">
        <ele>1221.8</ele>
        <time>2023-05-15T09:08:39Z</time>
      </trkpt>
      <trkpt lat="44.60054" lon="6.00357">
        <ele>1221.8</ele>
        <time>2023-05-15T09:08:40Z</time>
      </trkpt>
      <trkpt lat="44.60055" lon="6.00355">
        <ele>1222</ele>
        <time>2023-05-15T09:08:44Z</time>
      </trkpt>
      <trkpt lat="44.60057" lon="6.00352">
        <ele>1222</ele>
        <time>2023-05-15T09:08:46Z</time>
      </trkpt>
      <trkpt lat="44.60061" lon="6.00347">
        <ele>1222.8</ele>
        <time>2023-05-15T09:08:49Z</time>
      </trkpt>
      <trkpt lat="44.60063" lon="6.00346">
        <ele>1222.8</ele>
        <time>2023-05-15T09:08:50Z</time>
      </trkpt>
      <trkpt lat="44.60065" lon="6.00341">
        <ele>1223.2</ele>
        <time>2023-05-15T09:08:52Z</time>
      </trkpt>
      <trkpt lat="44.60066" lon="6.00339">
        <ele>1223.2</ele>
        <time>2023-05-15T09:08:53Z</time>
      </trkpt>
      <trkpt lat="44.60066" lon="6.00337">
        <ele>1223.4</ele>
        <time>2023-05-15T09:08:54Z</time>
      </trkpt>
      <trkpt lat="44.60067" lon="6.00332">
        <ele>1224.2</ele>
        <time>2023-05-15T09:08:56Z</time>
      </trkpt>
      <trkpt lat="44.60068" lon="6.00329">
        <ele>1224.2</ele>
        <time>2023-05-15T09:08:57Z</time>
      </trkpt>
      <trkpt lat="44.6007" lon="6.00324">
        <ele>1224.4</ele>
        <time>2023-05-15T09:09:00Z</time>
      </trkpt>
      <trkpt lat="44.6007" lon="6.00324">
        <ele>1224.6</ele>
        <time>2023-05-15T09:09:01Z</time>
      </trkpt>
      <trkpt lat="44.60071" lon="6.00323">
        <ele>1224.8</ele>
        <time>2023-05-15T09:09:02Z</time>
      </trkpt>
      <trkpt lat="44.60071" lon="6.00322">
        <ele>1224.8</ele>
        <time>2023-05-15T09:09:03Z</time>
      </trkpt>
      <trkpt lat="44.60071" lon="6.0032">
        <ele>1225</ele>
        <time>2023-05-15T09:09:04Z</time>
      </trkpt>
      <trkpt lat="44.60071" lon="6.00318">
        <ele>1225.2</ele>
        <time>2023-05-15T09:09:05Z</time>
      </trkpt>
      <trkpt lat="44.60072" lon="6.00316">
        <ele>1225.2</ele>
        <time>2023-05-15T09:09:06Z</time>
      </trkpt>
      <trkpt lat="44.60072" lon="6.00314">
        <ele>1225.4</ele>
        <time>2023-05-15T09:09:07Z</time>
      </trkpt>
      <trkpt lat="44.60073" lon="6.00312">
        <ele>1225.6</ele>
        <time>2023-05-15T09:09:08Z</time>
      </trkpt>
      <trkpt lat="44.60074" lon="6.00311">
        <ele>1226</ele>
        <time>2023-05-15T09:09:09Z</time>
      </trkpt>
      <trkpt lat="44.60074" lon="6.0031">
        <ele>1226.2</ele>
        <time>2023-05-15T09:09:10Z</time>
      </trkpt>
      <trkpt lat="44.60074" lon="6.00308">
        <ele>1226.4</ele>
        <time>2023-05-15T09:09:11Z</time>
      </trkpt>
      <trkpt lat="44.60074" lon="6.00306">
        <ele>1226.6</ele>
        <time>2023-05-15T09:09:12Z</time>
      </trkpt>
      <trkpt lat="44.60074" lon="6.00304">
        <ele>1226.8</ele>
        <time>2023-05-15T09:09:13Z</time>
      </trkpt>
      <trkpt lat="44.60075" lon="6.00302">
        <ele>1227</ele>
        <time>2023-05-15T09:09:14Z</time>
      </trkpt>
      <trkpt lat="44.60075" lon="6.00301">
        <ele>1227</ele>
        <time>2023-05-15T09:09:15Z</time>
      </trkpt>
      <trkpt lat="44.60076" lon="6.00299">
        <ele>1227.2</ele>
        <time>2023-05-15T09:09:16Z</time>
      </trkpt>
      <trkpt lat="44.60076" lon="6.00297">
        <ele>1227.2</ele>
        <time>2023-05-15T09:09:17Z</time>
      </trkpt>
      <trkpt lat="44.60076" lon="6.00295">
        <ele>1227.4</ele>
        <time>2023-05-15T09:09:18Z</time>
      </trkpt>
      <trkpt lat="44.60076" lon="6.00295">
        <ele>1227.6</ele>
        <time>2023-05-15T09:09:19Z</time>
      </trkpt>
      <trkpt lat="44.60076" lon="6.00295">
        <ele>1228.2</ele>
        <time>2023-05-15T09:09:21Z</time>
      </trkpt>
      <trkpt lat="44.60076" lon="6.00295">
        <ele>1228.6</ele>
        <time>2023-05-15T09:09:23Z</time>
      </trkpt>
      <trkpt lat="44.60076" lon="6.00295">
        <ele>1228.8</ele>
        <time>2023-05-15T09:09:24Z</time>
      </trkpt>
      <trkpt lat="44.60077" lon="6.00294">
        <ele>1228.8</ele>
        <time>2023-05-15T09:09:25Z</time>
      </trkpt>
      <trkpt lat="44.60078" lon="6.00293">
        <ele>1228.8</ele>
        <time>2023-05-15T09:09:26Z</time>
      </trkpt>
      <trkpt lat="44.60078" lon="6.00293">
        <ele>1229</ele>
        <time>2023-05-15T09:09:27Z</time>
      </trkpt>
      <trkpt lat="44.60079" lon="6.00292">
        <ele>1229</ele>
        <time>2023-05-15T09:09:28Z</time>
      </trkpt>
      <trkpt lat="44.60079" lon="6.00292">
        <ele>1229.2</ele>
        <time>2023-05-15T09:09:29Z</time>
      </trkpt>
      <trkpt lat="44.6008" lon="6.00291">
        <ele>1229.4</ele>
        <time>2023-05-15T09:09:30Z</time>
      </trkpt>
      <trkpt lat="44.6008" lon="6.00291">
        <ele>1229.4</ele>
        <time>2023-05-15T09:09:31Z</time>
      </trkpt>
      <trkpt lat="44.6008" lon="6.00291">
        <ele>1229.6</ele>
        <time>2023-05-15T09:09:32Z</time>
      </trkpt>
      <trkpt lat="44.6008" lon="6.00289">
        <ele>1229.6</ele>
        <time>2023-05-15T09:09:33Z</time>
      </trkpt>
      <trkpt lat="44.60081" lon="6.00289">
        <ele>1229.8</ele>
        <time>2023-05-15T09:09:34Z</time>
      </trkpt>
      <trkpt lat="44.60081" lon="6.00288">
        <ele>1229.8</ele>
        <time>2023-05-15T09:09:35Z</time>
      </trkpt>
      <trkpt lat="44.60081" lon="6.00288">
        <ele>1230</ele>
        <time>2023-05-15T09:09:36Z</time>
      </trkpt>
      <trkpt lat="44.60081" lon="6.00287">
        <ele>1230</ele>
        <time>2023-05-15T09:09:37Z</time>
      </trkpt>
      <trkpt lat="44.60081" lon="6.00287">
        <ele>1230.2</ele>
        <time>2023-05-15T09:09:38Z</time>
      </trkpt>
      <trkpt lat="44.60082" lon="6.00286">
        <ele>1230.2</ele>
        <time>2023-05-15T09:09:39Z</time>
      </trkpt>
      <trkpt lat="44.60082" lon="6.00285">
        <ele>1230.2</ele>
        <time>2023-05-15T09:09:40Z</time>
      </trkpt>
      <trkpt lat="44.60082" lon="6.00284">
        <ele>1230.4</ele>
        <time>2023-05-15T09:09:41Z</time>
      </trkpt>
      <trkpt lat="44.60082" lon="6.00283">
        <ele>1230.4</ele>
        <time>2023-05-15T09:09:42Z</time>
      </trkpt>
      <trkpt lat="44.60082" lon="6.00283">
        <ele>1230.4</ele>
        <time>2023-05-15T09:09:43Z</time>
      </trkpt>
      <trkpt lat="44.60082" lon="6.00283">
        <ele>1230.4</ele>
        <time>2023-05-15T09:09:44Z</time>
      </trkpt>
      <trkpt lat="44.60082" lon="6.00282">
        <ele>1230.6</ele>
        <time>2023-05-15T09:09:45Z</time>
      </trkpt>
      <trkpt lat="44.60083" lon="6.00281">
        <ele>1230.6</ele>
        <time>2023-05-15T09:09:46Z</time>
      </trkpt>
      <trkpt lat="44.60083" lon="6.00279">
        <ele>1230.8</ele>
        <time>2023-05-15T09:09:47Z</time>
      </trkpt>
      <trkpt lat="44.60084" lon="6.00278">
        <ele>1231</ele>
        <time>2023-05-15T09:09:48Z</time>
      </trkpt>
      <trkpt lat="44.60084" lon="6.00277">
        <ele>1231.2</ele>
        <time>2023-05-15T09:09:49Z</time>
      </trkpt>
      <trkpt lat="44.60084" lon="6.00276">
        <ele>1231.2</ele>
        <time>2023-05-15T09:09:50Z</time>
      </trkpt>
      <trkpt lat="44.60085" lon="6.00275">
        <ele>1231.4</ele>
        <time>2023-05-15T09:09:51Z</time>
      </trkpt>
      <trkpt lat="44.60085" lon="6.00274">
        <ele>1231.4</ele>
        <time>2023-05-15T09:09:52Z</time>
      </trkpt>
      <trkpt lat="44.60085" lon="6.00273">
        <ele>1231.6</ele>
        <time>2023-05-15T09:09:53Z</time>
      </trkpt>
      <trkpt lat="44.60085" lon="6.00273">
        <ele>1231.6</ele>
        <time>2023-05-15T09:09:54Z</time>
      </trkpt>
      <trkpt lat="44.60085" lon="6.00271">
        <ele>1231.6</ele>
        <time>2023-05-15T09:09:57Z</time>
      </trkpt>
      <trkpt lat="44.60086" lon="6.0027">
        <ele>1231.6</ele>
        <time>2023-05-15T09:09:58Z</time>
      </trkpt>
      <trkpt lat="44.60086" lon="6.00267">
        <ele>1231.8</ele>
        <time>2023-05-15T09:10:03Z</time>
      </trkpt>
      <trkpt lat="44.60087" lon="6.00268">
        <ele>1231.8</ele>
        <time>2023-05-15T09:10:04Z</time>
      </trkpt>
      <trkpt lat="44.60087" lon="6.00265">
        <ele>1232.2</ele>
        <time>2023-05-15T09:10:07Z</time>
      </trkpt>
      <trkpt lat="44.60088" lon="6.00262">
        <ele>1232.4</ele>
        <time>2023-05-15T09:10:09Z</time>
      </trkpt>
      <trkpt lat="44.6009" lon="6.00254">
        <ele>1232.6</ele>
        <time>2023-05-15T09:10:13Z</time>
      </trkpt>
      <trkpt lat="44.60091" lon="6.00252">
        <ele>1232.8</ele>
        <time>2023-05-15T09:10:14Z</time>
      </trkpt>
      <trkpt lat="44.60092" lon="6.0025">
        <ele>1232.8</ele>
        <time>2023-05-15T09:10:15Z</time>
      </trkpt>
      <trkpt lat="44.60093" lon="6.00247">
        <ele>1233</ele>
        <time>2023-05-15T09:10:16Z</time>
      </trkpt>
      <trkpt lat="44.60098" lon="6.00233">
        <ele>1233.6</ele>
        <time>2023-05-15T09:10:23Z</time>
      </trkpt>
      <trkpt lat="44.601" lon="6.00228">
        <ele>1233.8</ele>
        <time>2023-05-15T09:10:25Z</time>
      </trkpt>
      <trkpt lat="44.60102" lon="6.00227">
        <ele>1233.8</ele>
        <time>2023-05-15T09:10:26Z</time>
      </trkpt>
      <trkpt lat="44.60103" lon="6.00225">
        <ele>1234</ele>
        <time>2023-05-15T09:10:27Z</time>
      </trkpt>
      <trkpt lat="44.60104" lon="6.00222">
        <ele>1234.2</ele>
        <time>2023-05-15T09:10:29Z</time>
      </trkpt>
      <trkpt lat="44.60106" lon="6.0022">
        <ele>1234.4</ele>
        <time>2023-05-15T09:10:30Z</time>
      </trkpt>
      <trkpt lat="44.60107" lon="6.00219">
        <ele>1234.6</ele>
        <time>2023-05-15T09:10:31Z</time>
      </trkpt>
      <trkpt lat="44.60109" lon="6.00217">
        <ele>1235</ele>
        <time>2023-05-15T09:10:33Z</time>
      </trkpt>
      <trkpt lat="44.6011" lon="6.00215">
        <ele>1235</ele>
        <time>2023-05-15T09:10:34Z</time>
      </trkpt>
      <trkpt lat="44.60111" lon="6.00214">
        <ele>1235.2</ele>
        <time>2023-05-15T09:10:35Z</time>
      </trkpt>
      <trkpt lat="44.60111" lon="6.00212">
        <ele>1235.2</ele>
        <time>2023-05-15T09:10:36Z</time>
      </trkpt>
      <trkpt lat="44.60112" lon="6.00211">
        <ele>1235.4</ele>
        <time>2023-05-15T09:10:37Z</time>
      </trkpt>
      <trkpt lat="44.60113" lon="6.00209">
        <ele>1235.4</ele>
        <time>2023-05-15T09:10:38Z</time>
      </trkpt>
      <trkpt lat="44.60113" lon="6.00208">
        <ele>1235.8</ele>
        <time>2023-05-15T09:10:39Z</time>
      </trkpt>
      <trkpt lat="44.60114" lon="6.00208">
        <ele>1236</ele>
        <time>2023-05-15T09:10:41Z</time>
      </trkpt>
      <trkpt lat="44.60114" lon="6.00207">
        <ele>1236.2</ele>
        <time>2023-05-15T09:10:42Z</time>
      </trkpt>
      <trkpt lat="44.60115" lon="6.00206">
        <ele>1236.2</ele>
        <time>2023-05-15T09:10:43Z</time>
      </trkpt>
      <trkpt lat="44.60115" lon="6.00205">
        <ele>1236.4</ele>
        <time>2023-05-15T09:10:44Z</time>
      </trkpt>
      <trkpt lat="44.60116" lon="6.00205">
        <ele>1236.4</ele>
        <time>2023-05-15T09:10:45Z</time>
      </trkpt>
      <trkpt lat="44.60116" lon="6.00204">
        <ele>1236.6</ele>
        <time>2023-05-15T09:10:46Z</time>
      </trkpt>
      <trkpt lat="44.60117" lon="6.00203">
        <ele>1236.6</ele>
        <time>2023-05-15T09:10:47Z</time>
      </trkpt>
      <trkpt lat="44.60117" lon="6.00203">
        <ele>1236.6</ele>
        <time>2023-05-15T09:10:48Z</time>
      </trkpt>
      <trkpt lat="44.60117" lon="6.00203">
        <ele>1236.8</ele>
        <time>2023-05-15T09:10:49Z</time>
      </trkpt>
      <trkpt lat="44.60117" lon="6.00203">
        <ele>1236.8</ele>
        <time>2023-05-15T09:10:50Z</time>
      </trkpt>
      <trkpt lat="44.60117" lon="6.00203">
        <ele>1237</ele>
        <time>2023-05-15T09:10:51Z</time>
      </trkpt>
      <trkpt lat="44.60117" lon="6.00203">
        <ele>1237</ele>
        <time>2023-05-15T09:10:52Z</time>
      </trkpt>
      <trkpt lat="44.60118" lon="6.00203">
        <ele>1237</ele>
        <time>2023-05-15T09:10:53Z</time>
      </trkpt>
      <trkpt lat="44.60118" lon="6.00202">
        <ele>1237</ele>
        <time>2023-05-15T09:10:54Z</time>
      </trkpt>
      <trkpt lat="44.60119" lon="6.00201">
        <ele>1237.2</ele>
        <time>2023-05-15T09:10:55Z</time>
      </trkpt>
      <trkpt lat="44.60119" lon="6.00201">
        <ele>1237.4</ele>
        <time>2023-05-15T09:10:56Z</time>
      </trkpt>
      <trkpt lat="44.6012" lon="6.002">
        <ele>1237.6</ele>
        <time>2023-05-15T09:10:57Z</time>
      </trkpt>
      <trkpt lat="44.6012" lon="6.00199">
        <ele>1237.6</ele>
        <time>2023-05-15T09:10:58Z</time>
      </trkpt>
      <trkpt lat="44.60121" lon="6.00198">
        <ele>1237.8</ele>
        <time>2023-05-15T09:10:59Z</time>
      </trkpt>
      <trkpt lat="44.60121" lon="6.00198">
        <ele>1237.8</ele>
        <time>2023-05-15T09:11:00Z</time>
      </trkpt>
      <trkpt lat="44.60121" lon="6.00198">
        <ele>1238</ele>
        <time>2023-05-15T09:11:01Z</time>
      </trkpt>
      <trkpt lat="44.60121" lon="6.00197">
        <ele>1238.4</ele>
        <time>2023-05-15T09:11:02Z</time>
      </trkpt>
      <trkpt lat="44.60122" lon="6.00196">
        <ele>1238.6</ele>
        <time>2023-05-15T09:11:03Z</time>
      </trkpt>
      <trkpt lat="44.60122" lon="6.00195">
        <ele>1238.8</ele>
        <time>2023-05-15T09:11:04Z</time>
      </trkpt>
      <trkpt lat="44.60123" lon="6.00194">
        <ele>1238.8</ele>
        <time>2023-05-15T09:11:05Z</time>
      </trkpt>
      <trkpt lat="44.60123" lon="6.00194">
        <ele>1239</ele>
        <time>2023-05-15T09:11:06Z</time>
      </trkpt>
      <trkpt lat="44.60123" lon="6.00194">
        <ele>1239</ele>
        <time>2023-05-15T09:11:07Z</time>
      </trkpt>
      <trkpt lat="44.60124" lon="6.00193">
        <ele>1239</ele>
        <time>2023-05-15T09:11:08Z</time>
      </trkpt>
      <trkpt lat="44.60124" lon="6.00192">
        <ele>1239.2</ele>
        <time>2023-05-15T09:11:09Z</time>
      </trkpt>
      <trkpt lat="44.60125" lon="6.00191">
        <ele>1239.2</ele>
        <time>2023-05-15T09:11:10Z</time>
      </trkpt>
      <trkpt lat="44.60126" lon="6.00191">
        <ele>1239.2</ele>
        <time>2023-05-15T09:11:11Z</time>
      </trkpt>
      <trkpt lat="44.60126" lon="6.0019">
        <ele>1239.4</ele>
        <time>2023-05-15T09:11:12Z</time>
      </trkpt>
      <trkpt lat="44.60127" lon="6.00189">
        <ele>1239.4</ele>
        <time>2023-05-15T09:11:13Z</time>
      </trkpt>
      <trkpt lat="44.60127" lon="6.00189">
        <ele>1239.4</ele>
        <time>2023-05-15T09:11:14Z</time>
      </trkpt>
      <trkpt lat="44.60128" lon="6.00189">
        <ele>1239.6</ele>
        <time>2023-05-15T09:11:15Z</time>
      </trkpt>
      <trkpt lat="44.60128" lon="6.00189">
        <ele>1239.6</ele>
        <time>2023-05-15T09:11:16Z</time>
      </trkpt>
      <trkpt lat="44.60128" lon="6.00188">
        <ele>1239.8</ele>
        <time>2023-05-15T09:11:17Z</time>
      </trkpt>
      <trkpt lat="44.60129" lon="6.00187">
        <ele>1240</ele>
        <time>2023-05-15T09:11:18Z</time>
      </trkpt>
      <trkpt lat="44.6013" lon="6.00187">
        <ele>1240</ele>
        <time>2023-05-15T09:11:19Z</time>
      </trkpt>
      <trkpt lat="44.6013" lon="6.00186">
        <ele>1240.2</ele>
        <time>2023-05-15T09:11:20Z</time>
      </trkpt>
      <trkpt lat="44.60131" lon="6.00185">
        <ele>1240.2</ele>
        <time>2023-05-15T09:11:21Z</time>
      </trkpt>
      <trkpt lat="44.60132" lon="6.00185">
        <ele>1240.2</ele>
        <time>2023-05-15T09:11:22Z</time>
      </trkpt>
      <trkpt lat="44.60133" lon="6.00184">
        <ele>1240.4</ele>
        <time>2023-05-15T09:11:23Z</time>
      </trkpt>
      <trkpt lat="44.60134" lon="6.00183">
        <ele>1240.4</ele>
        <time>2023-05-15T09:11:24Z</time>
      </trkpt>
      <trkpt lat="44.60135" lon="6.00183">
        <ele>1240.4</ele>
        <time>2023-05-15T09:11:25Z</time>
      </trkpt>
      <trkpt lat="44.60135" lon="6.00182">
        <ele>1240.6</ele>
        <time>2023-05-15T09:11:26Z</time>
      </trkpt>
      <trkpt lat="44.60138" lon="6.00179">
        <ele>1241</ele>
        <time>2023-05-15T09:11:30Z</time>
      </trkpt>
      <trkpt lat="44.60139" lon="6.00178">
        <ele>1241.4</ele>
        <time>2023-05-15T09:11:32Z</time>
      </trkpt>
      <trkpt lat="44.6014" lon="6.00177">
        <ele>1241.4</ele>
        <time>2023-05-15T09:11:33Z</time>
      </trkpt>
      <trkpt lat="44.6014" lon="6.00177">
        <ele>1241.6</ele>
        <time>2023-05-15T09:11:34Z</time>
      </trkpt>
      <trkpt lat="44.6014" lon="6.00177">
        <ele>1241.6</ele>
        <time>2023-05-15T09:11:35Z</time>
      </trkpt>
      <trkpt lat="44.60141" lon="6.00177">
        <ele>1242</ele>
        <time>2023-05-15T09:11:36Z</time>
      </trkpt>
      <trkpt lat="44.60142" lon="6.00177">
        <ele>1242</ele>
        <time>2023-05-15T09:11:37Z</time>
      </trkpt>
      <trkpt lat="44.60142" lon="6.00177">
        <ele>1242.2</ele>
        <time>2023-05-15T09:11:38Z</time>
      </trkpt>
      <trkpt lat="44.60143" lon="6.00177">
        <ele>1242.2</ele>
        <time>2023-05-15T09:11:39Z</time>
      </trkpt>
      <trkpt lat="44.60143" lon="6.00176">
        <ele>1242.4</ele>
        <time>2023-05-15T09:11:40Z</time>
      </trkpt>
      <trkpt lat="44.60144" lon="6.00176">
        <ele>1242.6</ele>
        <time>2023-05-15T09:11:41Z</time>
      </trkpt>
      <trkpt lat="44.60144" lon="6.00176">
        <ele>1242.6</ele>
        <time>2023-05-15T09:11:42Z</time>
      </trkpt>
      <trkpt lat="44.60145" lon="6.00176">
        <ele>1242.8</ele>
        <time>2023-05-15T09:11:43Z</time>
      </trkpt>
      <trkpt lat="44.60146" lon="6.00175">
        <ele>1242.8</ele>
        <time>2023-05-15T09:11:44Z</time>
      </trkpt>
      <trkpt lat="44.60146" lon="6.00175">
        <ele>1243</ele>
        <time>2023-05-15T09:11:45Z</time>
      </trkpt>
      <trkpt lat="44.60147" lon="6.00175">
        <ele>1243</ele>
        <time>2023-05-15T09:11:46Z</time>
      </trkpt>
      <trkpt lat="44.60147" lon="6.00174">
        <ele>1243</ele>
        <time>2023-05-15T09:11:47Z</time>
      </trkpt>
      <trkpt lat="44.60148" lon="6.00174">
        <ele>1243</ele>
        <time>2023-05-15T09:11:48Z</time>
      </trkpt>
      <trkpt lat="44.60148" lon="6.00174">
        <ele>1243.2</ele>
        <time>2023-05-15T09:11:49Z</time>
      </trkpt>
      <trkpt lat="44.60148" lon="6.00174">
        <ele>1243.2</ele>
        <time>2023-05-15T09:11:50Z</time>
      </trkpt>
      <trkpt lat="44.60149" lon="6.00174">
        <ele>1243.2</ele>
        <time>2023-05-15T09:11:51Z</time>
      </trkpt>
      <trkpt lat="44.6015" lon="6.00173">
        <ele>1243.4</ele>
        <time>2023-05-15T09:11:52Z</time>
      </trkpt>
      <trkpt lat="44.6015" lon="6.00173">
        <ele>1243.6</ele>
        <time>2023-05-15T09:11:53Z</time>
      </trkpt>
      <trkpt lat="44.60151" lon="6.00173">
        <ele>1243.8</ele>
        <time>2023-05-15T09:11:54Z</time>
      </trkpt>
      <trkpt lat="44.60152" lon="6.00172">
        <ele>1243.8</ele>
        <time>2023-05-15T09:11:55Z</time>
      </trkpt>
      <trkpt lat="44.60153" lon="6.00172">
        <ele>1244</ele>
        <time>2023-05-15T09:11:56Z</time>
      </trkpt>
      <trkpt lat="44.60154" lon="6.00171">
        <ele>1244.2</ele>
        <time>2023-05-15T09:11:57Z</time>
      </trkpt>
      <trkpt lat="44.60154" lon="6.0017">
        <ele>1244.4</ele>
        <time>2023-05-15T09:11:58Z</time>
      </trkpt>
      <trkpt lat="44.60155" lon="6.0017">
        <ele>1244.6</ele>
        <time>2023-05-15T09:11:59Z</time>
      </trkpt>
      <trkpt lat="44.60156" lon="6.00169">
        <ele>1244.8</ele>
        <time>2023-05-15T09:12:00Z</time>
      </trkpt>
      <trkpt lat="44.60157" lon="6.00168">
        <ele>1245</ele>
        <time>2023-05-15T09:12:01Z</time>
      </trkpt>
      <trkpt lat="44.60157" lon="6.00168">
        <ele>1245</ele>
        <time>2023-05-15T09:12:02Z</time>
      </trkpt>
      <trkpt lat="44.60158" lon="6.00167">
        <ele>1245</ele>
        <time>2023-05-15T09:12:03Z</time>
      </trkpt>
      <trkpt lat="44.60159" lon="6.00167">
        <ele>1245.2</ele>
        <time>2023-05-15T09:12:04Z</time>
      </trkpt>
      <trkpt lat="44.60159" lon="6.00166">
        <ele>1245.6</ele>
        <time>2023-05-15T09:12:05Z</time>
      </trkpt>
      <trkpt lat="44.6016" lon="6.00166">
        <ele>1245.6</ele>
        <time>2023-05-15T09:12:06Z</time>
      </trkpt>
      <trkpt lat="44.60161" lon="6.00165">
        <ele>1245.6</ele>
        <time>2023-05-15T09:12:07Z</time>
      </trkpt>
      <trkpt lat="44.60162" lon="6.00165">
        <ele>1245.8</ele>
        <time>2023-05-15T09:12:08Z</time>
      </trkpt>
      <trkpt lat="44.60163" lon="6.00164">
        <ele>1245.8</ele>
        <time>2023-05-15T09:12:09Z</time>
      </trkpt>
      <trkpt lat="44.60163" lon="6.00164">
        <ele>1245.8</ele>
        <time>2023-05-15T09:12:10Z</time>
      </trkpt>
      <trkpt lat="44.60164" lon="6.00164">
        <ele>1246</ele>
        <time>2023-05-15T09:12:11Z</time>
      </trkpt>
      <trkpt lat="44.60165" lon="6.00163">
        <ele>1246.2</ele>
        <time>2023-05-15T09:12:12Z</time>
      </trkpt>
      <trkpt lat="44.60165" lon="6.00163">
        <ele>1246.2</ele>
        <time>2023-05-15T09:12:13Z</time>
      </trkpt>
      <trkpt lat="44.60166" lon="6.00162">
        <ele>1246.2</ele>
        <time>2023-05-15T09:12:14Z</time>
      </trkpt>
      <trkpt lat="44.60167" lon="6.00162">
        <ele>1246.2</ele>
        <time>2023-05-15T09:12:15Z</time>
      </trkpt>
      <trkpt lat="44.60168" lon="6.0016">
        <ele>1246.4</ele>
        <time>2023-05-15T09:12:16Z</time>
      </trkpt>
      <trkpt lat="44.60169" lon="6.0016">
        <ele>1246.4</ele>
        <time>2023-05-15T09:12:17Z</time>
      </trkpt>
      <trkpt lat="44.6017" lon="6.00159">
        <ele>1246.6</ele>
        <time>2023-05-15T09:12:18Z</time>
      </trkpt>
      <trkpt lat="44.60171" lon="6.00158">
        <ele>1246.8</ele>
        <time>2023-05-15T09:12:19Z</time>
      </trkpt>
      <trkpt lat="44.60171" lon="6.00157">
        <ele>1247</ele>
        <time>2023-05-15T09:12:20Z</time>
      </trkpt>
      <trkpt lat="44.60172" lon="6.00156">
        <ele>1247.2</ele>
        <time>2023-05-15T09:12:21Z</time>
      </trkpt>
      <trkpt lat="44.60173" lon="6.00156">
        <ele>1247.2</ele>
        <time>2023-05-15T09:12:22Z</time>
      </trkpt>
      <trkpt lat="44.60174" lon="6.00155">
        <ele>1247.4</ele>
        <time>2023-05-15T09:12:23Z</time>
      </trkpt>
      <trkpt lat="44.60175" lon="6.00154">
        <ele>1247.6</ele>
        <time>2023-05-15T09:12:24Z</time>
      </trkpt>
      <trkpt lat="44.60175" lon="6.00153">
        <ele>1247.6</ele>
        <time>2023-05-15T09:12:25Z</time>
      </trkpt>
      <trkpt lat="44.60176" lon="6.00153">
        <ele>1247.8</ele>
        <time>2023-05-15T09:12:26Z</time>
      </trkpt>
      <trkpt lat="44.60176" lon="6.00153">
        <ele>1247.8</ele>
        <time>2023-05-15T09:12:27Z</time>
      </trkpt>
      <trkpt lat="44.60177" lon="6.00152">
        <ele>1247.8</ele>
        <time>2023-05-15T09:12:28Z</time>
      </trkpt>
      <trkpt lat="44.60178" lon="6.00151">
        <ele>1247.8</ele>
        <time>2023-05-15T09:12:29Z</time>
      </trkpt>
      <trkpt lat="44.60178" lon="6.00151">
        <ele>1248</ele>
        <time>2023-05-15T09:12:30Z</time>
      </trkpt>
      <trkpt lat="44.60179" lon="6.0015">
        <ele>1248</ele>
        <time>2023-05-15T09:12:31Z</time>
      </trkpt>
      <trkpt lat="44.6018" lon="6.00149">
        <ele>1248.2</ele>
        <time>2023-05-15T09:12:32Z</time>
      </trkpt>
      <trkpt lat="44.60182" lon="6.00148">
        <ele>1248.2</ele>
        <time>2023-05-15T09:12:33Z</time>
      </trkpt>
      <trkpt lat="44.60183" lon="6.00148">
        <ele>1248.2</ele>
        <time>2023-05-15T09:12:34Z</time>
      </trkpt>
      <trkpt lat="44.60184" lon="6.00147">
        <ele>1248.4</ele>
        <time>2023-05-15T09:12:35Z</time>
      </trkpt>
      <trkpt lat="44.60184" lon="6.00147">
        <ele>1248.4</ele>
        <time>2023-05-15T09:12:36Z</time>
      </trkpt>
      <trkpt lat="44.60185" lon="6.00147">
        <ele>1248.6</ele>
        <time>2023-05-15T09:12:37Z</time>
      </trkpt>
      <trkpt lat="44.60186" lon="6.00147">
        <ele>1248.8</ele>
        <time>2023-05-15T09:12:38Z</time>
      </trkpt>
      <trkpt lat="44.60186" lon="6.00147">
        <ele>1249</ele>
        <time>2023-05-15T09:12:39Z</time>
      </trkpt>
      <trkpt lat="44.60187" lon="6.00146">
        <ele>1249.2</ele>
        <time>2023-05-15T09:12:40Z</time>
      </trkpt>
      <trkpt lat="44.60188" lon="6.00146">
        <ele>1249.2</ele>
        <time>2023-05-15T09:12:41Z</time>
      </trkpt>
      <trkpt lat="44.60189" lon="6.00146">
        <ele>1249.4</ele>
        <time>2023-05-15T09:12:42Z</time>
      </trkpt>
      <trkpt lat="44.60189" lon="6.00146">
        <ele>1249.4</ele>
        <time>2023-05-15T09:12:43Z</time>
      </trkpt>
      <trkpt lat="44.6019" lon="6.00145">
        <ele>1249.4</ele>
        <time>2023-05-15T09:12:44Z</time>
      </trkpt>
      <trkpt lat="44.6019" lon="6.00145">
        <ele>1249.6</ele>
        <time>2023-05-15T09:12:45Z</time>
      </trkpt>
      <trkpt lat="44.60191" lon="6.00143">
        <ele>1250</ele>
        <time>2023-05-15T09:12:51Z</time>
      </trkpt>
      <trkpt lat="44.60193" lon="6.00142">
        <ele>1250</ele>
        <time>2023-05-15T09:12:52Z</time>
      </trkpt>
      <trkpt lat="44.60196" lon="6.00138">
        <ele>1250</ele>
        <time>2023-05-15T09:12:54Z</time>
      </trkpt>
      <trkpt lat="44.60198" lon="6.00135">
        <ele>1250</ele>
        <time>2023-05-15T09:12:55Z</time>
      </trkpt>
      <trkpt lat="44.60201" lon="6.00131">
        <ele>1250</ele>
        <time>2023-05-15T09:12:57Z</time>
      </trkpt>
      <trkpt lat="44.60203" lon="6.00129">
        <ele>1250</ele>
        <time>2023-05-15T09:12:58Z</time>
      </trkpt>
      <trkpt lat="44.60204" lon="6.00128">
        <ele>1250</ele>
        <time>2023-05-15T09:12:59Z</time>
      </trkpt>
      <trkpt lat="44.60205" lon="6.00127">
        <ele>1250</ele>
        <time>2023-05-15T09:13:00Z</time>
      </trkpt>
      <trkpt lat="44.60206" lon="6.00126">
        <ele>1250</ele>
        <time>2023-05-15T09:13:01Z</time>
      </trkpt>
      <trkpt lat="44.60211" lon="6.00123">
        <ele>1250</ele>
        <time>2023-05-15T09:13:04Z</time>
      </trkpt>
      <trkpt lat="44.60213" lon="6.00122">
        <ele>1250</ele>
        <time>2023-05-15T09:13:05Z</time>
      </trkpt>
      <trkpt lat="44.60215" lon="6.00121">
        <ele>1250</ele>
        <time>2023-05-15T09:13:06Z</time>
      </trkpt>
      <trkpt lat="44.60219" lon="6.00119">
        <ele>1250.4</ele>
        <time>2023-05-15T09:13:09Z</time>
      </trkpt>
      <trkpt lat="44.6022" lon="6.00118">
        <ele>1250.4</ele>
        <time>2023-05-15T09:13:10Z</time>
      </trkpt>
      <trkpt lat="44.60231" lon="6.00114">
        <ele>1251</ele>
        <time>2023-05-15T09:13:16Z</time>
      </trkpt>
      <trkpt lat="44.60238" lon="6.00113">
        <ele>1251</ele>
        <time>2023-05-15T09:13:19Z</time>
      </trkpt>
      <trkpt lat="44.6024" lon="6.00113">
        <ele>1250.6</ele>
        <time>2023-05-15T09:13:20Z</time>
      </trkpt>
      <trkpt lat="44.60242" lon="6.00113">
        <ele>1250.6</ele>
        <time>2023-05-15T09:13:21Z</time>
      </trkpt>
      <trkpt lat="44.60244" lon="6.00112">
        <ele>1250.4</ele>
        <time>2023-05-15T09:13:22Z</time>
      </trkpt>
      <trkpt lat="44.60245" lon="6.00112">
        <ele>1250.4</ele>
        <time>2023-05-15T09:13:23Z</time>
      </trkpt>
      <trkpt lat="44.60246" lon="6.00111">
        <ele>1250.2</ele>
        <time>2023-05-15T09:13:24Z</time>
      </trkpt>
      <trkpt lat="44.60247" lon="6.00111">
        <ele>1250.2</ele>
        <time>2023-05-15T09:13:25Z</time>
      </trkpt>
      <trkpt lat="44.60249" lon="6.00111">
        <ele>1250.2</ele>
        <time>2023-05-15T09:13:26Z</time>
      </trkpt>
      <trkpt lat="44.6025" lon="6.00111">
        <ele>1250</ele>
        <time>2023-05-15T09:13:27Z</time>
      </trkpt>
      <trkpt lat="44.60251" lon="6.0011">
        <ele>1250</ele>
        <time>2023-05-15T09:13:28Z</time>
      </trkpt>
      <trkpt lat="44.60252" lon="6.00109">
        <ele>1250</ele>
        <time>2023-05-15T09:13:29Z</time>
      </trkpt>
      <trkpt lat="44.60253" lon="6.00109">
        <ele>1250</ele>
        <time>2023-05-15T09:13:30Z</time>
      </trkpt>
      <trkpt lat="44.60254" lon="6.00108">
        <ele>1250</ele>
        <time>2023-05-15T09:13:31Z</time>
      </trkpt>
      <trkpt lat="44.60255" lon="6.00108">
        <ele>1250</ele>
        <time>2023-05-15T09:13:32Z</time>
      </trkpt>
      <trkpt lat="44.60256" lon="6.00108">
        <ele>1250</ele>
        <time>2023-05-15T09:13:33Z</time>
      </trkpt>
      <trkpt lat="44.60257" lon="6.00107">
        <ele>1250.2</ele>
        <time>2023-05-15T09:13:34Z</time>
      </trkpt>
      <trkpt lat="44.60258" lon="6.00106">
        <ele>1250.2</ele>
        <time>2023-05-15T09:13:35Z</time>
      </trkpt>
      <trkpt lat="44.60259" lon="6.00104">
        <ele>1250.4</ele>
        <time>2023-05-15T09:13:36Z</time>
      </trkpt>
      <trkpt lat="44.6026" lon="6.00102">
        <ele>1250.4</ele>
        <time>2023-05-15T09:13:37Z</time>
      </trkpt>
      <trkpt lat="44.60261" lon="6.001">
        <ele>1250.8</ele>
        <time>2023-05-15T09:13:38Z</time>
      </trkpt>
      <trkpt lat="44.60264" lon="6.00098">
        <ele>1250.8</ele>
        <time>2023-05-15T09:13:40Z</time>
      </trkpt>
      <trkpt lat="44.60265" lon="6.00097">
        <ele>1251</ele>
        <time>2023-05-15T09:13:41Z</time>
      </trkpt>
      <trkpt lat="44.60268" lon="6.00094">
        <ele>1251.4</ele>
        <time>2023-05-15T09:13:44Z</time>
      </trkpt>
      <trkpt lat="44.60271" lon="6.00092">
        <ele>1251.6</ele>
        <time>2023-05-15T09:13:47Z</time>
      </trkpt>
      <trkpt lat="44.60272" lon="6.00091">
        <ele>1251.6</ele>
        <time>2023-05-15T09:13:48Z</time>
      </trkpt>
      <trkpt lat="44.60273" lon="6.0009">
        <ele>1251.8</ele>
        <time>2023-05-15T09:13:49Z</time>
      </trkpt>
      <trkpt lat="44.60273" lon="6.00089">
        <ele>1252</ele>
        <time>2023-05-15T09:13:50Z</time>
      </trkpt>
      <trkpt lat="44.60273" lon="6.00089">
        <ele>1252.2</ele>
        <time>2023-05-15T09:13:51Z</time>
      </trkpt>
      <trkpt lat="44.60273" lon="6.00089">
        <ele>1252.6</ele>
        <time>2023-05-15T09:13:52Z</time>
      </trkpt>
      <trkpt lat="44.60277" lon="6.00084">
        <ele>1253</ele>
        <time>2023-05-15T09:13:57Z</time>
      </trkpt>
      <trkpt lat="44.60278" lon="6.00083">
        <ele>1253</ele>
        <time>2023-05-15T09:13:58Z</time>
      </trkpt>
      <trkpt lat="44.60279" lon="6.0008">
        <ele>1253.2</ele>
        <time>2023-05-15T09:14:00Z</time>
      </trkpt>
      <trkpt lat="44.6028" lon="6.00078">
        <ele>1253.2</ele>
        <time>2023-05-15T09:14:01Z</time>
      </trkpt>
      <trkpt lat="44.60281" lon="6.00077">
        <ele>1253.2</ele>
        <time>2023-05-15T09:14:02Z</time>
      </trkpt>
      <trkpt lat="44.60282" lon="6.00075">
        <ele>1253.4</ele>
        <time>2023-05-15T09:14:03Z</time>
      </trkpt>
      <trkpt lat="44.60282" lon="6.00073">
        <ele>1253.4</ele>
        <time>2023-05-15T09:14:04Z</time>
      </trkpt>
      <trkpt lat="44.60283" lon="6.00072">
        <ele>1253.4</ele>
        <time>2023-05-15T09:14:05Z</time>
      </trkpt>
      <trkpt lat="44.60284" lon="6.00071">
        <ele>1253.4</ele>
        <time>2023-05-15T09:14:06Z</time>
      </trkpt>
      <trkpt lat="44.60285" lon="6.00069">
        <ele>1253.4</ele>
        <time>2023-05-15T09:14:09Z</time>
      </trkpt>
      <trkpt lat="44.60286" lon="6.00069">
        <ele>1253.6</ele>
        <time>2023-05-15T09:14:12Z</time>
      </trkpt>
      <trkpt lat="44.60287" lon="6.00068">
        <ele>1253.6</ele>
        <time>2023-05-15T09:14:14Z</time>
      </trkpt>
      <trkpt lat="44.6029" lon="6.00065">
        <ele>1254</ele>
        <time>2023-05-15T09:14:18Z</time>
      </trkpt>
      <trkpt lat="44.60292" lon="6.00063">
        <ele>1254.2</ele>
        <time>2023-05-15T09:14:21Z</time>
      </trkpt>
      <trkpt lat="44.60293" lon="6.00062">
        <ele>1254.4</ele>
        <time>2023-05-15T09:14:23Z</time>
      </trkpt>
      <trkpt lat="44.60293" lon="6.00062">
        <ele>1254.6</ele>
        <time>2023-05-15T09:14:24Z</time>
      </trkpt>
      <trkpt lat="44.60294" lon="6.00062">
        <ele>1254.8</ele>
        <time>2023-05-15T09:14:25Z</time>
      </trkpt>
      <trkpt lat="44.60297" lon="6.00061">
        <ele>1255.2</ele>
        <time>2023-05-15T09:14:28Z</time>
      </trkpt>
      <trkpt lat="44.60298" lon="6.0006">
        <ele>1255.4</ele>
        <time>2023-05-15T09:14:29Z</time>
      </trkpt>
      <trkpt lat="44.60298" lon="6.0006">
        <ele>1255.4</ele>
        <time>2023-05-15T09:14:30Z</time>
      </trkpt>
      <trkpt lat="44.60299" lon="6.0006">
        <ele>1255.6</ele>
        <time>2023-05-15T09:14:31Z</time>
      </trkpt>
      <trkpt lat="44.60299" lon="6.00059">
        <ele>1255.6</ele>
        <time>2023-05-15T09:14:32Z</time>
      </trkpt>
      <trkpt lat="44.60299" lon="6.00058">
        <ele>1255.6</ele>
        <time>2023-05-15T09:14:33Z</time>
      </trkpt>
      <trkpt lat="44.60299" lon="6.00058">
        <ele>1255.8</ele>
        <time>2023-05-15T09:14:34Z</time>
      </trkpt>
      <trkpt lat="44.60299" lon="6.00058">
        <ele>1256</ele>
        <time>2023-05-15T09:14:36Z</time>
      </trkpt>
      <trkpt lat="44.60301" lon="6.00057">
        <ele>1256.4</ele>
        <time>2023-05-15T09:14:41Z</time>
      </trkpt>
      <trkpt lat="44.60302" lon="6.00057">
        <ele>1256.6</ele>
        <time>2023-05-15T09:14:42Z</time>
      </trkpt>
      <trkpt lat="44.60302" lon="6.00057">
        <ele>1256.6</ele>
        <time>2023-05-15T09:14:43Z</time>
      </trkpt>
      <trkpt lat="44.60303" lon="6.00057">
        <ele>1257</ele>
        <time>2023-05-15T09:14:44Z</time>
      </trkpt>
      <trkpt lat="44.60304" lon="6.00057">
        <ele>1257.2</ele>
        <time>2023-05-15T09:14:45Z</time>
      </trkpt>
      <trkpt lat="44.60304" lon="6.00056">
        <ele>1257.6</ele>
        <time>2023-05-15T09:14:46Z</time>
      </trkpt>
      <trkpt lat="44.60304" lon="6.00056">
        <ele>1257.6</ele>
        <time>2023-05-15T09:14:47Z</time>
      </trkpt>
      <trkpt lat="44.60304" lon="6.00056">
        <ele>1257.8</ele>
        <time>2023-05-15T09:14:48Z</time>
      </trkpt>
      <trkpt lat="44.60305" lon="6.00055">
        <ele>1257.8</ele>
        <time>2023-05-15T09:14:49Z</time>
      </trkpt>
      <trkpt lat="44.60306" lon="6.00055">
        <ele>1258</ele>
        <time>2023-05-15T09:14:50Z</time>
      </trkpt>
      <trkpt lat="44.60306" lon="6.00055">
        <ele>1258</ele>
        <time>2023-05-15T09:14:51Z</time>
      </trkpt>
      <trkpt lat="44.60306" lon="6.00054">
        <ele>1258</ele>
        <time>2023-05-15T09:14:52Z</time>
      </trkpt>
      <trkpt lat="44.60307" lon="6.00054">
        <ele>1258</ele>
        <time>2023-05-15T09:14:53Z</time>
      </trkpt>
      <trkpt lat="44.60307" lon="6.00054">
        <ele>1258</ele>
        <time>2023-05-15T09:14:54Z</time>
      </trkpt>
      <trkpt lat="44.60308" lon="6.00053">
        <ele>1258</ele>
        <time>2023-05-15T09:14:55Z</time>
      </trkpt>
      <trkpt lat="44.60309" lon="6.00053">
        <ele>1258.2</ele>
        <time>2023-05-15T09:14:56Z</time>
      </trkpt>
      <trkpt lat="44.6031" lon="6.00052">
        <ele>1258.4</ele>
        <time>2023-05-15T09:14:57Z</time>
      </trkpt>
      <trkpt lat="44.6031" lon="6.00052">
        <ele>1258.6</ele>
        <time>2023-05-15T09:14:58Z</time>
      </trkpt>
      <trkpt lat="44.6031" lon="6.00052">
        <ele>1259</ele>
        <time>2023-05-15T09:15:01Z</time>
      </trkpt>
      <trkpt lat="44.6031" lon="6.00051">
        <ele>1259.4</ele>
        <time>2023-05-15T09:15:03Z</time>
      </trkpt>
      <trkpt lat="44.60311" lon="6.0005">
        <ele>1259.6</ele>
        <time>2023-05-15T09:15:04Z</time>
      </trkpt>
      <trkpt lat="44.60312" lon="6.00049">
        <ele>1259.6</ele>
        <time>2023-05-15T09:15:05Z</time>
      </trkpt>
      <trkpt lat="44.60314" lon="6.00047">
        <ele>1259.6</ele>
        <time>2023-05-15T09:15:06Z</time>
      </trkpt>
      <trkpt lat="44.60315" lon="6.00046">
        <ele>1259.6</ele>
        <time>2023-05-15T09:15:07Z</time>
      </trkpt>
      <trkpt lat="44.60316" lon="6.00045">
        <ele>1259.6</ele>
        <time>2023-05-15T09:15:08Z</time>
      </trkpt>
      <trkpt lat="44.60318" lon="6.00044">
        <ele>1259.8</ele>
        <time>2023-05-15T09:15:09Z</time>
      </trkpt>
      <trkpt lat="44.60319" lon="6.00043">
        <ele>1259.8</ele>
        <time>2023-05-15T09:15:10Z</time>
      </trkpt>
      <trkpt lat="44.60321" lon="6.00042">
        <ele>1260</ele>
        <time>2023-05-15T09:15:11Z</time>
      </trkpt>
      <trkpt lat="44.60322" lon="6.00041">
        <ele>1260</ele>
        <time>2023-05-15T09:15:12Z</time>
      </trkpt>
      <trkpt lat="44.60324" lon="6.0004">
        <ele>1260</ele>
        <time>2023-05-15T09:15:13Z</time>
      </trkpt>
      <trkpt lat="44.60326" lon="6.00038">
        <ele>1260</ele>
        <time>2023-05-15T09:15:14Z</time>
      </trkpt>
      <trkpt lat="44.60328" lon="6.00038">
        <ele>1260.2</ele>
        <time>2023-05-15T09:15:15Z</time>
      </trkpt>
      <trkpt lat="44.60329" lon="6.00038">
        <ele>1260.4</ele>
        <time>2023-05-15T09:15:16Z</time>
      </trkpt>
      <trkpt lat="44.60331" lon="6.00037">
        <ele>1260.4</ele>
        <time>2023-05-15T09:15:17Z</time>
      </trkpt>
      <trkpt lat="44.60332" lon="6.00037">
        <ele>1260.6</ele>
        <time>2023-05-15T09:15:18Z</time>
      </trkpt>
      <trkpt lat="44.60334" lon="6.00036">
        <ele>1260.6</ele>
        <time>2023-05-15T09:15:19Z</time>
      </trkpt>
      <trkpt lat="44.60336" lon="6.00034">
        <ele>1260.8</ele>
        <time>2023-05-15T09:15:20Z</time>
      </trkpt>
      <trkpt lat="44.60338" lon="6.00033">
        <ele>1261</ele>
        <time>2023-05-15T09:15:22Z</time>
      </trkpt>
      <trkpt lat="44.6034" lon="6.00032">
        <ele>1261.2</ele>
        <time>2023-05-15T09:15:23Z</time>
      </trkpt>
      <trkpt lat="44.60341" lon="6.00032">
        <ele>1261.4</ele>
        <time>2023-05-15T09:15:24Z</time>
      </trkpt>
      <trkpt lat="44.60343" lon="6.00031">
        <ele>1261.6</ele>
        <time>2023-05-15T09:15:25Z</time>
      </trkpt>
      <trkpt lat="44.60344" lon="6.00031">
        <ele>1261.6</ele>
        <time>2023-05-15T09:15:26Z</time>
      </trkpt>
      <trkpt lat="44.60346" lon="6.00031">
        <ele>1261.8</ele>
        <time>2023-05-15T09:15:27Z</time>
      </trkpt>
      <trkpt lat="44.60347" lon="6.00031">
        <ele>1262</ele>
        <time>2023-05-15T09:15:28Z</time>
      </trkpt>
      <trkpt lat="44.60348" lon="6.00032">
        <ele>1262</ele>
        <time>2023-05-15T09:15:29Z</time>
      </trkpt>
      <trkpt lat="44.60349" lon="6.00033">
        <ele>1262.2</ele>
        <time>2023-05-15T09:15:30Z</time>
      </trkpt>
      <trkpt lat="44.6035" lon="6.00034">
        <ele>1262.4</ele>
        <time>2023-05-15T09:15:31Z</time>
      </trkpt>
      <trkpt lat="44.60351" lon="6.00034">
        <ele>1262.4</ele>
        <time>2023-05-15T09:15:32Z</time>
      </trkpt>
      <trkpt lat="44.60352" lon="6.00033">
        <ele>1262.8</ele>
        <time>2023-05-15T09:15:33Z</time>
      </trkpt>
      <trkpt lat="44.60352" lon="6.00032">
        <ele>1263.2</ele>
        <time>2023-05-15T09:15:35Z</time>
      </trkpt>
      <trkpt lat="44.60352" lon="6.00033">
        <ele>1263.2</ele>
        <time>2023-05-15T09:15:36Z</time>
      </trkpt>
      <trkpt lat="44.60352" lon="6.00033">
        <ele>1263.6</ele>
        <time>2023-05-15T09:15:38Z</time>
      </trkpt>
      <trkpt lat="44.60354" lon="6.00032">
        <ele>1263.8</ele>
        <time>2023-05-15T09:15:40Z</time>
      </trkpt>
      <trkpt lat="44.60355" lon="6.00032">
        <ele>1263.8</ele>
        <time>2023-05-15T09:15:41Z</time>
      </trkpt>
      <trkpt lat="44.60356" lon="6.00032">
        <ele>1264</ele>
        <time>2023-05-15T09:15:42Z</time>
      </trkpt>
      <trkpt lat="44.60357" lon="6.00031">
        <ele>1264</ele>
        <time>2023-05-15T09:15:43Z</time>
      </trkpt>
      <trkpt lat="44.60359" lon="6.00031">
        <ele>1264</ele>
        <time>2023-05-15T09:15:44Z</time>
      </trkpt>
      <trkpt lat="44.6036" lon="6.00031">
        <ele>1264</ele>
        <time>2023-05-15T09:15:45Z</time>
      </trkpt>
      <trkpt lat="44.60362" lon="6.00031">
        <ele>1264</ele>
        <time>2023-05-15T09:15:46Z</time>
      </trkpt>
      <trkpt lat="44.60363" lon="6.00031">
        <ele>1264</ele>
        <time>2023-05-15T09:15:47Z</time>
      </trkpt>
      <trkpt lat="44.60365" lon="6.00032">
        <ele>1264</ele>
        <time>2023-05-15T09:15:48Z</time>
      </trkpt>
      <trkpt lat="44.60366" lon="6.00032">
        <ele>1264.2</ele>
        <time>2023-05-15T09:15:49Z</time>
      </trkpt>
      <trkpt lat="44.60368" lon="6.00032">
        <ele>1264.2</ele>
        <time>2023-05-15T09:15:50Z</time>
      </trkpt>
      <trkpt lat="44.60369" lon="6.00033">
        <ele>1264.6</ele>
        <time>2023-05-15T09:15:51Z</time>
      </trkpt>
      <trkpt lat="44.6037" lon="6.00034">
        <ele>1264.8</ele>
        <time>2023-05-15T09:15:52Z</time>
      </trkpt>
      <trkpt lat="44.60372" lon="6.00034">
        <ele>1264.8</ele>
        <time>2023-05-15T09:15:53Z</time>
      </trkpt>
      <trkpt lat="44.60373" lon="6.00035">
        <ele>1265</ele>
        <time>2023-05-15T09:15:54Z</time>
      </trkpt>
      <trkpt lat="44.60375" lon="6.00036">
        <ele>1265</ele>
        <time>2023-05-15T09:15:55Z</time>
      </trkpt>
      <trkpt lat="44.60376" lon="6.00037">
        <ele>1265</ele>
        <time>2023-05-15T09:15:56Z</time>
      </trkpt>
      <trkpt lat="44.60378" lon="6.00037">
        <ele>1265.2</ele>
        <time>2023-05-15T09:15:57Z</time>
      </trkpt>
      <trkpt lat="44.6038" lon="6.00037">
        <ele>1265.2</ele>
        <time>2023-05-15T09:15:58Z</time>
      </trkpt>
      <trkpt lat="44.60382" lon="6.00038">
        <ele>1265.4</ele>
        <time>2023-05-15T09:15:59Z</time>
      </trkpt>
      <trkpt lat="44.60383" lon="6.00038">
        <ele>1265.4</ele>
        <time>2023-05-15T09:16:00Z</time>
      </trkpt>
      <trkpt lat="44.60384" lon="6.00039">
        <ele>1265.4</ele>
        <time>2023-05-15T09:16:01Z</time>
      </trkpt>
      <trkpt lat="44.60386" lon="6.00039">
        <ele>1265.6</ele>
        <time>2023-05-15T09:16:02Z</time>
      </trkpt>
      <trkpt lat="44.60388" lon="6.0004">
        <ele>1265.8</ele>
        <time>2023-05-15T09:16:03Z</time>
      </trkpt>
      <trkpt lat="44.6039" lon="6.0004">
        <ele>1265.8</ele>
        <time>2023-05-15T09:16:04Z</time>
      </trkpt>
      <trkpt lat="44.60392" lon="6.00041">
        <ele>1265.8</ele>
        <time>2023-05-15T09:16:05Z</time>
      </trkpt>
      <trkpt lat="44.60394" lon="6.00041">
        <ele>1266</ele>
        <time>2023-05-15T09:16:06Z</time>
      </trkpt>
      <trkpt lat="44.60396" lon="6.00042">
        <ele>1266</ele>
        <time>2023-05-15T09:16:07Z</time>
      </trkpt>
      <trkpt lat="44.60405" lon="6.00042">
        <ele>1266.2</ele>
        <time>2023-05-15T09:16:12Z</time>
      </trkpt>
      <trkpt lat="44.60411" lon="6.00046">
        <ele>1266.6</ele>
        <time>2023-05-15T09:16:16Z</time>
      </trkpt>
      <trkpt lat="44.60412" lon="6.00047">
        <ele>1266.6</ele>
        <time>2023-05-15T09:16:17Z</time>
      </trkpt>
      <trkpt lat="44.60413" lon="6.00047">
        <ele>1267</ele>
        <time>2023-05-15T09:16:19Z</time>
      </trkpt>
      <trkpt lat="44.60413" lon="6.00047">
        <ele>1267.8</ele>
        <time>2023-05-15T09:16:22Z</time>
      </trkpt>
      <trkpt lat="44.60413" lon="6.00047">
        <ele>1268.2</ele>
        <time>2023-05-15T09:16:26Z</time>
      </trkpt>
      <trkpt lat="44.60413" lon="6.00047">
        <ele>1267</ele>
        <time>2023-05-15T09:17:11Z</time>
      </trkpt>
      <trkpt lat="44.60414" lon="6.00048">
        <ele>1267.8</ele>
        <time>2023-05-15T09:17:24Z</time>
      </trkpt>
      <trkpt lat="44.60414" lon="6.00048">
        <ele>1267.8</ele>
        <time>2023-05-15T09:17:25Z</time>
      </trkpt>
      <trkpt lat="44.60415" lon="6.00049">
        <ele>1267.8</ele>
        <time>2023-05-15T09:17:27Z</time>
      </trkpt>
      <trkpt lat="44.60416" lon="6.00049">
        <ele>1268</ele>
        <time>2023-05-15T09:17:28Z</time>
      </trkpt>
      <trkpt lat="44.60417" lon="6.00049">
        <ele>1268.2</ele>
        <time>2023-05-15T09:17:29Z</time>
      </trkpt>
      <trkpt lat="44.60417" lon="6.00049">
        <ele>1268.4</ele>
        <time>2023-05-15T09:17:30Z</time>
      </trkpt>
      <trkpt lat="44.60419" lon="6.0005">
        <ele>1268.6</ele>
        <time>2023-05-15T09:17:32Z</time>
      </trkpt>
      <trkpt lat="44.6042" lon="6.0005">
        <ele>1268.6</ele>
        <time>2023-05-15T09:17:33Z</time>
      </trkpt>
      <trkpt lat="44.60421" lon="6.0005">
        <ele>1268.6</ele>
        <time>2023-05-15T09:17:34Z</time>
      </trkpt>
      <trkpt lat="44.60422" lon="6.0005">
        <ele>1268.8</ele>
        <time>2023-05-15T09:17:35Z</time>
      </trkpt>
      <trkpt lat="44.60422" lon="6.0005">
        <ele>1268.8</ele>
        <time>2023-05-15T09:17:36Z</time>
      </trkpt>
      <trkpt lat="44.60423" lon="6.0005">
        <ele>1269</ele>
        <time>2023-05-15T09:17:37Z</time>
      </trkpt>
      <trkpt lat="44.60424" lon="6.00049">
        <ele>1269</ele>
        <time>2023-05-15T09:17:38Z</time>
      </trkpt>
      <trkpt lat="44.60424" lon="6.00046">
        <ele>1269.2</ele>
        <time>2023-05-15T09:17:40Z</time>
      </trkpt>
      <trkpt lat="44.60424" lon="6.00045">
        <ele>1269.2</ele>
        <time>2023-05-15T09:17:41Z</time>
      </trkpt>
      <trkpt lat="44.60424" lon="6.00043">
        <ele>1269.6</ele>
        <time>2023-05-15T09:17:42Z</time>
      </trkpt>
      <trkpt lat="44.60424" lon="6.00042">
        <ele>1269.6</ele>
        <time>2023-05-15T09:17:43Z</time>
      </trkpt>
      <trkpt lat="44.60424" lon="6.00041">
        <ele>1269.8</ele>
        <time>2023-05-15T09:17:44Z</time>
      </trkpt>
      <trkpt lat="44.60424" lon="6.00039">
        <ele>1270</ele>
        <time>2023-05-15T09:17:46Z</time>
      </trkpt>
      <trkpt lat="44.60424" lon="6.00039">
        <ele>1270.2</ele>
        <time>2023-05-15T09:17:47Z</time>
      </trkpt>
      <trkpt lat="44.60424" lon="6.00038">
        <ele>1270.4</ele>
        <time>2023-05-15T09:17:48Z</time>
      </trkpt>
      <trkpt lat="44.60424" lon="6.00036">
        <ele>1270.6</ele>
        <time>2023-05-15T09:17:49Z</time>
      </trkpt>
      <trkpt lat="44.60425" lon="6.00035">
        <ele>1270.6</ele>
        <time>2023-05-15T09:17:50Z</time>
      </trkpt>
      <trkpt lat="44.60425" lon="6.00035">
        <ele>1270.8</ele>
        <time>2023-05-15T09:17:51Z</time>
      </trkpt>
      <trkpt lat="44.60426" lon="6.00034">
        <ele>1270.8</ele>
        <time>2023-05-15T09:17:52Z</time>
      </trkpt>
      <trkpt lat="44.60426" lon="6.00033">
        <ele>1271</ele>
        <time>2023-05-15T09:17:53Z</time>
      </trkpt>
      <trkpt lat="44.60427" lon="6.00032">
        <ele>1271.2</ele>
        <time>2023-05-15T09:17:54Z</time>
      </trkpt>
      <trkpt lat="44.60428" lon="6.00031">
        <ele>1271.2</ele>
        <time>2023-05-15T09:17:55Z</time>
      </trkpt>
      <trkpt lat="44.60428" lon="6.0003">
        <ele>1271.2</ele>
        <time>2023-05-15T09:17:56Z</time>
      </trkpt>
      <trkpt lat="44.60429" lon="6.00029">
        <ele>1271.4</ele>
        <time>2023-05-15T09:17:57Z</time>
      </trkpt>
      <trkpt lat="44.60429" lon="6.00027">
        <ele>1271.4</ele>
        <time>2023-05-15T09:17:58Z</time>
      </trkpt>
      <trkpt lat="44.60429" lon="6.00026">
        <ele>1271.6</ele>
        <time>2023-05-15T09:17:59Z</time>
      </trkpt>
      <trkpt lat="44.60429" lon="6.00025">
        <ele>1271.6</ele>
        <time>2023-05-15T09:18:00Z</time>
      </trkpt>
      <trkpt lat="44.60429" lon="6.00024">
        <ele>1271.8</ele>
        <time>2023-05-15T09:18:01Z</time>
      </trkpt>
      <trkpt lat="44.60429" lon="6.00023">
        <ele>1272</ele>
        <time>2023-05-15T09:18:02Z</time>
      </trkpt>
      <trkpt lat="44.6043" lon="6.00022">
        <ele>1272.2</ele>
        <time>2023-05-15T09:18:03Z</time>
      </trkpt>
      <trkpt lat="44.6043" lon="6.00021">
        <ele>1272.4</ele>
        <time>2023-05-15T09:18:04Z</time>
      </trkpt>
      <trkpt lat="44.6043" lon="6.00019">
        <ele>1272.4</ele>
        <time>2023-05-15T09:18:05Z</time>
      </trkpt>
      <trkpt lat="44.6043" lon="6.00018">
        <ele>1272.6</ele>
        <time>2023-05-15T09:18:06Z</time>
      </trkpt>
      <trkpt lat="44.6043" lon="6.00017">
        <ele>1273</ele>
        <time>2023-05-15T09:18:07Z</time>
      </trkpt>
      <trkpt lat="44.6043" lon="6.00016">
        <ele>1273.2</ele>
        <time>2023-05-15T09:18:08Z</time>
      </trkpt>
      <trkpt lat="44.6043" lon="6.00016">
        <ele>1273.4</ele>
        <time>2023-05-15T09:18:09Z</time>
      </trkpt>
      <trkpt lat="44.6043" lon="6.00016">
        <ele>1273.4</ele>
        <time>2023-05-15T09:18:10Z</time>
      </trkpt>
      <trkpt lat="44.60431" lon="6.00014">
        <ele>1274.4</ele>
        <time>2023-05-15T09:18:15Z</time>
      </trkpt>
      <trkpt lat="44.60431" lon="6.00013">
        <ele>1274.6</ele>
        <time>2023-05-15T09:18:16Z</time>
      </trkpt>
      <trkpt lat="44.60431" lon="6.00012">
        <ele>1274.6</ele>
        <time>2023-05-15T09:18:17Z</time>
      </trkpt>
      <trkpt lat="44.60431" lon="6.00012">
        <ele>1274.6</ele>
        <time>2023-05-15T09:18:18Z</time>
      </trkpt>
      <trkpt lat="44.60431" lon="6.00012">
        <ele>1274.6</ele>
        <time>2023-05-15T09:18:19Z</time>
      </trkpt>
      <trkpt lat="44.60431" lon="6.0001">
        <ele>1274.8</ele>
        <time>2023-05-15T09:18:20Z</time>
      </trkpt>
      <trkpt lat="44.60431" lon="6.0001">
        <ele>1274.8</ele>
        <time>2023-05-15T09:18:21Z</time>
      </trkpt>
      <trkpt lat="44.60431" lon="6.0001">
        <ele>1275</ele>
        <time>2023-05-15T09:18:22Z</time>
      </trkpt>
      <trkpt lat="44.6043" lon="6.00009">
        <ele>1275.2</ele>
        <time>2023-05-15T09:18:23Z</time>
      </trkpt>
      <trkpt lat="44.6043" lon="6.00008">
        <ele>1275.2</ele>
        <time>2023-05-15T09:18:24Z</time>
      </trkpt>
      <trkpt lat="44.6043" lon="6.00006">
        <ele>1275.6</ele>
        <time>2023-05-15T09:18:25Z</time>
      </trkpt>
      <trkpt lat="44.6043" lon="6.00005">
        <ele>1275.6</ele>
        <time>2023-05-15T09:18:26Z</time>
      </trkpt>
      <trkpt lat="44.6043" lon="6.00004">
        <ele>1275.6</ele>
        <time>2023-05-15T09:18:27Z</time>
      </trkpt>
      <trkpt lat="44.6043" lon="6.00003">
        <ele>1276</ele>
        <time>2023-05-15T09:18:30Z</time>
      </trkpt>
      <trkpt lat="44.6043" lon="6.00003">
        <ele>1276.2</ele>
        <time>2023-05-15T09:18:31Z</time>
      </trkpt>
      <trkpt lat="44.6043" lon="6.00003">
        <ele>1276.6</ele>
        <time>2023-05-15T09:18:37Z</time>
      </trkpt>
      <trkpt lat="44.60431" lon="6.00002">
        <ele>1276.6</ele>
        <time>2023-05-15T09:18:38Z</time>
      </trkpt>
      <trkpt lat="44.60431" lon="6.00001">
        <ele>1276.6</ele>
        <time>2023-05-15T09:18:39Z</time>
      </trkpt>
      <trkpt lat="44.60431" lon="6">
        <ele>1276.6</ele>
        <time>2023-05-15T09:18:40Z</time>
      </trkpt>
      <trkpt lat="44.60431" lon="5.99999">
        <ele>1276.6</ele>
        <time>2023-05-15T09:18:41Z</time>
      </trkpt>
      <trkpt lat="44.60431" lon="5.99998">
        <ele>1276.8</ele>
        <time>2023-05-15T09:18:42Z</time>
      </trkpt>
      <trkpt lat="44.60431" lon="5.99996">
        <ele>1276.6</ele>
        <time>2023-05-15T09:18:43Z</time>
      </trkpt>
      <trkpt lat="44.60432" lon="5.99995">
        <ele>1276.6</ele>
        <time>2023-05-15T09:18:44Z</time>
      </trkpt>
      <trkpt lat="44.60432" lon="5.99995">
        <ele>1276.6</ele>
        <time>2023-05-15T09:18:45Z</time>
      </trkpt>
      <trkpt lat="44.60433" lon="5.99986">
        <ele>1277.4</ele>
        <time>2023-05-15T09:18:52Z</time>
      </trkpt>
      <trkpt lat="44.60433" lon="5.99985">
        <ele>1277.4</ele>
        <time>2023-05-15T09:18:53Z</time>
      </trkpt>
      <trkpt lat="44.60434" lon="5.99984">
        <ele>1277.8</ele>
        <time>2023-05-15T09:18:54Z</time>
      </trkpt>
      <trkpt lat="44.60434" lon="5.99983">
        <ele>1277.8</ele>
        <time>2023-05-15T09:18:55Z</time>
      </trkpt>
      <trkpt lat="44.60434" lon="5.99982">
        <ele>1278</ele>
        <time>2023-05-15T09:18:56Z</time>
      </trkpt>
      <trkpt lat="44.60434" lon="5.99981">
        <ele>1278</ele>
        <time>2023-05-15T09:18:57Z</time>
      </trkpt>
      <trkpt lat="44.60435" lon="5.99979">
        <ele>1278.4</ele>
        <time>2023-05-15T09:18:59Z</time>
      </trkpt>
      <trkpt lat="44.60435" lon="5.99977">
        <ele>1278.6</ele>
        <time>2023-05-15T09:19:00Z</time>
      </trkpt>
      <trkpt lat="44.60435" lon="5.99976">
        <ele>1278.8</ele>
        <time>2023-05-15T09:19:01Z</time>
      </trkpt>
      <trkpt lat="44.60435" lon="5.99974">
        <ele>1279</ele>
        <time>2023-05-15T09:19:03Z</time>
      </trkpt>
      <trkpt lat="44.60435" lon="5.99973">
        <ele>1279.2</ele>
        <time>2023-05-15T09:19:04Z</time>
      </trkpt>
      <trkpt lat="44.60435" lon="5.99972">
        <ele>1279.4</ele>
        <time>2023-05-15T09:19:05Z</time>
      </trkpt>
      <trkpt lat="44.60436" lon="5.99971">
        <ele>1279.4</ele>
        <time>2023-05-15T09:19:06Z</time>
      </trkpt>
      <trkpt lat="44.60436" lon="5.99969">
        <ele>1279.8</ele>
        <time>2023-05-15T09:19:07Z</time>
      </trkpt>
      <trkpt lat="44.60436" lon="5.99969">
        <ele>1280</ele>
        <time>2023-05-15T09:19:08Z</time>
      </trkpt>
      <trkpt lat="44.60436" lon="5.99968">
        <ele>1280</ele>
        <time>2023-05-15T09:19:09Z</time>
      </trkpt>
      <trkpt lat="44.60437" lon="5.99967">
        <ele>1280.2</ele>
        <time>2023-05-15T09:19:10Z</time>
      </trkpt>
      <trkpt lat="44.60437" lon="5.99966">
        <ele>1280.2</ele>
        <time>2023-05-15T09:19:11Z</time>
      </trkpt>
      <trkpt lat="44.60437" lon="5.99965">
        <ele>1280.4</ele>
        <time>2023-05-15T09:19:12Z</time>
      </trkpt>
      <trkpt lat="44.60437" lon="5.99964">
        <ele>1280.6</ele>
        <time>2023-05-15T09:19:13Z</time>
      </trkpt>
      <trkpt lat="44.60437" lon="5.99964">
        <ele>1280.8</ele>
        <time>2023-05-15T09:19:14Z</time>
      </trkpt>
      <trkpt lat="44.60437" lon="5.99964">
        <ele>1280.8</ele>
        <time>2023-05-15T09:19:15Z</time>
      </trkpt>
      <trkpt lat="44.60437" lon="5.99963">
        <ele>1281</ele>
        <time>2023-05-15T09:19:16Z</time>
      </trkpt>
      <trkpt lat="44.60438" lon="5.99962">
        <ele>1281</ele>
        <time>2023-05-15T09:19:17Z</time>
      </trkpt>
      <trkpt lat="44.60438" lon="5.99961">
        <ele>1281.2</ele>
        <time>2023-05-15T09:19:18Z</time>
      </trkpt>
      <trkpt lat="44.60437" lon="5.9996">
        <ele>1281.4</ele>
        <time>2023-05-15T09:19:19Z</time>
      </trkpt>
      <trkpt lat="44.60437" lon="5.9996">
        <ele>1281.4</ele>
        <time>2023-05-15T09:19:20Z</time>
      </trkpt>
      <trkpt lat="44.60437" lon="5.99959">
        <ele>1281.8</ele>
        <time>2023-05-15T09:19:21Z</time>
      </trkpt>
      <trkpt lat="44.60437" lon="5.99958">
        <ele>1281.8</ele>
        <time>2023-05-15T09:19:22Z</time>
      </trkpt>
      <trkpt lat="44.60437" lon="5.99957">
        <ele>1282</ele>
        <time>2023-05-15T09:19:23Z</time>
      </trkpt>
      <trkpt lat="44.60438" lon="5.99957">
        <ele>1282</ele>
        <time>2023-05-15T09:19:24Z</time>
      </trkpt>
      <trkpt lat="44.60438" lon="5.99956">
        <ele>1282.2</ele>
        <time>2023-05-15T09:19:25Z</time>
      </trkpt>
      <trkpt lat="44.60438" lon="5.99956">
        <ele>1282.2</ele>
        <time>2023-05-15T09:19:26Z</time>
      </trkpt>
      <trkpt lat="44.60438" lon="5.99955">
        <ele>1282.2</ele>
        <time>2023-05-15T09:19:27Z</time>
      </trkpt>
      <trkpt lat="44.60438" lon="5.99954">
        <ele>1282.4</ele>
        <time>2023-05-15T09:19:28Z</time>
      </trkpt>
      <trkpt lat="44.60439" lon="5.99953">
        <ele>1282.4</ele>
        <time>2023-05-15T09:19:29Z</time>
      </trkpt>
      <trkpt lat="44.60439" lon="5.99952">
        <ele>1282.4</ele>
        <time>2023-05-15T09:19:30Z</time>
      </trkpt>
      <trkpt lat="44.60439" lon="5.99952">
        <ele>1282.6</ele>
        <time>2023-05-15T09:19:31Z</time>
      </trkpt>
      <trkpt lat="44.6044" lon="5.9995">
        <ele>1283</ele>
        <time>2023-05-15T09:19:32Z</time>
      </trkpt>
      <trkpt lat="44.6044" lon="5.9995">
        <ele>1283</ele>
        <time>2023-05-15T09:19:33Z</time>
      </trkpt>
      <trkpt lat="44.6044" lon="5.9995">
        <ele>1283.2</ele>
        <time>2023-05-15T09:19:34Z</time>
      </trkpt>
      <trkpt lat="44.6044" lon="5.99948">
        <ele>1283.2</ele>
        <time>2023-05-15T09:19:35Z</time>
      </trkpt>
      <trkpt lat="44.60441" lon="5.99947">
        <ele>1283.4</ele>
        <time>2023-05-15T09:19:36Z</time>
      </trkpt>
      <trkpt lat="44.60441" lon="5.99946">
        <ele>1283.6</ele>
        <time>2023-05-15T09:19:37Z</time>
      </trkpt>
      <trkpt lat="44.60442" lon="5.99945">
        <ele>1283.6</ele>
        <time>2023-05-15T09:19:38Z</time>
      </trkpt>
      <trkpt lat="44.60442" lon="5.99944">
        <ele>1283.8</ele>
        <time>2023-05-15T09:19:39Z</time>
      </trkpt>
      <trkpt lat="44.60443" lon="5.99943">
        <ele>1284</ele>
        <time>2023-05-15T09:19:40Z</time>
      </trkpt>
      <trkpt lat="44.60443" lon="5.99943">
        <ele>1284.2</ele>
        <time>2023-05-15T09:19:41Z</time>
      </trkpt>
      <trkpt lat="44.60444" lon="5.99942">
        <ele>1284.2</ele>
        <time>2023-05-15T09:19:42Z</time>
      </trkpt>
      <trkpt lat="44.60444" lon="5.99941">
        <ele>1284.6</ele>
        <time>2023-05-15T09:19:43Z</time>
      </trkpt>
      <trkpt lat="44.60444" lon="5.99941">
        <ele>1284.8</ele>
        <time>2023-05-15T09:19:44Z</time>
      </trkpt>
      <trkpt lat="44.60445" lon="5.9994">
        <ele>1285.2</ele>
        <time>2023-05-15T09:19:45Z</time>
      </trkpt>
      <trkpt lat="44.60445" lon="5.99939">
        <ele>1285.4</ele>
        <time>2023-05-15T09:19:46Z</time>
      </trkpt>
      <trkpt lat="44.60446" lon="5.99939">
        <ele>1285.4</ele>
        <time>2023-05-15T09:19:47Z</time>
      </trkpt>
      <trkpt lat="44.60446" lon="5.99938">
        <ele>1285.2</ele>
        <time>2023-05-15T09:19:48Z</time>
      </trkpt>
      <trkpt lat="44.60447" lon="5.99937">
        <ele>1285.4</ele>
        <time>2023-05-15T09:19:49Z</time>
      </trkpt>
      <trkpt lat="44.60448" lon="5.99936">
        <ele>1285.6</ele>
        <time>2023-05-15T09:19:50Z</time>
      </trkpt>
      <trkpt lat="44.60449" lon="5.99936">
        <ele>1285.6</ele>
        <time>2023-05-15T09:19:51Z</time>
      </trkpt>
      <trkpt lat="44.60449" lon="5.99935">
        <ele>1285.6</ele>
        <time>2023-05-15T09:19:52Z</time>
      </trkpt>
      <trkpt lat="44.6045" lon="5.99935">
        <ele>1285.6</ele>
        <time>2023-05-15T09:19:53Z</time>
      </trkpt>
      <trkpt lat="44.60451" lon="5.99934">
        <ele>1285.6</ele>
        <time>2023-05-15T09:19:54Z</time>
      </trkpt>
      <trkpt lat="44.60452" lon="5.99934">
        <ele>1285.8</ele>
        <time>2023-05-15T09:19:55Z</time>
      </trkpt>
      <trkpt lat="44.60453" lon="5.99933">
        <ele>1285.8</ele>
        <time>2023-05-15T09:19:56Z</time>
      </trkpt>
      <trkpt lat="44.60453" lon="5.99933">
        <ele>1285.8</ele>
        <time>2023-05-15T09:19:57Z</time>
      </trkpt>
      <trkpt lat="44.60454" lon="5.99932">
        <ele>1285.8</ele>
        <time>2023-05-15T09:19:58Z</time>
      </trkpt>
      <trkpt lat="44.60455" lon="5.99932">
        <ele>1285.8</ele>
        <time>2023-05-15T09:19:59Z</time>
      </trkpt>
      <trkpt lat="44.60456" lon="5.99931">
        <ele>1286</ele>
        <time>2023-05-15T09:20:00Z</time>
      </trkpt>
      <trkpt lat="44.60456" lon="5.9993">
        <ele>1285.8</ele>
        <time>2023-05-15T09:20:01Z</time>
      </trkpt>
      <trkpt lat="44.60456" lon="5.99929">
        <ele>1286</ele>
        <time>2023-05-15T09:20:02Z</time>
      </trkpt>
      <trkpt lat="44.60457" lon="5.99927">
        <ele>1286</ele>
        <time>2023-05-15T09:20:06Z</time>
      </trkpt>
      <trkpt lat="44.60457" lon="5.99926">
        <ele>1286</ele>
        <time>2023-05-15T09:20:07Z</time>
      </trkpt>
      <trkpt lat="44.60457" lon="5.99924">
        <ele>1286.2</ele>
        <time>2023-05-15T09:20:08Z</time>
      </trkpt>
      <trkpt lat="44.60456" lon="5.9992">
        <ele>1286.2</ele>
        <time>2023-05-15T09:20:10Z</time>
      </trkpt>
      <trkpt lat="44.60455" lon="5.99918">
        <ele>1286.2</ele>
        <time>2023-05-15T09:20:11Z</time>
      </trkpt>
      <trkpt lat="44.60455" lon="5.99916">
        <ele>1286.2</ele>
        <time>2023-05-15T09:20:12Z</time>
      </trkpt>
      <trkpt lat="44.60454" lon="5.99915">
        <ele>1286.2</ele>
        <time>2023-05-15T09:20:13Z</time>
      </trkpt>
      <trkpt lat="44.60448" lon="5.99898">
        <ele>1286</ele>
        <time>2023-05-15T09:20:19Z</time>
      </trkpt>
      <trkpt lat="44.60448" lon="5.99895">
        <ele>1286</ele>
        <time>2023-05-15T09:20:20Z</time>
      </trkpt>
      <trkpt lat="44.60449" lon="5.99892">
        <ele>1285.8</ele>
        <time>2023-05-15T09:20:21Z</time>
      </trkpt>
      <trkpt lat="44.6045" lon="5.9989">
        <ele>1285.4</ele>
        <time>2023-05-15T09:20:22Z</time>
      </trkpt>
      <trkpt lat="44.60451" lon="5.99888">
        <ele>1285.2</ele>
        <time>2023-05-15T09:20:23Z</time>
      </trkpt>
      <trkpt lat="44.60452" lon="5.99885">
        <ele>1285</ele>
        <time>2023-05-15T09:20:24Z</time>
      </trkpt>
      <trkpt lat="44.60453" lon="5.99882">
        <ele>1284.8</ele>
        <time>2023-05-15T09:20:25Z</time>
      </trkpt>
      <trkpt lat="44.60455" lon="5.99877">
        <ele>1284.6</ele>
        <time>2023-05-15T09:20:27Z</time>
      </trkpt>
      <trkpt lat="44.60455" lon="5.99877">
        <ele>1284.6</ele>
        <time>2023-05-15T09:20:28Z</time>
      </trkpt>
      <trkpt lat="44.60457" lon="5.99876">
        <ele>1284.4</ele>
        <time>2023-05-15T09:20:29Z</time>
      </trkpt>
      <trkpt lat="44.60459" lon="5.99874">
        <ele>1284.2</ele>
        <time>2023-05-15T09:20:30Z</time>
      </trkpt>
      <trkpt lat="44.60461" lon="5.99872">
        <ele>1284</ele>
        <time>2023-05-15T09:20:31Z</time>
      </trkpt>
      <trkpt lat="44.60464" lon="5.99867">
        <ele>1283.2</ele>
        <time>2023-05-15T09:20:33Z</time>
      </trkpt>
      <trkpt lat="44.60467" lon="5.99862">
        <ele>1282.6</ele>
        <time>2023-05-15T09:20:35Z</time>
      </trkpt>
      <trkpt lat="44.60468" lon="5.9986">
        <ele>1282</ele>
        <time>2023-05-15T09:20:36Z</time>
      </trkpt>
      <trkpt lat="44.60475" lon="5.99854">
        <ele>1280.8</ele>
        <time>2023-05-15T09:20:39Z</time>
      </trkpt>
      <trkpt lat="44.6048" lon="5.99849">
        <ele>1279.6</ele>
        <time>2023-05-15T09:20:41Z</time>
      </trkpt>
      <trkpt lat="44.60482" lon="5.99847">
        <ele>1279.2</ele>
        <time>2023-05-15T09:20:42Z</time>
      </trkpt>
      <trkpt lat="44.60485" lon="5.99843">
        <ele>1278</ele>
        <time>2023-05-15T09:20:44Z</time>
      </trkpt>
      <trkpt lat="44.60487" lon="5.99842">
        <ele>1277.2</ele>
        <time>2023-05-15T09:20:45Z</time>
      </trkpt>
      <trkpt lat="44.60488" lon="5.99841">
        <ele>1276.8</ele>
        <time>2023-05-15T09:20:46Z</time>
      </trkpt>
      <trkpt lat="44.60489" lon="5.99841">
        <ele>1276.4</ele>
        <time>2023-05-15T09:20:47Z</time>
      </trkpt>
      <trkpt lat="44.60489" lon="5.9984">
        <ele>1276</ele>
        <time>2023-05-15T09:20:48Z</time>
      </trkpt>
      <trkpt lat="44.60489" lon="5.9984">
        <ele>1275.6</ele>
        <time>2023-05-15T09:20:49Z</time>
      </trkpt>
      <trkpt lat="44.60489" lon="5.99841">
        <ele>1275.4</ele>
        <time>2023-05-15T09:20:50Z</time>
      </trkpt>
      <trkpt lat="44.6049" lon="5.9984">
        <ele>1275.4</ele>
        <time>2023-05-15T09:20:51Z</time>
      </trkpt>
      <trkpt lat="44.60492" lon="5.99839">
        <ele>1274.8</ele>
        <time>2023-05-15T09:20:54Z</time>
      </trkpt>
      <trkpt lat="44.60492" lon="5.99839">
        <ele>1274.8</ele>
        <time>2023-05-15T09:20:55Z</time>
      </trkpt>
      <trkpt lat="44.60492" lon="5.99839">
        <ele>1274.6</ele>
        <time>2023-05-15T09:20:56Z</time>
      </trkpt>
      <trkpt lat="44.60493" lon="5.99839">
        <ele>1274.6</ele>
        <time>2023-05-15T09:20:57Z</time>
      </trkpt>
      <trkpt lat="44.60493" lon="5.99839">
        <ele>1274.6</ele>
        <time>2023-05-15T09:20:58Z</time>
      </trkpt>
      <trkpt lat="44.60493" lon="5.99839">
        <ele>1274.4</ele>
        <time>2023-05-15T09:20:59Z</time>
      </trkpt>
      <trkpt lat="44.60493" lon="5.99839">
        <ele>1274.4</ele>
        <time>2023-05-15T09:21:00Z</time>
      </trkpt>
      <trkpt lat="44.60493" lon="5.99838">
        <ele>1274.2</ele>
        <time>2023-05-15T09:21:01Z</time>
      </trkpt>
      <trkpt lat="44.60499" lon="5.99832">
        <ele>1274</ele>
        <time>2023-05-15T09:21:06Z</time>
      </trkpt>
      <trkpt lat="44.605" lon="5.99831">
        <ele>1273.8</ele>
        <time>2023-05-15T09:21:07Z</time>
      </trkpt>
      <trkpt lat="44.60503" lon="5.99828">
        <ele>1273.6</ele>
        <time>2023-05-15T09:21:09Z</time>
      </trkpt>
      <trkpt lat="44.60511" lon="5.99822">
        <ele>1273.4</ele>
        <time>2023-05-15T09:21:14Z</time>
      </trkpt>
      <trkpt lat="44.60518" lon="5.99814">
        <ele>1273.8</ele>
        <time>2023-05-15T09:21:20Z</time>
      </trkpt>
      <trkpt lat="44.60519" lon="5.99813">
        <ele>1273.6</ele>
        <time>2023-05-15T09:21:28Z</time>
      </trkpt>
      <trkpt lat="44.6052" lon="5.99812">
        <ele>1273.6</ele>
        <time>2023-05-15T09:21:32Z</time>
      </trkpt>
      <trkpt lat="44.60521" lon="5.99811">
        <ele>1273.6</ele>
        <time>2023-05-15T09:21:33Z</time>
      </trkpt>
      <trkpt lat="44.60521" lon="5.9981">
        <ele>1273.4</ele>
        <time>2023-05-15T09:21:35Z</time>
      </trkpt>
      <trkpt lat="44.60522" lon="5.9981">
        <ele>1273.2</ele>
        <time>2023-05-15T09:21:38Z</time>
      </trkpt>
      <trkpt lat="44.60522" lon="5.99809">
        <ele>1273</ele>
        <time>2023-05-15T09:21:39Z</time>
      </trkpt>
      <trkpt lat="44.60524" lon="5.99808">
        <ele>1272.6</ele>
        <time>2023-05-15T09:21:44Z</time>
      </trkpt>
      <trkpt lat="44.60525" lon="5.99806">
        <ele>1272.6</ele>
        <time>2023-05-15T09:21:52Z</time>
      </trkpt>
      <trkpt lat="44.60526" lon="5.99803">
        <ele>1272.6</ele>
        <time>2023-05-15T09:21:54Z</time>
      </trkpt>
      <trkpt lat="44.60529" lon="5.99799">
        <ele>1272.6</ele>
        <time>2023-05-15T09:21:57Z</time>
      </trkpt>
      <trkpt lat="44.60529" lon="5.99799">
        <ele>1272.6</ele>
        <time>2023-05-15T09:21:58Z</time>
      </trkpt>
      <trkpt lat="44.60529" lon="5.99799">
        <ele>1272.4</ele>
        <time>2023-05-15T09:22:01Z</time>
      </trkpt>
      <trkpt lat="44.6053" lon="5.99798">
        <ele>1272</ele>
        <time>2023-05-15T09:22:05Z</time>
      </trkpt>
      <trkpt lat="44.60534" lon="5.99796">
        <ele>1272</ele>
        <time>2023-05-15T09:22:08Z</time>
      </trkpt>
      <trkpt lat="44.60535" lon="5.99796">
        <ele>1272</ele>
        <time>2023-05-15T09:22:09Z</time>
      </trkpt>
      <trkpt lat="44.60535" lon="5.99796">
        <ele>1272.2</ele>
        <time>2023-05-15T09:22:10Z</time>
      </trkpt>
      <trkpt lat="44.60537" lon="5.99794">
        <ele>1272.2</ele>
        <time>2023-05-15T09:22:12Z</time>
      </trkpt>
      <trkpt lat="44.60537" lon="5.99793">
        <ele>1272.4</ele>
        <time>2023-05-15T09:22:13Z</time>
      </trkpt>
      <trkpt lat="44.60537" lon="5.99792">
        <ele>1272.4</ele>
        <time>2023-05-15T09:22:14Z</time>
      </trkpt>
      <trkpt lat="44.60536" lon="5.99791">
        <ele>1272.4</ele>
        <time>2023-05-15T09:22:15Z</time>
      </trkpt>
      <trkpt lat="44.60535" lon="5.9979">
        <ele>1272.6</ele>
        <time>2023-05-15T09:22:16Z</time>
      </trkpt>
      <trkpt lat="44.60533" lon="5.99789">
        <ele>1272.4</ele>
        <time>2023-05-15T09:22:19Z</time>
      </trkpt>
      <trkpt lat="44.60528" lon="5.99784">
        <ele>1272</ele>
        <time>2023-05-15T09:22:25Z</time>
      </trkpt>
      <trkpt lat="44.60526" lon="5.9978">
        <ele>1271.6</ele>
        <time>2023-05-15T09:22:27Z</time>
      </trkpt>
      <trkpt lat="44.60525" lon="5.99778">
        <ele>1271.2</ele>
        <time>2023-05-15T09:22:28Z</time>
      </trkpt>
      <trkpt lat="44.60522" lon="5.99774">
        <ele>1271</ele>
        <time>2023-05-15T09:22:30Z</time>
      </trkpt>
      <trkpt lat="44.60521" lon="5.99771">
        <ele>1270.8</ele>
        <time>2023-05-15T09:22:31Z</time>
      </trkpt>
      <trkpt lat="44.6052" lon="5.99766">
        <ele>1270.8</ele>
        <time>2023-05-15T09:22:33Z</time>
      </trkpt>
      <trkpt lat="44.6052" lon="5.99764">
        <ele>1270.6</ele>
        <time>2023-05-15T09:22:34Z</time>
      </trkpt>
      <trkpt lat="44.60518" lon="5.99755">
        <ele>1270.6</ele>
        <time>2023-05-15T09:22:38Z</time>
      </trkpt>
      <trkpt lat="44.60517" lon="5.99753">
        <ele>1270.6</ele>
        <time>2023-05-15T09:22:39Z</time>
      </trkpt>
      <trkpt lat="44.60517" lon="5.99751">
        <ele>1270.6</ele>
        <time>2023-05-15T09:22:40Z</time>
      </trkpt>
      <trkpt lat="44.60518" lon="5.99749">
        <ele>1270.6</ele>
        <time>2023-05-15T09:22:41Z</time>
      </trkpt>
      <trkpt lat="44.60518" lon="5.99747">
        <ele>1270.8</ele>
        <time>2023-05-15T09:22:42Z</time>
      </trkpt>
      <trkpt lat="44.60516" lon="5.99738">
        <ele>1270.8</ele>
        <time>2023-05-15T09:22:45Z</time>
      </trkpt>
      <trkpt lat="44.60515" lon="5.99736">
        <ele>1270.8</ele>
        <time>2023-05-15T09:22:46Z</time>
      </trkpt>
      <trkpt lat="44.60515" lon="5.99734">
        <ele>1270.6</ele>
        <time>2023-05-15T09:22:47Z</time>
      </trkpt>
      <trkpt lat="44.60514" lon="5.99732">
        <ele>1270.6</ele>
        <time>2023-05-15T09:22:48Z</time>
      </trkpt>
      <trkpt lat="44.60514" lon="5.9973">
        <ele>1270.6</ele>
        <time>2023-05-15T09:22:49Z</time>
      </trkpt>
      <trkpt lat="44.60514" lon="5.99728">
        <ele>1270.6</ele>
        <time>2023-05-15T09:22:50Z</time>
      </trkpt>
      <trkpt lat="44.60514" lon="5.99728">
        <ele>1270.4</ele>
        <time>2023-05-15T09:22:51Z</time>
      </trkpt>
      <trkpt lat="44.60514" lon="5.99728">
        <ele>1270.4</ele>
        <time>2023-05-15T09:22:52Z</time>
      </trkpt>
      <trkpt lat="44.60515" lon="5.99724">
        <ele>1270.4</ele>
        <time>2023-05-15T09:22:59Z</time>
      </trkpt>
      <trkpt lat="44.60515" lon="5.99718">
        <ele>1271.2</ele>
        <time>2023-05-15T09:23:05Z</time>
      </trkpt>
      <trkpt lat="44.60515" lon="5.99718">
        <ele>1271.4</ele>
        <time>2023-05-15T09:23:07Z</time>
      </trkpt>
      <trkpt lat="44.60516" lon="5.99717">
        <ele>1271.8</ele>
        <time>2023-05-15T09:23:13Z</time>
      </trkpt>
      <trkpt lat="44.60516" lon="5.99717">
        <ele>1272</ele>
        <time>2023-05-15T09:23:14Z</time>
      </trkpt>
      <trkpt lat="44.60517" lon="5.99711">
        <ele>1272.4</ele>
        <time>2023-05-15T09:23:22Z</time>
      </trkpt>
      <trkpt lat="44.60518" lon="5.99703">
        <ele>1272.6</ele>
        <time>2023-05-15T09:23:26Z</time>
      </trkpt>
      <trkpt lat="44.60519" lon="5.99698">
        <ele>1273</ele>
        <time>2023-05-15T09:23:29Z</time>
      </trkpt>
      <trkpt lat="44.60521" lon="5.99687">
        <ele>1273.6</ele>
        <time>2023-05-15T09:23:34Z</time>
      </trkpt>
      <trkpt lat="44.60525" lon="5.99682">
        <ele>1273.6</ele>
        <time>2023-05-15T09:23:36Z</time>
      </trkpt>
      <trkpt lat="44.60527" lon="5.99679">
        <ele>1273.6</ele>
        <time>2023-05-15T09:23:37Z</time>
      </trkpt>
      <trkpt lat="44.60529" lon="5.99676">
        <ele>1273.6</ele>
        <time>2023-05-15T09:23:38Z</time>
      </trkpt>
      <trkpt lat="44.60532" lon="5.9967">
        <ele>1273.6</ele>
        <time>2023-05-15T09:23:40Z</time>
      </trkpt>
      <trkpt lat="44.60533" lon="5.99668">
        <ele>1273.6</ele>
        <time>2023-05-15T09:23:41Z</time>
      </trkpt>
      <trkpt lat="44.60534" lon="5.99666">
        <ele>1273.4</ele>
        <time>2023-05-15T09:23:42Z</time>
      </trkpt>
      <trkpt lat="44.60534" lon="5.99664">
        <ele>1273.2</ele>
        <time>2023-05-15T09:23:43Z</time>
      </trkpt>
      <trkpt lat="44.60535" lon="5.99663">
        <ele>1273.2</ele>
        <time>2023-05-15T09:23:44Z</time>
      </trkpt>
      <trkpt lat="44.60535" lon="5.99662">
        <ele>1273</ele>
        <time>2023-05-15T09:23:45Z</time>
      </trkpt>
      <trkpt lat="44.60536" lon="5.9966">
        <ele>1272.8</ele>
        <time>2023-05-15T09:23:47Z</time>
      </trkpt>
      <trkpt lat="44.60536" lon="5.9966">
        <ele>1272.8</ele>
        <time>2023-05-15T09:23:48Z</time>
      </trkpt>
      <trkpt lat="44.60536" lon="5.9966">
        <ele>1273</ele>
        <time>2023-05-15T09:23:51Z</time>
      </trkpt>
      <trkpt lat="44.60536" lon="5.9966">
        <ele>1272.2</ele>
        <time>2023-05-15T09:24:40Z</time>
      </trkpt>
      <trkpt lat="44.6054" lon="5.99656">
        <ele>1272.4</ele>
        <time>2023-05-15T09:24:53Z</time>
      </trkpt>
      <trkpt lat="44.6054" lon="5.99656">
        <ele>1272.4</ele>
        <time>2023-05-15T09:24:54Z</time>
      </trkpt>
      <trkpt lat="44.6054" lon="5.99656">
        <ele>1272.4</ele>
        <time>2023-05-15T09:24:55Z</time>
      </trkpt>
      <trkpt lat="44.60541" lon="5.99655">
        <ele>1273.2</ele>
        <time>2023-05-15T09:25:02Z</time>
      </trkpt>
      <trkpt lat="44.60542" lon="5.99654">
        <ele>1273.8</ele>
        <time>2023-05-15T09:25:04Z</time>
      </trkpt>
      <trkpt lat="44.60543" lon="5.99652">
        <ele>1274.2</ele>
        <time>2023-05-15T09:25:06Z</time>
      </trkpt>
      <trkpt lat="44.60543" lon="5.9965">
        <ele>1274.4</ele>
        <time>2023-05-15T09:25:08Z</time>
      </trkpt>
      <trkpt lat="44.60543" lon="5.9965">
        <ele>1274.8</ele>
        <time>2023-05-15T09:25:09Z</time>
      </trkpt>
      <trkpt lat="44.60543" lon="5.9965">
        <ele>1274.8</ele>
        <time>2023-05-15T09:25:10Z</time>
      </trkpt>
      <trkpt lat="44.60543" lon="5.9965">
        <ele>1275</ele>
        <time>2023-05-15T09:25:12Z</time>
      </trkpt>
      <trkpt lat="44.60543" lon="5.9965">
        <ele>1275.2</ele>
        <time>2023-05-15T09:25:13Z</time>
      </trkpt>
      <trkpt lat="44.60543" lon="5.9965">
        <ele>1275.2</ele>
        <time>2023-05-15T09:25:14Z</time>
      </trkpt>
      <trkpt lat="44.60543" lon="5.9965">
        <ele>1275.4</ele>
        <time>2023-05-15T09:25:15Z</time>
      </trkpt>
      <trkpt lat="44.60543" lon="5.9965">
        <ele>1275.6</ele>
        <time>2023-05-15T09:25:16Z</time>
      </trkpt>
      <trkpt lat="44.60543" lon="5.9965">
        <ele>1275.8</ele>
        <time>2023-05-15T09:25:17Z</time>
      </trkpt>
      <trkpt lat="44.60543" lon="5.9965">
        <ele>1276</ele>
        <time>2023-05-15T09:25:18Z</time>
      </trkpt>
      <trkpt lat="44.60543" lon="5.99649">
        <ele>1276.2</ele>
        <time>2023-05-15T09:25:19Z</time>
      </trkpt>
      <trkpt lat="44.60543" lon="5.99649">
        <ele>1276.2</ele>
        <time>2023-05-15T09:25:20Z</time>
      </trkpt>
      <trkpt lat="44.60543" lon="5.99649">
        <ele>1276.4</ele>
        <time>2023-05-15T09:25:21Z</time>
      </trkpt>
      <trkpt lat="44.60544" lon="5.99648">
        <ele>1276.6</ele>
        <time>2023-05-15T09:25:22Z</time>
      </trkpt>
      <trkpt lat="44.60544" lon="5.99647">
        <ele>1276.8</ele>
        <time>2023-05-15T09:25:23Z</time>
      </trkpt>
      <trkpt lat="44.60544" lon="5.99646">
        <ele>1277</ele>
        <time>2023-05-15T09:25:24Z</time>
      </trkpt>
      <trkpt lat="44.60545" lon="5.99646">
        <ele>1277.2</ele>
        <time>2023-05-15T09:25:25Z</time>
      </trkpt>
      <trkpt lat="44.60545" lon="5.99646">
        <ele>1277.2</ele>
        <time>2023-05-15T09:25:26Z</time>
      </trkpt>
      <trkpt lat="44.60546" lon="5.99645">
        <ele>1277.4</ele>
        <time>2023-05-15T09:25:27Z</time>
      </trkpt>
      <trkpt lat="44.60546" lon="5.99645">
        <ele>1277.6</ele>
        <time>2023-05-15T09:25:28Z</time>
      </trkpt>
      <trkpt lat="44.60547" lon="5.99645">
        <ele>1277.6</ele>
        <time>2023-05-15T09:25:29Z</time>
      </trkpt>
      <trkpt lat="44.60547" lon="5.99644">
        <ele>1277.8</ele>
        <time>2023-05-15T09:25:30Z</time>
      </trkpt>
      <trkpt lat="44.60548" lon="5.99643">
        <ele>1278</ele>
        <time>2023-05-15T09:25:31Z</time>
      </trkpt>
      <trkpt lat="44.60548" lon="5.99642">
        <ele>1278</ele>
        <time>2023-05-15T09:25:32Z</time>
      </trkpt>
      <trkpt lat="44.60549" lon="5.99641">
        <ele>1278.2</ele>
        <time>2023-05-15T09:25:33Z</time>
      </trkpt>
      <trkpt lat="44.6055" lon="5.99641">
        <ele>1278.2</ele>
        <time>2023-05-15T09:25:34Z</time>
      </trkpt>
      <trkpt lat="44.6055" lon="5.99641">
        <ele>1278.4</ele>
        <time>2023-05-15T09:25:35Z</time>
      </trkpt>
      <trkpt lat="44.60551" lon="5.99639">
        <ele>1278.6</ele>
        <time>2023-05-15T09:25:36Z</time>
      </trkpt>
      <trkpt lat="44.60552" lon="5.99639">
        <ele>1278.8</ele>
        <time>2023-05-15T09:25:37Z</time>
      </trkpt>
      <trkpt lat="44.60553" lon="5.99638">
        <ele>1279</ele>
        <time>2023-05-15T09:25:38Z</time>
      </trkpt>
      <trkpt lat="44.60555" lon="5.99637">
        <ele>1279</ele>
        <time>2023-05-15T09:25:39Z</time>
      </trkpt>
      <trkpt lat="44.60555" lon="5.99637">
        <ele>1279.2</ele>
        <time>2023-05-15T09:25:40Z</time>
      </trkpt>
      <trkpt lat="44.60555" lon="5.99637">
        <ele>1279.4</ele>
        <time>2023-05-15T09:25:41Z</time>
      </trkpt>
      <trkpt lat="44.60555" lon="5.99637">
        <ele>1279.4</ele>
        <time>2023-05-15T09:25:42Z</time>
      </trkpt>
      <trkpt lat="44.60556" lon="5.99636">
        <ele>1279.6</ele>
        <time>2023-05-15T09:25:43Z</time>
      </trkpt>
      <trkpt lat="44.60556" lon="5.99636">
        <ele>1279.8</ele>
        <time>2023-05-15T09:25:44Z</time>
      </trkpt>
      <trkpt lat="44.60556" lon="5.99636">
        <ele>1279.8</ele>
        <time>2023-05-15T09:25:45Z</time>
      </trkpt>
      <trkpt lat="44.60556" lon="5.99636">
        <ele>1280</ele>
        <time>2023-05-15T09:25:46Z</time>
      </trkpt>
      <trkpt lat="44.60556" lon="5.99636">
        <ele>1280</ele>
        <time>2023-05-15T09:25:47Z</time>
      </trkpt>
      <trkpt lat="44.60556" lon="5.99635">
        <ele>1280</ele>
        <time>2023-05-15T09:25:48Z</time>
      </trkpt>
      <trkpt lat="44.60557" lon="5.99634">
        <ele>1280.4</ele>
        <time>2023-05-15T09:25:49Z</time>
      </trkpt>
      <trkpt lat="44.60558" lon="5.99633">
        <ele>1280.4</ele>
        <time>2023-05-15T09:25:50Z</time>
      </trkpt>
      <trkpt lat="44.60558" lon="5.99633">
        <ele>1280.6</ele>
        <time>2023-05-15T09:25:51Z</time>
      </trkpt>
      <trkpt lat="44.60558" lon="5.99633">
        <ele>1280.8</ele>
        <time>2023-05-15T09:25:52Z</time>
      </trkpt>
      <trkpt lat="44.60559" lon="5.99632">
        <ele>1280.8</ele>
        <time>2023-05-15T09:25:53Z</time>
      </trkpt>
      <trkpt lat="44.60559" lon="5.99631">
        <ele>1280.8</ele>
        <time>2023-05-15T09:25:54Z</time>
      </trkpt>
      <trkpt lat="44.6056" lon="5.9963">
        <ele>1280.8</ele>
        <time>2023-05-15T09:25:55Z</time>
      </trkpt>
      <trkpt lat="44.60561" lon="5.9963">
        <ele>1280.8</ele>
        <time>2023-05-15T09:25:56Z</time>
      </trkpt>
      <trkpt lat="44.60562" lon="5.99628">
        <ele>1280.8</ele>
        <time>2023-05-15T09:25:57Z</time>
      </trkpt>
      <trkpt lat="44.60562" lon="5.99627">
        <ele>1281.2</ele>
        <time>2023-05-15T09:25:58Z</time>
      </trkpt>
      <trkpt lat="44.60563" lon="5.99626">
        <ele>1281.4</ele>
        <time>2023-05-15T09:25:59Z</time>
      </trkpt>
      <trkpt lat="44.60565" lon="5.99624">
        <ele>1281.2</ele>
        <time>2023-05-15T09:26:00Z</time>
      </trkpt>
      <trkpt lat="44.60565" lon="5.99623">
        <ele>1281.4</ele>
        <time>2023-05-15T09:26:01Z</time>
      </trkpt>
      <trkpt lat="44.60565" lon="5.99622">
        <ele>1281.6</ele>
        <time>2023-05-15T09:26:02Z</time>
      </trkpt>
      <trkpt lat="44.60566" lon="5.99621">
        <ele>1281.8</ele>
        <time>2023-05-15T09:26:03Z</time>
      </trkpt>
      <trkpt lat="44.60566" lon="5.99621">
        <ele>1281.8</ele>
        <time>2023-05-15T09:26:04Z</time>
      </trkpt>
      <trkpt lat="44.60566" lon="5.9962">
        <ele>1282.2</ele>
        <time>2023-05-15T09:26:05Z</time>
      </trkpt>
      <trkpt lat="44.60567" lon="5.99619">
        <ele>1282.4</ele>
        <time>2023-05-15T09:26:06Z</time>
      </trkpt>
      <trkpt lat="44.60568" lon="5.99617">
        <ele>1282.4</ele>
        <time>2023-05-15T09:26:07Z</time>
      </trkpt>
      <trkpt lat="44.60569" lon="5.99617">
        <ele>1282.6</ele>
        <time>2023-05-15T09:26:08Z</time>
      </trkpt>
      <trkpt lat="44.6057" lon="5.99615">
        <ele>1282.6</ele>
        <time>2023-05-15T09:26:09Z</time>
      </trkpt>
      <trkpt lat="44.60571" lon="5.99615">
        <ele>1282.8</ele>
        <time>2023-05-15T09:26:10Z</time>
      </trkpt>
      <trkpt lat="44.60572" lon="5.99614">
        <ele>1283</ele>
        <time>2023-05-15T09:26:11Z</time>
      </trkpt>
      <trkpt lat="44.60572" lon="5.99614">
        <ele>1283.2</ele>
        <time>2023-05-15T09:26:12Z</time>
      </trkpt>
      <trkpt lat="44.60572" lon="5.99613">
        <ele>1283.2</ele>
        <time>2023-05-15T09:26:13Z</time>
      </trkpt>
      <trkpt lat="44.60572" lon="5.99612">
        <ele>1283.4</ele>
        <time>2023-05-15T09:26:14Z</time>
      </trkpt>
      <trkpt lat="44.60573" lon="5.9961">
        <ele>1283.6</ele>
        <time>2023-05-15T09:26:15Z</time>
      </trkpt>
      <trkpt lat="44.60573" lon="5.99609">
        <ele>1283.8</ele>
        <time>2023-05-15T09:26:16Z</time>
      </trkpt>
      <trkpt lat="44.60574" lon="5.99608">
        <ele>1283.8</ele>
        <time>2023-05-15T09:26:17Z</time>
      </trkpt>
      <trkpt lat="44.60574" lon="5.99608">
        <ele>1284</ele>
        <time>2023-05-15T09:26:18Z</time>
      </trkpt>
      <trkpt lat="44.60574" lon="5.99607">
        <ele>1284.2</ele>
        <time>2023-05-15T09:26:19Z</time>
      </trkpt>
      <trkpt lat="44.60574" lon="5.99607">
        <ele>1284.4</ele>
        <time>2023-05-15T09:26:20Z</time>
      </trkpt>
      <trkpt lat="44.60575" lon="5.99606">
        <ele>1284.6</ele>
        <time>2023-05-15T09:26:21Z</time>
      </trkpt>
      <trkpt lat="44.60575" lon="5.99606">
        <ele>1284.6</ele>
        <time>2023-05-15T09:26:22Z</time>
      </trkpt>
      <trkpt lat="44.60575" lon="5.99606">
        <ele>1285</ele>
        <time>2023-05-15T09:26:23Z</time>
      </trkpt>
      <trkpt lat="44.60575" lon="5.99606">
        <ele>1285</ele>
        <time>2023-05-15T09:26:24Z</time>
      </trkpt>
      <trkpt lat="44.60575" lon="5.99606">
        <ele>1285</ele>
        <time>2023-05-15T09:26:25Z</time>
      </trkpt>
      <trkpt lat="44.60576" lon="5.99605">
        <ele>1285.4</ele>
        <time>2023-05-15T09:26:26Z</time>
      </trkpt>
      <trkpt lat="44.60576" lon="5.99604">
        <ele>1285.4</ele>
        <time>2023-05-15T09:26:27Z</time>
      </trkpt>
      <trkpt lat="44.60577" lon="5.99602">
        <ele>1285.6</ele>
        <time>2023-05-15T09:26:28Z</time>
      </trkpt>
      <trkpt lat="44.60577" lon="5.99602">
        <ele>1285.6</ele>
        <time>2023-05-15T09:26:29Z</time>
      </trkpt>
      <trkpt lat="44.60577" lon="5.99601">
        <ele>1285.6</ele>
        <time>2023-05-15T09:26:30Z</time>
      </trkpt>
      <trkpt lat="44.60577" lon="5.996">
        <ele>1285.6</ele>
        <time>2023-05-15T09:26:31Z</time>
      </trkpt>
      <trkpt lat="44.60577" lon="5.99599">
        <ele>1285.8</ele>
        <time>2023-05-15T09:26:32Z</time>
      </trkpt>
      <trkpt lat="44.60577" lon="5.99598">
        <ele>1285.8</ele>
        <time>2023-05-15T09:26:33Z</time>
      </trkpt>
      <trkpt lat="44.60578" lon="5.99597">
        <ele>1286</ele>
        <time>2023-05-15T09:26:34Z</time>
      </trkpt>
      <trkpt lat="44.60578" lon="5.99596">
        <ele>1286.2</ele>
        <time>2023-05-15T09:26:35Z</time>
      </trkpt>
      <trkpt lat="44.60579" lon="5.99595">
        <ele>1286.4</ele>
        <time>2023-05-15T09:26:36Z</time>
      </trkpt>
      <trkpt lat="44.60579" lon="5.99594">
        <ele>1286.4</ele>
        <time>2023-05-15T09:26:37Z</time>
      </trkpt>
      <trkpt lat="44.60579" lon="5.99593">
        <ele>1286.6</ele>
        <time>2023-05-15T09:26:38Z</time>
      </trkpt>
      <trkpt lat="44.60579" lon="5.99593">
        <ele>1286.6</ele>
        <time>2023-05-15T09:26:39Z</time>
      </trkpt>
      <trkpt lat="44.60579" lon="5.99593">
        <ele>1286.8</ele>
        <time>2023-05-15T09:26:40Z</time>
      </trkpt>
      <trkpt lat="44.6058" lon="5.99593">
        <ele>1287</ele>
        <time>2023-05-15T09:26:41Z</time>
      </trkpt>
      <trkpt lat="44.6058" lon="5.99592">
        <ele>1287</ele>
        <time>2023-05-15T09:26:42Z</time>
      </trkpt>
      <trkpt lat="44.6058" lon="5.99592">
        <ele>1287.2</ele>
        <time>2023-05-15T09:26:43Z</time>
      </trkpt>
      <trkpt lat="44.60581" lon="5.99592">
        <ele>1287.4</ele>
        <time>2023-05-15T09:26:44Z</time>
      </trkpt>
      <trkpt lat="44.60581" lon="5.99591">
        <ele>1287.4</ele>
        <time>2023-05-15T09:26:45Z</time>
      </trkpt>
      <trkpt lat="44.60582" lon="5.99591">
        <ele>1287.8</ele>
        <time>2023-05-15T09:26:46Z</time>
      </trkpt>
      <trkpt lat="44.60582" lon="5.99591">
        <ele>1287.8</ele>
        <time>2023-05-15T09:26:47Z</time>
      </trkpt>
      <trkpt lat="44.60582" lon="5.99591">
        <ele>1288.2</ele>
        <time>2023-05-15T09:26:48Z</time>
      </trkpt>
      <trkpt lat="44.60582" lon="5.9959">
        <ele>1288.4</ele>
        <time>2023-05-15T09:26:49Z</time>
      </trkpt>
      <trkpt lat="44.60583" lon="5.9959">
        <ele>1288.8</ele>
        <time>2023-05-15T09:26:50Z</time>
      </trkpt>
      <trkpt lat="44.60584" lon="5.99589">
        <ele>1289</ele>
        <time>2023-05-15T09:26:51Z</time>
      </trkpt>
      <trkpt lat="44.60586" lon="5.99589">
        <ele>1289.2</ele>
        <time>2023-05-15T09:26:52Z</time>
      </trkpt>
      <trkpt lat="44.60586" lon="5.99588">
        <ele>1289.4</ele>
        <time>2023-05-15T09:26:53Z</time>
      </trkpt>
      <trkpt lat="44.60587" lon="5.99588">
        <ele>1289.4</ele>
        <time>2023-05-15T09:26:54Z</time>
      </trkpt>
      <trkpt lat="44.60588" lon="5.99587">
        <ele>1289.6</ele>
        <time>2023-05-15T09:26:55Z</time>
      </trkpt>
      <trkpt lat="44.60589" lon="5.99587">
        <ele>1289.6</ele>
        <time>2023-05-15T09:26:56Z</time>
      </trkpt>
      <trkpt lat="44.60589" lon="5.99586">
        <ele>1289.8</ele>
        <time>2023-05-15T09:26:57Z</time>
      </trkpt>
      <trkpt lat="44.6059" lon="5.99586">
        <ele>1289.8</ele>
        <time>2023-05-15T09:26:58Z</time>
      </trkpt>
      <trkpt lat="44.60591" lon="5.99585">
        <ele>1289.8</ele>
        <time>2023-05-15T09:27:01Z</time>
      </trkpt>
      <trkpt lat="44.6059" lon="5.99585">
        <ele>1290</ele>
        <time>2023-05-15T09:27:02Z</time>
      </trkpt>
      <trkpt lat="44.6059" lon="5.99585">
        <ele>1290</ele>
        <time>2023-05-15T09:27:03Z</time>
      </trkpt>
      <trkpt lat="44.60591" lon="5.99585">
        <ele>1290</ele>
        <time>2023-05-15T09:27:07Z</time>
      </trkpt>
      <trkpt lat="44.60591" lon="5.99584">
        <ele>1290</ele>
        <time>2023-05-15T09:27:08Z</time>
      </trkpt>
      <trkpt lat="44.60592" lon="5.99584">
        <ele>1290</ele>
        <time>2023-05-15T09:27:09Z</time>
      </trkpt>
      <trkpt lat="44.60592" lon="5.99584">
        <ele>1290.4</ele>
        <time>2023-05-15T09:27:16Z</time>
      </trkpt>
      <trkpt lat="44.60593" lon="5.99583">
        <ele>1291.4</ele>
        <time>2023-05-15T09:27:22Z</time>
      </trkpt>
      <trkpt lat="44.60595" lon="5.99583">
        <ele>1292.2</ele>
        <time>2023-05-15T09:27:27Z</time>
      </trkpt>
      <trkpt lat="44.60596" lon="5.99583">
        <ele>1292.2</ele>
        <time>2023-05-15T09:27:28Z</time>
      </trkpt>
      <trkpt lat="44.60596" lon="5.99583">
        <ele>1292.2</ele>
        <time>2023-05-15T09:27:29Z</time>
      </trkpt>
      <trkpt lat="44.60596" lon="5.99583">
        <ele>1292.4</ele>
        <time>2023-05-15T09:27:31Z</time>
      </trkpt>
      <trkpt lat="44.60596" lon="5.99582">
        <ele>1293</ele>
        <time>2023-05-15T09:27:33Z</time>
      </trkpt>
      <trkpt lat="44.60598" lon="5.99582">
        <ele>1293.6</ele>
        <time>2023-05-15T09:27:39Z</time>
      </trkpt>
      <trkpt lat="44.60598" lon="5.99582">
        <ele>1293.8</ele>
        <time>2023-05-15T09:27:40Z</time>
      </trkpt>
      <trkpt lat="44.60598" lon="5.99582">
        <ele>1294.4</ele>
        <time>2023-05-15T09:27:44Z</time>
      </trkpt>
      <trkpt lat="44.60598" lon="5.99582">
        <ele>1294.8</ele>
        <time>2023-05-15T09:27:45Z</time>
      </trkpt>
      <trkpt lat="44.60598" lon="5.99582">
        <ele>1294.8</ele>
        <time>2023-05-15T09:27:46Z</time>
      </trkpt>
      <trkpt lat="44.60599" lon="5.99582">
        <ele>1295</ele>
        <time>2023-05-15T09:27:47Z</time>
      </trkpt>
      <trkpt lat="44.606" lon="5.99583">
        <ele>1295</ele>
        <time>2023-05-15T09:27:48Z</time>
      </trkpt>
      <trkpt lat="44.606" lon="5.99583">
        <ele>1295.2</ele>
        <time>2023-05-15T09:27:49Z</time>
      </trkpt>
      <trkpt lat="44.606" lon="5.99583">
        <ele>1295.6</ele>
        <time>2023-05-15T09:27:50Z</time>
      </trkpt>
      <trkpt lat="44.606" lon="5.99583">
        <ele>1295.6</ele>
        <time>2023-05-15T09:27:51Z</time>
      </trkpt>
      <trkpt lat="44.606" lon="5.99583">
        <ele>1295.8</ele>
        <time>2023-05-15T09:27:52Z</time>
      </trkpt>
      <trkpt lat="44.606" lon="5.99583">
        <ele>1296</ele>
        <time>2023-05-15T09:27:53Z</time>
      </trkpt>
      <trkpt lat="44.606" lon="5.99583">
        <ele>1296.2</ele>
        <time>2023-05-15T09:27:54Z</time>
      </trkpt>
      <trkpt lat="44.606" lon="5.99583">
        <ele>1296.8</ele>
        <time>2023-05-15T09:27:57Z</time>
      </trkpt>
      <trkpt lat="44.606" lon="5.99583">
        <ele>1297</ele>
        <time>2023-05-15T09:27:58Z</time>
      </trkpt>
      <trkpt lat="44.606" lon="5.99583">
        <ele>1297.2</ele>
        <time>2023-05-15T09:27:59Z</time>
      </trkpt>
      <trkpt lat="44.606" lon="5.99583">
        <ele>1297.4</ele>
        <time>2023-05-15T09:28:00Z</time>
      </trkpt>
      <trkpt lat="44.60601" lon="5.99582">
        <ele>1297.6</ele>
        <time>2023-05-15T09:28:01Z</time>
      </trkpt>
      <trkpt lat="44.60601" lon="5.99582">
        <ele>1298</ele>
        <time>2023-05-15T09:28:02Z</time>
      </trkpt>
      <trkpt lat="44.60601" lon="5.99582">
        <ele>1298.4</ele>
        <time>2023-05-15T09:28:03Z</time>
      </trkpt>
      <trkpt lat="44.60602" lon="5.99582">
        <ele>1298.6</ele>
        <time>2023-05-15T09:28:04Z</time>
      </trkpt>
      <trkpt lat="44.60602" lon="5.99582">
        <ele>1298.8</ele>
        <time>2023-05-15T09:28:05Z</time>
      </trkpt>
      <trkpt lat="44.60602" lon="5.99582">
        <ele>1299</ele>
        <time>2023-05-15T09:28:06Z</time>
      </trkpt>
      <trkpt lat="44.60602" lon="5.99582">
        <ele>1299.2</ele>
        <time>2023-05-15T09:28:11Z</time>
      </trkpt>
      <trkpt lat="44.60602" lon="5.99582">
        <ele>1299.2</ele>
        <time>2023-05-15T09:28:12Z</time>
      </trkpt>
      <trkpt lat="44.60602" lon="5.99582">
        <ele>1299.2</ele>
        <time>2023-05-15T09:28:13Z</time>
      </trkpt>
      <trkpt lat="44.60605" lon="5.99578">
        <ele>1299.2</ele>
        <time>2023-05-15T09:28:15Z</time>
      </trkpt>
      <trkpt lat="44.60607" lon="5.99578">
        <ele>1299.4</ele>
        <time>2023-05-15T09:28:16Z</time>
      </trkpt>
      <trkpt lat="44.60608" lon="5.99579">
        <ele>1299.4</ele>
        <time>2023-05-15T09:28:17Z</time>
      </trkpt>
      <trkpt lat="44.6061" lon="5.99582">
        <ele>1299.4</ele>
        <time>2023-05-15T09:28:18Z</time>
      </trkpt>
      <trkpt lat="44.60611" lon="5.99585">
        <ele>1299.4</ele>
        <time>2023-05-15T09:28:19Z</time>
      </trkpt>
      <trkpt lat="44.60613" lon="5.99586">
        <ele>1299.2</ele>
        <time>2023-05-15T09:28:20Z</time>
      </trkpt>
      <trkpt lat="44.60615" lon="5.99588">
        <ele>1299</ele>
        <time>2023-05-15T09:28:21Z</time>
      </trkpt>
      <trkpt lat="44.60616" lon="5.99589">
        <ele>1299</ele>
        <time>2023-05-15T09:28:22Z</time>
      </trkpt>
      <trkpt lat="44.60618" lon="5.99588">
        <ele>1298.8</ele>
        <time>2023-05-15T09:28:23Z</time>
      </trkpt>
      <trkpt lat="44.6062" lon="5.9959">
        <ele>1298.2</ele>
        <time>2023-05-15T09:28:24Z</time>
      </trkpt>
      <trkpt lat="44.60621" lon="5.9959">
        <ele>1297.4</ele>
        <time>2023-05-15T09:28:25Z</time>
      </trkpt>
      <trkpt lat="44.60621" lon="5.9959">
        <ele>1297</ele>
        <time>2023-05-15T09:28:26Z</time>
      </trkpt>
      <trkpt lat="44.60621" lon="5.9959">
        <ele>1296.8</ele>
        <time>2023-05-15T09:28:27Z</time>
      </trkpt>
      <trkpt lat="44.60622" lon="5.9959">
        <ele>1296.4</ele>
        <time>2023-05-15T09:28:28Z</time>
      </trkpt>
      <trkpt lat="44.60624" lon="5.9959">
        <ele>1295.8</ele>
        <time>2023-05-15T09:28:29Z</time>
      </trkpt>
      <trkpt lat="44.60626" lon="5.99592">
        <ele>1295.4</ele>
        <time>2023-05-15T09:28:30Z</time>
      </trkpt>
      <trkpt lat="44.60628" lon="5.99591">
        <ele>1295.2</ele>
        <time>2023-05-15T09:28:31Z</time>
      </trkpt>
      <trkpt lat="44.60633" lon="5.99592">
        <ele>1294.8</ele>
        <time>2023-05-15T09:28:33Z</time>
      </trkpt>
      <trkpt lat="44.6064" lon="5.9959">
        <ele>1294.6</ele>
        <time>2023-05-15T09:28:36Z</time>
      </trkpt>
      <trkpt lat="44.60642" lon="5.9959">
        <ele>1294.4</ele>
        <time>2023-05-15T09:28:37Z</time>
      </trkpt>
      <trkpt lat="44.60643" lon="5.99589">
        <ele>1294.4</ele>
        <time>2023-05-15T09:28:38Z</time>
      </trkpt>
      <trkpt lat="44.60645" lon="5.99588">
        <ele>1294.4</ele>
        <time>2023-05-15T09:28:39Z</time>
      </trkpt>
      <trkpt lat="44.60648" lon="5.9959">
        <ele>1294.2</ele>
        <time>2023-05-15T09:28:40Z</time>
      </trkpt>
      <trkpt lat="44.60649" lon="5.9959">
        <ele>1294.2</ele>
        <time>2023-05-15T09:28:41Z</time>
      </trkpt>
      <trkpt lat="44.60649" lon="5.99588">
        <ele>1294.2</ele>
        <time>2023-05-15T09:28:42Z</time>
      </trkpt>
      <trkpt lat="44.6065" lon="5.99588">
        <ele>1294.2</ele>
        <time>2023-05-15T09:28:43Z</time>
      </trkpt>
      <trkpt lat="44.60651" lon="5.99588">
        <ele>1294.4</ele>
        <time>2023-05-15T09:28:44Z</time>
      </trkpt>
      <trkpt lat="44.60653" lon="5.99588">
        <ele>1294.4</ele>
        <time>2023-05-15T09:28:45Z</time>
      </trkpt>
      <trkpt lat="44.60654" lon="5.99587">
        <ele>1294.6</ele>
        <time>2023-05-15T09:28:46Z</time>
      </trkpt>
      <trkpt lat="44.60656" lon="5.99586">
        <ele>1294.6</ele>
        <time>2023-05-15T09:28:47Z</time>
      </trkpt>
      <trkpt lat="44.60661" lon="5.99581">
        <ele>1294.4</ele>
        <time>2023-05-15T09:28:49Z</time>
      </trkpt>
      <trkpt lat="44.60664" lon="5.9958">
        <ele>1294.6</ele>
        <time>2023-05-15T09:28:50Z</time>
      </trkpt>
      <trkpt lat="44.60666" lon="5.99583">
        <ele>1294.6</ele>
        <time>2023-05-15T09:28:51Z</time>
      </trkpt>
      <trkpt lat="44.60667" lon="5.99584">
        <ele>1294.6</ele>
        <time>2023-05-15T09:28:52Z</time>
      </trkpt>
      <trkpt lat="44.60667" lon="5.99585">
        <ele>1294.6</ele>
        <time>2023-05-15T09:28:53Z</time>
      </trkpt>
      <trkpt lat="44.60667" lon="5.99585">
        <ele>1294.2</ele>
        <time>2023-05-15T09:28:54Z</time>
      </trkpt>
      <trkpt lat="44.60667" lon="5.99585">
        <ele>1294.2</ele>
        <time>2023-05-15T09:28:55Z</time>
      </trkpt>
      <trkpt lat="44.60667" lon="5.99585">
        <ele>1294.2</ele>
        <time>2023-05-15T09:28:56Z</time>
      </trkpt>
      <trkpt lat="44.60667" lon="5.99585">
        <ele>1294</ele>
        <time>2023-05-15T09:28:57Z</time>
      </trkpt>
      <trkpt lat="44.60667" lon="5.99585">
        <ele>1294</ele>
        <time>2023-05-15T09:28:59Z</time>
      </trkpt>
      <trkpt lat="44.60667" lon="5.99587">
        <ele>1294</ele>
        <time>2023-05-15T09:29:00Z</time>
      </trkpt>
      <trkpt lat="44.60667" lon="5.99587">
        <ele>1293</ele>
        <time>2023-05-15T09:29:10Z</time>
      </trkpt>
      <trkpt lat="44.60667" lon="5.99587">
        <ele>1293.2</ele>
        <time>2023-05-15T09:29:25Z</time>
      </trkpt>
      <trkpt lat="44.60667" lon="5.99587">
        <ele>1293.2</ele>
        <time>2023-05-15T09:29:30Z</time>
      </trkpt>
      <trkpt lat="44.60667" lon="5.99587">
        <ele>1293.2</ele>
        <time>2023-05-15T09:29:50Z</time>
      </trkpt>
      <trkpt lat="44.60667" lon="5.99587">
        <ele>1293.2</ele>
        <time>2023-05-15T09:30:03Z</time>
      </trkpt>
      <trkpt lat="44.60667" lon="5.99587">
        <ele>1293.4</ele>
        <time>2023-05-15T09:30:11Z</time>
      </trkpt>
      <trkpt lat="44.60667" lon="5.99587">
        <ele>1294.2</ele>
        <time>2023-05-15T09:30:18Z</time>
      </trkpt>
      <trkpt lat="44.60668" lon="5.9959">
        <ele>1294.2</ele>
        <time>2023-05-15T09:30:22Z</time>
      </trkpt>
      <trkpt lat="44.6067" lon="5.99595">
        <ele>1294.2</ele>
        <time>2023-05-15T09:30:23Z</time>
      </trkpt>
      <trkpt lat="44.60675" lon="5.996">
        <ele>1294.2</ele>
        <time>2023-05-15T09:30:25Z</time>
      </trkpt>
      <trkpt lat="44.60678" lon="5.99601">
        <ele>1294.2</ele>
        <time>2023-05-15T09:30:26Z</time>
      </trkpt>
      <trkpt lat="44.60679" lon="5.996">
        <ele>1294.2</ele>
        <time>2023-05-15T09:30:27Z</time>
      </trkpt>
      <trkpt lat="44.60691" lon="5.99594">
        <ele>1293.4</ele>
        <time>2023-05-15T09:30:33Z</time>
      </trkpt>
      <trkpt lat="44.60692" lon="5.99593">
        <ele>1293.2</ele>
        <time>2023-05-15T09:30:34Z</time>
      </trkpt>
      <trkpt lat="44.60697" lon="5.9959">
        <ele>1292.6</ele>
        <time>2023-05-15T09:30:36Z</time>
      </trkpt>
      <trkpt lat="44.60698" lon="5.99588">
        <ele>1292.4</ele>
        <time>2023-05-15T09:30:37Z</time>
      </trkpt>
      <trkpt lat="44.60699" lon="5.99586">
        <ele>1292.2</ele>
        <time>2023-05-15T09:30:38Z</time>
      </trkpt>
      <trkpt lat="44.60701" lon="5.99584">
        <ele>1292</ele>
        <time>2023-05-15T09:30:39Z</time>
      </trkpt>
      <trkpt lat="44.60701" lon="5.99581">
        <ele>1291.6</ele>
        <time>2023-05-15T09:30:40Z</time>
      </trkpt>
      <trkpt lat="44.60702" lon="5.99578">
        <ele>1291.4</ele>
        <time>2023-05-15T09:30:41Z</time>
      </trkpt>
      <trkpt lat="44.60703" lon="5.99577">
        <ele>1291.2</ele>
        <time>2023-05-15T09:30:42Z</time>
      </trkpt>
      <trkpt lat="44.60703" lon="5.99576">
        <ele>1291</ele>
        <time>2023-05-15T09:30:43Z</time>
      </trkpt>
      <trkpt lat="44.60703" lon="5.99576">
        <ele>1290</ele>
        <time>2023-05-15T09:30:47Z</time>
      </trkpt>
      <trkpt lat="44.60702" lon="5.99576">
        <ele>1289.8</ele>
        <time>2023-05-15T09:30:48Z</time>
      </trkpt>
      <trkpt lat="44.60702" lon="5.99576">
        <ele>1289.4</ele>
        <time>2023-05-15T09:30:49Z</time>
      </trkpt>
      <trkpt lat="44.60702" lon="5.99578">
        <ele>1289.4</ele>
        <time>2023-05-15T09:30:50Z</time>
      </trkpt>
      <trkpt lat="44.60701" lon="5.99579">
        <ele>1289</ele>
        <time>2023-05-15T09:30:52Z</time>
      </trkpt>
      <trkpt lat="44.607" lon="5.99579">
        <ele>1288.8</ele>
        <time>2023-05-15T09:30:53Z</time>
      </trkpt>
      <trkpt lat="44.60699" lon="5.99581">
        <ele>1287.8</ele>
        <time>2023-05-15T09:30:56Z</time>
      </trkpt>
      <trkpt lat="44.60699" lon="5.99581">
        <ele>1287.4</ele>
        <time>2023-05-15T09:30:57Z</time>
      </trkpt>
      <trkpt lat="44.60693" lon="5.99584">
        <ele>1287</ele>
        <time>2023-05-15T09:31:02Z</time>
      </trkpt>
      <trkpt lat="44.60691" lon="5.99585">
        <ele>1287</ele>
        <time>2023-05-15T09:31:03Z</time>
      </trkpt>
      <trkpt lat="44.60689" lon="5.99585">
        <ele>1286.8</ele>
        <time>2023-05-15T09:31:04Z</time>
      </trkpt>
      <trkpt lat="44.60687" lon="5.99586">
        <ele>1286.6</ele>
        <time>2023-05-15T09:31:05Z</time>
      </trkpt>
      <trkpt lat="44.60686" lon="5.99587">
        <ele>1286.4</ele>
        <time>2023-05-15T09:31:06Z</time>
      </trkpt>
      <trkpt lat="44.60682" lon="5.99587">
        <ele>1284.6</ele>
        <time>2023-05-15T09:31:08Z</time>
      </trkpt>
      <trkpt lat="44.6068" lon="5.99586">
        <ele>1284.4</ele>
        <time>2023-05-15T09:31:09Z</time>
      </trkpt>
      <trkpt lat="44.60678" lon="5.99584">
        <ele>1283.8</ele>
        <time>2023-05-15T09:31:10Z</time>
      </trkpt>
      <trkpt lat="44.60678" lon="5.99584">
        <ele>1283.6</ele>
        <time>2023-05-15T09:31:11Z</time>
      </trkpt>
      <trkpt lat="44.60678" lon="5.99584">
        <ele>1283.2</ele>
        <time>2023-05-15T09:31:12Z</time>
      </trkpt>
      <trkpt lat="44.60678" lon="5.99584">
        <ele>1283</ele>
        <time>2023-05-15T09:31:13Z</time>
      </trkpt>
      <trkpt lat="44.60679" lon="5.99584">
        <ele>1282.8</ele>
        <time>2023-05-15T09:31:14Z</time>
      </trkpt>
      <trkpt lat="44.6068" lon="5.99583">
        <ele>1282.4</ele>
        <time>2023-05-15T09:31:15Z</time>
      </trkpt>
      <trkpt lat="44.60682" lon="5.99581">
        <ele>1281.6</ele>
        <time>2023-05-15T09:31:17Z</time>
      </trkpt>
      <trkpt lat="44.60682" lon="5.9958">
        <ele>1281.4</ele>
        <time>2023-05-15T09:31:18Z</time>
      </trkpt>
      <trkpt lat="44.60684" lon="5.99579">
        <ele>1281</ele>
        <time>2023-05-15T09:31:19Z</time>
      </trkpt>
      <trkpt lat="44.60685" lon="5.99577">
        <ele>1280.8</ele>
        <time>2023-05-15T09:31:20Z</time>
      </trkpt>
      <trkpt lat="44.60687" lon="5.99575">
        <ele>1280</ele>
        <time>2023-05-15T09:31:21Z</time>
      </trkpt>
      <trkpt lat="44.60688" lon="5.99572">
        <ele>1279.8</ele>
        <time>2023-05-15T09:31:22Z</time>
      </trkpt>
      <trkpt lat="44.60691" lon="5.99569">
        <ele>1278.6</ele>
        <time>2023-05-15T09:31:25Z</time>
      </trkpt>
      <trkpt lat="44.60691" lon="5.99569">
        <ele>1278</ele>
        <time>2023-05-15T09:31:26Z</time>
      </trkpt>
      <trkpt lat="44.60691" lon="5.99569">
        <ele>1278</ele>
        <time>2023-05-15T09:31:27Z</time>
      </trkpt>
      <trkpt lat="44.60692" lon="5.99567">
        <ele>1277.6</ele>
        <time>2023-05-15T09:31:29Z</time>
      </trkpt>
      <trkpt lat="44.60692" lon="5.99567">
        <ele>1277.2</ele>
        <time>2023-05-15T09:31:30Z</time>
      </trkpt>
      <trkpt lat="44.60695" lon="5.99564">
        <ele>1277.2</ele>
        <time>2023-05-15T09:31:33Z</time>
      </trkpt>
      <trkpt lat="44.60696" lon="5.99564">
        <ele>1277</ele>
        <time>2023-05-15T09:31:34Z</time>
      </trkpt>
      <trkpt lat="44.60696" lon="5.99563">
        <ele>1277</ele>
        <time>2023-05-15T09:31:35Z</time>
      </trkpt>
      <trkpt lat="44.60697" lon="5.9956">
        <ele>1276.8</ele>
        <time>2023-05-15T09:31:41Z</time>
      </trkpt>
      <trkpt lat="44.60701" lon="5.99556">
        <ele>1276.6</ele>
        <time>2023-05-15T09:31:44Z</time>
      </trkpt>
      <trkpt lat="44.60704" lon="5.99553">
        <ele>1276.4</ele>
        <time>2023-05-15T09:31:46Z</time>
      </trkpt>
      <trkpt lat="44.60706" lon="5.99552">
        <ele>1276.4</ele>
        <time>2023-05-15T09:31:47Z</time>
      </trkpt>
      <trkpt lat="44.60707" lon="5.99552">
        <ele>1276</ele>
        <time>2023-05-15T09:31:48Z</time>
      </trkpt>
      <trkpt lat="44.60707" lon="5.99551">
        <ele>1275.6</ele>
        <time>2023-05-15T09:31:49Z</time>
      </trkpt>
      <trkpt lat="44.60708" lon="5.99551">
        <ele>1275.2</ele>
        <time>2023-05-15T09:31:50Z</time>
      </trkpt>
      <trkpt lat="44.60711" lon="5.99549">
        <ele>1274.4</ele>
        <time>2023-05-15T09:31:52Z</time>
      </trkpt>
      <trkpt lat="44.60713" lon="5.99548">
        <ele>1274</ele>
        <time>2023-05-15T09:31:54Z</time>
      </trkpt>
      <trkpt lat="44.60713" lon="5.99548">
        <ele>1273</ele>
        <time>2023-05-15T09:31:58Z</time>
      </trkpt>
      <trkpt lat="44.60711" lon="5.99545">
        <ele>1271.8</ele>
        <time>2023-05-15T09:32:02Z</time>
      </trkpt>
      <trkpt lat="44.6071" lon="5.99546">
        <ele>1271.8</ele>
        <time>2023-05-15T09:32:03Z</time>
      </trkpt>
      <trkpt lat="44.60709" lon="5.99547">
        <ele>1270.8</ele>
        <time>2023-05-15T09:32:07Z</time>
      </trkpt>
      <trkpt lat="44.60707" lon="5.99547">
        <ele>1270.4</ele>
        <time>2023-05-15T09:32:08Z</time>
      </trkpt>
      <trkpt lat="44.60696" lon="5.9955">
        <ele>1269.2</ele>
        <time>2023-05-15T09:32:13Z</time>
      </trkpt>
      <trkpt lat="44.60695" lon="5.99551">
        <ele>1269.2</ele>
        <time>2023-05-15T09:32:14Z</time>
      </trkpt>
      <trkpt lat="44.60693" lon="5.99551">
        <ele>1268.6</ele>
        <time>2023-05-15T09:32:15Z</time>
      </trkpt>
      <trkpt lat="44.60692" lon="5.99552">
        <ele>1268.6</ele>
        <time>2023-05-15T09:32:16Z</time>
      </trkpt>
      <trkpt lat="44.60692" lon="5.99552">
        <ele>1267.8</ele>
        <time>2023-05-15T09:32:18Z</time>
      </trkpt>
      <trkpt lat="44.60692" lon="5.99552">
        <ele>1266.6</ele>
        <time>2023-05-15T09:32:22Z</time>
      </trkpt>
      <trkpt lat="44.60692" lon="5.99552">
        <ele>1266</ele>
        <time>2023-05-15T09:32:29Z</time>
      </trkpt>
      <trkpt lat="44.60692" lon="5.99552">
        <ele>1265.6</ele>
        <time>2023-05-15T09:33:02Z</time>
      </trkpt>
      <trkpt lat="44.60692" lon="5.99552">
        <ele>1265.6</ele>
        <time>2023-05-15T09:33:07Z</time>
      </trkpt>
      <trkpt lat="44.60692" lon="5.99552">
        <ele>1265.4</ele>
        <time>2023-05-15T09:33:23Z</time>
      </trkpt>
      <trkpt lat="44.60692" lon="5.99552">
        <ele>1265.2</ele>
        <time>2023-05-15T09:33:31Z</time>
      </trkpt>
      <trkpt lat="44.60692" lon="5.99552">
        <ele>1265.2</ele>
        <time>2023-05-15T09:33:43Z</time>
      </trkpt>
      <trkpt lat="44.60691" lon="5.99553">
        <ele>1265.2</ele>
        <time>2023-05-15T09:33:45Z</time>
      </trkpt>
      <trkpt lat="44.60689" lon="5.99555">
        <ele>1265</ele>
        <time>2023-05-15T09:33:46Z</time>
      </trkpt>
      <trkpt lat="44.60685" lon="5.99558">
        <ele>1264.8</ele>
        <time>2023-05-15T09:33:49Z</time>
      </trkpt>
      <trkpt lat="44.60685" lon="5.99558">
        <ele>1264.8</ele>
        <time>2023-05-15T09:33:50Z</time>
      </trkpt>
      <trkpt lat="44.60685" lon="5.99558">
        <ele>1264.6</ele>
        <time>2023-05-15T09:33:51Z</time>
      </trkpt>
      <trkpt lat="44.60685" lon="5.99557">
        <ele>1264.4</ele>
        <time>2023-05-15T09:33:52Z</time>
      </trkpt>
      <trkpt lat="44.60685" lon="5.99557">
        <ele>1264.2</ele>
        <time>2023-05-15T09:33:53Z</time>
      </trkpt>
      <trkpt lat="44.60685" lon="5.99556">
        <ele>1264</ele>
        <time>2023-05-15T09:33:54Z</time>
      </trkpt>
      <trkpt lat="44.60685" lon="5.99555">
        <ele>1263.8</ele>
        <time>2023-05-15T09:33:55Z</time>
      </trkpt>
      <trkpt lat="44.60686" lon="5.99552">
        <ele>1263.6</ele>
        <time>2023-05-15T09:33:57Z</time>
      </trkpt>
      <trkpt lat="44.60686" lon="5.99552">
        <ele>1263.6</ele>
        <time>2023-05-15T09:33:58Z</time>
      </trkpt>
      <trkpt lat="44.60686" lon="5.99552">
        <ele>1263.4</ele>
        <time>2023-05-15T09:33:59Z</time>
      </trkpt>
      <trkpt lat="44.60687" lon="5.9955">
        <ele>1263</ele>
        <time>2023-05-15T09:34:01Z</time>
      </trkpt>
      <trkpt lat="44.6069" lon="5.99542">
        <ele>1262.8</ele>
        <time>2023-05-15T09:34:04Z</time>
      </trkpt>
      <trkpt lat="44.60691" lon="5.9954">
        <ele>1262.8</ele>
        <time>2023-05-15T09:34:05Z</time>
      </trkpt>
      <trkpt lat="44.60693" lon="5.99538">
        <ele>1262.8</ele>
        <time>2023-05-15T09:34:06Z</time>
      </trkpt>
      <trkpt lat="44.60696" lon="5.99536">
        <ele>1262.6</ele>
        <time>2023-05-15T09:34:07Z</time>
      </trkpt>
      <trkpt lat="44.60698" lon="5.99535">
        <ele>1262.4</ele>
        <time>2023-05-15T09:34:08Z</time>
      </trkpt>
      <trkpt lat="44.60701" lon="5.99534">
        <ele>1262.2</ele>
        <time>2023-05-15T09:34:09Z</time>
      </trkpt>
      <trkpt lat="44.60704" lon="5.99533">
        <ele>1261.8</ele>
        <time>2023-05-15T09:34:10Z</time>
      </trkpt>
      <trkpt lat="44.60706" lon="5.99531">
        <ele>1261.6</ele>
        <time>2023-05-15T09:34:11Z</time>
      </trkpt>
      <trkpt lat="44.60716" lon="5.99525">
        <ele>1260.2</ele>
        <time>2023-05-15T09:34:15Z</time>
      </trkpt>
      <trkpt lat="44.6072" lon="5.99523">
        <ele>1259.4</ele>
        <time>2023-05-15T09:34:17Z</time>
      </trkpt>
      <trkpt lat="44.60723" lon="5.99522">
        <ele>1259.4</ele>
        <time>2023-05-15T09:34:18Z</time>
      </trkpt>
      <trkpt lat="44.60725" lon="5.9952">
        <ele>1259.2</ele>
        <time>2023-05-15T09:34:19Z</time>
      </trkpt>
      <trkpt lat="44.60727" lon="5.99516">
        <ele>1259</ele>
        <time>2023-05-15T09:34:20Z</time>
      </trkpt>
      <trkpt lat="44.60729" lon="5.99513">
        <ele>1258.8</ele>
        <time>2023-05-15T09:34:21Z</time>
      </trkpt>
      <trkpt lat="44.60732" lon="5.99509">
        <ele>1258.6</ele>
        <time>2023-05-15T09:34:22Z</time>
      </trkpt>
      <trkpt lat="44.60737" lon="5.99505">
        <ele>1257.8</ele>
        <time>2023-05-15T09:34:24Z</time>
      </trkpt>
      <trkpt lat="44.6074" lon="5.99504">
        <ele>1257.6</ele>
        <time>2023-05-15T09:34:25Z</time>
      </trkpt>
      <trkpt lat="44.60742" lon="5.99502">
        <ele>1257.4</ele>
        <time>2023-05-15T09:34:26Z</time>
      </trkpt>
      <trkpt lat="44.60744" lon="5.99501">
        <ele>1257.2</ele>
        <time>2023-05-15T09:34:27Z</time>
      </trkpt>
      <trkpt lat="44.60748" lon="5.99497">
        <ele>1257</ele>
        <time>2023-05-15T09:34:29Z</time>
      </trkpt>
      <trkpt lat="44.60749" lon="5.99495">
        <ele>1256.6</ele>
        <time>2023-05-15T09:34:30Z</time>
      </trkpt>
      <trkpt lat="44.60751" lon="5.99493">
        <ele>1256.4</ele>
        <time>2023-05-15T09:34:31Z</time>
      </trkpt>
      <trkpt lat="44.60752" lon="5.99491">
        <ele>1256.2</ele>
        <time>2023-05-15T09:34:32Z</time>
      </trkpt>
      <trkpt lat="44.60753" lon="5.9949">
        <ele>1256</ele>
        <time>2023-05-15T09:34:33Z</time>
      </trkpt>
      <trkpt lat="44.60754" lon="5.99488">
        <ele>1256</ele>
        <time>2023-05-15T09:34:34Z</time>
      </trkpt>
      <trkpt lat="44.60755" lon="5.99486">
        <ele>1255.8</ele>
        <time>2023-05-15T09:34:35Z</time>
      </trkpt>
      <trkpt lat="44.60756" lon="5.99483">
        <ele>1255.6</ele>
        <time>2023-05-15T09:34:36Z</time>
      </trkpt>
      <trkpt lat="44.60762" lon="5.99473">
        <ele>1254.2</ele>
        <time>2023-05-15T09:34:39Z</time>
      </trkpt>
      <trkpt lat="44.60764" lon="5.9947">
        <ele>1253.8</ele>
        <time>2023-05-15T09:34:40Z</time>
      </trkpt>
      <trkpt lat="44.60769" lon="5.99463">
        <ele>1253.4</ele>
        <time>2023-05-15T09:34:42Z</time>
      </trkpt>
      <trkpt lat="44.60771" lon="5.99459">
        <ele>1253.2</ele>
        <time>2023-05-15T09:34:43Z</time>
      </trkpt>
      <trkpt lat="44.60773" lon="5.99457">
        <ele>1253</ele>
        <time>2023-05-15T09:34:44Z</time>
      </trkpt>
      <trkpt lat="44.60774" lon="5.99455">
        <ele>1252.8</ele>
        <time>2023-05-15T09:34:45Z</time>
      </trkpt>
      <trkpt lat="44.60776" lon="5.99453">
        <ele>1252.6</ele>
        <time>2023-05-15T09:34:46Z</time>
      </trkpt>
      <trkpt lat="44.60777" lon="5.99451">
        <ele>1252.4</ele>
        <time>2023-05-15T09:34:47Z</time>
      </trkpt>
      <trkpt lat="44.60779" lon="5.99449">
        <ele>1252.4</ele>
        <time>2023-05-15T09:34:48Z</time>
      </trkpt>
      <trkpt lat="44.60782" lon="5.99446">
        <ele>1252.4</ele>
        <time>2023-05-15T09:34:50Z</time>
      </trkpt>
      <trkpt lat="44.60783" lon="5.99444">
        <ele>1252.4</ele>
        <time>2023-05-15T09:34:51Z</time>
      </trkpt>
      <trkpt lat="44.60784" lon="5.99442">
        <ele>1252.4</ele>
        <time>2023-05-15T09:34:52Z</time>
      </trkpt>
      <trkpt lat="44.60785" lon="5.9944">
        <ele>1252.4</ele>
        <time>2023-05-15T09:34:53Z</time>
      </trkpt>
      <trkpt lat="44.60786" lon="5.99438">
        <ele>1252.6</ele>
        <time>2023-05-15T09:34:54Z</time>
      </trkpt>
      <trkpt lat="44.60787" lon="5.99435">
        <ele>1252.8</ele>
        <time>2023-05-15T09:34:55Z</time>
      </trkpt>
      <trkpt lat="44.60789" lon="5.99433">
        <ele>1252.8</ele>
        <time>2023-05-15T09:34:56Z</time>
      </trkpt>
      <trkpt lat="44.6079" lon="5.9943">
        <ele>1253</ele>
        <time>2023-05-15T09:34:57Z</time>
      </trkpt>
      <trkpt lat="44.60792" lon="5.99428">
        <ele>1253</ele>
        <time>2023-05-15T09:34:58Z</time>
      </trkpt>
      <trkpt lat="44.60797" lon="5.99421">
        <ele>1253.2</ele>
        <time>2023-05-15T09:35:01Z</time>
      </trkpt>
      <trkpt lat="44.60798" lon="5.99419">
        <ele>1253.2</ele>
        <time>2023-05-15T09:35:02Z</time>
      </trkpt>
      <trkpt lat="44.608" lon="5.99418">
        <ele>1253.2</ele>
        <time>2023-05-15T09:35:03Z</time>
      </trkpt>
      <trkpt lat="44.60801" lon="5.99416">
        <ele>1253.2</ele>
        <time>2023-05-15T09:35:04Z</time>
      </trkpt>
      <trkpt lat="44.60802" lon="5.99415">
        <ele>1253.4</ele>
        <time>2023-05-15T09:35:05Z</time>
      </trkpt>
      <trkpt lat="44.60803" lon="5.99413">
        <ele>1253.4</ele>
        <time>2023-05-15T09:35:06Z</time>
      </trkpt>
      <trkpt lat="44.60803" lon="5.99411">
        <ele>1253.4</ele>
        <time>2023-05-15T09:35:07Z</time>
      </trkpt>
      <trkpt lat="44.60805" lon="5.99408">
        <ele>1253.4</ele>
        <time>2023-05-15T09:35:08Z</time>
      </trkpt>
      <trkpt lat="44.60811" lon="5.994">
        <ele>1253.4</ele>
        <time>2023-05-15T09:35:10Z</time>
      </trkpt>
      <trkpt lat="44.60814" lon="5.99396">
        <ele>1253.4</ele>
        <time>2023-05-15T09:35:11Z</time>
      </trkpt>
      <trkpt lat="44.60817" lon="5.99392">
        <ele>1253.2</ele>
        <time>2023-05-15T09:35:12Z</time>
      </trkpt>
      <trkpt lat="44.60824" lon="5.99383">
        <ele>1252.4</ele>
        <time>2023-05-15T09:35:14Z</time>
      </trkpt>
      <trkpt lat="44.60828" lon="5.99379">
        <ele>1252.2</ele>
        <time>2023-05-15T09:35:15Z</time>
      </trkpt>
      <trkpt lat="44.60837" lon="5.9937">
        <ele>1251.4</ele>
        <time>2023-05-15T09:35:17Z</time>
      </trkpt>
      <trkpt lat="44.60842" lon="5.99367">
        <ele>1251</ele>
        <time>2023-05-15T09:35:18Z</time>
      </trkpt>
      <trkpt lat="44.60846" lon="5.99365">
        <ele>1251</ele>
        <time>2023-05-15T09:35:19Z</time>
      </trkpt>
      <trkpt lat="44.6085" lon="5.99363">
        <ele>1250.6</ele>
        <time>2023-05-15T09:35:20Z</time>
      </trkpt>
      <trkpt lat="44.60853" lon="5.99363">
        <ele>1250.4</ele>
        <time>2023-05-15T09:35:21Z</time>
      </trkpt>
      <trkpt lat="44.60856" lon="5.99363">
        <ele>1250.2</ele>
        <time>2023-05-15T09:35:22Z</time>
      </trkpt>
      <trkpt lat="44.60858" lon="5.99362">
        <ele>1250</ele>
        <time>2023-05-15T09:35:23Z</time>
      </trkpt>
      <trkpt lat="44.6086" lon="5.99359">
        <ele>1250</ele>
        <time>2023-05-15T09:35:24Z</time>
      </trkpt>
      <trkpt lat="44.60862" lon="5.99356">
        <ele>1250</ele>
        <time>2023-05-15T09:35:25Z</time>
      </trkpt>
      <trkpt lat="44.60873" lon="5.99334">
        <ele>1249.8</ele>
        <time>2023-05-15T09:35:31Z</time>
      </trkpt>
      <trkpt lat="44.6088" lon="5.99319">
        <ele>1249</ele>
        <time>2023-05-15T09:35:34Z</time>
      </trkpt>
      <trkpt lat="44.60884" lon="5.99308">
        <ele>1248.6</ele>
        <time>2023-05-15T09:35:36Z</time>
      </trkpt>
      <trkpt lat="44.60889" lon="5.99287">
        <ele>1247.8</ele>
        <time>2023-05-15T09:35:39Z</time>
      </trkpt>
      <trkpt lat="44.60891" lon="5.99282">
        <ele>1247</ele>
        <time>2023-05-15T09:35:40Z</time>
      </trkpt>
      <trkpt lat="44.60895" lon="5.99277">
        <ele>1246.4</ele>
        <time>2023-05-15T09:35:41Z</time>
      </trkpt>
      <trkpt lat="44.60898" lon="5.99273">
        <ele>1245.6</ele>
        <time>2023-05-15T09:35:42Z</time>
      </trkpt>
      <trkpt lat="44.60901" lon="5.99271">
        <ele>1244.6</ele>
        <time>2023-05-15T09:35:43Z</time>
      </trkpt>
      <trkpt lat="44.60903" lon="5.99268">
        <ele>1244.4</ele>
        <time>2023-05-15T09:35:44Z</time>
      </trkpt>
      <trkpt lat="44.60906" lon="5.99266">
        <ele>1244</ele>
        <time>2023-05-15T09:35:45Z</time>
      </trkpt>
      <trkpt lat="44.60908" lon="5.99264">
        <ele>1243.8</ele>
        <time>2023-05-15T09:35:46Z</time>
      </trkpt>
      <trkpt lat="44.60911" lon="5.99261">
        <ele>1243.4</ele>
        <time>2023-05-15T09:35:47Z</time>
      </trkpt>
      <trkpt lat="44.60916" lon="5.99253">
        <ele>1243</ele>
        <time>2023-05-15T09:35:50Z</time>
      </trkpt>
      <trkpt lat="44.60931" lon="5.99224">
        <ele>1242.8</ele>
        <time>2023-05-15T09:35:57Z</time>
      </trkpt>
      <trkpt lat="44.60933" lon="5.9922">
        <ele>1242.8</ele>
        <time>2023-05-15T09:35:58Z</time>
      </trkpt>
      <trkpt lat="44.6094" lon="5.99207">
        <ele>1242.2</ele>
        <time>2023-05-15T09:36:01Z</time>
      </trkpt>
      <trkpt lat="44.60944" lon="5.99197">
        <ele>1241.4</ele>
        <time>2023-05-15T09:36:03Z</time>
      </trkpt>
      <trkpt lat="44.60947" lon="5.99193">
        <ele>1241.2</ele>
        <time>2023-05-15T09:36:04Z</time>
      </trkpt>
      <trkpt lat="44.60952" lon="5.99183">
        <ele>1240</ele>
        <time>2023-05-15T09:36:06Z</time>
      </trkpt>
      <trkpt lat="44.60955" lon="5.99178">
        <ele>1239.6</ele>
        <time>2023-05-15T09:36:07Z</time>
      </trkpt>
      <trkpt lat="44.60958" lon="5.99174">
        <ele>1239</ele>
        <time>2023-05-15T09:36:08Z</time>
      </trkpt>
      <trkpt lat="44.6096" lon="5.99171">
        <ele>1238.8</ele>
        <time>2023-05-15T09:36:09Z</time>
      </trkpt>
      <trkpt lat="44.60961" lon="5.99168">
        <ele>1238.4</ele>
        <time>2023-05-15T09:36:10Z</time>
      </trkpt>
      <trkpt lat="44.60963" lon="5.99165">
        <ele>1238</ele>
        <time>2023-05-15T09:36:11Z</time>
      </trkpt>
      <trkpt lat="44.60965" lon="5.99161">
        <ele>1237.4</ele>
        <time>2023-05-15T09:36:12Z</time>
      </trkpt>
      <trkpt lat="44.60969" lon="5.99155">
        <ele>1236.4</ele>
        <time>2023-05-15T09:36:14Z</time>
      </trkpt>
      <trkpt lat="44.6097" lon="5.99151">
        <ele>1236</ele>
        <time>2023-05-15T09:36:15Z</time>
      </trkpt>
      <trkpt lat="44.60971" lon="5.99148">
        <ele>1235.8</ele>
        <time>2023-05-15T09:36:16Z</time>
      </trkpt>
      <trkpt lat="44.60972" lon="5.99145">
        <ele>1235.8</ele>
        <time>2023-05-15T09:36:17Z</time>
      </trkpt>
      <trkpt lat="44.60974" lon="5.99143">
        <ele>1235.6</ele>
        <time>2023-05-15T09:36:18Z</time>
      </trkpt>
      <trkpt lat="44.60975" lon="5.99141">
        <ele>1235.6</ele>
        <time>2023-05-15T09:36:19Z</time>
      </trkpt>
      <trkpt lat="44.60976" lon="5.99138">
        <ele>1235.6</ele>
        <time>2023-05-15T09:36:20Z</time>
      </trkpt>
      <trkpt lat="44.60977" lon="5.99135">
        <ele>1235.4</ele>
        <time>2023-05-15T09:36:21Z</time>
      </trkpt>
      <trkpt lat="44.60977" lon="5.99131">
        <ele>1235.4</ele>
        <time>2023-05-15T09:36:22Z</time>
      </trkpt>
      <trkpt lat="44.60978" lon="5.99127">
        <ele>1235.4</ele>
        <time>2023-05-15T09:36:23Z</time>
      </trkpt>
      <trkpt lat="44.6098" lon="5.99117">
        <ele>1235.4</ele>
        <time>2023-05-15T09:36:25Z</time>
      </trkpt>
      <trkpt lat="44.60983" lon="5.99108">
        <ele>1234.8</ele>
        <time>2023-05-15T09:36:27Z</time>
      </trkpt>
      <trkpt lat="44.60985" lon="5.99103">
        <ele>1233.8</ele>
        <time>2023-05-15T09:36:28Z</time>
      </trkpt>
      <trkpt lat="44.60987" lon="5.99098">
        <ele>1233.4</ele>
        <time>2023-05-15T09:36:29Z</time>
      </trkpt>
      <trkpt lat="44.60989" lon="5.99092">
        <ele>1232.6</ele>
        <time>2023-05-15T09:36:30Z</time>
      </trkpt>
      <trkpt lat="44.60991" lon="5.99086">
        <ele>1232.4</ele>
        <time>2023-05-15T09:36:31Z</time>
      </trkpt>
      <trkpt lat="44.60994" lon="5.9908">
        <ele>1231.2</ele>
        <time>2023-05-15T09:36:32Z</time>
      </trkpt>
      <trkpt lat="44.61001" lon="5.99069">
        <ele>1230.2</ele>
        <time>2023-05-15T09:36:34Z</time>
      </trkpt>
      <trkpt lat="44.61005" lon="5.99065">
        <ele>1229.6</ele>
        <time>2023-05-15T09:36:35Z</time>
      </trkpt>
      <trkpt lat="44.61008" lon="5.99061">
        <ele>1228.8</ele>
        <time>2023-05-15T09:36:36Z</time>
      </trkpt>
      <trkpt lat="44.61011" lon="5.99057">
        <ele>1228</ele>
        <time>2023-05-15T09:36:37Z</time>
      </trkpt>
      <trkpt lat="44.61014" lon="5.99052">
        <ele>1227.6</ele>
        <time>2023-05-15T09:36:38Z</time>
      </trkpt>
      <trkpt lat="44.61017" lon="5.99048">
        <ele>1226.8</ele>
        <time>2023-05-15T09:36:39Z</time>
      </trkpt>
      <trkpt lat="44.61021" lon="5.99044">
        <ele>1225.8</ele>
        <time>2023-05-15T09:36:40Z</time>
      </trkpt>
      <trkpt lat="44.61025" lon="5.99041">
        <ele>1224.4</ele>
        <time>2023-05-15T09:36:41Z</time>
      </trkpt>
      <trkpt lat="44.61034" lon="5.99036">
        <ele>1222.8</ele>
        <time>2023-05-15T09:36:43Z</time>
      </trkpt>
      <trkpt lat="44.61042" lon="5.99029">
        <ele>1221.6</ele>
        <time>2023-05-15T09:36:45Z</time>
      </trkpt>
      <trkpt lat="44.61046" lon="5.99027">
        <ele>1221</ele>
        <time>2023-05-15T09:36:46Z</time>
      </trkpt>
      <trkpt lat="44.61055" lon="5.99019">
        <ele>1220.2</ele>
        <time>2023-05-15T09:36:48Z</time>
      </trkpt>
      <trkpt lat="44.6107" lon="5.99004">
        <ele>1219.4</ele>
        <time>2023-05-15T09:36:52Z</time>
      </trkpt>
      <trkpt lat="44.61072" lon="5.99003">
        <ele>1219.2</ele>
        <time>2023-05-15T09:36:53Z</time>
      </trkpt>
      <trkpt lat="44.61075" lon="5.99004">
        <ele>1219.2</ele>
        <time>2023-05-15T09:36:54Z</time>
      </trkpt>
      <trkpt lat="44.61076" lon="5.99003">
        <ele>1219</ele>
        <time>2023-05-15T09:36:55Z</time>
      </trkpt>
      <trkpt lat="44.61078" lon="5.99003">
        <ele>1219</ele>
        <time>2023-05-15T09:36:56Z</time>
      </trkpt>
      <trkpt lat="44.61079" lon="5.99004">
        <ele>1219</ele>
        <time>2023-05-15T09:36:57Z</time>
      </trkpt>
      <trkpt lat="44.61082" lon="5.99003">
        <ele>1219.2</ele>
        <time>2023-05-15T09:36:59Z</time>
      </trkpt>
      <trkpt lat="44.61083" lon="5.99002">
        <ele>1219.4</ele>
        <time>2023-05-15T09:37:00Z</time>
      </trkpt>
      <trkpt lat="44.61085" lon="5.99002">
        <ele>1219.8</ele>
        <time>2023-05-15T09:37:01Z</time>
      </trkpt>
      <trkpt lat="44.61086" lon="5.99001">
        <ele>1220.4</ele>
        <time>2023-05-15T09:37:02Z</time>
      </trkpt>
      <trkpt lat="44.61086" lon="5.99001">
        <ele>1221</ele>
        <time>2023-05-15T09:37:03Z</time>
      </trkpt>
      <trkpt lat="44.61086" lon="5.99001">
        <ele>1222.2</ele>
        <time>2023-05-15T09:37:04Z</time>
      </trkpt>
      <trkpt lat="44.61086" lon="5.99001">
        <ele>1223.2</ele>
        <time>2023-05-15T09:37:07Z</time>
      </trkpt>
      <trkpt lat="44.61086" lon="5.99001">
        <ele>1223.6</ele>
        <time>2023-05-15T09:37:35Z</time>
      </trkpt>
      <trkpt lat="44.61086" lon="5.99001">
        <ele>1223.4</ele>
        <time>2023-05-15T09:38:14Z</time>
      </trkpt>
      <trkpt lat="44.61086" lon="5.99001">
        <ele>1224</ele>
        <time>2023-05-15T09:38:22Z</time>
      </trkpt>
      <trkpt lat="44.61086" lon="5.99001">
        <ele>1225.2</ele>
        <time>2023-05-15T09:38:54Z</time>
      </trkpt>
      <trkpt lat="44.61087" lon="5.99">
        <ele>1225.8</ele>
        <time>2023-05-15T09:39:02Z</time>
      </trkpt>
      <trkpt lat="44.61087" lon="5.99">
        <ele>1224.6</ele>
        <time>2023-05-15T09:39:06Z</time>
      </trkpt>
      <trkpt lat="44.61088" lon="5.98997">
        <ele>1224.4</ele>
        <time>2023-05-15T09:39:27Z</time>
      </trkpt>
      <trkpt lat="44.61089" lon="5.98991">
        <ele>1224.2</ele>
        <time>2023-05-15T09:39:30Z</time>
      </trkpt>
      <trkpt lat="44.61093" lon="5.98979">
        <ele>1223.8</ele>
        <time>2023-05-15T09:39:33Z</time>
      </trkpt>
      <trkpt lat="44.61094" lon="5.98974">
        <ele>1223.6</ele>
        <time>2023-05-15T09:39:34Z</time>
      </trkpt>
      <trkpt lat="44.61096" lon="5.98964">
        <ele>1222.8</ele>
        <time>2023-05-15T09:39:36Z</time>
      </trkpt>
      <trkpt lat="44.61099" lon="5.98954">
        <ele>1221.4</ele>
        <time>2023-05-15T09:39:38Z</time>
      </trkpt>
      <trkpt lat="44.61101" lon="5.98941">
        <ele>1220</ele>
        <time>2023-05-15T09:39:40Z</time>
      </trkpt>
      <trkpt lat="44.61101" lon="5.98928">
        <ele>1218.2</ele>
        <time>2023-05-15T09:39:42Z</time>
      </trkpt>
      <trkpt lat="44.61101" lon="5.98924">
        <ele>1217.6</ele>
        <time>2023-05-15T09:39:43Z</time>
      </trkpt>
      <trkpt lat="44.611" lon="5.9892">
        <ele>1216</ele>
        <time>2023-05-15T09:39:44Z</time>
      </trkpt>
      <trkpt lat="44.61101" lon="5.98917">
        <ele>1215</ele>
        <time>2023-05-15T09:39:45Z</time>
      </trkpt>
      <trkpt lat="44.61102" lon="5.98914">
        <ele>1213.4</ele>
        <time>2023-05-15T09:39:46Z</time>
      </trkpt>
      <trkpt lat="44.61102" lon="5.98911">
        <ele>1211.8</ele>
        <time>2023-05-15T09:39:47Z</time>
      </trkpt>
      <trkpt lat="44.61103" lon="5.98905">
        <ele>1209.8</ele>
        <time>2023-05-15T09:39:49Z</time>
      </trkpt>
      <trkpt lat="44.61103" lon="5.98902">
        <ele>1209</ele>
        <time>2023-05-15T09:39:50Z</time>
      </trkpt>
      <trkpt lat="44.61103" lon="5.989">
        <ele>1208.2</ele>
        <time>2023-05-15T09:39:51Z</time>
      </trkpt>
      <trkpt lat="44.61104" lon="5.98896">
        <ele>1207.8</ele>
        <time>2023-05-15T09:39:52Z</time>
      </trkpt>
      <trkpt lat="44.61104" lon="5.98891">
        <ele>1207.2</ele>
        <time>2023-05-15T09:39:53Z</time>
      </trkpt>
      <trkpt lat="44.61106" lon="5.98878">
        <ele>1206.4</ele>
        <time>2023-05-15T09:39:55Z</time>
      </trkpt>
      <trkpt lat="44.61106" lon="5.98873">
        <ele>1206</ele>
        <time>2023-05-15T09:39:56Z</time>
      </trkpt>
      <trkpt lat="44.61107" lon="5.98868">
        <ele>1206</ele>
        <time>2023-05-15T09:39:57Z</time>
      </trkpt>
      <trkpt lat="44.61108" lon="5.98864">
        <ele>1205.4</ele>
        <time>2023-05-15T09:39:58Z</time>
      </trkpt>
      <trkpt lat="44.61108" lon="5.98859">
        <ele>1205.2</ele>
        <time>2023-05-15T09:39:59Z</time>
      </trkpt>
      <trkpt lat="44.61109" lon="5.98852">
        <ele>1204</ele>
        <time>2023-05-15T09:40:00Z</time>
      </trkpt>
      <trkpt lat="44.6111" lon="5.98842">
        <ele>1202.2</ele>
        <time>2023-05-15T09:40:02Z</time>
      </trkpt>
      <trkpt lat="44.61111" lon="5.98836">
        <ele>1201.8</ele>
        <time>2023-05-15T09:40:03Z</time>
      </trkpt>
      <trkpt lat="44.61111" lon="5.98829">
        <ele>1200.2</ele>
        <time>2023-05-15T09:40:04Z</time>
      </trkpt>
      <trkpt lat="44.61112" lon="5.98823">
        <ele>1198.4</ele>
        <time>2023-05-15T09:40:05Z</time>
      </trkpt>
      <trkpt lat="44.61113" lon="5.98816">
        <ele>1198</ele>
        <time>2023-05-15T09:40:06Z</time>
      </trkpt>
      <trkpt lat="44.61115" lon="5.98809">
        <ele>1196.2</ele>
        <time>2023-05-15T09:40:07Z</time>
      </trkpt>
      <trkpt lat="44.61117" lon="5.98803">
        <ele>1195.6</ele>
        <time>2023-05-15T09:40:08Z</time>
      </trkpt>
      <trkpt lat="44.61118" lon="5.98801">
        <ele>1194.8</ele>
        <time>2023-05-15T09:40:09Z</time>
      </trkpt>
      <trkpt lat="44.61119" lon="5.98798">
        <ele>1194</ele>
        <time>2023-05-15T09:40:10Z</time>
      </trkpt>
      <trkpt lat="44.6112" lon="5.98796">
        <ele>1193</ele>
        <time>2023-05-15T09:40:11Z</time>
      </trkpt>
      <trkpt lat="44.61121" lon="5.98793">
        <ele>1192.6</ele>
        <time>2023-05-15T09:40:12Z</time>
      </trkpt>
      <trkpt lat="44.61125" lon="5.98792">
        <ele>1191.4</ele>
        <time>2023-05-15T09:40:14Z</time>
      </trkpt>
      <trkpt lat="44.61128" lon="5.98792">
        <ele>1190.8</ele>
        <time>2023-05-15T09:40:15Z</time>
      </trkpt>
      <trkpt lat="44.6113" lon="5.98792">
        <ele>1190.2</ele>
        <time>2023-05-15T09:40:16Z</time>
      </trkpt>
      <trkpt lat="44.61132" lon="5.98794">
        <ele>1189.8</ele>
        <time>2023-05-15T09:40:17Z</time>
      </trkpt>
      <trkpt lat="44.61135" lon="5.98795">
        <ele>1189.4</ele>
        <time>2023-05-15T09:40:18Z</time>
      </trkpt>
      <trkpt lat="44.61138" lon="5.98795">
        <ele>1189.2</ele>
        <time>2023-05-15T09:40:19Z</time>
      </trkpt>
      <trkpt lat="44.61142" lon="5.98795">
        <ele>1188.8</ele>
        <time>2023-05-15T09:40:20Z</time>
      </trkpt>
      <trkpt lat="44.61146" lon="5.98794">
        <ele>1188.4</ele>
        <time>2023-05-15T09:40:21Z</time>
      </trkpt>
      <trkpt lat="44.6115" lon="5.98793">
        <ele>1187.8</ele>
        <time>2023-05-15T09:40:22Z</time>
      </trkpt>
      <trkpt lat="44.61158" lon="5.98792">
        <ele>1186.4</ele>
        <time>2023-05-15T09:40:24Z</time>
      </trkpt>
      <trkpt lat="44.61161" lon="5.98789">
        <ele>1185.4</ele>
        <time>2023-05-15T09:40:25Z</time>
      </trkpt>
      <trkpt lat="44.61164" lon="5.98784">
        <ele>1185</ele>
        <time>2023-05-15T09:40:26Z</time>
      </trkpt>
      <trkpt lat="44.61168" lon="5.9878">
        <ele>1184.6</ele>
        <time>2023-05-15T09:40:27Z</time>
      </trkpt>
      <trkpt lat="44.61172" lon="5.98777">
        <ele>1184.6</ele>
        <time>2023-05-15T09:40:28Z</time>
      </trkpt>
      <trkpt lat="44.61175" lon="5.98774">
        <ele>1184.4</ele>
        <time>2023-05-15T09:40:29Z</time>
      </trkpt>
      <trkpt lat="44.61178" lon="5.98774">
        <ele>1184</ele>
        <time>2023-05-15T09:40:30Z</time>
      </trkpt>
      <trkpt lat="44.6118" lon="5.98772">
        <ele>1183.4</ele>
        <time>2023-05-15T09:40:31Z</time>
      </trkpt>
      <trkpt lat="44.61182" lon="5.9877">
        <ele>1182.8</ele>
        <time>2023-05-15T09:40:32Z</time>
      </trkpt>
      <trkpt lat="44.61184" lon="5.98767">
        <ele>1182.4</ele>
        <time>2023-05-15T09:40:33Z</time>
      </trkpt>
      <trkpt lat="44.61185" lon="5.98767">
        <ele>1181.4</ele>
        <time>2023-05-15T09:40:34Z</time>
      </trkpt>
      <trkpt lat="44.6119" lon="5.98764">
        <ele>1179.4</ele>
        <time>2023-05-15T09:40:36Z</time>
      </trkpt>
      <trkpt lat="44.61194" lon="5.98763">
        <ele>1178.8</ele>
        <time>2023-05-15T09:40:37Z</time>
      </trkpt>
      <trkpt lat="44.61197" lon="5.98762">
        <ele>1178</ele>
        <time>2023-05-15T09:40:38Z</time>
      </trkpt>
      <trkpt lat="44.61204" lon="5.98763">
        <ele>1177.2</ele>
        <time>2023-05-15T09:40:40Z</time>
      </trkpt>
      <trkpt lat="44.61208" lon="5.98765">
        <ele>1176.4</ele>
        <time>2023-05-15T09:40:41Z</time>
      </trkpt>
      <trkpt lat="44.61211" lon="5.98767">
        <ele>1176</ele>
        <time>2023-05-15T09:40:42Z</time>
      </trkpt>
      <trkpt lat="44.61214" lon="5.9877">
        <ele>1175.4</ele>
        <time>2023-05-15T09:40:43Z</time>
      </trkpt>
      <trkpt lat="44.61216" lon="5.98769">
        <ele>1175.2</ele>
        <time>2023-05-15T09:40:44Z</time>
      </trkpt>
      <trkpt lat="44.61218" lon="5.98768">
        <ele>1174.8</ele>
        <time>2023-05-15T09:40:45Z</time>
      </trkpt>
      <trkpt lat="44.61218" lon="5.98768">
        <ele>1174.4</ele>
        <time>2023-05-15T09:40:46Z</time>
      </trkpt>
      <trkpt lat="44.61218" lon="5.98768">
        <ele>1174</ele>
        <time>2023-05-15T09:40:47Z</time>
      </trkpt>
      <trkpt lat="44.61218" lon="5.98768">
        <ele>1173.4</ele>
        <time>2023-05-15T09:40:49Z</time>
      </trkpt>
      <trkpt lat="44.61219" lon="5.98766">
        <ele>1173</ele>
        <time>2023-05-15T09:40:53Z</time>
      </trkpt>
      <trkpt lat="44.61219" lon="5.98765">
        <ele>1173</ele>
        <time>2023-05-15T09:40:54Z</time>
      </trkpt>
      <trkpt lat="44.61219" lon="5.98764">
        <ele>1173</ele>
        <time>2023-05-15T09:40:55Z</time>
      </trkpt>
      <trkpt lat="44.61219" lon="5.98764">
        <ele>1173</ele>
        <time>2023-05-15T09:40:56Z</time>
      </trkpt>
      <trkpt lat="44.6122" lon="5.98764">
        <ele>1173.2</ele>
        <time>2023-05-15T09:40:57Z</time>
      </trkpt>
      <trkpt lat="44.6122" lon="5.98764">
        <ele>1173.2</ele>
        <time>2023-05-15T09:40:58Z</time>
      </trkpt>
      <trkpt lat="44.6122" lon="5.98763">
        <ele>1173.4</ele>
        <time>2023-05-15T09:40:59Z</time>
      </trkpt>
      <trkpt lat="44.61221" lon="5.98762">
        <ele>1173.8</ele>
        <time>2023-05-15T09:41:02Z</time>
      </trkpt>
      <trkpt lat="44.61221" lon="5.98762">
        <ele>1174</ele>
        <time>2023-05-15T09:41:03Z</time>
      </trkpt>
      <trkpt lat="44.61221" lon="5.98761">
        <ele>1174</ele>
        <time>2023-05-15T09:41:04Z</time>
      </trkpt>
      <trkpt lat="44.61221" lon="5.98761">
        <ele>1174.4</ele>
        <time>2023-05-15T09:41:05Z</time>
      </trkpt>
      <trkpt lat="44.61222" lon="5.9876">
        <ele>1174.6</ele>
        <time>2023-05-15T09:41:07Z</time>
      </trkpt>
      <trkpt lat="44.61222" lon="5.98761">
        <ele>1174.6</ele>
        <time>2023-05-15T09:41:08Z</time>
      </trkpt>
      <trkpt lat="44.61223" lon="5.9876">
        <ele>1174.8</ele>
        <time>2023-05-15T09:41:09Z</time>
      </trkpt>
      <trkpt lat="44.61224" lon="5.9876">
        <ele>1175</ele>
        <time>2023-05-15T09:41:10Z</time>
      </trkpt>
      <trkpt lat="44.61226" lon="5.98762">
        <ele>1175.8</ele>
        <time>2023-05-15T09:41:15Z</time>
      </trkpt>
      <trkpt lat="44.61227" lon="5.98762">
        <ele>1177</ele>
        <time>2023-05-15T09:41:21Z</time>
      </trkpt>
      <trkpt lat="44.61227" lon="5.98762">
        <ele>1177.2</ele>
        <time>2023-05-15T09:41:22Z</time>
      </trkpt>
      <trkpt lat="44.61227" lon="5.98761">
        <ele>1177.6</ele>
        <time>2023-05-15T09:41:24Z</time>
      </trkpt>
      <trkpt lat="44.61228" lon="5.9876">
        <ele>1177.6</ele>
        <time>2023-05-15T09:41:25Z</time>
      </trkpt>
      <trkpt lat="44.61229" lon="5.98759">
        <ele>1177.6</ele>
        <time>2023-05-15T09:41:26Z</time>
      </trkpt>
      <trkpt lat="44.61231" lon="5.98759">
        <ele>1177.6</ele>
        <time>2023-05-15T09:41:27Z</time>
      </trkpt>
      <trkpt lat="44.61232" lon="5.98759">
        <ele>1177.6</ele>
        <time>2023-05-15T09:41:28Z</time>
      </trkpt>
      <trkpt lat="44.61233" lon="5.98758">
        <ele>1177.6</ele>
        <time>2023-05-15T09:41:29Z</time>
      </trkpt>
      <trkpt lat="44.61234" lon="5.98758">
        <ele>1177.6</ele>
        <time>2023-05-15T09:41:30Z</time>
      </trkpt>
      <trkpt lat="44.61235" lon="5.98757">
        <ele>1177.6</ele>
        <time>2023-05-15T09:41:31Z</time>
      </trkpt>
      <trkpt lat="44.61236" lon="5.98757">
        <ele>1177.8</ele>
        <time>2023-05-15T09:41:32Z</time>
      </trkpt>
      <trkpt lat="44.61237" lon="5.98757">
        <ele>1177.8</ele>
        <time>2023-05-15T09:41:33Z</time>
      </trkpt>
      <trkpt lat="44.61238" lon="5.98757">
        <ele>1177.8</ele>
        <time>2023-05-15T09:41:34Z</time>
      </trkpt>
      <trkpt lat="44.61239" lon="5.98757">
        <ele>1177.8</ele>
        <time>2023-05-15T09:41:35Z</time>
      </trkpt>
      <trkpt lat="44.61239" lon="5.98757">
        <ele>1177.8</ele>
        <time>2023-05-15T09:41:36Z</time>
      </trkpt>
      <trkpt lat="44.61239" lon="5.98758">
        <ele>1177.8</ele>
        <time>2023-05-15T09:41:37Z</time>
      </trkpt>
      <trkpt lat="44.6124" lon="5.98759">
        <ele>1177.8</ele>
        <time>2023-05-15T09:41:38Z</time>
      </trkpt>
      <trkpt lat="44.61241" lon="5.98759">
        <ele>1178</ele>
        <time>2023-05-15T09:41:39Z</time>
      </trkpt>
      <trkpt lat="44.61242" lon="5.98759">
        <ele>1178</ele>
        <time>2023-05-15T09:41:40Z</time>
      </trkpt>
      <trkpt lat="44.61242" lon="5.9876">
        <ele>1178.2</ele>
        <time>2023-05-15T09:41:41Z</time>
      </trkpt>
      <trkpt lat="44.61243" lon="5.9876">
        <ele>1178.4</ele>
        <time>2023-05-15T09:41:42Z</time>
      </trkpt>
      <trkpt lat="44.61243" lon="5.9876">
        <ele>1178.4</ele>
        <time>2023-05-15T09:41:43Z</time>
      </trkpt>
      <trkpt lat="44.61244" lon="5.98761">
        <ele>1178.4</ele>
        <time>2023-05-15T09:41:44Z</time>
      </trkpt>
      <trkpt lat="44.61245" lon="5.98761">
        <ele>1178.6</ele>
        <time>2023-05-15T09:41:45Z</time>
      </trkpt>
      <trkpt lat="44.61247" lon="5.98763">
        <ele>1179</ele>
        <time>2023-05-15T09:41:48Z</time>
      </trkpt>
      <trkpt lat="44.61247" lon="5.98763">
        <ele>1179.2</ele>
        <time>2023-05-15T09:41:49Z</time>
      </trkpt>
      <trkpt lat="44.61248" lon="5.98763">
        <ele>1179.2</ele>
        <time>2023-05-15T09:41:50Z</time>
      </trkpt>
      <trkpt lat="44.61251" lon="5.98765">
        <ele>1179.8</ele>
        <time>2023-05-15T09:41:55Z</time>
      </trkpt>
      <trkpt lat="44.61255" lon="5.98766">
        <ele>1180</ele>
        <time>2023-05-15T09:41:59Z</time>
      </trkpt>
      <trkpt lat="44.61256" lon="5.98766">
        <ele>1180.2</ele>
        <time>2023-05-15T09:42:00Z</time>
      </trkpt>
      <trkpt lat="44.61257" lon="5.98767">
        <ele>1180.4</ele>
        <time>2023-05-15T09:42:01Z</time>
      </trkpt>
      <trkpt lat="44.61258" lon="5.98767">
        <ele>1180.4</ele>
        <time>2023-05-15T09:42:02Z</time>
      </trkpt>
      <trkpt lat="44.61259" lon="5.98767">
        <ele>1180.4</ele>
        <time>2023-05-15T09:42:03Z</time>
      </trkpt>
      <trkpt lat="44.61259" lon="5.98768">
        <ele>1180.6</ele>
        <time>2023-05-15T09:42:04Z</time>
      </trkpt>
      <trkpt lat="44.61259" lon="5.98768">
        <ele>1180.6</ele>
        <time>2023-05-15T09:42:05Z</time>
      </trkpt>
      <trkpt lat="44.6126" lon="5.98768">
        <ele>1181</ele>
        <time>2023-05-15T09:42:08Z</time>
      </trkpt>
      <trkpt lat="44.61261" lon="5.98769">
        <ele>1181.6</ele>
        <time>2023-05-15T09:42:13Z</time>
      </trkpt>
      <trkpt lat="44.61261" lon="5.98769">
        <ele>1181.6</ele>
        <time>2023-05-15T09:42:14Z</time>
      </trkpt>
      <trkpt lat="44.61261" lon="5.98769">
        <ele>1182.6</ele>
        <time>2023-05-15T09:42:22Z</time>
      </trkpt>
      <trkpt lat="44.61261" lon="5.98769">
        <ele>1183.2</ele>
        <time>2023-05-15T09:42:29Z</time>
      </trkpt>
      <trkpt lat="44.61262" lon="5.98769">
        <ele>1183.4</ele>
        <time>2023-05-15T09:42:30Z</time>
      </trkpt>
      <trkpt lat="44.61262" lon="5.98769">
        <ele>1183.4</ele>
        <time>2023-05-15T09:42:31Z</time>
      </trkpt>
      <trkpt lat="44.61264" lon="5.9877">
        <ele>1183.8</ele>
        <time>2023-05-15T09:42:33Z</time>
      </trkpt>
      <trkpt lat="44.61265" lon="5.98771">
        <ele>1184</ele>
        <time>2023-05-15T09:42:34Z</time>
      </trkpt>
      <trkpt lat="44.61265" lon="5.98771">
        <ele>1184.2</ele>
        <time>2023-05-15T09:42:35Z</time>
      </trkpt>
      <trkpt lat="44.61266" lon="5.98772">
        <ele>1184.2</ele>
        <time>2023-05-15T09:42:36Z</time>
      </trkpt>
      <trkpt lat="44.61266" lon="5.98772">
        <ele>1184.4</ele>
        <time>2023-05-15T09:42:37Z</time>
      </trkpt>
      <trkpt lat="44.61266" lon="5.98772">
        <ele>1184.4</ele>
        <time>2023-05-15T09:42:38Z</time>
      </trkpt>
      <trkpt lat="44.61266" lon="5.98772">
        <ele>1184.6</ele>
        <time>2023-05-15T09:42:39Z</time>
      </trkpt>
      <trkpt lat="44.61266" lon="5.98772">
        <ele>1184.6</ele>
        <time>2023-05-15T09:42:40Z</time>
      </trkpt>
      <trkpt lat="44.61266" lon="5.98772">
        <ele>1184.8</ele>
        <time>2023-05-15T09:42:41Z</time>
      </trkpt>
      <trkpt lat="44.61267" lon="5.98772">
        <ele>1184.8</ele>
        <time>2023-05-15T09:42:42Z</time>
      </trkpt>
      <trkpt lat="44.61267" lon="5.98772">
        <ele>1185.2</ele>
        <time>2023-05-15T09:42:43Z</time>
      </trkpt>
      <trkpt lat="44.61268" lon="5.98772">
        <ele>1185.4</ele>
        <time>2023-05-15T09:42:44Z</time>
      </trkpt>
      <trkpt lat="44.61269" lon="5.98773">
        <ele>1185.6</ele>
        <time>2023-05-15T09:42:45Z</time>
      </trkpt>
      <trkpt lat="44.6127" lon="5.98773">
        <ele>1185.6</ele>
        <time>2023-05-15T09:42:46Z</time>
      </trkpt>
      <trkpt lat="44.6127" lon="5.98773">
        <ele>1185.8</ele>
        <time>2023-05-15T09:42:47Z</time>
      </trkpt>
      <trkpt lat="44.61271" lon="5.98773">
        <ele>1186</ele>
        <time>2023-05-15T09:42:48Z</time>
      </trkpt>
      <trkpt lat="44.61272" lon="5.98774">
        <ele>1186.2</ele>
        <time>2023-05-15T09:42:49Z</time>
      </trkpt>
      <trkpt lat="44.61272" lon="5.98774">
        <ele>1186.2</ele>
        <time>2023-05-15T09:42:50Z</time>
      </trkpt>
      <trkpt lat="44.61272" lon="5.98774">
        <ele>1186.2</ele>
        <time>2023-05-15T09:42:51Z</time>
      </trkpt>
      <trkpt lat="44.61273" lon="5.98774">
        <ele>1186.4</ele>
        <time>2023-05-15T09:42:52Z</time>
      </trkpt>
      <trkpt lat="44.61273" lon="5.98774">
        <ele>1186.4</ele>
        <time>2023-05-15T09:42:53Z</time>
      </trkpt>
      <trkpt lat="44.61273" lon="5.98774">
        <ele>1186.6</ele>
        <time>2023-05-15T09:42:54Z</time>
      </trkpt>
      <trkpt lat="44.61274" lon="5.98774">
        <ele>1186.6</ele>
        <time>2023-05-15T09:42:55Z</time>
      </trkpt>
      <trkpt lat="44.61275" lon="5.98775">
        <ele>1186.8</ele>
        <time>2023-05-15T09:42:56Z</time>
      </trkpt>
      <trkpt lat="44.61276" lon="5.98775">
        <ele>1187</ele>
        <time>2023-05-15T09:42:57Z</time>
      </trkpt>
      <trkpt lat="44.61277" lon="5.98775">
        <ele>1187.2</ele>
        <time>2023-05-15T09:42:58Z</time>
      </trkpt>
      <trkpt lat="44.61278" lon="5.98775">
        <ele>1187.2</ele>
        <time>2023-05-15T09:42:59Z</time>
      </trkpt>
      <trkpt lat="44.61279" lon="5.98775">
        <ele>1187.2</ele>
        <time>2023-05-15T09:43:00Z</time>
      </trkpt>
      <trkpt lat="44.6128" lon="5.98774">
        <ele>1187.2</ele>
        <time>2023-05-15T09:43:01Z</time>
      </trkpt>
      <trkpt lat="44.6128" lon="5.98775">
        <ele>1187.2</ele>
        <time>2023-05-15T09:43:02Z</time>
      </trkpt>
      <trkpt lat="44.61281" lon="5.98775">
        <ele>1187.2</ele>
        <time>2023-05-15T09:43:03Z</time>
      </trkpt>
      <trkpt lat="44.61282" lon="5.98775">
        <ele>1187.2</ele>
        <time>2023-05-15T09:43:04Z</time>
      </trkpt>
      <trkpt lat="44.61283" lon="5.98775">
        <ele>1187.6</ele>
        <time>2023-05-15T09:43:05Z</time>
      </trkpt>
      <trkpt lat="44.61285" lon="5.98776">
        <ele>1187.6</ele>
        <time>2023-05-15T09:43:06Z</time>
      </trkpt>
      <trkpt lat="44.61286" lon="5.98776">
        <ele>1187.6</ele>
        <time>2023-05-15T09:43:07Z</time>
      </trkpt>
      <trkpt lat="44.61286" lon="5.98777">
        <ele>1187.6</ele>
        <time>2023-05-15T09:43:08Z</time>
      </trkpt>
      <trkpt lat="44.61287" lon="5.98777">
        <ele>1187.8</ele>
        <time>2023-05-15T09:43:09Z</time>
      </trkpt>
      <trkpt lat="44.61288" lon="5.98778">
        <ele>1188</ele>
        <time>2023-05-15T09:43:10Z</time>
      </trkpt>
      <trkpt lat="44.6129" lon="5.98779">
        <ele>1188</ele>
        <time>2023-05-15T09:43:12Z</time>
      </trkpt>
      <trkpt lat="44.6129" lon="5.98779">
        <ele>1188.2</ele>
        <time>2023-05-15T09:43:13Z</time>
      </trkpt>
      <trkpt lat="44.61291" lon="5.98779">
        <ele>1188.2</ele>
        <time>2023-05-15T09:43:14Z</time>
      </trkpt>
      <trkpt lat="44.61292" lon="5.9878">
        <ele>1188.2</ele>
        <time>2023-05-15T09:43:15Z</time>
      </trkpt>
      <trkpt lat="44.61292" lon="5.98781">
        <ele>1188.2</ele>
        <time>2023-05-15T09:43:16Z</time>
      </trkpt>
      <trkpt lat="44.61293" lon="5.98782">
        <ele>1188.2</ele>
        <time>2023-05-15T09:43:17Z</time>
      </trkpt>
      <trkpt lat="44.61293" lon="5.98782">
        <ele>1188.2</ele>
        <time>2023-05-15T09:43:18Z</time>
      </trkpt>
      <trkpt lat="44.61294" lon="5.98784">
        <ele>1188.2</ele>
        <time>2023-05-15T09:43:19Z</time>
      </trkpt>
      <trkpt lat="44.61295" lon="5.98786">
        <ele>1188.2</ele>
        <time>2023-05-15T09:43:21Z</time>
      </trkpt>
      <trkpt lat="44.61295" lon="5.98787">
        <ele>1188.2</ele>
        <time>2023-05-15T09:43:22Z</time>
      </trkpt>
      <trkpt lat="44.61296" lon="5.98787">
        <ele>1188.4</ele>
        <time>2023-05-15T09:43:23Z</time>
      </trkpt>
      <trkpt lat="44.61297" lon="5.98787">
        <ele>1188.6</ele>
        <time>2023-05-15T09:43:24Z</time>
      </trkpt>
      <trkpt lat="44.61297" lon="5.98788">
        <ele>1188.8</ele>
        <time>2023-05-15T09:43:25Z</time>
      </trkpt>
      <trkpt lat="44.61298" lon="5.98788">
        <ele>1189</ele>
        <time>2023-05-15T09:43:26Z</time>
      </trkpt>
      <trkpt lat="44.61298" lon="5.98789">
        <ele>1189.2</ele>
        <time>2023-05-15T09:43:27Z</time>
      </trkpt>
      <trkpt lat="44.61298" lon="5.9879">
        <ele>1189.4</ele>
        <time>2023-05-15T09:43:28Z</time>
      </trkpt>
      <trkpt lat="44.61299" lon="5.98791">
        <ele>1189.4</ele>
        <time>2023-05-15T09:43:29Z</time>
      </trkpt>
      <trkpt lat="44.61299" lon="5.98791">
        <ele>1190</ele>
        <time>2023-05-15T09:43:30Z</time>
      </trkpt>
      <trkpt lat="44.61299" lon="5.98791">
        <ele>1190.2</ele>
        <time>2023-05-15T09:43:31Z</time>
      </trkpt>
      <trkpt lat="44.61299" lon="5.98792">
        <ele>1190.6</ele>
        <time>2023-05-15T09:43:32Z</time>
      </trkpt>
      <trkpt lat="44.613" lon="5.98793">
        <ele>1190.8</ele>
        <time>2023-05-15T09:43:33Z</time>
      </trkpt>
      <trkpt lat="44.613" lon="5.98793">
        <ele>1191</ele>
        <time>2023-05-15T09:43:34Z</time>
      </trkpt>
      <trkpt lat="44.613" lon="5.98793">
        <ele>1191</ele>
        <time>2023-05-15T09:43:35Z</time>
      </trkpt>
      <trkpt lat="44.613" lon="5.98794">
        <ele>1191.2</ele>
        <time>2023-05-15T09:43:36Z</time>
      </trkpt>
      <trkpt lat="44.61301" lon="5.98795">
        <ele>1191.2</ele>
        <time>2023-05-15T09:43:37Z</time>
      </trkpt>
      <trkpt lat="44.61301" lon="5.98795">
        <ele>1191.4</ele>
        <time>2023-05-15T09:43:38Z</time>
      </trkpt>
      <trkpt lat="44.61302" lon="5.98795">
        <ele>1191.4</ele>
        <time>2023-05-15T09:43:39Z</time>
      </trkpt>
      <trkpt lat="44.61303" lon="5.98796">
        <ele>1191.6</ele>
        <time>2023-05-15T09:43:40Z</time>
      </trkpt>
      <trkpt lat="44.61304" lon="5.98797">
        <ele>1191.6</ele>
        <time>2023-05-15T09:43:41Z</time>
      </trkpt>
      <trkpt lat="44.61305" lon="5.98797">
        <ele>1191.6</ele>
        <time>2023-05-15T09:43:42Z</time>
      </trkpt>
      <trkpt lat="44.61306" lon="5.98797">
        <ele>1191.8</ele>
        <time>2023-05-15T09:43:43Z</time>
      </trkpt>
      <trkpt lat="44.61307" lon="5.98798">
        <ele>1191.8</ele>
        <time>2023-05-15T09:43:44Z</time>
      </trkpt>
      <trkpt lat="44.61308" lon="5.98799">
        <ele>1191.8</ele>
        <time>2023-05-15T09:43:45Z</time>
      </trkpt>
      <trkpt lat="44.61308" lon="5.98799">
        <ele>1191.8</ele>
        <time>2023-05-15T09:43:46Z</time>
      </trkpt>
      <trkpt lat="44.61309" lon="5.988">
        <ele>1191.8</ele>
        <time>2023-05-15T09:43:48Z</time>
      </trkpt>
      <trkpt lat="44.6131" lon="5.98801">
        <ele>1191.8</ele>
        <time>2023-05-15T09:43:49Z</time>
      </trkpt>
      <trkpt lat="44.61312" lon="5.98802">
        <ele>1191.8</ele>
        <time>2023-05-15T09:43:50Z</time>
      </trkpt>
      <trkpt lat="44.61315" lon="5.98803">
        <ele>1191.8</ele>
        <time>2023-05-15T09:43:51Z</time>
      </trkpt>
      <trkpt lat="44.61318" lon="5.98803">
        <ele>1191.8</ele>
        <time>2023-05-15T09:43:52Z</time>
      </trkpt>
      <trkpt lat="44.61321" lon="5.98803">
        <ele>1191.8</ele>
        <time>2023-05-15T09:43:53Z</time>
      </trkpt>
      <trkpt lat="44.61326" lon="5.98802">
        <ele>1191.6</ele>
        <time>2023-05-15T09:43:54Z</time>
      </trkpt>
      <trkpt lat="44.61335" lon="5.988">
        <ele>1191.4</ele>
        <time>2023-05-15T09:43:56Z</time>
      </trkpt>
      <trkpt lat="44.61346" lon="5.98801">
        <ele>1190.6</ele>
        <time>2023-05-15T09:43:58Z</time>
      </trkpt>
      <trkpt lat="44.61356" lon="5.98805">
        <ele>1189.4</ele>
        <time>2023-05-15T09:44:00Z</time>
      </trkpt>
      <trkpt lat="44.61361" lon="5.98806">
        <ele>1188.2</ele>
        <time>2023-05-15T09:44:01Z</time>
      </trkpt>
      <trkpt lat="44.61371" lon="5.98807">
        <ele>1186.4</ele>
        <time>2023-05-15T09:44:03Z</time>
      </trkpt>
      <trkpt lat="44.61376" lon="5.98806">
        <ele>1185.6</ele>
        <time>2023-05-15T09:44:04Z</time>
      </trkpt>
      <trkpt lat="44.6138" lon="5.98806">
        <ele>1184.8</ele>
        <time>2023-05-15T09:44:05Z</time>
      </trkpt>
      <trkpt lat="44.61384" lon="5.98805">
        <ele>1183.6</ele>
        <time>2023-05-15T09:44:06Z</time>
      </trkpt>
      <trkpt lat="44.61394" lon="5.98803">
        <ele>1182</ele>
        <time>2023-05-15T09:44:08Z</time>
      </trkpt>
      <trkpt lat="44.61405" lon="5.98801">
        <ele>1181.2</ele>
        <time>2023-05-15T09:44:10Z</time>
      </trkpt>
      <trkpt lat="44.61409" lon="5.988">
        <ele>1180.6</ele>
        <time>2023-05-15T09:44:11Z</time>
      </trkpt>
      <trkpt lat="44.61413" lon="5.98799">
        <ele>1179.4</ele>
        <time>2023-05-15T09:44:12Z</time>
      </trkpt>
      <trkpt lat="44.61415" lon="5.98798">
        <ele>1177.8</ele>
        <time>2023-05-15T09:44:13Z</time>
      </trkpt>
      <trkpt lat="44.61416" lon="5.98795">
        <ele>1176.8</ele>
        <time>2023-05-15T09:44:14Z</time>
      </trkpt>
      <trkpt lat="44.61417" lon="5.98793">
        <ele>1175.4</ele>
        <time>2023-05-15T09:44:15Z</time>
      </trkpt>
      <trkpt lat="44.61418" lon="5.98792">
        <ele>1174.4</ele>
        <time>2023-05-15T09:44:16Z</time>
      </trkpt>
      <trkpt lat="44.61419" lon="5.98792">
        <ele>1173</ele>
        <time>2023-05-15T09:44:17Z</time>
      </trkpt>
      <trkpt lat="44.6142" lon="5.98791">
        <ele>1172</ele>
        <time>2023-05-15T09:44:18Z</time>
      </trkpt>
      <trkpt lat="44.61421" lon="5.98789">
        <ele>1170.8</ele>
        <time>2023-05-15T09:44:19Z</time>
      </trkpt>
      <trkpt lat="44.61422" lon="5.98787">
        <ele>1169.8</ele>
        <time>2023-05-15T09:44:20Z</time>
      </trkpt>
      <trkpt lat="44.61423" lon="5.98786">
        <ele>1169.6</ele>
        <time>2023-05-15T09:44:21Z</time>
      </trkpt>
      <trkpt lat="44.61423" lon="5.98785">
        <ele>1169</ele>
        <time>2023-05-15T09:44:22Z</time>
      </trkpt>
      <trkpt lat="44.61423" lon="5.98785">
        <ele>1168.2</ele>
        <time>2023-05-15T09:44:24Z</time>
      </trkpt>
      <trkpt lat="44.61423" lon="5.98785">
        <ele>1168</ele>
        <time>2023-05-15T09:44:25Z</time>
      </trkpt>
      <trkpt lat="44.61423" lon="5.98785">
        <ele>1167.2</ele>
        <time>2023-05-15T09:44:27Z</time>
      </trkpt>
      <trkpt lat="44.61426" lon="5.98785">
        <ele>1166.6</ele>
        <time>2023-05-15T09:44:31Z</time>
      </trkpt>
      <trkpt lat="44.61428" lon="5.98783">
        <ele>1166.4</ele>
        <time>2023-05-15T09:44:33Z</time>
      </trkpt>
      <trkpt lat="44.61428" lon="5.98782">
        <ele>1166.4</ele>
        <time>2023-05-15T09:44:34Z</time>
      </trkpt>
      <trkpt lat="44.61429" lon="5.98781">
        <ele>1166.4</ele>
        <time>2023-05-15T09:44:35Z</time>
      </trkpt>
      <trkpt lat="44.6143" lon="5.98778">
        <ele>1166.4</ele>
        <time>2023-05-15T09:44:36Z</time>
      </trkpt>
      <trkpt lat="44.6143" lon="5.98776">
        <ele>1166</ele>
        <time>2023-05-15T09:44:37Z</time>
      </trkpt>
      <trkpt lat="44.61429" lon="5.9877">
        <ele>1165.4</ele>
        <time>2023-05-15T09:44:39Z</time>
      </trkpt>
      <trkpt lat="44.61429" lon="5.98768">
        <ele>1165.4</ele>
        <time>2023-05-15T09:44:40Z</time>
      </trkpt>
      <trkpt lat="44.61429" lon="5.98766">
        <ele>1165.2</ele>
        <time>2023-05-15T09:44:41Z</time>
      </trkpt>
      <trkpt lat="44.61429" lon="5.98766">
        <ele>1164</ele>
        <time>2023-05-15T09:44:42Z</time>
      </trkpt>
      <trkpt lat="44.61429" lon="5.98766">
        <ele>1163.6</ele>
        <time>2023-05-15T09:44:43Z</time>
      </trkpt>
      <trkpt lat="44.61429" lon="5.98766">
        <ele>1162.6</ele>
        <time>2023-05-15T09:44:44Z</time>
      </trkpt>
      <trkpt lat="44.61429" lon="5.98766">
        <ele>1161.4</ele>
        <time>2023-05-15T09:44:47Z</time>
      </trkpt>
      <trkpt lat="44.61429" lon="5.98763">
        <ele>1161.2</ele>
        <time>2023-05-15T09:44:49Z</time>
      </trkpt>
      <trkpt lat="44.61429" lon="5.98758">
        <ele>1160.8</ele>
        <time>2023-05-15T09:44:51Z</time>
      </trkpt>
      <trkpt lat="44.61426" lon="5.98755">
        <ele>1160.6</ele>
        <time>2023-05-15T09:44:53Z</time>
      </trkpt>
      <trkpt lat="44.61425" lon="5.98753">
        <ele>1160.6</ele>
        <time>2023-05-15T09:44:54Z</time>
      </trkpt>
      <trkpt lat="44.61423" lon="5.98751">
        <ele>1160.2</ele>
        <time>2023-05-15T09:44:55Z</time>
      </trkpt>
      <trkpt lat="44.61419" lon="5.98748">
        <ele>1159.6</ele>
        <time>2023-05-15T09:44:57Z</time>
      </trkpt>
      <trkpt lat="44.61419" lon="5.98746">
        <ele>1159</ele>
        <time>2023-05-15T09:44:58Z</time>
      </trkpt>
      <trkpt lat="44.61418" lon="5.98743">
        <ele>1158.4</ele>
        <time>2023-05-15T09:44:59Z</time>
      </trkpt>
      <trkpt lat="44.61418" lon="5.9874">
        <ele>1157.2</ele>
        <time>2023-05-15T09:45:00Z</time>
      </trkpt>
      <trkpt lat="44.61418" lon="5.98732">
        <ele>1155.8</ele>
        <time>2023-05-15T09:45:02Z</time>
      </trkpt>
      <trkpt lat="44.61418" lon="5.98729">
        <ele>1155.4</ele>
        <time>2023-05-15T09:45:03Z</time>
      </trkpt>
      <trkpt lat="44.61419" lon="5.98728">
        <ele>1154.6</ele>
        <time>2023-05-15T09:45:04Z</time>
      </trkpt>
      <trkpt lat="44.61421" lon="5.98726">
        <ele>1154</ele>
        <time>2023-05-15T09:45:05Z</time>
      </trkpt>
      <trkpt lat="44.61422" lon="5.98725">
        <ele>1153.4</ele>
        <time>2023-05-15T09:45:06Z</time>
      </trkpt>
      <trkpt lat="44.61423" lon="5.98724">
        <ele>1152</ele>
        <time>2023-05-15T09:45:07Z</time>
      </trkpt>
      <trkpt lat="44.61423" lon="5.98722">
        <ele>1151.6</ele>
        <time>2023-05-15T09:45:08Z</time>
      </trkpt>
      <trkpt lat="44.61423" lon="5.98719">
        <ele>1150.8</ele>
        <time>2023-05-15T09:45:09Z</time>
      </trkpt>
      <trkpt lat="44.61423" lon="5.98717">
        <ele>1150.6</ele>
        <time>2023-05-15T09:45:10Z</time>
      </trkpt>
      <trkpt lat="44.61422" lon="5.98715">
        <ele>1149.8</ele>
        <time>2023-05-15T09:45:11Z</time>
      </trkpt>
      <trkpt lat="44.61423" lon="5.98712">
        <ele>1149.2</ele>
        <time>2023-05-15T09:45:12Z</time>
      </trkpt>
      <trkpt lat="44.61424" lon="5.9871">
        <ele>1148.4</ele>
        <time>2023-05-15T09:45:13Z</time>
      </trkpt>
      <trkpt lat="44.61425" lon="5.98708">
        <ele>1147.6</ele>
        <time>2023-05-15T09:45:14Z</time>
      </trkpt>
      <trkpt lat="44.61427" lon="5.98705">
        <ele>1147.4</ele>
        <time>2023-05-15T09:45:15Z</time>
      </trkpt>
      <trkpt lat="44.61429" lon="5.98702">
        <ele>1146.8</ele>
        <time>2023-05-15T09:45:16Z</time>
      </trkpt>
      <trkpt lat="44.6143" lon="5.98698">
        <ele>1146.4</ele>
        <time>2023-05-15T09:45:17Z</time>
      </trkpt>
      <trkpt lat="44.6143" lon="5.98695">
        <ele>1144.8</ele>
        <time>2023-05-15T09:45:18Z</time>
      </trkpt>
      <trkpt lat="44.6143" lon="5.98692">
        <ele>1144.2</ele>
        <time>2023-05-15T09:45:19Z</time>
      </trkpt>
      <trkpt lat="44.61431" lon="5.9869">
        <ele>1143.2</ele>
        <time>2023-05-15T09:45:20Z</time>
      </trkpt>
      <trkpt lat="44.61432" lon="5.98689">
        <ele>1142.6</ele>
        <time>2023-05-15T09:45:21Z</time>
      </trkpt>
      <trkpt lat="44.61434" lon="5.98687">
        <ele>1142</ele>
        <time>2023-05-15T09:45:22Z</time>
      </trkpt>
      <trkpt lat="44.61435" lon="5.98685">
        <ele>1141.2</ele>
        <time>2023-05-15T09:45:23Z</time>
      </trkpt>
      <trkpt lat="44.61437" lon="5.98682">
        <ele>1140.8</ele>
        <time>2023-05-15T09:45:24Z</time>
      </trkpt>
      <trkpt lat="44.61438" lon="5.9868">
        <ele>1140.2</ele>
        <time>2023-05-15T09:45:25Z</time>
      </trkpt>
      <trkpt lat="44.61439" lon="5.98676">
        <ele>1140</ele>
        <time>2023-05-15T09:45:26Z</time>
      </trkpt>
      <trkpt lat="44.6144" lon="5.98673">
        <ele>1139.6</ele>
        <time>2023-05-15T09:45:27Z</time>
      </trkpt>
      <trkpt lat="44.61442" lon="5.9867">
        <ele>1139.2</ele>
        <time>2023-05-15T09:45:28Z</time>
      </trkpt>
      <trkpt lat="44.61442" lon="5.98665">
        <ele>1138.2</ele>
        <time>2023-05-15T09:45:29Z</time>
      </trkpt>
      <trkpt lat="44.61441" lon="5.98659">
        <ele>1137.4</ele>
        <time>2023-05-15T09:45:31Z</time>
      </trkpt>
      <trkpt lat="44.61442" lon="5.98655">
        <ele>1136.4</ele>
        <time>2023-05-15T09:45:32Z</time>
      </trkpt>
      <trkpt lat="44.61444" lon="5.98651">
        <ele>1136</ele>
        <time>2023-05-15T09:45:33Z</time>
      </trkpt>
      <trkpt lat="44.61447" lon="5.98648">
        <ele>1135</ele>
        <time>2023-05-15T09:45:34Z</time>
      </trkpt>
      <trkpt lat="44.61448" lon="5.98644">
        <ele>1134.6</ele>
        <time>2023-05-15T09:45:35Z</time>
      </trkpt>
      <trkpt lat="44.6145" lon="5.9864">
        <ele>1133.4</ele>
        <time>2023-05-15T09:45:36Z</time>
      </trkpt>
      <trkpt lat="44.61454" lon="5.98635">
        <ele>1131.6</ele>
        <time>2023-05-15T09:45:38Z</time>
      </trkpt>
      <trkpt lat="44.61455" lon="5.98632">
        <ele>1131.2</ele>
        <time>2023-05-15T09:45:39Z</time>
      </trkpt>
      <trkpt lat="44.61456" lon="5.9863">
        <ele>1130.6</ele>
        <time>2023-05-15T09:45:40Z</time>
      </trkpt>
      <trkpt lat="44.61457" lon="5.98628">
        <ele>1130</ele>
        <time>2023-05-15T09:45:41Z</time>
      </trkpt>
      <trkpt lat="44.61458" lon="5.98626">
        <ele>1129.6</ele>
        <time>2023-05-15T09:45:42Z</time>
      </trkpt>
      <trkpt lat="44.61459" lon="5.98624">
        <ele>1128.8</ele>
        <time>2023-05-15T09:45:43Z</time>
      </trkpt>
      <trkpt lat="44.61461" lon="5.9862">
        <ele>1127.2</ele>
        <time>2023-05-15T09:45:45Z</time>
      </trkpt>
      <trkpt lat="44.61462" lon="5.98619">
        <ele>1126.8</ele>
        <time>2023-05-15T09:45:46Z</time>
      </trkpt>
      <trkpt lat="44.61463" lon="5.98618">
        <ele>1126.2</ele>
        <time>2023-05-15T09:45:47Z</time>
      </trkpt>
      <trkpt lat="44.61463" lon="5.98618">
        <ele>1126</ele>
        <time>2023-05-15T09:45:48Z</time>
      </trkpt>
      <trkpt lat="44.61464" lon="5.98618">
        <ele>1125</ele>
        <time>2023-05-15T09:45:51Z</time>
      </trkpt>
      <trkpt lat="44.61464" lon="5.98618">
        <ele>1124.8</ele>
        <time>2023-05-15T09:45:52Z</time>
      </trkpt>
      <trkpt lat="44.61465" lon="5.9862">
        <ele>1124.4</ele>
        <time>2023-05-15T09:45:54Z</time>
      </trkpt>
      <trkpt lat="44.61465" lon="5.9862">
        <ele>1124.2</ele>
        <time>2023-05-15T09:45:55Z</time>
      </trkpt>
      <trkpt lat="44.61465" lon="5.9862">
        <ele>1124</ele>
        <time>2023-05-15T09:45:56Z</time>
      </trkpt>
      <trkpt lat="44.61466" lon="5.9862">
        <ele>1123.8</ele>
        <time>2023-05-15T09:45:58Z</time>
      </trkpt>
      <trkpt lat="44.61468" lon="5.98619">
        <ele>1123.8</ele>
        <time>2023-05-15T09:46:00Z</time>
      </trkpt>
      <trkpt lat="44.61468" lon="5.98619">
        <ele>1123.8</ele>
        <time>2023-05-15T09:46:01Z</time>
      </trkpt>
      <trkpt lat="44.61469" lon="5.98619">
        <ele>1123.8</ele>
        <time>2023-05-15T09:46:02Z</time>
      </trkpt>
      <trkpt lat="44.6147" lon="5.98619">
        <ele>1123.8</ele>
        <time>2023-05-15T09:46:03Z</time>
      </trkpt>
      <trkpt lat="44.61471" lon="5.98619">
        <ele>1123.8</ele>
        <time>2023-05-15T09:46:04Z</time>
      </trkpt>
      <trkpt lat="44.61472" lon="5.9862">
        <ele>1123.8</ele>
        <time>2023-05-15T09:46:06Z</time>
      </trkpt>
      <trkpt lat="44.61473" lon="5.98621">
        <ele>1123.8</ele>
        <time>2023-05-15T09:46:07Z</time>
      </trkpt>
      <trkpt lat="44.61473" lon="5.98623">
        <ele>1124</ele>
        <time>2023-05-15T09:46:12Z</time>
      </trkpt>
      <trkpt lat="44.61472" lon="5.98633">
        <ele>1124.2</ele>
        <time>2023-05-15T09:46:20Z</time>
      </trkpt>
      <trkpt lat="44.61471" lon="5.98637">
        <ele>1124.6</ele>
        <time>2023-05-15T09:46:24Z</time>
      </trkpt>
      <trkpt lat="44.61472" lon="5.98637">
        <ele>1124.6</ele>
        <time>2023-05-15T09:46:25Z</time>
      </trkpt>
      <trkpt lat="44.61472" lon="5.98638">
        <ele>1124.8</ele>
        <time>2023-05-15T09:46:26Z</time>
      </trkpt>
      <trkpt lat="44.61472" lon="5.98638">
        <ele>1125</ele>
        <time>2023-05-15T09:46:27Z</time>
      </trkpt>
      <trkpt lat="44.61472" lon="5.98639">
        <ele>1125.2</ele>
        <time>2023-05-15T09:46:28Z</time>
      </trkpt>
      <trkpt lat="44.61472" lon="5.98639">
        <ele>1125.6</ele>
        <time>2023-05-15T09:46:30Z</time>
      </trkpt>
      <trkpt lat="44.61472" lon="5.9864">
        <ele>1125.8</ele>
        <time>2023-05-15T09:46:31Z</time>
      </trkpt>
      <trkpt lat="44.61472" lon="5.9864">
        <ele>1126</ele>
        <time>2023-05-15T09:46:32Z</time>
      </trkpt>
      <trkpt lat="44.61473" lon="5.98641">
        <ele>1126.2</ele>
        <time>2023-05-15T09:46:34Z</time>
      </trkpt>
      <trkpt lat="44.61473" lon="5.98641">
        <ele>1126.2</ele>
        <time>2023-05-15T09:46:35Z</time>
      </trkpt>
      <trkpt lat="44.61474" lon="5.98641">
        <ele>1126.2</ele>
        <time>2023-05-15T09:46:37Z</time>
      </trkpt>
      <trkpt lat="44.61474" lon="5.98642">
        <ele>1126.4</ele>
        <time>2023-05-15T09:46:38Z</time>
      </trkpt>
      <trkpt lat="44.61474" lon="5.98642">
        <ele>1127</ele>
        <time>2023-05-15T09:46:44Z</time>
      </trkpt>
      <trkpt lat="44.61474" lon="5.98643">
        <ele>1127</ele>
        <time>2023-05-15T09:46:45Z</time>
      </trkpt>
      <trkpt lat="44.61474" lon="5.98644">
        <ele>1127.2</ele>
        <time>2023-05-15T09:46:46Z</time>
      </trkpt>
      <trkpt lat="44.61474" lon="5.98645">
        <ele>1127.2</ele>
        <time>2023-05-15T09:46:47Z</time>
      </trkpt>
      <trkpt lat="44.61474" lon="5.98645">
        <ele>1127.4</ele>
        <time>2023-05-15T09:46:48Z</time>
      </trkpt>
      <trkpt lat="44.61474" lon="5.98646">
        <ele>1127.6</ele>
        <time>2023-05-15T09:46:49Z</time>
      </trkpt>
      <trkpt lat="44.61474" lon="5.98646">
        <ele>1127.8</ele>
        <time>2023-05-15T09:46:51Z</time>
      </trkpt>
      <trkpt lat="44.61474" lon="5.98646">
        <ele>1128</ele>
        <time>2023-05-15T09:46:52Z</time>
      </trkpt>
      <trkpt lat="44.61474" lon="5.98647">
        <ele>1128.2</ele>
        <time>2023-05-15T09:46:54Z</time>
      </trkpt>
      <trkpt lat="44.61474" lon="5.98647">
        <ele>1128.4</ele>
        <time>2023-05-15T09:46:55Z</time>
      </trkpt>
      <trkpt lat="44.61474" lon="5.98648">
        <ele>1128.6</ele>
        <time>2023-05-15T09:46:56Z</time>
      </trkpt>
      <trkpt lat="44.61474" lon="5.98649">
        <ele>1128.8</ele>
        <time>2023-05-15T09:46:57Z</time>
      </trkpt>
      <trkpt lat="44.61474" lon="5.98649">
        <ele>1129</ele>
        <time>2023-05-15T09:46:58Z</time>
      </trkpt>
      <trkpt lat="44.61475" lon="5.9865">
        <ele>1129.2</ele>
        <time>2023-05-15T09:46:59Z</time>
      </trkpt>
      <trkpt lat="44.61475" lon="5.9865">
        <ele>1130.2</ele>
        <time>2023-05-15T09:47:03Z</time>
      </trkpt>
      <trkpt lat="44.61475" lon="5.98651">
        <ele>1130.6</ele>
        <time>2023-05-15T09:47:06Z</time>
      </trkpt>
      <trkpt lat="44.61475" lon="5.98652">
        <ele>1131.2</ele>
        <time>2023-05-15T09:47:11Z</time>
      </trkpt>
      <trkpt lat="44.61476" lon="5.98652">
        <ele>1131.6</ele>
        <time>2023-05-15T09:47:15Z</time>
      </trkpt>
      <trkpt lat="44.61476" lon="5.98653">
        <ele>1132</ele>
        <time>2023-05-15T09:47:21Z</time>
      </trkpt>
      <trkpt lat="44.61477" lon="5.98653">
        <ele>1132</ele>
        <time>2023-05-15T09:47:24Z</time>
      </trkpt>
      <trkpt lat="44.61477" lon="5.98654">
        <ele>1132.2</ele>
        <time>2023-05-15T09:47:30Z</time>
      </trkpt>
      <trkpt lat="44.61478" lon="5.98655">
        <ele>1132.2</ele>
        <time>2023-05-15T09:47:31Z</time>
      </trkpt>
      <trkpt lat="44.61478" lon="5.98656">
        <ele>1132.2</ele>
        <time>2023-05-15T09:47:32Z</time>
      </trkpt>
      <trkpt lat="44.61479" lon="5.98656">
        <ele>1132.4</ele>
        <time>2023-05-15T09:47:33Z</time>
      </trkpt>
      <trkpt lat="44.61479" lon="5.98657">
        <ele>1132.4</ele>
        <time>2023-05-15T09:47:34Z</time>
      </trkpt>
      <trkpt lat="44.61481" lon="5.98661">
        <ele>1132.4</ele>
        <time>2023-05-15T09:47:37Z</time>
      </trkpt>
      <trkpt lat="44.61481" lon="5.98662">
        <ele>1132.6</ele>
        <time>2023-05-15T09:47:38Z</time>
      </trkpt>
      <trkpt lat="44.61482" lon="5.98664">
        <ele>1132.6</ele>
        <time>2023-05-15T09:47:39Z</time>
      </trkpt>
      <trkpt lat="44.61482" lon="5.98666">
        <ele>1132.8</ele>
        <time>2023-05-15T09:47:41Z</time>
      </trkpt>
      <trkpt lat="44.61484" lon="5.98673">
        <ele>1133.2</ele>
        <time>2023-05-15T09:47:46Z</time>
      </trkpt>
      <trkpt lat="44.61485" lon="5.98673">
        <ele>1133.4</ele>
        <time>2023-05-15T09:47:47Z</time>
      </trkpt>
      <trkpt lat="44.61486" lon="5.98675">
        <ele>1133.4</ele>
        <time>2023-05-15T09:47:48Z</time>
      </trkpt>
      <trkpt lat="44.61486" lon="5.98675">
        <ele>1133.6</ele>
        <time>2023-05-15T09:47:49Z</time>
      </trkpt>
      <trkpt lat="44.61487" lon="5.98675">
        <ele>1133.6</ele>
        <time>2023-05-15T09:47:50Z</time>
      </trkpt>
      <trkpt lat="44.61487" lon="5.98676">
        <ele>1134</ele>
        <time>2023-05-15T09:47:51Z</time>
      </trkpt>
      <trkpt lat="44.61488" lon="5.98677">
        <ele>1134.4</ele>
        <time>2023-05-15T09:47:52Z</time>
      </trkpt>
      <trkpt lat="44.61492" lon="5.9868">
        <ele>1134.6</ele>
        <time>2023-05-15T09:47:55Z</time>
      </trkpt>
      <trkpt lat="44.61496" lon="5.98682">
        <ele>1135</ele>
        <time>2023-05-15T09:48:02Z</time>
      </trkpt>
      <trkpt lat="44.61497" lon="5.98682">
        <ele>1135</ele>
        <time>2023-05-15T09:48:03Z</time>
      </trkpt>
      <trkpt lat="44.61498" lon="5.98682">
        <ele>1135</ele>
        <time>2023-05-15T09:48:04Z</time>
      </trkpt>
      <trkpt lat="44.61501" lon="5.9868">
        <ele>1135.2</ele>
        <time>2023-05-15T09:48:06Z</time>
      </trkpt>
      <trkpt lat="44.61502" lon="5.98679">
        <ele>1135.4</ele>
        <time>2023-05-15T09:48:07Z</time>
      </trkpt>
      <trkpt lat="44.61503" lon="5.98679">
        <ele>1135.4</ele>
        <time>2023-05-15T09:48:08Z</time>
      </trkpt>
      <trkpt lat="44.61504" lon="5.98678">
        <ele>1135.4</ele>
        <time>2023-05-15T09:48:09Z</time>
      </trkpt>
      <trkpt lat="44.61505" lon="5.98677">
        <ele>1135.4</ele>
        <time>2023-05-15T09:48:10Z</time>
      </trkpt>
      <trkpt lat="44.61508" lon="5.98675">
        <ele>1135.4</ele>
        <time>2023-05-15T09:48:14Z</time>
      </trkpt>
      <trkpt lat="44.61509" lon="5.98674">
        <ele>1135.4</ele>
        <time>2023-05-15T09:48:15Z</time>
      </trkpt>
      <trkpt lat="44.6151" lon="5.98674">
        <ele>1135.4</ele>
        <time>2023-05-15T09:48:16Z</time>
      </trkpt>
      <trkpt lat="44.61511" lon="5.98674">
        <ele>1135.4</ele>
        <time>2023-05-15T09:48:17Z</time>
      </trkpt>
      <trkpt lat="44.61512" lon="5.98674">
        <ele>1135.4</ele>
        <time>2023-05-15T09:48:18Z</time>
      </trkpt>
      <trkpt lat="44.61512" lon="5.98674">
        <ele>1135.4</ele>
        <time>2023-05-15T09:48:19Z</time>
      </trkpt>
      <trkpt lat="44.61512" lon="5.98674">
        <ele>1135.4</ele>
        <time>2023-05-15T09:48:21Z</time>
      </trkpt>
      <trkpt lat="44.61514" lon="5.98674">
        <ele>1135.4</ele>
        <time>2023-05-15T09:48:25Z</time>
      </trkpt>
      <trkpt lat="44.61515" lon="5.98674">
        <ele>1135.4</ele>
        <time>2023-05-15T09:48:28Z</time>
      </trkpt>
      <trkpt lat="44.61516" lon="5.98674">
        <ele>1135.4</ele>
        <time>2023-05-15T09:48:29Z</time>
      </trkpt>
      <trkpt lat="44.61518" lon="5.98673">
        <ele>1135.6</ele>
        <time>2023-05-15T09:48:32Z</time>
      </trkpt>
      <trkpt lat="44.61519" lon="5.98673">
        <ele>1135.6</ele>
        <time>2023-05-15T09:48:33Z</time>
      </trkpt>
      <trkpt lat="44.6152" lon="5.98674">
        <ele>1135.6</ele>
        <time>2023-05-15T09:48:34Z</time>
      </trkpt>
      <trkpt lat="44.61521" lon="5.98674">
        <ele>1135.8</ele>
        <time>2023-05-15T09:48:35Z</time>
      </trkpt>
      <trkpt lat="44.61521" lon="5.98674">
        <ele>1135.8</ele>
        <time>2023-05-15T09:48:36Z</time>
      </trkpt>
      <trkpt lat="44.61523" lon="5.98675">
        <ele>1136</ele>
        <time>2023-05-15T09:48:39Z</time>
      </trkpt>
      <trkpt lat="44.61523" lon="5.98675">
        <ele>1136</ele>
        <time>2023-05-15T09:48:40Z</time>
      </trkpt>
      <trkpt lat="44.61523" lon="5.98675">
        <ele>1136</ele>
        <time>2023-05-15T09:48:41Z</time>
      </trkpt>
      <trkpt lat="44.61524" lon="5.98675">
        <ele>1136</ele>
        <time>2023-05-15T09:48:42Z</time>
      </trkpt>
      <trkpt lat="44.61526" lon="5.98675">
        <ele>1136.4</ele>
        <time>2023-05-15T09:48:44Z</time>
      </trkpt>
      <trkpt lat="44.61528" lon="5.98675">
        <ele>1136.4</ele>
        <time>2023-05-15T09:48:45Z</time>
      </trkpt>
      <trkpt lat="44.61528" lon="5.98675">
        <ele>1136.6</ele>
        <time>2023-05-15T09:48:46Z</time>
      </trkpt>
      <trkpt lat="44.61528" lon="5.98674">
        <ele>1136.6</ele>
        <time>2023-05-15T09:48:47Z</time>
      </trkpt>
      <trkpt lat="44.61529" lon="5.98674">
        <ele>1136.8</ele>
        <time>2023-05-15T09:48:48Z</time>
      </trkpt>
      <trkpt lat="44.61534" lon="5.98674">
        <ele>1137</ele>
        <time>2023-05-15T09:48:54Z</time>
      </trkpt>
      <trkpt lat="44.61534" lon="5.98674">
        <ele>1137</ele>
        <time>2023-05-15T09:48:55Z</time>
      </trkpt>
      <trkpt lat="44.61537" lon="5.98674">
        <ele>1137</ele>
        <time>2023-05-15T09:48:58Z</time>
      </trkpt>
      <trkpt lat="44.61537" lon="5.98675">
        <ele>1137</ele>
        <time>2023-05-15T09:48:59Z</time>
      </trkpt>
      <trkpt lat="44.6154" lon="5.98675">
        <ele>1137</ele>
        <time>2023-05-15T09:49:03Z</time>
      </trkpt>
      <trkpt lat="44.61541" lon="5.98675">
        <ele>1137</ele>
        <time>2023-05-15T09:49:04Z</time>
      </trkpt>
      <trkpt lat="44.61541" lon="5.98675">
        <ele>1137.2</ele>
        <time>2023-05-15T09:49:05Z</time>
      </trkpt>
      <trkpt lat="44.61542" lon="5.98675">
        <ele>1137.4</ele>
        <time>2023-05-15T09:49:08Z</time>
      </trkpt>
      <trkpt lat="44.61544" lon="5.98676">
        <ele>1137.6</ele>
        <time>2023-05-15T09:49:10Z</time>
      </trkpt>
      <trkpt lat="44.61547" lon="5.98676">
        <ele>1138</ele>
        <time>2023-05-15T09:49:14Z</time>
      </trkpt>
      <trkpt lat="44.61547" lon="5.98676">
        <ele>1138</ele>
        <time>2023-05-15T09:49:15Z</time>
      </trkpt>
      <trkpt lat="44.61549" lon="5.98675">
        <ele>1138.2</ele>
        <time>2023-05-15T09:49:18Z</time>
      </trkpt>
      <trkpt lat="44.6155" lon="5.98675">
        <ele>1138.2</ele>
        <time>2023-05-15T09:49:19Z</time>
      </trkpt>
      <trkpt lat="44.61551" lon="5.98675">
        <ele>1138.4</ele>
        <time>2023-05-15T09:49:21Z</time>
      </trkpt>
      <trkpt lat="44.61553" lon="5.98675">
        <ele>1138.6</ele>
        <time>2023-05-15T09:49:23Z</time>
      </trkpt>
      <trkpt lat="44.61555" lon="5.98675">
        <ele>1138.8</ele>
        <time>2023-05-15T09:49:24Z</time>
      </trkpt>
      <trkpt lat="44.61556" lon="5.98674">
        <ele>1139</ele>
        <time>2023-05-15T09:49:27Z</time>
      </trkpt>
      <trkpt lat="44.61557" lon="5.98675">
        <ele>1139</ele>
        <time>2023-05-15T09:49:28Z</time>
      </trkpt>
      <trkpt lat="44.61557" lon="5.98675">
        <ele>1139.2</ele>
        <time>2023-05-15T09:49:29Z</time>
      </trkpt>
      <trkpt lat="44.61557" lon="5.98675">
        <ele>1139.2</ele>
        <time>2023-05-15T09:49:30Z</time>
      </trkpt>
      <trkpt lat="44.61559" lon="5.98676">
        <ele>1139.4</ele>
        <time>2023-05-15T09:49:32Z</time>
      </trkpt>
      <trkpt lat="44.61559" lon="5.98676">
        <ele>1139.4</ele>
        <time>2023-05-15T09:49:33Z</time>
      </trkpt>
      <trkpt lat="44.61561" lon="5.98676">
        <ele>1139.6</ele>
        <time>2023-05-15T09:49:35Z</time>
      </trkpt>
      <trkpt lat="44.61562" lon="5.98676">
        <ele>1140</ele>
        <time>2023-05-15T09:49:36Z</time>
      </trkpt>
      <trkpt lat="44.61563" lon="5.98675">
        <ele>1140.2</ele>
        <time>2023-05-15T09:49:37Z</time>
      </trkpt>
      <trkpt lat="44.6157" lon="5.98671">
        <ele>1140.6</ele>
        <time>2023-05-15T09:49:46Z</time>
      </trkpt>
      <trkpt lat="44.6157" lon="5.98671">
        <ele>1140.8</ele>
        <time>2023-05-15T09:49:48Z</time>
      </trkpt>
      <trkpt lat="44.6157" lon="5.9867">
        <ele>1140.6</ele>
        <time>2023-05-15T09:49:49Z</time>
      </trkpt>
      <trkpt lat="44.61571" lon="5.98669">
        <ele>1140.6</ele>
        <time>2023-05-15T09:49:50Z</time>
      </trkpt>
      <trkpt lat="44.61571" lon="5.98669">
        <ele>1140.6</ele>
        <time>2023-05-15T09:49:51Z</time>
      </trkpt>
      <trkpt lat="44.61572" lon="5.98668">
        <ele>1140.6</ele>
        <time>2023-05-15T09:49:52Z</time>
      </trkpt>
      <trkpt lat="44.61572" lon="5.98668">
        <ele>1140.2</ele>
        <time>2023-05-15T09:49:54Z</time>
      </trkpt>
      <trkpt lat="44.61573" lon="5.98668">
        <ele>1140</ele>
        <time>2023-05-15T09:49:55Z</time>
      </trkpt>
      <trkpt lat="44.61575" lon="5.98667">
        <ele>1139.6</ele>
        <time>2023-05-15T09:49:59Z</time>
      </trkpt>
      <trkpt lat="44.61575" lon="5.98667">
        <ele>1139.6</ele>
        <time>2023-05-15T09:50:00Z</time>
      </trkpt>
      <trkpt lat="44.61575" lon="5.98666">
        <ele>1139.6</ele>
        <time>2023-05-15T09:50:01Z</time>
      </trkpt>
      <trkpt lat="44.61579" lon="5.98664">
        <ele>1139.6</ele>
        <time>2023-05-15T09:50:05Z</time>
      </trkpt>
      <trkpt lat="44.6158" lon="5.98664">
        <ele>1139.6</ele>
        <time>2023-05-15T09:50:06Z</time>
      </trkpt>
      <trkpt lat="44.61583" lon="5.98662">
        <ele>1139.6</ele>
        <time>2023-05-15T09:50:08Z</time>
      </trkpt>
      <trkpt lat="44.61583" lon="5.98662">
        <ele>1139.6</ele>
        <time>2023-05-15T09:50:09Z</time>
      </trkpt>
      <trkpt lat="44.61584" lon="5.98661">
        <ele>1139.6</ele>
        <time>2023-05-15T09:50:10Z</time>
      </trkpt>
      <trkpt lat="44.61585" lon="5.98661">
        <ele>1139.6</ele>
        <time>2023-05-15T09:50:12Z</time>
      </trkpt>
      <trkpt lat="44.61585" lon="5.98661">
        <ele>1139.6</ele>
        <time>2023-05-15T09:50:13Z</time>
      </trkpt>
      <trkpt lat="44.61585" lon="5.98661">
        <ele>1139.6</ele>
        <time>2023-05-15T09:50:14Z</time>
      </trkpt>
      <trkpt lat="44.61585" lon="5.98661">
        <ele>1139.2</ele>
        <time>2023-05-15T09:50:16Z</time>
      </trkpt>
      <trkpt lat="44.61585" lon="5.98661">
        <ele>1139.2</ele>
        <time>2023-05-15T09:50:31Z</time>
      </trkpt>
      <trkpt lat="44.61585" lon="5.98661">
        <ele>1139.2</ele>
        <time>2023-05-15T09:50:44Z</time>
      </trkpt>
      <trkpt lat="44.61591" lon="5.98659">
        <ele>1139</ele>
        <time>2023-05-15T09:50:49Z</time>
      </trkpt>
      <trkpt lat="44.61592" lon="5.98658">
        <ele>1139</ele>
        <time>2023-05-15T09:50:50Z</time>
      </trkpt>
      <trkpt lat="44.61592" lon="5.98658">
        <ele>1139</ele>
        <time>2023-05-15T09:50:51Z</time>
      </trkpt>
      <trkpt lat="44.61593" lon="5.98657">
        <ele>1138.8</ele>
        <time>2023-05-15T09:50:52Z</time>
      </trkpt>
      <trkpt lat="44.61594" lon="5.98657">
        <ele>1138.8</ele>
        <time>2023-05-15T09:50:53Z</time>
      </trkpt>
      <trkpt lat="44.61594" lon="5.98657">
        <ele>1138.8</ele>
        <time>2023-05-15T09:50:54Z</time>
      </trkpt>
      <trkpt lat="44.61595" lon="5.98657">
        <ele>1138.6</ele>
        <time>2023-05-15T09:50:55Z</time>
      </trkpt>
      <trkpt lat="44.61595" lon="5.98657">
        <ele>1138.6</ele>
        <time>2023-05-15T09:50:56Z</time>
      </trkpt>
      <trkpt lat="44.61596" lon="5.98656">
        <ele>1138.4</ele>
        <time>2023-05-15T09:50:57Z</time>
      </trkpt>
      <trkpt lat="44.61597" lon="5.98656">
        <ele>1138.4</ele>
        <time>2023-05-15T09:50:58Z</time>
      </trkpt>
      <trkpt lat="44.61597" lon="5.98656">
        <ele>1138.4</ele>
        <time>2023-05-15T09:50:59Z</time>
      </trkpt>
      <trkpt lat="44.61597" lon="5.98656">
        <ele>1138.2</ele>
        <time>2023-05-15T09:51:00Z</time>
      </trkpt>
      <trkpt lat="44.61598" lon="5.98656">
        <ele>1138.2</ele>
        <time>2023-05-15T09:51:01Z</time>
      </trkpt>
      <trkpt lat="44.61599" lon="5.98656">
        <ele>1138.2</ele>
        <time>2023-05-15T09:51:02Z</time>
      </trkpt>
      <trkpt lat="44.61599" lon="5.98656">
        <ele>1138.2</ele>
        <time>2023-05-15T09:51:03Z</time>
      </trkpt>
      <trkpt lat="44.61601" lon="5.98655">
        <ele>1138.2</ele>
        <time>2023-05-15T09:51:05Z</time>
      </trkpt>
      <trkpt lat="44.61602" lon="5.98655">
        <ele>1138.2</ele>
        <time>2023-05-15T09:51:06Z</time>
      </trkpt>
      <trkpt lat="44.61604" lon="5.98654">
        <ele>1138.2</ele>
        <time>2023-05-15T09:51:08Z</time>
      </trkpt>
      <trkpt lat="44.61605" lon="5.98653">
        <ele>1138.2</ele>
        <time>2023-05-15T09:51:09Z</time>
      </trkpt>
      <trkpt lat="44.61605" lon="5.98653">
        <ele>1138.2</ele>
        <time>2023-05-15T09:51:10Z</time>
      </trkpt>
      <trkpt lat="44.61606" lon="5.98652">
        <ele>1138</ele>
        <time>2023-05-15T09:51:12Z</time>
      </trkpt>
      <trkpt lat="44.61606" lon="5.98652">
        <ele>1138</ele>
        <time>2023-05-15T09:51:13Z</time>
      </trkpt>
      <trkpt lat="44.61606" lon="5.98652">
        <ele>1138</ele>
        <time>2023-05-15T09:51:14Z</time>
      </trkpt>
      <trkpt lat="44.61608" lon="5.9865">
        <ele>1137.8</ele>
        <time>2023-05-15T09:51:17Z</time>
      </trkpt>
      <trkpt lat="44.61609" lon="5.98649">
        <ele>1137.8</ele>
        <time>2023-05-15T09:51:18Z</time>
      </trkpt>
      <trkpt lat="44.6161" lon="5.98648">
        <ele>1137.8</ele>
        <time>2023-05-15T09:51:19Z</time>
      </trkpt>
      <trkpt lat="44.61613" lon="5.98645">
        <ele>1137.6</ele>
        <time>2023-05-15T09:51:22Z</time>
      </trkpt>
      <trkpt lat="44.61614" lon="5.98644">
        <ele>1137.6</ele>
        <time>2023-05-15T09:51:23Z</time>
      </trkpt>
      <trkpt lat="44.61614" lon="5.98644">
        <ele>1137.2</ele>
        <time>2023-05-15T09:51:24Z</time>
      </trkpt>
      <trkpt lat="44.61615" lon="5.98643">
        <ele>1137</ele>
        <time>2023-05-15T09:51:25Z</time>
      </trkpt>
      <trkpt lat="44.61616" lon="5.98643">
        <ele>1136.4</ele>
        <time>2023-05-15T09:51:27Z</time>
      </trkpt>
      <trkpt lat="44.61616" lon="5.98643">
        <ele>1136.2</ele>
        <time>2023-05-15T09:51:28Z</time>
      </trkpt>
      <trkpt lat="44.61616" lon="5.98643">
        <ele>1136</ele>
        <time>2023-05-15T09:51:30Z</time>
      </trkpt>
      <trkpt lat="44.61616" lon="5.98644">
        <ele>1136</ele>
        <time>2023-05-15T09:51:33Z</time>
      </trkpt>
      <trkpt lat="44.6162" lon="5.98642">
        <ele>1136.4</ele>
        <time>2023-05-15T09:51:39Z</time>
      </trkpt>
      <trkpt lat="44.61621" lon="5.98642">
        <ele>1136.6</ele>
        <time>2023-05-15T09:51:41Z</time>
      </trkpt>
      <trkpt lat="44.61621" lon="5.98641">
        <ele>1136.6</ele>
        <time>2023-05-15T09:51:42Z</time>
      </trkpt>
      <trkpt lat="44.61621" lon="5.98641">
        <ele>1136.8</ele>
        <time>2023-05-15T09:51:43Z</time>
      </trkpt>
      <trkpt lat="44.61621" lon="5.98641">
        <ele>1137</ele>
        <time>2023-05-15T09:51:45Z</time>
      </trkpt>
      <trkpt lat="44.61622" lon="5.98641">
        <ele>1137.2</ele>
        <time>2023-05-15T09:51:47Z</time>
      </trkpt>
      <trkpt lat="44.61626" lon="5.9864">
        <ele>1137.2</ele>
        <time>2023-05-15T09:51:51Z</time>
      </trkpt>
      <trkpt lat="44.61628" lon="5.98638">
        <ele>1137.2</ele>
        <time>2023-05-15T09:51:53Z</time>
      </trkpt>
      <trkpt lat="44.6163" lon="5.98637">
        <ele>1137</ele>
        <time>2023-05-15T09:51:55Z</time>
      </trkpt>
      <trkpt lat="44.61632" lon="5.98637">
        <ele>1137</ele>
        <time>2023-05-15T09:51:56Z</time>
      </trkpt>
      <trkpt lat="44.61633" lon="5.98637">
        <ele>1137</ele>
        <time>2023-05-15T09:51:57Z</time>
      </trkpt>
      <trkpt lat="44.61635" lon="5.98636">
        <ele>1136.6</ele>
        <time>2023-05-15T09:52:00Z</time>
      </trkpt>
      <trkpt lat="44.61638" lon="5.98635">
        <ele>1136.8</ele>
        <time>2023-05-15T09:52:09Z</time>
      </trkpt>
      <trkpt lat="44.61638" lon="5.98634">
        <ele>1136.6</ele>
        <time>2023-05-15T09:52:12Z</time>
      </trkpt>
      <trkpt lat="44.61639" lon="5.98633">
        <ele>1136.6</ele>
        <time>2023-05-15T09:52:13Z</time>
      </trkpt>
      <trkpt lat="44.61643" lon="5.98628">
        <ele>1136.4</ele>
        <time>2023-05-15T09:52:16Z</time>
      </trkpt>
      <trkpt lat="44.61645" lon="5.98626">
        <ele>1136.2</ele>
        <time>2023-05-15T09:52:17Z</time>
      </trkpt>
      <trkpt lat="44.61647" lon="5.98624">
        <ele>1136</ele>
        <time>2023-05-15T09:52:19Z</time>
      </trkpt>
      <trkpt lat="44.61647" lon="5.98624">
        <ele>1135.8</ele>
        <time>2023-05-15T09:52:20Z</time>
      </trkpt>
      <trkpt lat="44.6165" lon="5.98621">
        <ele>1135.6</ele>
        <time>2023-05-15T09:52:21Z</time>
      </trkpt>
      <trkpt lat="44.61651" lon="5.9862">
        <ele>1135.2</ele>
        <time>2023-05-15T09:52:22Z</time>
      </trkpt>
      <trkpt lat="44.61651" lon="5.9862">
        <ele>1135.2</ele>
        <time>2023-05-15T09:52:23Z</time>
      </trkpt>
      <trkpt lat="44.61651" lon="5.9862">
        <ele>1134.6</ele>
        <time>2023-05-15T09:52:33Z</time>
      </trkpt>
      <trkpt lat="44.61651" lon="5.9862">
        <ele>1134.4</ele>
        <time>2023-05-15T09:52:34Z</time>
      </trkpt>
      <trkpt lat="44.61651" lon="5.9862">
        <ele>1134</ele>
        <time>2023-05-15T09:52:43Z</time>
      </trkpt>
      <trkpt lat="44.61652" lon="5.9862">
        <ele>1134</ele>
        <time>2023-05-15T09:52:53Z</time>
      </trkpt>
      <trkpt lat="44.61652" lon="5.9862">
        <ele>1134.2</ele>
        <time>2023-05-15T09:52:54Z</time>
      </trkpt>
      <trkpt lat="44.61652" lon="5.9862">
        <ele>1134.2</ele>
        <time>2023-05-15T09:52:55Z</time>
      </trkpt>
      <trkpt lat="44.61652" lon="5.9862">
        <ele>1134.4</ele>
        <time>2023-05-15T09:52:56Z</time>
      </trkpt>
      <trkpt lat="44.61656" lon="5.9862">
        <ele>1134.8</ele>
        <time>2023-05-15T09:53:02Z</time>
      </trkpt>
      <trkpt lat="44.61656" lon="5.98621">
        <ele>1134.8</ele>
        <time>2023-05-15T09:53:03Z</time>
      </trkpt>
      <trkpt lat="44.61656" lon="5.98621">
        <ele>1134.8</ele>
        <time>2023-05-15T09:53:04Z</time>
      </trkpt>
      <trkpt lat="44.61657" lon="5.98621">
        <ele>1135</ele>
        <time>2023-05-15T09:53:05Z</time>
      </trkpt>
      <trkpt lat="44.61658" lon="5.98621">
        <ele>1135</ele>
        <time>2023-05-15T09:53:07Z</time>
      </trkpt>
      <trkpt lat="44.61659" lon="5.98621">
        <ele>1135</ele>
        <time>2023-05-15T09:53:08Z</time>
      </trkpt>
      <trkpt lat="44.6166" lon="5.9862">
        <ele>1135.4</ele>
        <time>2023-05-15T09:53:11Z</time>
      </trkpt>
      <trkpt lat="44.61661" lon="5.9862">
        <ele>1135.4</ele>
        <time>2023-05-15T09:53:12Z</time>
      </trkpt>
      <trkpt lat="44.61661" lon="5.9862">
        <ele>1135.6</ele>
        <time>2023-05-15T09:53:13Z</time>
      </trkpt>
      <trkpt lat="44.61662" lon="5.9862">
        <ele>1136.2</ele>
        <time>2023-05-15T09:53:14Z</time>
      </trkpt>
      <trkpt lat="44.61663" lon="5.98621">
        <ele>1136.6</ele>
        <time>2023-05-15T09:53:15Z</time>
      </trkpt>
      <trkpt lat="44.61663" lon="5.98621">
        <ele>1136.6</ele>
        <time>2023-05-15T09:53:16Z</time>
      </trkpt>
      <trkpt lat="44.61664" lon="5.98621">
        <ele>1136.8</ele>
        <time>2023-05-15T09:53:17Z</time>
      </trkpt>
      <trkpt lat="44.61664" lon="5.98622">
        <ele>1137</ele>
        <time>2023-05-15T09:53:18Z</time>
      </trkpt>
      <trkpt lat="44.61664" lon="5.98622">
        <ele>1137</ele>
        <time>2023-05-15T09:53:19Z</time>
      </trkpt>
      <trkpt lat="44.61665" lon="5.98622">
        <ele>1137</ele>
        <time>2023-05-15T09:53:20Z</time>
      </trkpt>
      <trkpt lat="44.61665" lon="5.98622">
        <ele>1137</ele>
        <time>2023-05-15T09:53:21Z</time>
      </trkpt>
      <trkpt lat="44.61665" lon="5.98622">
        <ele>1137.2</ele>
        <time>2023-05-15T09:53:25Z</time>
      </trkpt>
      <trkpt lat="44.61666" lon="5.98623">
        <ele>1137.6</ele>
        <time>2023-05-15T09:53:30Z</time>
      </trkpt>
      <trkpt lat="44.61667" lon="5.98623">
        <ele>1137.6</ele>
        <time>2023-05-15T09:53:31Z</time>
      </trkpt>
      <trkpt lat="44.61669" lon="5.98624">
        <ele>1138</ele>
        <time>2023-05-15T09:53:35Z</time>
      </trkpt>
      <trkpt lat="44.61671" lon="5.98624">
        <ele>1138.2</ele>
        <time>2023-05-15T09:53:38Z</time>
      </trkpt>
      <trkpt lat="44.61672" lon="5.98625">
        <ele>1138</ele>
        <time>2023-05-15T09:53:39Z</time>
      </trkpt>
      <trkpt lat="44.61674" lon="5.98624">
        <ele>1138.4</ele>
        <time>2023-05-15T09:53:42Z</time>
      </trkpt>
      <trkpt lat="44.61675" lon="5.98624">
        <ele>1138.4</ele>
        <time>2023-05-15T09:53:43Z</time>
      </trkpt>
      <trkpt lat="44.61676" lon="5.98625">
        <ele>1138.6</ele>
        <time>2023-05-15T09:53:44Z</time>
      </trkpt>
      <trkpt lat="44.61676" lon="5.98625">
        <ele>1138.6</ele>
        <time>2023-05-15T09:53:45Z</time>
      </trkpt>
      <trkpt lat="44.61676" lon="5.98625">
        <ele>1138.8</ele>
        <time>2023-05-15T09:53:46Z</time>
      </trkpt>
      <trkpt lat="44.61676" lon="5.98625">
        <ele>1139.2</ele>
        <time>2023-05-15T09:53:49Z</time>
      </trkpt>
      <trkpt lat="44.61676" lon="5.98625">
        <ele>1139.6</ele>
        <time>2023-05-15T09:53:51Z</time>
      </trkpt>
      <trkpt lat="44.61678" lon="5.98626">
        <ele>1139.8</ele>
        <time>2023-05-15T09:53:58Z</time>
      </trkpt>
      <trkpt lat="44.6168" lon="5.98626">
        <ele>1140</ele>
        <time>2023-05-15T09:54:02Z</time>
      </trkpt>
      <trkpt lat="44.6168" lon="5.98627">
        <ele>1140.2</ele>
        <time>2023-05-15T09:54:06Z</time>
      </trkpt>
      <trkpt lat="44.6168" lon="5.98628">
        <ele>1140.6</ele>
        <time>2023-05-15T09:54:13Z</time>
      </trkpt>
      <trkpt lat="44.61682" lon="5.98629">
        <ele>1141.6</ele>
        <time>2023-05-15T09:54:17Z</time>
      </trkpt>
      <trkpt lat="44.61682" lon="5.98629">
        <ele>1142</ele>
        <time>2023-05-15T09:54:18Z</time>
      </trkpt>
      <trkpt lat="44.61684" lon="5.9863">
        <ele>1142.4</ele>
        <time>2023-05-15T09:54:24Z</time>
      </trkpt>
      <trkpt lat="44.61685" lon="5.9863">
        <ele>1142.4</ele>
        <time>2023-05-15T09:54:26Z</time>
      </trkpt>
      <trkpt lat="44.61686" lon="5.9863">
        <ele>1142.4</ele>
        <time>2023-05-15T09:54:27Z</time>
      </trkpt>
      <trkpt lat="44.61686" lon="5.9863">
        <ele>1142.6</ele>
        <time>2023-05-15T09:54:28Z</time>
      </trkpt>
      <trkpt lat="44.61686" lon="5.9863">
        <ele>1142.6</ele>
        <time>2023-05-15T09:54:29Z</time>
      </trkpt>
      <trkpt lat="44.61688" lon="5.98631">
        <ele>1142.8</ele>
        <time>2023-05-15T09:54:31Z</time>
      </trkpt>
      <trkpt lat="44.61689" lon="5.98631">
        <ele>1142.8</ele>
        <time>2023-05-15T09:54:32Z</time>
      </trkpt>
      <trkpt lat="44.61689" lon="5.98631">
        <ele>1143</ele>
        <time>2023-05-15T09:54:33Z</time>
      </trkpt>
      <trkpt lat="44.61691" lon="5.98631">
        <ele>1143.2</ele>
        <time>2023-05-15T09:54:35Z</time>
      </trkpt>
      <trkpt lat="44.61694" lon="5.98632">
        <ele>1143.6</ele>
        <time>2023-05-15T09:54:38Z</time>
      </trkpt>
      <trkpt lat="44.61696" lon="5.98632">
        <ele>1143.8</ele>
        <time>2023-05-15T09:54:44Z</time>
      </trkpt>
      <trkpt lat="44.617" lon="5.98632">
        <ele>1143.4</ele>
        <time>2023-05-15T09:54:51Z</time>
      </trkpt>
      <trkpt lat="44.617" lon="5.98632">
        <ele>1143.4</ele>
        <time>2023-05-15T09:54:52Z</time>
      </trkpt>
      <trkpt lat="44.61702" lon="5.98633">
        <ele>1143.4</ele>
        <time>2023-05-15T09:54:56Z</time>
      </trkpt>
      <trkpt lat="44.61707" lon="5.98634">
        <ele>1143.4</ele>
        <time>2023-05-15T09:54:59Z</time>
      </trkpt>
      <trkpt lat="44.61717" lon="5.98634">
        <ele>1143.6</ele>
        <time>2023-05-15T09:55:04Z</time>
      </trkpt>
      <trkpt lat="44.61721" lon="5.98634">
        <ele>1143.8</ele>
        <time>2023-05-15T09:55:07Z</time>
      </trkpt>
      <trkpt lat="44.61724" lon="5.98634">
        <ele>1143.8</ele>
        <time>2023-05-15T09:55:09Z</time>
      </trkpt>
      <trkpt lat="44.61726" lon="5.98634">
        <ele>1143.8</ele>
        <time>2023-05-15T09:55:10Z</time>
      </trkpt>
      <trkpt lat="44.61728" lon="5.98634">
        <ele>1143.8</ele>
        <time>2023-05-15T09:55:11Z</time>
      </trkpt>
      <trkpt lat="44.61731" lon="5.98635">
        <ele>1144</ele>
        <time>2023-05-15T09:55:13Z</time>
      </trkpt>
      <trkpt lat="44.61733" lon="5.98635">
        <ele>1144</ele>
        <time>2023-05-15T09:55:14Z</time>
      </trkpt>
      <trkpt lat="44.61734" lon="5.98636">
        <ele>1144</ele>
        <time>2023-05-15T09:55:15Z</time>
      </trkpt>
      <trkpt lat="44.61736" lon="5.98637">
        <ele>1144.2</ele>
        <time>2023-05-15T09:55:16Z</time>
      </trkpt>
      <trkpt lat="44.61737" lon="5.98637">
        <ele>1144.4</ele>
        <time>2023-05-15T09:55:17Z</time>
      </trkpt>
      <trkpt lat="44.61737" lon="5.98637">
        <ele>1144.4</ele>
        <time>2023-05-15T09:55:18Z</time>
      </trkpt>
      <trkpt lat="44.61737" lon="5.98636">
        <ele>1144.8</ele>
        <time>2023-05-15T09:55:19Z</time>
      </trkpt>
      <trkpt lat="44.61737" lon="5.98636">
        <ele>1145.2</ele>
        <time>2023-05-15T09:55:21Z</time>
      </trkpt>
      <trkpt lat="44.61737" lon="5.98636">
        <ele>1145.2</ele>
        <time>2023-05-15T09:55:22Z</time>
      </trkpt>
      <trkpt lat="44.6174" lon="5.98634">
        <ele>1145.6</ele>
        <time>2023-05-15T09:55:26Z</time>
      </trkpt>
      <trkpt lat="44.61744" lon="5.98631">
        <ele>1145.8</ele>
        <time>2023-05-15T09:55:29Z</time>
      </trkpt>
      <trkpt lat="44.61745" lon="5.98631">
        <ele>1146</ele>
        <time>2023-05-15T09:55:31Z</time>
      </trkpt>
      <trkpt lat="44.61746" lon="5.9863">
        <ele>1146</ele>
        <time>2023-05-15T09:55:32Z</time>
      </trkpt>
      <trkpt lat="44.61747" lon="5.9863">
        <ele>1146</ele>
        <time>2023-05-15T09:55:33Z</time>
      </trkpt>
      <trkpt lat="44.61748" lon="5.9863">
        <ele>1146</ele>
        <time>2023-05-15T09:55:34Z</time>
      </trkpt>
      <trkpt lat="44.61754" lon="5.98629">
        <ele>1146</ele>
        <time>2023-05-15T09:55:38Z</time>
      </trkpt>
      <trkpt lat="44.61757" lon="5.98627">
        <ele>1146</ele>
        <time>2023-05-15T09:55:40Z</time>
      </trkpt>
      <trkpt lat="44.61759" lon="5.98626">
        <ele>1146</ele>
        <time>2023-05-15T09:55:41Z</time>
      </trkpt>
      <trkpt lat="44.61759" lon="5.98626">
        <ele>1146</ele>
        <time>2023-05-15T09:55:42Z</time>
      </trkpt>
      <trkpt lat="44.61759" lon="5.98626">
        <ele>1145.8</ele>
        <time>2023-05-15T09:55:43Z</time>
      </trkpt>
      <trkpt lat="44.61759" lon="5.98626">
        <ele>1145.8</ele>
        <time>2023-05-15T09:55:44Z</time>
      </trkpt>
      <trkpt lat="44.61759" lon="5.98626">
        <ele>1145.8</ele>
        <time>2023-05-15T09:55:46Z</time>
      </trkpt>
      <trkpt lat="44.61761" lon="5.98627">
        <ele>1145.6</ele>
        <time>2023-05-15T09:55:51Z</time>
      </trkpt>
      <trkpt lat="44.61762" lon="5.98628">
        <ele>1145.6</ele>
        <time>2023-05-15T09:55:52Z</time>
      </trkpt>
      <trkpt lat="44.61763" lon="5.98628">
        <ele>1145.4</ele>
        <time>2023-05-15T09:55:53Z</time>
      </trkpt>
      <trkpt lat="44.61763" lon="5.98627">
        <ele>1145.4</ele>
        <time>2023-05-15T09:55:54Z</time>
      </trkpt>
      <trkpt lat="44.61763" lon="5.98627">
        <ele>1145.2</ele>
        <time>2023-05-15T09:55:55Z</time>
      </trkpt>
      <trkpt lat="44.61764" lon="5.98626">
        <ele>1145.2</ele>
        <time>2023-05-15T09:55:56Z</time>
      </trkpt>
      <trkpt lat="44.61765" lon="5.98625">
        <ele>1145</ele>
        <time>2023-05-15T09:55:57Z</time>
      </trkpt>
      <trkpt lat="44.61765" lon="5.98624">
        <ele>1144.8</ele>
        <time>2023-05-15T09:55:58Z</time>
      </trkpt>
      <trkpt lat="44.61766" lon="5.98622">
        <ele>1144.8</ele>
        <time>2023-05-15T09:55:59Z</time>
      </trkpt>
      <trkpt lat="44.61767" lon="5.98618">
        <ele>1144.8</ele>
        <time>2023-05-15T09:56:01Z</time>
      </trkpt>
      <trkpt lat="44.61768" lon="5.98615">
        <ele>1144.8</ele>
        <time>2023-05-15T09:56:02Z</time>
      </trkpt>
      <trkpt lat="44.6177" lon="5.98611">
        <ele>1144.8</ele>
        <time>2023-05-15T09:56:03Z</time>
      </trkpt>
      <trkpt lat="44.61778" lon="5.98598">
        <ele>1144.6</ele>
        <time>2023-05-15T09:56:06Z</time>
      </trkpt>
      <trkpt lat="44.61781" lon="5.98594">
        <ele>1144.6</ele>
        <time>2023-05-15T09:56:07Z</time>
      </trkpt>
      <trkpt lat="44.61784" lon="5.98587">
        <ele>1144.4</ele>
        <time>2023-05-15T09:56:09Z</time>
      </trkpt>
      <trkpt lat="44.61785" lon="5.98582">
        <ele>1144.2</ele>
        <time>2023-05-15T09:56:10Z</time>
      </trkpt>
      <trkpt lat="44.61785" lon="5.98578">
        <ele>1144</ele>
        <time>2023-05-15T09:56:11Z</time>
      </trkpt>
      <trkpt lat="44.61786" lon="5.98574">
        <ele>1143.8</ele>
        <time>2023-05-15T09:56:12Z</time>
      </trkpt>
      <trkpt lat="44.61787" lon="5.98571">
        <ele>1143</ele>
        <time>2023-05-15T09:56:13Z</time>
      </trkpt>
      <trkpt lat="44.61789" lon="5.98569">
        <ele>1142.8</ele>
        <time>2023-05-15T09:56:14Z</time>
      </trkpt>
      <trkpt lat="44.61789" lon="5.98568">
        <ele>1142.4</ele>
        <time>2023-05-15T09:56:15Z</time>
      </trkpt>
      <trkpt lat="44.61789" lon="5.98568">
        <ele>1142.2</ele>
        <time>2023-05-15T09:56:16Z</time>
      </trkpt>
      <trkpt lat="44.6179" lon="5.98566">
        <ele>1141.6</ele>
        <time>2023-05-15T09:56:18Z</time>
      </trkpt>
      <trkpt lat="44.6179" lon="5.98564">
        <ele>1141.8</ele>
        <time>2023-05-15T09:56:19Z</time>
      </trkpt>
      <trkpt lat="44.61796" lon="5.98548">
        <ele>1141.4</ele>
        <time>2023-05-15T09:56:25Z</time>
      </trkpt>
      <trkpt lat="44.61799" lon="5.98544">
        <ele>1141.4</ele>
        <time>2023-05-15T09:56:27Z</time>
      </trkpt>
      <trkpt lat="44.61801" lon="5.98542">
        <ele>1141.4</ele>
        <time>2023-05-15T09:56:28Z</time>
      </trkpt>
      <trkpt lat="44.61804" lon="5.98534">
        <ele>1141.4</ele>
        <time>2023-05-15T09:56:31Z</time>
      </trkpt>
      <trkpt lat="44.61816" lon="5.98517">
        <ele>1142</ele>
        <time>2023-05-15T09:56:37Z</time>
      </trkpt>
      <trkpt lat="44.61825" lon="5.98505">
        <ele>1141.6</ele>
        <time>2023-05-15T09:56:41Z</time>
      </trkpt>
      <trkpt lat="44.61826" lon="5.98503">
        <ele>1141.6</ele>
        <time>2023-05-15T09:56:42Z</time>
      </trkpt>
      <trkpt lat="44.61827" lon="5.98502">
        <ele>1141.6</ele>
        <time>2023-05-15T09:56:43Z</time>
      </trkpt>
      <trkpt lat="44.61828" lon="5.98501">
        <ele>1141.6</ele>
        <time>2023-05-15T09:56:44Z</time>
      </trkpt>
      <trkpt lat="44.61829" lon="5.985">
        <ele>1141.4</ele>
        <time>2023-05-15T09:56:45Z</time>
      </trkpt>
      <trkpt lat="44.6183" lon="5.985">
        <ele>1141.4</ele>
        <time>2023-05-15T09:56:46Z</time>
      </trkpt>
      <trkpt lat="44.61831" lon="5.98499">
        <ele>1141.4</ele>
        <time>2023-05-15T09:56:47Z</time>
      </trkpt>
      <trkpt lat="44.61832" lon="5.98499">
        <ele>1141.4</ele>
        <time>2023-05-15T09:56:48Z</time>
      </trkpt>
      <trkpt lat="44.61836" lon="5.98497">
        <ele>1141.8</ele>
        <time>2023-05-15T09:56:51Z</time>
      </trkpt>
      <trkpt lat="44.61837" lon="5.98497">
        <ele>1141.8</ele>
        <time>2023-05-15T09:56:52Z</time>
      </trkpt>
      <trkpt lat="44.61838" lon="5.98495">
        <ele>1142.2</ele>
        <time>2023-05-15T09:56:53Z</time>
      </trkpt>
      <trkpt lat="44.61839" lon="5.98494">
        <ele>1142.4</ele>
        <time>2023-05-15T09:56:54Z</time>
      </trkpt>
      <trkpt lat="44.61841" lon="5.98492">
        <ele>1142.4</ele>
        <time>2023-05-15T09:56:55Z</time>
      </trkpt>
      <trkpt lat="44.61845" lon="5.98487">
        <ele>1142.8</ele>
        <time>2023-05-15T09:56:58Z</time>
      </trkpt>
      <trkpt lat="44.61847" lon="5.98486">
        <ele>1142.8</ele>
        <time>2023-05-15T09:56:59Z</time>
      </trkpt>
      <trkpt lat="44.61848" lon="5.98484">
        <ele>1143</ele>
        <time>2023-05-15T09:57:00Z</time>
      </trkpt>
      <trkpt lat="44.61849" lon="5.98484">
        <ele>1143.2</ele>
        <time>2023-05-15T09:57:01Z</time>
      </trkpt>
      <trkpt lat="44.6185" lon="5.98482">
        <ele>1143.2</ele>
        <time>2023-05-15T09:57:02Z</time>
      </trkpt>
      <trkpt lat="44.61854" lon="5.98479">
        <ele>1143.4</ele>
        <time>2023-05-15T09:57:05Z</time>
      </trkpt>
      <trkpt lat="44.61855" lon="5.98478">
        <ele>1143.4</ele>
        <time>2023-05-15T09:57:06Z</time>
      </trkpt>
      <trkpt lat="44.61856" lon="5.98477">
        <ele>1143.2</ele>
        <time>2023-05-15T09:57:07Z</time>
      </trkpt>
      <trkpt lat="44.6186" lon="5.98476">
        <ele>1143.4</ele>
        <time>2023-05-15T09:57:10Z</time>
      </trkpt>
      <trkpt lat="44.61861" lon="5.98476">
        <ele>1143.4</ele>
        <time>2023-05-15T09:57:11Z</time>
      </trkpt>
      <trkpt lat="44.61862" lon="5.98476">
        <ele>1143.4</ele>
        <time>2023-05-15T09:57:12Z</time>
      </trkpt>
      <trkpt lat="44.61863" lon="5.98476">
        <ele>1143.4</ele>
        <time>2023-05-15T09:57:13Z</time>
      </trkpt>
      <trkpt lat="44.61864" lon="5.98476">
        <ele>1143.6</ele>
        <time>2023-05-15T09:57:14Z</time>
      </trkpt>
      <trkpt lat="44.61865" lon="5.98475">
        <ele>1143.6</ele>
        <time>2023-05-15T09:57:15Z</time>
      </trkpt>
      <trkpt lat="44.61866" lon="5.98475">
        <ele>1143.6</ele>
        <time>2023-05-15T09:57:16Z</time>
      </trkpt>
      <trkpt lat="44.61868" lon="5.98474">
        <ele>1143.6</ele>
        <time>2023-05-15T09:57:17Z</time>
      </trkpt>
      <trkpt lat="44.61869" lon="5.98474">
        <ele>1143.8</ele>
        <time>2023-05-15T09:57:18Z</time>
      </trkpt>
      <trkpt lat="44.6187" lon="5.98474">
        <ele>1144</ele>
        <time>2023-05-15T09:57:19Z</time>
      </trkpt>
      <trkpt lat="44.61871" lon="5.98473">
        <ele>1144.2</ele>
        <time>2023-05-15T09:57:20Z</time>
      </trkpt>
      <trkpt lat="44.61873" lon="5.98472">
        <ele>1144.8</ele>
        <time>2023-05-15T09:57:22Z</time>
      </trkpt>
      <trkpt lat="44.61873" lon="5.98472">
        <ele>1145.2</ele>
        <time>2023-05-15T09:57:23Z</time>
      </trkpt>
      <trkpt lat="44.61874" lon="5.98472">
        <ele>1145.4</ele>
        <time>2023-05-15T09:57:24Z</time>
      </trkpt>
      <trkpt lat="44.61875" lon="5.98472">
        <ele>1145.8</ele>
        <time>2023-05-15T09:57:26Z</time>
      </trkpt>
      <trkpt lat="44.61875" lon="5.98472">
        <ele>1146.4</ele>
        <time>2023-05-15T09:57:30Z</time>
      </trkpt>
      <trkpt lat="44.61875" lon="5.98472">
        <ele>1146.4</ele>
        <time>2023-05-15T09:57:41Z</time>
      </trkpt>
      <trkpt lat="44.61877" lon="5.98471">
        <ele>1146.4</ele>
        <time>2023-05-15T09:57:55Z</time>
      </trkpt>
      <trkpt lat="44.61878" lon="5.98472">
        <ele>1146.6</ele>
        <time>2023-05-15T09:57:56Z</time>
      </trkpt>
      <trkpt lat="44.61878" lon="5.98472">
        <ele>1146.6</ele>
        <time>2023-05-15T09:57:57Z</time>
      </trkpt>
      <trkpt lat="44.61878" lon="5.98472">
        <ele>1146.6</ele>
        <time>2023-05-15T09:57:58Z</time>
      </trkpt>
      <trkpt lat="44.61881" lon="5.98471">
        <ele>1146.8</ele>
        <time>2023-05-15T09:58:02Z</time>
      </trkpt>
      <trkpt lat="44.61882" lon="5.98471">
        <ele>1147</ele>
        <time>2023-05-15T09:58:03Z</time>
      </trkpt>
      <trkpt lat="44.61884" lon="5.9847">
        <ele>1147.4</ele>
        <time>2023-05-15T09:58:08Z</time>
      </trkpt>
      <trkpt lat="44.61889" lon="5.98467">
        <ele>1148.4</ele>
        <time>2023-05-15T09:58:15Z</time>
      </trkpt>
      <trkpt lat="44.6189" lon="5.98467">
        <ele>1148.4</ele>
        <time>2023-05-15T09:58:16Z</time>
      </trkpt>
      <trkpt lat="44.6189" lon="5.98467">
        <ele>1148.6</ele>
        <time>2023-05-15T09:58:17Z</time>
      </trkpt>
      <trkpt lat="44.61891" lon="5.98466">
        <ele>1148.6</ele>
        <time>2023-05-15T09:58:18Z</time>
      </trkpt>
      <trkpt lat="44.61892" lon="5.98466">
        <ele>1149</ele>
        <time>2023-05-15T09:58:21Z</time>
      </trkpt>
      <trkpt lat="44.61892" lon="5.98466">
        <ele>1149.4</ele>
        <time>2023-05-15T09:58:22Z</time>
      </trkpt>
      <trkpt lat="44.61892" lon="5.98465">
        <ele>1149.6</ele>
        <time>2023-05-15T09:58:23Z</time>
      </trkpt>
      <trkpt lat="44.61893" lon="5.98465">
        <ele>1149.8</ele>
        <time>2023-05-15T09:58:24Z</time>
      </trkpt>
      <trkpt lat="44.61893" lon="5.98465">
        <ele>1149.8</ele>
        <time>2023-05-15T09:58:25Z</time>
      </trkpt>
      <trkpt lat="44.61894" lon="5.98465">
        <ele>1150</ele>
        <time>2023-05-15T09:58:26Z</time>
      </trkpt>
      <trkpt lat="44.61894" lon="5.98464">
        <ele>1150</ele>
        <time>2023-05-15T09:58:27Z</time>
      </trkpt>
      <trkpt lat="44.61894" lon="5.98464">
        <ele>1150.2</ele>
        <time>2023-05-15T09:58:28Z</time>
      </trkpt>
      <trkpt lat="44.61894" lon="5.98464">
        <ele>1150.2</ele>
        <time>2023-05-15T09:58:29Z</time>
      </trkpt>
      <trkpt lat="44.61895" lon="5.98464">
        <ele>1150.6</ele>
        <time>2023-05-15T09:58:31Z</time>
      </trkpt>
      <trkpt lat="44.61895" lon="5.98463">
        <ele>1150.6</ele>
        <time>2023-05-15T09:58:32Z</time>
      </trkpt>
      <trkpt lat="44.61896" lon="5.98463">
        <ele>1150.8</ele>
        <time>2023-05-15T09:58:33Z</time>
      </trkpt>
      <trkpt lat="44.61897" lon="5.98462">
        <ele>1150.8</ele>
        <time>2023-05-15T09:58:34Z</time>
      </trkpt>
      <trkpt lat="44.61897" lon="5.98462">
        <ele>1151</ele>
        <time>2023-05-15T09:58:35Z</time>
      </trkpt>
      <trkpt lat="44.61898" lon="5.98462">
        <ele>1151.2</ele>
        <time>2023-05-15T09:58:36Z</time>
      </trkpt>
      <trkpt lat="44.61898" lon="5.98461">
        <ele>1151.4</ele>
        <time>2023-05-15T09:58:37Z</time>
      </trkpt>
      <trkpt lat="44.61899" lon="5.98461">
        <ele>1151.6</ele>
        <time>2023-05-15T09:58:38Z</time>
      </trkpt>
      <trkpt lat="44.61899" lon="5.9846">
        <ele>1151.8</ele>
        <time>2023-05-15T09:58:39Z</time>
      </trkpt>
      <trkpt lat="44.619" lon="5.9846">
        <ele>1152.2</ele>
        <time>2023-05-15T09:58:40Z</time>
      </trkpt>
      <trkpt lat="44.61901" lon="5.9846">
        <ele>1152.2</ele>
        <time>2023-05-15T09:58:41Z</time>
      </trkpt>
      <trkpt lat="44.61901" lon="5.98459">
        <ele>1152.6</ele>
        <time>2023-05-15T09:58:42Z</time>
      </trkpt>
      <trkpt lat="44.61901" lon="5.98459">
        <ele>1152.6</ele>
        <time>2023-05-15T09:58:43Z</time>
      </trkpt>
      <trkpt lat="44.61901" lon="5.98459">
        <ele>1153.2</ele>
        <time>2023-05-15T09:58:46Z</time>
      </trkpt>
      <trkpt lat="44.61901" lon="5.98459">
        <ele>1153.2</ele>
        <time>2023-05-15T09:58:47Z</time>
      </trkpt>
      <trkpt lat="44.61902" lon="5.98459">
        <ele>1153.4</ele>
        <time>2023-05-15T09:58:48Z</time>
      </trkpt>
      <trkpt lat="44.61903" lon="5.98458">
        <ele>1153.4</ele>
        <time>2023-05-15T09:58:49Z</time>
      </trkpt>
      <trkpt lat="44.61903" lon="5.98458">
        <ele>1153.6</ele>
        <time>2023-05-15T09:58:50Z</time>
      </trkpt>
      <trkpt lat="44.61903" lon="5.98458">
        <ele>1153.8</ele>
        <time>2023-05-15T09:58:51Z</time>
      </trkpt>
      <trkpt lat="44.61904" lon="5.98458">
        <ele>1153.8</ele>
        <time>2023-05-15T09:58:52Z</time>
      </trkpt>
      <trkpt lat="44.61904" lon="5.98458">
        <ele>1154</ele>
        <time>2023-05-15T09:58:53Z</time>
      </trkpt>
      <trkpt lat="44.61904" lon="5.98457">
        <ele>1153.8</ele>
        <time>2023-05-15T09:58:54Z</time>
      </trkpt>
      <trkpt lat="44.61904" lon="5.98457">
        <ele>1154.4</ele>
        <time>2023-05-15T09:58:55Z</time>
      </trkpt>
      <trkpt lat="44.61904" lon="5.98457">
        <ele>1154.4</ele>
        <time>2023-05-15T09:58:56Z</time>
      </trkpt>
      <trkpt lat="44.61905" lon="5.98457">
        <ele>1154.6</ele>
        <time>2023-05-15T09:58:57Z</time>
      </trkpt>
      <trkpt lat="44.61905" lon="5.98456">
        <ele>1154.8</ele>
        <time>2023-05-15T09:58:58Z</time>
      </trkpt>
      <trkpt lat="44.61906" lon="5.98456">
        <ele>1155</ele>
        <time>2023-05-15T09:58:59Z</time>
      </trkpt>
      <trkpt lat="44.61908" lon="5.98455">
        <ele>1155.4</ele>
        <time>2023-05-15T09:59:00Z</time>
      </trkpt>
      <trkpt lat="44.61909" lon="5.98455">
        <ele>1155.8</ele>
        <time>2023-05-15T09:59:01Z</time>
      </trkpt>
      <trkpt lat="44.61909" lon="5.98455">
        <ele>1156.2</ele>
        <time>2023-05-15T09:59:02Z</time>
      </trkpt>
      <trkpt lat="44.6191" lon="5.98455">
        <ele>1156.2</ele>
        <time>2023-05-15T09:59:03Z</time>
      </trkpt>
      <trkpt lat="44.61911" lon="5.98455">
        <ele>1156.4</ele>
        <time>2023-05-15T09:59:04Z</time>
      </trkpt>
      <trkpt lat="44.61912" lon="5.98454">
        <ele>1156.6</ele>
        <time>2023-05-15T09:59:05Z</time>
      </trkpt>
      <trkpt lat="44.61912" lon="5.98454">
        <ele>1156.6</ele>
        <time>2023-05-15T09:59:06Z</time>
      </trkpt>
      <trkpt lat="44.61912" lon="5.98454">
        <ele>1156.6</ele>
        <time>2023-05-15T09:59:07Z</time>
      </trkpt>
      <trkpt lat="44.61912" lon="5.98454">
        <ele>1156.6</ele>
        <time>2023-05-15T09:59:09Z</time>
      </trkpt>
      <trkpt lat="44.61913" lon="5.98453">
        <ele>1156.6</ele>
        <time>2023-05-15T09:59:12Z</time>
      </trkpt>
      <trkpt lat="44.61914" lon="5.98453">
        <ele>1156.6</ele>
        <time>2023-05-15T09:59:13Z</time>
      </trkpt>
      <trkpt lat="44.61916" lon="5.98452">
        <ele>1156.6</ele>
        <time>2023-05-15T09:59:14Z</time>
      </trkpt>
      <trkpt lat="44.61918" lon="5.98452">
        <ele>1156.6</ele>
        <time>2023-05-15T09:59:15Z</time>
      </trkpt>
      <trkpt lat="44.61919" lon="5.98451">
        <ele>1156.6</ele>
        <time>2023-05-15T09:59:16Z</time>
      </trkpt>
      <trkpt lat="44.61921" lon="5.9845">
        <ele>1156.6</ele>
        <time>2023-05-15T09:59:17Z</time>
      </trkpt>
      <trkpt lat="44.61923" lon="5.9845">
        <ele>1156.8</ele>
        <time>2023-05-15T09:59:18Z</time>
      </trkpt>
      <trkpt lat="44.61924" lon="5.98449">
        <ele>1156.8</ele>
        <time>2023-05-15T09:59:19Z</time>
      </trkpt>
      <trkpt lat="44.61926" lon="5.98448">
        <ele>1157.2</ele>
        <time>2023-05-15T09:59:20Z</time>
      </trkpt>
      <trkpt lat="44.61928" lon="5.98447">
        <ele>1157.4</ele>
        <time>2023-05-15T09:59:21Z</time>
      </trkpt>
      <trkpt lat="44.6193" lon="5.98447">
        <ele>1157.4</ele>
        <time>2023-05-15T09:59:22Z</time>
      </trkpt>
      <trkpt lat="44.61932" lon="5.98446">
        <ele>1157.8</ele>
        <time>2023-05-15T09:59:23Z</time>
      </trkpt>
      <trkpt lat="44.61934" lon="5.98444">
        <ele>1158</ele>
        <time>2023-05-15T09:59:24Z</time>
      </trkpt>
      <trkpt lat="44.61936" lon="5.98442">
        <ele>1158</ele>
        <time>2023-05-15T09:59:25Z</time>
      </trkpt>
      <trkpt lat="44.61938" lon="5.98441">
        <ele>1158.2</ele>
        <time>2023-05-15T09:59:26Z</time>
      </trkpt>
      <trkpt lat="44.6194" lon="5.9844">
        <ele>1158.4</ele>
        <time>2023-05-15T09:59:27Z</time>
      </trkpt>
      <trkpt lat="44.61942" lon="5.98441">
        <ele>1158.4</ele>
        <time>2023-05-15T09:59:28Z</time>
      </trkpt>
      <trkpt lat="44.61943" lon="5.98441">
        <ele>1158.4</ele>
        <time>2023-05-15T09:59:29Z</time>
      </trkpt>
      <trkpt lat="44.61945" lon="5.9844">
        <ele>1158.4</ele>
        <time>2023-05-15T09:59:30Z</time>
      </trkpt>
      <trkpt lat="44.61948" lon="5.98439">
        <ele>1158.4</ele>
        <time>2023-05-15T09:59:31Z</time>
      </trkpt>
      <trkpt lat="44.6195" lon="5.98438">
        <ele>1158.4</ele>
        <time>2023-05-15T09:59:32Z</time>
      </trkpt>
      <trkpt lat="44.61952" lon="5.98436">
        <ele>1158.4</ele>
        <time>2023-05-15T09:59:33Z</time>
      </trkpt>
      <trkpt lat="44.61955" lon="5.98434">
        <ele>1158.2</ele>
        <time>2023-05-15T09:59:34Z</time>
      </trkpt>
      <trkpt lat="44.61957" lon="5.98432">
        <ele>1158.2</ele>
        <time>2023-05-15T09:59:35Z</time>
      </trkpt>
      <trkpt lat="44.61959" lon="5.98431">
        <ele>1158</ele>
        <time>2023-05-15T09:59:36Z</time>
      </trkpt>
      <trkpt lat="44.61965" lon="5.98427">
        <ele>1157.6</ele>
        <time>2023-05-15T09:59:40Z</time>
      </trkpt>
      <trkpt lat="44.61965" lon="5.98427">
        <ele>1157.6</ele>
        <time>2023-05-15T09:59:41Z</time>
      </trkpt>
      <trkpt lat="44.61965" lon="5.98427">
        <ele>1157.6</ele>
        <time>2023-05-15T09:59:42Z</time>
      </trkpt>
      <trkpt lat="44.61968" lon="5.98424">
        <ele>1157.6</ele>
        <time>2023-05-15T09:59:46Z</time>
      </trkpt>
      <trkpt lat="44.61969" lon="5.98423">
        <ele>1157.8</ele>
        <time>2023-05-15T09:59:48Z</time>
      </trkpt>
      <trkpt lat="44.6197" lon="5.98423">
        <ele>1157.8</ele>
        <time>2023-05-15T09:59:49Z</time>
      </trkpt>
      <trkpt lat="44.6197" lon="5.98423">
        <ele>1158</ele>
        <time>2023-05-15T09:59:52Z</time>
      </trkpt>
      <trkpt lat="44.6197" lon="5.98424">
        <ele>1157.8</ele>
        <time>2023-05-15T10:00:03Z</time>
      </trkpt>
      <trkpt lat="44.61975" lon="5.98423">
        <ele>1157.8</ele>
        <time>2023-05-15T10:00:09Z</time>
      </trkpt>
      <trkpt lat="44.61981" lon="5.98422">
        <ele>1158</ele>
        <time>2023-05-15T10:00:12Z</time>
      </trkpt>
      <trkpt lat="44.61984" lon="5.98422">
        <ele>1158</ele>
        <time>2023-05-15T10:00:13Z</time>
      </trkpt>
      <trkpt lat="44.61986" lon="5.98421">
        <ele>1158</ele>
        <time>2023-05-15T10:00:14Z</time>
      </trkpt>
      <trkpt lat="44.61989" lon="5.98421">
        <ele>1158.2</ele>
        <time>2023-05-15T10:00:16Z</time>
      </trkpt>
      <trkpt lat="44.6199" lon="5.9842">
        <ele>1158.2</ele>
        <time>2023-05-15T10:00:17Z</time>
      </trkpt>
      <trkpt lat="44.61992" lon="5.9842">
        <ele>1158.2</ele>
        <time>2023-05-15T10:00:18Z</time>
      </trkpt>
      <trkpt lat="44.61993" lon="5.98421">
        <ele>1158.2</ele>
        <time>2023-05-15T10:00:19Z</time>
      </trkpt>
      <trkpt lat="44.61995" lon="5.9842">
        <ele>1158.2</ele>
        <time>2023-05-15T10:00:20Z</time>
      </trkpt>
      <trkpt lat="44.61998" lon="5.98418">
        <ele>1158.2</ele>
        <time>2023-05-15T10:00:22Z</time>
      </trkpt>
      <trkpt lat="44.62" lon="5.98419">
        <ele>1158.2</ele>
        <time>2023-05-15T10:00:23Z</time>
      </trkpt>
      <trkpt lat="44.62002" lon="5.9842">
        <ele>1158.2</ele>
        <time>2023-05-15T10:00:24Z</time>
      </trkpt>
      <trkpt lat="44.62005" lon="5.9842">
        <ele>1158.2</ele>
        <time>2023-05-15T10:00:25Z</time>
      </trkpt>
      <trkpt lat="44.62008" lon="5.98419">
        <ele>1158.2</ele>
        <time>2023-05-15T10:00:26Z</time>
      </trkpt>
      <trkpt lat="44.62014" lon="5.98417">
        <ele>1158</ele>
        <time>2023-05-15T10:00:28Z</time>
      </trkpt>
      <trkpt lat="44.62016" lon="5.98416">
        <ele>1158</ele>
        <time>2023-05-15T10:00:29Z</time>
      </trkpt>
      <trkpt lat="44.62018" lon="5.98414">
        <ele>1157.4</ele>
        <time>2023-05-15T10:00:30Z</time>
      </trkpt>
      <trkpt lat="44.6202" lon="5.98413">
        <ele>1157.2</ele>
        <time>2023-05-15T10:00:31Z</time>
      </trkpt>
      <trkpt lat="44.62023" lon="5.9841">
        <ele>1156</ele>
        <time>2023-05-15T10:00:33Z</time>
      </trkpt>
      <trkpt lat="44.62027" lon="5.98407">
        <ele>1155</ele>
        <time>2023-05-15T10:00:35Z</time>
      </trkpt>
      <trkpt lat="44.62028" lon="5.98405">
        <ele>1155</ele>
        <time>2023-05-15T10:00:36Z</time>
      </trkpt>
      <trkpt lat="44.6203" lon="5.98403">
        <ele>1154.8</ele>
        <time>2023-05-15T10:00:37Z</time>
      </trkpt>
      <trkpt lat="44.62032" lon="5.98402">
        <ele>1154.8</ele>
        <time>2023-05-15T10:00:38Z</time>
      </trkpt>
      <trkpt lat="44.62034" lon="5.98401">
        <ele>1154.4</ele>
        <time>2023-05-15T10:00:39Z</time>
      </trkpt>
      <trkpt lat="44.62037" lon="5.98399">
        <ele>1154.4</ele>
        <time>2023-05-15T10:00:40Z</time>
      </trkpt>
      <trkpt lat="44.6204" lon="5.98398">
        <ele>1154.4</ele>
        <time>2023-05-15T10:00:41Z</time>
      </trkpt>
      <trkpt lat="44.62042" lon="5.98397">
        <ele>1154.2</ele>
        <time>2023-05-15T10:00:42Z</time>
      </trkpt>
      <trkpt lat="44.62047" lon="5.98396">
        <ele>1153.8</ele>
        <time>2023-05-15T10:00:45Z</time>
      </trkpt>
      <trkpt lat="44.62049" lon="5.98395">
        <ele>1153.4</ele>
        <time>2023-05-15T10:00:46Z</time>
      </trkpt>
      <trkpt lat="44.62056" lon="5.98389">
        <ele>1153</ele>
        <time>2023-05-15T10:00:51Z</time>
      </trkpt>
      <trkpt lat="44.62058" lon="5.98388">
        <ele>1153.8</ele>
        <time>2023-05-15T10:00:59Z</time>
      </trkpt>
      <trkpt lat="44.62059" lon="5.98388">
        <ele>1154</ele>
        <time>2023-05-15T10:01:01Z</time>
      </trkpt>
      <trkpt lat="44.62059" lon="5.98387">
        <ele>1154</ele>
        <time>2023-05-15T10:01:03Z</time>
      </trkpt>
      <trkpt lat="44.6206" lon="5.98387">
        <ele>1154</ele>
        <time>2023-05-15T10:01:04Z</time>
      </trkpt>
      <trkpt lat="44.62061" lon="5.98387">
        <ele>1154</ele>
        <time>2023-05-15T10:01:05Z</time>
      </trkpt>
      <trkpt lat="44.62062" lon="5.98386">
        <ele>1154</ele>
        <time>2023-05-15T10:01:07Z</time>
      </trkpt>
      <trkpt lat="44.62062" lon="5.98385">
        <ele>1154</ele>
        <time>2023-05-15T10:01:08Z</time>
      </trkpt>
      <trkpt lat="44.62063" lon="5.98384">
        <ele>1154</ele>
        <time>2023-05-15T10:01:10Z</time>
      </trkpt>
      <trkpt lat="44.62063" lon="5.98384">
        <ele>1154</ele>
        <time>2023-05-15T10:01:11Z</time>
      </trkpt>
      <trkpt lat="44.62063" lon="5.98384">
        <ele>1153.8</ele>
        <time>2023-05-15T10:01:13Z</time>
      </trkpt>
      <trkpt lat="44.62064" lon="5.98384">
        <ele>1153.8</ele>
        <time>2023-05-15T10:01:16Z</time>
      </trkpt>
      <trkpt lat="44.62064" lon="5.98384">
        <ele>1154</ele>
        <time>2023-05-15T10:01:21Z</time>
      </trkpt>
      <trkpt lat="44.62064" lon="5.98383">
        <ele>1154.6</ele>
        <time>2023-05-15T10:01:25Z</time>
      </trkpt>
      <trkpt lat="44.62066" lon="5.98381">
        <ele>1155</ele>
        <time>2023-05-15T10:01:30Z</time>
      </trkpt>
      <trkpt lat="44.62069" lon="5.98377">
        <ele>1155.2</ele>
        <time>2023-05-15T10:01:34Z</time>
      </trkpt>
      <trkpt lat="44.62069" lon="5.98377">
        <ele>1155.2</ele>
        <time>2023-05-15T10:01:35Z</time>
      </trkpt>
      <trkpt lat="44.62069" lon="5.98377">
        <ele>1155.4</ele>
        <time>2023-05-15T10:01:36Z</time>
      </trkpt>
      <trkpt lat="44.62071" lon="5.98375">
        <ele>1155.6</ele>
        <time>2023-05-15T10:01:38Z</time>
      </trkpt>
      <trkpt lat="44.62071" lon="5.98375">
        <ele>1155.6</ele>
        <time>2023-05-15T10:01:39Z</time>
      </trkpt>
      <trkpt lat="44.62074" lon="5.9837">
        <ele>1155.8</ele>
        <time>2023-05-15T10:01:44Z</time>
      </trkpt>
      <trkpt lat="44.62076" lon="5.98369">
        <ele>1156</ele>
        <time>2023-05-15T10:01:45Z</time>
      </trkpt>
      <trkpt lat="44.62081" lon="5.98362">
        <ele>1156</ele>
        <time>2023-05-15T10:01:49Z</time>
      </trkpt>
      <trkpt lat="44.62088" lon="5.98349">
        <ele>1155.8</ele>
        <time>2023-05-15T10:01:54Z</time>
      </trkpt>
      <trkpt lat="44.6209" lon="5.98347">
        <ele>1155.6</ele>
        <time>2023-05-15T10:01:55Z</time>
      </trkpt>
      <trkpt lat="44.62091" lon="5.98345">
        <ele>1155.6</ele>
        <time>2023-05-15T10:01:56Z</time>
      </trkpt>
      <trkpt lat="44.62092" lon="5.98343">
        <ele>1155.6</ele>
        <time>2023-05-15T10:01:57Z</time>
      </trkpt>
      <trkpt lat="44.62093" lon="5.98342">
        <ele>1155.4</ele>
        <time>2023-05-15T10:01:58Z</time>
      </trkpt>
      <trkpt lat="44.62094" lon="5.98341">
        <ele>1155.2</ele>
        <time>2023-05-15T10:01:59Z</time>
      </trkpt>
      <trkpt lat="44.62094" lon="5.9834">
        <ele>1155.2</ele>
        <time>2023-05-15T10:02:00Z</time>
      </trkpt>
      <trkpt lat="44.62095" lon="5.98337">
        <ele>1155</ele>
        <time>2023-05-15T10:02:02Z</time>
      </trkpt>
      <trkpt lat="44.62096" lon="5.98333">
        <ele>1155</ele>
        <time>2023-05-15T10:02:04Z</time>
      </trkpt>
      <trkpt lat="44.62097" lon="5.98331">
        <ele>1155</ele>
        <time>2023-05-15T10:02:05Z</time>
      </trkpt>
      <trkpt lat="44.62097" lon="5.9833">
        <ele>1154.8</ele>
        <time>2023-05-15T10:02:07Z</time>
      </trkpt>
      <trkpt lat="44.62097" lon="5.9833">
        <ele>1154.6</ele>
        <time>2023-05-15T10:02:08Z</time>
      </trkpt>
      <trkpt lat="44.62097" lon="5.9833">
        <ele>1154.2</ele>
        <time>2023-05-15T10:02:10Z</time>
      </trkpt>
      <trkpt lat="44.62097" lon="5.9833">
        <ele>1153.6</ele>
        <time>2023-05-15T10:02:12Z</time>
      </trkpt>
      <trkpt lat="44.62097" lon="5.98329">
        <ele>1153.6</ele>
        <time>2023-05-15T10:02:14Z</time>
      </trkpt>
      <trkpt lat="44.62099" lon="5.98326">
        <ele>1153.4</ele>
        <time>2023-05-15T10:02:19Z</time>
      </trkpt>
      <trkpt lat="44.621" lon="5.98325">
        <ele>1153.6</ele>
        <time>2023-05-15T10:02:20Z</time>
      </trkpt>
      <trkpt lat="44.621" lon="5.98324">
        <ele>1153.6</ele>
        <time>2023-05-15T10:02:21Z</time>
      </trkpt>
      <trkpt lat="44.62101" lon="5.98321">
        <ele>1153.4</ele>
        <time>2023-05-15T10:02:27Z</time>
      </trkpt>
      <trkpt lat="44.62102" lon="5.9832">
        <ele>1153.4</ele>
        <time>2023-05-15T10:02:29Z</time>
      </trkpt>
      <trkpt lat="44.62102" lon="5.9832">
        <ele>1153.4</ele>
        <time>2023-05-15T10:02:30Z</time>
      </trkpt>
      <trkpt lat="44.62102" lon="5.98318">
        <ele>1153.4</ele>
        <time>2023-05-15T10:02:33Z</time>
      </trkpt>
      <trkpt lat="44.62102" lon="5.98318">
        <ele>1153.4</ele>
        <time>2023-05-15T10:02:34Z</time>
      </trkpt>
      <trkpt lat="44.62102" lon="5.98317">
        <ele>1153.4</ele>
        <time>2023-05-15T10:02:35Z</time>
      </trkpt>
      <trkpt lat="44.62104" lon="5.98313">
        <ele>1153.4</ele>
        <time>2023-05-15T10:02:39Z</time>
      </trkpt>
      <trkpt lat="44.62105" lon="5.9831">
        <ele>1153.2</ele>
        <time>2023-05-15T10:02:42Z</time>
      </trkpt>
      <trkpt lat="44.62106" lon="5.98309">
        <ele>1153.2</ele>
        <time>2023-05-15T10:02:43Z</time>
      </trkpt>
      <trkpt lat="44.62109" lon="5.98305">
        <ele>1153</ele>
        <time>2023-05-15T10:02:49Z</time>
      </trkpt>
      <trkpt lat="44.62109" lon="5.98304">
        <ele>1153.2</ele>
        <time>2023-05-15T10:02:51Z</time>
      </trkpt>
      <trkpt lat="44.62111" lon="5.98301">
        <ele>1153.4</ele>
        <time>2023-05-15T10:02:53Z</time>
      </trkpt>
      <trkpt lat="44.62111" lon="5.983">
        <ele>1153.6</ele>
        <time>2023-05-15T10:02:54Z</time>
      </trkpt>
      <trkpt lat="44.62112" lon="5.98299">
        <ele>1153.8</ele>
        <time>2023-05-15T10:02:55Z</time>
      </trkpt>
      <trkpt lat="44.62113" lon="5.98298">
        <ele>1154</ele>
        <time>2023-05-15T10:02:56Z</time>
      </trkpt>
      <trkpt lat="44.62114" lon="5.98297">
        <ele>1154.2</ele>
        <time>2023-05-15T10:02:57Z</time>
      </trkpt>
      <trkpt lat="44.62115" lon="5.98293">
        <ele>1154.4</ele>
        <time>2023-05-15T10:03:00Z</time>
      </trkpt>
      <trkpt lat="44.62115" lon="5.98293">
        <ele>1154.6</ele>
        <time>2023-05-15T10:03:01Z</time>
      </trkpt>
      <trkpt lat="44.62115" lon="5.98293">
        <ele>1154.6</ele>
        <time>2023-05-15T10:03:02Z</time>
      </trkpt>
      <trkpt lat="44.62115" lon="5.98293">
        <ele>1154.8</ele>
        <time>2023-05-15T10:03:03Z</time>
      </trkpt>
      <trkpt lat="44.62115" lon="5.98293">
        <ele>1154.8</ele>
        <time>2023-05-15T10:03:04Z</time>
      </trkpt>
      <trkpt lat="44.62117" lon="5.98292">
        <ele>1154.8</ele>
        <time>2023-05-15T10:03:06Z</time>
      </trkpt>
      <trkpt lat="44.62118" lon="5.9829">
        <ele>1155.6</ele>
        <time>2023-05-15T10:03:10Z</time>
      </trkpt>
      <trkpt lat="44.62119" lon="5.9829">
        <ele>1155.6</ele>
        <time>2023-05-15T10:03:11Z</time>
      </trkpt>
      <trkpt lat="44.62119" lon="5.9829">
        <ele>1155.8</ele>
        <time>2023-05-15T10:03:12Z</time>
      </trkpt>
      <trkpt lat="44.62119" lon="5.9829">
        <ele>1156</ele>
        <time>2023-05-15T10:03:13Z</time>
      </trkpt>
      <trkpt lat="44.62122" lon="5.98286">
        <ele>1156.6</ele>
        <time>2023-05-15T10:03:18Z</time>
      </trkpt>
      <trkpt lat="44.62122" lon="5.98286">
        <ele>1156.8</ele>
        <time>2023-05-15T10:03:19Z</time>
      </trkpt>
      <trkpt lat="44.62122" lon="5.98286">
        <ele>1156.8</ele>
        <time>2023-05-15T10:03:20Z</time>
      </trkpt>
      <trkpt lat="44.62122" lon="5.98285">
        <ele>1157</ele>
        <time>2023-05-15T10:03:21Z</time>
      </trkpt>
      <trkpt lat="44.62123" lon="5.98284">
        <ele>1157</ele>
        <time>2023-05-15T10:03:22Z</time>
      </trkpt>
      <trkpt lat="44.62124" lon="5.98283">
        <ele>1157</ele>
        <time>2023-05-15T10:03:23Z</time>
      </trkpt>
      <trkpt lat="44.62125" lon="5.98283">
        <ele>1157</ele>
        <time>2023-05-15T10:03:24Z</time>
      </trkpt>
      <trkpt lat="44.62125" lon="5.98282">
        <ele>1157</ele>
        <time>2023-05-15T10:03:25Z</time>
      </trkpt>
      <trkpt lat="44.62126" lon="5.98282">
        <ele>1157</ele>
        <time>2023-05-15T10:03:26Z</time>
      </trkpt>
      <trkpt lat="44.62127" lon="5.98281">
        <ele>1157.2</ele>
        <time>2023-05-15T10:03:27Z</time>
      </trkpt>
      <trkpt lat="44.62127" lon="5.98281">
        <ele>1157.4</ele>
        <time>2023-05-15T10:03:28Z</time>
      </trkpt>
      <trkpt lat="44.62128" lon="5.98281">
        <ele>1157.6</ele>
        <time>2023-05-15T10:03:29Z</time>
      </trkpt>
      <trkpt lat="44.62128" lon="5.9828">
        <ele>1157.6</ele>
        <time>2023-05-15T10:03:30Z</time>
      </trkpt>
      <trkpt lat="44.62129" lon="5.98279">
        <ele>1157.6</ele>
        <time>2023-05-15T10:03:31Z</time>
      </trkpt>
      <trkpt lat="44.6213" lon="5.98278">
        <ele>1157.8</ele>
        <time>2023-05-15T10:03:32Z</time>
      </trkpt>
      <trkpt lat="44.62131" lon="5.98277">
        <ele>1158</ele>
        <time>2023-05-15T10:03:33Z</time>
      </trkpt>
      <trkpt lat="44.62132" lon="5.98276">
        <ele>1158</ele>
        <time>2023-05-15T10:03:34Z</time>
      </trkpt>
      <trkpt lat="44.62133" lon="5.98275">
        <ele>1158.4</ele>
        <time>2023-05-15T10:03:36Z</time>
      </trkpt>
      <trkpt lat="44.62134" lon="5.98275">
        <ele>1158.4</ele>
        <time>2023-05-15T10:03:37Z</time>
      </trkpt>
      <trkpt lat="44.62135" lon="5.98274">
        <ele>1158.4</ele>
        <time>2023-05-15T10:03:38Z</time>
      </trkpt>
      <trkpt lat="44.62136" lon="5.98274">
        <ele>1158.4</ele>
        <time>2023-05-15T10:03:39Z</time>
      </trkpt>
      <trkpt lat="44.62137" lon="5.98273">
        <ele>1158.8</ele>
        <time>2023-05-15T10:03:40Z</time>
      </trkpt>
      <trkpt lat="44.62138" lon="5.98273">
        <ele>1158.8</ele>
        <time>2023-05-15T10:03:41Z</time>
      </trkpt>
      <trkpt lat="44.62139" lon="5.98273">
        <ele>1159</ele>
        <time>2023-05-15T10:03:42Z</time>
      </trkpt>
      <trkpt lat="44.62139" lon="5.98272">
        <ele>1159</ele>
        <time>2023-05-15T10:03:43Z</time>
      </trkpt>
      <trkpt lat="44.6214" lon="5.98272">
        <ele>1159.2</ele>
        <time>2023-05-15T10:03:44Z</time>
      </trkpt>
      <trkpt lat="44.6214" lon="5.98273">
        <ele>1159.2</ele>
        <time>2023-05-15T10:03:45Z</time>
      </trkpt>
      <trkpt lat="44.6214" lon="5.98273">
        <ele>1159.2</ele>
        <time>2023-05-15T10:03:46Z</time>
      </trkpt>
      <trkpt lat="44.6214" lon="5.98273">
        <ele>1159.2</ele>
        <time>2023-05-15T10:03:47Z</time>
      </trkpt>
      <trkpt lat="44.62141" lon="5.98272">
        <ele>1159.8</ele>
        <time>2023-05-15T10:03:50Z</time>
      </trkpt>
      <trkpt lat="44.62142" lon="5.98271">
        <ele>1159.8</ele>
        <time>2023-05-15T10:03:51Z</time>
      </trkpt>
      <trkpt lat="44.62142" lon="5.98271">
        <ele>1159.8</ele>
        <time>2023-05-15T10:03:52Z</time>
      </trkpt>
      <trkpt lat="44.62143" lon="5.98271">
        <ele>1160</ele>
        <time>2023-05-15T10:03:53Z</time>
      </trkpt>
      <trkpt lat="44.62144" lon="5.9827">
        <ele>1160.4</ele>
        <time>2023-05-15T10:03:54Z</time>
      </trkpt>
      <trkpt lat="44.62145" lon="5.9827">
        <ele>1160.4</ele>
        <time>2023-05-15T10:03:55Z</time>
      </trkpt>
      <trkpt lat="44.62146" lon="5.98269">
        <ele>1160.6</ele>
        <time>2023-05-15T10:03:56Z</time>
      </trkpt>
      <trkpt lat="44.62147" lon="5.98269">
        <ele>1160.6</ele>
        <time>2023-05-15T10:03:57Z</time>
      </trkpt>
      <trkpt lat="44.62148" lon="5.98269">
        <ele>1161</ele>
        <time>2023-05-15T10:03:58Z</time>
      </trkpt>
      <trkpt lat="44.62148" lon="5.98269">
        <ele>1161.2</ele>
        <time>2023-05-15T10:03:59Z</time>
      </trkpt>
      <trkpt lat="44.62148" lon="5.98269">
        <ele>1161.2</ele>
        <time>2023-05-15T10:04:00Z</time>
      </trkpt>
      <trkpt lat="44.62148" lon="5.98269">
        <ele>1161.4</ele>
        <time>2023-05-15T10:04:01Z</time>
      </trkpt>
      <trkpt lat="44.62149" lon="5.98269">
        <ele>1161.8</ele>
        <time>2023-05-15T10:04:05Z</time>
      </trkpt>
      <trkpt lat="44.6215" lon="5.98269">
        <ele>1161.8</ele>
        <time>2023-05-15T10:04:06Z</time>
      </trkpt>
      <trkpt lat="44.6215" lon="5.98269">
        <ele>1161.8</ele>
        <time>2023-05-15T10:04:07Z</time>
      </trkpt>
      <trkpt lat="44.6215" lon="5.98269">
        <ele>1161.8</ele>
        <time>2023-05-15T10:04:08Z</time>
      </trkpt>
      <trkpt lat="44.62151" lon="5.98269">
        <ele>1162</ele>
        <time>2023-05-15T10:04:09Z</time>
      </trkpt>
      <trkpt lat="44.62151" lon="5.98269">
        <ele>1162</ele>
        <time>2023-05-15T10:04:10Z</time>
      </trkpt>
      <trkpt lat="44.62152" lon="5.9827">
        <ele>1162.2</ele>
        <time>2023-05-15T10:04:11Z</time>
      </trkpt>
      <trkpt lat="44.62153" lon="5.9827">
        <ele>1162.4</ele>
        <time>2023-05-15T10:04:12Z</time>
      </trkpt>
      <trkpt lat="44.62154" lon="5.9827">
        <ele>1162.6</ele>
        <time>2023-05-15T10:04:13Z</time>
      </trkpt>
      <trkpt lat="44.62154" lon="5.9827">
        <ele>1162.8</ele>
        <time>2023-05-15T10:04:14Z</time>
      </trkpt>
      <trkpt lat="44.62155" lon="5.98271">
        <ele>1162.8</ele>
        <time>2023-05-15T10:04:15Z</time>
      </trkpt>
      <trkpt lat="44.62155" lon="5.98271">
        <ele>1162.8</ele>
        <time>2023-05-15T10:04:16Z</time>
      </trkpt>
      <trkpt lat="44.62156" lon="5.98271">
        <ele>1162.8</ele>
        <time>2023-05-15T10:04:17Z</time>
      </trkpt>
      <trkpt lat="44.62156" lon="5.98271">
        <ele>1163</ele>
        <time>2023-05-15T10:04:18Z</time>
      </trkpt>
      <trkpt lat="44.62156" lon="5.98271">
        <ele>1163.2</ele>
        <time>2023-05-15T10:04:20Z</time>
      </trkpt>
      <trkpt lat="44.62156" lon="5.98271">
        <ele>1163.4</ele>
        <time>2023-05-15T10:04:21Z</time>
      </trkpt>
      <trkpt lat="44.62156" lon="5.98271">
        <ele>1163.8</ele>
        <time>2023-05-15T10:04:24Z</time>
      </trkpt>
      <trkpt lat="44.62156" lon="5.98271">
        <ele>1164.4</ele>
        <time>2023-05-15T10:04:28Z</time>
      </trkpt>
      <trkpt lat="44.62158" lon="5.98272">
        <ele>1165.2</ele>
        <time>2023-05-15T10:04:36Z</time>
      </trkpt>
      <trkpt lat="44.62158" lon="5.98272">
        <ele>1165.4</ele>
        <time>2023-05-15T10:04:37Z</time>
      </trkpt>
      <trkpt lat="44.62158" lon="5.98272">
        <ele>1166</ele>
        <time>2023-05-15T10:04:46Z</time>
      </trkpt>
      <trkpt lat="44.62158" lon="5.98272">
        <ele>1166</ele>
        <time>2023-05-15T10:04:47Z</time>
      </trkpt>
      <trkpt lat="44.62158" lon="5.98273">
        <ele>1166.4</ele>
        <time>2023-05-15T10:04:51Z</time>
      </trkpt>
      <trkpt lat="44.62159" lon="5.98274">
        <ele>1167.2</ele>
        <time>2023-05-15T10:04:54Z</time>
      </trkpt>
      <trkpt lat="44.6216" lon="5.98275">
        <ele>1167.4</ele>
        <time>2023-05-15T10:04:56Z</time>
      </trkpt>
      <trkpt lat="44.6216" lon="5.98275">
        <ele>1167.6</ele>
        <time>2023-05-15T10:04:57Z</time>
      </trkpt>
      <trkpt lat="44.62161" lon="5.98275">
        <ele>1167.8</ele>
        <time>2023-05-15T10:04:58Z</time>
      </trkpt>
      <trkpt lat="44.62162" lon="5.98275">
        <ele>1167.8</ele>
        <time>2023-05-15T10:04:59Z</time>
      </trkpt>
      <trkpt lat="44.62163" lon="5.98275">
        <ele>1167.8</ele>
        <time>2023-05-15T10:05:00Z</time>
      </trkpt>
      <trkpt lat="44.62164" lon="5.98275">
        <ele>1168.2</ele>
        <time>2023-05-15T10:05:01Z</time>
      </trkpt>
      <trkpt lat="44.62165" lon="5.98275">
        <ele>1168.2</ele>
        <time>2023-05-15T10:05:02Z</time>
      </trkpt>
      <trkpt lat="44.62165" lon="5.98276">
        <ele>1168.4</ele>
        <time>2023-05-15T10:05:03Z</time>
      </trkpt>
      <trkpt lat="44.62166" lon="5.98276">
        <ele>1168.6</ele>
        <time>2023-05-15T10:05:04Z</time>
      </trkpt>
      <trkpt lat="44.62166" lon="5.98276">
        <ele>1168.6</ele>
        <time>2023-05-15T10:05:05Z</time>
      </trkpt>
      <trkpt lat="44.62166" lon="5.98276">
        <ele>1168.8</ele>
        <time>2023-05-15T10:05:06Z</time>
      </trkpt>
      <trkpt lat="44.62166" lon="5.98276">
        <ele>1169.2</ele>
        <time>2023-05-15T10:05:08Z</time>
      </trkpt>
      <trkpt lat="44.62166" lon="5.98277">
        <ele>1169.2</ele>
        <time>2023-05-15T10:05:09Z</time>
      </trkpt>
      <trkpt lat="44.62166" lon="5.98277">
        <ele>1169.6</ele>
        <time>2023-05-15T10:05:10Z</time>
      </trkpt>
      <trkpt lat="44.62166" lon="5.98277">
        <ele>1169.6</ele>
        <time>2023-05-15T10:05:11Z</time>
      </trkpt>
      <trkpt lat="44.62166" lon="5.98277">
        <ele>1169.8</ele>
        <time>2023-05-15T10:05:12Z</time>
      </trkpt>
      <trkpt lat="44.62167" lon="5.98278">
        <ele>1170</ele>
        <time>2023-05-15T10:05:13Z</time>
      </trkpt>
      <trkpt lat="44.62167" lon="5.98278">
        <ele>1170</ele>
        <time>2023-05-15T10:05:14Z</time>
      </trkpt>
      <trkpt lat="44.62167" lon="5.98278">
        <ele>1170.4</ele>
        <time>2023-05-15T10:05:15Z</time>
      </trkpt>
      <trkpt lat="44.62167" lon="5.98278">
        <ele>1170.4</ele>
        <time>2023-05-15T10:05:16Z</time>
      </trkpt>
      <trkpt lat="44.62167" lon="5.98278">
        <ele>1170.6</ele>
        <time>2023-05-15T10:05:17Z</time>
      </trkpt>
      <trkpt lat="44.62167" lon="5.98278">
        <ele>1170.8</ele>
        <time>2023-05-15T10:05:18Z</time>
      </trkpt>
      <trkpt lat="44.62167" lon="5.98278">
        <ele>1171</ele>
        <time>2023-05-15T10:05:19Z</time>
      </trkpt>
      <trkpt lat="44.62167" lon="5.98278">
        <ele>1171</ele>
        <time>2023-05-15T10:05:20Z</time>
      </trkpt>
      <trkpt lat="44.62167" lon="5.98278">
        <ele>1171.2</ele>
        <time>2023-05-15T10:05:21Z</time>
      </trkpt>
      <trkpt lat="44.62167" lon="5.98279">
        <ele>1172.2</ele>
        <time>2023-05-15T10:05:26Z</time>
      </trkpt>
      <trkpt lat="44.62169" lon="5.9828">
        <ele>1172.8</ele>
        <time>2023-05-15T10:05:32Z</time>
      </trkpt>
      <trkpt lat="44.6217" lon="5.98282">
        <ele>1173</ele>
        <time>2023-05-15T10:05:34Z</time>
      </trkpt>
      <trkpt lat="44.6217" lon="5.98283">
        <ele>1173.2</ele>
        <time>2023-05-15T10:05:35Z</time>
      </trkpt>
      <trkpt lat="44.62171" lon="5.98283">
        <ele>1173.2</ele>
        <time>2023-05-15T10:05:36Z</time>
      </trkpt>
      <trkpt lat="44.62171" lon="5.98283">
        <ele>1173.2</ele>
        <time>2023-05-15T10:05:37Z</time>
      </trkpt>
      <trkpt lat="44.62172" lon="5.98284">
        <ele>1173.4</ele>
        <time>2023-05-15T10:05:38Z</time>
      </trkpt>
      <trkpt lat="44.62173" lon="5.98284">
        <ele>1173.4</ele>
        <time>2023-05-15T10:05:39Z</time>
      </trkpt>
      <trkpt lat="44.62174" lon="5.98285">
        <ele>1173.4</ele>
        <time>2023-05-15T10:05:40Z</time>
      </trkpt>
      <trkpt lat="44.62175" lon="5.98285">
        <ele>1173.4</ele>
        <time>2023-05-15T10:05:41Z</time>
      </trkpt>
      <trkpt lat="44.62176" lon="5.98285">
        <ele>1173.2</ele>
        <time>2023-05-15T10:05:42Z</time>
      </trkpt>
      <trkpt lat="44.62177" lon="5.98285">
        <ele>1173.2</ele>
        <time>2023-05-15T10:05:43Z</time>
      </trkpt>
      <trkpt lat="44.62178" lon="5.98286">
        <ele>1173.2</ele>
        <time>2023-05-15T10:05:44Z</time>
      </trkpt>
      <trkpt lat="44.62179" lon="5.98287">
        <ele>1173.2</ele>
        <time>2023-05-15T10:05:45Z</time>
      </trkpt>
      <trkpt lat="44.62179" lon="5.98287">
        <ele>1173.2</ele>
        <time>2023-05-15T10:05:46Z</time>
      </trkpt>
      <trkpt lat="44.62179" lon="5.98287">
        <ele>1173.2</ele>
        <time>2023-05-15T10:05:47Z</time>
      </trkpt>
      <trkpt lat="44.62179" lon="5.98287">
        <ele>1173</ele>
        <time>2023-05-15T10:05:49Z</time>
      </trkpt>
      <trkpt lat="44.62182" lon="5.98286">
        <ele>1172.2</ele>
        <time>2023-05-15T10:05:53Z</time>
      </trkpt>
      <trkpt lat="44.62186" lon="5.98287">
        <ele>1172</ele>
        <time>2023-05-15T10:05:55Z</time>
      </trkpt>
      <trkpt lat="44.62203" lon="5.98297">
        <ele>1171.8</ele>
        <time>2023-05-15T10:06:00Z</time>
      </trkpt>
      <trkpt lat="44.62208" lon="5.98299">
        <ele>1171.4</ele>
        <time>2023-05-15T10:06:02Z</time>
      </trkpt>
      <trkpt lat="44.6221" lon="5.983">
        <ele>1171.2</ele>
        <time>2023-05-15T10:06:03Z</time>
      </trkpt>
      <trkpt lat="44.62213" lon="5.98302">
        <ele>1170.8</ele>
        <time>2023-05-15T10:06:04Z</time>
      </trkpt>
      <trkpt lat="44.62215" lon="5.98303">
        <ele>1170.6</ele>
        <time>2023-05-15T10:06:05Z</time>
      </trkpt>
      <trkpt lat="44.62217" lon="5.98304">
        <ele>1170.4</ele>
        <time>2023-05-15T10:06:06Z</time>
      </trkpt>
      <trkpt lat="44.6222" lon="5.98305">
        <ele>1170</ele>
        <time>2023-05-15T10:06:07Z</time>
      </trkpt>
      <trkpt lat="44.62222" lon="5.98306">
        <ele>1170</ele>
        <time>2023-05-15T10:06:08Z</time>
      </trkpt>
      <trkpt lat="44.62224" lon="5.98306">
        <ele>1170</ele>
        <time>2023-05-15T10:06:09Z</time>
      </trkpt>
      <trkpt lat="44.62225" lon="5.98307">
        <ele>1170</ele>
        <time>2023-05-15T10:06:10Z</time>
      </trkpt>
      <trkpt lat="44.62226" lon="5.98307">
        <ele>1170</ele>
        <time>2023-05-15T10:06:11Z</time>
      </trkpt>
      <trkpt lat="44.62226" lon="5.98307">
        <ele>1170</ele>
        <time>2023-05-15T10:06:12Z</time>
      </trkpt>
      <trkpt lat="44.62226" lon="5.98308">
        <ele>1170</ele>
        <time>2023-05-15T10:06:13Z</time>
      </trkpt>
      <trkpt lat="44.62227" lon="5.98308">
        <ele>1169.8</ele>
        <time>2023-05-15T10:06:14Z</time>
      </trkpt>
      <trkpt lat="44.62228" lon="5.98308">
        <ele>1169.8</ele>
        <time>2023-05-15T10:06:15Z</time>
      </trkpt>
      <trkpt lat="44.6223" lon="5.98309">
        <ele>1169.6</ele>
        <time>2023-05-15T10:06:18Z</time>
      </trkpt>
      <trkpt lat="44.6223" lon="5.98309">
        <ele>1169.4</ele>
        <time>2023-05-15T10:06:19Z</time>
      </trkpt>
      <trkpt lat="44.6223" lon="5.98309">
        <ele>1168.8</ele>
        <time>2023-05-15T10:06:23Z</time>
      </trkpt>
      <trkpt lat="44.62231" lon="5.9831">
        <ele>1168.4</ele>
        <time>2023-05-15T10:06:27Z</time>
      </trkpt>
      <trkpt lat="44.62232" lon="5.98311">
        <ele>1167.8</ele>
        <time>2023-05-15T10:06:32Z</time>
      </trkpt>
      <trkpt lat="44.62233" lon="5.98311">
        <ele>1167.8</ele>
        <time>2023-05-15T10:06:33Z</time>
      </trkpt>
      <trkpt lat="44.62233" lon="5.98311">
        <ele>1167.4</ele>
        <time>2023-05-15T10:06:34Z</time>
      </trkpt>
      <trkpt lat="44.62233" lon="5.98311">
        <ele>1167</ele>
        <time>2023-05-15T10:06:36Z</time>
      </trkpt>
      <trkpt lat="44.62237" lon="5.98308">
        <ele>1166.4</ele>
        <time>2023-05-15T10:06:40Z</time>
      </trkpt>
      <trkpt lat="44.62244" lon="5.98302">
        <ele>1166</ele>
        <time>2023-05-15T10:06:43Z</time>
      </trkpt>
      <trkpt lat="44.62246" lon="5.98302">
        <ele>1165.8</ele>
        <time>2023-05-15T10:06:44Z</time>
      </trkpt>
      <trkpt lat="44.62248" lon="5.983">
        <ele>1165.6</ele>
        <time>2023-05-15T10:06:45Z</time>
      </trkpt>
      <trkpt lat="44.6225" lon="5.98299">
        <ele>1165.6</ele>
        <time>2023-05-15T10:06:46Z</time>
      </trkpt>
      <trkpt lat="44.62251" lon="5.98298">
        <ele>1165.4</ele>
        <time>2023-05-15T10:06:47Z</time>
      </trkpt>
      <trkpt lat="44.62252" lon="5.98297">
        <ele>1165.4</ele>
        <time>2023-05-15T10:06:48Z</time>
      </trkpt>
      <trkpt lat="44.62253" lon="5.98297">
        <ele>1165.2</ele>
        <time>2023-05-15T10:06:49Z</time>
      </trkpt>
      <trkpt lat="44.62255" lon="5.98296">
        <ele>1165.2</ele>
        <time>2023-05-15T10:06:50Z</time>
      </trkpt>
      <trkpt lat="44.62256" lon="5.98295">
        <ele>1165.2</ele>
        <time>2023-05-15T10:06:51Z</time>
      </trkpt>
      <trkpt lat="44.62257" lon="5.98294">
        <ele>1165.2</ele>
        <time>2023-05-15T10:06:52Z</time>
      </trkpt>
      <trkpt lat="44.62259" lon="5.98294">
        <ele>1165.2</ele>
        <time>2023-05-15T10:06:53Z</time>
      </trkpt>
      <trkpt lat="44.6226" lon="5.98292">
        <ele>1165.6</ele>
        <time>2023-05-15T10:06:54Z</time>
      </trkpt>
      <trkpt lat="44.62263" lon="5.98291">
        <ele>1166.2</ele>
        <time>2023-05-15T10:06:57Z</time>
      </trkpt>
      <trkpt lat="44.62264" lon="5.9829">
        <ele>1166.2</ele>
        <time>2023-05-15T10:06:58Z</time>
      </trkpt>
      <trkpt lat="44.62266" lon="5.9829">
        <ele>1166.2</ele>
        <time>2023-05-15T10:06:59Z</time>
      </trkpt>
      <trkpt lat="44.62268" lon="5.98289">
        <ele>1166.4</ele>
        <time>2023-05-15T10:07:00Z</time>
      </trkpt>
      <trkpt lat="44.62269" lon="5.98288">
        <ele>1166.4</ele>
        <time>2023-05-15T10:07:01Z</time>
      </trkpt>
      <trkpt lat="44.62272" lon="5.98287">
        <ele>1166.4</ele>
        <time>2023-05-15T10:07:04Z</time>
      </trkpt>
      <trkpt lat="44.62273" lon="5.98287">
        <ele>1166.4</ele>
        <time>2023-05-15T10:07:05Z</time>
      </trkpt>
      <trkpt lat="44.62274" lon="5.98286">
        <ele>1166.4</ele>
        <time>2023-05-15T10:07:06Z</time>
      </trkpt>
      <trkpt lat="44.62275" lon="5.98285">
        <ele>1166.4</ele>
        <time>2023-05-15T10:07:07Z</time>
      </trkpt>
      <trkpt lat="44.62277" lon="5.98284">
        <ele>1166.4</ele>
        <time>2023-05-15T10:07:08Z</time>
      </trkpt>
      <trkpt lat="44.62278" lon="5.98283">
        <ele>1166.4</ele>
        <time>2023-05-15T10:07:09Z</time>
      </trkpt>
      <trkpt lat="44.62281" lon="5.98281">
        <ele>1166.6</ele>
        <time>2023-05-15T10:07:11Z</time>
      </trkpt>
      <trkpt lat="44.62281" lon="5.9828">
        <ele>1166.6</ele>
        <time>2023-05-15T10:07:12Z</time>
      </trkpt>
      <trkpt lat="44.62285" lon="5.98279">
        <ele>1166.8</ele>
        <time>2023-05-15T10:07:15Z</time>
      </trkpt>
      <trkpt lat="44.62286" lon="5.98278">
        <ele>1166.8</ele>
        <time>2023-05-15T10:07:16Z</time>
      </trkpt>
      <trkpt lat="44.62288" lon="5.98278">
        <ele>1166.8</ele>
        <time>2023-05-15T10:07:17Z</time>
      </trkpt>
      <trkpt lat="44.62291" lon="5.98277">
        <ele>1167.2</ele>
        <time>2023-05-15T10:07:20Z</time>
      </trkpt>
      <trkpt lat="44.62292" lon="5.98276">
        <ele>1167.2</ele>
        <time>2023-05-15T10:07:21Z</time>
      </trkpt>
      <trkpt lat="44.62295" lon="5.98275">
        <ele>1167.2</ele>
        <time>2023-05-15T10:07:23Z</time>
      </trkpt>
      <trkpt lat="44.62299" lon="5.98271">
        <ele>1167.4</ele>
        <time>2023-05-15T10:07:27Z</time>
      </trkpt>
      <trkpt lat="44.623" lon="5.98271">
        <ele>1167.6</ele>
        <time>2023-05-15T10:07:28Z</time>
      </trkpt>
      <trkpt lat="44.62301" lon="5.9827">
        <ele>1167.6</ele>
        <time>2023-05-15T10:07:29Z</time>
      </trkpt>
      <trkpt lat="44.62303" lon="5.98269">
        <ele>1168</ele>
        <time>2023-05-15T10:07:31Z</time>
      </trkpt>
      <trkpt lat="44.62305" lon="5.98268">
        <ele>1168.2</ele>
        <time>2023-05-15T10:07:32Z</time>
      </trkpt>
      <trkpt lat="44.62306" lon="5.98266">
        <ele>1168.4</ele>
        <time>2023-05-15T10:07:34Z</time>
      </trkpt>
      <trkpt lat="44.62307" lon="5.98265">
        <ele>1168.6</ele>
        <time>2023-05-15T10:07:35Z</time>
      </trkpt>
      <trkpt lat="44.62308" lon="5.98265">
        <ele>1168.8</ele>
        <time>2023-05-15T10:07:36Z</time>
      </trkpt>
      <trkpt lat="44.62309" lon="5.98264">
        <ele>1169</ele>
        <time>2023-05-15T10:07:37Z</time>
      </trkpt>
      <trkpt lat="44.6231" lon="5.98264">
        <ele>1169.2</ele>
        <time>2023-05-15T10:07:38Z</time>
      </trkpt>
      <trkpt lat="44.62311" lon="5.98265">
        <ele>1169.6</ele>
        <time>2023-05-15T10:07:39Z</time>
      </trkpt>
      <trkpt lat="44.62311" lon="5.98265">
        <ele>1169.6</ele>
        <time>2023-05-15T10:07:40Z</time>
      </trkpt>
      <trkpt lat="44.62312" lon="5.98265">
        <ele>1169.8</ele>
        <time>2023-05-15T10:07:41Z</time>
      </trkpt>
      <trkpt lat="44.62313" lon="5.98265">
        <ele>1170</ele>
        <time>2023-05-15T10:07:42Z</time>
      </trkpt>
      <trkpt lat="44.62313" lon="5.98265">
        <ele>1170</ele>
        <time>2023-05-15T10:07:43Z</time>
      </trkpt>
      <trkpt lat="44.62314" lon="5.98265">
        <ele>1170</ele>
        <time>2023-05-15T10:07:44Z</time>
      </trkpt>
      <trkpt lat="44.62316" lon="5.98265">
        <ele>1170.2</ele>
        <time>2023-05-15T10:07:45Z</time>
      </trkpt>
      <trkpt lat="44.62317" lon="5.98266">
        <ele>1170.4</ele>
        <time>2023-05-15T10:07:46Z</time>
      </trkpt>
      <trkpt lat="44.62319" lon="5.98265">
        <ele>1170.6</ele>
        <time>2023-05-15T10:07:47Z</time>
      </trkpt>
      <trkpt lat="44.6232" lon="5.98265">
        <ele>1170.6</ele>
        <time>2023-05-15T10:07:48Z</time>
      </trkpt>
      <trkpt lat="44.62321" lon="5.98264">
        <ele>1170.6</ele>
        <time>2023-05-15T10:07:49Z</time>
      </trkpt>
      <trkpt lat="44.62323" lon="5.98264">
        <ele>1170.8</ele>
        <time>2023-05-15T10:07:50Z</time>
      </trkpt>
      <trkpt lat="44.62324" lon="5.98263">
        <ele>1170.8</ele>
        <time>2023-05-15T10:07:51Z</time>
      </trkpt>
      <trkpt lat="44.62324" lon="5.98263">
        <ele>1170.8</ele>
        <time>2023-05-15T10:07:52Z</time>
      </trkpt>
      <trkpt lat="44.62325" lon="5.98262">
        <ele>1171</ele>
        <time>2023-05-15T10:07:53Z</time>
      </trkpt>
      <trkpt lat="44.62326" lon="5.98262">
        <ele>1171</ele>
        <time>2023-05-15T10:07:54Z</time>
      </trkpt>
      <trkpt lat="44.62327" lon="5.98261">
        <ele>1171</ele>
        <time>2023-05-15T10:07:55Z</time>
      </trkpt>
      <trkpt lat="44.62328" lon="5.9826">
        <ele>1171</ele>
        <time>2023-05-15T10:07:56Z</time>
      </trkpt>
      <trkpt lat="44.62328" lon="5.9826">
        <ele>1171.2</ele>
        <time>2023-05-15T10:07:57Z</time>
      </trkpt>
      <trkpt lat="44.62328" lon="5.9826">
        <ele>1171.2</ele>
        <time>2023-05-15T10:07:58Z</time>
      </trkpt>
      <trkpt lat="44.62328" lon="5.9826">
        <ele>1171.4</ele>
        <time>2023-05-15T10:08:02Z</time>
      </trkpt>
      <trkpt lat="44.6233" lon="5.9826">
        <ele>1171.4</ele>
        <time>2023-05-15T10:08:06Z</time>
      </trkpt>
      <trkpt lat="44.62332" lon="5.9826">
        <ele>1171.4</ele>
        <time>2023-05-15T10:08:10Z</time>
      </trkpt>
      <trkpt lat="44.62334" lon="5.9826">
        <ele>1171.6</ele>
        <time>2023-05-15T10:08:13Z</time>
      </trkpt>
      <trkpt lat="44.62334" lon="5.9826">
        <ele>1171.6</ele>
        <time>2023-05-15T10:08:14Z</time>
      </trkpt>
      <trkpt lat="44.62335" lon="5.98259">
        <ele>1171.6</ele>
        <time>2023-05-15T10:08:15Z</time>
      </trkpt>
      <trkpt lat="44.62336" lon="5.98259">
        <ele>1171.6</ele>
        <time>2023-05-15T10:08:18Z</time>
      </trkpt>
      <trkpt lat="44.62336" lon="5.98259">
        <ele>1171.4</ele>
        <time>2023-05-15T10:08:28Z</time>
      </trkpt>
      <trkpt lat="44.6234" lon="5.98263">
        <ele>1171.4</ele>
        <time>2023-05-15T10:08:38Z</time>
      </trkpt>
      <trkpt lat="44.62341" lon="5.98264">
        <ele>1171.6</ele>
        <time>2023-05-15T10:08:40Z</time>
      </trkpt>
      <trkpt lat="44.62341" lon="5.98265">
        <ele>1171.6</ele>
        <time>2023-05-15T10:08:41Z</time>
      </trkpt>
      <trkpt lat="44.62342" lon="5.98265">
        <ele>1171.6</ele>
        <time>2023-05-15T10:08:42Z</time>
      </trkpt>
      <trkpt lat="44.62343" lon="5.98266">
        <ele>1171.4</ele>
        <time>2023-05-15T10:08:45Z</time>
      </trkpt>
      <trkpt lat="44.62343" lon="5.98267">
        <ele>1171.8</ele>
        <time>2023-05-15T10:08:46Z</time>
      </trkpt>
      <trkpt lat="44.62343" lon="5.98267">
        <ele>1171.6</ele>
        <time>2023-05-15T10:08:47Z</time>
      </trkpt>
      <trkpt lat="44.62344" lon="5.98265">
        <ele>1172</ele>
        <time>2023-05-15T10:08:52Z</time>
      </trkpt>
      <trkpt lat="44.62345" lon="5.98263">
        <ele>1172.2</ele>
        <time>2023-05-15T10:08:55Z</time>
      </trkpt>
      <trkpt lat="44.62345" lon="5.98262">
        <ele>1172.4</ele>
        <time>2023-05-15T10:08:58Z</time>
      </trkpt>
      <trkpt lat="44.62346" lon="5.98262">
        <ele>1172.6</ele>
        <time>2023-05-15T10:09:00Z</time>
      </trkpt>
      <trkpt lat="44.62347" lon="5.98262">
        <ele>1172.8</ele>
        <time>2023-05-15T10:09:02Z</time>
      </trkpt>
      <trkpt lat="44.62347" lon="5.98262">
        <ele>1172.8</ele>
        <time>2023-05-15T10:09:03Z</time>
      </trkpt>
      <trkpt lat="44.62347" lon="5.98262">
        <ele>1172.8</ele>
        <time>2023-05-15T10:09:04Z</time>
      </trkpt>
      <trkpt lat="44.62348" lon="5.98262">
        <ele>1172.8</ele>
        <time>2023-05-15T10:09:05Z</time>
      </trkpt>
      <trkpt lat="44.62348" lon="5.98262">
        <ele>1173</ele>
        <time>2023-05-15T10:09:06Z</time>
      </trkpt>
      <trkpt lat="44.62348" lon="5.98262">
        <ele>1173</ele>
        <time>2023-05-15T10:09:07Z</time>
      </trkpt>
      <trkpt lat="44.62349" lon="5.98262">
        <ele>1173</ele>
        <time>2023-05-15T10:09:08Z</time>
      </trkpt>
      <trkpt lat="44.62349" lon="5.98262">
        <ele>1173</ele>
        <time>2023-05-15T10:09:09Z</time>
      </trkpt>
      <trkpt lat="44.62349" lon="5.98262">
        <ele>1173.2</ele>
        <time>2023-05-15T10:09:10Z</time>
      </trkpt>
      <trkpt lat="44.62349" lon="5.98262">
        <ele>1173.4</ele>
        <time>2023-05-15T10:09:11Z</time>
      </trkpt>
      <trkpt lat="44.62349" lon="5.98262">
        <ele>1173.4</ele>
        <time>2023-05-15T10:09:12Z</time>
      </trkpt>
      <trkpt lat="44.6235" lon="5.98262">
        <ele>1173.6</ele>
        <time>2023-05-15T10:09:14Z</time>
      </trkpt>
      <trkpt lat="44.6235" lon="5.98262">
        <ele>1174</ele>
        <time>2023-05-15T10:09:17Z</time>
      </trkpt>
      <trkpt lat="44.62351" lon="5.98262">
        <ele>1174</ele>
        <time>2023-05-15T10:09:18Z</time>
      </trkpt>
      <trkpt lat="44.62356" lon="5.98261">
        <ele>1174.4</ele>
        <time>2023-05-15T10:09:23Z</time>
      </trkpt>
      <trkpt lat="44.62356" lon="5.98261">
        <ele>1174.4</ele>
        <time>2023-05-15T10:09:24Z</time>
      </trkpt>
      <trkpt lat="44.62357" lon="5.98261">
        <ele>1174.6</ele>
        <time>2023-05-15T10:09:25Z</time>
      </trkpt>
      <trkpt lat="44.62359" lon="5.9826">
        <ele>1175.2</ele>
        <time>2023-05-15T10:09:29Z</time>
      </trkpt>
      <trkpt lat="44.62359" lon="5.9826">
        <ele>1175.8</ele>
        <time>2023-05-15T10:09:32Z</time>
      </trkpt>
      <trkpt lat="44.62361" lon="5.98259">
        <ele>1176.2</ele>
        <time>2023-05-15T10:09:36Z</time>
      </trkpt>
      <trkpt lat="44.62362" lon="5.98258">
        <ele>1176.2</ele>
        <time>2023-05-15T10:09:37Z</time>
      </trkpt>
      <trkpt lat="44.62363" lon="5.98257">
        <ele>1176.2</ele>
        <time>2023-05-15T10:09:38Z</time>
      </trkpt>
      <trkpt lat="44.62364" lon="5.98256">
        <ele>1176.2</ele>
        <time>2023-05-15T10:09:39Z</time>
      </trkpt>
      <trkpt lat="44.62365" lon="5.98256">
        <ele>1176.4</ele>
        <time>2023-05-15T10:09:40Z</time>
      </trkpt>
      <trkpt lat="44.62366" lon="5.98255">
        <ele>1176.4</ele>
        <time>2023-05-15T10:09:41Z</time>
      </trkpt>
      <trkpt lat="44.62368" lon="5.98255">
        <ele>1176.6</ele>
        <time>2023-05-15T10:09:42Z</time>
      </trkpt>
      <trkpt lat="44.62369" lon="5.98255">
        <ele>1176.8</ele>
        <time>2023-05-15T10:09:43Z</time>
      </trkpt>
      <trkpt lat="44.62369" lon="5.98255">
        <ele>1177</ele>
        <time>2023-05-15T10:09:44Z</time>
      </trkpt>
      <trkpt lat="44.62369" lon="5.98255">
        <ele>1177.2</ele>
        <time>2023-05-15T10:09:45Z</time>
      </trkpt>
      <trkpt lat="44.6237" lon="5.98254">
        <ele>1177.2</ele>
        <time>2023-05-15T10:09:46Z</time>
      </trkpt>
      <trkpt lat="44.62372" lon="5.98253">
        <ele>1177.4</ele>
        <time>2023-05-15T10:09:47Z</time>
      </trkpt>
      <trkpt lat="44.62373" lon="5.98253">
        <ele>1177.6</ele>
        <time>2023-05-15T10:09:48Z</time>
      </trkpt>
      <trkpt lat="44.62374" lon="5.98252">
        <ele>1177.8</ele>
        <time>2023-05-15T10:09:49Z</time>
      </trkpt>
      <trkpt lat="44.62375" lon="5.98252">
        <ele>1178.2</ele>
        <time>2023-05-15T10:09:50Z</time>
      </trkpt>
      <trkpt lat="44.62377" lon="5.98252">
        <ele>1178.2</ele>
        <time>2023-05-15T10:09:51Z</time>
      </trkpt>
      <trkpt lat="44.62378" lon="5.98252">
        <ele>1178.4</ele>
        <time>2023-05-15T10:09:52Z</time>
      </trkpt>
      <trkpt lat="44.62379" lon="5.98252">
        <ele>1178.6</ele>
        <time>2023-05-15T10:09:53Z</time>
      </trkpt>
      <trkpt lat="44.6238" lon="5.98251">
        <ele>1178.6</ele>
        <time>2023-05-15T10:09:54Z</time>
      </trkpt>
      <trkpt lat="44.62381" lon="5.98251">
        <ele>1178.6</ele>
        <time>2023-05-15T10:09:55Z</time>
      </trkpt>
      <trkpt lat="44.62382" lon="5.98251">
        <ele>1178.8</ele>
        <time>2023-05-15T10:09:56Z</time>
      </trkpt>
      <trkpt lat="44.62382" lon="5.98251">
        <ele>1179</ele>
        <time>2023-05-15T10:09:57Z</time>
      </trkpt>
      <trkpt lat="44.62384" lon="5.98251">
        <ele>1179</ele>
        <time>2023-05-15T10:09:58Z</time>
      </trkpt>
      <trkpt lat="44.62385" lon="5.98252">
        <ele>1179.2</ele>
        <time>2023-05-15T10:09:59Z</time>
      </trkpt>
      <trkpt lat="44.62386" lon="5.98252">
        <ele>1179.4</ele>
        <time>2023-05-15T10:10:00Z</time>
      </trkpt>
      <trkpt lat="44.62387" lon="5.98252">
        <ele>1179.6</ele>
        <time>2023-05-15T10:10:01Z</time>
      </trkpt>
      <trkpt lat="44.62388" lon="5.98252">
        <ele>1179.6</ele>
        <time>2023-05-15T10:10:02Z</time>
      </trkpt>
      <trkpt lat="44.62389" lon="5.98252">
        <ele>1179.8</ele>
        <time>2023-05-15T10:10:03Z</time>
      </trkpt>
      <trkpt lat="44.62389" lon="5.98252">
        <ele>1180</ele>
        <time>2023-05-15T10:10:04Z</time>
      </trkpt>
      <trkpt lat="44.62389" lon="5.98252">
        <ele>1180.2</ele>
        <time>2023-05-15T10:10:05Z</time>
      </trkpt>
      <trkpt lat="44.6239" lon="5.98251">
        <ele>1180.2</ele>
        <time>2023-05-15T10:10:06Z</time>
      </trkpt>
      <trkpt lat="44.62391" lon="5.98251">
        <ele>1180.4</ele>
        <time>2023-05-15T10:10:07Z</time>
      </trkpt>
      <trkpt lat="44.62392" lon="5.9825">
        <ele>1180.6</ele>
        <time>2023-05-15T10:10:08Z</time>
      </trkpt>
      <trkpt lat="44.62394" lon="5.98249">
        <ele>1180.6</ele>
        <time>2023-05-15T10:10:09Z</time>
      </trkpt>
      <trkpt lat="44.62395" lon="5.98248">
        <ele>1181</ele>
        <time>2023-05-15T10:10:10Z</time>
      </trkpt>
      <trkpt lat="44.62397" lon="5.98247">
        <ele>1181.2</ele>
        <time>2023-05-15T10:10:11Z</time>
      </trkpt>
      <trkpt lat="44.62399" lon="5.98246">
        <ele>1181.4</ele>
        <time>2023-05-15T10:10:12Z</time>
      </trkpt>
      <trkpt lat="44.62399" lon="5.98245">
        <ele>1181.8</ele>
        <time>2023-05-15T10:10:13Z</time>
      </trkpt>
      <trkpt lat="44.624" lon="5.98244">
        <ele>1182</ele>
        <time>2023-05-15T10:10:14Z</time>
      </trkpt>
      <trkpt lat="44.62402" lon="5.98243">
        <ele>1182.2</ele>
        <time>2023-05-15T10:10:15Z</time>
      </trkpt>
      <trkpt lat="44.62403" lon="5.98243">
        <ele>1182.2</ele>
        <time>2023-05-15T10:10:16Z</time>
      </trkpt>
      <trkpt lat="44.62405" lon="5.98242">
        <ele>1182.4</ele>
        <time>2023-05-15T10:10:17Z</time>
      </trkpt>
      <trkpt lat="44.62407" lon="5.98241">
        <ele>1182.4</ele>
        <time>2023-05-15T10:10:18Z</time>
      </trkpt>
      <trkpt lat="44.62408" lon="5.98241">
        <ele>1182.6</ele>
        <time>2023-05-15T10:10:19Z</time>
      </trkpt>
      <trkpt lat="44.6241" lon="5.98242">
        <ele>1182.6</ele>
        <time>2023-05-15T10:10:20Z</time>
      </trkpt>
      <trkpt lat="44.62411" lon="5.98242">
        <ele>1182.6</ele>
        <time>2023-05-15T10:10:21Z</time>
      </trkpt>
      <trkpt lat="44.62411" lon="5.98243">
        <ele>1182.8</ele>
        <time>2023-05-15T10:10:22Z</time>
      </trkpt>
      <trkpt lat="44.62413" lon="5.98244">
        <ele>1182.8</ele>
        <time>2023-05-15T10:10:23Z</time>
      </trkpt>
      <trkpt lat="44.62415" lon="5.98245">
        <ele>1183</ele>
        <time>2023-05-15T10:10:24Z</time>
      </trkpt>
      <trkpt lat="44.62417" lon="5.98245">
        <ele>1183</ele>
        <time>2023-05-15T10:10:25Z</time>
      </trkpt>
      <trkpt lat="44.62418" lon="5.98244">
        <ele>1183.2</ele>
        <time>2023-05-15T10:10:26Z</time>
      </trkpt>
      <trkpt lat="44.6242" lon="5.98243">
        <ele>1183.2</ele>
        <time>2023-05-15T10:10:27Z</time>
      </trkpt>
      <trkpt lat="44.62421" lon="5.98243">
        <ele>1183.4</ele>
        <time>2023-05-15T10:10:28Z</time>
      </trkpt>
      <trkpt lat="44.62422" lon="5.98243">
        <ele>1183.6</ele>
        <time>2023-05-15T10:10:29Z</time>
      </trkpt>
      <trkpt lat="44.62423" lon="5.98242">
        <ele>1183.6</ele>
        <time>2023-05-15T10:10:30Z</time>
      </trkpt>
      <trkpt lat="44.62425" lon="5.98241">
        <ele>1183.8</ele>
        <time>2023-05-15T10:10:31Z</time>
      </trkpt>
      <trkpt lat="44.62428" lon="5.9824">
        <ele>1183.8</ele>
        <time>2023-05-15T10:10:32Z</time>
      </trkpt>
      <trkpt lat="44.62428" lon="5.9824">
        <ele>1184</ele>
        <time>2023-05-15T10:10:33Z</time>
      </trkpt>
      <trkpt lat="44.6243" lon="5.9824">
        <ele>1184</ele>
        <time>2023-05-15T10:10:34Z</time>
      </trkpt>
      <trkpt lat="44.62432" lon="5.98238">
        <ele>1184.2</ele>
        <time>2023-05-15T10:10:35Z</time>
      </trkpt>
      <trkpt lat="44.62434" lon="5.98237">
        <ele>1184.2</ele>
        <time>2023-05-15T10:10:36Z</time>
      </trkpt>
      <trkpt lat="44.62436" lon="5.98235">
        <ele>1184.2</ele>
        <time>2023-05-15T10:10:37Z</time>
      </trkpt>
      <trkpt lat="44.62438" lon="5.98233">
        <ele>1184.4</ele>
        <time>2023-05-15T10:10:38Z</time>
      </trkpt>
      <trkpt lat="44.62441" lon="5.9823">
        <ele>1184.4</ele>
        <time>2023-05-15T10:10:39Z</time>
      </trkpt>
      <trkpt lat="44.62443" lon="5.9823">
        <ele>1184.4</ele>
        <time>2023-05-15T10:10:40Z</time>
      </trkpt>
      <trkpt lat="44.62445" lon="5.9823">
        <ele>1184.4</ele>
        <time>2023-05-15T10:10:41Z</time>
      </trkpt>
      <trkpt lat="44.62446" lon="5.98229">
        <ele>1184.6</ele>
        <time>2023-05-15T10:10:42Z</time>
      </trkpt>
      <trkpt lat="44.62448" lon="5.98227">
        <ele>1184.6</ele>
        <time>2023-05-15T10:10:43Z</time>
      </trkpt>
      <trkpt lat="44.6245" lon="5.98225">
        <ele>1184.8</ele>
        <time>2023-05-15T10:10:44Z</time>
      </trkpt>
      <trkpt lat="44.62453" lon="5.98223">
        <ele>1184.8</ele>
        <time>2023-05-15T10:10:45Z</time>
      </trkpt>
      <trkpt lat="44.62456" lon="5.98221">
        <ele>1184.8</ele>
        <time>2023-05-15T10:10:46Z</time>
      </trkpt>
      <trkpt lat="44.62458" lon="5.9822">
        <ele>1185.2</ele>
        <time>2023-05-15T10:10:47Z</time>
      </trkpt>
      <trkpt lat="44.62462" lon="5.98221">
        <ele>1185.6</ele>
        <time>2023-05-15T10:10:49Z</time>
      </trkpt>
      <trkpt lat="44.62466" lon="5.9822">
        <ele>1185.6</ele>
        <time>2023-05-15T10:10:50Z</time>
      </trkpt>
      <trkpt lat="44.62467" lon="5.98219">
        <ele>1185.6</ele>
        <time>2023-05-15T10:10:51Z</time>
      </trkpt>
      <trkpt lat="44.62475" lon="5.98218">
        <ele>1185.8</ele>
        <time>2023-05-15T10:10:56Z</time>
      </trkpt>
      <trkpt lat="44.62477" lon="5.98218">
        <ele>1185.8</ele>
        <time>2023-05-15T10:10:57Z</time>
      </trkpt>
      <trkpt lat="44.62478" lon="5.98219">
        <ele>1185.8</ele>
        <time>2023-05-15T10:10:58Z</time>
      </trkpt>
      <trkpt lat="44.62479" lon="5.9822">
        <ele>1185.8</ele>
        <time>2023-05-15T10:10:59Z</time>
      </trkpt>
      <trkpt lat="44.62481" lon="5.98221">
        <ele>1185.8</ele>
        <time>2023-05-15T10:11:00Z</time>
      </trkpt>
      <trkpt lat="44.62483" lon="5.98221">
        <ele>1185.8</ele>
        <time>2023-05-15T10:11:01Z</time>
      </trkpt>
      <trkpt lat="44.62484" lon="5.98221">
        <ele>1186</ele>
        <time>2023-05-15T10:11:02Z</time>
      </trkpt>
      <trkpt lat="44.62485" lon="5.9822">
        <ele>1186.2</ele>
        <time>2023-05-15T10:11:03Z</time>
      </trkpt>
      <trkpt lat="44.62487" lon="5.98219">
        <ele>1186.4</ele>
        <time>2023-05-15T10:11:04Z</time>
      </trkpt>
      <trkpt lat="44.62488" lon="5.98219">
        <ele>1186.6</ele>
        <time>2023-05-15T10:11:05Z</time>
      </trkpt>
      <trkpt lat="44.6249" lon="5.9822">
        <ele>1186.8</ele>
        <time>2023-05-15T10:11:06Z</time>
      </trkpt>
      <trkpt lat="44.62491" lon="5.98221">
        <ele>1186.8</ele>
        <time>2023-05-15T10:11:07Z</time>
      </trkpt>
      <trkpt lat="44.62493" lon="5.98221">
        <ele>1186.8</ele>
        <time>2023-05-15T10:11:08Z</time>
      </trkpt>
      <trkpt lat="44.62495" lon="5.98222">
        <ele>1186.8</ele>
        <time>2023-05-15T10:11:09Z</time>
      </trkpt>
      <trkpt lat="44.62498" lon="5.98222">
        <ele>1187</ele>
        <time>2023-05-15T10:11:11Z</time>
      </trkpt>
      <trkpt lat="44.625" lon="5.98223">
        <ele>1187</ele>
        <time>2023-05-15T10:11:12Z</time>
      </trkpt>
      <trkpt lat="44.62504" lon="5.98226">
        <ele>1187</ele>
        <time>2023-05-15T10:11:15Z</time>
      </trkpt>
      <trkpt lat="44.62504" lon="5.98226">
        <ele>1187</ele>
        <time>2023-05-15T10:11:16Z</time>
      </trkpt>
      <trkpt lat="44.62505" lon="5.98227">
        <ele>1187</ele>
        <time>2023-05-15T10:11:17Z</time>
      </trkpt>
      <trkpt lat="44.62506" lon="5.98228">
        <ele>1187</ele>
        <time>2023-05-15T10:11:18Z</time>
      </trkpt>
      <trkpt lat="44.62507" lon="5.98228">
        <ele>1187</ele>
        <time>2023-05-15T10:11:19Z</time>
      </trkpt>
      <trkpt lat="44.62508" lon="5.98229">
        <ele>1187.2</ele>
        <time>2023-05-15T10:11:20Z</time>
      </trkpt>
      <trkpt lat="44.62508" lon="5.98229">
        <ele>1187.4</ele>
        <time>2023-05-15T10:11:21Z</time>
      </trkpt>
      <trkpt lat="44.62509" lon="5.9823">
        <ele>1187.4</ele>
        <time>2023-05-15T10:11:22Z</time>
      </trkpt>
      <trkpt lat="44.6251" lon="5.9823">
        <ele>1187.6</ele>
        <time>2023-05-15T10:11:23Z</time>
      </trkpt>
      <trkpt lat="44.62511" lon="5.98231">
        <ele>1187.8</ele>
        <time>2023-05-15T10:11:24Z</time>
      </trkpt>
      <trkpt lat="44.62513" lon="5.98232">
        <ele>1188</ele>
        <time>2023-05-15T10:11:25Z</time>
      </trkpt>
      <trkpt lat="44.62518" lon="5.98232">
        <ele>1188.6</ele>
        <time>2023-05-15T10:11:29Z</time>
      </trkpt>
      <trkpt lat="44.62519" lon="5.98233">
        <ele>1188.8</ele>
        <time>2023-05-15T10:11:30Z</time>
      </trkpt>
      <trkpt lat="44.62521" lon="5.98233">
        <ele>1188.8</ele>
        <time>2023-05-15T10:11:31Z</time>
      </trkpt>
      <trkpt lat="44.62522" lon="5.98233">
        <ele>1189</ele>
        <time>2023-05-15T10:11:32Z</time>
      </trkpt>
      <trkpt lat="44.62524" lon="5.98234">
        <ele>1189</ele>
        <time>2023-05-15T10:11:34Z</time>
      </trkpt>
      <trkpt lat="44.62526" lon="5.98235">
        <ele>1189.2</ele>
        <time>2023-05-15T10:11:36Z</time>
      </trkpt>
      <trkpt lat="44.62529" lon="5.98235">
        <ele>1189.2</ele>
        <time>2023-05-15T10:11:38Z</time>
      </trkpt>
      <trkpt lat="44.6253" lon="5.98236">
        <ele>1189.4</ele>
        <time>2023-05-15T10:11:39Z</time>
      </trkpt>
      <trkpt lat="44.62532" lon="5.98236">
        <ele>1189.6</ele>
        <time>2023-05-15T10:11:40Z</time>
      </trkpt>
      <trkpt lat="44.62533" lon="5.98237">
        <ele>1189.6</ele>
        <time>2023-05-15T10:11:41Z</time>
      </trkpt>
      <trkpt lat="44.62534" lon="5.98238">
        <ele>1189.8</ele>
        <time>2023-05-15T10:11:42Z</time>
      </trkpt>
      <trkpt lat="44.62535" lon="5.9824">
        <ele>1190</ele>
        <time>2023-05-15T10:11:43Z</time>
      </trkpt>
      <trkpt lat="44.62536" lon="5.9824">
        <ele>1190</ele>
        <time>2023-05-15T10:11:44Z</time>
      </trkpt>
      <trkpt lat="44.62537" lon="5.98241">
        <ele>1190.2</ele>
        <time>2023-05-15T10:11:45Z</time>
      </trkpt>
      <trkpt lat="44.62538" lon="5.98241">
        <ele>1190.2</ele>
        <time>2023-05-15T10:11:46Z</time>
      </trkpt>
      <trkpt lat="44.62538" lon="5.98242">
        <ele>1190.2</ele>
        <time>2023-05-15T10:11:47Z</time>
      </trkpt>
      <trkpt lat="44.6254" lon="5.98243">
        <ele>1190.2</ele>
        <time>2023-05-15T10:11:48Z</time>
      </trkpt>
      <trkpt lat="44.62541" lon="5.98244">
        <ele>1190.2</ele>
        <time>2023-05-15T10:11:50Z</time>
      </trkpt>
      <trkpt lat="44.62542" lon="5.98245">
        <ele>1190.2</ele>
        <time>2023-05-15T10:11:51Z</time>
      </trkpt>
      <trkpt lat="44.62543" lon="5.98246">
        <ele>1190.2</ele>
        <time>2023-05-15T10:11:52Z</time>
      </trkpt>
      <trkpt lat="44.62545" lon="5.98247">
        <ele>1190.2</ele>
        <time>2023-05-15T10:11:53Z</time>
      </trkpt>
      <trkpt lat="44.62552" lon="5.98248">
        <ele>1190</ele>
        <time>2023-05-15T10:11:56Z</time>
      </trkpt>
      <trkpt lat="44.62562" lon="5.98254">
        <ele>1189.6</ele>
        <time>2023-05-15T10:12:00Z</time>
      </trkpt>
      <trkpt lat="44.62564" lon="5.98255">
        <ele>1189.4</ele>
        <time>2023-05-15T10:12:01Z</time>
      </trkpt>
      <trkpt lat="44.62566" lon="5.98256">
        <ele>1189.2</ele>
        <time>2023-05-15T10:12:02Z</time>
      </trkpt>
      <trkpt lat="44.62569" lon="5.98256">
        <ele>1189.2</ele>
        <time>2023-05-15T10:12:03Z</time>
      </trkpt>
      <trkpt lat="44.62585" lon="5.98265">
        <ele>1189</ele>
        <time>2023-05-15T10:12:08Z</time>
      </trkpt>
      <trkpt lat="44.62587" lon="5.98266">
        <ele>1189</ele>
        <time>2023-05-15T10:12:09Z</time>
      </trkpt>
      <trkpt lat="44.62588" lon="5.98267">
        <ele>1189</ele>
        <time>2023-05-15T10:12:10Z</time>
      </trkpt>
      <trkpt lat="44.6259" lon="5.98268">
        <ele>1189.2</ele>
        <time>2023-05-15T10:12:11Z</time>
      </trkpt>
      <trkpt lat="44.62592" lon="5.98269">
        <ele>1189.4</ele>
        <time>2023-05-15T10:12:12Z</time>
      </trkpt>
      <trkpt lat="44.62594" lon="5.9827">
        <ele>1189.6</ele>
        <time>2023-05-15T10:12:13Z</time>
      </trkpt>
      <trkpt lat="44.62601" lon="5.98267">
        <ele>1190</ele>
        <time>2023-05-15T10:12:15Z</time>
      </trkpt>
      <trkpt lat="44.62604" lon="5.98267">
        <ele>1190</ele>
        <time>2023-05-15T10:12:16Z</time>
      </trkpt>
      <trkpt lat="44.62613" lon="5.9827">
        <ele>1190</ele>
        <time>2023-05-15T10:12:19Z</time>
      </trkpt>
      <trkpt lat="44.62615" lon="5.98272">
        <ele>1190</ele>
        <time>2023-05-15T10:12:21Z</time>
      </trkpt>
      <trkpt lat="44.62616" lon="5.98273">
        <ele>1190</ele>
        <time>2023-05-15T10:12:22Z</time>
      </trkpt>
      <trkpt lat="44.62618" lon="5.98274">
        <ele>1190</ele>
        <time>2023-05-15T10:12:23Z</time>
      </trkpt>
      <trkpt lat="44.62619" lon="5.98275">
        <ele>1190</ele>
        <time>2023-05-15T10:12:24Z</time>
      </trkpt>
      <trkpt lat="44.6262" lon="5.98276">
        <ele>1190</ele>
        <time>2023-05-15T10:12:25Z</time>
      </trkpt>
      <trkpt lat="44.62622" lon="5.98278">
        <ele>1190</ele>
        <time>2023-05-15T10:12:27Z</time>
      </trkpt>
      <trkpt lat="44.62623" lon="5.98278">
        <ele>1190.2</ele>
        <time>2023-05-15T10:12:28Z</time>
      </trkpt>
      <trkpt lat="44.62625" lon="5.9828">
        <ele>1190.4</ele>
        <time>2023-05-15T10:12:29Z</time>
      </trkpt>
      <trkpt lat="44.62627" lon="5.98282">
        <ele>1190.8</ele>
        <time>2023-05-15T10:12:30Z</time>
      </trkpt>
      <trkpt lat="44.6263" lon="5.98285">
        <ele>1191.2</ele>
        <time>2023-05-15T10:12:31Z</time>
      </trkpt>
      <trkpt lat="44.62632" lon="5.98287">
        <ele>1191.4</ele>
        <time>2023-05-15T10:12:32Z</time>
      </trkpt>
      <trkpt lat="44.62638" lon="5.98294">
        <ele>1191.8</ele>
        <time>2023-05-15T10:12:35Z</time>
      </trkpt>
      <trkpt lat="44.6264" lon="5.98297">
        <ele>1191.8</ele>
        <time>2023-05-15T10:12:36Z</time>
      </trkpt>
      <trkpt lat="44.62642" lon="5.98298">
        <ele>1191.8</ele>
        <time>2023-05-15T10:12:37Z</time>
      </trkpt>
      <trkpt lat="44.62644" lon="5.98299">
        <ele>1191.8</ele>
        <time>2023-05-15T10:12:38Z</time>
      </trkpt>
      <trkpt lat="44.6265" lon="5.98306">
        <ele>1191.6</ele>
        <time>2023-05-15T10:12:41Z</time>
      </trkpt>
      <trkpt lat="44.62657" lon="5.98312">
        <ele>1191.6</ele>
        <time>2023-05-15T10:12:45Z</time>
      </trkpt>
      <trkpt lat="44.62659" lon="5.98314">
        <ele>1191.4</ele>
        <time>2023-05-15T10:12:46Z</time>
      </trkpt>
      <trkpt lat="44.6266" lon="5.98316">
        <ele>1191.4</ele>
        <time>2023-05-15T10:12:47Z</time>
      </trkpt>
      <trkpt lat="44.62661" lon="5.98318">
        <ele>1191.4</ele>
        <time>2023-05-15T10:12:48Z</time>
      </trkpt>
      <trkpt lat="44.62663" lon="5.98319">
        <ele>1191.4</ele>
        <time>2023-05-15T10:12:49Z</time>
      </trkpt>
      <trkpt lat="44.62665" lon="5.98322">
        <ele>1191.4</ele>
        <time>2023-05-15T10:12:50Z</time>
      </trkpt>
      <trkpt lat="44.62666" lon="5.98324">
        <ele>1191.4</ele>
        <time>2023-05-15T10:12:51Z</time>
      </trkpt>
      <trkpt lat="44.62667" lon="5.98327">
        <ele>1191.4</ele>
        <time>2023-05-15T10:12:52Z</time>
      </trkpt>
      <trkpt lat="44.62669" lon="5.9833">
        <ele>1191.4</ele>
        <time>2023-05-15T10:12:53Z</time>
      </trkpt>
      <trkpt lat="44.6267" lon="5.98332">
        <ele>1191.4</ele>
        <time>2023-05-15T10:12:54Z</time>
      </trkpt>
      <trkpt lat="44.62671" lon="5.98335">
        <ele>1191.4</ele>
        <time>2023-05-15T10:12:55Z</time>
      </trkpt>
      <trkpt lat="44.62678" lon="5.98344">
        <ele>1191.2</ele>
        <time>2023-05-15T10:13:00Z</time>
      </trkpt>
      <trkpt lat="44.62679" lon="5.98345">
        <ele>1191.4</ele>
        <time>2023-05-15T10:13:01Z</time>
      </trkpt>
      <trkpt lat="44.62681" lon="5.98345">
        <ele>1191.4</ele>
        <time>2023-05-15T10:13:02Z</time>
      </trkpt>
      <trkpt lat="44.62682" lon="5.98345">
        <ele>1191.4</ele>
        <time>2023-05-15T10:13:03Z</time>
      </trkpt>
      <trkpt lat="44.62683" lon="5.98346">
        <ele>1191.6</ele>
        <time>2023-05-15T10:13:04Z</time>
      </trkpt>
      <trkpt lat="44.62684" lon="5.98347">
        <ele>1191.8</ele>
        <time>2023-05-15T10:13:05Z</time>
      </trkpt>
      <trkpt lat="44.62685" lon="5.98348">
        <ele>1192</ele>
        <time>2023-05-15T10:13:06Z</time>
      </trkpt>
      <trkpt lat="44.62686" lon="5.98349">
        <ele>1192.2</ele>
        <time>2023-05-15T10:13:07Z</time>
      </trkpt>
      <trkpt lat="44.62687" lon="5.9835">
        <ele>1192.2</ele>
        <time>2023-05-15T10:13:08Z</time>
      </trkpt>
      <trkpt lat="44.62688" lon="5.9835">
        <ele>1192.6</ele>
        <time>2023-05-15T10:13:09Z</time>
      </trkpt>
      <trkpt lat="44.62688" lon="5.9835">
        <ele>1192.6</ele>
        <time>2023-05-15T10:13:10Z</time>
      </trkpt>
      <trkpt lat="44.62688" lon="5.9835">
        <ele>1192.8</ele>
        <time>2023-05-15T10:13:11Z</time>
      </trkpt>
      <trkpt lat="44.62689" lon="5.9835">
        <ele>1192.8</ele>
        <time>2023-05-15T10:13:12Z</time>
      </trkpt>
      <trkpt lat="44.62689" lon="5.9835">
        <ele>1193</ele>
        <time>2023-05-15T10:13:13Z</time>
      </trkpt>
      <trkpt lat="44.62689" lon="5.9835">
        <ele>1193.6</ele>
        <time>2023-05-15T10:13:16Z</time>
      </trkpt>
      <trkpt lat="44.6269" lon="5.98351">
        <ele>1194.8</ele>
        <time>2023-05-15T10:13:23Z</time>
      </trkpt>
      <trkpt lat="44.6269" lon="5.98351">
        <ele>1194.8</ele>
        <time>2023-05-15T10:13:25Z</time>
      </trkpt>
      <trkpt lat="44.6269" lon="5.98351">
        <ele>1195.2</ele>
        <time>2023-05-15T10:13:28Z</time>
      </trkpt>
      <trkpt lat="44.6269" lon="5.98351">
        <ele>1195.4</ele>
        <time>2023-05-15T10:13:29Z</time>
      </trkpt>
      <trkpt lat="44.6269" lon="5.98351">
        <ele>1195.4</ele>
        <time>2023-05-15T10:13:30Z</time>
      </trkpt>
      <trkpt lat="44.6269" lon="5.98351">
        <ele>1195.4</ele>
        <time>2023-05-15T10:13:31Z</time>
      </trkpt>
      <trkpt lat="44.6269" lon="5.98351">
        <ele>1195.8</ele>
        <time>2023-05-15T10:13:34Z</time>
      </trkpt>
      <trkpt lat="44.62691" lon="5.98352">
        <ele>1196</ele>
        <time>2023-05-15T10:13:37Z</time>
      </trkpt>
      <trkpt lat="44.62694" lon="5.98354">
        <ele>1196.6</ele>
        <time>2023-05-15T10:13:41Z</time>
      </trkpt>
      <trkpt lat="44.62694" lon="5.98355">
        <ele>1196.6</ele>
        <time>2023-05-15T10:13:42Z</time>
      </trkpt>
      <trkpt lat="44.62695" lon="5.98356">
        <ele>1196.6</ele>
        <time>2023-05-15T10:13:43Z</time>
      </trkpt>
      <trkpt lat="44.62695" lon="5.98356">
        <ele>1196.6</ele>
        <time>2023-05-15T10:13:44Z</time>
      </trkpt>
      <trkpt lat="44.62695" lon="5.98356">
        <ele>1196.8</ele>
        <time>2023-05-15T10:13:45Z</time>
      </trkpt>
      <trkpt lat="44.62696" lon="5.98357">
        <ele>1196.8</ele>
        <time>2023-05-15T10:13:46Z</time>
      </trkpt>
      <trkpt lat="44.62697" lon="5.98358">
        <ele>1197</ele>
        <time>2023-05-15T10:13:47Z</time>
      </trkpt>
      <trkpt lat="44.62698" lon="5.98359">
        <ele>1197</ele>
        <time>2023-05-15T10:13:48Z</time>
      </trkpt>
      <trkpt lat="44.62699" lon="5.98359">
        <ele>1197.4</ele>
        <time>2023-05-15T10:13:49Z</time>
      </trkpt>
      <trkpt lat="44.627" lon="5.9836">
        <ele>1197.6</ele>
        <time>2023-05-15T10:13:50Z</time>
      </trkpt>
      <trkpt lat="44.62701" lon="5.9836">
        <ele>1197.6</ele>
        <time>2023-05-15T10:13:51Z</time>
      </trkpt>
      <trkpt lat="44.62702" lon="5.98361">
        <ele>1198</ele>
        <time>2023-05-15T10:13:52Z</time>
      </trkpt>
      <trkpt lat="44.62702" lon="5.98362">
        <ele>1198</ele>
        <time>2023-05-15T10:13:53Z</time>
      </trkpt>
      <trkpt lat="44.62703" lon="5.98363">
        <ele>1198.4</ele>
        <time>2023-05-15T10:13:54Z</time>
      </trkpt>
      <trkpt lat="44.62703" lon="5.98364">
        <ele>1198.4</ele>
        <time>2023-05-15T10:13:55Z</time>
      </trkpt>
      <trkpt lat="44.62704" lon="5.98365">
        <ele>1198.8</ele>
        <time>2023-05-15T10:13:56Z</time>
      </trkpt>
      <trkpt lat="44.62706" lon="5.98365">
        <ele>1198.8</ele>
        <time>2023-05-15T10:13:57Z</time>
      </trkpt>
      <trkpt lat="44.62707" lon="5.98366">
        <ele>1199</ele>
        <time>2023-05-15T10:13:58Z</time>
      </trkpt>
      <trkpt lat="44.62709" lon="5.98366">
        <ele>1199.2</ele>
        <time>2023-05-15T10:13:59Z</time>
      </trkpt>
      <trkpt lat="44.62709" lon="5.98366">
        <ele>1199.2</ele>
        <time>2023-05-15T10:14:00Z</time>
      </trkpt>
      <trkpt lat="44.62709" lon="5.98366">
        <ele>1199.2</ele>
        <time>2023-05-15T10:14:01Z</time>
      </trkpt>
      <trkpt lat="44.62711" lon="5.98367">
        <ele>1199</ele>
        <time>2023-05-15T10:14:08Z</time>
      </trkpt>
      <trkpt lat="44.62712" lon="5.98368">
        <ele>1199</ele>
        <time>2023-05-15T10:14:09Z</time>
      </trkpt>
      <trkpt lat="44.62713" lon="5.98369">
        <ele>1199</ele>
        <time>2023-05-15T10:14:10Z</time>
      </trkpt>
      <trkpt lat="44.62714" lon="5.9837">
        <ele>1199</ele>
        <time>2023-05-15T10:14:11Z</time>
      </trkpt>
      <trkpt lat="44.62717" lon="5.98373">
        <ele>1199</ele>
        <time>2023-05-15T10:14:13Z</time>
      </trkpt>
      <trkpt lat="44.62718" lon="5.98375">
        <ele>1199</ele>
        <time>2023-05-15T10:14:14Z</time>
      </trkpt>
      <trkpt lat="44.62722" lon="5.98383">
        <ele>1200</ele>
        <time>2023-05-15T10:14:18Z</time>
      </trkpt>
      <trkpt lat="44.62723" lon="5.98385">
        <ele>1200.2</ele>
        <time>2023-05-15T10:14:19Z</time>
      </trkpt>
      <trkpt lat="44.62728" lon="5.9839">
        <ele>1200.6</ele>
        <time>2023-05-15T10:14:22Z</time>
      </trkpt>
      <trkpt lat="44.6273" lon="5.98392">
        <ele>1200.6</ele>
        <time>2023-05-15T10:14:23Z</time>
      </trkpt>
      <trkpt lat="44.62748" lon="5.98406">
        <ele>1200.4</ele>
        <time>2023-05-15T10:14:31Z</time>
      </trkpt>
      <trkpt lat="44.62762" lon="5.9842">
        <ele>1200.4</ele>
        <time>2023-05-15T10:14:38Z</time>
      </trkpt>
      <trkpt lat="44.62777" lon="5.98439">
        <ele>1199.8</ele>
        <time>2023-05-15T10:14:45Z</time>
      </trkpt>
      <trkpt lat="44.62787" lon="5.98451">
        <ele>1199.4</ele>
        <time>2023-05-15T10:14:49Z</time>
      </trkpt>
      <trkpt lat="44.62789" lon="5.98456">
        <ele>1199.2</ele>
        <time>2023-05-15T10:14:50Z</time>
      </trkpt>
      <trkpt lat="44.62791" lon="5.9846">
        <ele>1199</ele>
        <time>2023-05-15T10:14:51Z</time>
      </trkpt>
      <trkpt lat="44.62794" lon="5.98471">
        <ele>1198.6</ele>
        <time>2023-05-15T10:14:54Z</time>
      </trkpt>
      <trkpt lat="44.62797" lon="5.98477">
        <ele>1198.4</ele>
        <time>2023-05-15T10:14:56Z</time>
      </trkpt>
      <trkpt lat="44.62799" lon="5.98479">
        <ele>1198.2</ele>
        <time>2023-05-15T10:14:57Z</time>
      </trkpt>
      <trkpt lat="44.62802" lon="5.98482">
        <ele>1198</ele>
        <time>2023-05-15T10:14:58Z</time>
      </trkpt>
      <trkpt lat="44.62805" lon="5.98485">
        <ele>1197.6</ele>
        <time>2023-05-15T10:14:59Z</time>
      </trkpt>
      <trkpt lat="44.62809" lon="5.98488">
        <ele>1197.4</ele>
        <time>2023-05-15T10:15:00Z</time>
      </trkpt>
      <trkpt lat="44.62818" lon="5.98495">
        <ele>1196.8</ele>
        <time>2023-05-15T10:15:02Z</time>
      </trkpt>
      <trkpt lat="44.6284" lon="5.985">
        <ele>1195.6</ele>
        <time>2023-05-15T10:15:06Z</time>
      </trkpt>
      <trkpt lat="44.62845" lon="5.98503">
        <ele>1195.2</ele>
        <time>2023-05-15T10:15:07Z</time>
      </trkpt>
      <trkpt lat="44.62851" lon="5.98506">
        <ele>1194.2</ele>
        <time>2023-05-15T10:15:08Z</time>
      </trkpt>
      <trkpt lat="44.62861" lon="5.9851">
        <ele>1193.4</ele>
        <time>2023-05-15T10:15:10Z</time>
      </trkpt>
      <trkpt lat="44.62868" lon="5.98512">
        <ele>1193</ele>
        <time>2023-05-15T10:15:11Z</time>
      </trkpt>
      <trkpt lat="44.62879" lon="5.98518">
        <ele>1191.6</ele>
        <time>2023-05-15T10:15:13Z</time>
      </trkpt>
      <trkpt lat="44.62887" lon="5.98524">
        <ele>1189.8</ele>
        <time>2023-05-15T10:15:15Z</time>
      </trkpt>
      <trkpt lat="44.62891" lon="5.98526">
        <ele>1189.4</ele>
        <time>2023-05-15T10:15:16Z</time>
      </trkpt>
      <trkpt lat="44.62894" lon="5.98527">
        <ele>1189</ele>
        <time>2023-05-15T10:15:17Z</time>
      </trkpt>
      <trkpt lat="44.62897" lon="5.98528">
        <ele>1188.8</ele>
        <time>2023-05-15T10:15:18Z</time>
      </trkpt>
      <trkpt lat="44.629" lon="5.9853">
        <ele>1188.6</ele>
        <time>2023-05-15T10:15:19Z</time>
      </trkpt>
      <trkpt lat="44.62903" lon="5.9853">
        <ele>1188.6</ele>
        <time>2023-05-15T10:15:20Z</time>
      </trkpt>
      <trkpt lat="44.62915" lon="5.98535">
        <ele>1188.6</ele>
        <time>2023-05-15T10:15:24Z</time>
      </trkpt>
      <trkpt lat="44.62918" lon="5.98537">
        <ele>1188.6</ele>
        <time>2023-05-15T10:15:25Z</time>
      </trkpt>
      <trkpt lat="44.62921" lon="5.9854">
        <ele>1188.6</ele>
        <time>2023-05-15T10:15:26Z</time>
      </trkpt>
      <trkpt lat="44.62923" lon="5.98541">
        <ele>1188.6</ele>
        <time>2023-05-15T10:15:27Z</time>
      </trkpt>
      <trkpt lat="44.62926" lon="5.98542">
        <ele>1188.6</ele>
        <time>2023-05-15T10:15:28Z</time>
      </trkpt>
      <trkpt lat="44.62928" lon="5.98544">
        <ele>1188.8</ele>
        <time>2023-05-15T10:15:29Z</time>
      </trkpt>
      <trkpt lat="44.6293" lon="5.98546">
        <ele>1188.8</ele>
        <time>2023-05-15T10:15:30Z</time>
      </trkpt>
      <trkpt lat="44.62931" lon="5.98547">
        <ele>1188.8</ele>
        <time>2023-05-15T10:15:31Z</time>
      </trkpt>
      <trkpt lat="44.62933" lon="5.98549">
        <ele>1188.8</ele>
        <time>2023-05-15T10:15:32Z</time>
      </trkpt>
      <trkpt lat="44.62937" lon="5.98551">
        <ele>1189</ele>
        <time>2023-05-15T10:15:34Z</time>
      </trkpt>
      <trkpt lat="44.62942" lon="5.98553">
        <ele>1189.4</ele>
        <time>2023-05-15T10:15:37Z</time>
      </trkpt>
      <trkpt lat="44.62945" lon="5.98554">
        <ele>1189.4</ele>
        <time>2023-05-15T10:15:39Z</time>
      </trkpt>
      <trkpt lat="44.62947" lon="5.98555">
        <ele>1189.6</ele>
        <time>2023-05-15T10:15:40Z</time>
      </trkpt>
      <trkpt lat="44.62951" lon="5.98555">
        <ele>1189.6</ele>
        <time>2023-05-15T10:15:42Z</time>
      </trkpt>
      <trkpt lat="44.62953" lon="5.98555">
        <ele>1189.8</ele>
        <time>2023-05-15T10:15:43Z</time>
      </trkpt>
      <trkpt lat="44.62954" lon="5.98555">
        <ele>1189.8</ele>
        <time>2023-05-15T10:15:44Z</time>
      </trkpt>
      <trkpt lat="44.62956" lon="5.98556">
        <ele>1189.8</ele>
        <time>2023-05-15T10:15:45Z</time>
      </trkpt>
      <trkpt lat="44.62959" lon="5.98557">
        <ele>1190</ele>
        <time>2023-05-15T10:15:46Z</time>
      </trkpt>
      <trkpt lat="44.62962" lon="5.98557">
        <ele>1190</ele>
        <time>2023-05-15T10:15:47Z</time>
      </trkpt>
      <trkpt lat="44.62974" lon="5.9856">
        <ele>1190.2</ele>
        <time>2023-05-15T10:15:52Z</time>
      </trkpt>
      <trkpt lat="44.62985" lon="5.98563">
        <ele>1190.6</ele>
        <time>2023-05-15T10:15:56Z</time>
      </trkpt>
      <trkpt lat="44.6299" lon="5.98564">
        <ele>1190.8</ele>
        <time>2023-05-15T10:15:58Z</time>
      </trkpt>
      <trkpt lat="44.62995" lon="5.98568">
        <ele>1190.8</ele>
        <time>2023-05-15T10:16:00Z</time>
      </trkpt>
      <trkpt lat="44.62998" lon="5.98569">
        <ele>1190.8</ele>
        <time>2023-05-15T10:16:01Z</time>
      </trkpt>
      <trkpt lat="44.63" lon="5.98569">
        <ele>1190.8</ele>
        <time>2023-05-15T10:16:02Z</time>
      </trkpt>
      <trkpt lat="44.63002" lon="5.98569">
        <ele>1190.8</ele>
        <time>2023-05-15T10:16:03Z</time>
      </trkpt>
      <trkpt lat="44.63005" lon="5.98569">
        <ele>1190.8</ele>
        <time>2023-05-15T10:16:04Z</time>
      </trkpt>
      <trkpt lat="44.63008" lon="5.9857">
        <ele>1190.8</ele>
        <time>2023-05-15T10:16:05Z</time>
      </trkpt>
      <trkpt lat="44.63013" lon="5.98573">
        <ele>1190.8</ele>
        <time>2023-05-15T10:16:08Z</time>
      </trkpt>
      <trkpt lat="44.63015" lon="5.98574">
        <ele>1191</ele>
        <time>2023-05-15T10:16:09Z</time>
      </trkpt>
      <trkpt lat="44.63018" lon="5.98574">
        <ele>1191</ele>
        <time>2023-05-15T10:16:10Z</time>
      </trkpt>
      <trkpt lat="44.63021" lon="5.98577">
        <ele>1191.2</ele>
        <time>2023-05-15T10:16:12Z</time>
      </trkpt>
      <trkpt lat="44.63023" lon="5.98576">
        <ele>1191.2</ele>
        <time>2023-05-15T10:16:13Z</time>
      </trkpt>
      <trkpt lat="44.63024" lon="5.98577">
        <ele>1191.4</ele>
        <time>2023-05-15T10:16:14Z</time>
      </trkpt>
      <trkpt lat="44.63025" lon="5.98578">
        <ele>1191.4</ele>
        <time>2023-05-15T10:16:15Z</time>
      </trkpt>
      <trkpt lat="44.63027" lon="5.98578">
        <ele>1191.6</ele>
        <time>2023-05-15T10:16:16Z</time>
      </trkpt>
      <trkpt lat="44.63028" lon="5.98579">
        <ele>1191.8</ele>
        <time>2023-05-15T10:16:17Z</time>
      </trkpt>
      <trkpt lat="44.6303" lon="5.98579">
        <ele>1192</ele>
        <time>2023-05-15T10:16:18Z</time>
      </trkpt>
      <trkpt lat="44.63032" lon="5.98578">
        <ele>1192.2</ele>
        <time>2023-05-15T10:16:19Z</time>
      </trkpt>
      <trkpt lat="44.63033" lon="5.98579">
        <ele>1192.2</ele>
        <time>2023-05-15T10:16:20Z</time>
      </trkpt>
      <trkpt lat="44.63035" lon="5.9858">
        <ele>1192.6</ele>
        <time>2023-05-15T10:16:21Z</time>
      </trkpt>
      <trkpt lat="44.63035" lon="5.98581">
        <ele>1192.8</ele>
        <time>2023-05-15T10:16:22Z</time>
      </trkpt>
      <trkpt lat="44.63036" lon="5.98582">
        <ele>1193</ele>
        <time>2023-05-15T10:16:23Z</time>
      </trkpt>
      <trkpt lat="44.63037" lon="5.98582">
        <ele>1193</ele>
        <time>2023-05-15T10:16:24Z</time>
      </trkpt>
      <trkpt lat="44.63039" lon="5.98583">
        <ele>1193.2</ele>
        <time>2023-05-15T10:16:25Z</time>
      </trkpt>
      <trkpt lat="44.6304" lon="5.98584">
        <ele>1193.2</ele>
        <time>2023-05-15T10:16:26Z</time>
      </trkpt>
      <trkpt lat="44.63041" lon="5.98584">
        <ele>1193</ele>
        <time>2023-05-15T10:16:27Z</time>
      </trkpt>
      <trkpt lat="44.63044" lon="5.98584">
        <ele>1193.4</ele>
        <time>2023-05-15T10:16:28Z</time>
      </trkpt>
      <trkpt lat="44.63046" lon="5.98584">
        <ele>1193.4</ele>
        <time>2023-05-15T10:16:29Z</time>
      </trkpt>
      <trkpt lat="44.63048" lon="5.98586">
        <ele>1193.4</ele>
        <time>2023-05-15T10:16:30Z</time>
      </trkpt>
      <trkpt lat="44.6305" lon="5.98588">
        <ele>1193.4</ele>
        <time>2023-05-15T10:16:31Z</time>
      </trkpt>
      <trkpt lat="44.63052" lon="5.98588">
        <ele>1193.6</ele>
        <time>2023-05-15T10:16:32Z</time>
      </trkpt>
      <trkpt lat="44.63054" lon="5.98588">
        <ele>1193.6</ele>
        <time>2023-05-15T10:16:33Z</time>
      </trkpt>
      <trkpt lat="44.63054" lon="5.98588">
        <ele>1193.8</ele>
        <time>2023-05-15T10:16:34Z</time>
      </trkpt>
      <trkpt lat="44.63054" lon="5.98588">
        <ele>1193.8</ele>
        <time>2023-05-15T10:16:35Z</time>
      </trkpt>
      <trkpt lat="44.63054" lon="5.98588">
        <ele>1194</ele>
        <time>2023-05-15T10:16:36Z</time>
      </trkpt>
      <trkpt lat="44.63056" lon="5.98588">
        <ele>1194.2</ele>
        <time>2023-05-15T10:16:37Z</time>
      </trkpt>
      <trkpt lat="44.63058" lon="5.98587">
        <ele>1194.4</ele>
        <time>2023-05-15T10:16:38Z</time>
      </trkpt>
      <trkpt lat="44.63059" lon="5.98586">
        <ele>1194.6</ele>
        <time>2023-05-15T10:16:39Z</time>
      </trkpt>
      <trkpt lat="44.6306" lon="5.98585">
        <ele>1194.6</ele>
        <time>2023-05-15T10:16:40Z</time>
      </trkpt>
      <trkpt lat="44.6306" lon="5.98585">
        <ele>1194.8</ele>
        <time>2023-05-15T10:16:41Z</time>
      </trkpt>
      <trkpt lat="44.6306" lon="5.98585">
        <ele>1195</ele>
        <time>2023-05-15T10:16:42Z</time>
      </trkpt>
      <trkpt lat="44.6306" lon="5.98585">
        <ele>1195.2</ele>
        <time>2023-05-15T10:16:43Z</time>
      </trkpt>
      <trkpt lat="44.6306" lon="5.98585">
        <ele>1195.4</ele>
        <time>2023-05-15T10:16:44Z</time>
      </trkpt>
      <trkpt lat="44.63061" lon="5.98585">
        <ele>1195.4</ele>
        <time>2023-05-15T10:16:45Z</time>
      </trkpt>
      <trkpt lat="44.63062" lon="5.98585">
        <ele>1195.6</ele>
        <time>2023-05-15T10:16:46Z</time>
      </trkpt>
      <trkpt lat="44.63063" lon="5.98585">
        <ele>1195.8</ele>
        <time>2023-05-15T10:16:47Z</time>
      </trkpt>
      <trkpt lat="44.63063" lon="5.98585">
        <ele>1195.8</ele>
        <time>2023-05-15T10:16:48Z</time>
      </trkpt>
      <trkpt lat="44.63064" lon="5.98585">
        <ele>1196</ele>
        <time>2023-05-15T10:16:49Z</time>
      </trkpt>
      <trkpt lat="44.63065" lon="5.98586">
        <ele>1196</ele>
        <time>2023-05-15T10:16:50Z</time>
      </trkpt>
      <trkpt lat="44.63067" lon="5.98586">
        <ele>1196</ele>
        <time>2023-05-15T10:16:51Z</time>
      </trkpt>
      <trkpt lat="44.63069" lon="5.98584">
        <ele>1196.2</ele>
        <time>2023-05-15T10:16:52Z</time>
      </trkpt>
      <trkpt lat="44.63071" lon="5.98583">
        <ele>1196.4</ele>
        <time>2023-05-15T10:16:53Z</time>
      </trkpt>
      <trkpt lat="44.63073" lon="5.98582">
        <ele>1196.6</ele>
        <time>2023-05-15T10:16:54Z</time>
      </trkpt>
      <trkpt lat="44.63075" lon="5.98582">
        <ele>1196.8</ele>
        <time>2023-05-15T10:16:55Z</time>
      </trkpt>
      <trkpt lat="44.63076" lon="5.98583">
        <ele>1196.8</ele>
        <time>2023-05-15T10:16:56Z</time>
      </trkpt>
      <trkpt lat="44.63078" lon="5.98582">
        <ele>1197</ele>
        <time>2023-05-15T10:16:57Z</time>
      </trkpt>
      <trkpt lat="44.63078" lon="5.98582">
        <ele>1197</ele>
        <time>2023-05-15T10:16:58Z</time>
      </trkpt>
      <trkpt lat="44.63078" lon="5.98582">
        <ele>1197.4</ele>
        <time>2023-05-15T10:16:59Z</time>
      </trkpt>
      <trkpt lat="44.63078" lon="5.98582">
        <ele>1197.4</ele>
        <time>2023-05-15T10:17:00Z</time>
      </trkpt>
      <trkpt lat="44.63079" lon="5.98582">
        <ele>1197.6</ele>
        <time>2023-05-15T10:17:01Z</time>
      </trkpt>
      <trkpt lat="44.63079" lon="5.98583">
        <ele>1197.8</ele>
        <time>2023-05-15T10:17:02Z</time>
      </trkpt>
      <trkpt lat="44.63079" lon="5.98583">
        <ele>1198.2</ele>
        <time>2023-05-15T10:17:03Z</time>
      </trkpt>
      <trkpt lat="44.63079" lon="5.98583">
        <ele>1198.4</ele>
        <time>2023-05-15T10:17:04Z</time>
      </trkpt>
      <trkpt lat="44.63079" lon="5.98583">
        <ele>1198.6</ele>
        <time>2023-05-15T10:17:05Z</time>
      </trkpt>
      <trkpt lat="44.63079" lon="5.98583">
        <ele>1198.8</ele>
        <time>2023-05-15T10:17:06Z</time>
      </trkpt>
      <trkpt lat="44.63081" lon="5.98582">
        <ele>1198.8</ele>
        <time>2023-05-15T10:17:07Z</time>
      </trkpt>
      <trkpt lat="44.63083" lon="5.98583">
        <ele>1199</ele>
        <time>2023-05-15T10:17:08Z</time>
      </trkpt>
      <trkpt lat="44.63086" lon="5.98583">
        <ele>1199</ele>
        <time>2023-05-15T10:17:09Z</time>
      </trkpt>
      <trkpt lat="44.63089" lon="5.98581">
        <ele>1199.4</ele>
        <time>2023-05-15T10:17:10Z</time>
      </trkpt>
      <trkpt lat="44.63092" lon="5.98581">
        <ele>1199.6</ele>
        <time>2023-05-15T10:17:11Z</time>
      </trkpt>
      <trkpt lat="44.63096" lon="5.98581">
        <ele>1199.6</ele>
        <time>2023-05-15T10:17:12Z</time>
      </trkpt>
      <trkpt lat="44.63099" lon="5.98581">
        <ele>1199.8</ele>
        <time>2023-05-15T10:17:13Z</time>
      </trkpt>
      <trkpt lat="44.631" lon="5.98582">
        <ele>1199.8</ele>
        <time>2023-05-15T10:17:14Z</time>
      </trkpt>
      <trkpt lat="44.631" lon="5.98581">
        <ele>1199.8</ele>
        <time>2023-05-15T10:17:15Z</time>
      </trkpt>
      <trkpt lat="44.631" lon="5.98581">
        <ele>1200</ele>
        <time>2023-05-15T10:17:16Z</time>
      </trkpt>
      <trkpt lat="44.63101" lon="5.98581">
        <ele>1200</ele>
        <time>2023-05-15T10:17:17Z</time>
      </trkpt>
      <trkpt lat="44.63103" lon="5.98581">
        <ele>1200</ele>
        <time>2023-05-15T10:17:18Z</time>
      </trkpt>
      <trkpt lat="44.63105" lon="5.98581">
        <ele>1200.2</ele>
        <time>2023-05-15T10:17:19Z</time>
      </trkpt>
      <trkpt lat="44.63107" lon="5.98581">
        <ele>1200.2</ele>
        <time>2023-05-15T10:17:20Z</time>
      </trkpt>
      <trkpt lat="44.63109" lon="5.98582">
        <ele>1200.2</ele>
        <time>2023-05-15T10:17:21Z</time>
      </trkpt>
      <trkpt lat="44.63111" lon="5.98582">
        <ele>1200.4</ele>
        <time>2023-05-15T10:17:22Z</time>
      </trkpt>
      <trkpt lat="44.63113" lon="5.98582">
        <ele>1200.4</ele>
        <time>2023-05-15T10:17:23Z</time>
      </trkpt>
      <trkpt lat="44.63116" lon="5.98581">
        <ele>1200.4</ele>
        <time>2023-05-15T10:17:24Z</time>
      </trkpt>
      <trkpt lat="44.63118" lon="5.98582">
        <ele>1200.6</ele>
        <time>2023-05-15T10:17:25Z</time>
      </trkpt>
      <trkpt lat="44.6312" lon="5.98582">
        <ele>1200.6</ele>
        <time>2023-05-15T10:17:26Z</time>
      </trkpt>
      <trkpt lat="44.6312" lon="5.98583">
        <ele>1200.6</ele>
        <time>2023-05-15T10:17:27Z</time>
      </trkpt>
      <trkpt lat="44.63122" lon="5.98583">
        <ele>1200.6</ele>
        <time>2023-05-15T10:17:28Z</time>
      </trkpt>
      <trkpt lat="44.63125" lon="5.98584">
        <ele>1200.6</ele>
        <time>2023-05-15T10:17:29Z</time>
      </trkpt>
      <trkpt lat="44.63127" lon="5.98586">
        <ele>1200.6</ele>
        <time>2023-05-15T10:17:30Z</time>
      </trkpt>
      <trkpt lat="44.63129" lon="5.98589">
        <ele>1200.6</ele>
        <time>2023-05-15T10:17:31Z</time>
      </trkpt>
      <trkpt lat="44.63129" lon="5.98591">
        <ele>1200.6</ele>
        <time>2023-05-15T10:17:32Z</time>
      </trkpt>
      <trkpt lat="44.63131" lon="5.98593">
        <ele>1200.6</ele>
        <time>2023-05-15T10:17:33Z</time>
      </trkpt>
      <trkpt lat="44.63131" lon="5.98596">
        <ele>1200.6</ele>
        <time>2023-05-15T10:17:34Z</time>
      </trkpt>
      <trkpt lat="44.63132" lon="5.98597">
        <ele>1200.6</ele>
        <time>2023-05-15T10:17:35Z</time>
      </trkpt>
      <trkpt lat="44.63132" lon="5.98598">
        <ele>1200.6</ele>
        <time>2023-05-15T10:17:36Z</time>
      </trkpt>
      <trkpt lat="44.63132" lon="5.98598">
        <ele>1200.6</ele>
        <time>2023-05-15T10:17:37Z</time>
      </trkpt>
      <trkpt lat="44.63132" lon="5.98599">
        <ele>1200.6</ele>
        <time>2023-05-15T10:17:38Z</time>
      </trkpt>
      <trkpt lat="44.63133" lon="5.986">
        <ele>1200.8</ele>
        <time>2023-05-15T10:17:39Z</time>
      </trkpt>
      <trkpt lat="44.63134" lon="5.98603">
        <ele>1200.8</ele>
        <time>2023-05-15T10:17:40Z</time>
      </trkpt>
      <trkpt lat="44.63135" lon="5.98604">
        <ele>1200.8</ele>
        <time>2023-05-15T10:17:41Z</time>
      </trkpt>
      <trkpt lat="44.63135" lon="5.98606">
        <ele>1201</ele>
        <time>2023-05-15T10:17:42Z</time>
      </trkpt>
      <trkpt lat="44.63137" lon="5.98608">
        <ele>1201</ele>
        <time>2023-05-15T10:17:43Z</time>
      </trkpt>
      <trkpt lat="44.63141" lon="5.98618">
        <ele>1201.2</ele>
        <time>2023-05-15T10:17:47Z</time>
      </trkpt>
      <trkpt lat="44.63144" lon="5.98622">
        <ele>1201.2</ele>
        <time>2023-05-15T10:17:49Z</time>
      </trkpt>
      <trkpt lat="44.63146" lon="5.98623">
        <ele>1201.2</ele>
        <time>2023-05-15T10:17:50Z</time>
      </trkpt>
      <trkpt lat="44.63147" lon="5.98625">
        <ele>1201.2</ele>
        <time>2023-05-15T10:17:51Z</time>
      </trkpt>
      <trkpt lat="44.63148" lon="5.98628">
        <ele>1201.2</ele>
        <time>2023-05-15T10:17:52Z</time>
      </trkpt>
      <trkpt lat="44.63148" lon="5.98629">
        <ele>1201.2</ele>
        <time>2023-05-15T10:17:53Z</time>
      </trkpt>
      <trkpt lat="44.63149" lon="5.9863">
        <ele>1201.2</ele>
        <time>2023-05-15T10:17:54Z</time>
      </trkpt>
      <trkpt lat="44.6315" lon="5.98631">
        <ele>1201.4</ele>
        <time>2023-05-15T10:17:55Z</time>
      </trkpt>
      <trkpt lat="44.63152" lon="5.98633">
        <ele>1201.4</ele>
        <time>2023-05-15T10:17:56Z</time>
      </trkpt>
      <trkpt lat="44.63153" lon="5.98635">
        <ele>1201.2</ele>
        <time>2023-05-15T10:17:57Z</time>
      </trkpt>
      <trkpt lat="44.63154" lon="5.98637">
        <ele>1201.2</ele>
        <time>2023-05-15T10:17:58Z</time>
      </trkpt>
      <trkpt lat="44.63156" lon="5.9864">
        <ele>1201.4</ele>
        <time>2023-05-15T10:18:00Z</time>
      </trkpt>
      <trkpt lat="44.6316" lon="5.98645">
        <ele>1201.4</ele>
        <time>2023-05-15T10:18:02Z</time>
      </trkpt>
      <trkpt lat="44.63168" lon="5.98649">
        <ele>1201.6</ele>
        <time>2023-05-15T10:18:05Z</time>
      </trkpt>
      <trkpt lat="44.6317" lon="5.9865">
        <ele>1201.6</ele>
        <time>2023-05-15T10:18:06Z</time>
      </trkpt>
      <trkpt lat="44.63171" lon="5.98652">
        <ele>1201.6</ele>
        <time>2023-05-15T10:18:07Z</time>
      </trkpt>
      <trkpt lat="44.63172" lon="5.98653">
        <ele>1201.8</ele>
        <time>2023-05-15T10:18:08Z</time>
      </trkpt>
      <trkpt lat="44.63173" lon="5.98656">
        <ele>1201.8</ele>
        <time>2023-05-15T10:18:09Z</time>
      </trkpt>
      <trkpt lat="44.63175" lon="5.98658">
        <ele>1201.8</ele>
        <time>2023-05-15T10:18:10Z</time>
      </trkpt>
      <trkpt lat="44.63176" lon="5.98661">
        <ele>1202</ele>
        <time>2023-05-15T10:18:11Z</time>
      </trkpt>
      <trkpt lat="44.63177" lon="5.98662">
        <ele>1202.2</ele>
        <time>2023-05-15T10:18:13Z</time>
      </trkpt>
      <trkpt lat="44.63177" lon="5.98664">
        <ele>1202.4</ele>
        <time>2023-05-15T10:18:14Z</time>
      </trkpt>
      <trkpt lat="44.63177" lon="5.98664">
        <ele>1202.6</ele>
        <time>2023-05-15T10:18:15Z</time>
      </trkpt>
      <trkpt lat="44.63177" lon="5.98665">
        <ele>1202.6</ele>
        <time>2023-05-15T10:18:16Z</time>
      </trkpt>
      <trkpt lat="44.63177" lon="5.98666">
        <ele>1202.8</ele>
        <time>2023-05-15T10:18:17Z</time>
      </trkpt>
      <trkpt lat="44.63177" lon="5.98667">
        <ele>1202.8</ele>
        <time>2023-05-15T10:18:18Z</time>
      </trkpt>
      <trkpt lat="44.63178" lon="5.98669">
        <ele>1203</ele>
        <time>2023-05-15T10:18:19Z</time>
      </trkpt>
      <trkpt lat="44.63178" lon="5.98669">
        <ele>1203.2</ele>
        <time>2023-05-15T10:18:20Z</time>
      </trkpt>
      <trkpt lat="44.63178" lon="5.9867">
        <ele>1203.4</ele>
        <time>2023-05-15T10:18:21Z</time>
      </trkpt>
      <trkpt lat="44.63179" lon="5.98673">
        <ele>1203.6</ele>
        <time>2023-05-15T10:18:22Z</time>
      </trkpt>
      <trkpt lat="44.63181" lon="5.98677">
        <ele>1203.8</ele>
        <time>2023-05-15T10:18:23Z</time>
      </trkpt>
      <trkpt lat="44.63181" lon="5.98677">
        <ele>1203.8</ele>
        <time>2023-05-15T10:18:25Z</time>
      </trkpt>
      <trkpt lat="44.63181" lon="5.98677">
        <ele>1204</ele>
        <time>2023-05-15T10:18:26Z</time>
      </trkpt>
      <trkpt lat="44.63181" lon="5.98677">
        <ele>1204</ele>
        <time>2023-05-15T10:18:27Z</time>
      </trkpt>
      <trkpt lat="44.63181" lon="5.98677">
        <ele>1204.2</ele>
        <time>2023-05-15T10:18:28Z</time>
      </trkpt>
      <trkpt lat="44.63182" lon="5.98681">
        <ele>1204.4</ele>
        <time>2023-05-15T10:18:29Z</time>
      </trkpt>
      <trkpt lat="44.63183" lon="5.98683">
        <ele>1204.4</ele>
        <time>2023-05-15T10:18:30Z</time>
      </trkpt>
      <trkpt lat="44.63184" lon="5.98685">
        <ele>1204.6</ele>
        <time>2023-05-15T10:18:31Z</time>
      </trkpt>
      <trkpt lat="44.63184" lon="5.98687">
        <ele>1205</ele>
        <time>2023-05-15T10:18:32Z</time>
      </trkpt>
      <trkpt lat="44.63184" lon="5.98689">
        <ele>1205</ele>
        <time>2023-05-15T10:18:33Z</time>
      </trkpt>
      <trkpt lat="44.63185" lon="5.98691">
        <ele>1205.2</ele>
        <time>2023-05-15T10:18:34Z</time>
      </trkpt>
      <trkpt lat="44.63185" lon="5.98692">
        <ele>1205.2</ele>
        <time>2023-05-15T10:18:35Z</time>
      </trkpt>
      <trkpt lat="44.63186" lon="5.98696">
        <ele>1205.4</ele>
        <time>2023-05-15T10:18:36Z</time>
      </trkpt>
      <trkpt lat="44.63186" lon="5.98696">
        <ele>1205.4</ele>
        <time>2023-05-15T10:18:37Z</time>
      </trkpt>
      <trkpt lat="44.63186" lon="5.98696">
        <ele>1205.6</ele>
        <time>2023-05-15T10:18:38Z</time>
      </trkpt>
      <trkpt lat="44.63186" lon="5.98697">
        <ele>1205.6</ele>
        <time>2023-05-15T10:18:39Z</time>
      </trkpt>
      <trkpt lat="44.63186" lon="5.98699">
        <ele>1205.6</ele>
        <time>2023-05-15T10:18:40Z</time>
      </trkpt>
      <trkpt lat="44.63187" lon="5.987">
        <ele>1205.6</ele>
        <time>2023-05-15T10:18:41Z</time>
      </trkpt>
      <trkpt lat="44.63187" lon="5.98702">
        <ele>1205.6</ele>
        <time>2023-05-15T10:18:42Z</time>
      </trkpt>
      <trkpt lat="44.63187" lon="5.98703">
        <ele>1205.8</ele>
        <time>2023-05-15T10:18:43Z</time>
      </trkpt>
      <trkpt lat="44.63188" lon="5.98705">
        <ele>1206</ele>
        <time>2023-05-15T10:18:44Z</time>
      </trkpt>
      <trkpt lat="44.6319" lon="5.98711">
        <ele>1206.2</ele>
        <time>2023-05-15T10:18:45Z</time>
      </trkpt>
      <trkpt lat="44.63192" lon="5.98715">
        <ele>1206.4</ele>
        <time>2023-05-15T10:18:46Z</time>
      </trkpt>
      <trkpt lat="44.63192" lon="5.98715">
        <ele>1206.6</ele>
        <time>2023-05-15T10:18:47Z</time>
      </trkpt>
      <trkpt lat="44.63192" lon="5.98715">
        <ele>1206.6</ele>
        <time>2023-05-15T10:18:48Z</time>
      </trkpt>
      <trkpt lat="44.63192" lon="5.98715">
        <ele>1206.8</ele>
        <time>2023-05-15T10:18:50Z</time>
      </trkpt>
      <trkpt lat="44.63192" lon="5.98715">
        <ele>1207</ele>
        <time>2023-05-15T10:18:52Z</time>
      </trkpt>
      <trkpt lat="44.63192" lon="5.98715">
        <ele>1207</ele>
        <time>2023-05-15T10:18:53Z</time>
      </trkpt>
      <trkpt lat="44.63192" lon="5.98715">
        <ele>1207</ele>
        <time>2023-05-15T10:18:54Z</time>
      </trkpt>
      <trkpt lat="44.63192" lon="5.98715">
        <ele>1207</ele>
        <time>2023-05-15T10:18:55Z</time>
      </trkpt>
      <trkpt lat="44.63193" lon="5.98716">
        <ele>1207.2</ele>
        <time>2023-05-15T10:18:56Z</time>
      </trkpt>
      <trkpt lat="44.63195" lon="5.9872">
        <ele>1207</ele>
        <time>2023-05-15T10:18:57Z</time>
      </trkpt>
      <trkpt lat="44.63197" lon="5.98723">
        <ele>1207</ele>
        <time>2023-05-15T10:18:58Z</time>
      </trkpt>
      <trkpt lat="44.63199" lon="5.98725">
        <ele>1207.2</ele>
        <time>2023-05-15T10:18:59Z</time>
      </trkpt>
      <trkpt lat="44.632" lon="5.98727">
        <ele>1207.2</ele>
        <time>2023-05-15T10:19:00Z</time>
      </trkpt>
      <trkpt lat="44.63201" lon="5.98727">
        <ele>1207.4</ele>
        <time>2023-05-15T10:19:01Z</time>
      </trkpt>
      <trkpt lat="44.63202" lon="5.9873">
        <ele>1207.4</ele>
        <time>2023-05-15T10:19:02Z</time>
      </trkpt>
      <trkpt lat="44.63203" lon="5.98733">
        <ele>1207.4</ele>
        <time>2023-05-15T10:19:03Z</time>
      </trkpt>
      <trkpt lat="44.63204" lon="5.98735">
        <ele>1207.4</ele>
        <time>2023-05-15T10:19:04Z</time>
      </trkpt>
      <trkpt lat="44.63205" lon="5.98736">
        <ele>1207.4</ele>
        <time>2023-05-15T10:19:05Z</time>
      </trkpt>
      <trkpt lat="44.63206" lon="5.98738">
        <ele>1207.6</ele>
        <time>2023-05-15T10:19:06Z</time>
      </trkpt>
      <trkpt lat="44.63208" lon="5.9874">
        <ele>1207.6</ele>
        <time>2023-05-15T10:19:07Z</time>
      </trkpt>
      <trkpt lat="44.63209" lon="5.98742">
        <ele>1207.8</ele>
        <time>2023-05-15T10:19:08Z</time>
      </trkpt>
      <trkpt lat="44.63211" lon="5.98746">
        <ele>1207.8</ele>
        <time>2023-05-15T10:19:09Z</time>
      </trkpt>
      <trkpt lat="44.63213" lon="5.98751">
        <ele>1207.8</ele>
        <time>2023-05-15T10:19:10Z</time>
      </trkpt>
      <trkpt lat="44.63214" lon="5.98754">
        <ele>1207.8</ele>
        <time>2023-05-15T10:19:11Z</time>
      </trkpt>
      <trkpt lat="44.63215" lon="5.98757">
        <ele>1207.8</ele>
        <time>2023-05-15T10:19:12Z</time>
      </trkpt>
      <trkpt lat="44.63217" lon="5.98761">
        <ele>1208</ele>
        <time>2023-05-15T10:19:13Z</time>
      </trkpt>
      <trkpt lat="44.63222" lon="5.98772">
        <ele>1207.8</ele>
        <time>2023-05-15T10:19:16Z</time>
      </trkpt>
      <trkpt lat="44.63224" lon="5.98774">
        <ele>1208</ele>
        <time>2023-05-15T10:19:17Z</time>
      </trkpt>
      <trkpt lat="44.63225" lon="5.98776">
        <ele>1208</ele>
        <time>2023-05-15T10:19:18Z</time>
      </trkpt>
      <trkpt lat="44.6323" lon="5.98785">
        <ele>1208</ele>
        <time>2023-05-15T10:19:21Z</time>
      </trkpt>
      <trkpt lat="44.63239" lon="5.98797">
        <ele>1207.8</ele>
        <time>2023-05-15T10:19:25Z</time>
      </trkpt>
      <trkpt lat="44.63243" lon="5.98814">
        <ele>1207.6</ele>
        <time>2023-05-15T10:19:31Z</time>
      </trkpt>
      <trkpt lat="44.63244" lon="5.98817">
        <ele>1207.6</ele>
        <time>2023-05-15T10:19:32Z</time>
      </trkpt>
      <trkpt lat="44.63244" lon="5.98819">
        <ele>1207.6</ele>
        <time>2023-05-15T10:19:33Z</time>
      </trkpt>
      <trkpt lat="44.63245" lon="5.98829">
        <ele>1207.6</ele>
        <time>2023-05-15T10:19:37Z</time>
      </trkpt>
      <trkpt lat="44.63246" lon="5.98832">
        <ele>1207.6</ele>
        <time>2023-05-15T10:19:38Z</time>
      </trkpt>
      <trkpt lat="44.63247" lon="5.98836">
        <ele>1207.8</ele>
        <time>2023-05-15T10:19:39Z</time>
      </trkpt>
      <trkpt lat="44.63246" lon="5.98841">
        <ele>1207.8</ele>
        <time>2023-05-15T10:19:41Z</time>
      </trkpt>
      <trkpt lat="44.63247" lon="5.98844">
        <ele>1207.8</ele>
        <time>2023-05-15T10:19:42Z</time>
      </trkpt>
      <trkpt lat="44.63247" lon="5.98846">
        <ele>1207.8</ele>
        <time>2023-05-15T10:19:43Z</time>
      </trkpt>
      <trkpt lat="44.63246" lon="5.98849">
        <ele>1207.8</ele>
        <time>2023-05-15T10:19:44Z</time>
      </trkpt>
      <trkpt lat="44.63245" lon="5.98852">
        <ele>1207.8</ele>
        <time>2023-05-15T10:19:45Z</time>
      </trkpt>
      <trkpt lat="44.63244" lon="5.98854">
        <ele>1207.8</ele>
        <time>2023-05-15T10:19:46Z</time>
      </trkpt>
      <trkpt lat="44.63244" lon="5.98857">
        <ele>1207.8</ele>
        <time>2023-05-15T10:19:47Z</time>
      </trkpt>
      <trkpt lat="44.63244" lon="5.9886">
        <ele>1207.6</ele>
        <time>2023-05-15T10:19:48Z</time>
      </trkpt>
      <trkpt lat="44.63244" lon="5.98863">
        <ele>1207.6</ele>
        <time>2023-05-15T10:19:49Z</time>
      </trkpt>
      <trkpt lat="44.63243" lon="5.98866">
        <ele>1207.6</ele>
        <time>2023-05-15T10:19:50Z</time>
      </trkpt>
      <trkpt lat="44.63243" lon="5.98869">
        <ele>1207.6</ele>
        <time>2023-05-15T10:19:51Z</time>
      </trkpt>
      <trkpt lat="44.63241" lon="5.98875">
        <ele>1207.6</ele>
        <time>2023-05-15T10:19:54Z</time>
      </trkpt>
      <trkpt lat="44.63242" lon="5.98878">
        <ele>1207.4</ele>
        <time>2023-05-15T10:19:55Z</time>
      </trkpt>
      <trkpt lat="44.63242" lon="5.98882">
        <ele>1207.4</ele>
        <time>2023-05-15T10:19:56Z</time>
      </trkpt>
      <trkpt lat="44.63242" lon="5.98884">
        <ele>1207.4</ele>
        <time>2023-05-15T10:19:57Z</time>
      </trkpt>
      <trkpt lat="44.63242" lon="5.98888">
        <ele>1207.4</ele>
        <time>2023-05-15T10:19:58Z</time>
      </trkpt>
      <trkpt lat="44.63241" lon="5.9889">
        <ele>1207.4</ele>
        <time>2023-05-15T10:19:59Z</time>
      </trkpt>
      <trkpt lat="44.6324" lon="5.98892">
        <ele>1207.4</ele>
        <time>2023-05-15T10:20:00Z</time>
      </trkpt>
      <trkpt lat="44.63239" lon="5.98894">
        <ele>1207.4</ele>
        <time>2023-05-15T10:20:01Z</time>
      </trkpt>
      <trkpt lat="44.63238" lon="5.98897">
        <ele>1207.4</ele>
        <time>2023-05-15T10:20:02Z</time>
      </trkpt>
      <trkpt lat="44.63238" lon="5.989">
        <ele>1207.6</ele>
        <time>2023-05-15T10:20:03Z</time>
      </trkpt>
      <trkpt lat="44.63237" lon="5.98901">
        <ele>1207.6</ele>
        <time>2023-05-15T10:20:04Z</time>
      </trkpt>
      <trkpt lat="44.63238" lon="5.98902">
        <ele>1207.6</ele>
        <time>2023-05-15T10:20:05Z</time>
      </trkpt>
      <trkpt lat="44.63238" lon="5.98902">
        <ele>1207.8</ele>
        <time>2023-05-15T10:20:07Z</time>
      </trkpt>
      <trkpt lat="44.63238" lon="5.98904">
        <ele>1208</ele>
        <time>2023-05-15T10:20:08Z</time>
      </trkpt>
      <trkpt lat="44.63238" lon="5.98906">
        <ele>1208.2</ele>
        <time>2023-05-15T10:20:09Z</time>
      </trkpt>
      <trkpt lat="44.63238" lon="5.98908">
        <ele>1208.2</ele>
        <time>2023-05-15T10:20:10Z</time>
      </trkpt>
      <trkpt lat="44.63237" lon="5.98909">
        <ele>1208.2</ele>
        <time>2023-05-15T10:20:11Z</time>
      </trkpt>
      <trkpt lat="44.63236" lon="5.98915">
        <ele>1208.8</ele>
        <time>2023-05-15T10:20:15Z</time>
      </trkpt>
      <trkpt lat="44.63236" lon="5.98915">
        <ele>1208.8</ele>
        <time>2023-05-15T10:20:16Z</time>
      </trkpt>
      <trkpt lat="44.63236" lon="5.98915">
        <ele>1209.2</ele>
        <time>2023-05-15T10:20:18Z</time>
      </trkpt>
      <trkpt lat="44.63236" lon="5.98915">
        <ele>1209.4</ele>
        <time>2023-05-15T10:20:20Z</time>
      </trkpt>
      <trkpt lat="44.63236" lon="5.98915">
        <ele>1209.6</ele>
        <time>2023-05-15T10:20:21Z</time>
      </trkpt>
      <trkpt lat="44.63236" lon="5.98915">
        <ele>1209.6</ele>
        <time>2023-05-15T10:20:24Z</time>
      </trkpt>
      <trkpt lat="44.63235" lon="5.98919">
        <ele>1209.8</ele>
        <time>2023-05-15T10:20:36Z</time>
      </trkpt>
      <trkpt lat="44.63235" lon="5.98921">
        <ele>1209.8</ele>
        <time>2023-05-15T10:20:39Z</time>
      </trkpt>
      <trkpt lat="44.63236" lon="5.98923">
        <ele>1210</ele>
        <time>2023-05-15T10:20:41Z</time>
      </trkpt>
      <trkpt lat="44.63236" lon="5.98923">
        <ele>1210</ele>
        <time>2023-05-15T10:20:42Z</time>
      </trkpt>
      <trkpt lat="44.63235" lon="5.98923">
        <ele>1210.4</ele>
        <time>2023-05-15T10:20:49Z</time>
      </trkpt>
      <trkpt lat="44.63235" lon="5.98923">
        <ele>1210.4</ele>
        <time>2023-05-15T10:20:50Z</time>
      </trkpt>
      <trkpt lat="44.63236" lon="5.98925">
        <ele>1210.4</ele>
        <time>2023-05-15T10:20:52Z</time>
      </trkpt>
      <trkpt lat="44.63235" lon="5.98929">
        <ele>1210.6</ele>
        <time>2023-05-15T10:20:55Z</time>
      </trkpt>
      <trkpt lat="44.63234" lon="5.98931">
        <ele>1210.6</ele>
        <time>2023-05-15T10:20:56Z</time>
      </trkpt>
      <trkpt lat="44.63234" lon="5.98933">
        <ele>1210.6</ele>
        <time>2023-05-15T10:20:57Z</time>
      </trkpt>
      <trkpt lat="44.63233" lon="5.9894">
        <ele>1210.8</ele>
        <time>2023-05-15T10:20:59Z</time>
      </trkpt>
      <trkpt lat="44.63231" lon="5.98948">
        <ele>1210.8</ele>
        <time>2023-05-15T10:21:02Z</time>
      </trkpt>
      <trkpt lat="44.63231" lon="5.98951">
        <ele>1211</ele>
        <time>2023-05-15T10:21:03Z</time>
      </trkpt>
      <trkpt lat="44.6323" lon="5.98954">
        <ele>1211</ele>
        <time>2023-05-15T10:21:04Z</time>
      </trkpt>
      <trkpt lat="44.6323" lon="5.98957">
        <ele>1211</ele>
        <time>2023-05-15T10:21:05Z</time>
      </trkpt>
      <trkpt lat="44.63228" lon="5.98962">
        <ele>1211.2</ele>
        <time>2023-05-15T10:21:07Z</time>
      </trkpt>
      <trkpt lat="44.63228" lon="5.98965">
        <ele>1211.2</ele>
        <time>2023-05-15T10:21:09Z</time>
      </trkpt>
      <trkpt lat="44.63228" lon="5.98969">
        <ele>1211</ele>
        <time>2023-05-15T10:21:10Z</time>
      </trkpt>
      <trkpt lat="44.63228" lon="5.98973">
        <ele>1211</ele>
        <time>2023-05-15T10:21:11Z</time>
      </trkpt>
      <trkpt lat="44.63229" lon="5.98977">
        <ele>1211.2</ele>
        <time>2023-05-15T10:21:12Z</time>
      </trkpt>
      <trkpt lat="44.63229" lon="5.9898">
        <ele>1211.2</ele>
        <time>2023-05-15T10:21:13Z</time>
      </trkpt>
      <trkpt lat="44.63229" lon="5.98986">
        <ele>1211.4</ele>
        <time>2023-05-15T10:21:15Z</time>
      </trkpt>
      <trkpt lat="44.6323" lon="5.98988">
        <ele>1211.8</ele>
        <time>2023-05-15T10:21:16Z</time>
      </trkpt>
      <trkpt lat="44.6323" lon="5.9899">
        <ele>1212</ele>
        <time>2023-05-15T10:21:17Z</time>
      </trkpt>
      <trkpt lat="44.6323" lon="5.98992">
        <ele>1212.2</ele>
        <time>2023-05-15T10:21:18Z</time>
      </trkpt>
      <trkpt lat="44.6323" lon="5.98994">
        <ele>1212.4</ele>
        <time>2023-05-15T10:21:19Z</time>
      </trkpt>
      <trkpt lat="44.6323" lon="5.98995">
        <ele>1212.4</ele>
        <time>2023-05-15T10:21:20Z</time>
      </trkpt>
      <trkpt lat="44.6323" lon="5.98997">
        <ele>1212.6</ele>
        <time>2023-05-15T10:21:21Z</time>
      </trkpt>
      <trkpt lat="44.63229" lon="5.98997">
        <ele>1212.8</ele>
        <time>2023-05-15T10:21:22Z</time>
      </trkpt>
      <trkpt lat="44.6323" lon="5.98998">
        <ele>1213</ele>
        <time>2023-05-15T10:21:23Z</time>
      </trkpt>
      <trkpt lat="44.6323" lon="5.99001">
        <ele>1213.4</ele>
        <time>2023-05-15T10:21:25Z</time>
      </trkpt>
      <trkpt lat="44.63229" lon="5.99002">
        <ele>1213.6</ele>
        <time>2023-05-15T10:21:26Z</time>
      </trkpt>
      <trkpt lat="44.63229" lon="5.99004">
        <ele>1213.8</ele>
        <time>2023-05-15T10:21:27Z</time>
      </trkpt>
      <trkpt lat="44.63228" lon="5.99006">
        <ele>1214</ele>
        <time>2023-05-15T10:21:28Z</time>
      </trkpt>
      <trkpt lat="44.63228" lon="5.99009">
        <ele>1214</ele>
        <time>2023-05-15T10:21:29Z</time>
      </trkpt>
      <trkpt lat="44.63229" lon="5.99014">
        <ele>1214</ele>
        <time>2023-05-15T10:21:30Z</time>
      </trkpt>
      <trkpt lat="44.63228" lon="5.99017">
        <ele>1214.2</ele>
        <time>2023-05-15T10:21:31Z</time>
      </trkpt>
      <trkpt lat="44.63228" lon="5.99019">
        <ele>1214.2</ele>
        <time>2023-05-15T10:21:32Z</time>
      </trkpt>
      <trkpt lat="44.63228" lon="5.99021">
        <ele>1214.2</ele>
        <time>2023-05-15T10:21:33Z</time>
      </trkpt>
      <trkpt lat="44.63228" lon="5.99025">
        <ele>1214.2</ele>
        <time>2023-05-15T10:21:34Z</time>
      </trkpt>
      <trkpt lat="44.63227" lon="5.99028">
        <ele>1214.2</ele>
        <time>2023-05-15T10:21:35Z</time>
      </trkpt>
      <trkpt lat="44.63228" lon="5.99031">
        <ele>1214.4</ele>
        <time>2023-05-15T10:21:36Z</time>
      </trkpt>
      <trkpt lat="44.63228" lon="5.99034">
        <ele>1214.4</ele>
        <time>2023-05-15T10:21:37Z</time>
      </trkpt>
      <trkpt lat="44.63228" lon="5.99035">
        <ele>1214.4</ele>
        <time>2023-05-15T10:21:38Z</time>
      </trkpt>
      <trkpt lat="44.63229" lon="5.99036">
        <ele>1214.4</ele>
        <time>2023-05-15T10:21:39Z</time>
      </trkpt>
      <trkpt lat="44.63229" lon="5.99039">
        <ele>1214.6</ele>
        <time>2023-05-15T10:21:40Z</time>
      </trkpt>
      <trkpt lat="44.63229" lon="5.99042">
        <ele>1214.6</ele>
        <time>2023-05-15T10:21:41Z</time>
      </trkpt>
      <trkpt lat="44.63228" lon="5.99043">
        <ele>1214.4</ele>
        <time>2023-05-15T10:21:42Z</time>
      </trkpt>
      <trkpt lat="44.63229" lon="5.99045">
        <ele>1214.6</ele>
        <time>2023-05-15T10:21:43Z</time>
      </trkpt>
      <trkpt lat="44.6323" lon="5.99047">
        <ele>1214.6</ele>
        <time>2023-05-15T10:21:44Z</time>
      </trkpt>
      <trkpt lat="44.63229" lon="5.99049">
        <ele>1214.8</ele>
        <time>2023-05-15T10:21:45Z</time>
      </trkpt>
      <trkpt lat="44.63228" lon="5.99052">
        <ele>1215.2</ele>
        <time>2023-05-15T10:21:46Z</time>
      </trkpt>
      <trkpt lat="44.63228" lon="5.99055">
        <ele>1215.2</ele>
        <time>2023-05-15T10:21:47Z</time>
      </trkpt>
      <trkpt lat="44.63228" lon="5.99059">
        <ele>1215.4</ele>
        <time>2023-05-15T10:21:48Z</time>
      </trkpt>
      <trkpt lat="44.63229" lon="5.99062">
        <ele>1215.4</ele>
        <time>2023-05-15T10:21:49Z</time>
      </trkpt>
      <trkpt lat="44.63229" lon="5.99065">
        <ele>1215.4</ele>
        <time>2023-05-15T10:21:50Z</time>
      </trkpt>
      <trkpt lat="44.63229" lon="5.99068">
        <ele>1215.6</ele>
        <time>2023-05-15T10:21:51Z</time>
      </trkpt>
      <trkpt lat="44.63229" lon="5.9907">
        <ele>1215.6</ele>
        <time>2023-05-15T10:21:52Z</time>
      </trkpt>
      <trkpt lat="44.6323" lon="5.99072">
        <ele>1215.6</ele>
        <time>2023-05-15T10:21:53Z</time>
      </trkpt>
      <trkpt lat="44.6323" lon="5.99074">
        <ele>1215.6</ele>
        <time>2023-05-15T10:21:54Z</time>
      </trkpt>
      <trkpt lat="44.63231" lon="5.99076">
        <ele>1215.8</ele>
        <time>2023-05-15T10:21:55Z</time>
      </trkpt>
      <trkpt lat="44.63232" lon="5.99079">
        <ele>1215.8</ele>
        <time>2023-05-15T10:21:56Z</time>
      </trkpt>
      <trkpt lat="44.63233" lon="5.99081">
        <ele>1216</ele>
        <time>2023-05-15T10:21:57Z</time>
      </trkpt>
      <trkpt lat="44.63234" lon="5.99084">
        <ele>1216</ele>
        <time>2023-05-15T10:21:58Z</time>
      </trkpt>
      <trkpt lat="44.63235" lon="5.99088">
        <ele>1216</ele>
        <time>2023-05-15T10:21:59Z</time>
      </trkpt>
      <trkpt lat="44.63236" lon="5.99091">
        <ele>1216</ele>
        <time>2023-05-15T10:22:00Z</time>
      </trkpt>
      <trkpt lat="44.63236" lon="5.99093">
        <ele>1216.2</ele>
        <time>2023-05-15T10:22:01Z</time>
      </trkpt>
      <trkpt lat="44.63236" lon="5.99095">
        <ele>1216.2</ele>
        <time>2023-05-15T10:22:02Z</time>
      </trkpt>
      <trkpt lat="44.63236" lon="5.99097">
        <ele>1216.4</ele>
        <time>2023-05-15T10:22:03Z</time>
      </trkpt>
      <trkpt lat="44.63236" lon="5.99099">
        <ele>1216.2</ele>
        <time>2023-05-15T10:22:04Z</time>
      </trkpt>
      <trkpt lat="44.63237" lon="5.99101">
        <ele>1216.2</ele>
        <time>2023-05-15T10:22:05Z</time>
      </trkpt>
      <trkpt lat="44.63239" lon="5.99104">
        <ele>1216.2</ele>
        <time>2023-05-15T10:22:06Z</time>
      </trkpt>
      <trkpt lat="44.6324" lon="5.99107">
        <ele>1216.2</ele>
        <time>2023-05-15T10:22:07Z</time>
      </trkpt>
      <trkpt lat="44.6324" lon="5.9911">
        <ele>1216.2</ele>
        <time>2023-05-15T10:22:08Z</time>
      </trkpt>
      <trkpt lat="44.6324" lon="5.99113">
        <ele>1216.4</ele>
        <time>2023-05-15T10:22:10Z</time>
      </trkpt>
      <trkpt lat="44.6324" lon="5.99115">
        <ele>1216.4</ele>
        <time>2023-05-15T10:22:11Z</time>
      </trkpt>
      <trkpt lat="44.6324" lon="5.99116">
        <ele>1216.4</ele>
        <time>2023-05-15T10:22:12Z</time>
      </trkpt>
      <trkpt lat="44.6324" lon="5.99118">
        <ele>1216.4</ele>
        <time>2023-05-15T10:22:13Z</time>
      </trkpt>
      <trkpt lat="44.63242" lon="5.99123">
        <ele>1216.4</ele>
        <time>2023-05-15T10:22:14Z</time>
      </trkpt>
      <trkpt lat="44.63243" lon="5.99128">
        <ele>1216.4</ele>
        <time>2023-05-15T10:22:15Z</time>
      </trkpt>
      <trkpt lat="44.63247" lon="5.99134">
        <ele>1216.4</ele>
        <time>2023-05-15T10:22:17Z</time>
      </trkpt>
      <trkpt lat="44.63248" lon="5.99139">
        <ele>1216.2</ele>
        <time>2023-05-15T10:22:19Z</time>
      </trkpt>
      <trkpt lat="44.63249" lon="5.99142">
        <ele>1216.2</ele>
        <time>2023-05-15T10:22:20Z</time>
      </trkpt>
      <trkpt lat="44.63249" lon="5.99145">
        <ele>1216.2</ele>
        <time>2023-05-15T10:22:21Z</time>
      </trkpt>
      <trkpt lat="44.6325" lon="5.99148">
        <ele>1216.2</ele>
        <time>2023-05-15T10:22:22Z</time>
      </trkpt>
      <trkpt lat="44.6325" lon="5.99149">
        <ele>1216.2</ele>
        <time>2023-05-15T10:22:23Z</time>
      </trkpt>
      <trkpt lat="44.6325" lon="5.99151">
        <ele>1216</ele>
        <time>2023-05-15T10:22:24Z</time>
      </trkpt>
      <trkpt lat="44.63251" lon="5.99154">
        <ele>1216</ele>
        <time>2023-05-15T10:22:26Z</time>
      </trkpt>
      <trkpt lat="44.63251" lon="5.99154">
        <ele>1216</ele>
        <time>2023-05-15T10:22:28Z</time>
      </trkpt>
      <trkpt lat="44.63251" lon="5.99156">
        <ele>1215.8</ele>
        <time>2023-05-15T10:22:37Z</time>
      </trkpt>
      <trkpt lat="44.63252" lon="5.99159">
        <ele>1215.8</ele>
        <time>2023-05-15T10:22:44Z</time>
      </trkpt>
      <trkpt lat="44.63252" lon="5.99159">
        <ele>1216</ele>
        <time>2023-05-15T10:22:45Z</time>
      </trkpt>
      <trkpt lat="44.63252" lon="5.99159">
        <ele>1216</ele>
        <time>2023-05-15T10:22:51Z</time>
      </trkpt>
      <trkpt lat="44.63252" lon="5.99159">
        <ele>1216.4</ele>
        <time>2023-05-15T10:23:04Z</time>
      </trkpt>
      <trkpt lat="44.63252" lon="5.99159">
        <ele>1216.4</ele>
        <time>2023-05-15T10:23:05Z</time>
      </trkpt>
      <trkpt lat="44.63255" lon="5.9916">
        <ele>1216.4</ele>
        <time>2023-05-15T10:23:10Z</time>
      </trkpt>
      <trkpt lat="44.63255" lon="5.99163">
        <ele>1216.4</ele>
        <time>2023-05-15T10:23:12Z</time>
      </trkpt>
      <trkpt lat="44.63258" lon="5.99185">
        <ele>1216.4</ele>
        <time>2023-05-15T10:23:17Z</time>
      </trkpt>
      <trkpt lat="44.63259" lon="5.99189">
        <ele>1216.4</ele>
        <time>2023-05-15T10:23:18Z</time>
      </trkpt>
      <trkpt lat="44.6326" lon="5.992">
        <ele>1216.6</ele>
        <time>2023-05-15T10:23:21Z</time>
      </trkpt>
      <trkpt lat="44.63262" lon="5.99204">
        <ele>1216.6</ele>
        <time>2023-05-15T10:23:22Z</time>
      </trkpt>
      <trkpt lat="44.63262" lon="5.99207">
        <ele>1216.8</ele>
        <time>2023-05-15T10:23:23Z</time>
      </trkpt>
      <trkpt lat="44.63263" lon="5.99209">
        <ele>1216.8</ele>
        <time>2023-05-15T10:23:24Z</time>
      </trkpt>
      <trkpt lat="44.63264" lon="5.9921">
        <ele>1216.8</ele>
        <time>2023-05-15T10:23:25Z</time>
      </trkpt>
      <trkpt lat="44.63263" lon="5.99212">
        <ele>1216.8</ele>
        <time>2023-05-15T10:23:26Z</time>
      </trkpt>
      <trkpt lat="44.63264" lon="5.99215">
        <ele>1217</ele>
        <time>2023-05-15T10:23:27Z</time>
      </trkpt>
      <trkpt lat="44.63266" lon="5.99227">
        <ele>1217.2</ele>
        <time>2023-05-15T10:23:30Z</time>
      </trkpt>
      <trkpt lat="44.63266" lon="5.99229">
        <ele>1217.2</ele>
        <time>2023-05-15T10:23:31Z</time>
      </trkpt>
      <trkpt lat="44.63266" lon="5.99231">
        <ele>1217.4</ele>
        <time>2023-05-15T10:23:32Z</time>
      </trkpt>
      <trkpt lat="44.63267" lon="5.99233">
        <ele>1217.4</ele>
        <time>2023-05-15T10:23:33Z</time>
      </trkpt>
      <trkpt lat="44.63267" lon="5.99236">
        <ele>1217.6</ele>
        <time>2023-05-15T10:23:34Z</time>
      </trkpt>
      <trkpt lat="44.63268" lon="5.99241">
        <ele>1217.6</ele>
        <time>2023-05-15T10:23:35Z</time>
      </trkpt>
      <trkpt lat="44.63269" lon="5.99247">
        <ele>1217.8</ele>
        <time>2023-05-15T10:23:38Z</time>
      </trkpt>
      <trkpt lat="44.63269" lon="5.99249">
        <ele>1217.8</ele>
        <time>2023-05-15T10:23:39Z</time>
      </trkpt>
      <trkpt lat="44.6327" lon="5.99252">
        <ele>1217.8</ele>
        <time>2023-05-15T10:23:40Z</time>
      </trkpt>
      <trkpt lat="44.63273" lon="5.99258">
        <ele>1218</ele>
        <time>2023-05-15T10:23:42Z</time>
      </trkpt>
      <trkpt lat="44.63274" lon="5.99265">
        <ele>1218</ele>
        <time>2023-05-15T10:23:45Z</time>
      </trkpt>
      <trkpt lat="44.63275" lon="5.99268">
        <ele>1218</ele>
        <time>2023-05-15T10:23:46Z</time>
      </trkpt>
      <trkpt lat="44.63276" lon="5.99271">
        <ele>1218</ele>
        <time>2023-05-15T10:23:47Z</time>
      </trkpt>
      <trkpt lat="44.63278" lon="5.99275">
        <ele>1218</ele>
        <time>2023-05-15T10:23:48Z</time>
      </trkpt>
      <trkpt lat="44.63279" lon="5.99277">
        <ele>1218.2</ele>
        <time>2023-05-15T10:23:49Z</time>
      </trkpt>
      <trkpt lat="44.63279" lon="5.99279">
        <ele>1218.4</ele>
        <time>2023-05-15T10:23:50Z</time>
      </trkpt>
      <trkpt lat="44.6328" lon="5.99282">
        <ele>1218.6</ele>
        <time>2023-05-15T10:23:51Z</time>
      </trkpt>
      <trkpt lat="44.6328" lon="5.99286">
        <ele>1218.8</ele>
        <time>2023-05-15T10:23:53Z</time>
      </trkpt>
      <trkpt lat="44.63281" lon="5.99289">
        <ele>1218.8</ele>
        <time>2023-05-15T10:23:54Z</time>
      </trkpt>
      <trkpt lat="44.63282" lon="5.99292">
        <ele>1219</ele>
        <time>2023-05-15T10:23:55Z</time>
      </trkpt>
      <trkpt lat="44.63283" lon="5.99294">
        <ele>1219</ele>
        <time>2023-05-15T10:23:56Z</time>
      </trkpt>
      <trkpt lat="44.63284" lon="5.99299">
        <ele>1219.2</ele>
        <time>2023-05-15T10:23:58Z</time>
      </trkpt>
      <trkpt lat="44.63283" lon="5.99302">
        <ele>1219.4</ele>
        <time>2023-05-15T10:23:59Z</time>
      </trkpt>
      <trkpt lat="44.63283" lon="5.99305">
        <ele>1219.4</ele>
        <time>2023-05-15T10:24:00Z</time>
      </trkpt>
      <trkpt lat="44.63282" lon="5.99308">
        <ele>1219.4</ele>
        <time>2023-05-15T10:24:01Z</time>
      </trkpt>
      <trkpt lat="44.63282" lon="5.99311">
        <ele>1219.4</ele>
        <time>2023-05-15T10:24:02Z</time>
      </trkpt>
      <trkpt lat="44.63282" lon="5.99312">
        <ele>1219.2</ele>
        <time>2023-05-15T10:24:03Z</time>
      </trkpt>
      <trkpt lat="44.63282" lon="5.99314">
        <ele>1219.2</ele>
        <time>2023-05-15T10:24:04Z</time>
      </trkpt>
      <trkpt lat="44.63283" lon="5.99316">
        <ele>1219</ele>
        <time>2023-05-15T10:24:05Z</time>
      </trkpt>
      <trkpt lat="44.63283" lon="5.99318">
        <ele>1218.8</ele>
        <time>2023-05-15T10:24:06Z</time>
      </trkpt>
      <trkpt lat="44.63283" lon="5.9932">
        <ele>1218.8</ele>
        <time>2023-05-15T10:24:07Z</time>
      </trkpt>
      <trkpt lat="44.63283" lon="5.99322">
        <ele>1218.8</ele>
        <time>2023-05-15T10:24:08Z</time>
      </trkpt>
      <trkpt lat="44.63285" lon="5.99322">
        <ele>1218.6</ele>
        <time>2023-05-15T10:24:09Z</time>
      </trkpt>
      <trkpt lat="44.63285" lon="5.99323">
        <ele>1218.6</ele>
        <time>2023-05-15T10:24:10Z</time>
      </trkpt>
      <trkpt lat="44.63285" lon="5.99323">
        <ele>1218.4</ele>
        <time>2023-05-15T10:24:11Z</time>
      </trkpt>
      <trkpt lat="44.63286" lon="5.99323">
        <ele>1218.4</ele>
        <time>2023-05-15T10:24:12Z</time>
      </trkpt>
      <trkpt lat="44.63287" lon="5.99323">
        <ele>1218.4</ele>
        <time>2023-05-15T10:24:13Z</time>
      </trkpt>
      <trkpt lat="44.63287" lon="5.99324">
        <ele>1218.2</ele>
        <time>2023-05-15T10:24:15Z</time>
      </trkpt>
      <trkpt lat="44.63287" lon="5.99325">
        <ele>1218.2</ele>
        <time>2023-05-15T10:24:16Z</time>
      </trkpt>
      <trkpt lat="44.63288" lon="5.99327">
        <ele>1218</ele>
        <time>2023-05-15T10:24:17Z</time>
      </trkpt>
      <trkpt lat="44.63288" lon="5.9933">
        <ele>1217.8</ele>
        <time>2023-05-15T10:24:18Z</time>
      </trkpt>
      <trkpt lat="44.63288" lon="5.99332">
        <ele>1217.8</ele>
        <time>2023-05-15T10:24:19Z</time>
      </trkpt>
      <trkpt lat="44.63289" lon="5.99334">
        <ele>1217.8</ele>
        <time>2023-05-15T10:24:20Z</time>
      </trkpt>
      <trkpt lat="44.6329" lon="5.99337">
        <ele>1217.6</ele>
        <time>2023-05-15T10:24:21Z</time>
      </trkpt>
      <trkpt lat="44.63291" lon="5.99339">
        <ele>1217.6</ele>
        <time>2023-05-15T10:24:22Z</time>
      </trkpt>
      <trkpt lat="44.6329" lon="5.99339">
        <ele>1217.6</ele>
        <time>2023-05-15T10:24:23Z</time>
      </trkpt>
      <trkpt lat="44.63291" lon="5.9934">
        <ele>1217.6</ele>
        <time>2023-05-15T10:24:24Z</time>
      </trkpt>
      <trkpt lat="44.63291" lon="5.9934">
        <ele>1217.6</ele>
        <time>2023-05-15T10:24:25Z</time>
      </trkpt>
      <trkpt lat="44.63292" lon="5.99343">
        <ele>1217.6</ele>
        <time>2023-05-15T10:24:26Z</time>
      </trkpt>
      <trkpt lat="44.63294" lon="5.99346">
        <ele>1217.6</ele>
        <time>2023-05-15T10:24:28Z</time>
      </trkpt>
      <trkpt lat="44.63295" lon="5.99346">
        <ele>1217.6</ele>
        <time>2023-05-15T10:24:29Z</time>
      </trkpt>
      <trkpt lat="44.63296" lon="5.99347">
        <ele>1217.6</ele>
        <time>2023-05-15T10:24:35Z</time>
      </trkpt>
      <trkpt lat="44.63299" lon="5.99351">
        <ele>1217.4</ele>
        <time>2023-05-15T10:24:38Z</time>
      </trkpt>
      <trkpt lat="44.63299" lon="5.99351">
        <ele>1217.4</ele>
        <time>2023-05-15T10:24:39Z</time>
      </trkpt>
      <trkpt lat="44.63299" lon="5.99351">
        <ele>1217.2</ele>
        <time>2023-05-15T10:24:44Z</time>
      </trkpt>
      <trkpt lat="44.633" lon="5.99353">
        <ele>1217.2</ele>
        <time>2023-05-15T10:24:47Z</time>
      </trkpt>
      <trkpt lat="44.633" lon="5.99353">
        <ele>1217.4</ele>
        <time>2023-05-15T10:24:49Z</time>
      </trkpt>
      <trkpt lat="44.633" lon="5.99355">
        <ele>1217.6</ele>
        <time>2023-05-15T10:24:58Z</time>
      </trkpt>
      <trkpt lat="44.633" lon="5.99356">
        <ele>1217.6</ele>
        <time>2023-05-15T10:25:04Z</time>
      </trkpt>
      <trkpt lat="44.63301" lon="5.99356">
        <ele>1217.6</ele>
        <time>2023-05-15T10:25:06Z</time>
      </trkpt>
      <trkpt lat="44.63301" lon="5.99357">
        <ele>1217.8</ele>
        <time>2023-05-15T10:25:07Z</time>
      </trkpt>
      <trkpt lat="44.63301" lon="5.9936">
        <ele>1217.8</ele>
        <time>2023-05-15T10:25:08Z</time>
      </trkpt>
      <trkpt lat="44.63302" lon="5.99361">
        <ele>1217.8</ele>
        <time>2023-05-15T10:25:10Z</time>
      </trkpt>
      <trkpt lat="44.63302" lon="5.99361">
        <ele>1217.8</ele>
        <time>2023-05-15T10:25:11Z</time>
      </trkpt>
      <trkpt lat="44.63302" lon="5.99361">
        <ele>1217.8</ele>
        <time>2023-05-15T10:25:12Z</time>
      </trkpt>
      <trkpt lat="44.63302" lon="5.99361">
        <ele>1217.8</ele>
        <time>2023-05-15T10:25:13Z</time>
      </trkpt>
      <trkpt lat="44.63302" lon="5.99361">
        <ele>1218</ele>
        <time>2023-05-15T10:25:21Z</time>
      </trkpt>
      <trkpt lat="44.63302" lon="5.99361">
        <ele>1219.2</ele>
        <time>2023-05-15T10:25:22Z</time>
      </trkpt>
      <trkpt lat="44.63303" lon="5.99363">
        <ele>1220.4</ele>
        <time>2023-05-15T10:25:24Z</time>
      </trkpt>
      <trkpt lat="44.63305" lon="5.99364">
        <ele>1219.2</ele>
        <time>2023-05-15T10:25:27Z</time>
      </trkpt>
      <trkpt lat="44.63306" lon="5.99364">
        <ele>1218.2</ele>
        <time>2023-05-15T10:25:29Z</time>
      </trkpt>
      <trkpt lat="44.63306" lon="5.99366">
        <ele>1218.2</ele>
        <time>2023-05-15T10:25:30Z</time>
      </trkpt>
      <trkpt lat="44.63308" lon="5.99368">
        <ele>1218.2</ele>
        <time>2023-05-15T10:25:31Z</time>
      </trkpt>
      <trkpt lat="44.63309" lon="5.99371">
        <ele>1216.8</ele>
        <time>2023-05-15T10:25:33Z</time>
      </trkpt>
      <trkpt lat="44.63309" lon="5.99371">
        <ele>1216.4</ele>
        <time>2023-05-15T10:25:34Z</time>
      </trkpt>
      <trkpt lat="44.63309" lon="5.99371">
        <ele>1215.8</ele>
        <time>2023-05-15T10:25:35Z</time>
      </trkpt>
      <trkpt lat="44.63309" lon="5.99371">
        <ele>1215.4</ele>
        <time>2023-05-15T10:25:36Z</time>
      </trkpt>
      <trkpt lat="44.63309" lon="5.99372">
        <ele>1215.2</ele>
        <time>2023-05-15T10:25:40Z</time>
      </trkpt>
      <trkpt lat="44.6331" lon="5.99374">
        <ele>1215</ele>
        <time>2023-05-15T10:25:41Z</time>
      </trkpt>
      <trkpt lat="44.63311" lon="5.99374">
        <ele>1214.8</ele>
        <time>2023-05-15T10:25:43Z</time>
      </trkpt>
      <trkpt lat="44.63311" lon="5.99374">
        <ele>1214.8</ele>
        <time>2023-05-15T10:25:44Z</time>
      </trkpt>
      <trkpt lat="44.63311" lon="5.99374">
        <ele>1214.8</ele>
        <time>2023-05-15T10:25:45Z</time>
      </trkpt>
      <trkpt lat="44.63311" lon="5.99374">
        <ele>1215</ele>
        <time>2023-05-15T10:25:46Z</time>
      </trkpt>
      <trkpt lat="44.63311" lon="5.99374">
        <ele>1215.2</ele>
        <time>2023-05-15T10:25:47Z</time>
      </trkpt>
      <trkpt lat="44.63315" lon="5.99381">
        <ele>1215.2</ele>
        <time>2023-05-15T10:25:51Z</time>
      </trkpt>
      <trkpt lat="44.63317" lon="5.99385">
        <ele>1215.2</ele>
        <time>2023-05-15T10:25:52Z</time>
      </trkpt>
      <trkpt lat="44.63317" lon="5.99385">
        <ele>1215.2</ele>
        <time>2023-05-15T10:25:53Z</time>
      </trkpt>
      <trkpt lat="44.63317" lon="5.99385">
        <ele>1215.4</ele>
        <time>2023-05-15T10:25:54Z</time>
      </trkpt>
      <trkpt lat="44.63317" lon="5.99385">
        <ele>1215.4</ele>
        <time>2023-05-15T10:25:55Z</time>
      </trkpt>
      <trkpt lat="44.63317" lon="5.99385">
        <ele>1215.4</ele>
        <time>2023-05-15T10:25:56Z</time>
      </trkpt>
      <trkpt lat="44.63317" lon="5.99385">
        <ele>1215.6</ele>
        <time>2023-05-15T10:25:57Z</time>
      </trkpt>
      <trkpt lat="44.63317" lon="5.99385">
        <ele>1215.8</ele>
        <time>2023-05-15T10:25:58Z</time>
      </trkpt>
      <trkpt lat="44.63317" lon="5.99385">
        <ele>1216</ele>
        <time>2023-05-15T10:25:59Z</time>
      </trkpt>
      <trkpt lat="44.63317" lon="5.99385">
        <ele>1216</ele>
        <time>2023-05-15T10:26:00Z</time>
      </trkpt>
      <trkpt lat="44.63318" lon="5.99387">
        <ele>1217</ele>
        <time>2023-05-15T10:26:05Z</time>
      </trkpt>
      <trkpt lat="44.63318" lon="5.99387">
        <ele>1217.2</ele>
        <time>2023-05-15T10:26:06Z</time>
      </trkpt>
      <trkpt lat="44.6332" lon="5.99389">
        <ele>1217.4</ele>
        <time>2023-05-15T10:26:18Z</time>
      </trkpt>
      <trkpt lat="44.6332" lon="5.99389">
        <ele>1217.6</ele>
        <time>2023-05-15T10:26:24Z</time>
      </trkpt>
      <trkpt lat="44.6332" lon="5.99389">
        <ele>1217.4</ele>
        <time>2023-05-15T10:26:27Z</time>
      </trkpt>
      <trkpt lat="44.63322" lon="5.99392">
        <ele>1217.8</ele>
        <time>2023-05-15T10:26:35Z</time>
      </trkpt>
      <trkpt lat="44.63323" lon="5.99397">
        <ele>1217.8</ele>
        <time>2023-05-15T10:26:36Z</time>
      </trkpt>
      <trkpt lat="44.63323" lon="5.99397">
        <ele>1217.8</ele>
        <time>2023-05-15T10:26:42Z</time>
      </trkpt>
      <trkpt lat="44.63324" lon="5.99404">
        <ele>1218</ele>
        <time>2023-05-15T10:26:53Z</time>
      </trkpt>
      <trkpt lat="44.63324" lon="5.99404">
        <ele>1218.4</ele>
        <time>2023-05-15T10:26:59Z</time>
      </trkpt>
      <trkpt lat="44.63324" lon="5.99404">
        <ele>1218.4</ele>
        <time>2023-05-15T10:27:00Z</time>
      </trkpt>
      <trkpt lat="44.63324" lon="5.99404">
        <ele>1219.6</ele>
        <time>2023-05-15T10:27:08Z</time>
      </trkpt>
      <trkpt lat="44.63324" lon="5.99404">
        <ele>1220.2</ele>
        <time>2023-05-15T10:27:12Z</time>
      </trkpt>
      <trkpt lat="44.63324" lon="5.99404">
        <ele>1220.4</ele>
        <time>2023-05-15T10:27:16Z</time>
      </trkpt>
      <trkpt lat="44.63324" lon="5.99404">
        <ele>1220.6</ele>
        <time>2023-05-15T10:27:17Z</time>
      </trkpt>
      <trkpt lat="44.63324" lon="5.99404">
        <ele>1220.6</ele>
        <time>2023-05-15T10:27:18Z</time>
      </trkpt>
      <trkpt lat="44.63324" lon="5.99406">
        <ele>1220.8</ele>
        <time>2023-05-15T10:27:20Z</time>
      </trkpt>
      <trkpt lat="44.63325" lon="5.99408">
        <ele>1221</ele>
        <time>2023-05-15T10:27:21Z</time>
      </trkpt>
      <trkpt lat="44.63325" lon="5.99409">
        <ele>1221</ele>
        <time>2023-05-15T10:27:22Z</time>
      </trkpt>
      <trkpt lat="44.63325" lon="5.99409">
        <ele>1221</ele>
        <time>2023-05-15T10:27:23Z</time>
      </trkpt>
      <trkpt lat="44.63325" lon="5.99409">
        <ele>1221.2</ele>
        <time>2023-05-15T10:27:24Z</time>
      </trkpt>
      <trkpt lat="44.63325" lon="5.99409">
        <ele>1221.4</ele>
        <time>2023-05-15T10:27:26Z</time>
      </trkpt>
      <trkpt lat="44.63325" lon="5.99409">
        <ele>1221.6</ele>
        <time>2023-05-15T10:27:28Z</time>
      </trkpt>
      <trkpt lat="44.63325" lon="5.9941">
        <ele>1221.8</ele>
        <time>2023-05-15T10:27:32Z</time>
      </trkpt>
      <trkpt lat="44.63326" lon="5.99412">
        <ele>1221.8</ele>
        <time>2023-05-15T10:27:33Z</time>
      </trkpt>
      <trkpt lat="44.63326" lon="5.99412">
        <ele>1221.8</ele>
        <time>2023-05-15T10:27:34Z</time>
      </trkpt>
      <trkpt lat="44.63327" lon="5.99414">
        <ele>1222</ele>
        <time>2023-05-15T10:27:35Z</time>
      </trkpt>
      <trkpt lat="44.63327" lon="5.99414">
        <ele>1222</ele>
        <time>2023-05-15T10:27:36Z</time>
      </trkpt>
      <trkpt lat="44.63327" lon="5.99416">
        <ele>1222</ele>
        <time>2023-05-15T10:27:37Z</time>
      </trkpt>
      <trkpt lat="44.63327" lon="5.99418">
        <ele>1222</ele>
        <time>2023-05-15T10:27:38Z</time>
      </trkpt>
      <trkpt lat="44.63327" lon="5.9942">
        <ele>1222.2</ele>
        <time>2023-05-15T10:27:39Z</time>
      </trkpt>
      <trkpt lat="44.63327" lon="5.99422">
        <ele>1222.2</ele>
        <time>2023-05-15T10:27:40Z</time>
      </trkpt>
      <trkpt lat="44.63327" lon="5.99423">
        <ele>1222.2</ele>
        <time>2023-05-15T10:27:41Z</time>
      </trkpt>
      <trkpt lat="44.63326" lon="5.99426">
        <ele>1222.4</ele>
        <time>2023-05-15T10:27:42Z</time>
      </trkpt>
      <trkpt lat="44.63328" lon="5.99431">
        <ele>1222.4</ele>
        <time>2023-05-15T10:27:44Z</time>
      </trkpt>
      <trkpt lat="44.63328" lon="5.99434">
        <ele>1222.4</ele>
        <time>2023-05-15T10:27:45Z</time>
      </trkpt>
      <trkpt lat="44.63327" lon="5.99437">
        <ele>1222.4</ele>
        <time>2023-05-15T10:27:46Z</time>
      </trkpt>
      <trkpt lat="44.63328" lon="5.99443">
        <ele>1222.6</ele>
        <time>2023-05-15T10:27:49Z</time>
      </trkpt>
      <trkpt lat="44.63328" lon="5.99445">
        <ele>1222.6</ele>
        <time>2023-05-15T10:27:50Z</time>
      </trkpt>
      <trkpt lat="44.63328" lon="5.99445">
        <ele>1222.6</ele>
        <time>2023-05-15T10:27:51Z</time>
      </trkpt>
      <trkpt lat="44.63328" lon="5.99445">
        <ele>1222.8</ele>
        <time>2023-05-15T10:27:52Z</time>
      </trkpt>
      <trkpt lat="44.63328" lon="5.99449">
        <ele>1222.8</ele>
        <time>2023-05-15T10:27:55Z</time>
      </trkpt>
      <trkpt lat="44.63328" lon="5.9945">
        <ele>1222.8</ele>
        <time>2023-05-15T10:27:58Z</time>
      </trkpt>
      <trkpt lat="44.63328" lon="5.9945">
        <ele>1222.6</ele>
        <time>2023-05-15T10:28:01Z</time>
      </trkpt>
      <trkpt lat="44.63327" lon="5.9945">
        <ele>1222.6</ele>
        <time>2023-05-15T10:28:04Z</time>
      </trkpt>
      <trkpt lat="44.63327" lon="5.9945">
        <ele>1222.6</ele>
        <time>2023-05-15T10:28:07Z</time>
      </trkpt>
      <trkpt lat="44.63327" lon="5.99451">
        <ele>1222.6</ele>
        <time>2023-05-15T10:28:08Z</time>
      </trkpt>
      <trkpt lat="44.63327" lon="5.99451">
        <ele>1222.6</ele>
        <time>2023-05-15T10:28:09Z</time>
      </trkpt>
      <trkpt lat="44.63327" lon="5.99452">
        <ele>1222.4</ele>
        <time>2023-05-15T10:28:10Z</time>
      </trkpt>
      <trkpt lat="44.63327" lon="5.99452">
        <ele>1222.2</ele>
        <time>2023-05-15T10:28:11Z</time>
      </trkpt>
      <trkpt lat="44.63327" lon="5.99452">
        <ele>1222.2</ele>
        <time>2023-05-15T10:28:12Z</time>
      </trkpt>
      <trkpt lat="44.63327" lon="5.99453">
        <ele>1222</ele>
        <time>2023-05-15T10:28:13Z</time>
      </trkpt>
      <trkpt lat="44.63328" lon="5.99453">
        <ele>1222</ele>
        <time>2023-05-15T10:28:14Z</time>
      </trkpt>
      <trkpt lat="44.63327" lon="5.99453">
        <ele>1221.8</ele>
        <time>2023-05-15T10:28:15Z</time>
      </trkpt>
      <trkpt lat="44.63327" lon="5.99454">
        <ele>1221.8</ele>
        <time>2023-05-15T10:28:16Z</time>
      </trkpt>
      <trkpt lat="44.63327" lon="5.99454">
        <ele>1221.8</ele>
        <time>2023-05-15T10:28:17Z</time>
      </trkpt>
      <trkpt lat="44.63327" lon="5.99454">
        <ele>1221.6</ele>
        <time>2023-05-15T10:28:18Z</time>
      </trkpt>
      <trkpt lat="44.63327" lon="5.99455">
        <ele>1221.6</ele>
        <time>2023-05-15T10:28:19Z</time>
      </trkpt>
      <trkpt lat="44.63327" lon="5.99459">
        <ele>1221.6</ele>
        <time>2023-05-15T10:28:22Z</time>
      </trkpt>
      <trkpt lat="44.63328" lon="5.99459">
        <ele>1221.4</ele>
        <time>2023-05-15T10:28:24Z</time>
      </trkpt>
      <trkpt lat="44.63328" lon="5.99459">
        <ele>1221.4</ele>
        <time>2023-05-15T10:28:25Z</time>
      </trkpt>
      <trkpt lat="44.63328" lon="5.99459">
        <ele>1221.4</ele>
        <time>2023-05-15T10:28:26Z</time>
      </trkpt>
      <trkpt lat="44.63328" lon="5.99459">
        <ele>1221.4</ele>
        <time>2023-05-15T10:28:27Z</time>
      </trkpt>
      <trkpt lat="44.63328" lon="5.99459">
        <ele>1221.4</ele>
        <time>2023-05-15T10:28:28Z</time>
      </trkpt>
      <trkpt lat="44.63328" lon="5.99459">
        <ele>1221.4</ele>
        <time>2023-05-15T10:28:29Z</time>
      </trkpt>
      <trkpt lat="44.63328" lon="5.99459">
        <ele>1221.2</ele>
        <time>2023-05-15T10:28:31Z</time>
      </trkpt>
      <trkpt lat="44.63328" lon="5.99459">
        <ele>1221.2</ele>
        <time>2023-05-15T10:28:32Z</time>
      </trkpt>
      <trkpt lat="44.63329" lon="5.99462">
        <ele>1220.6</ele>
        <time>2023-05-15T10:28:36Z</time>
      </trkpt>
      <trkpt lat="44.63329" lon="5.99462">
        <ele>1220.6</ele>
        <time>2023-05-15T10:28:37Z</time>
      </trkpt>
      <trkpt lat="44.63329" lon="5.99463">
        <ele>1220.2</ele>
        <time>2023-05-15T10:28:40Z</time>
      </trkpt>
      <trkpt lat="44.63329" lon="5.99464">
        <ele>1220</ele>
        <time>2023-05-15T10:28:42Z</time>
      </trkpt>
      <trkpt lat="44.63329" lon="5.99464">
        <ele>1219.8</ele>
        <time>2023-05-15T10:28:43Z</time>
      </trkpt>
      <trkpt lat="44.63329" lon="5.99464">
        <ele>1219.8</ele>
        <time>2023-05-15T10:28:44Z</time>
      </trkpt>
      <trkpt lat="44.63329" lon="5.99465">
        <ele>1219.6</ele>
        <time>2023-05-15T10:28:46Z</time>
      </trkpt>
      <trkpt lat="44.63329" lon="5.99465">
        <ele>1219.4</ele>
        <time>2023-05-15T10:28:47Z</time>
      </trkpt>
      <trkpt lat="44.63329" lon="5.99467">
        <ele>1219.4</ele>
        <time>2023-05-15T10:28:49Z</time>
      </trkpt>
      <trkpt lat="44.63329" lon="5.99468">
        <ele>1219.4</ele>
        <time>2023-05-15T10:28:50Z</time>
      </trkpt>
      <trkpt lat="44.6333" lon="5.9947">
        <ele>1219.4</ele>
        <time>2023-05-15T10:28:51Z</time>
      </trkpt>
      <trkpt lat="44.6333" lon="5.9947">
        <ele>1219.4</ele>
        <time>2023-05-15T10:28:52Z</time>
      </trkpt>
      <trkpt lat="44.6333" lon="5.9947">
        <ele>1219.4</ele>
        <time>2023-05-15T10:28:53Z</time>
      </trkpt>
      <trkpt lat="44.6333" lon="5.9947">
        <ele>1219.6</ele>
        <time>2023-05-15T10:28:54Z</time>
      </trkpt>
      <trkpt lat="44.6333" lon="5.99472">
        <ele>1219.8</ele>
        <time>2023-05-15T10:28:59Z</time>
      </trkpt>
      <trkpt lat="44.6333" lon="5.99472">
        <ele>1219.8</ele>
        <time>2023-05-15T10:29:01Z</time>
      </trkpt>
      <trkpt lat="44.6333" lon="5.99472">
        <ele>1219.8</ele>
        <time>2023-05-15T10:29:02Z</time>
      </trkpt>
      <trkpt lat="44.6333" lon="5.99472">
        <ele>1219.8</ele>
        <time>2023-05-15T10:29:03Z</time>
      </trkpt>
      <trkpt lat="44.63331" lon="5.99473">
        <ele>1219.4</ele>
        <time>2023-05-15T10:29:08Z</time>
      </trkpt>
      <trkpt lat="44.63333" lon="5.99477">
        <ele>1219</ele>
        <time>2023-05-15T10:29:13Z</time>
      </trkpt>
      <trkpt lat="44.63332" lon="5.99477">
        <ele>1219</ele>
        <time>2023-05-15T10:29:14Z</time>
      </trkpt>
      <trkpt lat="44.63333" lon="5.99482">
        <ele>1219</ele>
        <time>2023-05-15T10:29:21Z</time>
      </trkpt>
      <trkpt lat="44.63333" lon="5.99486">
        <ele>1219</ele>
        <time>2023-05-15T10:29:22Z</time>
      </trkpt>
      <trkpt lat="44.63332" lon="5.99486">
        <ele>1219</ele>
        <time>2023-05-15T10:29:23Z</time>
      </trkpt>
      <trkpt lat="44.6333" lon="5.99486">
        <ele>1219.2</ele>
        <time>2023-05-15T10:29:24Z</time>
      </trkpt>
      <trkpt lat="44.6333" lon="5.99486">
        <ele>1219.4</ele>
        <time>2023-05-15T10:29:25Z</time>
      </trkpt>
      <trkpt lat="44.6333" lon="5.99486">
        <ele>1219.8</ele>
        <time>2023-05-15T10:29:27Z</time>
      </trkpt>
      <trkpt lat="44.6333" lon="5.99486">
        <ele>1220</ele>
        <time>2023-05-15T10:29:28Z</time>
      </trkpt>
      <trkpt lat="44.6333" lon="5.99486">
        <ele>1220</ele>
        <time>2023-05-15T10:29:29Z</time>
      </trkpt>
      <trkpt lat="44.6333" lon="5.99486">
        <ele>1220.4</ele>
        <time>2023-05-15T10:29:30Z</time>
      </trkpt>
      <trkpt lat="44.6333" lon="5.99486">
        <ele>1220.6</ele>
        <time>2023-05-15T10:29:33Z</time>
      </trkpt>
      <trkpt lat="44.63331" lon="5.99493">
        <ele>1220.8</ele>
        <time>2023-05-15T10:29:36Z</time>
      </trkpt>
      <trkpt lat="44.63331" lon="5.99494">
        <ele>1220.8</ele>
        <time>2023-05-15T10:29:37Z</time>
      </trkpt>
      <trkpt lat="44.63334" lon="5.99499">
        <ele>1220.6</ele>
        <time>2023-05-15T10:29:40Z</time>
      </trkpt>
      <trkpt lat="44.63337" lon="5.99502">
        <ele>1220.2</ele>
        <time>2023-05-15T10:29:42Z</time>
      </trkpt>
      <trkpt lat="44.63337" lon="5.99502">
        <ele>1219.8</ele>
        <time>2023-05-15T10:29:44Z</time>
      </trkpt>
      <trkpt lat="44.63337" lon="5.99502">
        <ele>1219.8</ele>
        <time>2023-05-15T10:29:45Z</time>
      </trkpt>
      <trkpt lat="44.63337" lon="5.99502">
        <ele>1219.8</ele>
        <time>2023-05-15T10:29:46Z</time>
      </trkpt>
      <trkpt lat="44.63337" lon="5.99502">
        <ele>1219.2</ele>
        <time>2023-05-15T10:29:49Z</time>
      </trkpt>
      <trkpt lat="44.63337" lon="5.99502">
        <ele>1218.8</ele>
        <time>2023-05-15T10:29:50Z</time>
      </trkpt>
      <trkpt lat="44.63337" lon="5.99502">
        <ele>1218.6</ele>
        <time>2023-05-15T10:29:54Z</time>
      </trkpt>
      <trkpt lat="44.63337" lon="5.99504">
        <ele>1218.6</ele>
        <time>2023-05-15T10:29:57Z</time>
      </trkpt>
      <trkpt lat="44.63337" lon="5.99504">
        <ele>1218.6</ele>
        <time>2023-05-15T10:29:59Z</time>
      </trkpt>
      <trkpt lat="44.63336" lon="5.99509">
        <ele>1218.8</ele>
        <time>2023-05-15T10:30:02Z</time>
      </trkpt>
      <trkpt lat="44.63336" lon="5.99509">
        <ele>1219.2</ele>
        <time>2023-05-15T10:30:04Z</time>
      </trkpt>
      <trkpt lat="44.63336" lon="5.99509">
        <ele>1219.4</ele>
        <time>2023-05-15T10:30:12Z</time>
      </trkpt>
      <trkpt lat="44.63336" lon="5.99509">
        <ele>1219.6</ele>
        <time>2023-05-15T10:30:14Z</time>
      </trkpt>
      <trkpt lat="44.63335" lon="5.99511">
        <ele>1219.6</ele>
        <time>2023-05-15T10:30:27Z</time>
      </trkpt>
      <trkpt lat="44.63335" lon="5.99511">
        <ele>1219.6</ele>
        <time>2023-05-15T10:30:32Z</time>
      </trkpt>
      <trkpt lat="44.63335" lon="5.99511">
        <ele>1220.2</ele>
        <time>2023-05-15T10:30:38Z</time>
      </trkpt>
      <trkpt lat="44.63336" lon="5.99512">
        <ele>1220.8</ele>
        <time>2023-05-15T10:30:40Z</time>
      </trkpt>
      <trkpt lat="44.63336" lon="5.99512">
        <ele>1221</ele>
        <time>2023-05-15T10:30:42Z</time>
      </trkpt>
      <trkpt lat="44.63336" lon="5.99512">
        <ele>1221.2</ele>
        <time>2023-05-15T10:30:43Z</time>
      </trkpt>
      <trkpt lat="44.63336" lon="5.99512">
        <ele>1221.6</ele>
        <time>2023-05-15T10:30:47Z</time>
      </trkpt>
      <trkpt lat="44.63336" lon="5.99514">
        <ele>1222</ele>
        <time>2023-05-15T10:30:56Z</time>
      </trkpt>
      <trkpt lat="44.63336" lon="5.99514">
        <ele>1222.6</ele>
        <time>2023-05-15T10:30:59Z</time>
      </trkpt>
      <trkpt lat="44.63337" lon="5.99515">
        <ele>1222.8</ele>
        <time>2023-05-15T10:31:01Z</time>
      </trkpt>
      <trkpt lat="44.63337" lon="5.99515">
        <ele>1223</ele>
        <time>2023-05-15T10:31:02Z</time>
      </trkpt>
      <trkpt lat="44.63337" lon="5.99516">
        <ele>1223</ele>
        <time>2023-05-15T10:31:03Z</time>
      </trkpt>
      <trkpt lat="44.63336" lon="5.99516">
        <ele>1223.2</ele>
        <time>2023-05-15T10:31:04Z</time>
      </trkpt>
      <trkpt lat="44.63336" lon="5.99516">
        <ele>1223.4</ele>
        <time>2023-05-15T10:31:05Z</time>
      </trkpt>
      <trkpt lat="44.63336" lon="5.9952">
        <ele>1223.6</ele>
        <time>2023-05-15T10:31:07Z</time>
      </trkpt>
      <trkpt lat="44.63336" lon="5.9952">
        <ele>1223.8</ele>
        <time>2023-05-15T10:31:08Z</time>
      </trkpt>
      <trkpt lat="44.63336" lon="5.9952">
        <ele>1224</ele>
        <time>2023-05-15T10:31:09Z</time>
      </trkpt>
      <trkpt lat="44.63336" lon="5.99521">
        <ele>1224</ele>
        <time>2023-05-15T10:31:10Z</time>
      </trkpt>
      <trkpt lat="44.63336" lon="5.99521">
        <ele>1224.4</ele>
        <time>2023-05-15T10:31:11Z</time>
      </trkpt>
      <trkpt lat="44.63336" lon="5.99524">
        <ele>1224.4</ele>
        <time>2023-05-15T10:31:12Z</time>
      </trkpt>
      <trkpt lat="44.63336" lon="5.99524">
        <ele>1224.4</ele>
        <time>2023-05-15T10:31:13Z</time>
      </trkpt>
      <trkpt lat="44.63336" lon="5.99524">
        <ele>1224.4</ele>
        <time>2023-05-15T10:31:14Z</time>
      </trkpt>
      <trkpt lat="44.63336" lon="5.99524">
        <ele>1224.6</ele>
        <time>2023-05-15T10:31:15Z</time>
      </trkpt>
      <trkpt lat="44.63336" lon="5.99524">
        <ele>1224.8</ele>
        <time>2023-05-15T10:31:16Z</time>
      </trkpt>
      <trkpt lat="44.63336" lon="5.99524">
        <ele>1225</ele>
        <time>2023-05-15T10:31:17Z</time>
      </trkpt>
      <trkpt lat="44.63336" lon="5.99524">
        <ele>1225</ele>
        <time>2023-05-15T10:31:18Z</time>
      </trkpt>
      <trkpt lat="44.63336" lon="5.99524">
        <ele>1225</ele>
        <time>2023-05-15T10:31:19Z</time>
      </trkpt>
      <trkpt lat="44.63336" lon="5.99524">
        <ele>1225.2</ele>
        <time>2023-05-15T10:31:20Z</time>
      </trkpt>
      <trkpt lat="44.63336" lon="5.99524">
        <ele>1225.2</ele>
        <time>2023-05-15T10:31:21Z</time>
      </trkpt>
      <trkpt lat="44.63336" lon="5.99524">
        <ele>1225.6</ele>
        <time>2023-05-15T10:31:22Z</time>
      </trkpt>
      <trkpt lat="44.63336" lon="5.99528">
        <ele>1226</ele>
        <time>2023-05-15T10:31:27Z</time>
      </trkpt>
      <trkpt lat="44.63336" lon="5.99528">
        <ele>1226</ele>
        <time>2023-05-15T10:31:28Z</time>
      </trkpt>
      <trkpt lat="44.63336" lon="5.99528">
        <ele>1226.6</ele>
        <time>2023-05-15T10:31:30Z</time>
      </trkpt>
      <trkpt lat="44.63337" lon="5.99528">
        <ele>1227</ele>
        <time>2023-05-15T10:31:32Z</time>
      </trkpt>
      <trkpt lat="44.63337" lon="5.99528">
        <ele>1227.2</ele>
        <time>2023-05-15T10:31:33Z</time>
      </trkpt>
      <trkpt lat="44.63337" lon="5.99528">
        <ele>1227.6</ele>
        <time>2023-05-15T10:31:37Z</time>
      </trkpt>
      <trkpt lat="44.63338" lon="5.99531">
        <ele>1228</ele>
        <time>2023-05-15T10:31:39Z</time>
      </trkpt>
      <trkpt lat="44.63338" lon="5.99532">
        <ele>1228</ele>
        <time>2023-05-15T10:31:40Z</time>
      </trkpt>
      <trkpt lat="44.63338" lon="5.99532">
        <ele>1228.2</ele>
        <time>2023-05-15T10:31:41Z</time>
      </trkpt>
      <trkpt lat="44.6334" lon="5.99532">
        <ele>1228.4</ele>
        <time>2023-05-15T10:31:43Z</time>
      </trkpt>
      <trkpt lat="44.6334" lon="5.99533">
        <ele>1228.4</ele>
        <time>2023-05-15T10:31:44Z</time>
      </trkpt>
      <trkpt lat="44.63341" lon="5.99534">
        <ele>1228.4</ele>
        <time>2023-05-15T10:31:45Z</time>
      </trkpt>
      <trkpt lat="44.63341" lon="5.99534">
        <ele>1228.6</ele>
        <time>2023-05-15T10:31:46Z</time>
      </trkpt>
      <trkpt lat="44.63341" lon="5.99535">
        <ele>1228.6</ele>
        <time>2023-05-15T10:31:47Z</time>
      </trkpt>
      <trkpt lat="44.63342" lon="5.99536">
        <ele>1228.6</ele>
        <time>2023-05-15T10:31:48Z</time>
      </trkpt>
      <trkpt lat="44.63342" lon="5.99536">
        <ele>1228.6</ele>
        <time>2023-05-15T10:31:49Z</time>
      </trkpt>
      <trkpt lat="44.63342" lon="5.99536">
        <ele>1228.8</ele>
        <time>2023-05-15T10:31:52Z</time>
      </trkpt>
      <trkpt lat="44.63342" lon="5.99536">
        <ele>1228.8</ele>
        <time>2023-05-15T10:31:53Z</time>
      </trkpt>
      <trkpt lat="44.63342" lon="5.99536">
        <ele>1229</ele>
        <time>2023-05-15T10:31:54Z</time>
      </trkpt>
      <trkpt lat="44.63342" lon="5.99536">
        <ele>1229</ele>
        <time>2023-05-15T10:31:55Z</time>
      </trkpt>
      <trkpt lat="44.63342" lon="5.99537">
        <ele>1229</ele>
        <time>2023-05-15T10:31:56Z</time>
      </trkpt>
      <trkpt lat="44.63342" lon="5.99538">
        <ele>1229</ele>
        <time>2023-05-15T10:31:57Z</time>
      </trkpt>
      <trkpt lat="44.63343" lon="5.9954">
        <ele>1229.2</ele>
        <time>2023-05-15T10:31:58Z</time>
      </trkpt>
      <trkpt lat="44.63344" lon="5.99547">
        <ele>1229.6</ele>
        <time>2023-05-15T10:32:01Z</time>
      </trkpt>
      <trkpt lat="44.63344" lon="5.99547">
        <ele>1229.6</ele>
        <time>2023-05-15T10:32:02Z</time>
      </trkpt>
      <trkpt lat="44.63344" lon="5.99547">
        <ele>1230</ele>
        <time>2023-05-15T10:32:07Z</time>
      </trkpt>
      <trkpt lat="44.63344" lon="5.99549">
        <ele>1230.2</ele>
        <time>2023-05-15T10:32:10Z</time>
      </trkpt>
      <trkpt lat="44.63345" lon="5.99553">
        <ele>1230.4</ele>
        <time>2023-05-15T10:32:12Z</time>
      </trkpt>
      <trkpt lat="44.63348" lon="5.99558">
        <ele>1230.6</ele>
        <time>2023-05-15T10:32:14Z</time>
      </trkpt>
      <trkpt lat="44.63348" lon="5.99558">
        <ele>1230.6</ele>
        <time>2023-05-15T10:32:15Z</time>
      </trkpt>
      <trkpt lat="44.63349" lon="5.99558">
        <ele>1230.4</ele>
        <time>2023-05-15T10:32:16Z</time>
      </trkpt>
      <trkpt lat="44.6335" lon="5.99559">
        <ele>1230.4</ele>
        <time>2023-05-15T10:32:17Z</time>
      </trkpt>
      <trkpt lat="44.63351" lon="5.99559">
        <ele>1230.6</ele>
        <time>2023-05-15T10:32:18Z</time>
      </trkpt>
      <trkpt lat="44.63352" lon="5.9956">
        <ele>1230.8</ele>
        <time>2023-05-15T10:32:19Z</time>
      </trkpt>
      <trkpt lat="44.63353" lon="5.99562">
        <ele>1230.8</ele>
        <time>2023-05-15T10:32:20Z</time>
      </trkpt>
      <trkpt lat="44.63355" lon="5.99564">
        <ele>1230.8</ele>
        <time>2023-05-15T10:32:21Z</time>
      </trkpt>
      <trkpt lat="44.63357" lon="5.99566">
        <ele>1231</ele>
        <time>2023-05-15T10:32:23Z</time>
      </trkpt>
      <trkpt lat="44.63357" lon="5.99566">
        <ele>1231</ele>
        <time>2023-05-15T10:32:24Z</time>
      </trkpt>
      <trkpt lat="44.63358" lon="5.99567">
        <ele>1231</ele>
        <time>2023-05-15T10:32:25Z</time>
      </trkpt>
      <trkpt lat="44.6336" lon="5.99567">
        <ele>1231</ele>
        <time>2023-05-15T10:32:26Z</time>
      </trkpt>
      <trkpt lat="44.63362" lon="5.9957">
        <ele>1231</ele>
        <time>2023-05-15T10:32:27Z</time>
      </trkpt>
      <trkpt lat="44.63364" lon="5.99572">
        <ele>1231</ele>
        <time>2023-05-15T10:32:28Z</time>
      </trkpt>
      <trkpt lat="44.63366" lon="5.99577">
        <ele>1231</ele>
        <time>2023-05-15T10:32:29Z</time>
      </trkpt>
      <trkpt lat="44.63375" lon="5.99599">
        <ele>1230.6</ele>
        <time>2023-05-15T10:32:32Z</time>
      </trkpt>
      <trkpt lat="44.63377" lon="5.99605">
        <ele>1230.4</ele>
        <time>2023-05-15T10:32:33Z</time>
      </trkpt>
      <trkpt lat="44.63377" lon="5.99606">
        <ele>1229.2</ele>
        <time>2023-05-15T10:32:34Z</time>
      </trkpt>
      <trkpt lat="44.63378" lon="5.99607">
        <ele>1229</ele>
        <time>2023-05-15T10:32:35Z</time>
      </trkpt>
      <trkpt lat="44.63379" lon="5.99609">
        <ele>1228.6</ele>
        <time>2023-05-15T10:32:36Z</time>
      </trkpt>
      <trkpt lat="44.63379" lon="5.99609">
        <ele>1227.8</ele>
        <time>2023-05-15T10:32:37Z</time>
      </trkpt>
      <trkpt lat="44.63379" lon="5.99609">
        <ele>1227.6</ele>
        <time>2023-05-15T10:32:38Z</time>
      </trkpt>
      <trkpt lat="44.6338" lon="5.99611">
        <ele>1226.6</ele>
        <time>2023-05-15T10:32:40Z</time>
      </trkpt>
      <trkpt lat="44.6338" lon="5.99611">
        <ele>1226</ele>
        <time>2023-05-15T10:32:42Z</time>
      </trkpt>
      <trkpt lat="44.6338" lon="5.99611">
        <ele>1225.6</ele>
        <time>2023-05-15T10:32:43Z</time>
      </trkpt>
      <trkpt lat="44.6338" lon="5.99612">
        <ele>1225.6</ele>
        <time>2023-05-15T10:32:49Z</time>
      </trkpt>
      <trkpt lat="44.6338" lon="5.99612">
        <ele>1226.4</ele>
        <time>2023-05-15T10:33:00Z</time>
      </trkpt>
      <trkpt lat="44.63381" lon="5.99613">
        <ele>1226.8</ele>
        <time>2023-05-15T10:33:11Z</time>
      </trkpt>
      <trkpt lat="44.63381" lon="5.99613">
        <ele>1227</ele>
        <time>2023-05-15T10:33:13Z</time>
      </trkpt>
      <trkpt lat="44.63381" lon="5.99613">
        <ele>1227.4</ele>
        <time>2023-05-15T10:33:24Z</time>
      </trkpt>
      <trkpt lat="44.63381" lon="5.99613">
        <ele>1227.4</ele>
        <time>2023-05-15T10:33:32Z</time>
      </trkpt>
      <trkpt lat="44.63381" lon="5.99613">
        <ele>1227.8</ele>
        <time>2023-05-15T10:33:40Z</time>
      </trkpt>
      <trkpt lat="44.63381" lon="5.99613">
        <ele>1227.8</ele>
        <time>2023-05-15T10:33:49Z</time>
      </trkpt>
      <trkpt lat="44.63382" lon="5.99617">
        <ele>1228.2</ele>
        <time>2023-05-15T10:33:59Z</time>
      </trkpt>
      <trkpt lat="44.63382" lon="5.99617">
        <ele>1228.2</ele>
        <time>2023-05-15T10:34:00Z</time>
      </trkpt>
      <trkpt lat="44.63383" lon="5.99619">
        <ele>1228.2</ele>
        <time>2023-05-15T10:34:06Z</time>
      </trkpt>
      <trkpt lat="44.63384" lon="5.99621">
        <ele>1228.4</ele>
        <time>2023-05-15T10:34:07Z</time>
      </trkpt>
      <trkpt lat="44.63386" lon="5.99625">
        <ele>1228.8</ele>
        <time>2023-05-15T10:34:10Z</time>
      </trkpt>
      <trkpt lat="44.63386" lon="5.99625">
        <ele>1228.6</ele>
        <time>2023-05-15T10:34:11Z</time>
      </trkpt>
      <trkpt lat="44.63386" lon="5.99625">
        <ele>1228.6</ele>
        <time>2023-05-15T10:34:12Z</time>
      </trkpt>
      <trkpt lat="44.63387" lon="5.99628">
        <ele>1228.6</ele>
        <time>2023-05-15T10:34:13Z</time>
      </trkpt>
      <trkpt lat="44.6339" lon="5.99631">
        <ele>1229</ele>
        <time>2023-05-15T10:34:16Z</time>
      </trkpt>
      <trkpt lat="44.63392" lon="5.99634">
        <ele>1229</ele>
        <time>2023-05-15T10:34:17Z</time>
      </trkpt>
      <trkpt lat="44.63392" lon="5.99634">
        <ele>1229</ele>
        <time>2023-05-15T10:34:18Z</time>
      </trkpt>
      <trkpt lat="44.63392" lon="5.99634">
        <ele>1229</ele>
        <time>2023-05-15T10:34:19Z</time>
      </trkpt>
      <trkpt lat="44.63393" lon="5.99635">
        <ele>1229</ele>
        <time>2023-05-15T10:34:20Z</time>
      </trkpt>
      <trkpt lat="44.63393" lon="5.99635">
        <ele>1229.2</ele>
        <time>2023-05-15T10:34:21Z</time>
      </trkpt>
      <trkpt lat="44.63394" lon="5.99639">
        <ele>1229.2</ele>
        <time>2023-05-15T10:34:22Z</time>
      </trkpt>
      <trkpt lat="44.63394" lon="5.99642">
        <ele>1229</ele>
        <time>2023-05-15T10:34:23Z</time>
      </trkpt>
      <trkpt lat="44.63395" lon="5.99644">
        <ele>1229.2</ele>
        <time>2023-05-15T10:34:24Z</time>
      </trkpt>
      <trkpt lat="44.63396" lon="5.99646">
        <ele>1229.2</ele>
        <time>2023-05-15T10:34:25Z</time>
      </trkpt>
      <trkpt lat="44.63396" lon="5.99646">
        <ele>1229.2</ele>
        <time>2023-05-15T10:34:26Z</time>
      </trkpt>
      <trkpt lat="44.63396" lon="5.99647">
        <ele>1229.4</ele>
        <time>2023-05-15T10:34:27Z</time>
      </trkpt>
      <trkpt lat="44.63396" lon="5.99647">
        <ele>1229.4</ele>
        <time>2023-05-15T10:34:28Z</time>
      </trkpt>
      <trkpt lat="44.63396" lon="5.99647">
        <ele>1229.6</ele>
        <time>2023-05-15T10:34:29Z</time>
      </trkpt>
      <trkpt lat="44.63397" lon="5.99651">
        <ele>1230</ele>
        <time>2023-05-15T10:34:33Z</time>
      </trkpt>
      <trkpt lat="44.63398" lon="5.99653">
        <ele>1230.2</ele>
        <time>2023-05-15T10:34:35Z</time>
      </trkpt>
      <trkpt lat="44.63398" lon="5.99653">
        <ele>1230.2</ele>
        <time>2023-05-15T10:34:36Z</time>
      </trkpt>
      <trkpt lat="44.63398" lon="5.99658">
        <ele>1230.4</ele>
        <time>2023-05-15T10:34:38Z</time>
      </trkpt>
      <trkpt lat="44.63398" lon="5.99658">
        <ele>1230.6</ele>
        <time>2023-05-15T10:34:39Z</time>
      </trkpt>
      <trkpt lat="44.63398" lon="5.99658">
        <ele>1230.8</ele>
        <time>2023-05-15T10:34:41Z</time>
      </trkpt>
      <trkpt lat="44.63398" lon="5.9966">
        <ele>1231</ele>
        <time>2023-05-15T10:34:42Z</time>
      </trkpt>
      <trkpt lat="44.63398" lon="5.99661">
        <ele>1231</ele>
        <time>2023-05-15T10:34:43Z</time>
      </trkpt>
      <trkpt lat="44.63398" lon="5.99661">
        <ele>1231.2</ele>
        <time>2023-05-15T10:34:44Z</time>
      </trkpt>
      <trkpt lat="44.63398" lon="5.99661">
        <ele>1231.4</ele>
        <time>2023-05-15T10:34:46Z</time>
      </trkpt>
      <trkpt lat="44.63398" lon="5.99663">
        <ele>1231.8</ele>
        <time>2023-05-15T10:34:49Z</time>
      </trkpt>
      <trkpt lat="44.63398" lon="5.99663">
        <ele>1231.8</ele>
        <time>2023-05-15T10:34:50Z</time>
      </trkpt>
      <trkpt lat="44.63398" lon="5.99663">
        <ele>1232</ele>
        <time>2023-05-15T10:34:51Z</time>
      </trkpt>
      <trkpt lat="44.63398" lon="5.99663">
        <ele>1232.4</ele>
        <time>2023-05-15T10:34:59Z</time>
      </trkpt>
      <trkpt lat="44.63399" lon="5.99665">
        <ele>1232</ele>
        <time>2023-05-15T10:35:07Z</time>
      </trkpt>
      <trkpt lat="44.63399" lon="5.9967">
        <ele>1232.2</ele>
        <time>2023-05-15T10:35:16Z</time>
      </trkpt>
      <trkpt lat="44.63399" lon="5.9967">
        <ele>1232.2</ele>
        <time>2023-05-15T10:35:17Z</time>
      </trkpt>
      <trkpt lat="44.63399" lon="5.9967">
        <ele>1232.2</ele>
        <time>2023-05-15T10:35:18Z</time>
      </trkpt>
      <trkpt lat="44.63399" lon="5.99671">
        <ele>1232.4</ele>
        <time>2023-05-15T10:35:19Z</time>
      </trkpt>
      <trkpt lat="44.634" lon="5.99673">
        <ele>1232.2</ele>
        <time>2023-05-15T10:35:22Z</time>
      </trkpt>
      <trkpt lat="44.634" lon="5.99673">
        <ele>1232</ele>
        <time>2023-05-15T10:35:23Z</time>
      </trkpt>
      <trkpt lat="44.634" lon="5.99673">
        <ele>1232</ele>
        <time>2023-05-15T10:35:24Z</time>
      </trkpt>
      <trkpt lat="44.63401" lon="5.9968">
        <ele>1231.8</ele>
        <time>2023-05-15T10:35:30Z</time>
      </trkpt>
      <trkpt lat="44.63402" lon="5.99682">
        <ele>1231.8</ele>
        <time>2023-05-15T10:35:31Z</time>
      </trkpt>
      <trkpt lat="44.63403" lon="5.99684">
        <ele>1231.8</ele>
        <time>2023-05-15T10:35:32Z</time>
      </trkpt>
      <trkpt lat="44.63403" lon="5.99689">
        <ele>1231.8</ele>
        <time>2023-05-15T10:35:33Z</time>
      </trkpt>
      <trkpt lat="44.63404" lon="5.99692">
        <ele>1231.8</ele>
        <time>2023-05-15T10:35:34Z</time>
      </trkpt>
      <trkpt lat="44.63407" lon="5.99703">
        <ele>1231.8</ele>
        <time>2023-05-15T10:35:36Z</time>
      </trkpt>
      <trkpt lat="44.63408" lon="5.99706">
        <ele>1231.8</ele>
        <time>2023-05-15T10:35:37Z</time>
      </trkpt>
      <trkpt lat="44.63409" lon="5.99709">
        <ele>1231.8</ele>
        <time>2023-05-15T10:35:38Z</time>
      </trkpt>
      <trkpt lat="44.6341" lon="5.99712">
        <ele>1231.6</ele>
        <time>2023-05-15T10:35:40Z</time>
      </trkpt>
      <trkpt lat="44.6341" lon="5.99712">
        <ele>1231.4</ele>
        <time>2023-05-15T10:35:41Z</time>
      </trkpt>
      <trkpt lat="44.63411" lon="5.99714">
        <ele>1231</ele>
        <time>2023-05-15T10:35:48Z</time>
      </trkpt>
      <trkpt lat="44.63412" lon="5.99718">
        <ele>1231</ele>
        <time>2023-05-15T10:35:52Z</time>
      </trkpt>
      <trkpt lat="44.63412" lon="5.99719">
        <ele>1231</ele>
        <time>2023-05-15T10:35:53Z</time>
      </trkpt>
      <trkpt lat="44.63411" lon="5.99719">
        <ele>1231.2</ele>
        <time>2023-05-15T10:35:54Z</time>
      </trkpt>
      <trkpt lat="44.63413" lon="5.99721">
        <ele>1231.4</ele>
        <time>2023-05-15T10:36:00Z</time>
      </trkpt>
      <trkpt lat="44.63413" lon="5.99724">
        <ele>1231.4</ele>
        <time>2023-05-15T10:36:01Z</time>
      </trkpt>
      <trkpt lat="44.63414" lon="5.99726">
        <ele>1231.4</ele>
        <time>2023-05-15T10:36:02Z</time>
      </trkpt>
      <trkpt lat="44.63416" lon="5.99729">
        <ele>1231.6</ele>
        <time>2023-05-15T10:36:04Z</time>
      </trkpt>
      <trkpt lat="44.63417" lon="5.99731">
        <ele>1231.8</ele>
        <time>2023-05-15T10:36:05Z</time>
      </trkpt>
      <trkpt lat="44.63419" lon="5.99733">
        <ele>1231.8</ele>
        <time>2023-05-15T10:36:06Z</time>
      </trkpt>
      <trkpt lat="44.63419" lon="5.99735">
        <ele>1232</ele>
        <time>2023-05-15T10:36:08Z</time>
      </trkpt>
      <trkpt lat="44.6342" lon="5.99735">
        <ele>1232</ele>
        <time>2023-05-15T10:36:09Z</time>
      </trkpt>
      <trkpt lat="44.63421" lon="5.99736">
        <ele>1232.2</ele>
        <time>2023-05-15T10:36:10Z</time>
      </trkpt>
      <trkpt lat="44.63422" lon="5.99736">
        <ele>1232.2</ele>
        <time>2023-05-15T10:36:12Z</time>
      </trkpt>
      <trkpt lat="44.63422" lon="5.99736">
        <ele>1232</ele>
        <time>2023-05-15T10:36:13Z</time>
      </trkpt>
      <trkpt lat="44.63422" lon="5.99736">
        <ele>1232.2</ele>
        <time>2023-05-15T10:36:16Z</time>
      </trkpt>
      <trkpt lat="44.63422" lon="5.99736">
        <ele>1232.2</ele>
        <time>2023-05-15T10:36:17Z</time>
      </trkpt>
      <trkpt lat="44.63423" lon="5.99735">
        <ele>1232.4</ele>
        <time>2023-05-15T10:36:22Z</time>
      </trkpt>
      <trkpt lat="44.63426" lon="5.99739">
        <ele>1232.6</ele>
        <time>2023-05-15T10:36:30Z</time>
      </trkpt>
      <trkpt lat="44.63427" lon="5.99741">
        <ele>1232.6</ele>
        <time>2023-05-15T10:36:32Z</time>
      </trkpt>
      <trkpt lat="44.63428" lon="5.99743">
        <ele>1232.8</ele>
        <time>2023-05-15T10:36:33Z</time>
      </trkpt>
      <trkpt lat="44.63429" lon="5.99746">
        <ele>1233</ele>
        <time>2023-05-15T10:36:34Z</time>
      </trkpt>
      <trkpt lat="44.63432" lon="5.99749">
        <ele>1233</ele>
        <time>2023-05-15T10:36:35Z</time>
      </trkpt>
      <trkpt lat="44.63436" lon="5.99762">
        <ele>1233.2</ele>
        <time>2023-05-15T10:36:40Z</time>
      </trkpt>
      <trkpt lat="44.63436" lon="5.99764">
        <ele>1233.2</ele>
        <time>2023-05-15T10:36:41Z</time>
      </trkpt>
      <trkpt lat="44.63435" lon="5.99767">
        <ele>1233.2</ele>
        <time>2023-05-15T10:36:43Z</time>
      </trkpt>
      <trkpt lat="44.63436" lon="5.9977">
        <ele>1233.2</ele>
        <time>2023-05-15T10:36:44Z</time>
      </trkpt>
      <trkpt lat="44.63438" lon="5.99777">
        <ele>1233.2</ele>
        <time>2023-05-15T10:36:45Z</time>
      </trkpt>
      <trkpt lat="44.63441" lon="5.99783">
        <ele>1233.2</ele>
        <time>2023-05-15T10:36:47Z</time>
      </trkpt>
      <trkpt lat="44.63442" lon="5.99783">
        <ele>1233.2</ele>
        <time>2023-05-15T10:36:48Z</time>
      </trkpt>
      <trkpt lat="44.63443" lon="5.99786">
        <ele>1233.2</ele>
        <time>2023-05-15T10:36:49Z</time>
      </trkpt>
      <trkpt lat="44.63443" lon="5.99786">
        <ele>1233.2</ele>
        <time>2023-05-15T10:36:50Z</time>
      </trkpt>
      <trkpt lat="44.63444" lon="5.99787">
        <ele>1233.2</ele>
        <time>2023-05-15T10:36:51Z</time>
      </trkpt>
      <trkpt lat="44.63445" lon="5.99788">
        <ele>1233.2</ele>
        <time>2023-05-15T10:36:52Z</time>
      </trkpt>
      <trkpt lat="44.63446" lon="5.99789">
        <ele>1233.2</ele>
        <time>2023-05-15T10:36:53Z</time>
      </trkpt>
      <trkpt lat="44.63448" lon="5.99789">
        <ele>1233.2</ele>
        <time>2023-05-15T10:36:54Z</time>
      </trkpt>
      <trkpt lat="44.63448" lon="5.99789">
        <ele>1232.8</ele>
        <time>2023-05-15T10:36:55Z</time>
      </trkpt>
      <trkpt lat="44.63448" lon="5.99789">
        <ele>1232.8</ele>
        <time>2023-05-15T10:36:56Z</time>
      </trkpt>
      <trkpt lat="44.63449" lon="5.99791">
        <ele>1232.6</ele>
        <time>2023-05-15T10:36:57Z</time>
      </trkpt>
      <trkpt lat="44.63449" lon="5.99792">
        <ele>1232.4</ele>
        <time>2023-05-15T10:36:58Z</time>
      </trkpt>
      <trkpt lat="44.63449" lon="5.99792">
        <ele>1232.2</ele>
        <time>2023-05-15T10:36:59Z</time>
      </trkpt>
      <trkpt lat="44.63449" lon="5.99792">
        <ele>1232</ele>
        <time>2023-05-15T10:37:04Z</time>
      </trkpt>
      <trkpt lat="44.63449" lon="5.99792">
        <ele>1232</ele>
        <time>2023-05-15T10:37:05Z</time>
      </trkpt>
      <trkpt lat="44.63449" lon="5.99792">
        <ele>1232</ele>
        <time>2023-05-15T10:37:06Z</time>
      </trkpt>
      <trkpt lat="44.63451" lon="5.99796">
        <ele>1232.4</ele>
        <time>2023-05-15T10:37:17Z</time>
      </trkpt>
      <trkpt lat="44.63456" lon="5.99799">
        <ele>1232.4</ele>
        <time>2023-05-15T10:37:20Z</time>
      </trkpt>
      <trkpt lat="44.63457" lon="5.998">
        <ele>1232.6</ele>
        <time>2023-05-15T10:37:21Z</time>
      </trkpt>
      <trkpt lat="44.63459" lon="5.99802">
        <ele>1232.6</ele>
        <time>2023-05-15T10:37:22Z</time>
      </trkpt>
      <trkpt lat="44.63461" lon="5.99804">
        <ele>1232.6</ele>
        <time>2023-05-15T10:37:23Z</time>
      </trkpt>
      <trkpt lat="44.63465" lon="5.99806">
        <ele>1232.6</ele>
        <time>2023-05-15T10:37:25Z</time>
      </trkpt>
      <trkpt lat="44.63467" lon="5.99808">
        <ele>1232.6</ele>
        <time>2023-05-15T10:37:26Z</time>
      </trkpt>
      <trkpt lat="44.63469" lon="5.99808">
        <ele>1232.6</ele>
        <time>2023-05-15T10:37:28Z</time>
      </trkpt>
      <trkpt lat="44.6347" lon="5.99808">
        <ele>1232.6</ele>
        <time>2023-05-15T10:37:29Z</time>
      </trkpt>
      <trkpt lat="44.63474" lon="5.99807">
        <ele>1232.6</ele>
        <time>2023-05-15T10:37:31Z</time>
      </trkpt>
      <trkpt lat="44.63477" lon="5.99807">
        <ele>1232.6</ele>
        <time>2023-05-15T10:37:32Z</time>
      </trkpt>
      <trkpt lat="44.63479" lon="5.99807">
        <ele>1232.6</ele>
        <time>2023-05-15T10:37:33Z</time>
      </trkpt>
      <trkpt lat="44.6348" lon="5.99807">
        <ele>1232.8</ele>
        <time>2023-05-15T10:37:34Z</time>
      </trkpt>
      <trkpt lat="44.63482" lon="5.99809">
        <ele>1232.8</ele>
        <time>2023-05-15T10:37:35Z</time>
      </trkpt>
      <trkpt lat="44.63483" lon="5.9981">
        <ele>1233</ele>
        <time>2023-05-15T10:37:36Z</time>
      </trkpt>
      <trkpt lat="44.63486" lon="5.99811">
        <ele>1233.2</ele>
        <time>2023-05-15T10:37:37Z</time>
      </trkpt>
      <trkpt lat="44.63488" lon="5.99813">
        <ele>1233.2</ele>
        <time>2023-05-15T10:37:38Z</time>
      </trkpt>
      <trkpt lat="44.6349" lon="5.99815">
        <ele>1233.4</ele>
        <time>2023-05-15T10:37:39Z</time>
      </trkpt>
      <trkpt lat="44.63491" lon="5.99817">
        <ele>1233.6</ele>
        <time>2023-05-15T10:37:40Z</time>
      </trkpt>
      <trkpt lat="44.63494" lon="5.99819">
        <ele>1233.6</ele>
        <time>2023-05-15T10:37:41Z</time>
      </trkpt>
      <trkpt lat="44.63495" lon="5.99822">
        <ele>1233.8</ele>
        <time>2023-05-15T10:37:42Z</time>
      </trkpt>
      <trkpt lat="44.63498" lon="5.99823">
        <ele>1233.8</ele>
        <time>2023-05-15T10:37:43Z</time>
      </trkpt>
      <trkpt lat="44.63498" lon="5.99824">
        <ele>1234</ele>
        <time>2023-05-15T10:37:45Z</time>
      </trkpt>
      <trkpt lat="44.63499" lon="5.99826">
        <ele>1234</ele>
        <time>2023-05-15T10:37:46Z</time>
      </trkpt>
      <trkpt lat="44.635" lon="5.99827">
        <ele>1234.4</ele>
        <time>2023-05-15T10:37:47Z</time>
      </trkpt>
      <trkpt lat="44.635" lon="5.9983">
        <ele>1234.4</ele>
        <time>2023-05-15T10:37:50Z</time>
      </trkpt>
      <trkpt lat="44.635" lon="5.9983">
        <ele>1234.6</ele>
        <time>2023-05-15T10:37:51Z</time>
      </trkpt>
      <trkpt lat="44.635" lon="5.9983">
        <ele>1234.6</ele>
        <time>2023-05-15T10:37:54Z</time>
      </trkpt>
      <trkpt lat="44.635" lon="5.9983">
        <ele>1234.6</ele>
        <time>2023-05-15T10:37:58Z</time>
      </trkpt>
      <trkpt lat="44.635" lon="5.99831">
        <ele>1234.6</ele>
        <time>2023-05-15T10:37:59Z</time>
      </trkpt>
      <trkpt lat="44.635" lon="5.99831">
        <ele>1234.6</ele>
        <time>2023-05-15T10:38:00Z</time>
      </trkpt>
      <trkpt lat="44.635" lon="5.99831">
        <ele>1234.6</ele>
        <time>2023-05-15T10:38:01Z</time>
      </trkpt>
      <trkpt lat="44.63503" lon="5.99834">
        <ele>1235</ele>
        <time>2023-05-15T10:38:04Z</time>
      </trkpt>
      <trkpt lat="44.63504" lon="5.99836">
        <ele>1235.2</ele>
        <time>2023-05-15T10:38:05Z</time>
      </trkpt>
      <trkpt lat="44.63505" lon="5.99838">
        <ele>1235.2</ele>
        <time>2023-05-15T10:38:06Z</time>
      </trkpt>
      <trkpt lat="44.63506" lon="5.99839">
        <ele>1235.6</ele>
        <time>2023-05-15T10:38:07Z</time>
      </trkpt>
      <trkpt lat="44.63507" lon="5.9984">
        <ele>1235.6</ele>
        <time>2023-05-15T10:38:08Z</time>
      </trkpt>
      <trkpt lat="44.63508" lon="5.9984">
        <ele>1235.8</ele>
        <time>2023-05-15T10:38:09Z</time>
      </trkpt>
      <trkpt lat="44.63509" lon="5.99842">
        <ele>1235.8</ele>
        <time>2023-05-15T10:38:10Z</time>
      </trkpt>
      <trkpt lat="44.6351" lon="5.99843">
        <ele>1236</ele>
        <time>2023-05-15T10:38:11Z</time>
      </trkpt>
      <trkpt lat="44.63511" lon="5.99844">
        <ele>1236</ele>
        <time>2023-05-15T10:38:13Z</time>
      </trkpt>
      <trkpt lat="44.63512" lon="5.99846">
        <ele>1236.2</ele>
        <time>2023-05-15T10:38:14Z</time>
      </trkpt>
      <trkpt lat="44.63512" lon="5.99847">
        <ele>1236.2</ele>
        <time>2023-05-15T10:38:15Z</time>
      </trkpt>
      <trkpt lat="44.63512" lon="5.99847">
        <ele>1236.2</ele>
        <time>2023-05-15T10:38:16Z</time>
      </trkpt>
      <trkpt lat="44.63512" lon="5.99847">
        <ele>1236.2</ele>
        <time>2023-05-15T10:38:17Z</time>
      </trkpt>
      <trkpt lat="44.63513" lon="5.99849">
        <ele>1236.4</ele>
        <time>2023-05-15T10:38:20Z</time>
      </trkpt>
      <trkpt lat="44.63514" lon="5.9985">
        <ele>1236.4</ele>
        <time>2023-05-15T10:38:21Z</time>
      </trkpt>
      <trkpt lat="44.63515" lon="5.99852">
        <ele>1236.4</ele>
        <time>2023-05-15T10:38:22Z</time>
      </trkpt>
      <trkpt lat="44.63515" lon="5.99852">
        <ele>1236.4</ele>
        <time>2023-05-15T10:38:23Z</time>
      </trkpt>
      <trkpt lat="44.63515" lon="5.99852">
        <ele>1236.4</ele>
        <time>2023-05-15T10:38:24Z</time>
      </trkpt>
      <trkpt lat="44.63515" lon="5.99852">
        <ele>1236.6</ele>
        <time>2023-05-15T10:38:25Z</time>
      </trkpt>
      <trkpt lat="44.63516" lon="5.99854">
        <ele>1236.8</ele>
        <time>2023-05-15T10:38:26Z</time>
      </trkpt>
      <trkpt lat="44.63516" lon="5.99854">
        <ele>1237</ele>
        <time>2023-05-15T10:38:27Z</time>
      </trkpt>
      <trkpt lat="44.63517" lon="5.99855">
        <ele>1237.4</ele>
        <time>2023-05-15T10:38:28Z</time>
      </trkpt>
      <trkpt lat="44.63517" lon="5.99858">
        <ele>1237.8</ele>
        <time>2023-05-15T10:38:30Z</time>
      </trkpt>
      <trkpt lat="44.63517" lon="5.99858">
        <ele>1238</ele>
        <time>2023-05-15T10:38:32Z</time>
      </trkpt>
      <trkpt lat="44.63517" lon="5.99858">
        <ele>1238</ele>
        <time>2023-05-15T10:38:33Z</time>
      </trkpt>
      <trkpt lat="44.63518" lon="5.99859">
        <ele>1238.2</ele>
        <time>2023-05-15T10:38:34Z</time>
      </trkpt>
      <trkpt lat="44.6352" lon="5.99864">
        <ele>1238.4</ele>
        <time>2023-05-15T10:38:37Z</time>
      </trkpt>
      <trkpt lat="44.63521" lon="5.99866">
        <ele>1238.4</ele>
        <time>2023-05-15T10:38:38Z</time>
      </trkpt>
      <trkpt lat="44.63521" lon="5.99867">
        <ele>1238.6</ele>
        <time>2023-05-15T10:38:39Z</time>
      </trkpt>
      <trkpt lat="44.63521" lon="5.99867">
        <ele>1238.6</ele>
        <time>2023-05-15T10:38:40Z</time>
      </trkpt>
      <trkpt lat="44.63521" lon="5.99867">
        <ele>1238.6</ele>
        <time>2023-05-15T10:38:41Z</time>
      </trkpt>
      <trkpt lat="44.63522" lon="5.99867">
        <ele>1238.6</ele>
        <time>2023-05-15T10:38:42Z</time>
      </trkpt>
      <trkpt lat="44.63522" lon="5.99867">
        <ele>1238.6</ele>
        <time>2023-05-15T10:38:43Z</time>
      </trkpt>
      <trkpt lat="44.63522" lon="5.99869">
        <ele>1238.6</ele>
        <time>2023-05-15T10:38:44Z</time>
      </trkpt>
      <trkpt lat="44.63522" lon="5.99869">
        <ele>1238.8</ele>
        <time>2023-05-15T10:38:45Z</time>
      </trkpt>
      <trkpt lat="44.63524" lon="5.9987">
        <ele>1238.8</ele>
        <time>2023-05-15T10:38:46Z</time>
      </trkpt>
      <trkpt lat="44.63524" lon="5.99873">
        <ele>1239</ele>
        <time>2023-05-15T10:38:48Z</time>
      </trkpt>
      <trkpt lat="44.63524" lon="5.99874">
        <ele>1239</ele>
        <time>2023-05-15T10:38:49Z</time>
      </trkpt>
      <trkpt lat="44.63524" lon="5.99875">
        <ele>1239.2</ele>
        <time>2023-05-15T10:38:50Z</time>
      </trkpt>
      <trkpt lat="44.63524" lon="5.99875">
        <ele>1239.2</ele>
        <time>2023-05-15T10:38:51Z</time>
      </trkpt>
      <trkpt lat="44.63524" lon="5.99875">
        <ele>1239.2</ele>
        <time>2023-05-15T10:38:52Z</time>
      </trkpt>
      <trkpt lat="44.63525" lon="5.99877">
        <ele>1239.2</ele>
        <time>2023-05-15T10:38:54Z</time>
      </trkpt>
      <trkpt lat="44.63525" lon="5.99878">
        <ele>1239.4</ele>
        <time>2023-05-15T10:38:55Z</time>
      </trkpt>
      <trkpt lat="44.63525" lon="5.9988">
        <ele>1239.4</ele>
        <time>2023-05-15T10:38:56Z</time>
      </trkpt>
      <trkpt lat="44.63525" lon="5.99882">
        <ele>1239.6</ele>
        <time>2023-05-15T10:38:57Z</time>
      </trkpt>
      <trkpt lat="44.63524" lon="5.99886">
        <ele>1239.6</ele>
        <time>2023-05-15T10:38:59Z</time>
      </trkpt>
      <trkpt lat="44.63524" lon="5.99887">
        <ele>1239.8</ele>
        <time>2023-05-15T10:39:00Z</time>
      </trkpt>
      <trkpt lat="44.63524" lon="5.99887">
        <ele>1239.8</ele>
        <time>2023-05-15T10:39:03Z</time>
      </trkpt>
      <trkpt lat="44.63524" lon="5.99887">
        <ele>1239.8</ele>
        <time>2023-05-15T10:39:04Z</time>
      </trkpt>
      <trkpt lat="44.63525" lon="5.99887">
        <ele>1239.8</ele>
        <time>2023-05-15T10:39:05Z</time>
      </trkpt>
      <trkpt lat="44.63525" lon="5.99887">
        <ele>1239.8</ele>
        <time>2023-05-15T10:39:06Z</time>
      </trkpt>
      <trkpt lat="44.63525" lon="5.99887">
        <ele>1240</ele>
        <time>2023-05-15T10:39:09Z</time>
      </trkpt>
      <trkpt lat="44.63524" lon="5.99888">
        <ele>1240</ele>
        <time>2023-05-15T10:39:12Z</time>
      </trkpt>
      <trkpt lat="44.63525" lon="5.99888">
        <ele>1240</ele>
        <time>2023-05-15T10:39:14Z</time>
      </trkpt>
      <trkpt lat="44.63525" lon="5.99888">
        <ele>1240.2</ele>
        <time>2023-05-15T10:39:16Z</time>
      </trkpt>
      <trkpt lat="44.63525" lon="5.99887">
        <ele>1240.2</ele>
        <time>2023-05-15T10:39:17Z</time>
      </trkpt>
      <trkpt lat="44.63526" lon="5.99888">
        <ele>1240.2</ele>
        <time>2023-05-15T10:39:18Z</time>
      </trkpt>
      <trkpt lat="44.63526" lon="5.99889">
        <ele>1240.4</ele>
        <time>2023-05-15T10:39:19Z</time>
      </trkpt>
      <trkpt lat="44.63526" lon="5.99889">
        <ele>1240.4</ele>
        <time>2023-05-15T10:39:21Z</time>
      </trkpt>
      <trkpt lat="44.63526" lon="5.99889">
        <ele>1240.6</ele>
        <time>2023-05-15T10:39:22Z</time>
      </trkpt>
      <trkpt lat="44.63526" lon="5.9989">
        <ele>1240.6</ele>
        <time>2023-05-15T10:39:23Z</time>
      </trkpt>
      <trkpt lat="44.63528" lon="5.99893">
        <ele>1240.6</ele>
        <time>2023-05-15T10:39:25Z</time>
      </trkpt>
      <trkpt lat="44.63529" lon="5.99894">
        <ele>1240.8</ele>
        <time>2023-05-15T10:39:30Z</time>
      </trkpt>
      <trkpt lat="44.63533" lon="5.99899">
        <ele>1240.8</ele>
        <time>2023-05-15T10:39:33Z</time>
      </trkpt>
      <trkpt lat="44.63536" lon="5.99902">
        <ele>1240.8</ele>
        <time>2023-05-15T10:39:35Z</time>
      </trkpt>
      <trkpt lat="44.6354" lon="5.99905">
        <ele>1240.8</ele>
        <time>2023-05-15T10:39:37Z</time>
      </trkpt>
      <trkpt lat="44.63543" lon="5.99911">
        <ele>1240.8</ele>
        <time>2023-05-15T10:39:39Z</time>
      </trkpt>
      <trkpt lat="44.63545" lon="5.99914">
        <ele>1240.6</ele>
        <time>2023-05-15T10:39:40Z</time>
      </trkpt>
      <trkpt lat="44.63548" lon="5.99918">
        <ele>1240.6</ele>
        <time>2023-05-15T10:39:41Z</time>
      </trkpt>
      <trkpt lat="44.63553" lon="5.99919">
        <ele>1240.4</ele>
        <time>2023-05-15T10:39:43Z</time>
      </trkpt>
      <trkpt lat="44.63554" lon="5.99919">
        <ele>1240.2</ele>
        <time>2023-05-15T10:39:44Z</time>
      </trkpt>
      <trkpt lat="44.63556" lon="5.9992">
        <ele>1240</ele>
        <time>2023-05-15T10:39:45Z</time>
      </trkpt>
      <trkpt lat="44.63558" lon="5.99921">
        <ele>1240.2</ele>
        <time>2023-05-15T10:39:46Z</time>
      </trkpt>
      <trkpt lat="44.6356" lon="5.99923">
        <ele>1239.8</ele>
        <time>2023-05-15T10:39:47Z</time>
      </trkpt>
      <trkpt lat="44.63562" lon="5.99925">
        <ele>1239.6</ele>
        <time>2023-05-15T10:39:48Z</time>
      </trkpt>
      <trkpt lat="44.63564" lon="5.99926">
        <ele>1239.6</ele>
        <time>2023-05-15T10:39:49Z</time>
      </trkpt>
      <trkpt lat="44.63572" lon="5.99935">
        <ele>1239.6</ele>
        <time>2023-05-15T10:39:52Z</time>
      </trkpt>
      <trkpt lat="44.63574" lon="5.99938">
        <ele>1239.6</ele>
        <time>2023-05-15T10:39:54Z</time>
      </trkpt>
      <trkpt lat="44.63576" lon="5.9994">
        <ele>1239.6</ele>
        <time>2023-05-15T10:39:55Z</time>
      </trkpt>
      <trkpt lat="44.63577" lon="5.99942">
        <ele>1239.8</ele>
        <time>2023-05-15T10:39:57Z</time>
      </trkpt>
      <trkpt lat="44.63579" lon="5.99945">
        <ele>1239.8</ele>
        <time>2023-05-15T10:39:58Z</time>
      </trkpt>
      <trkpt lat="44.63581" lon="5.99949">
        <ele>1240</ele>
        <time>2023-05-15T10:39:59Z</time>
      </trkpt>
      <trkpt lat="44.63583" lon="5.99953">
        <ele>1240</ele>
        <time>2023-05-15T10:40:00Z</time>
      </trkpt>
      <trkpt lat="44.63585" lon="5.99955">
        <ele>1240.2</ele>
        <time>2023-05-15T10:40:01Z</time>
      </trkpt>
      <trkpt lat="44.63586" lon="5.99957">
        <ele>1240.2</ele>
        <time>2023-05-15T10:40:02Z</time>
      </trkpt>
      <trkpt lat="44.63587" lon="5.99959">
        <ele>1240.2</ele>
        <time>2023-05-15T10:40:03Z</time>
      </trkpt>
      <trkpt lat="44.63589" lon="5.99962">
        <ele>1240.4</ele>
        <time>2023-05-15T10:40:04Z</time>
      </trkpt>
      <trkpt lat="44.63592" lon="5.99963">
        <ele>1240.6</ele>
        <time>2023-05-15T10:40:06Z</time>
      </trkpt>
      <trkpt lat="44.63594" lon="5.99964">
        <ele>1240.6</ele>
        <time>2023-05-15T10:40:07Z</time>
      </trkpt>
      <trkpt lat="44.63595" lon="5.99966">
        <ele>1240.6</ele>
        <time>2023-05-15T10:40:08Z</time>
      </trkpt>
      <trkpt lat="44.63596" lon="5.99967">
        <ele>1240.8</ele>
        <time>2023-05-15T10:40:10Z</time>
      </trkpt>
      <trkpt lat="44.63596" lon="5.99967">
        <ele>1240.8</ele>
        <time>2023-05-15T10:40:11Z</time>
      </trkpt>
      <trkpt lat="44.63597" lon="5.99967">
        <ele>1240.8</ele>
        <time>2023-05-15T10:40:12Z</time>
      </trkpt>
      <trkpt lat="44.636" lon="5.99969">
        <ele>1241</ele>
        <time>2023-05-15T10:40:13Z</time>
      </trkpt>
      <trkpt lat="44.63601" lon="5.9997">
        <ele>1241</ele>
        <time>2023-05-15T10:40:15Z</time>
      </trkpt>
      <trkpt lat="44.63601" lon="5.9997">
        <ele>1241</ele>
        <time>2023-05-15T10:40:16Z</time>
      </trkpt>
      <trkpt lat="44.63601" lon="5.9997">
        <ele>1240.8</ele>
        <time>2023-05-15T10:40:21Z</time>
      </trkpt>
      <trkpt lat="44.63602" lon="5.99971">
        <ele>1241</ele>
        <time>2023-05-15T10:40:30Z</time>
      </trkpt>
      <trkpt lat="44.63602" lon="5.99972">
        <ele>1241.2</ele>
        <time>2023-05-15T10:40:32Z</time>
      </trkpt>
      <trkpt lat="44.63602" lon="5.99972">
        <ele>1241.2</ele>
        <time>2023-05-15T10:40:33Z</time>
      </trkpt>
      <trkpt lat="44.63603" lon="5.99975">
        <ele>1241.2</ele>
        <time>2023-05-15T10:40:36Z</time>
      </trkpt>
      <trkpt lat="44.63604" lon="5.99977">
        <ele>1241.2</ele>
        <time>2023-05-15T10:40:37Z</time>
      </trkpt>
      <trkpt lat="44.63605" lon="5.99979">
        <ele>1241.2</ele>
        <time>2023-05-15T10:40:38Z</time>
      </trkpt>
      <trkpt lat="44.63605" lon="5.9998">
        <ele>1241.2</ele>
        <time>2023-05-15T10:40:39Z</time>
      </trkpt>
      <trkpt lat="44.63605" lon="5.9998">
        <ele>1241.4</ele>
        <time>2023-05-15T10:40:40Z</time>
      </trkpt>
      <trkpt lat="44.63606" lon="5.99981">
        <ele>1241.4</ele>
        <time>2023-05-15T10:40:41Z</time>
      </trkpt>
      <trkpt lat="44.63607" lon="5.99982">
        <ele>1241.4</ele>
        <time>2023-05-15T10:40:42Z</time>
      </trkpt>
      <trkpt lat="44.63607" lon="5.99982">
        <ele>1241.6</ele>
        <time>2023-05-15T10:40:43Z</time>
      </trkpt>
      <trkpt lat="44.63607" lon="5.99982">
        <ele>1241.8</ele>
        <time>2023-05-15T10:40:44Z</time>
      </trkpt>
      <trkpt lat="44.63609" lon="5.99986">
        <ele>1242.2</ele>
        <time>2023-05-15T10:40:48Z</time>
      </trkpt>
      <trkpt lat="44.63609" lon="5.99986">
        <ele>1242.4</ele>
        <time>2023-05-15T10:40:49Z</time>
      </trkpt>
      <trkpt lat="44.6361" lon="5.99987">
        <ele>1242.4</ele>
        <time>2023-05-15T10:40:50Z</time>
      </trkpt>
      <trkpt lat="44.63611" lon="5.9999">
        <ele>1242.6</ele>
        <time>2023-05-15T10:40:54Z</time>
      </trkpt>
      <trkpt lat="44.63611" lon="5.99991">
        <ele>1242.6</ele>
        <time>2023-05-15T10:40:56Z</time>
      </trkpt>
      <trkpt lat="44.63612" lon="5.99992">
        <ele>1242.6</ele>
        <time>2023-05-15T10:40:57Z</time>
      </trkpt>
      <trkpt lat="44.63613" lon="5.99996">
        <ele>1242.6</ele>
        <time>2023-05-15T10:40:59Z</time>
      </trkpt>
      <trkpt lat="44.63613" lon="5.99998">
        <ele>1242.6</ele>
        <time>2023-05-15T10:41:00Z</time>
      </trkpt>
      <trkpt lat="44.63613" lon="5.99998">
        <ele>1242.6</ele>
        <time>2023-05-15T10:41:02Z</time>
      </trkpt>
      <trkpt lat="44.63613" lon="5.99998">
        <ele>1242.6</ele>
        <time>2023-05-15T10:41:03Z</time>
      </trkpt>
      <trkpt lat="44.63613" lon="5.99998">
        <ele>1242.4</ele>
        <time>2023-05-15T10:41:10Z</time>
      </trkpt>
      <trkpt lat="44.63615" lon="6.00001">
        <ele>1242.6</ele>
        <time>2023-05-15T10:41:21Z</time>
      </trkpt>
      <trkpt lat="44.63616" lon="6.00003">
        <ele>1242.6</ele>
        <time>2023-05-15T10:41:22Z</time>
      </trkpt>
      <trkpt lat="44.63616" lon="6.00004">
        <ele>1242.6</ele>
        <time>2023-05-15T10:41:23Z</time>
      </trkpt>
      <trkpt lat="44.63618" lon="6.00004">
        <ele>1242.6</ele>
        <time>2023-05-15T10:41:24Z</time>
      </trkpt>
      <trkpt lat="44.63618" lon="6.00005">
        <ele>1242.8</ele>
        <time>2023-05-15T10:41:25Z</time>
      </trkpt>
      <trkpt lat="44.63619" lon="6.00006">
        <ele>1242.8</ele>
        <time>2023-05-15T10:41:26Z</time>
      </trkpt>
      <trkpt lat="44.6362" lon="6.00007">
        <ele>1242.8</ele>
        <time>2023-05-15T10:41:27Z</time>
      </trkpt>
      <trkpt lat="44.63621" lon="6.00008">
        <ele>1242.8</ele>
        <time>2023-05-15T10:41:28Z</time>
      </trkpt>
      <trkpt lat="44.63621" lon="6.0001">
        <ele>1242.8</ele>
        <time>2023-05-15T10:41:29Z</time>
      </trkpt>
      <trkpt lat="44.63623" lon="6.00013">
        <ele>1242.8</ele>
        <time>2023-05-15T10:41:31Z</time>
      </trkpt>
      <trkpt lat="44.63623" lon="6.00014">
        <ele>1242.8</ele>
        <time>2023-05-15T10:41:32Z</time>
      </trkpt>
      <trkpt lat="44.63623" lon="6.00014">
        <ele>1242.8</ele>
        <time>2023-05-15T10:41:33Z</time>
      </trkpt>
      <trkpt lat="44.63624" lon="6.00015">
        <ele>1242.8</ele>
        <time>2023-05-15T10:41:36Z</time>
      </trkpt>
      <trkpt lat="44.63624" lon="6.00016">
        <ele>1243</ele>
        <time>2023-05-15T10:41:39Z</time>
      </trkpt>
      <trkpt lat="44.63624" lon="6.00016">
        <ele>1243</ele>
        <time>2023-05-15T10:41:40Z</time>
      </trkpt>
      <trkpt lat="44.63624" lon="6.00017">
        <ele>1243.2</ele>
        <time>2023-05-15T10:41:41Z</time>
      </trkpt>
      <trkpt lat="44.63625" lon="6.00018">
        <ele>1243.4</ele>
        <time>2023-05-15T10:41:43Z</time>
      </trkpt>
      <trkpt lat="44.63624" lon="6.00018">
        <ele>1243.4</ele>
        <time>2023-05-15T10:41:44Z</time>
      </trkpt>
      <trkpt lat="44.63623" lon="6.00018">
        <ele>1243.4</ele>
        <time>2023-05-15T10:41:45Z</time>
      </trkpt>
      <trkpt lat="44.63623" lon="6.00019">
        <ele>1243.6</ele>
        <time>2023-05-15T10:41:46Z</time>
      </trkpt>
      <trkpt lat="44.63623" lon="6.00019">
        <ele>1244</ele>
        <time>2023-05-15T10:41:48Z</time>
      </trkpt>
      <trkpt lat="44.63622" lon="6.00019">
        <ele>1244.4</ele>
        <time>2023-05-15T10:41:52Z</time>
      </trkpt>
      <trkpt lat="44.63622" lon="6.0002">
        <ele>1244.6</ele>
        <time>2023-05-15T10:41:54Z</time>
      </trkpt>
      <trkpt lat="44.63622" lon="6.00019">
        <ele>1245</ele>
        <time>2023-05-15T10:41:57Z</time>
      </trkpt>
      <trkpt lat="44.63622" lon="6.00019">
        <ele>1245</ele>
        <time>2023-05-15T10:41:58Z</time>
      </trkpt>
      <trkpt lat="44.63623" lon="6.0002">
        <ele>1245.2</ele>
        <time>2023-05-15T10:42:00Z</time>
      </trkpt>
      <trkpt lat="44.63623" lon="6.00021">
        <ele>1245.2</ele>
        <time>2023-05-15T10:42:01Z</time>
      </trkpt>
      <trkpt lat="44.63623" lon="6.00022">
        <ele>1245.4</ele>
        <time>2023-05-15T10:42:02Z</time>
      </trkpt>
      <trkpt lat="44.63624" lon="6.00023">
        <ele>1245.6</ele>
        <time>2023-05-15T10:42:06Z</time>
      </trkpt>
      <trkpt lat="44.63625" lon="6.00024">
        <ele>1245.6</ele>
        <time>2023-05-15T10:42:07Z</time>
      </trkpt>
      <trkpt lat="44.63626" lon="6.00024">
        <ele>1245.8</ele>
        <time>2023-05-15T10:42:08Z</time>
      </trkpt>
      <trkpt lat="44.63626" lon="6.00024">
        <ele>1246.2</ele>
        <time>2023-05-15T10:42:11Z</time>
      </trkpt>
      <trkpt lat="44.63627" lon="6.00028">
        <ele>1246.2</ele>
        <time>2023-05-15T10:42:15Z</time>
      </trkpt>
      <trkpt lat="44.63628" lon="6.00032">
        <ele>1246.4</ele>
        <time>2023-05-15T10:42:17Z</time>
      </trkpt>
      <trkpt lat="44.6363" lon="6.00036">
        <ele>1246.4</ele>
        <time>2023-05-15T10:42:21Z</time>
      </trkpt>
      <trkpt lat="44.63632" lon="6.00036">
        <ele>1246.4</ele>
        <time>2023-05-15T10:42:22Z</time>
      </trkpt>
      <trkpt lat="44.63635" lon="6.00038">
        <ele>1246.4</ele>
        <time>2023-05-15T10:42:23Z</time>
      </trkpt>
      <trkpt lat="44.63636" lon="6.0004">
        <ele>1246.4</ele>
        <time>2023-05-15T10:42:24Z</time>
      </trkpt>
      <trkpt lat="44.63638" lon="6.00046">
        <ele>1246.2</ele>
        <time>2023-05-15T10:42:25Z</time>
      </trkpt>
      <trkpt lat="44.6364" lon="6.00052">
        <ele>1245.6</ele>
        <time>2023-05-15T10:42:26Z</time>
      </trkpt>
      <trkpt lat="44.63642" lon="6.00061">
        <ele>1244.4</ele>
        <time>2023-05-15T10:42:28Z</time>
      </trkpt>
      <trkpt lat="44.63643" lon="6.00064">
        <ele>1244</ele>
        <time>2023-05-15T10:42:29Z</time>
      </trkpt>
      <trkpt lat="44.63643" lon="6.00067">
        <ele>1243.6</ele>
        <time>2023-05-15T10:42:30Z</time>
      </trkpt>
      <trkpt lat="44.63644" lon="6.0007">
        <ele>1243.6</ele>
        <time>2023-05-15T10:42:31Z</time>
      </trkpt>
      <trkpt lat="44.63644" lon="6.0007">
        <ele>1243.6</ele>
        <time>2023-05-15T10:42:32Z</time>
      </trkpt>
      <trkpt lat="44.63644" lon="6.0007">
        <ele>1243.4</ele>
        <time>2023-05-15T10:42:33Z</time>
      </trkpt>
      <trkpt lat="44.63645" lon="6.00071">
        <ele>1243.8</ele>
        <time>2023-05-15T10:42:41Z</time>
      </trkpt>
      <trkpt lat="44.63645" lon="6.00078">
        <ele>1243.8</ele>
        <time>2023-05-15T10:42:46Z</time>
      </trkpt>
      <trkpt lat="44.63646" lon="6.0008">
        <ele>1243.8</ele>
        <time>2023-05-15T10:42:49Z</time>
      </trkpt>
      <trkpt lat="44.63646" lon="6.00081">
        <ele>1243.8</ele>
        <time>2023-05-15T10:42:51Z</time>
      </trkpt>
      <trkpt lat="44.63647" lon="6.00083">
        <ele>1243.6</ele>
        <time>2023-05-15T10:42:54Z</time>
      </trkpt>
      <trkpt lat="44.63648" lon="6.00086">
        <ele>1243.6</ele>
        <time>2023-05-15T10:42:55Z</time>
      </trkpt>
      <trkpt lat="44.63648" lon="6.00087">
        <ele>1243.6</ele>
        <time>2023-05-15T10:42:56Z</time>
      </trkpt>
      <trkpt lat="44.63648" lon="6.00088">
        <ele>1243.6</ele>
        <time>2023-05-15T10:42:57Z</time>
      </trkpt>
      <trkpt lat="44.63649" lon="6.0009">
        <ele>1243.8</ele>
        <time>2023-05-15T10:43:00Z</time>
      </trkpt>
      <trkpt lat="44.63649" lon="6.00091">
        <ele>1243.8</ele>
        <time>2023-05-15T10:43:01Z</time>
      </trkpt>
      <trkpt lat="44.63649" lon="6.00092">
        <ele>1244</ele>
        <time>2023-05-15T10:43:02Z</time>
      </trkpt>
      <trkpt lat="44.6365" lon="6.00095">
        <ele>1244.2</ele>
        <time>2023-05-15T10:43:05Z</time>
      </trkpt>
      <trkpt lat="44.6365" lon="6.00096">
        <ele>1244.4</ele>
        <time>2023-05-15T10:43:06Z</time>
      </trkpt>
      <trkpt lat="44.6365" lon="6.00096">
        <ele>1244.4</ele>
        <time>2023-05-15T10:43:07Z</time>
      </trkpt>
      <trkpt lat="44.6365" lon="6.00096">
        <ele>1244.4</ele>
        <time>2023-05-15T10:43:08Z</time>
      </trkpt>
      <trkpt lat="44.6365" lon="6.00096">
        <ele>1244.6</ele>
        <time>2023-05-15T10:43:09Z</time>
      </trkpt>
      <trkpt lat="44.6365" lon="6.00096">
        <ele>1244.6</ele>
        <time>2023-05-15T10:43:13Z</time>
      </trkpt>
      <trkpt lat="44.63652" lon="6.00098">
        <ele>1244.6</ele>
        <time>2023-05-15T10:43:15Z</time>
      </trkpt>
      <trkpt lat="44.63653" lon="6.00099">
        <ele>1244.8</ele>
        <time>2023-05-15T10:43:17Z</time>
      </trkpt>
      <trkpt lat="44.63654" lon="6.00101">
        <ele>1244.8</ele>
        <time>2023-05-15T10:43:18Z</time>
      </trkpt>
      <trkpt lat="44.63657" lon="6.00103">
        <ele>1244.8</ele>
        <time>2023-05-15T10:43:19Z</time>
      </trkpt>
      <trkpt lat="44.63659" lon="6.00105">
        <ele>1244.8</ele>
        <time>2023-05-15T10:43:20Z</time>
      </trkpt>
      <trkpt lat="44.63661" lon="6.00107">
        <ele>1244.8</ele>
        <time>2023-05-15T10:43:21Z</time>
      </trkpt>
      <trkpt lat="44.63662" lon="6.00107">
        <ele>1244.8</ele>
        <time>2023-05-15T10:43:22Z</time>
      </trkpt>
      <trkpt lat="44.63664" lon="6.00109">
        <ele>1244.8</ele>
        <time>2023-05-15T10:43:23Z</time>
      </trkpt>
      <trkpt lat="44.63667" lon="6.00111">
        <ele>1244.8</ele>
        <time>2023-05-15T10:43:24Z</time>
      </trkpt>
      <trkpt lat="44.63669" lon="6.00113">
        <ele>1244.8</ele>
        <time>2023-05-15T10:43:25Z</time>
      </trkpt>
      <trkpt lat="44.6367" lon="6.00114">
        <ele>1244.8</ele>
        <time>2023-05-15T10:43:26Z</time>
      </trkpt>
      <trkpt lat="44.63672" lon="6.00115">
        <ele>1244.8</ele>
        <time>2023-05-15T10:43:27Z</time>
      </trkpt>
      <trkpt lat="44.63674" lon="6.00116">
        <ele>1244.8</ele>
        <time>2023-05-15T10:43:28Z</time>
      </trkpt>
      <trkpt lat="44.63677" lon="6.0012">
        <ele>1245</ele>
        <time>2023-05-15T10:43:30Z</time>
      </trkpt>
      <trkpt lat="44.63679" lon="6.00123">
        <ele>1245</ele>
        <time>2023-05-15T10:43:31Z</time>
      </trkpt>
      <trkpt lat="44.63681" lon="6.00125">
        <ele>1245</ele>
        <time>2023-05-15T10:43:32Z</time>
      </trkpt>
      <trkpt lat="44.63683" lon="6.00127">
        <ele>1245</ele>
        <time>2023-05-15T10:43:33Z</time>
      </trkpt>
      <trkpt lat="44.63686" lon="6.00129">
        <ele>1245</ele>
        <time>2023-05-15T10:43:34Z</time>
      </trkpt>
      <trkpt lat="44.63688" lon="6.00132">
        <ele>1245.2</ele>
        <time>2023-05-15T10:43:35Z</time>
      </trkpt>
      <trkpt lat="44.63689" lon="6.00134">
        <ele>1245.2</ele>
        <time>2023-05-15T10:43:36Z</time>
      </trkpt>
      <trkpt lat="44.63691" lon="6.00137">
        <ele>1245.2</ele>
        <time>2023-05-15T10:43:37Z</time>
      </trkpt>
      <trkpt lat="44.63698" lon="6.00143">
        <ele>1245.4</ele>
        <time>2023-05-15T10:43:40Z</time>
      </trkpt>
      <trkpt lat="44.637" lon="6.00144">
        <ele>1245.4</ele>
        <time>2023-05-15T10:43:41Z</time>
      </trkpt>
      <trkpt lat="44.63702" lon="6.00145">
        <ele>1245.4</ele>
        <time>2023-05-15T10:43:42Z</time>
      </trkpt>
      <trkpt lat="44.63704" lon="6.00147">
        <ele>1245.4</ele>
        <time>2023-05-15T10:43:43Z</time>
      </trkpt>
      <trkpt lat="44.6371" lon="6.00161">
        <ele>1245.8</ele>
        <time>2023-05-15T10:43:48Z</time>
      </trkpt>
      <trkpt lat="44.63711" lon="6.00162">
        <ele>1246.2</ele>
        <time>2023-05-15T10:43:49Z</time>
      </trkpt>
      <trkpt lat="44.63712" lon="6.00165">
        <ele>1246</ele>
        <time>2023-05-15T10:43:50Z</time>
      </trkpt>
      <trkpt lat="44.63714" lon="6.00167">
        <ele>1246</ele>
        <time>2023-05-15T10:43:51Z</time>
      </trkpt>
      <trkpt lat="44.63715" lon="6.0017">
        <ele>1246</ele>
        <time>2023-05-15T10:43:52Z</time>
      </trkpt>
      <trkpt lat="44.63715" lon="6.00171">
        <ele>1246</ele>
        <time>2023-05-15T10:43:53Z</time>
      </trkpt>
      <trkpt lat="44.63715" lon="6.00171">
        <ele>1246</ele>
        <time>2023-05-15T10:43:54Z</time>
      </trkpt>
      <trkpt lat="44.63715" lon="6.00171">
        <ele>1246</ele>
        <time>2023-05-15T10:43:55Z</time>
      </trkpt>
      <trkpt lat="44.63716" lon="6.00171">
        <ele>1246</ele>
        <time>2023-05-15T10:44:00Z</time>
      </trkpt>
      <trkpt lat="44.63715" lon="6.00172">
        <ele>1246</ele>
        <time>2023-05-15T10:44:05Z</time>
      </trkpt>
      <trkpt lat="44.63715" lon="6.00172">
        <ele>1246</ele>
        <time>2023-05-15T10:44:06Z</time>
      </trkpt>
      <trkpt lat="44.63715" lon="6.00173">
        <ele>1246</ele>
        <time>2023-05-15T10:44:11Z</time>
      </trkpt>
      <trkpt lat="44.63715" lon="6.00173">
        <ele>1246</ele>
        <time>2023-05-15T10:44:12Z</time>
      </trkpt>
      <trkpt lat="44.63715" lon="6.00174">
        <ele>1246.2</ele>
        <time>2023-05-15T10:44:15Z</time>
      </trkpt>
      <trkpt lat="44.63715" lon="6.00174">
        <ele>1246.2</ele>
        <time>2023-05-15T10:44:16Z</time>
      </trkpt>
      <trkpt lat="44.63715" lon="6.00175">
        <ele>1246.2</ele>
        <time>2023-05-15T10:44:18Z</time>
      </trkpt>
      <trkpt lat="44.63716" lon="6.00175">
        <ele>1246.2</ele>
        <time>2023-05-15T10:44:19Z</time>
      </trkpt>
      <trkpt lat="44.63716" lon="6.00175">
        <ele>1245.6</ele>
        <time>2023-05-15T10:44:27Z</time>
      </trkpt>
      <trkpt lat="44.63717" lon="6.00176">
        <ele>1245.6</ele>
        <time>2023-05-15T10:44:31Z</time>
      </trkpt>
      <trkpt lat="44.63717" lon="6.00176">
        <ele>1245.4</ele>
        <time>2023-05-15T10:44:32Z</time>
      </trkpt>
      <trkpt lat="44.63717" lon="6.00176">
        <ele>1245.4</ele>
        <time>2023-05-15T10:44:38Z</time>
      </trkpt>
      <trkpt lat="44.63717" lon="6.00176">
        <ele>1245.4</ele>
        <time>2023-05-15T10:44:51Z</time>
      </trkpt>
      <trkpt lat="44.63717" lon="6.00176">
        <ele>1244.8</ele>
        <time>2023-05-15T10:44:59Z</time>
      </trkpt>
      <trkpt lat="44.63717" lon="6.00176">
        <ele>1244.8</ele>
        <time>2023-05-15T10:45:00Z</time>
      </trkpt>
      <trkpt lat="44.63718" lon="6.00178">
        <ele>1244.8</ele>
        <time>2023-05-15T10:45:09Z</time>
      </trkpt>
      <trkpt lat="44.63718" lon="6.00178">
        <ele>1244.8</ele>
        <time>2023-05-15T10:45:10Z</time>
      </trkpt>
      <trkpt lat="44.63718" lon="6.00179">
        <ele>1245.2</ele>
        <time>2023-05-15T10:45:18Z</time>
      </trkpt>
      <trkpt lat="44.63719" lon="6.00179">
        <ele>1245.4</ele>
        <time>2023-05-15T10:45:19Z</time>
      </trkpt>
      <trkpt lat="44.6372" lon="6.00182">
        <ele>1246</ele>
        <time>2023-05-15T10:45:21Z</time>
      </trkpt>
      <trkpt lat="44.63721" lon="6.00183">
        <ele>1246.2</ele>
        <time>2023-05-15T10:45:22Z</time>
      </trkpt>
      <trkpt lat="44.63722" lon="6.00184">
        <ele>1246.4</ele>
        <time>2023-05-15T10:45:24Z</time>
      </trkpt>
      <trkpt lat="44.63723" lon="6.00187">
        <ele>1247</ele>
        <time>2023-05-15T10:45:28Z</time>
      </trkpt>
      <trkpt lat="44.63724" lon="6.00189">
        <ele>1247</ele>
        <time>2023-05-15T10:45:29Z</time>
      </trkpt>
      <trkpt lat="44.63725" lon="6.00192">
        <ele>1247.2</ele>
        <time>2023-05-15T10:45:30Z</time>
      </trkpt>
      <trkpt lat="44.63725" lon="6.00194">
        <ele>1247.2</ele>
        <time>2023-05-15T10:45:31Z</time>
      </trkpt>
      <trkpt lat="44.63726" lon="6.00197">
        <ele>1247.2</ele>
        <time>2023-05-15T10:45:32Z</time>
      </trkpt>
      <trkpt lat="44.63727" lon="6.00201">
        <ele>1247.4</ele>
        <time>2023-05-15T10:45:33Z</time>
      </trkpt>
      <trkpt lat="44.63727" lon="6.00204">
        <ele>1247.4</ele>
        <time>2023-05-15T10:45:34Z</time>
      </trkpt>
      <trkpt lat="44.63727" lon="6.00207">
        <ele>1247.4</ele>
        <time>2023-05-15T10:45:35Z</time>
      </trkpt>
      <trkpt lat="44.63726" lon="6.00209">
        <ele>1247.6</ele>
        <time>2023-05-15T10:45:36Z</time>
      </trkpt>
      <trkpt lat="44.63726" lon="6.00212">
        <ele>1247.6</ele>
        <time>2023-05-15T10:45:37Z</time>
      </trkpt>
      <trkpt lat="44.63726" lon="6.00214">
        <ele>1247.6</ele>
        <time>2023-05-15T10:45:38Z</time>
      </trkpt>
      <trkpt lat="44.63726" lon="6.00214">
        <ele>1247.8</ele>
        <time>2023-05-15T10:45:39Z</time>
      </trkpt>
      <trkpt lat="44.63726" lon="6.00215">
        <ele>1247.8</ele>
        <time>2023-05-15T10:45:40Z</time>
      </trkpt>
      <trkpt lat="44.63726" lon="6.00217">
        <ele>1247.8</ele>
        <time>2023-05-15T10:45:41Z</time>
      </trkpt>
      <trkpt lat="44.63726" lon="6.0022">
        <ele>1248</ele>
        <time>2023-05-15T10:45:42Z</time>
      </trkpt>
      <trkpt lat="44.63726" lon="6.00222">
        <ele>1248</ele>
        <time>2023-05-15T10:45:43Z</time>
      </trkpt>
      <trkpt lat="44.63727" lon="6.00226">
        <ele>1248.2</ele>
        <time>2023-05-15T10:45:45Z</time>
      </trkpt>
      <trkpt lat="44.63728" lon="6.00226">
        <ele>1248.4</ele>
        <time>2023-05-15T10:45:46Z</time>
      </trkpt>
      <trkpt lat="44.63728" lon="6.00226">
        <ele>1248.4</ele>
        <time>2023-05-15T10:45:47Z</time>
      </trkpt>
      <trkpt lat="44.63728" lon="6.00228">
        <ele>1248.6</ele>
        <time>2023-05-15T10:45:52Z</time>
      </trkpt>
      <trkpt lat="44.63728" lon="6.00228">
        <ele>1248.6</ele>
        <time>2023-05-15T10:45:54Z</time>
      </trkpt>
      <trkpt lat="44.63728" lon="6.00228">
        <ele>1248.2</ele>
        <time>2023-05-15T10:45:59Z</time>
      </trkpt>
      <trkpt lat="44.63727" lon="6.00229">
        <ele>1246.8</ele>
        <time>2023-05-15T10:46:05Z</time>
      </trkpt>
      <trkpt lat="44.63727" lon="6.00229">
        <ele>1246.8</ele>
        <time>2023-05-15T10:46:06Z</time>
      </trkpt>
      <trkpt lat="44.63727" lon="6.00229">
        <ele>1246.8</ele>
        <time>2023-05-15T10:46:07Z</time>
      </trkpt>
      <trkpt lat="44.63727" lon="6.00229">
        <ele>1246.6</ele>
        <time>2023-05-15T10:46:08Z</time>
      </trkpt>
      <trkpt lat="44.63727" lon="6.00229">
        <ele>1246.6</ele>
        <time>2023-05-15T10:46:09Z</time>
      </trkpt>
      <trkpt lat="44.63727" lon="6.00229">
        <ele>1246.4</ele>
        <time>2023-05-15T10:46:13Z</time>
      </trkpt>
      <trkpt lat="44.63727" lon="6.00229">
        <ele>1246.2</ele>
        <time>2023-05-15T10:46:23Z</time>
      </trkpt>
      <trkpt lat="44.63728" lon="6.00231">
        <ele>1246.2</ele>
        <time>2023-05-15T10:46:29Z</time>
      </trkpt>
      <trkpt lat="44.63729" lon="6.0023">
        <ele>1246.4</ele>
        <time>2023-05-15T10:46:30Z</time>
      </trkpt>
      <trkpt lat="44.63729" lon="6.00231">
        <ele>1246.6</ele>
        <time>2023-05-15T10:46:32Z</time>
      </trkpt>
      <trkpt lat="44.63729" lon="6.00231">
        <ele>1246.6</ele>
        <time>2023-05-15T10:46:33Z</time>
      </trkpt>
      <trkpt lat="44.63729" lon="6.00231">
        <ele>1246.8</ele>
        <time>2023-05-15T10:46:34Z</time>
      </trkpt>
      <trkpt lat="44.63729" lon="6.00231">
        <ele>1247</ele>
        <time>2023-05-15T10:46:36Z</time>
      </trkpt>
      <trkpt lat="44.63729" lon="6.00233">
        <ele>1247.4</ele>
        <time>2023-05-15T10:46:39Z</time>
      </trkpt>
      <trkpt lat="44.63729" lon="6.00236">
        <ele>1247.4</ele>
        <time>2023-05-15T10:46:40Z</time>
      </trkpt>
      <trkpt lat="44.63729" lon="6.00236">
        <ele>1247.6</ele>
        <time>2023-05-15T10:46:42Z</time>
      </trkpt>
      <trkpt lat="44.63729" lon="6.00236">
        <ele>1247.8</ele>
        <time>2023-05-15T10:46:43Z</time>
      </trkpt>
      <trkpt lat="44.63729" lon="6.00237">
        <ele>1248</ele>
        <time>2023-05-15T10:46:44Z</time>
      </trkpt>
      <trkpt lat="44.63729" lon="6.00242">
        <ele>1248</ele>
        <time>2023-05-15T10:46:47Z</time>
      </trkpt>
      <trkpt lat="44.63729" lon="6.00243">
        <ele>1248.2</ele>
        <time>2023-05-15T10:46:48Z</time>
      </trkpt>
      <trkpt lat="44.63729" lon="6.00245">
        <ele>1248.2</ele>
        <time>2023-05-15T10:46:49Z</time>
      </trkpt>
      <trkpt lat="44.6373" lon="6.00245">
        <ele>1248.4</ele>
        <time>2023-05-15T10:46:50Z</time>
      </trkpt>
      <trkpt lat="44.6373" lon="6.00245">
        <ele>1248.6</ele>
        <time>2023-05-15T10:46:51Z</time>
      </trkpt>
      <trkpt lat="44.6373" lon="6.00246">
        <ele>1248.8</ele>
        <time>2023-05-15T10:46:52Z</time>
      </trkpt>
      <trkpt lat="44.6373" lon="6.00247">
        <ele>1249</ele>
        <time>2023-05-15T10:46:54Z</time>
      </trkpt>
      <trkpt lat="44.6373" lon="6.00247">
        <ele>1249</ele>
        <time>2023-05-15T10:46:55Z</time>
      </trkpt>
      <trkpt lat="44.6373" lon="6.00247">
        <ele>1249.2</ele>
        <time>2023-05-15T10:46:56Z</time>
      </trkpt>
      <trkpt lat="44.6373" lon="6.00248">
        <ele>1249.2</ele>
        <time>2023-05-15T10:46:57Z</time>
      </trkpt>
      <trkpt lat="44.6373" lon="6.00248">
        <ele>1249.4</ele>
        <time>2023-05-15T10:46:59Z</time>
      </trkpt>
      <trkpt lat="44.63731" lon="6.0025">
        <ele>1249.8</ele>
        <time>2023-05-15T10:47:01Z</time>
      </trkpt>
      <trkpt lat="44.63731" lon="6.0025">
        <ele>1249.8</ele>
        <time>2023-05-15T10:47:02Z</time>
      </trkpt>
      <trkpt lat="44.63733" lon="6.00252">
        <ele>1250.6</ele>
        <time>2023-05-15T10:47:06Z</time>
      </trkpt>
      <trkpt lat="44.63733" lon="6.00252">
        <ele>1250.8</ele>
        <time>2023-05-15T10:47:07Z</time>
      </trkpt>
      <trkpt lat="44.63733" lon="6.00253">
        <ele>1250.8</ele>
        <time>2023-05-15T10:47:08Z</time>
      </trkpt>
      <trkpt lat="44.63734" lon="6.00255">
        <ele>1251</ele>
        <time>2023-05-15T10:47:09Z</time>
      </trkpt>
      <trkpt lat="44.63735" lon="6.00257">
        <ele>1251</ele>
        <time>2023-05-15T10:47:10Z</time>
      </trkpt>
      <trkpt lat="44.63737" lon="6.00259">
        <ele>1251</ele>
        <time>2023-05-15T10:47:11Z</time>
      </trkpt>
      <trkpt lat="44.63738" lon="6.00263">
        <ele>1251.2</ele>
        <time>2023-05-15T10:47:12Z</time>
      </trkpt>
      <trkpt lat="44.63739" lon="6.00263">
        <ele>1251.2</ele>
        <time>2023-05-15T10:47:13Z</time>
      </trkpt>
      <trkpt lat="44.63739" lon="6.00263">
        <ele>1251.2</ele>
        <time>2023-05-15T10:47:14Z</time>
      </trkpt>
      <trkpt lat="44.63739" lon="6.00264">
        <ele>1251.4</ele>
        <time>2023-05-15T10:47:15Z</time>
      </trkpt>
      <trkpt lat="44.6374" lon="6.00266">
        <ele>1251.4</ele>
        <time>2023-05-15T10:47:16Z</time>
      </trkpt>
      <trkpt lat="44.63742" lon="6.00268">
        <ele>1251.4</ele>
        <time>2023-05-15T10:47:17Z</time>
      </trkpt>
      <trkpt lat="44.63743" lon="6.0027">
        <ele>1251.4</ele>
        <time>2023-05-15T10:47:18Z</time>
      </trkpt>
      <trkpt lat="44.63744" lon="6.00273">
        <ele>1251.4</ele>
        <time>2023-05-15T10:47:19Z</time>
      </trkpt>
      <trkpt lat="44.63745" lon="6.00276">
        <ele>1251.6</ele>
        <time>2023-05-15T10:47:20Z</time>
      </trkpt>
      <trkpt lat="44.63748" lon="6.0028">
        <ele>1251.8</ele>
        <time>2023-05-15T10:47:21Z</time>
      </trkpt>
      <trkpt lat="44.63749" lon="6.00282">
        <ele>1251.8</ele>
        <time>2023-05-15T10:47:22Z</time>
      </trkpt>
      <trkpt lat="44.63751" lon="6.00285">
        <ele>1252</ele>
        <time>2023-05-15T10:47:23Z</time>
      </trkpt>
      <trkpt lat="44.63753" lon="6.00287">
        <ele>1252</ele>
        <time>2023-05-15T10:47:24Z</time>
      </trkpt>
      <trkpt lat="44.63754" lon="6.0029">
        <ele>1252.2</ele>
        <time>2023-05-15T10:47:25Z</time>
      </trkpt>
      <trkpt lat="44.63756" lon="6.00291">
        <ele>1252.4</ele>
        <time>2023-05-15T10:47:26Z</time>
      </trkpt>
      <trkpt lat="44.63757" lon="6.00292">
        <ele>1252.6</ele>
        <time>2023-05-15T10:47:27Z</time>
      </trkpt>
      <trkpt lat="44.63759" lon="6.00295">
        <ele>1252.6</ele>
        <time>2023-05-15T10:47:28Z</time>
      </trkpt>
      <trkpt lat="44.6376" lon="6.00298">
        <ele>1252.8</ele>
        <time>2023-05-15T10:47:29Z</time>
      </trkpt>
      <trkpt lat="44.6376" lon="6.00299">
        <ele>1252.8</ele>
        <time>2023-05-15T10:47:30Z</time>
      </trkpt>
      <trkpt lat="44.63761" lon="6.00299">
        <ele>1253</ele>
        <time>2023-05-15T10:47:31Z</time>
      </trkpt>
      <trkpt lat="44.63761" lon="6.003">
        <ele>1253.2</ele>
        <time>2023-05-15T10:47:32Z</time>
      </trkpt>
      <trkpt lat="44.63761" lon="6.00302">
        <ele>1253.4</ele>
        <time>2023-05-15T10:47:33Z</time>
      </trkpt>
      <trkpt lat="44.63763" lon="6.00304">
        <ele>1253.4</ele>
        <time>2023-05-15T10:47:34Z</time>
      </trkpt>
      <trkpt lat="44.63764" lon="6.00306">
        <ele>1253.6</ele>
        <time>2023-05-15T10:47:35Z</time>
      </trkpt>
      <trkpt lat="44.63765" lon="6.00308">
        <ele>1253.8</ele>
        <time>2023-05-15T10:47:36Z</time>
      </trkpt>
      <trkpt lat="44.63766" lon="6.00309">
        <ele>1254.2</ele>
        <time>2023-05-15T10:47:37Z</time>
      </trkpt>
      <trkpt lat="44.63769" lon="6.0031">
        <ele>1254.2</ele>
        <time>2023-05-15T10:47:38Z</time>
      </trkpt>
      <trkpt lat="44.63769" lon="6.00311">
        <ele>1254.4</ele>
        <time>2023-05-15T10:47:39Z</time>
      </trkpt>
      <trkpt lat="44.63769" lon="6.00311">
        <ele>1254.6</ele>
        <time>2023-05-15T10:47:40Z</time>
      </trkpt>
      <trkpt lat="44.63769" lon="6.00311">
        <ele>1254.6</ele>
        <time>2023-05-15T10:47:41Z</time>
      </trkpt>
      <trkpt lat="44.63769" lon="6.00311">
        <ele>1254.8</ele>
        <time>2023-05-15T10:47:42Z</time>
      </trkpt>
      <trkpt lat="44.63769" lon="6.00311">
        <ele>1254.8</ele>
        <time>2023-05-15T10:47:43Z</time>
      </trkpt>
      <trkpt lat="44.63769" lon="6.00311">
        <ele>1255</ele>
        <time>2023-05-15T10:47:44Z</time>
      </trkpt>
      <trkpt lat="44.63769" lon="6.00311">
        <ele>1255</ele>
        <time>2023-05-15T10:47:45Z</time>
      </trkpt>
      <trkpt lat="44.63769" lon="6.00311">
        <ele>1254.8</ele>
        <time>2023-05-15T10:47:46Z</time>
      </trkpt>
      <trkpt lat="44.63769" lon="6.00311">
        <ele>1255</ele>
        <time>2023-05-15T10:47:47Z</time>
      </trkpt>
      <trkpt lat="44.63769" lon="6.00311">
        <ele>1255</ele>
        <time>2023-05-15T10:47:48Z</time>
      </trkpt>
      <trkpt lat="44.6377" lon="6.00311">
        <ele>1255.2</ele>
        <time>2023-05-15T10:47:50Z</time>
      </trkpt>
      <trkpt lat="44.6377" lon="6.00311">
        <ele>1255.2</ele>
        <time>2023-05-15T10:47:51Z</time>
      </trkpt>
      <trkpt lat="44.63771" lon="6.00312">
        <ele>1255.2</ele>
        <time>2023-05-15T10:47:52Z</time>
      </trkpt>
      <trkpt lat="44.63772" lon="6.00314">
        <ele>1255.4</ele>
        <time>2023-05-15T10:47:53Z</time>
      </trkpt>
      <trkpt lat="44.63773" lon="6.00315">
        <ele>1255.4</ele>
        <time>2023-05-15T10:47:54Z</time>
      </trkpt>
      <trkpt lat="44.63775" lon="6.00317">
        <ele>1255.4</ele>
        <time>2023-05-15T10:47:55Z</time>
      </trkpt>
      <trkpt lat="44.63777" lon="6.0032">
        <ele>1255.4</ele>
        <time>2023-05-15T10:47:56Z</time>
      </trkpt>
      <trkpt lat="44.63778" lon="6.00323">
        <ele>1255.6</ele>
        <time>2023-05-15T10:47:57Z</time>
      </trkpt>
      <trkpt lat="44.6378" lon="6.00324">
        <ele>1255.6</ele>
        <time>2023-05-15T10:47:58Z</time>
      </trkpt>
      <trkpt lat="44.6378" lon="6.00325">
        <ele>1255.6</ele>
        <time>2023-05-15T10:47:59Z</time>
      </trkpt>
      <trkpt lat="44.63781" lon="6.00327">
        <ele>1255.6</ele>
        <time>2023-05-15T10:48:00Z</time>
      </trkpt>
      <trkpt lat="44.63781" lon="6.00329">
        <ele>1255.6</ele>
        <time>2023-05-15T10:48:01Z</time>
      </trkpt>
      <trkpt lat="44.63781" lon="6.0033">
        <ele>1255.8</ele>
        <time>2023-05-15T10:48:03Z</time>
      </trkpt>
      <trkpt lat="44.63781" lon="6.00332">
        <ele>1255.8</ele>
        <time>2023-05-15T10:48:04Z</time>
      </trkpt>
      <trkpt lat="44.63781" lon="6.00333">
        <ele>1255.8</ele>
        <time>2023-05-15T10:48:05Z</time>
      </trkpt>
      <trkpt lat="44.63782" lon="6.00336">
        <ele>1255.8</ele>
        <time>2023-05-15T10:48:06Z</time>
      </trkpt>
      <trkpt lat="44.63782" lon="6.00336">
        <ele>1256</ele>
        <time>2023-05-15T10:48:07Z</time>
      </trkpt>
      <trkpt lat="44.63782" lon="6.00336">
        <ele>1256</ele>
        <time>2023-05-15T10:48:08Z</time>
      </trkpt>
      <trkpt lat="44.63782" lon="6.00336">
        <ele>1256</ele>
        <time>2023-05-15T10:48:09Z</time>
      </trkpt>
      <trkpt lat="44.63783" lon="6.00337">
        <ele>1256</ele>
        <time>2023-05-15T10:48:10Z</time>
      </trkpt>
      <trkpt lat="44.63784" lon="6.00339">
        <ele>1256</ele>
        <time>2023-05-15T10:48:11Z</time>
      </trkpt>
      <trkpt lat="44.63784" lon="6.00341">
        <ele>1256.2</ele>
        <time>2023-05-15T10:48:12Z</time>
      </trkpt>
      <trkpt lat="44.63784" lon="6.00343">
        <ele>1256.2</ele>
        <time>2023-05-15T10:48:13Z</time>
      </trkpt>
      <trkpt lat="44.63784" lon="6.00346">
        <ele>1256.2</ele>
        <time>2023-05-15T10:48:14Z</time>
      </trkpt>
      <trkpt lat="44.63785" lon="6.00348">
        <ele>1256.2</ele>
        <time>2023-05-15T10:48:15Z</time>
      </trkpt>
      <trkpt lat="44.63785" lon="6.00351">
        <ele>1256.2</ele>
        <time>2023-05-15T10:48:16Z</time>
      </trkpt>
      <trkpt lat="44.63786" lon="6.00355">
        <ele>1256.2</ele>
        <time>2023-05-15T10:48:17Z</time>
      </trkpt>
      <trkpt lat="44.63787" lon="6.00356">
        <ele>1256.2</ele>
        <time>2023-05-15T10:48:18Z</time>
      </trkpt>
      <trkpt lat="44.63787" lon="6.00357">
        <ele>1256.4</ele>
        <time>2023-05-15T10:48:19Z</time>
      </trkpt>
      <trkpt lat="44.63788" lon="6.00358">
        <ele>1256.4</ele>
        <time>2023-05-15T10:48:20Z</time>
      </trkpt>
      <trkpt lat="44.6379" lon="6.00361">
        <ele>1256.6</ele>
        <time>2023-05-15T10:48:21Z</time>
      </trkpt>
      <trkpt lat="44.63791" lon="6.00364">
        <ele>1256.6</ele>
        <time>2023-05-15T10:48:22Z</time>
      </trkpt>
      <trkpt lat="44.63793" lon="6.00368">
        <ele>1256.6</ele>
        <time>2023-05-15T10:48:23Z</time>
      </trkpt>
      <trkpt lat="44.63795" lon="6.00373">
        <ele>1256.6</ele>
        <time>2023-05-15T10:48:24Z</time>
      </trkpt>
      <trkpt lat="44.63796" lon="6.00377">
        <ele>1256.6</ele>
        <time>2023-05-15T10:48:25Z</time>
      </trkpt>
      <trkpt lat="44.63799" lon="6.00383">
        <ele>1256.4</ele>
        <time>2023-05-15T10:48:27Z</time>
      </trkpt>
      <trkpt lat="44.63803" lon="6.004">
        <ele>1256.4</ele>
        <time>2023-05-15T10:48:33Z</time>
      </trkpt>
      <trkpt lat="44.63803" lon="6.00401">
        <ele>1256.4</ele>
        <time>2023-05-15T10:48:34Z</time>
      </trkpt>
      <trkpt lat="44.63803" lon="6.00402">
        <ele>1256.4</ele>
        <time>2023-05-15T10:48:35Z</time>
      </trkpt>
      <trkpt lat="44.63804" lon="6.00406">
        <ele>1256.4</ele>
        <time>2023-05-15T10:48:36Z</time>
      </trkpt>
      <trkpt lat="44.63806" lon="6.0041">
        <ele>1256.4</ele>
        <time>2023-05-15T10:48:37Z</time>
      </trkpt>
      <trkpt lat="44.63808" lon="6.00414">
        <ele>1256.6</ele>
        <time>2023-05-15T10:48:38Z</time>
      </trkpt>
      <trkpt lat="44.6381" lon="6.00418">
        <ele>1256.6</ele>
        <time>2023-05-15T10:48:39Z</time>
      </trkpt>
      <trkpt lat="44.63814" lon="6.00424">
        <ele>1256.6</ele>
        <time>2023-05-15T10:48:40Z</time>
      </trkpt>
      <trkpt lat="44.63817" lon="6.00433">
        <ele>1256.6</ele>
        <time>2023-05-15T10:48:42Z</time>
      </trkpt>
      <trkpt lat="44.63817" lon="6.00435">
        <ele>1256.8</ele>
        <time>2023-05-15T10:48:43Z</time>
      </trkpt>
      <trkpt lat="44.63818" lon="6.00441">
        <ele>1257</ele>
        <time>2023-05-15T10:48:46Z</time>
      </trkpt>
      <trkpt lat="44.63818" lon="6.00445">
        <ele>1257.2</ele>
        <time>2023-05-15T10:48:47Z</time>
      </trkpt>
      <trkpt lat="44.63818" lon="6.00446">
        <ele>1257.2</ele>
        <time>2023-05-15T10:48:48Z</time>
      </trkpt>
      <trkpt lat="44.63818" lon="6.00446">
        <ele>1257.4</ele>
        <time>2023-05-15T10:48:49Z</time>
      </trkpt>
      <trkpt lat="44.63818" lon="6.00446">
        <ele>1257.4</ele>
        <time>2023-05-15T10:48:50Z</time>
      </trkpt>
      <trkpt lat="44.63818" lon="6.00446">
        <ele>1257.6</ele>
        <time>2023-05-15T10:48:53Z</time>
      </trkpt>
      <trkpt lat="44.63818" lon="6.00446">
        <ele>1257.8</ele>
        <time>2023-05-15T10:48:56Z</time>
      </trkpt>
      <trkpt lat="44.63818" lon="6.0045">
        <ele>1258</ele>
        <time>2023-05-15T10:48:58Z</time>
      </trkpt>
      <trkpt lat="44.63818" lon="6.00451">
        <ele>1258.4</ele>
        <time>2023-05-15T10:49:01Z</time>
      </trkpt>
      <trkpt lat="44.63818" lon="6.00451">
        <ele>1258.4</ele>
        <time>2023-05-15T10:49:02Z</time>
      </trkpt>
      <trkpt lat="44.63818" lon="6.00452">
        <ele>1258.6</ele>
        <time>2023-05-15T10:49:03Z</time>
      </trkpt>
      <trkpt lat="44.63818" lon="6.00452">
        <ele>1258.6</ele>
        <time>2023-05-15T10:49:04Z</time>
      </trkpt>
      <trkpt lat="44.63818" lon="6.00452">
        <ele>1258.6</ele>
        <time>2023-05-15T10:49:05Z</time>
      </trkpt>
      <trkpt lat="44.63818" lon="6.00452">
        <ele>1258.8</ele>
        <time>2023-05-15T10:49:07Z</time>
      </trkpt>
      <trkpt lat="44.63818" lon="6.00453">
        <ele>1259</ele>
        <time>2023-05-15T10:49:10Z</time>
      </trkpt>
      <trkpt lat="44.63818" lon="6.00453">
        <ele>1259</ele>
        <time>2023-05-15T10:49:12Z</time>
      </trkpt>
      <trkpt lat="44.63818" lon="6.00455">
        <ele>1259.2</ele>
        <time>2023-05-15T10:49:13Z</time>
      </trkpt>
      <trkpt lat="44.63818" lon="6.00455">
        <ele>1259.2</ele>
        <time>2023-05-15T10:49:15Z</time>
      </trkpt>
      <trkpt lat="44.63818" lon="6.00456">
        <ele>1259.2</ele>
        <time>2023-05-15T10:49:16Z</time>
      </trkpt>
      <trkpt lat="44.63818" lon="6.00456">
        <ele>1259.4</ele>
        <time>2023-05-15T10:49:17Z</time>
      </trkpt>
      <trkpt lat="44.63818" lon="6.00456">
        <ele>1259.4</ele>
        <time>2023-05-15T10:49:18Z</time>
      </trkpt>
      <trkpt lat="44.63818" lon="6.00456">
        <ele>1259.8</ele>
        <time>2023-05-15T10:49:21Z</time>
      </trkpt>
      <trkpt lat="44.63817" lon="6.0046">
        <ele>1260.2</ele>
        <time>2023-05-15T10:49:25Z</time>
      </trkpt>
      <trkpt lat="44.63817" lon="6.00462">
        <ele>1260.4</ele>
        <time>2023-05-15T10:49:26Z</time>
      </trkpt>
      <trkpt lat="44.63817" lon="6.00462">
        <ele>1260.4</ele>
        <time>2023-05-15T10:49:27Z</time>
      </trkpt>
      <trkpt lat="44.63817" lon="6.00462">
        <ele>1260.6</ele>
        <time>2023-05-15T10:49:28Z</time>
      </trkpt>
      <trkpt lat="44.63817" lon="6.00462">
        <ele>1260.8</ele>
        <time>2023-05-15T10:49:30Z</time>
      </trkpt>
      <trkpt lat="44.63817" lon="6.00462">
        <ele>1261</ele>
        <time>2023-05-15T10:49:31Z</time>
      </trkpt>
      <trkpt lat="44.63818" lon="6.00467">
        <ele>1261</ele>
        <time>2023-05-15T10:49:37Z</time>
      </trkpt>
      <trkpt lat="44.63819" lon="6.0047">
        <ele>1261</ele>
        <time>2023-05-15T10:49:38Z</time>
      </trkpt>
      <trkpt lat="44.63819" lon="6.00474">
        <ele>1261</ele>
        <time>2023-05-15T10:49:39Z</time>
      </trkpt>
      <trkpt lat="44.6382" lon="6.00483">
        <ele>1261</ele>
        <time>2023-05-15T10:49:42Z</time>
      </trkpt>
      <trkpt lat="44.63821" lon="6.0049">
        <ele>1261.2</ele>
        <time>2023-05-15T10:49:44Z</time>
      </trkpt>
      <trkpt lat="44.63823" lon="6.00503">
        <ele>1261.2</ele>
        <time>2023-05-15T10:49:48Z</time>
      </trkpt>
      <trkpt lat="44.63824" lon="6.00507">
        <ele>1261.2</ele>
        <time>2023-05-15T10:49:49Z</time>
      </trkpt>
      <trkpt lat="44.63825" lon="6.00508">
        <ele>1261.2</ele>
        <time>2023-05-15T10:49:50Z</time>
      </trkpt>
      <trkpt lat="44.63825" lon="6.00509">
        <ele>1261.2</ele>
        <time>2023-05-15T10:49:51Z</time>
      </trkpt>
      <trkpt lat="44.63824" lon="6.0051">
        <ele>1261.4</ele>
        <time>2023-05-15T10:49:52Z</time>
      </trkpt>
      <trkpt lat="44.63824" lon="6.0051">
        <ele>1261.4</ele>
        <time>2023-05-15T10:49:53Z</time>
      </trkpt>
      <trkpt lat="44.63824" lon="6.00512">
        <ele>1261.8</ele>
        <time>2023-05-15T10:49:54Z</time>
      </trkpt>
      <trkpt lat="44.63825" lon="6.00517">
        <ele>1262</ele>
        <time>2023-05-15T10:49:55Z</time>
      </trkpt>
      <trkpt lat="44.63825" lon="6.00525">
        <ele>1262</ele>
        <time>2023-05-15T10:49:57Z</time>
      </trkpt>
      <trkpt lat="44.63825" lon="6.00529">
        <ele>1262.2</ele>
        <time>2023-05-15T10:49:58Z</time>
      </trkpt>
      <trkpt lat="44.63826" lon="6.00532">
        <ele>1262.2</ele>
        <time>2023-05-15T10:49:59Z</time>
      </trkpt>
      <trkpt lat="44.63828" lon="6.0054">
        <ele>1262.2</ele>
        <time>2023-05-15T10:50:01Z</time>
      </trkpt>
      <trkpt lat="44.63828" lon="6.00544">
        <ele>1262</ele>
        <time>2023-05-15T10:50:02Z</time>
      </trkpt>
      <trkpt lat="44.63829" lon="6.00546">
        <ele>1262</ele>
        <time>2023-05-15T10:50:03Z</time>
      </trkpt>
      <trkpt lat="44.6383" lon="6.00548">
        <ele>1262</ele>
        <time>2023-05-15T10:50:04Z</time>
      </trkpt>
      <trkpt lat="44.6383" lon="6.00552">
        <ele>1262</ele>
        <time>2023-05-15T10:50:05Z</time>
      </trkpt>
      <trkpt lat="44.63831" lon="6.00554">
        <ele>1261.8</ele>
        <time>2023-05-15T10:50:06Z</time>
      </trkpt>
      <trkpt lat="44.63832" lon="6.00556">
        <ele>1261.8</ele>
        <time>2023-05-15T10:50:07Z</time>
      </trkpt>
      <trkpt lat="44.63832" lon="6.00557">
        <ele>1261.6</ele>
        <time>2023-05-15T10:50:08Z</time>
      </trkpt>
      <trkpt lat="44.63833" lon="6.00558">
        <ele>1261.6</ele>
        <time>2023-05-15T10:50:09Z</time>
      </trkpt>
      <trkpt lat="44.63834" lon="6.00562">
        <ele>1261.6</ele>
        <time>2023-05-15T10:50:10Z</time>
      </trkpt>
      <trkpt lat="44.63835" lon="6.00567">
        <ele>1261.4</ele>
        <time>2023-05-15T10:50:11Z</time>
      </trkpt>
      <trkpt lat="44.63837" lon="6.00571">
        <ele>1261.4</ele>
        <time>2023-05-15T10:50:12Z</time>
      </trkpt>
      <trkpt lat="44.63836" lon="6.00581">
        <ele>1261.4</ele>
        <time>2023-05-15T10:50:15Z</time>
      </trkpt>
      <trkpt lat="44.63837" lon="6.00583">
        <ele>1261.4</ele>
        <time>2023-05-15T10:50:16Z</time>
      </trkpt>
      <trkpt lat="44.63837" lon="6.00585">
        <ele>1261.4</ele>
        <time>2023-05-15T10:50:17Z</time>
      </trkpt>
      <trkpt lat="44.63837" lon="6.0059">
        <ele>1261.4</ele>
        <time>2023-05-15T10:50:18Z</time>
      </trkpt>
      <trkpt lat="44.63837" lon="6.00594">
        <ele>1261.6</ele>
        <time>2023-05-15T10:50:19Z</time>
      </trkpt>
      <trkpt lat="44.63839" lon="6.00604">
        <ele>1261.8</ele>
        <time>2023-05-15T10:50:21Z</time>
      </trkpt>
      <trkpt lat="44.6384" lon="6.0061">
        <ele>1262</ele>
        <time>2023-05-15T10:50:23Z</time>
      </trkpt>
      <trkpt lat="44.63841" lon="6.00611">
        <ele>1262.2</ele>
        <time>2023-05-15T10:50:24Z</time>
      </trkpt>
      <trkpt lat="44.63842" lon="6.00612">
        <ele>1262.4</ele>
        <time>2023-05-15T10:50:25Z</time>
      </trkpt>
      <trkpt lat="44.63843" lon="6.00612">
        <ele>1262.6</ele>
        <time>2023-05-15T10:50:26Z</time>
      </trkpt>
      <trkpt lat="44.63843" lon="6.00612">
        <ele>1262.6</ele>
        <time>2023-05-15T10:50:27Z</time>
      </trkpt>
      <trkpt lat="44.63843" lon="6.00611">
        <ele>1263</ele>
        <time>2023-05-15T10:50:28Z</time>
      </trkpt>
      <trkpt lat="44.63843" lon="6.00611">
        <ele>1263.2</ele>
        <time>2023-05-15T10:50:29Z</time>
      </trkpt>
      <trkpt lat="44.63844" lon="6.00611">
        <ele>1263.2</ele>
        <time>2023-05-15T10:50:30Z</time>
      </trkpt>
      <trkpt lat="44.63845" lon="6.00613">
        <ele>1263.2</ele>
        <time>2023-05-15T10:50:31Z</time>
      </trkpt>
      <trkpt lat="44.63846" lon="6.00616">
        <ele>1263.4</ele>
        <time>2023-05-15T10:50:32Z</time>
      </trkpt>
      <trkpt lat="44.63847" lon="6.00617">
        <ele>1263.2</ele>
        <time>2023-05-15T10:50:33Z</time>
      </trkpt>
      <trkpt lat="44.63847" lon="6.00618">
        <ele>1263.2</ele>
        <time>2023-05-15T10:50:34Z</time>
      </trkpt>
      <trkpt lat="44.63848" lon="6.00621">
        <ele>1263.2</ele>
        <time>2023-05-15T10:50:35Z</time>
      </trkpt>
      <trkpt lat="44.63849" lon="6.00624">
        <ele>1263.2</ele>
        <time>2023-05-15T10:50:36Z</time>
      </trkpt>
      <trkpt lat="44.63849" lon="6.00624">
        <ele>1263.4</ele>
        <time>2023-05-15T10:50:38Z</time>
      </trkpt>
      <trkpt lat="44.6385" lon="6.00624">
        <ele>1263.4</ele>
        <time>2023-05-15T10:50:39Z</time>
      </trkpt>
      <trkpt lat="44.6385" lon="6.00625">
        <ele>1263.6</ele>
        <time>2023-05-15T10:50:41Z</time>
      </trkpt>
      <trkpt lat="44.6385" lon="6.00625">
        <ele>1263.8</ele>
        <time>2023-05-15T10:50:42Z</time>
      </trkpt>
      <trkpt lat="44.6385" lon="6.00625">
        <ele>1263.8</ele>
        <time>2023-05-15T10:50:43Z</time>
      </trkpt>
      <trkpt lat="44.63851" lon="6.00625">
        <ele>1264.6</ele>
        <time>2023-05-15T10:50:51Z</time>
      </trkpt>
      <trkpt lat="44.63851" lon="6.00625">
        <ele>1264.6</ele>
        <time>2023-05-15T10:50:52Z</time>
      </trkpt>
      <trkpt lat="44.63852" lon="6.00626">
        <ele>1264.6</ele>
        <time>2023-05-15T10:50:53Z</time>
      </trkpt>
      <trkpt lat="44.63852" lon="6.00628">
        <ele>1264.8</ele>
        <time>2023-05-15T10:50:57Z</time>
      </trkpt>
      <trkpt lat="44.63852" lon="6.00628">
        <ele>1264.8</ele>
        <time>2023-05-15T10:50:58Z</time>
      </trkpt>
      <trkpt lat="44.63852" lon="6.00628">
        <ele>1265</ele>
        <time>2023-05-15T10:50:59Z</time>
      </trkpt>
      <trkpt lat="44.63852" lon="6.00628">
        <ele>1265.2</ele>
        <time>2023-05-15T10:51:00Z</time>
      </trkpt>
      <trkpt lat="44.63853" lon="6.00628">
        <ele>1265.2</ele>
        <time>2023-05-15T10:51:01Z</time>
      </trkpt>
      <trkpt lat="44.63853" lon="6.00629">
        <ele>1265.4</ele>
        <time>2023-05-15T10:51:02Z</time>
      </trkpt>
      <trkpt lat="44.63854" lon="6.0063">
        <ele>1265.6</ele>
        <time>2023-05-15T10:51:06Z</time>
      </trkpt>
      <trkpt lat="44.63854" lon="6.0063">
        <ele>1265.6</ele>
        <time>2023-05-15T10:51:07Z</time>
      </trkpt>
      <trkpt lat="44.63855" lon="6.0063">
        <ele>1265.6</ele>
        <time>2023-05-15T10:51:08Z</time>
      </trkpt>
      <trkpt lat="44.63856" lon="6.0063">
        <ele>1265.8</ele>
        <time>2023-05-15T10:51:09Z</time>
      </trkpt>
      <trkpt lat="44.63858" lon="6.00632">
        <ele>1265.8</ele>
        <time>2023-05-15T10:51:11Z</time>
      </trkpt>
      <trkpt lat="44.63859" lon="6.00634">
        <ele>1265.6</ele>
        <time>2023-05-15T10:51:13Z</time>
      </trkpt>
      <trkpt lat="44.6386" lon="6.00635">
        <ele>1265.6</ele>
        <time>2023-05-15T10:51:14Z</time>
      </trkpt>
      <trkpt lat="44.6386" lon="6.00635">
        <ele>1265.6</ele>
        <time>2023-05-15T10:51:15Z</time>
      </trkpt>
      <trkpt lat="44.6386" lon="6.00634">
        <ele>1265.6</ele>
        <time>2023-05-15T10:51:18Z</time>
      </trkpt>
      <trkpt lat="44.63862" lon="6.00636">
        <ele>1265.6</ele>
        <time>2023-05-15T10:51:22Z</time>
      </trkpt>
      <trkpt lat="44.63865" lon="6.0064">
        <ele>1265.8</ele>
        <time>2023-05-15T10:51:26Z</time>
      </trkpt>
      <trkpt lat="44.63865" lon="6.00641">
        <ele>1265.8</ele>
        <time>2023-05-15T10:51:27Z</time>
      </trkpt>
      <trkpt lat="44.63865" lon="6.00641">
        <ele>1265.8</ele>
        <time>2023-05-15T10:51:28Z</time>
      </trkpt>
      <trkpt lat="44.63866" lon="6.00641">
        <ele>1266</ele>
        <time>2023-05-15T10:51:34Z</time>
      </trkpt>
      <trkpt lat="44.63869" lon="6.00642">
        <ele>1266.2</ele>
        <time>2023-05-15T10:51:36Z</time>
      </trkpt>
      <trkpt lat="44.63876" lon="6.00642">
        <ele>1266.2</ele>
        <time>2023-05-15T10:51:39Z</time>
      </trkpt>
      <trkpt lat="44.63878" lon="6.00642">
        <ele>1266.2</ele>
        <time>2023-05-15T10:51:40Z</time>
      </trkpt>
      <trkpt lat="44.6388" lon="6.00641">
        <ele>1266.2</ele>
        <time>2023-05-15T10:51:41Z</time>
      </trkpt>
      <trkpt lat="44.63882" lon="6.0064">
        <ele>1266.2</ele>
        <time>2023-05-15T10:51:42Z</time>
      </trkpt>
      <trkpt lat="44.63884" lon="6.0064">
        <ele>1266.2</ele>
        <time>2023-05-15T10:51:43Z</time>
      </trkpt>
      <trkpt lat="44.63889" lon="6.00643">
        <ele>1266</ele>
        <time>2023-05-15T10:51:46Z</time>
      </trkpt>
      <trkpt lat="44.63891" lon="6.00643">
        <ele>1265.8</ele>
        <time>2023-05-15T10:51:47Z</time>
      </trkpt>
      <trkpt lat="44.63893" lon="6.00643">
        <ele>1265.8</ele>
        <time>2023-05-15T10:51:48Z</time>
      </trkpt>
      <trkpt lat="44.63895" lon="6.00644">
        <ele>1265.6</ele>
        <time>2023-05-15T10:51:49Z</time>
      </trkpt>
      <trkpt lat="44.63897" lon="6.00644">
        <ele>1265.6</ele>
        <time>2023-05-15T10:51:50Z</time>
      </trkpt>
      <trkpt lat="44.63898" lon="6.00644">
        <ele>1265.4</ele>
        <time>2023-05-15T10:51:52Z</time>
      </trkpt>
      <trkpt lat="44.63899" lon="6.00644">
        <ele>1265.4</ele>
        <time>2023-05-15T10:51:53Z</time>
      </trkpt>
      <trkpt lat="44.63901" lon="6.00642">
        <ele>1265.4</ele>
        <time>2023-05-15T10:51:54Z</time>
      </trkpt>
      <trkpt lat="44.63906" lon="6.0064">
        <ele>1265.4</ele>
        <time>2023-05-15T10:51:56Z</time>
      </trkpt>
      <trkpt lat="44.63911" lon="6.00643">
        <ele>1265.6</ele>
        <time>2023-05-15T10:51:58Z</time>
      </trkpt>
      <trkpt lat="44.63917" lon="6.00645">
        <ele>1265.6</ele>
        <time>2023-05-15T10:52:00Z</time>
      </trkpt>
      <trkpt lat="44.63919" lon="6.00647">
        <ele>1265.6</ele>
        <time>2023-05-15T10:52:01Z</time>
      </trkpt>
      <trkpt lat="44.63924" lon="6.00648">
        <ele>1265.6</ele>
        <time>2023-05-15T10:52:04Z</time>
      </trkpt>
      <trkpt lat="44.63926" lon="6.0065">
        <ele>1265.6</ele>
        <time>2023-05-15T10:52:05Z</time>
      </trkpt>
      <trkpt lat="44.63928" lon="6.0065">
        <ele>1265.6</ele>
        <time>2023-05-15T10:52:06Z</time>
      </trkpt>
      <trkpt lat="44.63931" lon="6.00651">
        <ele>1265.6</ele>
        <time>2023-05-15T10:52:08Z</time>
      </trkpt>
      <trkpt lat="44.63932" lon="6.00654">
        <ele>1265.6</ele>
        <time>2023-05-15T10:52:09Z</time>
      </trkpt>
      <trkpt lat="44.63933" lon="6.00655">
        <ele>1265.8</ele>
        <time>2023-05-15T10:52:10Z</time>
      </trkpt>
      <trkpt lat="44.63934" lon="6.00657">
        <ele>1265.8</ele>
        <time>2023-05-15T10:52:11Z</time>
      </trkpt>
      <trkpt lat="44.63935" lon="6.0066">
        <ele>1265.8</ele>
        <time>2023-05-15T10:52:12Z</time>
      </trkpt>
      <trkpt lat="44.63937" lon="6.00664">
        <ele>1265.8</ele>
        <time>2023-05-15T10:52:13Z</time>
      </trkpt>
      <trkpt lat="44.63939" lon="6.00665">
        <ele>1266</ele>
        <time>2023-05-15T10:52:14Z</time>
      </trkpt>
      <trkpt lat="44.6394" lon="6.00665">
        <ele>1266</ele>
        <time>2023-05-15T10:52:15Z</time>
      </trkpt>
      <trkpt lat="44.63942" lon="6.00666">
        <ele>1266</ele>
        <time>2023-05-15T10:52:16Z</time>
      </trkpt>
      <trkpt lat="44.63944" lon="6.00669">
        <ele>1266.2</ele>
        <time>2023-05-15T10:52:17Z</time>
      </trkpt>
      <trkpt lat="44.63944" lon="6.00669">
        <ele>1266.2</ele>
        <time>2023-05-15T10:52:18Z</time>
      </trkpt>
      <trkpt lat="44.63945" lon="6.0067">
        <ele>1266.4</ele>
        <time>2023-05-15T10:52:19Z</time>
      </trkpt>
      <trkpt lat="44.63946" lon="6.0067">
        <ele>1266.4</ele>
        <time>2023-05-15T10:52:20Z</time>
      </trkpt>
      <trkpt lat="44.63949" lon="6.00672">
        <ele>1266.4</ele>
        <time>2023-05-15T10:52:21Z</time>
      </trkpt>
      <trkpt lat="44.63951" lon="6.00674">
        <ele>1266.4</ele>
        <time>2023-05-15T10:52:22Z</time>
      </trkpt>
      <trkpt lat="44.63953" lon="6.00677">
        <ele>1266.4</ele>
        <time>2023-05-15T10:52:23Z</time>
      </trkpt>
      <trkpt lat="44.63955" lon="6.00679">
        <ele>1266.6</ele>
        <time>2023-05-15T10:52:24Z</time>
      </trkpt>
      <trkpt lat="44.63958" lon="6.00681">
        <ele>1266.6</ele>
        <time>2023-05-15T10:52:25Z</time>
      </trkpt>
      <trkpt lat="44.63959" lon="6.00685">
        <ele>1266.6</ele>
        <time>2023-05-15T10:52:26Z</time>
      </trkpt>
      <trkpt lat="44.63959" lon="6.00688">
        <ele>1266.6</ele>
        <time>2023-05-15T10:52:27Z</time>
      </trkpt>
      <trkpt lat="44.6396" lon="6.0069">
        <ele>1266.6</ele>
        <time>2023-05-15T10:52:28Z</time>
      </trkpt>
      <trkpt lat="44.63969" lon="6.007">
        <ele>1266.6</ele>
        <time>2023-05-15T10:52:32Z</time>
      </trkpt>
      <trkpt lat="44.6397" lon="6.00701">
        <ele>1266.6</ele>
        <time>2023-05-15T10:52:33Z</time>
      </trkpt>
      <trkpt lat="44.63972" lon="6.00702">
        <ele>1266.6</ele>
        <time>2023-05-15T10:52:34Z</time>
      </trkpt>
      <trkpt lat="44.63973" lon="6.00704">
        <ele>1266.6</ele>
        <time>2023-05-15T10:52:35Z</time>
      </trkpt>
      <trkpt lat="44.63975" lon="6.00704">
        <ele>1266.6</ele>
        <time>2023-05-15T10:52:36Z</time>
      </trkpt>
      <trkpt lat="44.63977" lon="6.00706">
        <ele>1266.6</ele>
        <time>2023-05-15T10:52:37Z</time>
      </trkpt>
      <trkpt lat="44.63978" lon="6.00707">
        <ele>1266.6</ele>
        <time>2023-05-15T10:52:38Z</time>
      </trkpt>
      <trkpt lat="44.63978" lon="6.00708">
        <ele>1266.6</ele>
        <time>2023-05-15T10:52:39Z</time>
      </trkpt>
      <trkpt lat="44.63979" lon="6.0071">
        <ele>1266.6</ele>
        <time>2023-05-15T10:52:40Z</time>
      </trkpt>
      <trkpt lat="44.63981" lon="6.00712">
        <ele>1266.6</ele>
        <time>2023-05-15T10:52:41Z</time>
      </trkpt>
      <trkpt lat="44.63982" lon="6.00715">
        <ele>1266.6</ele>
        <time>2023-05-15T10:52:42Z</time>
      </trkpt>
      <trkpt lat="44.63984" lon="6.00717">
        <ele>1266.6</ele>
        <time>2023-05-15T10:52:43Z</time>
      </trkpt>
      <trkpt lat="44.63994" lon="6.00736">
        <ele>1267</ele>
        <time>2023-05-15T10:52:50Z</time>
      </trkpt>
      <trkpt lat="44.63996" lon="6.00738">
        <ele>1267.2</ele>
        <time>2023-05-15T10:52:51Z</time>
      </trkpt>
      <trkpt lat="44.64003" lon="6.00749">
        <ele>1267.4</ele>
        <time>2023-05-15T10:52:56Z</time>
      </trkpt>
      <trkpt lat="44.64004" lon="6.0075">
        <ele>1267.2</ele>
        <time>2023-05-15T10:52:57Z</time>
      </trkpt>
      <trkpt lat="44.64005" lon="6.00751">
        <ele>1267.2</ele>
        <time>2023-05-15T10:52:58Z</time>
      </trkpt>
      <trkpt lat="44.64005" lon="6.00751">
        <ele>1267.2</ele>
        <time>2023-05-15T10:52:59Z</time>
      </trkpt>
      <trkpt lat="44.64006" lon="6.00752">
        <ele>1267.2</ele>
        <time>2023-05-15T10:53:00Z</time>
      </trkpt>
      <trkpt lat="44.64007" lon="6.00756">
        <ele>1267.2</ele>
        <time>2023-05-15T10:53:02Z</time>
      </trkpt>
      <trkpt lat="44.64007" lon="6.00756">
        <ele>1267.2</ele>
        <time>2023-05-15T10:53:03Z</time>
      </trkpt>
      <trkpt lat="44.64007" lon="6.00758">
        <ele>1267.2</ele>
        <time>2023-05-15T10:53:04Z</time>
      </trkpt>
      <trkpt lat="44.64008" lon="6.00761">
        <ele>1267.2</ele>
        <time>2023-05-15T10:53:05Z</time>
      </trkpt>
      <trkpt lat="44.64008" lon="6.00763">
        <ele>1267.2</ele>
        <time>2023-05-15T10:53:06Z</time>
      </trkpt>
      <trkpt lat="44.6401" lon="6.00766">
        <ele>1267.2</ele>
        <time>2023-05-15T10:53:07Z</time>
      </trkpt>
      <trkpt lat="44.64013" lon="6.00778">
        <ele>1267.4</ele>
        <time>2023-05-15T10:53:10Z</time>
      </trkpt>
      <trkpt lat="44.64014" lon="6.00781">
        <ele>1267.4</ele>
        <time>2023-05-15T10:53:11Z</time>
      </trkpt>
      <trkpt lat="44.64014" lon="6.00784">
        <ele>1267.4</ele>
        <time>2023-05-15T10:53:12Z</time>
      </trkpt>
      <trkpt lat="44.64015" lon="6.00789">
        <ele>1267.6</ele>
        <time>2023-05-15T10:53:14Z</time>
      </trkpt>
      <trkpt lat="44.64015" lon="6.0079">
        <ele>1267.8</ele>
        <time>2023-05-15T10:53:15Z</time>
      </trkpt>
      <trkpt lat="44.64015" lon="6.00792">
        <ele>1267.8</ele>
        <time>2023-05-15T10:53:16Z</time>
      </trkpt>
      <trkpt lat="44.64015" lon="6.00795">
        <ele>1267.8</ele>
        <time>2023-05-15T10:53:17Z</time>
      </trkpt>
      <trkpt lat="44.64016" lon="6.00798">
        <ele>1268</ele>
        <time>2023-05-15T10:53:18Z</time>
      </trkpt>
      <trkpt lat="44.64017" lon="6.00801">
        <ele>1268.2</ele>
        <time>2023-05-15T10:53:20Z</time>
      </trkpt>
      <trkpt lat="44.64017" lon="6.00805">
        <ele>1268.2</ele>
        <time>2023-05-15T10:53:21Z</time>
      </trkpt>
      <trkpt lat="44.64017" lon="6.00806">
        <ele>1268.2</ele>
        <time>2023-05-15T10:53:22Z</time>
      </trkpt>
      <trkpt lat="44.64017" lon="6.00807">
        <ele>1268</ele>
        <time>2023-05-15T10:53:23Z</time>
      </trkpt>
      <trkpt lat="44.64017" lon="6.00808">
        <ele>1268</ele>
        <time>2023-05-15T10:53:24Z</time>
      </trkpt>
      <trkpt lat="44.64017" lon="6.00809">
        <ele>1268</ele>
        <time>2023-05-15T10:53:25Z</time>
      </trkpt>
      <trkpt lat="44.64017" lon="6.00809">
        <ele>1268</ele>
        <time>2023-05-15T10:53:26Z</time>
      </trkpt>
      <trkpt lat="44.64017" lon="6.00809">
        <ele>1268</ele>
        <time>2023-05-15T10:53:27Z</time>
      </trkpt>
      <trkpt lat="44.64017" lon="6.00809">
        <ele>1268</ele>
        <time>2023-05-15T10:53:28Z</time>
      </trkpt>
      <trkpt lat="44.64017" lon="6.00809">
        <ele>1268</ele>
        <time>2023-05-15T10:53:29Z</time>
      </trkpt>
      <trkpt lat="44.64019" lon="6.00812">
        <ele>1267.8</ele>
        <time>2023-05-15T10:53:40Z</time>
      </trkpt>
      <trkpt lat="44.6402" lon="6.00814">
        <ele>1267.8</ele>
        <time>2023-05-15T10:53:41Z</time>
      </trkpt>
      <trkpt lat="44.6402" lon="6.00814">
        <ele>1267.6</ele>
        <time>2023-05-15T10:53:42Z</time>
      </trkpt>
      <trkpt lat="44.6402" lon="6.00814">
        <ele>1267.6</ele>
        <time>2023-05-15T10:53:43Z</time>
      </trkpt>
      <trkpt lat="44.6402" lon="6.00815">
        <ele>1267.6</ele>
        <time>2023-05-15T10:53:44Z</time>
      </trkpt>
      <trkpt lat="44.6402" lon="6.00815">
        <ele>1267.4</ele>
        <time>2023-05-15T10:53:45Z</time>
      </trkpt>
      <trkpt lat="44.6402" lon="6.00815">
        <ele>1267.4</ele>
        <time>2023-05-15T10:53:46Z</time>
      </trkpt>
      <trkpt lat="44.6402" lon="6.00815">
        <ele>1267.2</ele>
        <time>2023-05-15T10:53:48Z</time>
      </trkpt>
      <trkpt lat="44.6402" lon="6.00815">
        <ele>1267</ele>
        <time>2023-05-15T10:53:50Z</time>
      </trkpt>
      <trkpt lat="44.64023" lon="6.00822">
        <ele>1266.6</ele>
        <time>2023-05-15T10:53:55Z</time>
      </trkpt>
      <trkpt lat="44.64023" lon="6.00822">
        <ele>1266.6</ele>
        <time>2023-05-15T10:53:58Z</time>
      </trkpt>
      <trkpt lat="44.64023" lon="6.00822">
        <ele>1266.2</ele>
        <time>2023-05-15T10:54:03Z</time>
      </trkpt>
      <trkpt lat="44.64023" lon="6.00822">
        <ele>1266</ele>
        <time>2023-05-15T10:54:05Z</time>
      </trkpt>
      <trkpt lat="44.64023" lon="6.00823">
        <ele>1266</ele>
        <time>2023-05-15T10:54:11Z</time>
      </trkpt>
      <trkpt lat="44.64023" lon="6.00823">
        <ele>1266.4</ele>
        <time>2023-05-15T10:54:19Z</time>
      </trkpt>
      <trkpt lat="44.64023" lon="6.00823">
        <ele>1266.8</ele>
        <time>2023-05-15T10:54:27Z</time>
      </trkpt>
      <trkpt lat="44.64023" lon="6.00823">
        <ele>1266.8</ele>
        <time>2023-05-15T10:54:31Z</time>
      </trkpt>
      <trkpt lat="44.64023" lon="6.00827">
        <ele>1266.8</ele>
        <time>2023-05-15T10:54:34Z</time>
      </trkpt>
      <trkpt lat="44.64022" lon="6.00827">
        <ele>1266.8</ele>
        <time>2023-05-15T10:54:36Z</time>
      </trkpt>
      <trkpt lat="44.64022" lon="6.00827">
        <ele>1267</ele>
        <time>2023-05-15T10:54:37Z</time>
      </trkpt>
      <trkpt lat="44.64022" lon="6.00829">
        <ele>1267</ele>
        <time>2023-05-15T10:54:40Z</time>
      </trkpt>
      <trkpt lat="44.64021" lon="6.00833">
        <ele>1267</ele>
        <time>2023-05-15T10:54:41Z</time>
      </trkpt>
      <trkpt lat="44.6402" lon="6.0084">
        <ele>1267.2</ele>
        <time>2023-05-15T10:54:44Z</time>
      </trkpt>
      <trkpt lat="44.6402" lon="6.00842">
        <ele>1267.4</ele>
        <time>2023-05-15T10:54:45Z</time>
      </trkpt>
      <trkpt lat="44.64021" lon="6.00845">
        <ele>1267.4</ele>
        <time>2023-05-15T10:54:46Z</time>
      </trkpt>
      <trkpt lat="44.64022" lon="6.00847">
        <ele>1267.4</ele>
        <time>2023-05-15T10:54:47Z</time>
      </trkpt>
      <trkpt lat="44.64023" lon="6.00849">
        <ele>1267.6</ele>
        <time>2023-05-15T10:54:48Z</time>
      </trkpt>
      <trkpt lat="44.64023" lon="6.0085">
        <ele>1267.6</ele>
        <time>2023-05-15T10:54:49Z</time>
      </trkpt>
      <trkpt lat="44.64023" lon="6.0085">
        <ele>1267.6</ele>
        <time>2023-05-15T10:54:50Z</time>
      </trkpt>
      <trkpt lat="44.64023" lon="6.00853">
        <ele>1267.6</ele>
        <time>2023-05-15T10:54:51Z</time>
      </trkpt>
      <trkpt lat="44.64023" lon="6.00855">
        <ele>1267.6</ele>
        <time>2023-05-15T10:54:52Z</time>
      </trkpt>
      <trkpt lat="44.64023" lon="6.00859">
        <ele>1267.8</ele>
        <time>2023-05-15T10:54:53Z</time>
      </trkpt>
      <trkpt lat="44.64024" lon="6.00862">
        <ele>1267.8</ele>
        <time>2023-05-15T10:54:54Z</time>
      </trkpt>
      <trkpt lat="44.64024" lon="6.00864">
        <ele>1267.8</ele>
        <time>2023-05-15T10:54:55Z</time>
      </trkpt>
      <trkpt lat="44.64026" lon="6.00873">
        <ele>1268</ele>
        <time>2023-05-15T10:54:58Z</time>
      </trkpt>
      <trkpt lat="44.64026" lon="6.00875">
        <ele>1267.8</ele>
        <time>2023-05-15T10:54:59Z</time>
      </trkpt>
      <trkpt lat="44.64025" lon="6.00875">
        <ele>1267.8</ele>
        <time>2023-05-15T10:55:00Z</time>
      </trkpt>
      <trkpt lat="44.64025" lon="6.00876">
        <ele>1267.8</ele>
        <time>2023-05-15T10:55:01Z</time>
      </trkpt>
      <trkpt lat="44.64025" lon="6.00877">
        <ele>1267.8</ele>
        <time>2023-05-15T10:55:03Z</time>
      </trkpt>
      <trkpt lat="44.64024" lon="6.00879">
        <ele>1267.8</ele>
        <time>2023-05-15T10:55:04Z</time>
      </trkpt>
      <trkpt lat="44.64023" lon="6.00881">
        <ele>1267.8</ele>
        <time>2023-05-15T10:55:05Z</time>
      </trkpt>
      <trkpt lat="44.64023" lon="6.00881">
        <ele>1267.6</ele>
        <time>2023-05-15T10:55:08Z</time>
      </trkpt>
      <trkpt lat="44.64023" lon="6.00881">
        <ele>1267.6</ele>
        <time>2023-05-15T10:55:09Z</time>
      </trkpt>
      <trkpt lat="44.64023" lon="6.00881">
        <ele>1267.2</ele>
        <time>2023-05-15T10:55:16Z</time>
      </trkpt>
      <trkpt lat="44.64023" lon="6.00881">
        <ele>1267.2</ele>
        <time>2023-05-15T10:55:18Z</time>
      </trkpt>
      <trkpt lat="44.64022" lon="6.00881">
        <ele>1267.6</ele>
        <time>2023-05-15T10:55:26Z</time>
      </trkpt>
      <trkpt lat="44.64023" lon="6.00882">
        <ele>1267.8</ele>
        <time>2023-05-15T10:55:32Z</time>
      </trkpt>
      <trkpt lat="44.64023" lon="6.00882">
        <ele>1267.6</ele>
        <time>2023-05-15T10:55:34Z</time>
      </trkpt>
      <trkpt lat="44.64022" lon="6.00882">
        <ele>1267.6</ele>
        <time>2023-05-15T10:55:36Z</time>
      </trkpt>
      <trkpt lat="44.64021" lon="6.00883">
        <ele>1267.6</ele>
        <time>2023-05-15T10:55:37Z</time>
      </trkpt>
      <trkpt lat="44.6402" lon="6.00885">
        <ele>1267.8</ele>
        <time>2023-05-15T10:55:38Z</time>
      </trkpt>
      <trkpt lat="44.6402" lon="6.00887">
        <ele>1267.8</ele>
        <time>2023-05-15T10:55:39Z</time>
      </trkpt>
      <trkpt lat="44.6402" lon="6.00888">
        <ele>1267.8</ele>
        <time>2023-05-15T10:55:40Z</time>
      </trkpt>
      <trkpt lat="44.6402" lon="6.00889">
        <ele>1267.8</ele>
        <time>2023-05-15T10:55:41Z</time>
      </trkpt>
      <trkpt lat="44.64021" lon="6.00891">
        <ele>1267.8</ele>
        <time>2023-05-15T10:55:42Z</time>
      </trkpt>
      <trkpt lat="44.64022" lon="6.00892">
        <ele>1268</ele>
        <time>2023-05-15T10:55:43Z</time>
      </trkpt>
      <trkpt lat="44.64022" lon="6.00892">
        <ele>1268</ele>
        <time>2023-05-15T10:55:45Z</time>
      </trkpt>
      <trkpt lat="44.64022" lon="6.00892">
        <ele>1268</ele>
        <time>2023-05-15T10:55:46Z</time>
      </trkpt>
      <trkpt lat="44.64022" lon="6.00892">
        <ele>1268.2</ele>
        <time>2023-05-15T10:55:47Z</time>
      </trkpt>
      <trkpt lat="44.64022" lon="6.00892">
        <ele>1268.2</ele>
        <time>2023-05-15T10:55:48Z</time>
      </trkpt>
      <trkpt lat="44.64022" lon="6.00895">
        <ele>1268.6</ele>
        <time>2023-05-15T10:55:53Z</time>
      </trkpt>
      <trkpt lat="44.64022" lon="6.00897">
        <ele>1268.6</ele>
        <time>2023-05-15T10:55:55Z</time>
      </trkpt>
      <trkpt lat="44.64022" lon="6.00897">
        <ele>1268.8</ele>
        <time>2023-05-15T10:55:56Z</time>
      </trkpt>
      <trkpt lat="44.64022" lon="6.00897">
        <ele>1269</ele>
        <time>2023-05-15T10:55:58Z</time>
      </trkpt>
      <trkpt lat="44.64022" lon="6.00897">
        <ele>1269</ele>
        <time>2023-05-15T10:55:59Z</time>
      </trkpt>
      <trkpt lat="44.64023" lon="6.00899">
        <ele>1269</ele>
        <time>2023-05-15T10:56:00Z</time>
      </trkpt>
      <trkpt lat="44.64023" lon="6.00899">
        <ele>1269.2</ele>
        <time>2023-05-15T10:56:02Z</time>
      </trkpt>
      <trkpt lat="44.64023" lon="6.00899">
        <ele>1269.4</ele>
        <time>2023-05-15T10:56:04Z</time>
      </trkpt>
      <trkpt lat="44.64023" lon="6.00899">
        <ele>1269.6</ele>
        <time>2023-05-15T10:56:05Z</time>
      </trkpt>
      <trkpt lat="44.64023" lon="6.00899">
        <ele>1269.8</ele>
        <time>2023-05-15T10:56:07Z</time>
      </trkpt>
      <trkpt lat="44.64022" lon="6.009">
        <ele>1269.8</ele>
        <time>2023-05-15T10:56:08Z</time>
      </trkpt>
      <trkpt lat="44.64022" lon="6.00901">
        <ele>1269.8</ele>
        <time>2023-05-15T10:56:10Z</time>
      </trkpt>
      <trkpt lat="44.64021" lon="6.00901">
        <ele>1270</ele>
        <time>2023-05-15T10:56:11Z</time>
      </trkpt>
      <trkpt lat="44.64021" lon="6.00901">
        <ele>1270</ele>
        <time>2023-05-15T10:56:12Z</time>
      </trkpt>
      <trkpt lat="44.64021" lon="6.00901">
        <ele>1270</ele>
        <time>2023-05-15T10:56:13Z</time>
      </trkpt>
      <trkpt lat="44.64021" lon="6.00901">
        <ele>1270</ele>
        <time>2023-05-15T10:56:14Z</time>
      </trkpt>
      <trkpt lat="44.64021" lon="6.00902">
        <ele>1270</ele>
        <time>2023-05-15T10:56:15Z</time>
      </trkpt>
      <trkpt lat="44.64022" lon="6.00902">
        <ele>1270.2</ele>
        <time>2023-05-15T10:56:16Z</time>
      </trkpt>
      <trkpt lat="44.64022" lon="6.00905">
        <ele>1270.6</ele>
        <time>2023-05-15T10:56:18Z</time>
      </trkpt>
      <trkpt lat="44.64022" lon="6.00905">
        <ele>1270.8</ele>
        <time>2023-05-15T10:56:20Z</time>
      </trkpt>
      <trkpt lat="44.64023" lon="6.00905">
        <ele>1271.2</ele>
        <time>2023-05-15T10:56:23Z</time>
      </trkpt>
      <trkpt lat="44.64023" lon="6.00906">
        <ele>1271.2</ele>
        <time>2023-05-15T10:56:24Z</time>
      </trkpt>
      <trkpt lat="44.64023" lon="6.00906">
        <ele>1271.4</ele>
        <time>2023-05-15T10:56:27Z</time>
      </trkpt>
      <trkpt lat="44.64023" lon="6.00906">
        <ele>1271.4</ele>
        <time>2023-05-15T10:56:28Z</time>
      </trkpt>
      <trkpt lat="44.64023" lon="6.00906">
        <ele>1271.6</ele>
        <time>2023-05-15T10:56:29Z</time>
      </trkpt>
      <trkpt lat="44.64023" lon="6.00906">
        <ele>1271.6</ele>
        <time>2023-05-15T10:56:30Z</time>
      </trkpt>
      <trkpt lat="44.64023" lon="6.00907">
        <ele>1271.8</ele>
        <time>2023-05-15T10:56:37Z</time>
      </trkpt>
      <trkpt lat="44.64024" lon="6.00908">
        <ele>1271.8</ele>
        <time>2023-05-15T10:56:38Z</time>
      </trkpt>
      <trkpt lat="44.64024" lon="6.00908">
        <ele>1272</ele>
        <time>2023-05-15T10:56:39Z</time>
      </trkpt>
      <trkpt lat="44.64024" lon="6.0091">
        <ele>1272</ele>
        <time>2023-05-15T10:56:40Z</time>
      </trkpt>
      <trkpt lat="44.64025" lon="6.0091">
        <ele>1272</ele>
        <time>2023-05-15T10:56:42Z</time>
      </trkpt>
      <trkpt lat="44.64025" lon="6.0091">
        <ele>1272.2</ele>
        <time>2023-05-15T10:56:43Z</time>
      </trkpt>
      <trkpt lat="44.64025" lon="6.0091">
        <ele>1272.6</ele>
        <time>2023-05-15T10:56:46Z</time>
      </trkpt>
      <trkpt lat="44.64025" lon="6.0091">
        <ele>1272.8</ele>
        <time>2023-05-15T10:56:47Z</time>
      </trkpt>
      <trkpt lat="44.64025" lon="6.0091">
        <ele>1272.8</ele>
        <time>2023-05-15T10:56:48Z</time>
      </trkpt>
      <trkpt lat="44.64025" lon="6.00912">
        <ele>1273</ele>
        <time>2023-05-15T10:56:51Z</time>
      </trkpt>
      <trkpt lat="44.64025" lon="6.00912">
        <ele>1273.2</ele>
        <time>2023-05-15T10:56:52Z</time>
      </trkpt>
      <trkpt lat="44.64025" lon="6.00912">
        <ele>1273.6</ele>
        <time>2023-05-15T10:56:58Z</time>
      </trkpt>
      <trkpt lat="44.64026" lon="6.00919">
        <ele>1274</ele>
        <time>2023-05-15T10:57:02Z</time>
      </trkpt>
      <trkpt lat="44.64026" lon="6.00919">
        <ele>1274.4</ele>
        <time>2023-05-15T10:57:04Z</time>
      </trkpt>
      <trkpt lat="44.64026" lon="6.00919">
        <ele>1274.4</ele>
        <time>2023-05-15T10:57:05Z</time>
      </trkpt>
      <trkpt lat="44.64027" lon="6.00921">
        <ele>1274.6</ele>
        <time>2023-05-15T10:57:06Z</time>
      </trkpt>
      <trkpt lat="44.64028" lon="6.00923">
        <ele>1274.6</ele>
        <time>2023-05-15T10:57:07Z</time>
      </trkpt>
      <trkpt lat="44.64028" lon="6.00923">
        <ele>1274.8</ele>
        <time>2023-05-15T10:57:08Z</time>
      </trkpt>
      <trkpt lat="44.64029" lon="6.00924">
        <ele>1274.8</ele>
        <time>2023-05-15T10:57:09Z</time>
      </trkpt>
      <trkpt lat="44.6403" lon="6.00933">
        <ele>1275.2</ele>
        <time>2023-05-15T10:57:12Z</time>
      </trkpt>
      <trkpt lat="44.64031" lon="6.00934">
        <ele>1275.2</ele>
        <time>2023-05-15T10:57:13Z</time>
      </trkpt>
      <trkpt lat="44.64032" lon="6.00936">
        <ele>1275.2</ele>
        <time>2023-05-15T10:57:14Z</time>
      </trkpt>
      <trkpt lat="44.64033" lon="6.00936">
        <ele>1275.4</ele>
        <time>2023-05-15T10:57:15Z</time>
      </trkpt>
      <trkpt lat="44.64033" lon="6.00936">
        <ele>1275.4</ele>
        <time>2023-05-15T10:57:16Z</time>
      </trkpt>
      <trkpt lat="44.64034" lon="6.00938">
        <ele>1275.4</ele>
        <time>2023-05-15T10:57:17Z</time>
      </trkpt>
      <trkpt lat="44.64037" lon="6.00941">
        <ele>1275.2</ele>
        <time>2023-05-15T10:57:20Z</time>
      </trkpt>
      <trkpt lat="44.64037" lon="6.00941">
        <ele>1275</ele>
        <time>2023-05-15T10:57:21Z</time>
      </trkpt>
      <trkpt lat="44.64037" lon="6.00941">
        <ele>1275</ele>
        <time>2023-05-15T10:57:22Z</time>
      </trkpt>
      <trkpt lat="44.64037" lon="6.00941">
        <ele>1275</ele>
        <time>2023-05-15T10:57:23Z</time>
      </trkpt>
      <trkpt lat="44.64038" lon="6.00942">
        <ele>1275</ele>
        <time>2023-05-15T10:57:26Z</time>
      </trkpt>
      <trkpt lat="44.64042" lon="6.00946">
        <ele>1274.8</ele>
        <time>2023-05-15T10:57:29Z</time>
      </trkpt>
      <trkpt lat="44.64043" lon="6.00947">
        <ele>1274.8</ele>
        <time>2023-05-15T10:57:30Z</time>
      </trkpt>
      <trkpt lat="44.64045" lon="6.00948">
        <ele>1274.8</ele>
        <time>2023-05-15T10:57:31Z</time>
      </trkpt>
      <trkpt lat="44.64049" lon="6.00949">
        <ele>1274.8</ele>
        <time>2023-05-15T10:57:33Z</time>
      </trkpt>
      <trkpt lat="44.64051" lon="6.0095">
        <ele>1275</ele>
        <time>2023-05-15T10:57:34Z</time>
      </trkpt>
      <trkpt lat="44.64052" lon="6.00951">
        <ele>1275.2</ele>
        <time>2023-05-15T10:57:35Z</time>
      </trkpt>
      <trkpt lat="44.64056" lon="6.00954">
        <ele>1275.6</ele>
        <time>2023-05-15T10:57:38Z</time>
      </trkpt>
      <trkpt lat="44.6406" lon="6.00958">
        <ele>1276</ele>
        <time>2023-05-15T10:57:41Z</time>
      </trkpt>
      <trkpt lat="44.64061" lon="6.00958">
        <ele>1276</ele>
        <time>2023-05-15T10:57:42Z</time>
      </trkpt>
      <trkpt lat="44.64063" lon="6.00959">
        <ele>1276.2</ele>
        <time>2023-05-15T10:57:43Z</time>
      </trkpt>
      <trkpt lat="44.64065" lon="6.0096">
        <ele>1276.2</ele>
        <time>2023-05-15T10:57:44Z</time>
      </trkpt>
      <trkpt lat="44.64066" lon="6.00961">
        <ele>1276.4</ele>
        <time>2023-05-15T10:57:45Z</time>
      </trkpt>
      <trkpt lat="44.64067" lon="6.00962">
        <ele>1276.8</ele>
        <time>2023-05-15T10:57:46Z</time>
      </trkpt>
      <trkpt lat="44.64068" lon="6.00963">
        <ele>1277</ele>
        <time>2023-05-15T10:57:47Z</time>
      </trkpt>
      <trkpt lat="44.64072" lon="6.00968">
        <ele>1277.8</ele>
        <time>2023-05-15T10:57:50Z</time>
      </trkpt>
      <trkpt lat="44.64073" lon="6.0097">
        <ele>1278</ele>
        <time>2023-05-15T10:57:51Z</time>
      </trkpt>
      <trkpt lat="44.64074" lon="6.00971">
        <ele>1278</ele>
        <time>2023-05-15T10:57:52Z</time>
      </trkpt>
      <trkpt lat="44.64074" lon="6.00972">
        <ele>1278.4</ele>
        <time>2023-05-15T10:57:53Z</time>
      </trkpt>
      <trkpt lat="44.64075" lon="6.00973">
        <ele>1278.6</ele>
        <time>2023-05-15T10:57:54Z</time>
      </trkpt>
      <trkpt lat="44.64077" lon="6.00974">
        <ele>1278.8</ele>
        <time>2023-05-15T10:57:55Z</time>
      </trkpt>
      <trkpt lat="44.64077" lon="6.00975">
        <ele>1278.8</ele>
        <time>2023-05-15T10:57:56Z</time>
      </trkpt>
      <trkpt lat="44.64077" lon="6.00975">
        <ele>1279</ele>
        <time>2023-05-15T10:57:57Z</time>
      </trkpt>
      <trkpt lat="44.64078" lon="6.00976">
        <ele>1279</ele>
        <time>2023-05-15T10:57:58Z</time>
      </trkpt>
      <trkpt lat="44.64079" lon="6.00978">
        <ele>1279.2</ele>
        <time>2023-05-15T10:57:59Z</time>
      </trkpt>
      <trkpt lat="44.6408" lon="6.0098">
        <ele>1279.4</ele>
        <time>2023-05-15T10:58:00Z</time>
      </trkpt>
      <trkpt lat="44.64081" lon="6.00983">
        <ele>1279.6</ele>
        <time>2023-05-15T10:58:01Z</time>
      </trkpt>
      <trkpt lat="44.64082" lon="6.00986">
        <ele>1280</ele>
        <time>2023-05-15T10:58:02Z</time>
      </trkpt>
      <trkpt lat="44.64084" lon="6.00989">
        <ele>1280</ele>
        <time>2023-05-15T10:58:03Z</time>
      </trkpt>
      <trkpt lat="44.64086" lon="6.00991">
        <ele>1280.2</ele>
        <time>2023-05-15T10:58:04Z</time>
      </trkpt>
      <trkpt lat="44.64088" lon="6.00994">
        <ele>1280.2</ele>
        <time>2023-05-15T10:58:05Z</time>
      </trkpt>
      <trkpt lat="44.64091" lon="6.00996">
        <ele>1280.2</ele>
        <time>2023-05-15T10:58:06Z</time>
      </trkpt>
      <trkpt lat="44.64094" lon="6.00999">
        <ele>1280.2</ele>
        <time>2023-05-15T10:58:07Z</time>
      </trkpt>
      <trkpt lat="44.64097" lon="6.01002">
        <ele>1280.2</ele>
        <time>2023-05-15T10:58:08Z</time>
      </trkpt>
      <trkpt lat="44.641" lon="6.01005">
        <ele>1280.2</ele>
        <time>2023-05-15T10:58:09Z</time>
      </trkpt>
      <trkpt lat="44.64103" lon="6.01007">
        <ele>1280.2</ele>
        <time>2023-05-15T10:58:10Z</time>
      </trkpt>
      <trkpt lat="44.64105" lon="6.01009">
        <ele>1280.2</ele>
        <time>2023-05-15T10:58:11Z</time>
      </trkpt>
      <trkpt lat="44.64107" lon="6.01011">
        <ele>1280.2</ele>
        <time>2023-05-15T10:58:12Z</time>
      </trkpt>
      <trkpt lat="44.64109" lon="6.01013">
        <ele>1280</ele>
        <time>2023-05-15T10:58:13Z</time>
      </trkpt>
      <trkpt lat="44.64111" lon="6.01015">
        <ele>1280</ele>
        <time>2023-05-15T10:58:14Z</time>
      </trkpt>
      <trkpt lat="44.64113" lon="6.01017">
        <ele>1279.8</ele>
        <time>2023-05-15T10:58:15Z</time>
      </trkpt>
      <trkpt lat="44.64114" lon="6.01019">
        <ele>1279.6</ele>
        <time>2023-05-15T10:58:16Z</time>
      </trkpt>
      <trkpt lat="44.64116" lon="6.01022">
        <ele>1279.6</ele>
        <time>2023-05-15T10:58:17Z</time>
      </trkpt>
      <trkpt lat="44.64119" lon="6.01025">
        <ele>1279.4</ele>
        <time>2023-05-15T10:58:18Z</time>
      </trkpt>
      <trkpt lat="44.64126" lon="6.01036">
        <ele>1279.2</ele>
        <time>2023-05-15T10:58:22Z</time>
      </trkpt>
      <trkpt lat="44.64127" lon="6.0104">
        <ele>1279.2</ele>
        <time>2023-05-15T10:58:23Z</time>
      </trkpt>
      <trkpt lat="44.64128" lon="6.01043">
        <ele>1279</ele>
        <time>2023-05-15T10:58:24Z</time>
      </trkpt>
      <trkpt lat="44.64129" lon="6.01045">
        <ele>1278.8</ele>
        <time>2023-05-15T10:58:25Z</time>
      </trkpt>
      <trkpt lat="44.64132" lon="6.0105">
        <ele>1278.4</ele>
        <time>2023-05-15T10:58:27Z</time>
      </trkpt>
      <trkpt lat="44.64133" lon="6.0105">
        <ele>1278.4</ele>
        <time>2023-05-15T10:58:28Z</time>
      </trkpt>
      <trkpt lat="44.64135" lon="6.01051">
        <ele>1278.4</ele>
        <time>2023-05-15T10:58:29Z</time>
      </trkpt>
      <trkpt lat="44.64137" lon="6.01051">
        <ele>1278.4</ele>
        <time>2023-05-15T10:58:30Z</time>
      </trkpt>
      <trkpt lat="44.64139" lon="6.01053">
        <ele>1278.4</ele>
        <time>2023-05-15T10:58:31Z</time>
      </trkpt>
      <trkpt lat="44.6414" lon="6.01056">
        <ele>1278.4</ele>
        <time>2023-05-15T10:58:32Z</time>
      </trkpt>
      <trkpt lat="44.6414" lon="6.0106">
        <ele>1278.4</ele>
        <time>2023-05-15T10:58:33Z</time>
      </trkpt>
      <trkpt lat="44.64141" lon="6.01065">
        <ele>1278.6</ele>
        <time>2023-05-15T10:58:34Z</time>
      </trkpt>
      <trkpt lat="44.64141" lon="6.01068">
        <ele>1278.6</ele>
        <time>2023-05-15T10:58:35Z</time>
      </trkpt>
      <trkpt lat="44.6414" lon="6.01069">
        <ele>1278.6</ele>
        <time>2023-05-15T10:58:36Z</time>
      </trkpt>
      <trkpt lat="44.6414" lon="6.0107">
        <ele>1278.6</ele>
        <time>2023-05-15T10:58:37Z</time>
      </trkpt>
      <trkpt lat="44.64141" lon="6.01071">
        <ele>1278.8</ele>
        <time>2023-05-15T10:58:38Z</time>
      </trkpt>
      <trkpt lat="44.6414" lon="6.01073">
        <ele>1278.8</ele>
        <time>2023-05-15T10:58:39Z</time>
      </trkpt>
      <trkpt lat="44.6414" lon="6.01076">
        <ele>1279</ele>
        <time>2023-05-15T10:58:40Z</time>
      </trkpt>
      <trkpt lat="44.6414" lon="6.01079">
        <ele>1279</ele>
        <time>2023-05-15T10:58:41Z</time>
      </trkpt>
      <trkpt lat="44.64139" lon="6.01081">
        <ele>1279</ele>
        <time>2023-05-15T10:58:42Z</time>
      </trkpt>
      <trkpt lat="44.64138" lon="6.01082">
        <ele>1279</ele>
        <time>2023-05-15T10:58:43Z</time>
      </trkpt>
      <trkpt lat="44.64137" lon="6.01083">
        <ele>1279.2</ele>
        <time>2023-05-15T10:58:44Z</time>
      </trkpt>
      <trkpt lat="44.64136" lon="6.01085">
        <ele>1279.2</ele>
        <time>2023-05-15T10:58:45Z</time>
      </trkpt>
      <trkpt lat="44.64136" lon="6.01087">
        <ele>1279.2</ele>
        <time>2023-05-15T10:58:46Z</time>
      </trkpt>
      <trkpt lat="44.64136" lon="6.0109">
        <ele>1279.4</ele>
        <time>2023-05-15T10:58:47Z</time>
      </trkpt>
      <trkpt lat="44.64136" lon="6.01092">
        <ele>1279.4</ele>
        <time>2023-05-15T10:58:48Z</time>
      </trkpt>
      <trkpt lat="44.64135" lon="6.01093">
        <ele>1279.4</ele>
        <time>2023-05-15T10:58:49Z</time>
      </trkpt>
      <trkpt lat="44.64135" lon="6.01094">
        <ele>1279.2</ele>
        <time>2023-05-15T10:58:51Z</time>
      </trkpt>
      <trkpt lat="44.64135" lon="6.01094">
        <ele>1278.4</ele>
        <time>2023-05-15T10:58:55Z</time>
      </trkpt>
      <trkpt lat="44.64136" lon="6.01096">
        <ele>1277.4</ele>
        <time>2023-05-15T10:59:03Z</time>
      </trkpt>
      <trkpt lat="44.64136" lon="6.01097">
        <ele>1277</ele>
        <time>2023-05-15T10:59:07Z</time>
      </trkpt>
      <trkpt lat="44.64136" lon="6.01099">
        <ele>1276.8</ele>
        <time>2023-05-15T10:59:08Z</time>
      </trkpt>
      <trkpt lat="44.64137" lon="6.01102">
        <ele>1276.8</ele>
        <time>2023-05-15T10:59:10Z</time>
      </trkpt>
      <trkpt lat="44.64137" lon="6.01103">
        <ele>1276.8</ele>
        <time>2023-05-15T10:59:11Z</time>
      </trkpt>
      <trkpt lat="44.64137" lon="6.01103">
        <ele>1276.8</ele>
        <time>2023-05-15T10:59:12Z</time>
      </trkpt>
      <trkpt lat="44.64137" lon="6.01104">
        <ele>1276.8</ele>
        <time>2023-05-15T10:59:13Z</time>
      </trkpt>
      <trkpt lat="44.64137" lon="6.01104">
        <ele>1277</ele>
        <time>2023-05-15T10:59:14Z</time>
      </trkpt>
      <trkpt lat="44.64137" lon="6.01104">
        <ele>1277.8</ele>
        <time>2023-05-15T10:59:19Z</time>
      </trkpt>
      <trkpt lat="44.64136" lon="6.01107">
        <ele>1278.2</ele>
        <time>2023-05-15T10:59:23Z</time>
      </trkpt>
      <trkpt lat="44.64136" lon="6.01109">
        <ele>1278.4</ele>
        <time>2023-05-15T10:59:26Z</time>
      </trkpt>
      <trkpt lat="44.64134" lon="6.01117">
        <ele>1278.8</ele>
        <time>2023-05-15T10:59:30Z</time>
      </trkpt>
      <trkpt lat="44.64134" lon="6.01117">
        <ele>1278.8</ele>
        <time>2023-05-15T10:59:31Z</time>
      </trkpt>
      <trkpt lat="44.64133" lon="6.01119">
        <ele>1278.8</ele>
        <time>2023-05-15T10:59:32Z</time>
      </trkpt>
      <trkpt lat="44.64133" lon="6.01121">
        <ele>1278.8</ele>
        <time>2023-05-15T10:59:33Z</time>
      </trkpt>
      <trkpt lat="44.64133" lon="6.01122">
        <ele>1279</ele>
        <time>2023-05-15T10:59:34Z</time>
      </trkpt>
      <trkpt lat="44.64132" lon="6.01129">
        <ele>1279.6</ele>
        <time>2023-05-15T10:59:37Z</time>
      </trkpt>
      <trkpt lat="44.64132" lon="6.01131">
        <ele>1279.6</ele>
        <time>2023-05-15T10:59:38Z</time>
      </trkpt>
      <trkpt lat="44.64132" lon="6.01133">
        <ele>1279.8</ele>
        <time>2023-05-15T10:59:39Z</time>
      </trkpt>
      <trkpt lat="44.64133" lon="6.01134">
        <ele>1279.6</ele>
        <time>2023-05-15T10:59:40Z</time>
      </trkpt>
      <trkpt lat="44.64132" lon="6.01136">
        <ele>1279.8</ele>
        <time>2023-05-15T10:59:41Z</time>
      </trkpt>
      <trkpt lat="44.64132" lon="6.01137">
        <ele>1280</ele>
        <time>2023-05-15T10:59:42Z</time>
      </trkpt>
      <trkpt lat="44.64133" lon="6.01138">
        <ele>1280</ele>
        <time>2023-05-15T10:59:43Z</time>
      </trkpt>
      <trkpt lat="44.64134" lon="6.01143">
        <ele>1280.2</ele>
        <time>2023-05-15T10:59:45Z</time>
      </trkpt>
      <trkpt lat="44.64135" lon="6.01146">
        <ele>1280.4</ele>
        <time>2023-05-15T10:59:46Z</time>
      </trkpt>
      <trkpt lat="44.64136" lon="6.01148">
        <ele>1280.4</ele>
        <time>2023-05-15T10:59:47Z</time>
      </trkpt>
      <trkpt lat="44.64137" lon="6.01149">
        <ele>1280.6</ele>
        <time>2023-05-15T10:59:48Z</time>
      </trkpt>
      <trkpt lat="44.64138" lon="6.01151">
        <ele>1280.6</ele>
        <time>2023-05-15T10:59:49Z</time>
      </trkpt>
      <trkpt lat="44.64138" lon="6.01152">
        <ele>1280.6</ele>
        <time>2023-05-15T10:59:50Z</time>
      </trkpt>
      <trkpt lat="44.64138" lon="6.01152">
        <ele>1280.8</ele>
        <time>2023-05-15T10:59:51Z</time>
      </trkpt>
      <trkpt lat="44.64139" lon="6.01153">
        <ele>1280.8</ele>
        <time>2023-05-15T10:59:52Z</time>
      </trkpt>
      <trkpt lat="44.6414" lon="6.01155">
        <ele>1281</ele>
        <time>2023-05-15T10:59:53Z</time>
      </trkpt>
      <trkpt lat="44.64141" lon="6.01157">
        <ele>1281</ele>
        <time>2023-05-15T10:59:54Z</time>
      </trkpt>
      <trkpt lat="44.64143" lon="6.0116">
        <ele>1281.2</ele>
        <time>2023-05-15T10:59:55Z</time>
      </trkpt>
      <trkpt lat="44.64145" lon="6.01163">
        <ele>1281.2</ele>
        <time>2023-05-15T10:59:56Z</time>
      </trkpt>
      <trkpt lat="44.64147" lon="6.01166">
        <ele>1281.4</ele>
        <time>2023-05-15T10:59:57Z</time>
      </trkpt>
      <trkpt lat="44.64149" lon="6.01168">
        <ele>1281.4</ele>
        <time>2023-05-15T10:59:58Z</time>
      </trkpt>
      <trkpt lat="44.64151" lon="6.01169">
        <ele>1281.4</ele>
        <time>2023-05-15T10:59:59Z</time>
      </trkpt>
      <trkpt lat="44.64152" lon="6.0117">
        <ele>1281.2</ele>
        <time>2023-05-15T11:00:00Z</time>
      </trkpt>
      <trkpt lat="44.64153" lon="6.01171">
        <ele>1281.2</ele>
        <time>2023-05-15T11:00:01Z</time>
      </trkpt>
      <trkpt lat="44.64154" lon="6.01174">
        <ele>1281.4</ele>
        <time>2023-05-15T11:00:02Z</time>
      </trkpt>
      <trkpt lat="44.64154" lon="6.01176">
        <ele>1281.4</ele>
        <time>2023-05-15T11:00:03Z</time>
      </trkpt>
      <trkpt lat="44.64154" lon="6.01176">
        <ele>1281.4</ele>
        <time>2023-05-15T11:00:04Z</time>
      </trkpt>
      <trkpt lat="44.64154" lon="6.01177">
        <ele>1281.4</ele>
        <time>2023-05-15T11:00:05Z</time>
      </trkpt>
      <trkpt lat="44.64154" lon="6.01179">
        <ele>1281.4</ele>
        <time>2023-05-15T11:00:06Z</time>
      </trkpt>
      <trkpt lat="44.64155" lon="6.01181">
        <ele>1281.4</ele>
        <time>2023-05-15T11:00:07Z</time>
      </trkpt>
      <trkpt lat="44.64157" lon="6.01181">
        <ele>1281.6</ele>
        <time>2023-05-15T11:00:08Z</time>
      </trkpt>
      <trkpt lat="44.64158" lon="6.01182">
        <ele>1281.6</ele>
        <time>2023-05-15T11:00:09Z</time>
      </trkpt>
      <trkpt lat="44.64158" lon="6.01182">
        <ele>1281.8</ele>
        <time>2023-05-15T11:00:10Z</time>
      </trkpt>
      <trkpt lat="44.64159" lon="6.01183">
        <ele>1282</ele>
        <time>2023-05-15T11:00:11Z</time>
      </trkpt>
      <trkpt lat="44.64159" lon="6.01184">
        <ele>1282.2</ele>
        <time>2023-05-15T11:00:12Z</time>
      </trkpt>
      <trkpt lat="44.64159" lon="6.01183">
        <ele>1282.4</ele>
        <time>2023-05-15T11:00:13Z</time>
      </trkpt>
      <trkpt lat="44.64159" lon="6.01184">
        <ele>1282.4</ele>
        <time>2023-05-15T11:00:14Z</time>
      </trkpt>
      <trkpt lat="44.64158" lon="6.01184">
        <ele>1282.6</ele>
        <time>2023-05-15T11:00:15Z</time>
      </trkpt>
      <trkpt lat="44.64158" lon="6.01184">
        <ele>1282.6</ele>
        <time>2023-05-15T11:00:16Z</time>
      </trkpt>
      <trkpt lat="44.64158" lon="6.01184">
        <ele>1282.6</ele>
        <time>2023-05-15T11:00:17Z</time>
      </trkpt>
      <trkpt lat="44.64158" lon="6.01184">
        <ele>1282.4</ele>
        <time>2023-05-15T11:00:18Z</time>
      </trkpt>
      <trkpt lat="44.64158" lon="6.01184">
        <ele>1282.6</ele>
        <time>2023-05-15T11:00:19Z</time>
      </trkpt>
      <trkpt lat="44.64158" lon="6.01184">
        <ele>1282.6</ele>
        <time>2023-05-15T11:00:20Z</time>
      </trkpt>
      <trkpt lat="44.64158" lon="6.01186">
        <ele>1282.6</ele>
        <time>2023-05-15T11:00:21Z</time>
      </trkpt>
      <trkpt lat="44.64158" lon="6.01186">
        <ele>1282.8</ele>
        <time>2023-05-15T11:00:22Z</time>
      </trkpt>
      <trkpt lat="44.64158" lon="6.01187">
        <ele>1282.8</ele>
        <time>2023-05-15T11:00:23Z</time>
      </trkpt>
      <trkpt lat="44.64158" lon="6.01186">
        <ele>1283</ele>
        <time>2023-05-15T11:00:24Z</time>
      </trkpt>
      <trkpt lat="44.64158" lon="6.01186">
        <ele>1283</ele>
        <time>2023-05-15T11:00:25Z</time>
      </trkpt>
      <trkpt lat="44.64158" lon="6.01186">
        <ele>1283.2</ele>
        <time>2023-05-15T11:00:26Z</time>
      </trkpt>
      <trkpt lat="44.64158" lon="6.01186">
        <ele>1283.2</ele>
        <time>2023-05-15T11:00:27Z</time>
      </trkpt>
      <trkpt lat="44.64158" lon="6.01186">
        <ele>1283.2</ele>
        <time>2023-05-15T11:00:28Z</time>
      </trkpt>
      <trkpt lat="44.64158" lon="6.01186">
        <ele>1283.4</ele>
        <time>2023-05-15T11:00:29Z</time>
      </trkpt>
      <trkpt lat="44.64158" lon="6.01186">
        <ele>1283.4</ele>
        <time>2023-05-15T11:00:30Z</time>
      </trkpt>
      <trkpt lat="44.64157" lon="6.01188">
        <ele>1283.4</ele>
        <time>2023-05-15T11:00:33Z</time>
      </trkpt>
      <trkpt lat="44.64157" lon="6.01188">
        <ele>1283.6</ele>
        <time>2023-05-15T11:00:35Z</time>
      </trkpt>
      <trkpt lat="44.64157" lon="6.01189">
        <ele>1283.6</ele>
        <time>2023-05-15T11:00:37Z</time>
      </trkpt>
      <trkpt lat="44.64159" lon="6.0119">
        <ele>1283.6</ele>
        <time>2023-05-15T11:00:38Z</time>
      </trkpt>
      <trkpt lat="44.64162" lon="6.0119">
        <ele>1283.8</ele>
        <time>2023-05-15T11:00:39Z</time>
      </trkpt>
      <trkpt lat="44.64163" lon="6.0119">
        <ele>1283.8</ele>
        <time>2023-05-15T11:00:40Z</time>
      </trkpt>
      <trkpt lat="44.64162" lon="6.01192">
        <ele>1283.8</ele>
        <time>2023-05-15T11:00:41Z</time>
      </trkpt>
      <trkpt lat="44.64163" lon="6.01193">
        <ele>1284</ele>
        <time>2023-05-15T11:00:42Z</time>
      </trkpt>
      <trkpt lat="44.64164" lon="6.01197">
        <ele>1284</ele>
        <time>2023-05-15T11:00:43Z</time>
      </trkpt>
      <trkpt lat="44.64165" lon="6.01202">
        <ele>1284</ele>
        <time>2023-05-15T11:00:44Z</time>
      </trkpt>
      <trkpt lat="44.64167" lon="6.01211">
        <ele>1284.2</ele>
        <time>2023-05-15T11:00:46Z</time>
      </trkpt>
      <trkpt lat="44.64169" lon="6.01213">
        <ele>1284.2</ele>
        <time>2023-05-15T11:00:47Z</time>
      </trkpt>
      <trkpt lat="44.64173" lon="6.01213">
        <ele>1284.4</ele>
        <time>2023-05-15T11:00:48Z</time>
      </trkpt>
      <trkpt lat="44.64177" lon="6.01212">
        <ele>1284.4</ele>
        <time>2023-05-15T11:00:49Z</time>
      </trkpt>
      <trkpt lat="44.6418" lon="6.01211">
        <ele>1284.4</ele>
        <time>2023-05-15T11:00:50Z</time>
      </trkpt>
      <trkpt lat="44.64181" lon="6.01211">
        <ele>1284.6</ele>
        <time>2023-05-15T11:00:51Z</time>
      </trkpt>
      <trkpt lat="44.64184" lon="6.0121">
        <ele>1284.6</ele>
        <time>2023-05-15T11:00:52Z</time>
      </trkpt>
      <trkpt lat="44.64184" lon="6.0121">
        <ele>1284.8</ele>
        <time>2023-05-15T11:00:53Z</time>
      </trkpt>
      <trkpt lat="44.64185" lon="6.01211">
        <ele>1285</ele>
        <time>2023-05-15T11:00:55Z</time>
      </trkpt>
      <trkpt lat="44.64185" lon="6.01211">
        <ele>1284.8</ele>
        <time>2023-05-15T11:01:02Z</time>
      </trkpt>
      <trkpt lat="44.64186" lon="6.01213">
        <ele>1284.4</ele>
        <time>2023-05-15T11:01:08Z</time>
      </trkpt>
      <trkpt lat="44.64187" lon="6.01217">
        <ele>1284.4</ele>
        <time>2023-05-15T11:01:10Z</time>
      </trkpt>
      <trkpt lat="44.64188" lon="6.01219">
        <ele>1284.4</ele>
        <time>2023-05-15T11:01:12Z</time>
      </trkpt>
      <trkpt lat="44.64189" lon="6.0122">
        <ele>1284.4</ele>
        <time>2023-05-15T11:01:13Z</time>
      </trkpt>
      <trkpt lat="44.64189" lon="6.0122">
        <ele>1284.2</ele>
        <time>2023-05-15T11:01:14Z</time>
      </trkpt>
      <trkpt lat="44.64189" lon="6.0122">
        <ele>1284.2</ele>
        <time>2023-05-15T11:01:15Z</time>
      </trkpt>
      <trkpt lat="44.64189" lon="6.0122">
        <ele>1284.2</ele>
        <time>2023-05-15T11:01:16Z</time>
      </trkpt>
      <trkpt lat="44.64189" lon="6.01221">
        <ele>1284.2</ele>
        <time>2023-05-15T11:01:18Z</time>
      </trkpt>
      <trkpt lat="44.64189" lon="6.01222">
        <ele>1284.4</ele>
        <time>2023-05-15T11:01:28Z</time>
      </trkpt>
      <trkpt lat="44.64187" lon="6.01223">
        <ele>1284.6</ele>
        <time>2023-05-15T11:01:38Z</time>
      </trkpt>
      <trkpt lat="44.64187" lon="6.01223">
        <ele>1284.6</ele>
        <time>2023-05-15T11:01:40Z</time>
      </trkpt>
      <trkpt lat="44.64187" lon="6.01223">
        <ele>1284.6</ele>
        <time>2023-05-15T11:01:43Z</time>
      </trkpt>
      <trkpt lat="44.64187" lon="6.01223">
        <ele>1284.6</ele>
        <time>2023-05-15T11:01:45Z</time>
      </trkpt>
      <trkpt lat="44.64187" lon="6.01223">
        <ele>1284.2</ele>
        <time>2023-05-15T11:01:52Z</time>
      </trkpt>
      <trkpt lat="44.64188" lon="6.01222">
        <ele>1283.8</ele>
        <time>2023-05-15T11:02:05Z</time>
      </trkpt>
      <trkpt lat="44.64188" lon="6.01222">
        <ele>1283.8</ele>
        <time>2023-05-15T11:02:06Z</time>
      </trkpt>
      <trkpt lat="44.64188" lon="6.01222">
        <ele>1284.4</ele>
        <time>2023-05-15T11:02:13Z</time>
      </trkpt>
      <trkpt lat="44.64188" lon="6.01222">
        <ele>1284.8</ele>
        <time>2023-05-15T11:02:17Z</time>
      </trkpt>
      <trkpt lat="44.64188" lon="6.01222">
        <ele>1285.2</ele>
        <time>2023-05-15T11:02:24Z</time>
      </trkpt>
      <trkpt lat="44.64188" lon="6.01222">
        <ele>1285.2</ele>
        <time>2023-05-15T11:02:35Z</time>
      </trkpt>
      <trkpt lat="44.64188" lon="6.01222">
        <ele>1285.2</ele>
        <time>2023-05-15T11:02:36Z</time>
      </trkpt>
      <trkpt lat="44.64188" lon="6.01222">
        <ele>1284.8</ele>
        <time>2023-05-15T11:02:50Z</time>
      </trkpt>
      <trkpt lat="44.64188" lon="6.01222">
        <ele>1284.6</ele>
        <time>2023-05-15T11:02:59Z</time>
      </trkpt>
      <trkpt lat="44.64188" lon="6.01222">
        <ele>1284.8</ele>
        <time>2023-05-15T11:03:09Z</time>
      </trkpt>
      <trkpt lat="44.64187" lon="6.01223">
        <ele>1285</ele>
        <time>2023-05-15T11:03:23Z</time>
      </trkpt>
      <trkpt lat="44.64187" lon="6.01223">
        <ele>1285</ele>
        <time>2023-05-15T11:03:31Z</time>
      </trkpt>
      <trkpt lat="44.64187" lon="6.01223">
        <ele>1285.2</ele>
        <time>2023-05-15T11:03:40Z</time>
      </trkpt>
      <trkpt lat="44.64187" lon="6.01224">
        <ele>1285.4</ele>
        <time>2023-05-15T11:03:52Z</time>
      </trkpt>
      <trkpt lat="44.64187" lon="6.01224">
        <ele>1285.4</ele>
        <time>2023-05-15T11:03:54Z</time>
      </trkpt>
      <trkpt lat="44.64187" lon="6.01224">
        <ele>1285.6</ele>
        <time>2023-05-15T11:04:01Z</time>
      </trkpt>
      <trkpt lat="44.64187" lon="6.01224">
        <ele>1285.8</ele>
        <time>2023-05-15T11:04:05Z</time>
      </trkpt>
      <trkpt lat="44.64187" lon="6.01224">
        <ele>1285.8</ele>
        <time>2023-05-15T11:04:14Z</time>
      </trkpt>
      <trkpt lat="44.64187" lon="6.01224">
        <ele>1286.2</ele>
        <time>2023-05-15T11:04:25Z</time>
      </trkpt>
      <trkpt lat="44.64187" lon="6.01224">
        <ele>1286.4</ele>
        <time>2023-05-15T11:04:38Z</time>
      </trkpt>
      <trkpt lat="44.64187" lon="6.01224">
        <ele>1286.6</ele>
        <time>2023-05-15T11:04:48Z</time>
      </trkpt>
      <trkpt lat="44.64187" lon="6.01224">
        <ele>1286.8</ele>
        <time>2023-05-15T11:04:52Z</time>
      </trkpt>
      <trkpt lat="44.64187" lon="6.01224">
        <ele>1286.8</ele>
        <time>2023-05-15T11:04:56Z</time>
      </trkpt>
      <trkpt lat="44.64187" lon="6.01224">
        <ele>1287</ele>
        <time>2023-05-15T11:05:06Z</time>
      </trkpt>
      <trkpt lat="44.64187" lon="6.01224">
        <ele>1286.6</ele>
        <time>2023-05-15T11:05:16Z</time>
      </trkpt>
      <trkpt lat="44.64187" lon="6.01224">
        <ele>1286.6</ele>
        <time>2023-05-15T11:05:25Z</time>
      </trkpt>
      <trkpt lat="44.64187" lon="6.01224">
        <ele>1286.4</ele>
        <time>2023-05-15T11:05:34Z</time>
      </trkpt>
      <trkpt lat="44.64187" lon="6.01224">
        <ele>1286.2</ele>
        <time>2023-05-15T11:05:46Z</time>
      </trkpt>
      <trkpt lat="44.64187" lon="6.01224">
        <ele>1285.6</ele>
        <time>2023-05-15T11:05:56Z</time>
      </trkpt>
      <trkpt lat="44.64187" lon="6.01224">
        <ele>1285.4</ele>
        <time>2023-05-15T11:06:05Z</time>
      </trkpt>
      <trkpt lat="44.64186" lon="6.01226">
        <ele>1285.2</ele>
        <time>2023-05-15T11:06:09Z</time>
      </trkpt>
      <trkpt lat="44.64186" lon="6.01226">
        <ele>1285</ele>
        <time>2023-05-15T11:06:12Z</time>
      </trkpt>
      <trkpt lat="44.64186" lon="6.01226">
        <ele>1285</ele>
        <time>2023-05-15T11:06:14Z</time>
      </trkpt>
      <trkpt lat="44.64186" lon="6.01226">
        <ele>1285</ele>
        <time>2023-05-15T11:06:16Z</time>
      </trkpt>
      <trkpt lat="44.64186" lon="6.01226">
        <ele>1285</ele>
        <time>2023-05-15T11:06:17Z</time>
      </trkpt>
      <trkpt lat="44.64186" lon="6.01226">
        <ele>1285</ele>
        <time>2023-05-15T11:06:22Z</time>
      </trkpt>
      <trkpt lat="44.64186" lon="6.01226">
        <ele>1285.2</ele>
        <time>2023-05-15T11:06:35Z</time>
      </trkpt>
      <trkpt lat="44.64186" lon="6.01226">
        <ele>1285.2</ele>
        <time>2023-05-15T11:06:45Z</time>
      </trkpt>
      <trkpt lat="44.64186" lon="6.01226">
        <ele>1285</ele>
        <time>2023-05-15T11:06:55Z</time>
      </trkpt>
      <trkpt lat="44.64186" lon="6.01226">
        <ele>1285</ele>
        <time>2023-05-15T11:06:58Z</time>
      </trkpt>
      <trkpt lat="44.64186" lon="6.01226">
        <ele>1285</ele>
        <time>2023-05-15T11:07:06Z</time>
      </trkpt>
      <trkpt lat="44.64186" lon="6.01226">
        <ele>1285</ele>
        <time>2023-05-15T11:07:15Z</time>
      </trkpt>
      <trkpt lat="44.64186" lon="6.01226">
        <ele>1285</ele>
        <time>2023-05-15T11:07:17Z</time>
      </trkpt>
      <trkpt lat="44.64186" lon="6.01226">
        <ele>1285</ele>
        <time>2023-05-15T11:07:29Z</time>
      </trkpt>
      <trkpt lat="44.64186" lon="6.01226">
        <ele>1285</ele>
        <time>2023-05-15T11:07:33Z</time>
      </trkpt>
      <trkpt lat="44.64186" lon="6.01226">
        <ele>1285</ele>
        <time>2023-05-15T11:07:38Z</time>
      </trkpt>
      <trkpt lat="44.64186" lon="6.01226">
        <ele>1285.2</ele>
        <time>2023-05-15T11:07:51Z</time>
      </trkpt>
      <trkpt lat="44.64186" lon="6.01226">
        <ele>1285.2</ele>
        <time>2023-05-15T11:08:08Z</time>
      </trkpt>
      <trkpt lat="44.64186" lon="6.01226">
        <ele>1285.4</ele>
        <time>2023-05-15T11:08:10Z</time>
      </trkpt>
      <trkpt lat="44.64186" lon="6.01226">
        <ele>1285.6</ele>
        <time>2023-05-15T11:08:21Z</time>
      </trkpt>
      <trkpt lat="44.64186" lon="6.01226">
        <ele>1285.4</ele>
        <time>2023-05-15T11:08:26Z</time>
      </trkpt>
      <trkpt lat="44.64186" lon="6.01226">
        <ele>1285.4</ele>
        <time>2023-05-15T11:08:32Z</time>
      </trkpt>
      <trkpt lat="44.64186" lon="6.01226">
        <ele>1285</ele>
        <time>2023-05-15T11:08:43Z</time>
      </trkpt>
      <trkpt lat="44.64186" lon="6.01226">
        <ele>1285</ele>
        <time>2023-05-15T11:08:44Z</time>
      </trkpt>
      <trkpt lat="44.64186" lon="6.01226">
        <ele>1285.8</ele>
        <time>2023-05-15T11:08:52Z</time>
      </trkpt>
      <trkpt lat="44.64186" lon="6.01226">
        <ele>1285.8</ele>
        <time>2023-05-15T11:09:02Z</time>
      </trkpt>
      <trkpt lat="44.64186" lon="6.01226">
        <ele>1285.8</ele>
        <time>2023-05-15T11:09:04Z</time>
      </trkpt>
      <trkpt lat="44.64186" lon="6.01226">
        <ele>1285.8</ele>
        <time>2023-05-15T11:09:15Z</time>
      </trkpt>
      <trkpt lat="44.64186" lon="6.01226">
        <ele>1285.8</ele>
        <time>2023-05-15T11:09:23Z</time>
      </trkpt>
      <trkpt lat="44.64186" lon="6.01226">
        <ele>1285.8</ele>
        <time>2023-05-15T11:09:31Z</time>
      </trkpt>
      <trkpt lat="44.64186" lon="6.01226">
        <ele>1285.4</ele>
        <time>2023-05-15T11:09:44Z</time>
      </trkpt>
      <trkpt lat="44.64186" lon="6.01226">
        <ele>1285.4</ele>
        <time>2023-05-15T11:09:55Z</time>
      </trkpt>
      <trkpt lat="44.64186" lon="6.01226">
        <ele>1286.2</ele>
        <time>2023-05-15T11:10:07Z</time>
      </trkpt>
      <trkpt lat="44.64186" lon="6.01226">
        <ele>1286.2</ele>
        <time>2023-05-15T11:10:10Z</time>
      </trkpt>
      <trkpt lat="44.64186" lon="6.01226">
        <ele>1286</ele>
        <time>2023-05-15T11:10:29Z</time>
      </trkpt>
      <trkpt lat="44.64186" lon="6.01226">
        <ele>1286</ele>
        <time>2023-05-15T11:10:30Z</time>
      </trkpt>
      <trkpt lat="44.64186" lon="6.01226">
        <ele>1286.2</ele>
        <time>2023-05-15T11:10:43Z</time>
      </trkpt>
      <trkpt lat="44.64186" lon="6.01226">
        <ele>1286.4</ele>
        <time>2023-05-15T11:10:45Z</time>
      </trkpt>
      <trkpt lat="44.64186" lon="6.01226">
        <ele>1286.4</ele>
        <time>2023-05-15T11:10:52Z</time>
      </trkpt>
      <trkpt lat="44.64186" lon="6.01226">
        <ele>1286.4</ele>
        <time>2023-05-15T11:10:53Z</time>
      </trkpt>
      <trkpt lat="44.64186" lon="6.01226">
        <ele>1285.8</ele>
        <time>2023-05-15T11:11:04Z</time>
      </trkpt>
      <trkpt lat="44.64185" lon="6.01227">
        <ele>1286.2</ele>
        <time>2023-05-15T11:11:13Z</time>
      </trkpt>
      <trkpt lat="44.64185" lon="6.01227">
        <ele>1286.2</ele>
        <time>2023-05-15T11:11:16Z</time>
      </trkpt>
      <trkpt lat="44.64185" lon="6.01227">
        <ele>1286</ele>
        <time>2023-05-15T11:11:28Z</time>
      </trkpt>
      <trkpt lat="44.64185" lon="6.01227">
        <ele>1285.8</ele>
        <time>2023-05-15T11:11:38Z</time>
      </trkpt>
      <trkpt lat="44.64185" lon="6.01227">
        <ele>1286</ele>
        <time>2023-05-15T11:11:45Z</time>
      </trkpt>
      <trkpt lat="44.64185" lon="6.01227">
        <ele>1285.8</ele>
        <time>2023-05-15T11:11:50Z</time>
      </trkpt>
      <trkpt lat="44.64185" lon="6.01227">
        <ele>1285.8</ele>
        <time>2023-05-15T11:11:57Z</time>
      </trkpt>
      <trkpt lat="44.64185" lon="6.01227">
        <ele>1286</ele>
        <time>2023-05-15T11:12:19Z</time>
      </trkpt>
      <trkpt lat="44.64185" lon="6.01227">
        <ele>1286</ele>
        <time>2023-05-15T11:12:21Z</time>
      </trkpt>
      <trkpt lat="44.64185" lon="6.01227">
        <ele>1286.2</ele>
        <time>2023-05-15T11:12:39Z</time>
      </trkpt>
      <trkpt lat="44.64185" lon="6.01227">
        <ele>1286.4</ele>
        <time>2023-05-15T11:12:53Z</time>
      </trkpt>
      <trkpt lat="44.64185" lon="6.01227">
        <ele>1286.4</ele>
        <time>2023-05-15T11:12:55Z</time>
      </trkpt>
      <trkpt lat="44.64185" lon="6.01227">
        <ele>1286.8</ele>
        <time>2023-05-15T11:13:08Z</time>
      </trkpt>
      <trkpt lat="44.64185" lon="6.01227">
        <ele>1287.2</ele>
        <time>2023-05-15T11:13:21Z</time>
      </trkpt>
      <trkpt lat="44.64185" lon="6.01227">
        <ele>1287.4</ele>
        <time>2023-05-15T11:13:28Z</time>
      </trkpt>
      <trkpt lat="44.64185" lon="6.01227">
        <ele>1287.6</ele>
        <time>2023-05-15T11:13:34Z</time>
      </trkpt>
      <trkpt lat="44.64185" lon="6.01227">
        <ele>1288</ele>
        <time>2023-05-15T11:13:50Z</time>
      </trkpt>
      <trkpt lat="44.64185" lon="6.01227">
        <ele>1287.8</ele>
        <time>2023-05-15T11:14:07Z</time>
      </trkpt>
      <trkpt lat="44.64185" lon="6.01227">
        <ele>1287.8</ele>
        <time>2023-05-15T11:14:21Z</time>
      </trkpt>
      <trkpt lat="44.64185" lon="6.01227">
        <ele>1287.8</ele>
        <time>2023-05-15T11:14:29Z</time>
      </trkpt>
      <trkpt lat="44.64185" lon="6.01227">
        <ele>1287.6</ele>
        <time>2023-05-15T11:14:39Z</time>
      </trkpt>
      <trkpt lat="44.64185" lon="6.01227">
        <ele>1287.2</ele>
        <time>2023-05-15T11:14:52Z</time>
      </trkpt>
      <trkpt lat="44.64185" lon="6.01227">
        <ele>1287.2</ele>
        <time>2023-05-15T11:14:55Z</time>
      </trkpt>
      <trkpt lat="44.64185" lon="6.01227">
        <ele>1287.2</ele>
        <time>2023-05-15T11:15:04Z</time>
      </trkpt>
      <trkpt lat="44.64185" lon="6.01227">
        <ele>1286.8</ele>
        <time>2023-05-15T11:15:20Z</time>
      </trkpt>
      <trkpt lat="44.64185" lon="6.01227">
        <ele>1286.4</ele>
        <time>2023-05-15T11:15:31Z</time>
      </trkpt>
      <trkpt lat="44.64185" lon="6.01227">
        <ele>1286.4</ele>
        <time>2023-05-15T11:15:44Z</time>
      </trkpt>
      <trkpt lat="44.64185" lon="6.01227">
        <ele>1286.6</ele>
        <time>2023-05-15T11:15:58Z</time>
      </trkpt>
      <trkpt lat="44.64185" lon="6.01227">
        <ele>1286.2</ele>
        <time>2023-05-15T11:16:17Z</time>
      </trkpt>
      <trkpt lat="44.64187" lon="6.01228">
        <ele>1286.4</ele>
        <time>2023-05-15T11:16:26Z</time>
      </trkpt>
      <trkpt lat="44.64187" lon="6.01227">
        <ele>1286.4</ele>
        <time>2023-05-15T11:16:27Z</time>
      </trkpt>
      <trkpt lat="44.64189" lon="6.01227">
        <ele>1286.4</ele>
        <time>2023-05-15T11:16:30Z</time>
      </trkpt>
      <trkpt lat="44.64189" lon="6.01227">
        <ele>1286.6</ele>
        <time>2023-05-15T11:16:32Z</time>
      </trkpt>
      <trkpt lat="44.64189" lon="6.01227">
        <ele>1286.8</ele>
        <time>2023-05-15T11:16:33Z</time>
      </trkpt>
      <trkpt lat="44.64191" lon="6.01227">
        <ele>1286.8</ele>
        <time>2023-05-15T11:16:34Z</time>
      </trkpt>
      <trkpt lat="44.64198" lon="6.0123">
        <ele>1287.4</ele>
        <time>2023-05-15T11:16:38Z</time>
      </trkpt>
      <trkpt lat="44.64199" lon="6.0123">
        <ele>1287.6</ele>
        <time>2023-05-15T11:16:39Z</time>
      </trkpt>
      <trkpt lat="44.64201" lon="6.0123">
        <ele>1288</ele>
        <time>2023-05-15T11:16:40Z</time>
      </trkpt>
      <trkpt lat="44.64202" lon="6.0123">
        <ele>1288.4</ele>
        <time>2023-05-15T11:16:42Z</time>
      </trkpt>
      <trkpt lat="44.64202" lon="6.0123">
        <ele>1288.8</ele>
        <time>2023-05-15T11:16:43Z</time>
      </trkpt>
      <trkpt lat="44.64204" lon="6.01231">
        <ele>1289</ele>
        <time>2023-05-15T11:16:44Z</time>
      </trkpt>
      <trkpt lat="44.64205" lon="6.01232">
        <ele>1289.6</ele>
        <time>2023-05-15T11:16:46Z</time>
      </trkpt>
      <trkpt lat="44.64205" lon="6.01232">
        <ele>1289.8</ele>
        <time>2023-05-15T11:16:48Z</time>
      </trkpt>
      <trkpt lat="44.64205" lon="6.01232">
        <ele>1290</ele>
        <time>2023-05-15T11:16:49Z</time>
      </trkpt>
      <trkpt lat="44.64208" lon="6.01233">
        <ele>1290</ele>
        <time>2023-05-15T11:16:51Z</time>
      </trkpt>
      <trkpt lat="44.64209" lon="6.01233">
        <ele>1290.2</ele>
        <time>2023-05-15T11:16:52Z</time>
      </trkpt>
      <trkpt lat="44.64209" lon="6.01233">
        <ele>1290.2</ele>
        <time>2023-05-15T11:16:53Z</time>
      </trkpt>
      <trkpt lat="44.64209" lon="6.01233">
        <ele>1290.4</ele>
        <time>2023-05-15T11:16:54Z</time>
      </trkpt>
      <trkpt lat="44.6421" lon="6.01233">
        <ele>1290.4</ele>
        <time>2023-05-15T11:16:55Z</time>
      </trkpt>
      <trkpt lat="44.6421" lon="6.01234">
        <ele>1290.6</ele>
        <time>2023-05-15T11:16:56Z</time>
      </trkpt>
      <trkpt lat="44.6421" lon="6.01234">
        <ele>1290.6</ele>
        <time>2023-05-15T11:16:57Z</time>
      </trkpt>
      <trkpt lat="44.6421" lon="6.01234">
        <ele>1290.8</ele>
        <time>2023-05-15T11:16:58Z</time>
      </trkpt>
      <trkpt lat="44.6421" lon="6.01234">
        <ele>1291</ele>
        <time>2023-05-15T11:16:59Z</time>
      </trkpt>
      <trkpt lat="44.6421" lon="6.01234">
        <ele>1291.2</ele>
        <time>2023-05-15T11:17:01Z</time>
      </trkpt>
      <trkpt lat="44.6421" lon="6.01234">
        <ele>1291.2</ele>
        <time>2023-05-15T11:17:02Z</time>
      </trkpt>
      <trkpt lat="44.6421" lon="6.01234">
        <ele>1291.4</ele>
        <time>2023-05-15T11:17:03Z</time>
      </trkpt>
      <trkpt lat="44.6421" lon="6.01234">
        <ele>1291.4</ele>
        <time>2023-05-15T11:17:04Z</time>
      </trkpt>
      <trkpt lat="44.6421" lon="6.01234">
        <ele>1291.6</ele>
        <time>2023-05-15T11:17:05Z</time>
      </trkpt>
      <trkpt lat="44.64211" lon="6.01234">
        <ele>1292.2</ele>
        <time>2023-05-15T11:17:19Z</time>
      </trkpt>
      <trkpt lat="44.64211" lon="6.01234">
        <ele>1292.2</ele>
        <time>2023-05-15T11:17:26Z</time>
      </trkpt>
      <trkpt lat="44.64214" lon="6.01234">
        <ele>1292.4</ele>
        <time>2023-05-15T11:17:28Z</time>
      </trkpt>
      <trkpt lat="44.64214" lon="6.01234">
        <ele>1292.6</ele>
        <time>2023-05-15T11:17:30Z</time>
      </trkpt>
      <trkpt lat="44.64214" lon="6.01234">
        <ele>1292.6</ele>
        <time>2023-05-15T11:17:32Z</time>
      </trkpt>
      <trkpt lat="44.64214" lon="6.01234">
        <ele>1292.8</ele>
        <time>2023-05-15T11:17:34Z</time>
      </trkpt>
      <trkpt lat="44.64214" lon="6.01234">
        <ele>1293</ele>
        <time>2023-05-15T11:17:39Z</time>
      </trkpt>
      <trkpt lat="44.64215" lon="6.01234">
        <ele>1293</ele>
        <time>2023-05-15T11:17:42Z</time>
      </trkpt>
      <trkpt lat="44.64216" lon="6.01237">
        <ele>1293</ele>
        <time>2023-05-15T11:17:46Z</time>
      </trkpt>
      <trkpt lat="44.64216" lon="6.0124">
        <ele>1293.2</ele>
        <time>2023-05-15T11:17:48Z</time>
      </trkpt>
      <trkpt lat="44.64215" lon="6.01242">
        <ele>1293.2</ele>
        <time>2023-05-15T11:17:49Z</time>
      </trkpt>
      <trkpt lat="44.64215" lon="6.01243">
        <ele>1293.4</ele>
        <time>2023-05-15T11:17:50Z</time>
      </trkpt>
      <trkpt lat="44.64215" lon="6.01244">
        <ele>1293.4</ele>
        <time>2023-05-15T11:17:51Z</time>
      </trkpt>
      <trkpt lat="44.64215" lon="6.01245">
        <ele>1293.6</ele>
        <time>2023-05-15T11:17:52Z</time>
      </trkpt>
      <trkpt lat="44.64215" lon="6.01247">
        <ele>1293.6</ele>
        <time>2023-05-15T11:17:53Z</time>
      </trkpt>
      <trkpt lat="44.64215" lon="6.01249">
        <ele>1293.6</ele>
        <time>2023-05-15T11:17:54Z</time>
      </trkpt>
      <trkpt lat="44.64216" lon="6.0125">
        <ele>1293.8</ele>
        <time>2023-05-15T11:17:55Z</time>
      </trkpt>
      <trkpt lat="44.64216" lon="6.01252">
        <ele>1293.8</ele>
        <time>2023-05-15T11:17:56Z</time>
      </trkpt>
      <trkpt lat="44.64217" lon="6.01253">
        <ele>1293.8</ele>
        <time>2023-05-15T11:17:57Z</time>
      </trkpt>
      <trkpt lat="44.64219" lon="6.01255">
        <ele>1294</ele>
        <time>2023-05-15T11:18:00Z</time>
      </trkpt>
      <trkpt lat="44.64219" lon="6.01256">
        <ele>1294</ele>
        <time>2023-05-15T11:18:01Z</time>
      </trkpt>
      <trkpt lat="44.64219" lon="6.01262">
        <ele>1294.6</ele>
        <time>2023-05-15T11:18:07Z</time>
      </trkpt>
      <trkpt lat="44.64219" lon="6.01264">
        <ele>1294.8</ele>
        <time>2023-05-15T11:18:11Z</time>
      </trkpt>
      <trkpt lat="44.64219" lon="6.01266">
        <ele>1294.8</ele>
        <time>2023-05-15T11:18:12Z</time>
      </trkpt>
      <trkpt lat="44.64217" lon="6.01271">
        <ele>1294.8</ele>
        <time>2023-05-15T11:18:14Z</time>
      </trkpt>
      <trkpt lat="44.64216" lon="6.01273">
        <ele>1294.8</ele>
        <time>2023-05-15T11:18:15Z</time>
      </trkpt>
      <trkpt lat="44.64214" lon="6.01276">
        <ele>1295</ele>
        <time>2023-05-15T11:18:16Z</time>
      </trkpt>
      <trkpt lat="44.64212" lon="6.0128">
        <ele>1295</ele>
        <time>2023-05-15T11:18:17Z</time>
      </trkpt>
      <trkpt lat="44.6421" lon="6.01287">
        <ele>1294.8</ele>
        <time>2023-05-15T11:18:19Z</time>
      </trkpt>
      <trkpt lat="44.64209" lon="6.0129">
        <ele>1294.8</ele>
        <time>2023-05-15T11:18:20Z</time>
      </trkpt>
      <trkpt lat="44.64209" lon="6.01293">
        <ele>1294.8</ele>
        <time>2023-05-15T11:18:21Z</time>
      </trkpt>
      <trkpt lat="44.64209" lon="6.01296">
        <ele>1294.6</ele>
        <time>2023-05-15T11:18:22Z</time>
      </trkpt>
      <trkpt lat="44.6421" lon="6.01299">
        <ele>1294.6</ele>
        <time>2023-05-15T11:18:23Z</time>
      </trkpt>
      <trkpt lat="44.6421" lon="6.01301">
        <ele>1294.6</ele>
        <time>2023-05-15T11:18:24Z</time>
      </trkpt>
      <trkpt lat="44.64211" lon="6.01303">
        <ele>1294.6</ele>
        <time>2023-05-15T11:18:25Z</time>
      </trkpt>
      <trkpt lat="44.64211" lon="6.01306">
        <ele>1294.6</ele>
        <time>2023-05-15T11:18:26Z</time>
      </trkpt>
      <trkpt lat="44.64211" lon="6.01309">
        <ele>1294.8</ele>
        <time>2023-05-15T11:18:27Z</time>
      </trkpt>
      <trkpt lat="44.64212" lon="6.0131">
        <ele>1295</ele>
        <time>2023-05-15T11:18:28Z</time>
      </trkpt>
      <trkpt lat="44.64213" lon="6.01312">
        <ele>1294.8</ele>
        <time>2023-05-15T11:18:29Z</time>
      </trkpt>
      <trkpt lat="44.64214" lon="6.01313">
        <ele>1295</ele>
        <time>2023-05-15T11:18:30Z</time>
      </trkpt>
      <trkpt lat="44.64215" lon="6.01315">
        <ele>1295.2</ele>
        <time>2023-05-15T11:18:31Z</time>
      </trkpt>
      <trkpt lat="44.64216" lon="6.01316">
        <ele>1295.4</ele>
        <time>2023-05-15T11:18:32Z</time>
      </trkpt>
      <trkpt lat="44.64217" lon="6.01317">
        <ele>1295.6</ele>
        <time>2023-05-15T11:18:33Z</time>
      </trkpt>
      <trkpt lat="44.64217" lon="6.01319">
        <ele>1295.6</ele>
        <time>2023-05-15T11:18:34Z</time>
      </trkpt>
      <trkpt lat="44.64218" lon="6.0132">
        <ele>1295.6</ele>
        <time>2023-05-15T11:18:35Z</time>
      </trkpt>
      <trkpt lat="44.64218" lon="6.01323">
        <ele>1295.8</ele>
        <time>2023-05-15T11:18:36Z</time>
      </trkpt>
      <trkpt lat="44.64218" lon="6.01325">
        <ele>1295.8</ele>
        <time>2023-05-15T11:18:37Z</time>
      </trkpt>
      <trkpt lat="44.64217" lon="6.01327">
        <ele>1296</ele>
        <time>2023-05-15T11:18:38Z</time>
      </trkpt>
      <trkpt lat="44.64217" lon="6.01329">
        <ele>1296.2</ele>
        <time>2023-05-15T11:18:39Z</time>
      </trkpt>
      <trkpt lat="44.64216" lon="6.01331">
        <ele>1296.2</ele>
        <time>2023-05-15T11:18:40Z</time>
      </trkpt>
      <trkpt lat="44.64213" lon="6.01337">
        <ele>1296.4</ele>
        <time>2023-05-15T11:18:43Z</time>
      </trkpt>
      <trkpt lat="44.64213" lon="6.01338">
        <ele>1296.4</ele>
        <time>2023-05-15T11:18:44Z</time>
      </trkpt>
      <trkpt lat="44.6421" lon="6.01346">
        <ele>1296.6</ele>
        <time>2023-05-15T11:18:48Z</time>
      </trkpt>
      <trkpt lat="44.6421" lon="6.01348">
        <ele>1296.2</ele>
        <time>2023-05-15T11:18:49Z</time>
      </trkpt>
      <trkpt lat="44.64209" lon="6.01354">
        <ele>1296.2</ele>
        <time>2023-05-15T11:18:51Z</time>
      </trkpt>
      <trkpt lat="44.64209" lon="6.01356">
        <ele>1296.2</ele>
        <time>2023-05-15T11:18:52Z</time>
      </trkpt>
      <trkpt lat="44.64208" lon="6.01361">
        <ele>1296.2</ele>
        <time>2023-05-15T11:18:56Z</time>
      </trkpt>
      <trkpt lat="44.64208" lon="6.01361">
        <ele>1296.2</ele>
        <time>2023-05-15T11:19:10Z</time>
      </trkpt>
      <trkpt lat="44.64208" lon="6.01364">
        <ele>1296.4</ele>
        <time>2023-05-15T11:19:46Z</time>
      </trkpt>
      <trkpt lat="44.64207" lon="6.01364">
        <ele>1296.6</ele>
        <time>2023-05-15T11:19:47Z</time>
      </trkpt>
      <trkpt lat="44.64207" lon="6.01365">
        <ele>1296.6</ele>
        <time>2023-05-15T11:19:48Z</time>
      </trkpt>
      <trkpt lat="44.64207" lon="6.01366">
        <ele>1296.6</ele>
        <time>2023-05-15T11:19:49Z</time>
      </trkpt>
      <trkpt lat="44.64206" lon="6.01367">
        <ele>1296.6</ele>
        <time>2023-05-15T11:19:50Z</time>
      </trkpt>
      <trkpt lat="44.64206" lon="6.01369">
        <ele>1296.8</ele>
        <time>2023-05-15T11:19:52Z</time>
      </trkpt>
      <trkpt lat="44.64205" lon="6.0137">
        <ele>1297</ele>
        <time>2023-05-15T11:19:53Z</time>
      </trkpt>
      <trkpt lat="44.64205" lon="6.01371">
        <ele>1297.2</ele>
        <time>2023-05-15T11:19:54Z</time>
      </trkpt>
      <trkpt lat="44.64205" lon="6.01372">
        <ele>1297.4</ele>
        <time>2023-05-15T11:19:55Z</time>
      </trkpt>
      <trkpt lat="44.64205" lon="6.01373">
        <ele>1297.6</ele>
        <time>2023-05-15T11:19:56Z</time>
      </trkpt>
      <trkpt lat="44.64206" lon="6.01374">
        <ele>1297.6</ele>
        <time>2023-05-15T11:19:57Z</time>
      </trkpt>
      <trkpt lat="44.64206" lon="6.01374">
        <ele>1297.6</ele>
        <time>2023-05-15T11:19:58Z</time>
      </trkpt>
      <trkpt lat="44.64206" lon="6.01375">
        <ele>1297.8</ele>
        <time>2023-05-15T11:19:59Z</time>
      </trkpt>
      <trkpt lat="44.64206" lon="6.01376">
        <ele>1297.8</ele>
        <time>2023-05-15T11:20:00Z</time>
      </trkpt>
      <trkpt lat="44.64206" lon="6.01377">
        <ele>1297.8</ele>
        <time>2023-05-15T11:20:01Z</time>
      </trkpt>
      <trkpt lat="44.64206" lon="6.01378">
        <ele>1297.8</ele>
        <time>2023-05-15T11:20:02Z</time>
      </trkpt>
      <trkpt lat="44.64206" lon="6.01378">
        <ele>1297.8</ele>
        <time>2023-05-15T11:20:03Z</time>
      </trkpt>
      <trkpt lat="44.64206" lon="6.01378">
        <ele>1297.8</ele>
        <time>2023-05-15T11:20:05Z</time>
      </trkpt>
      <trkpt lat="44.64206" lon="6.01383">
        <ele>1297.4</ele>
        <time>2023-05-15T11:20:14Z</time>
      </trkpt>
      <trkpt lat="44.64207" lon="6.01388">
        <ele>1297.2</ele>
        <time>2023-05-15T11:20:16Z</time>
      </trkpt>
      <trkpt lat="44.64206" lon="6.01403">
        <ele>1297.2</ele>
        <time>2023-05-15T11:20:21Z</time>
      </trkpt>
      <trkpt lat="44.64206" lon="6.01406">
        <ele>1297.4</ele>
        <time>2023-05-15T11:20:22Z</time>
      </trkpt>
      <trkpt lat="44.64209" lon="6.01417">
        <ele>1297.6</ele>
        <time>2023-05-15T11:20:26Z</time>
      </trkpt>
      <trkpt lat="44.6421" lon="6.01419">
        <ele>1297.8</ele>
        <time>2023-05-15T11:20:27Z</time>
      </trkpt>
      <trkpt lat="44.64211" lon="6.01421">
        <ele>1297.8</ele>
        <time>2023-05-15T11:20:28Z</time>
      </trkpt>
      <trkpt lat="44.64212" lon="6.01424">
        <ele>1298</ele>
        <time>2023-05-15T11:20:29Z</time>
      </trkpt>
      <trkpt lat="44.64221" lon="6.01443">
        <ele>1298.4</ele>
        <time>2023-05-15T11:20:36Z</time>
      </trkpt>
      <trkpt lat="44.64233" lon="6.01458">
        <ele>1298.6</ele>
        <time>2023-05-15T11:20:43Z</time>
      </trkpt>
      <trkpt lat="44.64238" lon="6.01463">
        <ele>1298.8</ele>
        <time>2023-05-15T11:20:46Z</time>
      </trkpt>
      <trkpt lat="44.64239" lon="6.01464">
        <ele>1298.8</ele>
        <time>2023-05-15T11:20:47Z</time>
      </trkpt>
      <trkpt lat="44.64241" lon="6.01467">
        <ele>1298.8</ele>
        <time>2023-05-15T11:20:49Z</time>
      </trkpt>
      <trkpt lat="44.64243" lon="6.01468">
        <ele>1298.8</ele>
        <time>2023-05-15T11:20:50Z</time>
      </trkpt>
      <trkpt lat="44.64244" lon="6.0147">
        <ele>1299</ele>
        <time>2023-05-15T11:20:51Z</time>
      </trkpt>
      <trkpt lat="44.64246" lon="6.01471">
        <ele>1299</ele>
        <time>2023-05-15T11:20:52Z</time>
      </trkpt>
      <trkpt lat="44.64249" lon="6.01472">
        <ele>1299.4</ele>
        <time>2023-05-15T11:20:54Z</time>
      </trkpt>
      <trkpt lat="44.6425" lon="6.01473">
        <ele>1299.6</ele>
        <time>2023-05-15T11:20:55Z</time>
      </trkpt>
      <trkpt lat="44.64252" lon="6.01473">
        <ele>1299.8</ele>
        <time>2023-05-15T11:20:56Z</time>
      </trkpt>
      <trkpt lat="44.64254" lon="6.01474">
        <ele>1300</ele>
        <time>2023-05-15T11:20:57Z</time>
      </trkpt>
      <trkpt lat="44.64256" lon="6.01475">
        <ele>1300.2</ele>
        <time>2023-05-15T11:20:58Z</time>
      </trkpt>
      <trkpt lat="44.64265" lon="6.01479">
        <ele>1301.4</ele>
        <time>2023-05-15T11:21:03Z</time>
      </trkpt>
      <trkpt lat="44.6427" lon="6.01484">
        <ele>1301.6</ele>
        <time>2023-05-15T11:21:06Z</time>
      </trkpt>
      <trkpt lat="44.64271" lon="6.01484">
        <ele>1301.6</ele>
        <time>2023-05-15T11:21:07Z</time>
      </trkpt>
      <trkpt lat="44.64273" lon="6.01485">
        <ele>1301.8</ele>
        <time>2023-05-15T11:21:08Z</time>
      </trkpt>
      <trkpt lat="44.64274" lon="6.01485">
        <ele>1301.8</ele>
        <time>2023-05-15T11:21:09Z</time>
      </trkpt>
      <trkpt lat="44.64275" lon="6.01485">
        <ele>1302.2</ele>
        <time>2023-05-15T11:21:10Z</time>
      </trkpt>
      <trkpt lat="44.64276" lon="6.01485">
        <ele>1302.2</ele>
        <time>2023-05-15T11:21:11Z</time>
      </trkpt>
      <trkpt lat="44.64276" lon="6.01485">
        <ele>1302.8</ele>
        <time>2023-05-15T11:21:12Z</time>
      </trkpt>
      <trkpt lat="44.64276" lon="6.01485">
        <ele>1302.8</ele>
        <time>2023-05-15T11:21:13Z</time>
      </trkpt>
      <trkpt lat="44.64276" lon="6.01485">
        <ele>1303</ele>
        <time>2023-05-15T11:21:15Z</time>
      </trkpt>
      <trkpt lat="44.64277" lon="6.01488">
        <ele>1303.4</ele>
        <time>2023-05-15T11:21:18Z</time>
      </trkpt>
      <trkpt lat="44.64278" lon="6.0149">
        <ele>1303.4</ele>
        <time>2023-05-15T11:21:19Z</time>
      </trkpt>
      <trkpt lat="44.64278" lon="6.01491">
        <ele>1303.6</ele>
        <time>2023-05-15T11:21:20Z</time>
      </trkpt>
      <trkpt lat="44.64279" lon="6.01492">
        <ele>1303.6</ele>
        <time>2023-05-15T11:21:21Z</time>
      </trkpt>
      <trkpt lat="44.64279" lon="6.01494">
        <ele>1303.6</ele>
        <time>2023-05-15T11:21:22Z</time>
      </trkpt>
      <trkpt lat="44.64279" lon="6.01495">
        <ele>1303.6</ele>
        <time>2023-05-15T11:21:23Z</time>
      </trkpt>
      <trkpt lat="44.64279" lon="6.01495">
        <ele>1303.6</ele>
        <time>2023-05-15T11:21:24Z</time>
      </trkpt>
      <trkpt lat="44.64279" lon="6.01496">
        <ele>1303.6</ele>
        <time>2023-05-15T11:21:25Z</time>
      </trkpt>
      <trkpt lat="44.64278" lon="6.01497">
        <ele>1303.6</ele>
        <time>2023-05-15T11:21:26Z</time>
      </trkpt>
      <trkpt lat="44.64278" lon="6.01497">
        <ele>1303.6</ele>
        <time>2023-05-15T11:21:27Z</time>
      </trkpt>
      <trkpt lat="44.64278" lon="6.01498">
        <ele>1303.8</ele>
        <time>2023-05-15T11:21:28Z</time>
      </trkpt>
      <trkpt lat="44.64278" lon="6.01499">
        <ele>1303.8</ele>
        <time>2023-05-15T11:21:29Z</time>
      </trkpt>
      <trkpt lat="44.64278" lon="6.015">
        <ele>1303.8</ele>
        <time>2023-05-15T11:21:30Z</time>
      </trkpt>
      <trkpt lat="44.64278" lon="6.015">
        <ele>1303.6</ele>
        <time>2023-05-15T11:21:31Z</time>
      </trkpt>
      <trkpt lat="44.64278" lon="6.015">
        <ele>1303.8</ele>
        <time>2023-05-15T11:21:32Z</time>
      </trkpt>
      <trkpt lat="44.64279" lon="6.015">
        <ele>1303.8</ele>
        <time>2023-05-15T11:21:37Z</time>
      </trkpt>
      <trkpt lat="44.64278" lon="6.01502">
        <ele>1303.8</ele>
        <time>2023-05-15T11:21:39Z</time>
      </trkpt>
      <trkpt lat="44.6428" lon="6.01509">
        <ele>1303.6</ele>
        <time>2023-05-15T11:21:41Z</time>
      </trkpt>
      <trkpt lat="44.64281" lon="6.01517">
        <ele>1303.6</ele>
        <time>2023-05-15T11:21:43Z</time>
      </trkpt>
      <trkpt lat="44.64281" lon="6.0152">
        <ele>1303.6</ele>
        <time>2023-05-15T11:21:44Z</time>
      </trkpt>
      <trkpt lat="44.6428" lon="6.01526">
        <ele>1303.2</ele>
        <time>2023-05-15T11:21:46Z</time>
      </trkpt>
      <trkpt lat="44.64279" lon="6.0153">
        <ele>1303</ele>
        <time>2023-05-15T11:21:47Z</time>
      </trkpt>
      <trkpt lat="44.64274" lon="6.01546">
        <ele>1302.2</ele>
        <time>2023-05-15T11:21:51Z</time>
      </trkpt>
      <trkpt lat="44.6427" lon="6.01558">
        <ele>1302</ele>
        <time>2023-05-15T11:21:54Z</time>
      </trkpt>
      <trkpt lat="44.64268" lon="6.01561">
        <ele>1302</ele>
        <time>2023-05-15T11:21:55Z</time>
      </trkpt>
      <trkpt lat="44.64268" lon="6.01563">
        <ele>1302</ele>
        <time>2023-05-15T11:21:56Z</time>
      </trkpt>
      <trkpt lat="44.64267" lon="6.01566">
        <ele>1302</ele>
        <time>2023-05-15T11:21:57Z</time>
      </trkpt>
      <trkpt lat="44.64266" lon="6.01569">
        <ele>1302</ele>
        <time>2023-05-15T11:21:58Z</time>
      </trkpt>
      <trkpt lat="44.64265" lon="6.01572">
        <ele>1301.8</ele>
        <time>2023-05-15T11:21:59Z</time>
      </trkpt>
      <trkpt lat="44.64261" lon="6.01588">
        <ele>1302</ele>
        <time>2023-05-15T11:22:04Z</time>
      </trkpt>
      <trkpt lat="44.64261" lon="6.0159">
        <ele>1302</ele>
        <time>2023-05-15T11:22:05Z</time>
      </trkpt>
      <trkpt lat="44.6426" lon="6.01592">
        <ele>1302.4</ele>
        <time>2023-05-15T11:22:06Z</time>
      </trkpt>
      <trkpt lat="44.6426" lon="6.016">
        <ele>1302.6</ele>
        <time>2023-05-15T11:22:09Z</time>
      </trkpt>
      <trkpt lat="44.6426" lon="6.01603">
        <ele>1302.6</ele>
        <time>2023-05-15T11:22:10Z</time>
      </trkpt>
      <trkpt lat="44.6426" lon="6.01605">
        <ele>1302.8</ele>
        <time>2023-05-15T11:22:11Z</time>
      </trkpt>
      <trkpt lat="44.64261" lon="6.01608">
        <ele>1302.8</ele>
        <time>2023-05-15T11:22:12Z</time>
      </trkpt>
      <trkpt lat="44.64261" lon="6.0161">
        <ele>1302.8</ele>
        <time>2023-05-15T11:22:13Z</time>
      </trkpt>
      <trkpt lat="44.6426" lon="6.01612">
        <ele>1302.8</ele>
        <time>2023-05-15T11:22:14Z</time>
      </trkpt>
      <trkpt lat="44.6426" lon="6.01614">
        <ele>1303</ele>
        <time>2023-05-15T11:22:15Z</time>
      </trkpt>
      <trkpt lat="44.64259" lon="6.01616">
        <ele>1303.2</ele>
        <time>2023-05-15T11:22:16Z</time>
      </trkpt>
      <trkpt lat="44.64258" lon="6.01619">
        <ele>1303.4</ele>
        <time>2023-05-15T11:22:17Z</time>
      </trkpt>
      <trkpt lat="44.64258" lon="6.01622">
        <ele>1303.8</ele>
        <time>2023-05-15T11:22:18Z</time>
      </trkpt>
      <trkpt lat="44.64258" lon="6.01624">
        <ele>1304</ele>
        <time>2023-05-15T11:22:19Z</time>
      </trkpt>
      <trkpt lat="44.64259" lon="6.01627">
        <ele>1304.2</ele>
        <time>2023-05-15T11:22:20Z</time>
      </trkpt>
      <trkpt lat="44.6426" lon="6.0163">
        <ele>1304.4</ele>
        <time>2023-05-15T11:22:21Z</time>
      </trkpt>
      <trkpt lat="44.6426" lon="6.01634">
        <ele>1304.4</ele>
        <time>2023-05-15T11:22:22Z</time>
      </trkpt>
      <trkpt lat="44.64261" lon="6.01643">
        <ele>1304.8</ele>
        <time>2023-05-15T11:22:25Z</time>
      </trkpt>
      <trkpt lat="44.64262" lon="6.01645">
        <ele>1305</ele>
        <time>2023-05-15T11:22:26Z</time>
      </trkpt>
      <trkpt lat="44.64262" lon="6.01647">
        <ele>1305</ele>
        <time>2023-05-15T11:22:27Z</time>
      </trkpt>
      <trkpt lat="44.64262" lon="6.01648">
        <ele>1305</ele>
        <time>2023-05-15T11:22:28Z</time>
      </trkpt>
      <trkpt lat="44.64262" lon="6.01651">
        <ele>1305.2</ele>
        <time>2023-05-15T11:22:29Z</time>
      </trkpt>
      <trkpt lat="44.64263" lon="6.01653">
        <ele>1305.2</ele>
        <time>2023-05-15T11:22:30Z</time>
      </trkpt>
      <trkpt lat="44.64264" lon="6.01655">
        <ele>1305.4</ele>
        <time>2023-05-15T11:22:31Z</time>
      </trkpt>
      <trkpt lat="44.64265" lon="6.01658">
        <ele>1305.4</ele>
        <time>2023-05-15T11:22:32Z</time>
      </trkpt>
      <trkpt lat="44.64266" lon="6.01661">
        <ele>1305.4</ele>
        <time>2023-05-15T11:22:33Z</time>
      </trkpt>
      <trkpt lat="44.64268" lon="6.01664">
        <ele>1305.8</ele>
        <time>2023-05-15T11:22:34Z</time>
      </trkpt>
      <trkpt lat="44.64268" lon="6.01666">
        <ele>1305.8</ele>
        <time>2023-05-15T11:22:35Z</time>
      </trkpt>
      <trkpt lat="44.64269" lon="6.01668">
        <ele>1306.2</ele>
        <time>2023-05-15T11:22:36Z</time>
      </trkpt>
      <trkpt lat="44.64269" lon="6.01668">
        <ele>1306.2</ele>
        <time>2023-05-15T11:22:37Z</time>
      </trkpt>
      <trkpt lat="44.64269" lon="6.01668">
        <ele>1306.4</ele>
        <time>2023-05-15T11:22:38Z</time>
      </trkpt>
      <trkpt lat="44.64269" lon="6.01669">
        <ele>1306.6</ele>
        <time>2023-05-15T11:22:43Z</time>
      </trkpt>
      <trkpt lat="44.64269" lon="6.0167">
        <ele>1306.6</ele>
        <time>2023-05-15T11:22:44Z</time>
      </trkpt>
      <trkpt lat="44.64269" lon="6.0167">
        <ele>1306.8</ele>
        <time>2023-05-15T11:22:45Z</time>
      </trkpt>
      <trkpt lat="44.6427" lon="6.01671">
        <ele>1306.8</ele>
        <time>2023-05-15T11:22:46Z</time>
      </trkpt>
      <trkpt lat="44.6427" lon="6.01673">
        <ele>1307</ele>
        <time>2023-05-15T11:22:48Z</time>
      </trkpt>
      <trkpt lat="44.6427" lon="6.01674">
        <ele>1307</ele>
        <time>2023-05-15T11:22:50Z</time>
      </trkpt>
      <trkpt lat="44.6427" lon="6.01674">
        <ele>1307</ele>
        <time>2023-05-15T11:22:51Z</time>
      </trkpt>
      <trkpt lat="44.6427" lon="6.01674">
        <ele>1307</ele>
        <time>2023-05-15T11:22:52Z</time>
      </trkpt>
      <trkpt lat="44.6427" lon="6.01678">
        <ele>1306.8</ele>
        <time>2023-05-15T11:22:54Z</time>
      </trkpt>
      <trkpt lat="44.64269" lon="6.0168">
        <ele>1306.8</ele>
        <time>2023-05-15T11:22:55Z</time>
      </trkpt>
      <trkpt lat="44.64268" lon="6.01684">
        <ele>1306.6</ele>
        <time>2023-05-15T11:22:57Z</time>
      </trkpt>
      <trkpt lat="44.64266" lon="6.01689">
        <ele>1306.6</ele>
        <time>2023-05-15T11:23:00Z</time>
      </trkpt>
      <trkpt lat="44.64266" lon="6.0169">
        <ele>1306.6</ele>
        <time>2023-05-15T11:23:01Z</time>
      </trkpt>
      <trkpt lat="44.64266" lon="6.01691">
        <ele>1306.6</ele>
        <time>2023-05-15T11:23:02Z</time>
      </trkpt>
      <trkpt lat="44.64266" lon="6.01692">
        <ele>1306.6</ele>
        <time>2023-05-15T11:23:03Z</time>
      </trkpt>
      <trkpt lat="44.64266" lon="6.01693">
        <ele>1306.6</ele>
        <time>2023-05-15T11:23:04Z</time>
      </trkpt>
      <trkpt lat="44.64266" lon="6.01694">
        <ele>1306.6</ele>
        <time>2023-05-15T11:23:05Z</time>
      </trkpt>
      <trkpt lat="44.64266" lon="6.01695">
        <ele>1306.8</ele>
        <time>2023-05-15T11:23:06Z</time>
      </trkpt>
      <trkpt lat="44.64266" lon="6.01696">
        <ele>1306.8</ele>
        <time>2023-05-15T11:23:07Z</time>
      </trkpt>
      <trkpt lat="44.64266" lon="6.01698">
        <ele>1307</ele>
        <time>2023-05-15T11:23:08Z</time>
      </trkpt>
      <trkpt lat="44.64267" lon="6.01699">
        <ele>1307.2</ele>
        <time>2023-05-15T11:23:10Z</time>
      </trkpt>
      <trkpt lat="44.64268" lon="6.01701">
        <ele>1307.6</ele>
        <time>2023-05-15T11:23:11Z</time>
      </trkpt>
      <trkpt lat="44.6427" lon="6.01703">
        <ele>1307.8</ele>
        <time>2023-05-15T11:23:12Z</time>
      </trkpt>
      <trkpt lat="44.6427" lon="6.01705">
        <ele>1307.8</ele>
        <time>2023-05-15T11:23:13Z</time>
      </trkpt>
      <trkpt lat="44.6427" lon="6.01707">
        <ele>1308</ele>
        <time>2023-05-15T11:23:14Z</time>
      </trkpt>
      <trkpt lat="44.64271" lon="6.01709">
        <ele>1308</ele>
        <time>2023-05-15T11:23:15Z</time>
      </trkpt>
      <trkpt lat="44.64271" lon="6.01711">
        <ele>1308</ele>
        <time>2023-05-15T11:23:16Z</time>
      </trkpt>
      <trkpt lat="44.64271" lon="6.01712">
        <ele>1308.2</ele>
        <time>2023-05-15T11:23:17Z</time>
      </trkpt>
      <trkpt lat="44.64271" lon="6.01713">
        <ele>1308.2</ele>
        <time>2023-05-15T11:23:18Z</time>
      </trkpt>
      <trkpt lat="44.64272" lon="6.01715">
        <ele>1308.4</ele>
        <time>2023-05-15T11:23:19Z</time>
      </trkpt>
      <trkpt lat="44.64272" lon="6.01718">
        <ele>1308.4</ele>
        <time>2023-05-15T11:23:20Z</time>
      </trkpt>
      <trkpt lat="44.64272" lon="6.0172">
        <ele>1308.6</ele>
        <time>2023-05-15T11:23:21Z</time>
      </trkpt>
      <trkpt lat="44.64273" lon="6.01722">
        <ele>1308.6</ele>
        <time>2023-05-15T11:23:22Z</time>
      </trkpt>
      <trkpt lat="44.64275" lon="6.01728">
        <ele>1308.8</ele>
        <time>2023-05-15T11:23:24Z</time>
      </trkpt>
      <trkpt lat="44.64275" lon="6.01731">
        <ele>1308.8</ele>
        <time>2023-05-15T11:23:25Z</time>
      </trkpt>
      <trkpt lat="44.64275" lon="6.01733">
        <ele>1308.8</ele>
        <time>2023-05-15T11:23:26Z</time>
      </trkpt>
      <trkpt lat="44.64276" lon="6.01737">
        <ele>1308.8</ele>
        <time>2023-05-15T11:23:27Z</time>
      </trkpt>
      <trkpt lat="44.64277" lon="6.01741">
        <ele>1308.8</ele>
        <time>2023-05-15T11:23:28Z</time>
      </trkpt>
      <trkpt lat="44.64278" lon="6.0175">
        <ele>1308.8</ele>
        <time>2023-05-15T11:23:30Z</time>
      </trkpt>
      <trkpt lat="44.6428" lon="6.01753">
        <ele>1308.8</ele>
        <time>2023-05-15T11:23:31Z</time>
      </trkpt>
      <trkpt lat="44.64283" lon="6.01758">
        <ele>1308.4</ele>
        <time>2023-05-15T11:23:33Z</time>
      </trkpt>
      <trkpt lat="44.64284" lon="6.01759">
        <ele>1308.2</ele>
        <time>2023-05-15T11:23:34Z</time>
      </trkpt>
      <trkpt lat="44.64285" lon="6.01761">
        <ele>1308.4</ele>
        <time>2023-05-15T11:23:35Z</time>
      </trkpt>
      <trkpt lat="44.64285" lon="6.01762">
        <ele>1308.4</ele>
        <time>2023-05-15T11:23:36Z</time>
      </trkpt>
      <trkpt lat="44.64286" lon="6.01763">
        <ele>1308.4</ele>
        <time>2023-05-15T11:23:37Z</time>
      </trkpt>
      <trkpt lat="44.64287" lon="6.01764">
        <ele>1308.4</ele>
        <time>2023-05-15T11:23:38Z</time>
      </trkpt>
      <trkpt lat="44.64287" lon="6.01764">
        <ele>1308.4</ele>
        <time>2023-05-15T11:23:39Z</time>
      </trkpt>
      <trkpt lat="44.64287" lon="6.01765">
        <ele>1308.4</ele>
        <time>2023-05-15T11:23:40Z</time>
      </trkpt>
      <trkpt lat="44.64287" lon="6.01766">
        <ele>1308.6</ele>
        <time>2023-05-15T11:23:41Z</time>
      </trkpt>
      <trkpt lat="44.64288" lon="6.01767">
        <ele>1308.6</ele>
        <time>2023-05-15T11:23:42Z</time>
      </trkpt>
      <trkpt lat="44.6429" lon="6.01773">
        <ele>1309.4</ele>
        <time>2023-05-15T11:23:45Z</time>
      </trkpt>
      <trkpt lat="44.64291" lon="6.01774">
        <ele>1309.6</ele>
        <time>2023-05-15T11:23:46Z</time>
      </trkpt>
      <trkpt lat="44.64291" lon="6.01775">
        <ele>1309.6</ele>
        <time>2023-05-15T11:23:47Z</time>
      </trkpt>
      <trkpt lat="44.64292" lon="6.01776">
        <ele>1309.8</ele>
        <time>2023-05-15T11:23:48Z</time>
      </trkpt>
      <trkpt lat="44.64293" lon="6.01778">
        <ele>1310</ele>
        <time>2023-05-15T11:23:49Z</time>
      </trkpt>
      <trkpt lat="44.64296" lon="6.01785">
        <ele>1310.4</ele>
        <time>2023-05-15T11:23:52Z</time>
      </trkpt>
      <trkpt lat="44.64296" lon="6.01786">
        <ele>1310.6</ele>
        <time>2023-05-15T11:23:53Z</time>
      </trkpt>
      <trkpt lat="44.64297" lon="6.01786">
        <ele>1310.6</ele>
        <time>2023-05-15T11:23:54Z</time>
      </trkpt>
      <trkpt lat="44.64298" lon="6.01788">
        <ele>1310.8</ele>
        <time>2023-05-15T11:23:55Z</time>
      </trkpt>
      <trkpt lat="44.64299" lon="6.01789">
        <ele>1310.8</ele>
        <time>2023-05-15T11:23:56Z</time>
      </trkpt>
      <trkpt lat="44.643" lon="6.01791">
        <ele>1311</ele>
        <time>2023-05-15T11:23:57Z</time>
      </trkpt>
      <trkpt lat="44.64301" lon="6.01792">
        <ele>1311</ele>
        <time>2023-05-15T11:23:58Z</time>
      </trkpt>
      <trkpt lat="44.64302" lon="6.01793">
        <ele>1311.2</ele>
        <time>2023-05-15T11:23:59Z</time>
      </trkpt>
      <trkpt lat="44.64303" lon="6.01797">
        <ele>1311.6</ele>
        <time>2023-05-15T11:24:01Z</time>
      </trkpt>
      <trkpt lat="44.64305" lon="6.018">
        <ele>1311.8</ele>
        <time>2023-05-15T11:24:03Z</time>
      </trkpt>
      <trkpt lat="44.64306" lon="6.01801">
        <ele>1312</ele>
        <time>2023-05-15T11:24:04Z</time>
      </trkpt>
      <trkpt lat="44.64306" lon="6.01803">
        <ele>1312.2</ele>
        <time>2023-05-15T11:24:05Z</time>
      </trkpt>
      <trkpt lat="44.64307" lon="6.01805">
        <ele>1312.4</ele>
        <time>2023-05-15T11:24:06Z</time>
      </trkpt>
      <trkpt lat="44.64308" lon="6.01807">
        <ele>1312.4</ele>
        <time>2023-05-15T11:24:07Z</time>
      </trkpt>
      <trkpt lat="44.64308" lon="6.01809">
        <ele>1312.4</ele>
        <time>2023-05-15T11:24:08Z</time>
      </trkpt>
      <trkpt lat="44.64309" lon="6.01811">
        <ele>1312.6</ele>
        <time>2023-05-15T11:24:09Z</time>
      </trkpt>
      <trkpt lat="44.64309" lon="6.01813">
        <ele>1312.6</ele>
        <time>2023-05-15T11:24:10Z</time>
      </trkpt>
      <trkpt lat="44.6431" lon="6.01815">
        <ele>1313</ele>
        <time>2023-05-15T11:24:11Z</time>
      </trkpt>
      <trkpt lat="44.64311" lon="6.01816">
        <ele>1313.2</ele>
        <time>2023-05-15T11:24:12Z</time>
      </trkpt>
      <trkpt lat="44.64312" lon="6.01817">
        <ele>1313.4</ele>
        <time>2023-05-15T11:24:13Z</time>
      </trkpt>
      <trkpt lat="44.64312" lon="6.01818">
        <ele>1313.4</ele>
        <time>2023-05-15T11:24:14Z</time>
      </trkpt>
      <trkpt lat="44.64313" lon="6.0182">
        <ele>1313.6</ele>
        <time>2023-05-15T11:24:15Z</time>
      </trkpt>
      <trkpt lat="44.64314" lon="6.01821">
        <ele>1313.6</ele>
        <time>2023-05-15T11:24:16Z</time>
      </trkpt>
      <trkpt lat="44.64315" lon="6.01823">
        <ele>1313.8</ele>
        <time>2023-05-15T11:24:17Z</time>
      </trkpt>
      <trkpt lat="44.64316" lon="6.01825">
        <ele>1314</ele>
        <time>2023-05-15T11:24:18Z</time>
      </trkpt>
      <trkpt lat="44.64317" lon="6.01826">
        <ele>1314</ele>
        <time>2023-05-15T11:24:19Z</time>
      </trkpt>
      <trkpt lat="44.64318" lon="6.01828">
        <ele>1314</ele>
        <time>2023-05-15T11:24:20Z</time>
      </trkpt>
      <trkpt lat="44.64319" lon="6.01829">
        <ele>1314</ele>
        <time>2023-05-15T11:24:21Z</time>
      </trkpt>
      <trkpt lat="44.6432" lon="6.01831">
        <ele>1314.2</ele>
        <time>2023-05-15T11:24:22Z</time>
      </trkpt>
      <trkpt lat="44.6432" lon="6.01833">
        <ele>1314.4</ele>
        <time>2023-05-15T11:24:23Z</time>
      </trkpt>
      <trkpt lat="44.64321" lon="6.01834">
        <ele>1314.6</ele>
        <time>2023-05-15T11:24:24Z</time>
      </trkpt>
      <trkpt lat="44.64321" lon="6.01835">
        <ele>1314.6</ele>
        <time>2023-05-15T11:24:25Z</time>
      </trkpt>
      <trkpt lat="44.64322" lon="6.01837">
        <ele>1315</ele>
        <time>2023-05-15T11:24:26Z</time>
      </trkpt>
      <trkpt lat="44.64322" lon="6.01839">
        <ele>1315.2</ele>
        <time>2023-05-15T11:24:27Z</time>
      </trkpt>
      <trkpt lat="44.64322" lon="6.01841">
        <ele>1315.2</ele>
        <time>2023-05-15T11:24:28Z</time>
      </trkpt>
      <trkpt lat="44.64323" lon="6.01844">
        <ele>1315.4</ele>
        <time>2023-05-15T11:24:29Z</time>
      </trkpt>
      <trkpt lat="44.64324" lon="6.01847">
        <ele>1315.4</ele>
        <time>2023-05-15T11:24:30Z</time>
      </trkpt>
      <trkpt lat="44.64326" lon="6.0185">
        <ele>1315.4</ele>
        <time>2023-05-15T11:24:31Z</time>
      </trkpt>
      <trkpt lat="44.64327" lon="6.01853">
        <ele>1315.6</ele>
        <time>2023-05-15T11:24:32Z</time>
      </trkpt>
      <trkpt lat="44.64327" lon="6.01856">
        <ele>1315.8</ele>
        <time>2023-05-15T11:24:33Z</time>
      </trkpt>
      <trkpt lat="44.64326" lon="6.0186">
        <ele>1315.6</ele>
        <time>2023-05-15T11:24:34Z</time>
      </trkpt>
      <trkpt lat="44.64326" lon="6.01864">
        <ele>1315.6</ele>
        <time>2023-05-15T11:24:35Z</time>
      </trkpt>
      <trkpt lat="44.64327" lon="6.01868">
        <ele>1315.4</ele>
        <time>2023-05-15T11:24:36Z</time>
      </trkpt>
      <trkpt lat="44.64328" lon="6.01873">
        <ele>1315.4</ele>
        <time>2023-05-15T11:24:37Z</time>
      </trkpt>
      <trkpt lat="44.64328" lon="6.01878">
        <ele>1315.4</ele>
        <time>2023-05-15T11:24:38Z</time>
      </trkpt>
      <trkpt lat="44.64329" lon="6.01882">
        <ele>1315.4</ele>
        <time>2023-05-15T11:24:39Z</time>
      </trkpt>
      <trkpt lat="44.6433" lon="6.01885">
        <ele>1315.2</ele>
        <time>2023-05-15T11:24:40Z</time>
      </trkpt>
      <trkpt lat="44.64331" lon="6.01889">
        <ele>1315.2</ele>
        <time>2023-05-15T11:24:41Z</time>
      </trkpt>
      <trkpt lat="44.64332" lon="6.01893">
        <ele>1315.2</ele>
        <time>2023-05-15T11:24:42Z</time>
      </trkpt>
      <trkpt lat="44.64332" lon="6.01896">
        <ele>1314.8</ele>
        <time>2023-05-15T11:24:43Z</time>
      </trkpt>
      <trkpt lat="44.64332" lon="6.019">
        <ele>1314.6</ele>
        <time>2023-05-15T11:24:44Z</time>
      </trkpt>
      <trkpt lat="44.64333" lon="6.01902">
        <ele>1314.6</ele>
        <time>2023-05-15T11:24:45Z</time>
      </trkpt>
      <trkpt lat="44.64332" lon="6.01905">
        <ele>1314.4</ele>
        <time>2023-05-15T11:24:46Z</time>
      </trkpt>
      <trkpt lat="44.64331" lon="6.01909">
        <ele>1314.4</ele>
        <time>2023-05-15T11:24:47Z</time>
      </trkpt>
      <trkpt lat="44.64329" lon="6.01913">
        <ele>1314.4</ele>
        <time>2023-05-15T11:24:48Z</time>
      </trkpt>
      <trkpt lat="44.64327" lon="6.01918">
        <ele>1314.4</ele>
        <time>2023-05-15T11:24:49Z</time>
      </trkpt>
      <trkpt lat="44.64325" lon="6.01924">
        <ele>1314.2</ele>
        <time>2023-05-15T11:24:50Z</time>
      </trkpt>
      <trkpt lat="44.64323" lon="6.01929">
        <ele>1314.2</ele>
        <time>2023-05-15T11:24:51Z</time>
      </trkpt>
      <trkpt lat="44.64321" lon="6.01933">
        <ele>1314</ele>
        <time>2023-05-15T11:24:52Z</time>
      </trkpt>
      <trkpt lat="44.6431" lon="6.01956">
        <ele>1313.2</ele>
        <time>2023-05-15T11:24:59Z</time>
      </trkpt>
      <trkpt lat="44.64309" lon="6.01959">
        <ele>1313.2</ele>
        <time>2023-05-15T11:25:00Z</time>
      </trkpt>
      <trkpt lat="44.64308" lon="6.01962">
        <ele>1313</ele>
        <time>2023-05-15T11:25:01Z</time>
      </trkpt>
      <trkpt lat="44.64306" lon="6.01964">
        <ele>1313</ele>
        <time>2023-05-15T11:25:02Z</time>
      </trkpt>
      <trkpt lat="44.64305" lon="6.01967">
        <ele>1313</ele>
        <time>2023-05-15T11:25:03Z</time>
      </trkpt>
      <trkpt lat="44.64304" lon="6.01969">
        <ele>1313</ele>
        <time>2023-05-15T11:25:04Z</time>
      </trkpt>
      <trkpt lat="44.64302" lon="6.0197">
        <ele>1313.2</ele>
        <time>2023-05-15T11:25:05Z</time>
      </trkpt>
      <trkpt lat="44.64301" lon="6.01972">
        <ele>1313.2</ele>
        <time>2023-05-15T11:25:06Z</time>
      </trkpt>
      <trkpt lat="44.64299" lon="6.01974">
        <ele>1313.2</ele>
        <time>2023-05-15T11:25:07Z</time>
      </trkpt>
      <trkpt lat="44.64298" lon="6.01976">
        <ele>1313.2</ele>
        <time>2023-05-15T11:25:08Z</time>
      </trkpt>
      <trkpt lat="44.64297" lon="6.01978">
        <ele>1313.6</ele>
        <time>2023-05-15T11:25:09Z</time>
      </trkpt>
      <trkpt lat="44.64297" lon="6.01979">
        <ele>1313.6</ele>
        <time>2023-05-15T11:25:10Z</time>
      </trkpt>
      <trkpt lat="44.64296" lon="6.01981">
        <ele>1313.6</ele>
        <time>2023-05-15T11:25:11Z</time>
      </trkpt>
      <trkpt lat="44.64295" lon="6.01983">
        <ele>1313.6</ele>
        <time>2023-05-15T11:25:12Z</time>
      </trkpt>
      <trkpt lat="44.64294" lon="6.01985">
        <ele>1313.8</ele>
        <time>2023-05-15T11:25:13Z</time>
      </trkpt>
      <trkpt lat="44.64292" lon="6.01987">
        <ele>1313.8</ele>
        <time>2023-05-15T11:25:14Z</time>
      </trkpt>
      <trkpt lat="44.64291" lon="6.01989">
        <ele>1314</ele>
        <time>2023-05-15T11:25:15Z</time>
      </trkpt>
      <trkpt lat="44.6429" lon="6.01991">
        <ele>1314.4</ele>
        <time>2023-05-15T11:25:16Z</time>
      </trkpt>
      <trkpt lat="44.6429" lon="6.01992">
        <ele>1314.4</ele>
        <time>2023-05-15T11:25:17Z</time>
      </trkpt>
      <trkpt lat="44.64289" lon="6.01994">
        <ele>1314.8</ele>
        <time>2023-05-15T11:25:18Z</time>
      </trkpt>
      <trkpt lat="44.64289" lon="6.01997">
        <ele>1315</ele>
        <time>2023-05-15T11:25:19Z</time>
      </trkpt>
      <trkpt lat="44.64289" lon="6.01999">
        <ele>1315</ele>
        <time>2023-05-15T11:25:20Z</time>
      </trkpt>
      <trkpt lat="44.64289" lon="6.02001">
        <ele>1315.2</ele>
        <time>2023-05-15T11:25:21Z</time>
      </trkpt>
      <trkpt lat="44.64289" lon="6.02001">
        <ele>1315.2</ele>
        <time>2023-05-15T11:25:22Z</time>
      </trkpt>
      <trkpt lat="44.64288" lon="6.02002">
        <ele>1315.4</ele>
        <time>2023-05-15T11:25:23Z</time>
      </trkpt>
      <trkpt lat="44.64288" lon="6.02003">
        <ele>1315.4</ele>
        <time>2023-05-15T11:25:24Z</time>
      </trkpt>
      <trkpt lat="44.64287" lon="6.02003">
        <ele>1315.6</ele>
        <time>2023-05-15T11:25:25Z</time>
      </trkpt>
      <trkpt lat="44.64286" lon="6.02004">
        <ele>1315.8</ele>
        <time>2023-05-15T11:25:26Z</time>
      </trkpt>
      <trkpt lat="44.64284" lon="6.02004">
        <ele>1316</ele>
        <time>2023-05-15T11:25:28Z</time>
      </trkpt>
      <trkpt lat="44.64284" lon="6.02005">
        <ele>1316</ele>
        <time>2023-05-15T11:25:29Z</time>
      </trkpt>
      <trkpt lat="44.64284" lon="6.02005">
        <ele>1316.2</ele>
        <time>2023-05-15T11:25:30Z</time>
      </trkpt>
      <trkpt lat="44.64284" lon="6.02005">
        <ele>1316.2</ele>
        <time>2023-05-15T11:25:31Z</time>
      </trkpt>
      <trkpt lat="44.64284" lon="6.02005">
        <ele>1316.2</ele>
        <time>2023-05-15T11:25:32Z</time>
      </trkpt>
      <trkpt lat="44.64286" lon="6.02007">
        <ele>1316.2</ele>
        <time>2023-05-15T11:25:37Z</time>
      </trkpt>
      <trkpt lat="44.64287" lon="6.02009">
        <ele>1316.2</ele>
        <time>2023-05-15T11:25:38Z</time>
      </trkpt>
      <trkpt lat="44.64287" lon="6.02011">
        <ele>1316.2</ele>
        <time>2023-05-15T11:25:39Z</time>
      </trkpt>
      <trkpt lat="44.64288" lon="6.02013">
        <ele>1316.2</ele>
        <time>2023-05-15T11:25:40Z</time>
      </trkpt>
      <trkpt lat="44.64289" lon="6.02016">
        <ele>1316.2</ele>
        <time>2023-05-15T11:25:42Z</time>
      </trkpt>
      <trkpt lat="44.64289" lon="6.02018">
        <ele>1316</ele>
        <time>2023-05-15T11:25:43Z</time>
      </trkpt>
      <trkpt lat="44.6429" lon="6.0202">
        <ele>1316</ele>
        <time>2023-05-15T11:25:44Z</time>
      </trkpt>
      <trkpt lat="44.6429" lon="6.02022">
        <ele>1316</ele>
        <time>2023-05-15T11:25:45Z</time>
      </trkpt>
      <trkpt lat="44.64291" lon="6.02028">
        <ele>1315.8</ele>
        <time>2023-05-15T11:25:49Z</time>
      </trkpt>
      <trkpt lat="44.64291" lon="6.02029">
        <ele>1315.8</ele>
        <time>2023-05-15T11:25:50Z</time>
      </trkpt>
      <trkpt lat="44.64291" lon="6.02031">
        <ele>1315.8</ele>
        <time>2023-05-15T11:25:51Z</time>
      </trkpt>
      <trkpt lat="44.64292" lon="6.02033">
        <ele>1315.8</ele>
        <time>2023-05-15T11:25:52Z</time>
      </trkpt>
      <trkpt lat="44.64293" lon="6.02036">
        <ele>1315.8</ele>
        <time>2023-05-15T11:25:53Z</time>
      </trkpt>
      <trkpt lat="44.64294" lon="6.02046">
        <ele>1315.8</ele>
        <time>2023-05-15T11:25:57Z</time>
      </trkpt>
      <trkpt lat="44.64295" lon="6.02056">
        <ele>1316</ele>
        <time>2023-05-15T11:26:01Z</time>
      </trkpt>
      <trkpt lat="44.64296" lon="6.02061">
        <ele>1316.2</ele>
        <time>2023-05-15T11:26:03Z</time>
      </trkpt>
      <trkpt lat="44.64297" lon="6.02063">
        <ele>1316.6</ele>
        <time>2023-05-15T11:26:04Z</time>
      </trkpt>
      <trkpt lat="44.64297" lon="6.02066">
        <ele>1316.6</ele>
        <time>2023-05-15T11:26:05Z</time>
      </trkpt>
      <trkpt lat="44.64299" lon="6.0207">
        <ele>1317</ele>
        <time>2023-05-15T11:26:07Z</time>
      </trkpt>
      <trkpt lat="44.64299" lon="6.02073">
        <ele>1317</ele>
        <time>2023-05-15T11:26:08Z</time>
      </trkpt>
      <trkpt lat="44.64301" lon="6.02078">
        <ele>1317</ele>
        <time>2023-05-15T11:26:10Z</time>
      </trkpt>
      <trkpt lat="44.64301" lon="6.02081">
        <ele>1317.2</ele>
        <time>2023-05-15T11:26:11Z</time>
      </trkpt>
      <trkpt lat="44.64301" lon="6.02083">
        <ele>1317.2</ele>
        <time>2023-05-15T11:26:12Z</time>
      </trkpt>
      <trkpt lat="44.64303" lon="6.02088">
        <ele>1317.6</ele>
        <time>2023-05-15T11:26:14Z</time>
      </trkpt>
      <trkpt lat="44.64303" lon="6.0209">
        <ele>1317.8</ele>
        <time>2023-05-15T11:26:15Z</time>
      </trkpt>
      <trkpt lat="44.64306" lon="6.021">
        <ele>1318.2</ele>
        <time>2023-05-15T11:26:19Z</time>
      </trkpt>
      <trkpt lat="44.64306" lon="6.02102">
        <ele>1318.2</ele>
        <time>2023-05-15T11:26:20Z</time>
      </trkpt>
      <trkpt lat="44.64308" lon="6.02107">
        <ele>1318.2</ele>
        <time>2023-05-15T11:26:22Z</time>
      </trkpt>
      <trkpt lat="44.64309" lon="6.02109">
        <ele>1318.2</ele>
        <time>2023-05-15T11:26:23Z</time>
      </trkpt>
      <trkpt lat="44.6431" lon="6.02111">
        <ele>1318.6</ele>
        <time>2023-05-15T11:26:24Z</time>
      </trkpt>
      <trkpt lat="44.64311" lon="6.02112">
        <ele>1318.6</ele>
        <time>2023-05-15T11:26:25Z</time>
      </trkpt>
      <trkpt lat="44.64314" lon="6.02116">
        <ele>1318.6</ele>
        <time>2023-05-15T11:26:27Z</time>
      </trkpt>
      <trkpt lat="44.64319" lon="6.02125">
        <ele>1318.6</ele>
        <time>2023-05-15T11:26:32Z</time>
      </trkpt>
      <trkpt lat="44.64319" lon="6.02126">
        <ele>1318.6</ele>
        <time>2023-05-15T11:26:33Z</time>
      </trkpt>
      <trkpt lat="44.64319" lon="6.02127">
        <ele>1318.8</ele>
        <time>2023-05-15T11:26:34Z</time>
      </trkpt>
      <trkpt lat="44.6432" lon="6.02128">
        <ele>1318.6</ele>
        <time>2023-05-15T11:26:35Z</time>
      </trkpt>
      <trkpt lat="44.64321" lon="6.02129">
        <ele>1318.6</ele>
        <time>2023-05-15T11:26:36Z</time>
      </trkpt>
      <trkpt lat="44.64323" lon="6.02131">
        <ele>1318.6</ele>
        <time>2023-05-15T11:26:37Z</time>
      </trkpt>
      <trkpt lat="44.64324" lon="6.02133">
        <ele>1318.6</ele>
        <time>2023-05-15T11:26:38Z</time>
      </trkpt>
      <trkpt lat="44.64327" lon="6.02139">
        <ele>1318.6</ele>
        <time>2023-05-15T11:26:41Z</time>
      </trkpt>
      <trkpt lat="44.64329" lon="6.02142">
        <ele>1318.6</ele>
        <time>2023-05-15T11:26:43Z</time>
      </trkpt>
      <trkpt lat="44.64334" lon="6.02152">
        <ele>1319.2</ele>
        <time>2023-05-15T11:26:49Z</time>
      </trkpt>
      <trkpt lat="44.64339" lon="6.02159">
        <ele>1319.6</ele>
        <time>2023-05-15T11:26:53Z</time>
      </trkpt>
      <trkpt lat="44.64346" lon="6.02168">
        <ele>1320</ele>
        <time>2023-05-15T11:26:59Z</time>
      </trkpt>
      <trkpt lat="44.64347" lon="6.0217">
        <ele>1320</ele>
        <time>2023-05-15T11:27:00Z</time>
      </trkpt>
      <trkpt lat="44.64348" lon="6.02172">
        <ele>1320.2</ele>
        <time>2023-05-15T11:27:02Z</time>
      </trkpt>
      <trkpt lat="44.64349" lon="6.02173">
        <ele>1320.2</ele>
        <time>2023-05-15T11:27:03Z</time>
      </trkpt>
      <trkpt lat="44.6435" lon="6.02173">
        <ele>1320.2</ele>
        <time>2023-05-15T11:27:04Z</time>
      </trkpt>
      <trkpt lat="44.64351" lon="6.02173">
        <ele>1320.4</ele>
        <time>2023-05-15T11:27:05Z</time>
      </trkpt>
      <trkpt lat="44.64352" lon="6.02173">
        <ele>1320.4</ele>
        <time>2023-05-15T11:27:06Z</time>
      </trkpt>
      <trkpt lat="44.64352" lon="6.02172">
        <ele>1320.6</ele>
        <time>2023-05-15T11:27:07Z</time>
      </trkpt>
      <trkpt lat="44.64353" lon="6.02172">
        <ele>1320.8</ele>
        <time>2023-05-15T11:27:08Z</time>
      </trkpt>
      <trkpt lat="44.64354" lon="6.02171">
        <ele>1320.8</ele>
        <time>2023-05-15T11:27:09Z</time>
      </trkpt>
      <trkpt lat="44.64354" lon="6.02171">
        <ele>1321</ele>
        <time>2023-05-15T11:27:10Z</time>
      </trkpt>
      <trkpt lat="44.64355" lon="6.02171">
        <ele>1321.2</ele>
        <time>2023-05-15T11:27:11Z</time>
      </trkpt>
      <trkpt lat="44.64356" lon="6.02171">
        <ele>1321.2</ele>
        <time>2023-05-15T11:27:12Z</time>
      </trkpt>
      <trkpt lat="44.64356" lon="6.0217">
        <ele>1321.2</ele>
        <time>2023-05-15T11:27:13Z</time>
      </trkpt>
      <trkpt lat="44.64356" lon="6.0217">
        <ele>1321.4</ele>
        <time>2023-05-15T11:27:14Z</time>
      </trkpt>
      <trkpt lat="44.64357" lon="6.0217">
        <ele>1321.8</ele>
        <time>2023-05-15T11:27:16Z</time>
      </trkpt>
      <trkpt lat="44.64358" lon="6.0217">
        <ele>1322</ele>
        <time>2023-05-15T11:27:17Z</time>
      </trkpt>
      <trkpt lat="44.64358" lon="6.0217">
        <ele>1322</ele>
        <time>2023-05-15T11:27:18Z</time>
      </trkpt>
      <trkpt lat="44.64358" lon="6.02171">
        <ele>1322</ele>
        <time>2023-05-15T11:27:19Z</time>
      </trkpt>
      <trkpt lat="44.64359" lon="6.02171">
        <ele>1322.2</ele>
        <time>2023-05-15T11:27:20Z</time>
      </trkpt>
      <trkpt lat="44.64359" lon="6.02172">
        <ele>1322.2</ele>
        <time>2023-05-15T11:27:21Z</time>
      </trkpt>
      <trkpt lat="44.6436" lon="6.02172">
        <ele>1322.4</ele>
        <time>2023-05-15T11:27:23Z</time>
      </trkpt>
      <trkpt lat="44.6436" lon="6.02172">
        <ele>1322.4</ele>
        <time>2023-05-15T11:27:24Z</time>
      </trkpt>
      <trkpt lat="44.6436" lon="6.02172">
        <ele>1322.6</ele>
        <time>2023-05-15T11:27:25Z</time>
      </trkpt>
      <trkpt lat="44.6436" lon="6.02172">
        <ele>1322.6</ele>
        <time>2023-05-15T11:27:27Z</time>
      </trkpt>
      <trkpt lat="44.6436" lon="6.02172">
        <ele>1323</ele>
        <time>2023-05-15T11:27:29Z</time>
      </trkpt>
      <trkpt lat="44.64362" lon="6.02172">
        <ele>1323.8</ele>
        <time>2023-05-15T11:27:33Z</time>
      </trkpt>
      <trkpt lat="44.64362" lon="6.02172">
        <ele>1323.8</ele>
        <time>2023-05-15T11:27:34Z</time>
      </trkpt>
      <trkpt lat="44.64362" lon="6.02172">
        <ele>1324</ele>
        <time>2023-05-15T11:27:35Z</time>
      </trkpt>
      <trkpt lat="44.64363" lon="6.02173">
        <ele>1324.2</ele>
        <time>2023-05-15T11:27:37Z</time>
      </trkpt>
      <trkpt lat="44.64363" lon="6.02173">
        <ele>1324.2</ele>
        <time>2023-05-15T11:27:38Z</time>
      </trkpt>
      <trkpt lat="44.64364" lon="6.02173">
        <ele>1324.2</ele>
        <time>2023-05-15T11:27:39Z</time>
      </trkpt>
      <trkpt lat="44.64365" lon="6.02174">
        <ele>1324.6</ele>
        <time>2023-05-15T11:27:41Z</time>
      </trkpt>
      <trkpt lat="44.64366" lon="6.02175">
        <ele>1324.6</ele>
        <time>2023-05-15T11:27:42Z</time>
      </trkpt>
      <trkpt lat="44.64367" lon="6.02175">
        <ele>1324.6</ele>
        <time>2023-05-15T11:27:43Z</time>
      </trkpt>
      <trkpt lat="44.64368" lon="6.02175">
        <ele>1324.8</ele>
        <time>2023-05-15T11:27:44Z</time>
      </trkpt>
      <trkpt lat="44.64369" lon="6.02175">
        <ele>1325</ele>
        <time>2023-05-15T11:27:45Z</time>
      </trkpt>
      <trkpt lat="44.6437" lon="6.02175">
        <ele>1325</ele>
        <time>2023-05-15T11:27:46Z</time>
      </trkpt>
      <trkpt lat="44.6437" lon="6.02175">
        <ele>1325</ele>
        <time>2023-05-15T11:27:47Z</time>
      </trkpt>
      <trkpt lat="44.64371" lon="6.02175">
        <ele>1325.4</ele>
        <time>2023-05-15T11:27:51Z</time>
      </trkpt>
      <trkpt lat="44.64371" lon="6.02175">
        <ele>1325.6</ele>
        <time>2023-05-15T11:27:52Z</time>
      </trkpt>
      <trkpt lat="44.64372" lon="6.02177">
        <ele>1326</ele>
        <time>2023-05-15T11:27:55Z</time>
      </trkpt>
      <trkpt lat="44.64373" lon="6.02178">
        <ele>1326.2</ele>
        <time>2023-05-15T11:27:56Z</time>
      </trkpt>
      <trkpt lat="44.64374" lon="6.0218">
        <ele>1326.2</ele>
        <time>2023-05-15T11:27:58Z</time>
      </trkpt>
      <trkpt lat="44.64375" lon="6.0218">
        <ele>1326.4</ele>
        <time>2023-05-15T11:27:59Z</time>
      </trkpt>
      <trkpt lat="44.64376" lon="6.0218">
        <ele>1326.4</ele>
        <time>2023-05-15T11:28:01Z</time>
      </trkpt>
      <trkpt lat="44.64377" lon="6.02181">
        <ele>1326.6</ele>
        <time>2023-05-15T11:28:02Z</time>
      </trkpt>
      <trkpt lat="44.64377" lon="6.02181">
        <ele>1326.6</ele>
        <time>2023-05-15T11:28:03Z</time>
      </trkpt>
      <trkpt lat="44.64377" lon="6.02181">
        <ele>1326.8</ele>
        <time>2023-05-15T11:28:06Z</time>
      </trkpt>
      <trkpt lat="44.64377" lon="6.02181">
        <ele>1327.4</ele>
        <time>2023-05-15T11:28:11Z</time>
      </trkpt>
      <trkpt lat="44.64379" lon="6.02183">
        <ele>1327.8</ele>
        <time>2023-05-15T11:28:13Z</time>
      </trkpt>
      <trkpt lat="44.6438" lon="6.02183">
        <ele>1327.8</ele>
        <time>2023-05-15T11:28:14Z</time>
      </trkpt>
      <trkpt lat="44.64381" lon="6.02185">
        <ele>1327.8</ele>
        <time>2023-05-15T11:28:15Z</time>
      </trkpt>
      <trkpt lat="44.64381" lon="6.02185">
        <ele>1327.8</ele>
        <time>2023-05-15T11:28:16Z</time>
      </trkpt>
      <trkpt lat="44.64381" lon="6.02185">
        <ele>1328</ele>
        <time>2023-05-15T11:28:17Z</time>
      </trkpt>
      <trkpt lat="44.64382" lon="6.02186">
        <ele>1328.2</ele>
        <time>2023-05-15T11:28:18Z</time>
      </trkpt>
      <trkpt lat="44.64382" lon="6.02186">
        <ele>1328.2</ele>
        <time>2023-05-15T11:28:19Z</time>
      </trkpt>
      <trkpt lat="44.64382" lon="6.02187">
        <ele>1328.4</ele>
        <time>2023-05-15T11:28:20Z</time>
      </trkpt>
      <trkpt lat="44.64384" lon="6.02188">
        <ele>1328.6</ele>
        <time>2023-05-15T11:28:23Z</time>
      </trkpt>
      <trkpt lat="44.64384" lon="6.02188">
        <ele>1328.8</ele>
        <time>2023-05-15T11:28:24Z</time>
      </trkpt>
      <trkpt lat="44.64384" lon="6.02188">
        <ele>1329</ele>
        <time>2023-05-15T11:28:25Z</time>
      </trkpt>
      <trkpt lat="44.64385" lon="6.02188">
        <ele>1329</ele>
        <time>2023-05-15T11:28:26Z</time>
      </trkpt>
      <trkpt lat="44.64386" lon="6.02189">
        <ele>1329.2</ele>
        <time>2023-05-15T11:28:27Z</time>
      </trkpt>
      <trkpt lat="44.64389" lon="6.02191">
        <ele>1330</ele>
        <time>2023-05-15T11:28:33Z</time>
      </trkpt>
      <trkpt lat="44.64389" lon="6.02191">
        <ele>1330</ele>
        <time>2023-05-15T11:28:34Z</time>
      </trkpt>
      <trkpt lat="44.64389" lon="6.02191">
        <ele>1330.4</ele>
        <time>2023-05-15T11:28:35Z</time>
      </trkpt>
      <trkpt lat="44.64389" lon="6.02191">
        <ele>1330.4</ele>
        <time>2023-05-15T11:28:36Z</time>
      </trkpt>
      <trkpt lat="44.6439" lon="6.02191">
        <ele>1330.6</ele>
        <time>2023-05-15T11:28:37Z</time>
      </trkpt>
      <trkpt lat="44.64389" lon="6.0219">
        <ele>1330.8</ele>
        <time>2023-05-15T11:28:38Z</time>
      </trkpt>
      <trkpt lat="44.64389" lon="6.0219">
        <ele>1330.8</ele>
        <time>2023-05-15T11:28:39Z</time>
      </trkpt>
      <trkpt lat="44.64389" lon="6.0219">
        <ele>1331</ele>
        <time>2023-05-15T11:28:40Z</time>
      </trkpt>
      <trkpt lat="44.64389" lon="6.0219">
        <ele>1331.2</ele>
        <time>2023-05-15T11:28:41Z</time>
      </trkpt>
      <trkpt lat="44.64389" lon="6.0219">
        <ele>1331.4</ele>
        <time>2023-05-15T11:28:42Z</time>
      </trkpt>
      <trkpt lat="44.64389" lon="6.0219">
        <ele>1331.4</ele>
        <time>2023-05-15T11:28:43Z</time>
      </trkpt>
      <trkpt lat="44.64389" lon="6.0219">
        <ele>1331.6</ele>
        <time>2023-05-15T11:28:44Z</time>
      </trkpt>
      <trkpt lat="44.64389" lon="6.0219">
        <ele>1331.8</ele>
        <time>2023-05-15T11:28:45Z</time>
      </trkpt>
      <trkpt lat="44.64389" lon="6.0219">
        <ele>1331.8</ele>
        <time>2023-05-15T11:28:46Z</time>
      </trkpt>
      <trkpt lat="44.64389" lon="6.0219">
        <ele>1332</ele>
        <time>2023-05-15T11:28:47Z</time>
      </trkpt>
      <trkpt lat="44.64389" lon="6.0219">
        <ele>1332.2</ele>
        <time>2023-05-15T11:28:48Z</time>
      </trkpt>
      <trkpt lat="44.64389" lon="6.0219">
        <ele>1332.4</ele>
        <time>2023-05-15T11:28:49Z</time>
      </trkpt>
      <trkpt lat="44.64389" lon="6.0219">
        <ele>1332.8</ele>
        <time>2023-05-15T11:28:50Z</time>
      </trkpt>
      <trkpt lat="44.64389" lon="6.0219">
        <ele>1333</ele>
        <time>2023-05-15T11:28:51Z</time>
      </trkpt>
      <trkpt lat="44.6439" lon="6.0219">
        <ele>1333</ele>
        <time>2023-05-15T11:28:52Z</time>
      </trkpt>
      <trkpt lat="44.6439" lon="6.0219">
        <ele>1333.2</ele>
        <time>2023-05-15T11:28:53Z</time>
      </trkpt>
      <trkpt lat="44.6439" lon="6.0219">
        <ele>1333.4</ele>
        <time>2023-05-15T11:28:54Z</time>
      </trkpt>
      <trkpt lat="44.6439" lon="6.0219">
        <ele>1333.4</ele>
        <time>2023-05-15T11:28:55Z</time>
      </trkpt>
      <trkpt lat="44.64391" lon="6.02189">
        <ele>1333.6</ele>
        <time>2023-05-15T11:28:56Z</time>
      </trkpt>
      <trkpt lat="44.64391" lon="6.02189">
        <ele>1333.6</ele>
        <time>2023-05-15T11:28:57Z</time>
      </trkpt>
      <trkpt lat="44.64391" lon="6.02189">
        <ele>1333.8</ele>
        <time>2023-05-15T11:28:58Z</time>
      </trkpt>
      <trkpt lat="44.64392" lon="6.02189">
        <ele>1334</ele>
        <time>2023-05-15T11:28:59Z</time>
      </trkpt>
      <trkpt lat="44.64392" lon="6.02189">
        <ele>1334</ele>
        <time>2023-05-15T11:29:00Z</time>
      </trkpt>
      <trkpt lat="44.64392" lon="6.02189">
        <ele>1334.2</ele>
        <time>2023-05-15T11:29:01Z</time>
      </trkpt>
      <trkpt lat="44.64393" lon="6.02188">
        <ele>1334.4</ele>
        <time>2023-05-15T11:29:02Z</time>
      </trkpt>
      <trkpt lat="44.64393" lon="6.02188">
        <ele>1334.6</ele>
        <time>2023-05-15T11:29:03Z</time>
      </trkpt>
      <trkpt lat="44.64394" lon="6.02186">
        <ele>1334.6</ele>
        <time>2023-05-15T11:29:04Z</time>
      </trkpt>
      <trkpt lat="44.64396" lon="6.02185">
        <ele>1334.8</ele>
        <time>2023-05-15T11:29:05Z</time>
      </trkpt>
      <trkpt lat="44.64396" lon="6.02185">
        <ele>1335</ele>
        <time>2023-05-15T11:29:06Z</time>
      </trkpt>
      <trkpt lat="44.64396" lon="6.02185">
        <ele>1335.2</ele>
        <time>2023-05-15T11:29:07Z</time>
      </trkpt>
      <trkpt lat="44.64396" lon="6.02185">
        <ele>1335.2</ele>
        <time>2023-05-15T11:29:08Z</time>
      </trkpt>
      <trkpt lat="44.64396" lon="6.02185">
        <ele>1335.4</ele>
        <time>2023-05-15T11:29:09Z</time>
      </trkpt>
      <trkpt lat="44.64396" lon="6.02185">
        <ele>1335.4</ele>
        <time>2023-05-15T11:29:10Z</time>
      </trkpt>
      <trkpt lat="44.64396" lon="6.02185">
        <ele>1335.6</ele>
        <time>2023-05-15T11:29:11Z</time>
      </trkpt>
      <trkpt lat="44.64396" lon="6.02185">
        <ele>1335.8</ele>
        <time>2023-05-15T11:29:12Z</time>
      </trkpt>
      <trkpt lat="44.64396" lon="6.02184">
        <ele>1336</ele>
        <time>2023-05-15T11:29:13Z</time>
      </trkpt>
      <trkpt lat="44.64396" lon="6.02184">
        <ele>1336.2</ele>
        <time>2023-05-15T11:29:14Z</time>
      </trkpt>
      <trkpt lat="44.64396" lon="6.02184">
        <ele>1336.2</ele>
        <time>2023-05-15T11:29:15Z</time>
      </trkpt>
      <trkpt lat="44.64396" lon="6.02184">
        <ele>1336.4</ele>
        <time>2023-05-15T11:29:16Z</time>
      </trkpt>
      <trkpt lat="44.64396" lon="6.02184">
        <ele>1336.6</ele>
        <time>2023-05-15T11:29:17Z</time>
      </trkpt>
      <trkpt lat="44.64396" lon="6.02184">
        <ele>1336.6</ele>
        <time>2023-05-15T11:29:18Z</time>
      </trkpt>
      <trkpt lat="44.64396" lon="6.02184">
        <ele>1336.8</ele>
        <time>2023-05-15T11:29:19Z</time>
      </trkpt>
      <trkpt lat="44.64399" lon="6.02183">
        <ele>1337.2</ele>
        <time>2023-05-15T11:29:23Z</time>
      </trkpt>
      <trkpt lat="44.64399" lon="6.02183">
        <ele>1337.4</ele>
        <time>2023-05-15T11:29:24Z</time>
      </trkpt>
      <trkpt lat="44.64401" lon="6.02177">
        <ele>1338.6</ele>
        <time>2023-05-15T11:29:32Z</time>
      </trkpt>
      <trkpt lat="44.64402" lon="6.02175">
        <ele>1338.8</ele>
        <time>2023-05-15T11:29:33Z</time>
      </trkpt>
      <trkpt lat="44.64402" lon="6.02174">
        <ele>1339</ele>
        <time>2023-05-15T11:29:34Z</time>
      </trkpt>
      <trkpt lat="44.64402" lon="6.02174">
        <ele>1339.2</ele>
        <time>2023-05-15T11:29:35Z</time>
      </trkpt>
      <trkpt lat="44.64402" lon="6.02172">
        <ele>1339.2</ele>
        <time>2023-05-15T11:29:36Z</time>
      </trkpt>
      <trkpt lat="44.64402" lon="6.02169">
        <ele>1339.2</ele>
        <time>2023-05-15T11:29:37Z</time>
      </trkpt>
      <trkpt lat="44.64402" lon="6.02167">
        <ele>1339.4</ele>
        <time>2023-05-15T11:29:38Z</time>
      </trkpt>
      <trkpt lat="44.64402" lon="6.02165">
        <ele>1339.4</ele>
        <time>2023-05-15T11:29:39Z</time>
      </trkpt>
      <trkpt lat="44.64401" lon="6.02163">
        <ele>1339.4</ele>
        <time>2023-05-15T11:29:40Z</time>
      </trkpt>
      <trkpt lat="44.64402" lon="6.02162">
        <ele>1339.6</ele>
        <time>2023-05-15T11:29:41Z</time>
      </trkpt>
      <trkpt lat="44.64402" lon="6.0216">
        <ele>1339.6</ele>
        <time>2023-05-15T11:29:42Z</time>
      </trkpt>
      <trkpt lat="44.64402" lon="6.0216">
        <ele>1339.6</ele>
        <time>2023-05-15T11:29:43Z</time>
      </trkpt>
      <trkpt lat="44.64402" lon="6.02159">
        <ele>1339.6</ele>
        <time>2023-05-15T11:29:44Z</time>
      </trkpt>
      <trkpt lat="44.64402" lon="6.02157">
        <ele>1339.8</ele>
        <time>2023-05-15T11:29:45Z</time>
      </trkpt>
      <trkpt lat="44.64402" lon="6.02156">
        <ele>1339.8</ele>
        <time>2023-05-15T11:29:46Z</time>
      </trkpt>
      <trkpt lat="44.64403" lon="6.02154">
        <ele>1339.8</ele>
        <time>2023-05-15T11:29:47Z</time>
      </trkpt>
      <trkpt lat="44.64403" lon="6.02152">
        <ele>1340.2</ele>
        <time>2023-05-15T11:29:48Z</time>
      </trkpt>
      <trkpt lat="44.64403" lon="6.0215">
        <ele>1340.2</ele>
        <time>2023-05-15T11:29:49Z</time>
      </trkpt>
      <trkpt lat="44.64403" lon="6.0215">
        <ele>1340.2</ele>
        <time>2023-05-15T11:29:50Z</time>
      </trkpt>
      <trkpt lat="44.64403" lon="6.02149">
        <ele>1340.4</ele>
        <time>2023-05-15T11:29:51Z</time>
      </trkpt>
      <trkpt lat="44.64403" lon="6.02148">
        <ele>1340.4</ele>
        <time>2023-05-15T11:29:52Z</time>
      </trkpt>
      <trkpt lat="44.64403" lon="6.02146">
        <ele>1340.4</ele>
        <time>2023-05-15T11:29:53Z</time>
      </trkpt>
      <trkpt lat="44.64403" lon="6.02145">
        <ele>1340.6</ele>
        <time>2023-05-15T11:29:54Z</time>
      </trkpt>
      <trkpt lat="44.64403" lon="6.02144">
        <ele>1340.8</ele>
        <time>2023-05-15T11:29:55Z</time>
      </trkpt>
      <trkpt lat="44.64403" lon="6.02144">
        <ele>1340.8</ele>
        <time>2023-05-15T11:29:56Z</time>
      </trkpt>
      <trkpt lat="44.64403" lon="6.02143">
        <ele>1340.8</ele>
        <time>2023-05-15T11:29:57Z</time>
      </trkpt>
      <trkpt lat="44.64402" lon="6.02142">
        <ele>1341</ele>
        <time>2023-05-15T11:29:58Z</time>
      </trkpt>
      <trkpt lat="44.64403" lon="6.0214">
        <ele>1341.2</ele>
        <time>2023-05-15T11:29:59Z</time>
      </trkpt>
      <trkpt lat="44.64404" lon="6.02138">
        <ele>1341.2</ele>
        <time>2023-05-15T11:30:00Z</time>
      </trkpt>
      <trkpt lat="44.64404" lon="6.02137">
        <ele>1341.4</ele>
        <time>2023-05-15T11:30:02Z</time>
      </trkpt>
      <trkpt lat="44.64404" lon="6.02135">
        <ele>1341.8</ele>
        <time>2023-05-15T11:30:03Z</time>
      </trkpt>
      <trkpt lat="44.64404" lon="6.02134">
        <ele>1342</ele>
        <time>2023-05-15T11:30:04Z</time>
      </trkpt>
      <trkpt lat="44.64404" lon="6.02133">
        <ele>1342</ele>
        <time>2023-05-15T11:30:05Z</time>
      </trkpt>
      <trkpt lat="44.64404" lon="6.02132">
        <ele>1342.2</ele>
        <time>2023-05-15T11:30:06Z</time>
      </trkpt>
      <trkpt lat="44.64404" lon="6.02131">
        <ele>1342.2</ele>
        <time>2023-05-15T11:30:07Z</time>
      </trkpt>
      <trkpt lat="44.64404" lon="6.0213">
        <ele>1342.4</ele>
        <time>2023-05-15T11:30:08Z</time>
      </trkpt>
      <trkpt lat="44.64404" lon="6.0213">
        <ele>1342.4</ele>
        <time>2023-05-15T11:30:09Z</time>
      </trkpt>
      <trkpt lat="44.64404" lon="6.0213">
        <ele>1342.6</ele>
        <time>2023-05-15T11:30:10Z</time>
      </trkpt>
      <trkpt lat="44.64404" lon="6.0213">
        <ele>1342.6</ele>
        <time>2023-05-15T11:30:11Z</time>
      </trkpt>
      <trkpt lat="44.64404" lon="6.02129">
        <ele>1342.8</ele>
        <time>2023-05-15T11:30:12Z</time>
      </trkpt>
      <trkpt lat="44.64405" lon="6.02126">
        <ele>1343</ele>
        <time>2023-05-15T11:30:15Z</time>
      </trkpt>
      <trkpt lat="44.64405" lon="6.02125">
        <ele>1343.2</ele>
        <time>2023-05-15T11:30:16Z</time>
      </trkpt>
      <trkpt lat="44.64405" lon="6.02124">
        <ele>1343.6</ele>
        <time>2023-05-15T11:30:17Z</time>
      </trkpt>
      <trkpt lat="44.64405" lon="6.02124">
        <ele>1343.6</ele>
        <time>2023-05-15T11:30:18Z</time>
      </trkpt>
      <trkpt lat="44.64405" lon="6.02123">
        <ele>1343.8</ele>
        <time>2023-05-15T11:30:19Z</time>
      </trkpt>
      <trkpt lat="44.64406" lon="6.02122">
        <ele>1343.8</ele>
        <time>2023-05-15T11:30:20Z</time>
      </trkpt>
      <trkpt lat="44.64406" lon="6.02122">
        <ele>1343.8</ele>
        <time>2023-05-15T11:30:21Z</time>
      </trkpt>
      <trkpt lat="44.64406" lon="6.02122">
        <ele>1344</ele>
        <time>2023-05-15T11:30:22Z</time>
      </trkpt>
      <trkpt lat="44.64406" lon="6.02122">
        <ele>1344</ele>
        <time>2023-05-15T11:30:23Z</time>
      </trkpt>
      <trkpt lat="44.64406" lon="6.02122">
        <ele>1344.2</ele>
        <time>2023-05-15T11:30:24Z</time>
      </trkpt>
      <trkpt lat="44.64405" lon="6.02121">
        <ele>1344.4</ele>
        <time>2023-05-15T11:30:25Z</time>
      </trkpt>
      <trkpt lat="44.64405" lon="6.02118">
        <ele>1344.4</ele>
        <time>2023-05-15T11:30:26Z</time>
      </trkpt>
      <trkpt lat="44.64405" lon="6.02117">
        <ele>1344.4</ele>
        <time>2023-05-15T11:30:27Z</time>
      </trkpt>
      <trkpt lat="44.64405" lon="6.02115">
        <ele>1344.6</ele>
        <time>2023-05-15T11:30:28Z</time>
      </trkpt>
      <trkpt lat="44.64405" lon="6.02114">
        <ele>1344.6</ele>
        <time>2023-05-15T11:30:29Z</time>
      </trkpt>
      <trkpt lat="44.64405" lon="6.02114">
        <ele>1344.6</ele>
        <time>2023-05-15T11:30:30Z</time>
      </trkpt>
      <trkpt lat="44.64405" lon="6.02114">
        <ele>1344.8</ele>
        <time>2023-05-15T11:30:31Z</time>
      </trkpt>
      <trkpt lat="44.64405" lon="6.02113">
        <ele>1344.8</ele>
        <time>2023-05-15T11:30:32Z</time>
      </trkpt>
      <trkpt lat="44.64404" lon="6.02111">
        <ele>1345</ele>
        <time>2023-05-15T11:30:33Z</time>
      </trkpt>
      <trkpt lat="44.64403" lon="6.02105">
        <ele>1345.4</ele>
        <time>2023-05-15T11:30:36Z</time>
      </trkpt>
      <trkpt lat="44.64403" lon="6.02099">
        <ele>1345.8</ele>
        <time>2023-05-15T11:30:39Z</time>
      </trkpt>
      <trkpt lat="44.64404" lon="6.02097">
        <ele>1346</ele>
        <time>2023-05-15T11:30:40Z</time>
      </trkpt>
      <trkpt lat="44.64404" lon="6.02096">
        <ele>1346</ele>
        <time>2023-05-15T11:30:41Z</time>
      </trkpt>
      <trkpt lat="44.64404" lon="6.02093">
        <ele>1346.4</ele>
        <time>2023-05-15T11:30:43Z</time>
      </trkpt>
      <trkpt lat="44.64403" lon="6.02091">
        <ele>1346.6</ele>
        <time>2023-05-15T11:30:44Z</time>
      </trkpt>
      <trkpt lat="44.64404" lon="6.02089">
        <ele>1346.8</ele>
        <time>2023-05-15T11:30:45Z</time>
      </trkpt>
      <trkpt lat="44.64404" lon="6.02088">
        <ele>1346.8</ele>
        <time>2023-05-15T11:30:46Z</time>
      </trkpt>
      <trkpt lat="44.64404" lon="6.02086">
        <ele>1347</ele>
        <time>2023-05-15T11:30:47Z</time>
      </trkpt>
      <trkpt lat="44.64404" lon="6.02084">
        <ele>1347</ele>
        <time>2023-05-15T11:30:48Z</time>
      </trkpt>
      <trkpt lat="44.64403" lon="6.02082">
        <ele>1347</ele>
        <time>2023-05-15T11:30:49Z</time>
      </trkpt>
      <trkpt lat="44.64403" lon="6.02081">
        <ele>1347</ele>
        <time>2023-05-15T11:30:50Z</time>
      </trkpt>
      <trkpt lat="44.64404" lon="6.02079">
        <ele>1347.2</ele>
        <time>2023-05-15T11:30:51Z</time>
      </trkpt>
      <trkpt lat="44.64404" lon="6.02078">
        <ele>1347.2</ele>
        <time>2023-05-15T11:30:52Z</time>
      </trkpt>
      <trkpt lat="44.64405" lon="6.02078">
        <ele>1347.4</ele>
        <time>2023-05-15T11:30:53Z</time>
      </trkpt>
      <trkpt lat="44.64406" lon="6.02076">
        <ele>1347.6</ele>
        <time>2023-05-15T11:30:54Z</time>
      </trkpt>
      <trkpt lat="44.64406" lon="6.02076">
        <ele>1347.6</ele>
        <time>2023-05-15T11:30:55Z</time>
      </trkpt>
      <trkpt lat="44.64406" lon="6.02076">
        <ele>1348</ele>
        <time>2023-05-15T11:30:56Z</time>
      </trkpt>
      <trkpt lat="44.64406" lon="6.02075">
        <ele>1348</ele>
        <time>2023-05-15T11:30:57Z</time>
      </trkpt>
      <trkpt lat="44.64406" lon="6.02074">
        <ele>1348</ele>
        <time>2023-05-15T11:30:58Z</time>
      </trkpt>
      <trkpt lat="44.64407" lon="6.02072">
        <ele>1348</ele>
        <time>2023-05-15T11:30:59Z</time>
      </trkpt>
      <trkpt lat="44.64407" lon="6.02072">
        <ele>1348.2</ele>
        <time>2023-05-15T11:31:00Z</time>
      </trkpt>
      <trkpt lat="44.64407" lon="6.02072">
        <ele>1348.2</ele>
        <time>2023-05-15T11:31:01Z</time>
      </trkpt>
      <trkpt lat="44.64406" lon="6.02071">
        <ele>1348.4</ele>
        <time>2023-05-15T11:31:02Z</time>
      </trkpt>
      <trkpt lat="44.64407" lon="6.0207">
        <ele>1348.4</ele>
        <time>2023-05-15T11:31:03Z</time>
      </trkpt>
      <trkpt lat="44.64407" lon="6.02069">
        <ele>1348.4</ele>
        <time>2023-05-15T11:31:04Z</time>
      </trkpt>
      <trkpt lat="44.64407" lon="6.02069">
        <ele>1348.6</ele>
        <time>2023-05-15T11:31:05Z</time>
      </trkpt>
      <trkpt lat="44.64408" lon="6.02068">
        <ele>1348.8</ele>
        <time>2023-05-15T11:31:06Z</time>
      </trkpt>
      <trkpt lat="44.64408" lon="6.02066">
        <ele>1349</ele>
        <time>2023-05-15T11:31:08Z</time>
      </trkpt>
      <trkpt lat="44.64409" lon="6.02065">
        <ele>1349.2</ele>
        <time>2023-05-15T11:31:09Z</time>
      </trkpt>
      <trkpt lat="44.64409" lon="6.02064">
        <ele>1349.2</ele>
        <time>2023-05-15T11:31:10Z</time>
      </trkpt>
      <trkpt lat="44.64409" lon="6.02063">
        <ele>1349.6</ele>
        <time>2023-05-15T11:31:11Z</time>
      </trkpt>
      <trkpt lat="44.6441" lon="6.02063">
        <ele>1349.6</ele>
        <time>2023-05-15T11:31:13Z</time>
      </trkpt>
      <trkpt lat="44.6441" lon="6.02063">
        <ele>1349.8</ele>
        <time>2023-05-15T11:31:14Z</time>
      </trkpt>
      <trkpt lat="44.6441" lon="6.02063">
        <ele>1349.8</ele>
        <time>2023-05-15T11:31:15Z</time>
      </trkpt>
      <trkpt lat="44.64415" lon="6.02063">
        <ele>1350.2</ele>
        <time>2023-05-15T11:31:22Z</time>
      </trkpt>
      <trkpt lat="44.64416" lon="6.02063">
        <ele>1350.4</ele>
        <time>2023-05-15T11:31:24Z</time>
      </trkpt>
      <trkpt lat="44.64417" lon="6.02063">
        <ele>1350.4</ele>
        <time>2023-05-15T11:31:25Z</time>
      </trkpt>
      <trkpt lat="44.64418" lon="6.02063">
        <ele>1350.4</ele>
        <time>2023-05-15T11:31:26Z</time>
      </trkpt>
      <trkpt lat="44.6442" lon="6.02062">
        <ele>1350.6</ele>
        <time>2023-05-15T11:31:29Z</time>
      </trkpt>
      <trkpt lat="44.6442" lon="6.02062">
        <ele>1350.8</ele>
        <time>2023-05-15T11:31:30Z</time>
      </trkpt>
      <trkpt lat="44.64421" lon="6.02062">
        <ele>1351</ele>
        <time>2023-05-15T11:31:31Z</time>
      </trkpt>
      <trkpt lat="44.64422" lon="6.02062">
        <ele>1351</ele>
        <time>2023-05-15T11:31:32Z</time>
      </trkpt>
      <trkpt lat="44.64423" lon="6.02062">
        <ele>1351.2</ele>
        <time>2023-05-15T11:31:33Z</time>
      </trkpt>
      <trkpt lat="44.64423" lon="6.02062">
        <ele>1351.2</ele>
        <time>2023-05-15T11:31:34Z</time>
      </trkpt>
      <trkpt lat="44.64424" lon="6.02061">
        <ele>1351.2</ele>
        <time>2023-05-15T11:31:35Z</time>
      </trkpt>
      <trkpt lat="44.64426" lon="6.02061">
        <ele>1351.4</ele>
        <time>2023-05-15T11:31:37Z</time>
      </trkpt>
      <trkpt lat="44.64426" lon="6.02061">
        <ele>1351.6</ele>
        <time>2023-05-15T11:31:38Z</time>
      </trkpt>
      <trkpt lat="44.64427" lon="6.02061">
        <ele>1352.2</ele>
        <time>2023-05-15T11:31:41Z</time>
      </trkpt>
      <trkpt lat="44.64428" lon="6.02061">
        <ele>1352.4</ele>
        <time>2023-05-15T11:31:42Z</time>
      </trkpt>
      <trkpt lat="44.64428" lon="6.02061">
        <ele>1352.4</ele>
        <time>2023-05-15T11:31:43Z</time>
      </trkpt>
      <trkpt lat="44.64428" lon="6.02061">
        <ele>1352.4</ele>
        <time>2023-05-15T11:31:44Z</time>
      </trkpt>
      <trkpt lat="44.6443" lon="6.02061">
        <ele>1352.8</ele>
        <time>2023-05-15T11:31:47Z</time>
      </trkpt>
      <trkpt lat="44.6443" lon="6.02061">
        <ele>1352.8</ele>
        <time>2023-05-15T11:31:48Z</time>
      </trkpt>
      <trkpt lat="44.6443" lon="6.02061">
        <ele>1353</ele>
        <time>2023-05-15T11:31:49Z</time>
      </trkpt>
      <trkpt lat="44.6443" lon="6.02061">
        <ele>1353.2</ele>
        <time>2023-05-15T11:31:51Z</time>
      </trkpt>
      <trkpt lat="44.64431" lon="6.02061">
        <ele>1353.8</ele>
        <time>2023-05-15T11:31:54Z</time>
      </trkpt>
      <trkpt lat="44.64432" lon="6.0206">
        <ele>1354</ele>
        <time>2023-05-15T11:31:56Z</time>
      </trkpt>
      <trkpt lat="44.64432" lon="6.0206">
        <ele>1354.2</ele>
        <time>2023-05-15T11:31:57Z</time>
      </trkpt>
      <trkpt lat="44.64433" lon="6.0206">
        <ele>1354.2</ele>
        <time>2023-05-15T11:31:58Z</time>
      </trkpt>
      <trkpt lat="44.64433" lon="6.02059">
        <ele>1354.4</ele>
        <time>2023-05-15T11:31:59Z</time>
      </trkpt>
      <trkpt lat="44.64434" lon="6.02059">
        <ele>1354.4</ele>
        <time>2023-05-15T11:32:00Z</time>
      </trkpt>
      <trkpt lat="44.64435" lon="6.02059">
        <ele>1354.6</ele>
        <time>2023-05-15T11:32:01Z</time>
      </trkpt>
      <trkpt lat="44.64436" lon="6.02058">
        <ele>1354.6</ele>
        <time>2023-05-15T11:32:02Z</time>
      </trkpt>
      <trkpt lat="44.64436" lon="6.02058">
        <ele>1354.6</ele>
        <time>2023-05-15T11:32:03Z</time>
      </trkpt>
      <trkpt lat="44.64436" lon="6.02058">
        <ele>1354.8</ele>
        <time>2023-05-15T11:32:04Z</time>
      </trkpt>
      <trkpt lat="44.64436" lon="6.02058">
        <ele>1355</ele>
        <time>2023-05-15T11:32:05Z</time>
      </trkpt>
      <trkpt lat="44.64436" lon="6.02058">
        <ele>1355</ele>
        <time>2023-05-15T11:32:06Z</time>
      </trkpt>
      <trkpt lat="44.64436" lon="6.02058">
        <ele>1355</ele>
        <time>2023-05-15T11:32:07Z</time>
      </trkpt>
      <trkpt lat="44.64436" lon="6.02058">
        <ele>1355.2</ele>
        <time>2023-05-15T11:32:08Z</time>
      </trkpt>
      <trkpt lat="44.64437" lon="6.02058">
        <ele>1355.4</ele>
        <time>2023-05-15T11:32:12Z</time>
      </trkpt>
      <trkpt lat="44.64437" lon="6.02058">
        <ele>1355.4</ele>
        <time>2023-05-15T11:32:13Z</time>
      </trkpt>
      <trkpt lat="44.64438" lon="6.02056">
        <ele>1355.2</ele>
        <time>2023-05-15T11:32:22Z</time>
      </trkpt>
      <trkpt lat="44.64438" lon="6.02056">
        <ele>1356</ele>
        <time>2023-05-15T11:32:31Z</time>
      </trkpt>
      <trkpt lat="44.64438" lon="6.02055">
        <ele>1356.2</ele>
        <time>2023-05-15T11:32:33Z</time>
      </trkpt>
      <trkpt lat="44.64439" lon="6.02053">
        <ele>1357.4</ele>
        <time>2023-05-15T11:32:42Z</time>
      </trkpt>
      <trkpt lat="44.64439" lon="6.02053">
        <ele>1358.6</ele>
        <time>2023-05-15T11:32:53Z</time>
      </trkpt>
      <trkpt lat="44.64439" lon="6.02053">
        <ele>1358.6</ele>
        <time>2023-05-15T11:32:54Z</time>
      </trkpt>
      <trkpt lat="44.64439" lon="6.02053">
        <ele>1359.2</ele>
        <time>2023-05-15T11:33:04Z</time>
      </trkpt>
      <trkpt lat="44.64439" lon="6.02053">
        <ele>1359.8</ele>
        <time>2023-05-15T11:33:10Z</time>
      </trkpt>
      <trkpt lat="44.64439" lon="6.02053">
        <ele>1360.4</ele>
        <time>2023-05-15T11:33:16Z</time>
      </trkpt>
      <trkpt lat="44.64438" lon="6.0205">
        <ele>1361</ele>
        <time>2023-05-15T11:33:24Z</time>
      </trkpt>
      <trkpt lat="44.64438" lon="6.0205">
        <ele>1362.4</ele>
        <time>2023-05-15T11:33:33Z</time>
      </trkpt>
      <trkpt lat="44.64438" lon="6.02049">
        <ele>1363.4</ele>
        <time>2023-05-15T11:33:42Z</time>
      </trkpt>
      <trkpt lat="44.64438" lon="6.02049">
        <ele>1363.6</ele>
        <time>2023-05-15T11:33:43Z</time>
      </trkpt>
      <trkpt lat="44.64438" lon="6.02049">
        <ele>1364.8</ele>
        <time>2023-05-15T11:33:54Z</time>
      </trkpt>
      <trkpt lat="44.64438" lon="6.02049">
        <ele>1365.4</ele>
        <time>2023-05-15T11:34:01Z</time>
      </trkpt>
      <trkpt lat="44.64438" lon="6.02047">
        <ele>1366</ele>
        <time>2023-05-15T11:34:10Z</time>
      </trkpt>
      <trkpt lat="44.64438" lon="6.02047">
        <ele>1367.2</ele>
        <time>2023-05-15T11:34:25Z</time>
      </trkpt>
      <trkpt lat="44.64438" lon="6.02044">
        <ele>1367.4</ele>
        <time>2023-05-15T11:34:26Z</time>
      </trkpt>
      <trkpt lat="44.64438" lon="6.02044">
        <ele>1368.6</ele>
        <time>2023-05-15T11:34:37Z</time>
      </trkpt>
      <trkpt lat="44.64438" lon="6.02039">
        <ele>1368.6</ele>
        <time>2023-05-15T11:34:39Z</time>
      </trkpt>
      <trkpt lat="44.64438" lon="6.02032">
        <ele>1369.4</ele>
        <time>2023-05-15T11:34:47Z</time>
      </trkpt>
      <trkpt lat="44.64438" lon="6.02032">
        <ele>1369.8</ele>
        <time>2023-05-15T11:34:51Z</time>
      </trkpt>
      <trkpt lat="44.64438" lon="6.0203">
        <ele>1371</ele>
        <time>2023-05-15T11:34:56Z</time>
      </trkpt>
      <trkpt lat="44.64439" lon="6.02026">
        <ele>1371.4</ele>
        <time>2023-05-15T11:34:59Z</time>
      </trkpt>
      <trkpt lat="44.64439" lon="6.02026">
        <ele>1372</ele>
        <time>2023-05-15T11:35:06Z</time>
      </trkpt>
      <trkpt lat="44.64439" lon="6.02023">
        <ele>1372.2</ele>
        <time>2023-05-15T11:35:08Z</time>
      </trkpt>
      <trkpt lat="44.6444" lon="6.02016">
        <ele>1373</ele>
        <time>2023-05-15T11:35:20Z</time>
      </trkpt>
      <trkpt lat="44.64441" lon="6.02013">
        <ele>1373.4</ele>
        <time>2023-05-15T11:35:25Z</time>
      </trkpt>
      <trkpt lat="44.64442" lon="6.02009">
        <ele>1373.8</ele>
        <time>2023-05-15T11:35:30Z</time>
      </trkpt>
      <trkpt lat="44.64442" lon="6.02009">
        <ele>1374.4</ele>
        <time>2023-05-15T11:35:33Z</time>
      </trkpt>
      <trkpt lat="44.64442" lon="6.02007">
        <ele>1375.2</ele>
        <time>2023-05-15T11:35:39Z</time>
      </trkpt>
      <trkpt lat="44.64442" lon="6.02007">
        <ele>1375.4</ele>
        <time>2023-05-15T11:35:41Z</time>
      </trkpt>
      <trkpt lat="44.64443" lon="6.02005">
        <ele>1375.8</ele>
        <time>2023-05-15T11:35:44Z</time>
      </trkpt>
      <trkpt lat="44.64444" lon="6.02004">
        <ele>1376.2</ele>
        <time>2023-05-15T11:35:49Z</time>
      </trkpt>
      <trkpt lat="44.64445" lon="6.02003">
        <ele>1376.6</ele>
        <time>2023-05-15T11:35:56Z</time>
      </trkpt>
      <trkpt lat="44.64445" lon="6.02003">
        <ele>1376.8</ele>
        <time>2023-05-15T11:36:00Z</time>
      </trkpt>
      <trkpt lat="44.64446" lon="6.02">
        <ele>1377</ele>
        <time>2023-05-15T11:36:01Z</time>
      </trkpt>
      <trkpt lat="44.64447" lon="6.02">
        <ele>1377.2</ele>
        <time>2023-05-15T11:36:04Z</time>
      </trkpt>
      <trkpt lat="44.64447" lon="6.02">
        <ele>1377.4</ele>
        <time>2023-05-15T11:36:06Z</time>
      </trkpt>
      <trkpt lat="44.64448" lon="6.01996">
        <ele>1378.2</ele>
        <time>2023-05-15T11:36:16Z</time>
      </trkpt>
      <trkpt lat="44.64449" lon="6.01994">
        <ele>1378.4</ele>
        <time>2023-05-15T11:36:18Z</time>
      </trkpt>
      <trkpt lat="44.6445" lon="6.01992">
        <ele>1378.4</ele>
        <time>2023-05-15T11:36:21Z</time>
      </trkpt>
      <trkpt lat="44.6445" lon="6.01992">
        <ele>1379.4</ele>
        <time>2023-05-15T11:36:27Z</time>
      </trkpt>
      <trkpt lat="44.6445" lon="6.01992">
        <ele>1379.8</ele>
        <time>2023-05-15T11:36:28Z</time>
      </trkpt>
      <trkpt lat="44.6445" lon="6.01992">
        <ele>1379.8</ele>
        <time>2023-05-15T11:36:29Z</time>
      </trkpt>
      <trkpt lat="44.64451" lon="6.0199">
        <ele>1380.8</ele>
        <time>2023-05-15T11:36:36Z</time>
      </trkpt>
      <trkpt lat="44.64451" lon="6.0199">
        <ele>1381</ele>
        <time>2023-05-15T11:36:37Z</time>
      </trkpt>
      <trkpt lat="44.64453" lon="6.01988">
        <ele>1381.2</ele>
        <time>2023-05-15T11:36:40Z</time>
      </trkpt>
      <trkpt lat="44.64453" lon="6.01987">
        <ele>1381.4</ele>
        <time>2023-05-15T11:36:41Z</time>
      </trkpt>
      <trkpt lat="44.64453" lon="6.01987">
        <ele>1381.4</ele>
        <time>2023-05-15T11:36:42Z</time>
      </trkpt>
      <trkpt lat="44.64453" lon="6.01987">
        <ele>1381.4</ele>
        <time>2023-05-15T11:36:43Z</time>
      </trkpt>
      <trkpt lat="44.64453" lon="6.01987">
        <ele>1381.6</ele>
        <time>2023-05-15T11:36:45Z</time>
      </trkpt>
      <trkpt lat="44.64455" lon="6.01984">
        <ele>1382.2</ele>
        <time>2023-05-15T11:36:54Z</time>
      </trkpt>
      <trkpt lat="44.64455" lon="6.01984">
        <ele>1382.2</ele>
        <time>2023-05-15T11:36:55Z</time>
      </trkpt>
      <trkpt lat="44.64455" lon="6.01984">
        <ele>1382.4</ele>
        <time>2023-05-15T11:36:56Z</time>
      </trkpt>
      <trkpt lat="44.64455" lon="6.01981">
        <ele>1383.2</ele>
        <time>2023-05-15T11:37:07Z</time>
      </trkpt>
      <trkpt lat="44.64456" lon="6.0198">
        <ele>1383.4</ele>
        <time>2023-05-15T11:37:11Z</time>
      </trkpt>
      <trkpt lat="44.64458" lon="6.01976">
        <ele>1384</ele>
        <time>2023-05-15T11:37:17Z</time>
      </trkpt>
      <trkpt lat="44.64459" lon="6.01974">
        <ele>1384.6</ele>
        <time>2023-05-15T11:37:22Z</time>
      </trkpt>
      <trkpt lat="44.64459" lon="6.01974">
        <ele>1384.8</ele>
        <time>2023-05-15T11:37:24Z</time>
      </trkpt>
      <trkpt lat="44.64459" lon="6.01974">
        <ele>1385</ele>
        <time>2023-05-15T11:37:25Z</time>
      </trkpt>
      <trkpt lat="44.6446" lon="6.01969">
        <ele>1386</ele>
        <time>2023-05-15T11:37:32Z</time>
      </trkpt>
      <trkpt lat="44.6446" lon="6.01969">
        <ele>1386.2</ele>
        <time>2023-05-15T11:37:34Z</time>
      </trkpt>
      <trkpt lat="44.64461" lon="6.01966">
        <ele>1386.4</ele>
        <time>2023-05-15T11:37:40Z</time>
      </trkpt>
      <trkpt lat="44.64461" lon="6.01966">
        <ele>1386.6</ele>
        <time>2023-05-15T11:37:42Z</time>
      </trkpt>
      <trkpt lat="44.64461" lon="6.01966">
        <ele>1387.2</ele>
        <time>2023-05-15T11:37:46Z</time>
      </trkpt>
      <trkpt lat="44.64461" lon="6.01964">
        <ele>1387.6</ele>
        <time>2023-05-15T11:37:50Z</time>
      </trkpt>
      <trkpt lat="44.64461" lon="6.01963">
        <ele>1387.8</ele>
        <time>2023-05-15T11:37:51Z</time>
      </trkpt>
      <trkpt lat="44.64461" lon="6.01963">
        <ele>1388.4</ele>
        <time>2023-05-15T11:37:53Z</time>
      </trkpt>
      <trkpt lat="44.64461" lon="6.01961">
        <ele>1389</ele>
        <time>2023-05-15T11:37:59Z</time>
      </trkpt>
      <trkpt lat="44.64461" lon="6.0196">
        <ele>1389.2</ele>
        <time>2023-05-15T11:38:02Z</time>
      </trkpt>
      <trkpt lat="44.64462" lon="6.0196">
        <ele>1389.2</ele>
        <time>2023-05-15T11:38:03Z</time>
      </trkpt>
      <trkpt lat="44.64463" lon="6.01958">
        <ele>1389.6</ele>
        <time>2023-05-15T11:38:08Z</time>
      </trkpt>
      <trkpt lat="44.64463" lon="6.01958">
        <ele>1389.6</ele>
        <time>2023-05-15T11:38:10Z</time>
      </trkpt>
      <trkpt lat="44.64463" lon="6.01958">
        <ele>1389.8</ele>
        <time>2023-05-15T11:38:11Z</time>
      </trkpt>
      <trkpt lat="44.64464" lon="6.01958">
        <ele>1390.4</ele>
        <time>2023-05-15T11:38:16Z</time>
      </trkpt>
      <trkpt lat="44.64465" lon="6.01957">
        <ele>1391</ele>
        <time>2023-05-15T11:38:23Z</time>
      </trkpt>
      <trkpt lat="44.64465" lon="6.01957">
        <ele>1391.2</ele>
        <time>2023-05-15T11:38:25Z</time>
      </trkpt>
      <trkpt lat="44.64466" lon="6.01953">
        <ele>1392.2</ele>
        <time>2023-05-15T11:38:33Z</time>
      </trkpt>
      <trkpt lat="44.64466" lon="6.01953">
        <ele>1392.6</ele>
        <time>2023-05-15T11:38:34Z</time>
      </trkpt>
      <trkpt lat="44.64466" lon="6.01953">
        <ele>1393</ele>
        <time>2023-05-15T11:38:36Z</time>
      </trkpt>
      <trkpt lat="44.64466" lon="6.01951">
        <ele>1393.2</ele>
        <time>2023-05-15T11:38:39Z</time>
      </trkpt>
      <trkpt lat="44.64466" lon="6.0195">
        <ele>1393.8</ele>
        <time>2023-05-15T11:38:45Z</time>
      </trkpt>
      <trkpt lat="44.64466" lon="6.01949">
        <ele>1394</ele>
        <time>2023-05-15T11:38:47Z</time>
      </trkpt>
      <trkpt lat="44.64466" lon="6.01949">
        <ele>1394.2</ele>
        <time>2023-05-15T11:38:48Z</time>
      </trkpt>
      <trkpt lat="44.64468" lon="6.01947">
        <ele>1394.6</ele>
        <time>2023-05-15T11:38:54Z</time>
      </trkpt>
      <trkpt lat="44.64468" lon="6.01947">
        <ele>1395.2</ele>
        <time>2023-05-15T11:39:02Z</time>
      </trkpt>
      <trkpt lat="44.64468" lon="6.01947">
        <ele>1395.2</ele>
        <time>2023-05-15T11:39:03Z</time>
      </trkpt>
      <trkpt lat="44.6447" lon="6.01942">
        <ele>1395.6</ele>
        <time>2023-05-15T11:39:08Z</time>
      </trkpt>
      <trkpt lat="44.6447" lon="6.01942">
        <ele>1395.8</ele>
        <time>2023-05-15T11:39:10Z</time>
      </trkpt>
      <trkpt lat="44.6447" lon="6.01942">
        <ele>1395.8</ele>
        <time>2023-05-15T11:39:11Z</time>
      </trkpt>
      <trkpt lat="44.64471" lon="6.0194">
        <ele>1396.2</ele>
        <time>2023-05-15T11:39:16Z</time>
      </trkpt>
      <trkpt lat="44.64472" lon="6.01939">
        <ele>1396.2</ele>
        <time>2023-05-15T11:39:17Z</time>
      </trkpt>
      <trkpt lat="44.64472" lon="6.01939">
        <ele>1396.6</ele>
        <time>2023-05-15T11:39:22Z</time>
      </trkpt>
      <trkpt lat="44.64472" lon="6.01939">
        <ele>1396.8</ele>
        <time>2023-05-15T11:39:25Z</time>
      </trkpt>
      <trkpt lat="44.64472" lon="6.01937">
        <ele>1397.4</ele>
        <time>2023-05-15T11:39:31Z</time>
      </trkpt>
      <trkpt lat="44.64472" lon="6.01937">
        <ele>1397.8</ele>
        <time>2023-05-15T11:39:32Z</time>
      </trkpt>
      <trkpt lat="44.64472" lon="6.01937">
        <ele>1397.8</ele>
        <time>2023-05-15T11:39:33Z</time>
      </trkpt>
      <trkpt lat="44.64473" lon="6.01935">
        <ele>1398.4</ele>
        <time>2023-05-15T11:39:40Z</time>
      </trkpt>
      <trkpt lat="44.64476" lon="6.01928">
        <ele>1398.8</ele>
        <time>2023-05-15T11:39:46Z</time>
      </trkpt>
      <trkpt lat="44.64476" lon="6.01926">
        <ele>1399</ele>
        <time>2023-05-15T11:39:50Z</time>
      </trkpt>
      <trkpt lat="44.64476" lon="6.01923">
        <ele>1400.4</ele>
        <time>2023-05-15T11:39:56Z</time>
      </trkpt>
      <trkpt lat="44.64476" lon="6.01923">
        <ele>1400.6</ele>
        <time>2023-05-15T11:39:57Z</time>
      </trkpt>
      <trkpt lat="44.64477" lon="6.01921">
        <ele>1401.6</ele>
        <time>2023-05-15T11:40:04Z</time>
      </trkpt>
      <trkpt lat="44.64478" lon="6.01921">
        <ele>1401.6</ele>
        <time>2023-05-15T11:40:05Z</time>
      </trkpt>
      <trkpt lat="44.64478" lon="6.01919">
        <ele>1402</ele>
        <time>2023-05-15T11:40:08Z</time>
      </trkpt>
      <trkpt lat="44.64479" lon="6.01915">
        <ele>1402.8</ele>
        <time>2023-05-15T11:40:15Z</time>
      </trkpt>
      <trkpt lat="44.64479" lon="6.01914">
        <ele>1403</ele>
        <time>2023-05-15T11:40:16Z</time>
      </trkpt>
      <trkpt lat="44.64479" lon="6.01913">
        <ele>1403.8</ele>
        <time>2023-05-15T11:40:22Z</time>
      </trkpt>
      <trkpt lat="44.64479" lon="6.01913">
        <ele>1404.2</ele>
        <time>2023-05-15T11:40:23Z</time>
      </trkpt>
      <trkpt lat="44.64479" lon="6.01913">
        <ele>1404.4</ele>
        <time>2023-05-15T11:40:24Z</time>
      </trkpt>
      <trkpt lat="44.64481" lon="6.01909">
        <ele>1404.4</ele>
        <time>2023-05-15T11:40:27Z</time>
      </trkpt>
      <trkpt lat="44.64481" lon="6.01909">
        <ele>1404.6</ele>
        <time>2023-05-15T11:40:29Z</time>
      </trkpt>
      <trkpt lat="44.64481" lon="6.01909">
        <ele>1405</ele>
        <time>2023-05-15T11:40:33Z</time>
      </trkpt>
      <trkpt lat="44.64481" lon="6.01909">
        <ele>1405.8</ele>
        <time>2023-05-15T11:40:38Z</time>
      </trkpt>
      <trkpt lat="44.64481" lon="6.01907">
        <ele>1406.2</ele>
        <time>2023-05-15T11:40:42Z</time>
      </trkpt>
      <trkpt lat="44.64482" lon="6.01906">
        <ele>1406.4</ele>
        <time>2023-05-15T11:40:43Z</time>
      </trkpt>
      <trkpt lat="44.64482" lon="6.01906">
        <ele>1406.4</ele>
        <time>2023-05-15T11:40:44Z</time>
      </trkpt>
      <trkpt lat="44.64482" lon="6.01906">
        <ele>1406.6</ele>
        <time>2023-05-15T11:40:45Z</time>
      </trkpt>
      <trkpt lat="44.64482" lon="6.01906">
        <ele>1406.6</ele>
        <time>2023-05-15T11:40:46Z</time>
      </trkpt>
      <trkpt lat="44.64482" lon="6.01906">
        <ele>1407.4</ele>
        <time>2023-05-15T11:40:52Z</time>
      </trkpt>
      <trkpt lat="44.64482" lon="6.01906">
        <ele>1408</ele>
        <time>2023-05-15T11:40:58Z</time>
      </trkpt>
      <trkpt lat="44.64482" lon="6.01906">
        <ele>1408.8</ele>
        <time>2023-05-15T11:41:04Z</time>
      </trkpt>
      <trkpt lat="44.64482" lon="6.01905">
        <ele>1409.2</ele>
        <time>2023-05-15T11:41:09Z</time>
      </trkpt>
      <trkpt lat="44.64483" lon="6.01903">
        <ele>1410</ele>
        <time>2023-05-15T11:41:15Z</time>
      </trkpt>
      <trkpt lat="44.64483" lon="6.01903">
        <ele>1410.2</ele>
        <time>2023-05-15T11:41:17Z</time>
      </trkpt>
      <trkpt lat="44.64485" lon="6.01901">
        <ele>1411.2</ele>
        <time>2023-05-15T11:41:22Z</time>
      </trkpt>
      <trkpt lat="44.64486" lon="6.01899">
        <ele>1411.2</ele>
        <time>2023-05-15T11:41:24Z</time>
      </trkpt>
      <trkpt lat="44.64488" lon="6.01896">
        <ele>1412.2</ele>
        <time>2023-05-15T11:41:35Z</time>
      </trkpt>
      <trkpt lat="44.64489" lon="6.01896">
        <ele>1412.4</ele>
        <time>2023-05-15T11:41:38Z</time>
      </trkpt>
      <trkpt lat="44.64489" lon="6.01896">
        <ele>1413.4</ele>
        <time>2023-05-15T11:41:45Z</time>
      </trkpt>
      <trkpt lat="44.64489" lon="6.01896">
        <ele>1413.6</ele>
        <time>2023-05-15T11:41:48Z</time>
      </trkpt>
      <trkpt lat="44.6449" lon="6.01894">
        <ele>1413.8</ele>
        <time>2023-05-15T11:41:50Z</time>
      </trkpt>
      <trkpt lat="44.6449" lon="6.01893">
        <ele>1414</ele>
        <time>2023-05-15T11:41:55Z</time>
      </trkpt>
      <trkpt lat="44.64492" lon="6.01892">
        <ele>1415.2</ele>
        <time>2023-05-15T11:42:04Z</time>
      </trkpt>
      <trkpt lat="44.64494" lon="6.01889">
        <ele>1416.2</ele>
        <time>2023-05-15T11:42:08Z</time>
      </trkpt>
      <trkpt lat="44.64496" lon="6.01888">
        <ele>1416.8</ele>
        <time>2023-05-15T11:42:11Z</time>
      </trkpt>
      <trkpt lat="44.64496" lon="6.01888">
        <ele>1416.8</ele>
        <time>2023-05-15T11:42:12Z</time>
      </trkpt>
      <trkpt lat="44.64496" lon="6.01888">
        <ele>1417</ele>
        <time>2023-05-15T11:42:13Z</time>
      </trkpt>
      <trkpt lat="44.64496" lon="6.01887">
        <ele>1417</ele>
        <time>2023-05-15T11:42:14Z</time>
      </trkpt>
      <trkpt lat="44.64498" lon="6.01886">
        <ele>1417.2</ele>
        <time>2023-05-15T11:42:15Z</time>
      </trkpt>
      <trkpt lat="44.64498" lon="6.01886">
        <ele>1417.2</ele>
        <time>2023-05-15T11:42:16Z</time>
      </trkpt>
      <trkpt lat="44.64498" lon="6.01886">
        <ele>1417.2</ele>
        <time>2023-05-15T11:42:17Z</time>
      </trkpt>
      <trkpt lat="44.64498" lon="6.01886">
        <ele>1417.4</ele>
        <time>2023-05-15T11:42:21Z</time>
      </trkpt>
      <trkpt lat="44.64498" lon="6.01886">
        <ele>1417.2</ele>
        <time>2023-05-15T11:42:27Z</time>
      </trkpt>
      <trkpt lat="44.64499" lon="6.01885">
        <ele>1417.4</ele>
        <time>2023-05-15T11:42:31Z</time>
      </trkpt>
      <trkpt lat="44.64501" lon="6.01885">
        <ele>1417.8</ele>
        <time>2023-05-15T11:42:34Z</time>
      </trkpt>
      <trkpt lat="44.64501" lon="6.01885">
        <ele>1417.8</ele>
        <time>2023-05-15T11:42:35Z</time>
      </trkpt>
      <trkpt lat="44.64501" lon="6.01885">
        <ele>1418.2</ele>
        <time>2023-05-15T11:42:38Z</time>
      </trkpt>
      <trkpt lat="44.64501" lon="6.01885">
        <ele>1418.8</ele>
        <time>2023-05-15T11:42:45Z</time>
      </trkpt>
      <trkpt lat="44.64501" lon="6.01885">
        <ele>1419</ele>
        <time>2023-05-15T11:42:47Z</time>
      </trkpt>
      <trkpt lat="44.64503" lon="6.01884">
        <ele>1419.4</ele>
        <time>2023-05-15T11:42:55Z</time>
      </trkpt>
      <trkpt lat="44.64505" lon="6.01884">
        <ele>1420.6</ele>
        <time>2023-05-15T11:43:06Z</time>
      </trkpt>
      <trkpt lat="44.64505" lon="6.01884">
        <ele>1420.8</ele>
        <time>2023-05-15T11:43:10Z</time>
      </trkpt>
      <trkpt lat="44.64506" lon="6.01884">
        <ele>1421.6</ele>
        <time>2023-05-15T11:43:18Z</time>
      </trkpt>
      <trkpt lat="44.64506" lon="6.01884">
        <ele>1421.8</ele>
        <time>2023-05-15T11:43:20Z</time>
      </trkpt>
      <trkpt lat="44.64507" lon="6.01884">
        <ele>1422.6</ele>
        <time>2023-05-15T11:43:26Z</time>
      </trkpt>
      <trkpt lat="44.64508" lon="6.01884">
        <ele>1423</ele>
        <time>2023-05-15T11:43:30Z</time>
      </trkpt>
      <trkpt lat="44.64509" lon="6.01883">
        <ele>1423.2</ele>
        <time>2023-05-15T11:43:34Z</time>
      </trkpt>
      <trkpt lat="44.64513" lon="6.01882">
        <ele>1423.8</ele>
        <time>2023-05-15T11:43:41Z</time>
      </trkpt>
      <trkpt lat="44.64513" lon="6.01882">
        <ele>1424.4</ele>
        <time>2023-05-15T11:43:44Z</time>
      </trkpt>
      <trkpt lat="44.64519" lon="6.0188">
        <ele>1425.2</ele>
        <time>2023-05-15T11:43:51Z</time>
      </trkpt>
      <trkpt lat="44.6452" lon="6.0188">
        <ele>1425.6</ele>
        <time>2023-05-15T11:43:55Z</time>
      </trkpt>
      <trkpt lat="44.64524" lon="6.0188">
        <ele>1426.4</ele>
        <time>2023-05-15T11:44:03Z</time>
      </trkpt>
      <trkpt lat="44.64524" lon="6.0188">
        <ele>1426.8</ele>
        <time>2023-05-15T11:44:04Z</time>
      </trkpt>
      <trkpt lat="44.64524" lon="6.0188">
        <ele>1427.8</ele>
        <time>2023-05-15T11:44:16Z</time>
      </trkpt>
      <trkpt lat="44.64526" lon="6.0188">
        <ele>1428</ele>
        <time>2023-05-15T11:44:18Z</time>
      </trkpt>
      <trkpt lat="44.64529" lon="6.0188">
        <ele>1429</ele>
        <time>2023-05-15T11:44:23Z</time>
      </trkpt>
      <trkpt lat="44.64531" lon="6.01881">
        <ele>1429.2</ele>
        <time>2023-05-15T11:44:24Z</time>
      </trkpt>
      <trkpt lat="44.64532" lon="6.01881">
        <ele>1429.4</ele>
        <time>2023-05-15T11:44:25Z</time>
      </trkpt>
      <trkpt lat="44.64534" lon="6.01882">
        <ele>1429.4</ele>
        <time>2023-05-15T11:44:26Z</time>
      </trkpt>
      <trkpt lat="44.64535" lon="6.01882">
        <ele>1429.6</ele>
        <time>2023-05-15T11:44:27Z</time>
      </trkpt>
      <trkpt lat="44.64535" lon="6.01882">
        <ele>1429.6</ele>
        <time>2023-05-15T11:44:28Z</time>
      </trkpt>
      <trkpt lat="44.64535" lon="6.01882">
        <ele>1430</ele>
        <time>2023-05-15T11:44:29Z</time>
      </trkpt>
      <trkpt lat="44.64535" lon="6.01882">
        <ele>1430</ele>
        <time>2023-05-15T11:44:30Z</time>
      </trkpt>
      <trkpt lat="44.64535" lon="6.01882">
        <ele>1430.4</ele>
        <time>2023-05-15T11:44:31Z</time>
      </trkpt>
      <trkpt lat="44.64535" lon="6.01882">
        <ele>1430.6</ele>
        <time>2023-05-15T11:44:32Z</time>
      </trkpt>
      <trkpt lat="44.64536" lon="6.01882">
        <ele>1430.8</ele>
        <time>2023-05-15T11:44:33Z</time>
      </trkpt>
      <trkpt lat="44.64537" lon="6.01883">
        <ele>1430.8</ele>
        <time>2023-05-15T11:44:34Z</time>
      </trkpt>
      <trkpt lat="44.64538" lon="6.01883">
        <ele>1431</ele>
        <time>2023-05-15T11:44:35Z</time>
      </trkpt>
      <trkpt lat="44.64538" lon="6.01883">
        <ele>1431.2</ele>
        <time>2023-05-15T11:44:36Z</time>
      </trkpt>
      <trkpt lat="44.64538" lon="6.01883">
        <ele>1431.2</ele>
        <time>2023-05-15T11:44:37Z</time>
      </trkpt>
      <trkpt lat="44.64539" lon="6.01883">
        <ele>1431.4</ele>
        <time>2023-05-15T11:44:38Z</time>
      </trkpt>
      <trkpt lat="44.64539" lon="6.01883">
        <ele>1431.4</ele>
        <time>2023-05-15T11:44:39Z</time>
      </trkpt>
      <trkpt lat="44.64539" lon="6.01883">
        <ele>1431.4</ele>
        <time>2023-05-15T11:44:40Z</time>
      </trkpt>
      <trkpt lat="44.6454" lon="6.01884">
        <ele>1431.4</ele>
        <time>2023-05-15T11:44:41Z</time>
      </trkpt>
      <trkpt lat="44.6454" lon="6.01884">
        <ele>1431.4</ele>
        <time>2023-05-15T11:44:42Z</time>
      </trkpt>
      <trkpt lat="44.64541" lon="6.01884">
        <ele>1431.4</ele>
        <time>2023-05-15T11:44:43Z</time>
      </trkpt>
      <trkpt lat="44.64541" lon="6.01885">
        <ele>1431.4</ele>
        <time>2023-05-15T11:44:44Z</time>
      </trkpt>
      <trkpt lat="44.64541" lon="6.01885">
        <ele>1431.6</ele>
        <time>2023-05-15T11:44:45Z</time>
      </trkpt>
      <trkpt lat="44.64542" lon="6.01885">
        <ele>1431.8</ele>
        <time>2023-05-15T11:44:46Z</time>
      </trkpt>
      <trkpt lat="44.64543" lon="6.01886">
        <ele>1431.8</ele>
        <time>2023-05-15T11:44:47Z</time>
      </trkpt>
      <trkpt lat="44.64543" lon="6.01886">
        <ele>1431.8</ele>
        <time>2023-05-15T11:44:48Z</time>
      </trkpt>
      <trkpt lat="44.64543" lon="6.01886">
        <ele>1431.8</ele>
        <time>2023-05-15T11:44:49Z</time>
      </trkpt>
      <trkpt lat="44.64544" lon="6.01886">
        <ele>1431.8</ele>
        <time>2023-05-15T11:44:51Z</time>
      </trkpt>
      <trkpt lat="44.64544" lon="6.01887">
        <ele>1431.8</ele>
        <time>2023-05-15T11:44:52Z</time>
      </trkpt>
      <trkpt lat="44.64548" lon="6.01889">
        <ele>1432.8</ele>
        <time>2023-05-15T11:45:05Z</time>
      </trkpt>
      <trkpt lat="44.64549" lon="6.01889">
        <ele>1433</ele>
        <time>2023-05-15T11:45:08Z</time>
      </trkpt>
      <trkpt lat="44.6455" lon="6.0189">
        <ele>1433.8</ele>
        <time>2023-05-15T11:45:14Z</time>
      </trkpt>
      <trkpt lat="44.6455" lon="6.0189">
        <ele>1434.2</ele>
        <time>2023-05-15T11:45:17Z</time>
      </trkpt>
      <trkpt lat="44.64551" lon="6.01891">
        <ele>1434.8</ele>
        <time>2023-05-15T11:45:25Z</time>
      </trkpt>
      <trkpt lat="44.64553" lon="6.01893">
        <ele>1435</ele>
        <time>2023-05-15T11:45:29Z</time>
      </trkpt>
      <trkpt lat="44.64553" lon="6.01893">
        <ele>1435.2</ele>
        <time>2023-05-15T11:45:30Z</time>
      </trkpt>
      <trkpt lat="44.64553" lon="6.01893">
        <ele>1435.4</ele>
        <time>2023-05-15T11:45:31Z</time>
      </trkpt>
      <trkpt lat="44.64553" lon="6.01893">
        <ele>1435.6</ele>
        <time>2023-05-15T11:45:32Z</time>
      </trkpt>
      <trkpt lat="44.64554" lon="6.01893">
        <ele>1435.6</ele>
        <time>2023-05-15T11:45:33Z</time>
      </trkpt>
      <trkpt lat="44.64554" lon="6.01893">
        <ele>1435.6</ele>
        <time>2023-05-15T11:45:34Z</time>
      </trkpt>
      <trkpt lat="44.64554" lon="6.01893">
        <ele>1435.6</ele>
        <time>2023-05-15T11:45:35Z</time>
      </trkpt>
      <trkpt lat="44.64554" lon="6.01893">
        <ele>1435.8</ele>
        <time>2023-05-15T11:45:36Z</time>
      </trkpt>
      <trkpt lat="44.64554" lon="6.01893">
        <ele>1435.8</ele>
        <time>2023-05-15T11:45:37Z</time>
      </trkpt>
      <trkpt lat="44.64557" lon="6.01895">
        <ele>1436.4</ele>
        <time>2023-05-15T11:45:48Z</time>
      </trkpt>
      <trkpt lat="44.64559" lon="6.01896">
        <ele>1436.8</ele>
        <time>2023-05-15T11:45:51Z</time>
      </trkpt>
      <trkpt lat="44.64559" lon="6.01896">
        <ele>1437</ele>
        <time>2023-05-15T11:45:53Z</time>
      </trkpt>
      <trkpt lat="44.64559" lon="6.01896">
        <ele>1437.4</ele>
        <time>2023-05-15T11:45:56Z</time>
      </trkpt>
      <trkpt lat="44.6456" lon="6.01897">
        <ele>1437.6</ele>
        <time>2023-05-15T11:45:57Z</time>
      </trkpt>
      <trkpt lat="44.64566" lon="6.019">
        <ele>1438.6</ele>
        <time>2023-05-15T11:46:05Z</time>
      </trkpt>
      <trkpt lat="44.64569" lon="6.01901">
        <ele>1438.6</ele>
        <time>2023-05-15T11:46:06Z</time>
      </trkpt>
      <trkpt lat="44.6457" lon="6.01902">
        <ele>1439.2</ele>
        <time>2023-05-15T11:46:09Z</time>
      </trkpt>
      <trkpt lat="44.64572" lon="6.01903">
        <ele>1439</ele>
        <time>2023-05-15T11:46:10Z</time>
      </trkpt>
      <trkpt lat="44.64572" lon="6.01903">
        <ele>1439</ele>
        <time>2023-05-15T11:46:11Z</time>
      </trkpt>
      <trkpt lat="44.64574" lon="6.01904">
        <ele>1439.4</ele>
        <time>2023-05-15T11:46:12Z</time>
      </trkpt>
      <trkpt lat="44.64574" lon="6.01904">
        <ele>1439.2</ele>
        <time>2023-05-15T11:46:13Z</time>
      </trkpt>
      <trkpt lat="44.64575" lon="6.01905">
        <ele>1439.4</ele>
        <time>2023-05-15T11:46:14Z</time>
      </trkpt>
      <trkpt lat="44.64575" lon="6.01905">
        <ele>1439.6</ele>
        <time>2023-05-15T11:46:15Z</time>
      </trkpt>
      <trkpt lat="44.64575" lon="6.01905">
        <ele>1439.8</ele>
        <time>2023-05-15T11:46:16Z</time>
      </trkpt>
      <trkpt lat="44.64575" lon="6.01905">
        <ele>1440</ele>
        <time>2023-05-15T11:46:19Z</time>
      </trkpt>
      <trkpt lat="44.64581" lon="6.01907">
        <ele>1440.4</ele>
        <time>2023-05-15T11:46:25Z</time>
      </trkpt>
      <trkpt lat="44.64583" lon="6.01907">
        <ele>1441</ele>
        <time>2023-05-15T11:46:30Z</time>
      </trkpt>
      <trkpt lat="44.64583" lon="6.01907">
        <ele>1441.4</ele>
        <time>2023-05-15T11:46:32Z</time>
      </trkpt>
      <trkpt lat="44.64584" lon="6.01907">
        <ele>1441.4</ele>
        <time>2023-05-15T11:46:33Z</time>
      </trkpt>
      <trkpt lat="44.64584" lon="6.01907">
        <ele>1442</ele>
        <time>2023-05-15T11:46:38Z</time>
      </trkpt>
      <trkpt lat="44.64584" lon="6.01907">
        <ele>1442</ele>
        <time>2023-05-15T11:46:39Z</time>
      </trkpt>
      <trkpt lat="44.64587" lon="6.01907">
        <ele>1443.4</ele>
        <time>2023-05-15T11:46:47Z</time>
      </trkpt>
      <trkpt lat="44.64588" lon="6.01907">
        <ele>1443.8</ele>
        <time>2023-05-15T11:46:50Z</time>
      </trkpt>
      <trkpt lat="44.64588" lon="6.01907">
        <ele>1443.8</ele>
        <time>2023-05-15T11:46:52Z</time>
      </trkpt>
      <trkpt lat="44.64591" lon="6.01907">
        <ele>1444</ele>
        <time>2023-05-15T11:46:57Z</time>
      </trkpt>
      <trkpt lat="44.64591" lon="6.01907">
        <ele>1444.2</ele>
        <time>2023-05-15T11:46:58Z</time>
      </trkpt>
      <trkpt lat="44.64593" lon="6.01907">
        <ele>1444.2</ele>
        <time>2023-05-15T11:47:00Z</time>
      </trkpt>
      <trkpt lat="44.64594" lon="6.01907">
        <ele>1444.2</ele>
        <time>2023-05-15T11:47:01Z</time>
      </trkpt>
      <trkpt lat="44.64594" lon="6.01907">
        <ele>1444.4</ele>
        <time>2023-05-15T11:47:02Z</time>
      </trkpt>
      <trkpt lat="44.64595" lon="6.01906">
        <ele>1444.4</ele>
        <time>2023-05-15T11:47:03Z</time>
      </trkpt>
      <trkpt lat="44.64595" lon="6.01906">
        <ele>1444.8</ele>
        <time>2023-05-15T11:47:05Z</time>
      </trkpt>
      <trkpt lat="44.64598" lon="6.01908">
        <ele>1445.4</ele>
        <time>2023-05-15T11:47:11Z</time>
      </trkpt>
      <trkpt lat="44.646" lon="6.01909">
        <ele>1445.8</ele>
        <time>2023-05-15T11:47:14Z</time>
      </trkpt>
      <trkpt lat="44.646" lon="6.01909">
        <ele>1445.8</ele>
        <time>2023-05-15T11:47:15Z</time>
      </trkpt>
      <trkpt lat="44.646" lon="6.01909">
        <ele>1446</ele>
        <time>2023-05-15T11:47:16Z</time>
      </trkpt>
      <trkpt lat="44.64601" lon="6.01909">
        <ele>1446</ele>
        <time>2023-05-15T11:47:17Z</time>
      </trkpt>
      <trkpt lat="44.64603" lon="6.01909">
        <ele>1446</ele>
        <time>2023-05-15T11:47:18Z</time>
      </trkpt>
      <trkpt lat="44.64605" lon="6.01909">
        <ele>1446</ele>
        <time>2023-05-15T11:47:19Z</time>
      </trkpt>
      <trkpt lat="44.64605" lon="6.0191">
        <ele>1445.8</ele>
        <time>2023-05-15T11:47:20Z</time>
      </trkpt>
      <trkpt lat="44.64605" lon="6.0191">
        <ele>1445.8</ele>
        <time>2023-05-15T11:47:22Z</time>
      </trkpt>
      <trkpt lat="44.64605" lon="6.0191">
        <ele>1445.6</ele>
        <time>2023-05-15T11:47:23Z</time>
      </trkpt>
      <trkpt lat="44.64605" lon="6.0191">
        <ele>1445.2</ele>
        <time>2023-05-15T11:47:29Z</time>
      </trkpt>
      <trkpt lat="44.64607" lon="6.01908">
        <ele>1444.4</ele>
        <time>2023-05-15T11:47:35Z</time>
      </trkpt>
      <trkpt lat="44.64607" lon="6.01907">
        <ele>1444.4</ele>
        <time>2023-05-15T11:47:36Z</time>
      </trkpt>
      <trkpt lat="44.64608" lon="6.01906">
        <ele>1444.2</ele>
        <time>2023-05-15T11:47:42Z</time>
      </trkpt>
      <trkpt lat="44.64608" lon="6.01906">
        <ele>1444.2</ele>
        <time>2023-05-15T11:47:43Z</time>
      </trkpt>
      <trkpt lat="44.64608" lon="6.01906">
        <ele>1444.2</ele>
        <time>2023-05-15T11:47:44Z</time>
      </trkpt>
      <trkpt lat="44.64608" lon="6.01906">
        <ele>1444.2</ele>
        <time>2023-05-15T11:47:45Z</time>
      </trkpt>
      <trkpt lat="44.64608" lon="6.01906">
        <ele>1444.4</ele>
        <time>2023-05-15T11:47:46Z</time>
      </trkpt>
      <trkpt lat="44.64608" lon="6.01906">
        <ele>1444.4</ele>
        <time>2023-05-15T11:47:47Z</time>
      </trkpt>
      <trkpt lat="44.64608" lon="6.01904">
        <ele>1444.6</ele>
        <time>2023-05-15T11:47:48Z</time>
      </trkpt>
      <trkpt lat="44.64608" lon="6.01904">
        <ele>1444.8</ele>
        <time>2023-05-15T11:47:50Z</time>
      </trkpt>
      <trkpt lat="44.64609" lon="6.01903">
        <ele>1444.8</ele>
        <time>2023-05-15T11:47:51Z</time>
      </trkpt>
      <trkpt lat="44.64609" lon="6.01902">
        <ele>1445</ele>
        <time>2023-05-15T11:47:52Z</time>
      </trkpt>
      <trkpt lat="44.64609" lon="6.019">
        <ele>1445</ele>
        <time>2023-05-15T11:47:53Z</time>
      </trkpt>
      <trkpt lat="44.64609" lon="6.01898">
        <ele>1445.2</ele>
        <time>2023-05-15T11:47:55Z</time>
      </trkpt>
      <trkpt lat="44.64609" lon="6.01897">
        <ele>1445.2</ele>
        <time>2023-05-15T11:47:56Z</time>
      </trkpt>
      <trkpt lat="44.64609" lon="6.01895">
        <ele>1445.4</ele>
        <time>2023-05-15T11:47:58Z</time>
      </trkpt>
      <trkpt lat="44.64608" lon="6.01894">
        <ele>1445.4</ele>
        <time>2023-05-15T11:47:59Z</time>
      </trkpt>
      <trkpt lat="44.64608" lon="6.01893">
        <ele>1445.4</ele>
        <time>2023-05-15T11:48:00Z</time>
      </trkpt>
      <trkpt lat="44.64608" lon="6.01892">
        <ele>1445.6</ele>
        <time>2023-05-15T11:48:01Z</time>
      </trkpt>
      <trkpt lat="44.64608" lon="6.01892">
        <ele>1445.8</ele>
        <time>2023-05-15T11:48:03Z</time>
      </trkpt>
      <trkpt lat="44.64609" lon="6.01889">
        <ele>1446</ele>
        <time>2023-05-15T11:48:05Z</time>
      </trkpt>
      <trkpt lat="44.64609" lon="6.01887">
        <ele>1446.2</ele>
        <time>2023-05-15T11:48:06Z</time>
      </trkpt>
      <trkpt lat="44.6461" lon="6.01885">
        <ele>1446.2</ele>
        <time>2023-05-15T11:48:07Z</time>
      </trkpt>
      <trkpt lat="44.6461" lon="6.01882">
        <ele>1446.8</ele>
        <time>2023-05-15T11:48:09Z</time>
      </trkpt>
      <trkpt lat="44.6461" lon="6.0188">
        <ele>1446.8</ele>
        <time>2023-05-15T11:48:10Z</time>
      </trkpt>
      <trkpt lat="44.6461" lon="6.01879">
        <ele>1447</ele>
        <time>2023-05-15T11:48:11Z</time>
      </trkpt>
      <trkpt lat="44.6461" lon="6.01878">
        <ele>1447.2</ele>
        <time>2023-05-15T11:48:12Z</time>
      </trkpt>
      <trkpt lat="44.6461" lon="6.01877">
        <ele>1447.4</ele>
        <time>2023-05-15T11:48:13Z</time>
      </trkpt>
      <trkpt lat="44.64609" lon="6.01877">
        <ele>1447.6</ele>
        <time>2023-05-15T11:48:14Z</time>
      </trkpt>
      <trkpt lat="44.64609" lon="6.01876">
        <ele>1447.8</ele>
        <time>2023-05-15T11:48:15Z</time>
      </trkpt>
      <trkpt lat="44.64609" lon="6.01875">
        <ele>1447.8</ele>
        <time>2023-05-15T11:48:16Z</time>
      </trkpt>
      <trkpt lat="44.64609" lon="6.01875">
        <ele>1448</ele>
        <time>2023-05-15T11:48:17Z</time>
      </trkpt>
      <trkpt lat="44.64609" lon="6.01874">
        <ele>1448</ele>
        <time>2023-05-15T11:48:18Z</time>
      </trkpt>
      <trkpt lat="44.64608" lon="6.01873">
        <ele>1448.2</ele>
        <time>2023-05-15T11:48:19Z</time>
      </trkpt>
      <trkpt lat="44.64608" lon="6.01872">
        <ele>1448.4</ele>
        <time>2023-05-15T11:48:20Z</time>
      </trkpt>
      <trkpt lat="44.64608" lon="6.01871">
        <ele>1448.4</ele>
        <time>2023-05-15T11:48:21Z</time>
      </trkpt>
      <trkpt lat="44.64608" lon="6.0187">
        <ele>1448.6</ele>
        <time>2023-05-15T11:48:22Z</time>
      </trkpt>
      <trkpt lat="44.64608" lon="6.0187">
        <ele>1448.8</ele>
        <time>2023-05-15T11:48:23Z</time>
      </trkpt>
      <trkpt lat="44.64608" lon="6.0187">
        <ele>1449</ele>
        <time>2023-05-15T11:48:24Z</time>
      </trkpt>
      <trkpt lat="44.64608" lon="6.0187">
        <ele>1449.2</ele>
        <time>2023-05-15T11:48:25Z</time>
      </trkpt>
      <trkpt lat="44.64608" lon="6.0187">
        <ele>1449.6</ele>
        <time>2023-05-15T11:48:27Z</time>
      </trkpt>
      <trkpt lat="44.64608" lon="6.0187">
        <ele>1449.6</ele>
        <time>2023-05-15T11:48:28Z</time>
      </trkpt>
      <trkpt lat="44.64608" lon="6.0187">
        <ele>1449.8</ele>
        <time>2023-05-15T11:48:29Z</time>
      </trkpt>
      <trkpt lat="44.64608" lon="6.0187">
        <ele>1450</ele>
        <time>2023-05-15T11:48:30Z</time>
      </trkpt>
      <trkpt lat="44.64607" lon="6.01868">
        <ele>1450.2</ele>
        <time>2023-05-15T11:48:31Z</time>
      </trkpt>
      <trkpt lat="44.64607" lon="6.01868">
        <ele>1450.4</ele>
        <time>2023-05-15T11:48:32Z</time>
      </trkpt>
      <trkpt lat="44.64607" lon="6.01868">
        <ele>1450.6</ele>
        <time>2023-05-15T11:48:33Z</time>
      </trkpt>
      <trkpt lat="44.64607" lon="6.01868">
        <ele>1450.6</ele>
        <time>2023-05-15T11:48:34Z</time>
      </trkpt>
      <trkpt lat="44.64607" lon="6.01867">
        <ele>1450.8</ele>
        <time>2023-05-15T11:48:35Z</time>
      </trkpt>
      <trkpt lat="44.64607" lon="6.01867">
        <ele>1451</ele>
        <time>2023-05-15T11:48:36Z</time>
      </trkpt>
      <trkpt lat="44.64607" lon="6.01867">
        <ele>1451</ele>
        <time>2023-05-15T11:48:37Z</time>
      </trkpt>
      <trkpt lat="44.64607" lon="6.01866">
        <ele>1451.4</ele>
        <time>2023-05-15T11:48:40Z</time>
      </trkpt>
      <trkpt lat="44.64606" lon="6.01866">
        <ele>1451.4</ele>
        <time>2023-05-15T11:48:41Z</time>
      </trkpt>
      <trkpt lat="44.64606" lon="6.01866">
        <ele>1451.6</ele>
        <time>2023-05-15T11:48:42Z</time>
      </trkpt>
      <trkpt lat="44.64606" lon="6.01865">
        <ele>1451.8</ele>
        <time>2023-05-15T11:48:43Z</time>
      </trkpt>
      <trkpt lat="44.64605" lon="6.01863">
        <ele>1451.8</ele>
        <time>2023-05-15T11:48:44Z</time>
      </trkpt>
      <trkpt lat="44.64605" lon="6.01862">
        <ele>1452</ele>
        <time>2023-05-15T11:48:45Z</time>
      </trkpt>
      <trkpt lat="44.64604" lon="6.01859">
        <ele>1452</ele>
        <time>2023-05-15T11:48:46Z</time>
      </trkpt>
      <trkpt lat="44.64603" lon="6.01857">
        <ele>1452.2</ele>
        <time>2023-05-15T11:48:47Z</time>
      </trkpt>
      <trkpt lat="44.64603" lon="6.01856">
        <ele>1452.2</ele>
        <time>2023-05-15T11:48:48Z</time>
      </trkpt>
      <trkpt lat="44.64603" lon="6.01855">
        <ele>1452.4</ele>
        <time>2023-05-15T11:48:49Z</time>
      </trkpt>
      <trkpt lat="44.64603" lon="6.01855">
        <ele>1452.4</ele>
        <time>2023-05-15T11:48:50Z</time>
      </trkpt>
      <trkpt lat="44.64603" lon="6.01855">
        <ele>1452.4</ele>
        <time>2023-05-15T11:48:51Z</time>
      </trkpt>
      <trkpt lat="44.64603" lon="6.01854">
        <ele>1452.6</ele>
        <time>2023-05-15T11:48:52Z</time>
      </trkpt>
      <trkpt lat="44.64603" lon="6.01854">
        <ele>1452.6</ele>
        <time>2023-05-15T11:48:53Z</time>
      </trkpt>
      <trkpt lat="44.64603" lon="6.01854">
        <ele>1453</ele>
        <time>2023-05-15T11:48:56Z</time>
      </trkpt>
      <trkpt lat="44.64603" lon="6.01854">
        <ele>1453.2</ele>
        <time>2023-05-15T11:48:57Z</time>
      </trkpt>
      <trkpt lat="44.64603" lon="6.01854">
        <ele>1453.6</ele>
        <time>2023-05-15T11:48:59Z</time>
      </trkpt>
      <trkpt lat="44.64603" lon="6.01853">
        <ele>1453.8</ele>
        <time>2023-05-15T11:49:02Z</time>
      </trkpt>
      <trkpt lat="44.64603" lon="6.01851">
        <ele>1454</ele>
        <time>2023-05-15T11:49:03Z</time>
      </trkpt>
      <trkpt lat="44.64603" lon="6.01852">
        <ele>1454</ele>
        <time>2023-05-15T11:49:04Z</time>
      </trkpt>
      <trkpt lat="44.64603" lon="6.01852">
        <ele>1454.2</ele>
        <time>2023-05-15T11:49:05Z</time>
      </trkpt>
      <trkpt lat="44.64604" lon="6.01851">
        <ele>1454.2</ele>
        <time>2023-05-15T11:49:06Z</time>
      </trkpt>
      <trkpt lat="44.64604" lon="6.01851">
        <ele>1454.4</ele>
        <time>2023-05-15T11:49:07Z</time>
      </trkpt>
      <trkpt lat="44.64604" lon="6.01851">
        <ele>1454.4</ele>
        <time>2023-05-15T11:49:08Z</time>
      </trkpt>
      <trkpt lat="44.64604" lon="6.01851">
        <ele>1454.6</ele>
        <time>2023-05-15T11:49:09Z</time>
      </trkpt>
      <trkpt lat="44.64604" lon="6.01851">
        <ele>1454.8</ele>
        <time>2023-05-15T11:49:10Z</time>
      </trkpt>
      <trkpt lat="44.64604" lon="6.01851">
        <ele>1454.8</ele>
        <time>2023-05-15T11:49:11Z</time>
      </trkpt>
      <trkpt lat="44.64604" lon="6.01851">
        <ele>1454.8</ele>
        <time>2023-05-15T11:49:12Z</time>
      </trkpt>
      <trkpt lat="44.64605" lon="6.01851">
        <ele>1455</ele>
        <time>2023-05-15T11:49:13Z</time>
      </trkpt>
      <trkpt lat="44.64605" lon="6.01851">
        <ele>1455</ele>
        <time>2023-05-15T11:49:14Z</time>
      </trkpt>
      <trkpt lat="44.64605" lon="6.01851">
        <ele>1455.2</ele>
        <time>2023-05-15T11:49:15Z</time>
      </trkpt>
      <trkpt lat="44.64605" lon="6.01851">
        <ele>1455.2</ele>
        <time>2023-05-15T11:49:16Z</time>
      </trkpt>
      <trkpt lat="44.64605" lon="6.0185">
        <ele>1455.6</ele>
        <time>2023-05-15T11:49:19Z</time>
      </trkpt>
      <trkpt lat="44.64605" lon="6.0185">
        <ele>1455.8</ele>
        <time>2023-05-15T11:49:20Z</time>
      </trkpt>
      <trkpt lat="44.64605" lon="6.0185">
        <ele>1455.8</ele>
        <time>2023-05-15T11:49:21Z</time>
      </trkpt>
      <trkpt lat="44.64605" lon="6.0185">
        <ele>1455.8</ele>
        <time>2023-05-15T11:49:22Z</time>
      </trkpt>
      <trkpt lat="44.64605" lon="6.0185">
        <ele>1456</ele>
        <time>2023-05-15T11:49:23Z</time>
      </trkpt>
      <trkpt lat="44.64605" lon="6.0185">
        <ele>1456</ele>
        <time>2023-05-15T11:49:24Z</time>
      </trkpt>
      <trkpt lat="44.64605" lon="6.0185">
        <ele>1456</ele>
        <time>2023-05-15T11:49:25Z</time>
      </trkpt>
      <trkpt lat="44.64605" lon="6.0185">
        <ele>1456</ele>
        <time>2023-05-15T11:49:26Z</time>
      </trkpt>
      <trkpt lat="44.64605" lon="6.0185">
        <ele>1456.2</ele>
        <time>2023-05-15T11:49:27Z</time>
      </trkpt>
      <trkpt lat="44.64607" lon="6.01848">
        <ele>1456.6</ele>
        <time>2023-05-15T11:49:31Z</time>
      </trkpt>
      <trkpt lat="44.64608" lon="6.01845">
        <ele>1457.4</ele>
        <time>2023-05-15T11:49:44Z</time>
      </trkpt>
      <trkpt lat="44.64608" lon="6.01844">
        <ele>1457.8</ele>
        <time>2023-05-15T11:49:48Z</time>
      </trkpt>
      <trkpt lat="44.64608" lon="6.01844">
        <ele>1458.6</ele>
        <time>2023-05-15T11:49:53Z</time>
      </trkpt>
      <trkpt lat="44.64608" lon="6.01844">
        <ele>1459</ele>
        <time>2023-05-15T11:49:57Z</time>
      </trkpt>
      <trkpt lat="44.64608" lon="6.01843">
        <ele>1459.2</ele>
        <time>2023-05-15T11:50:06Z</time>
      </trkpt>
      <trkpt lat="44.64608" lon="6.01841">
        <ele>1459.4</ele>
        <time>2023-05-15T11:50:11Z</time>
      </trkpt>
      <trkpt lat="44.64608" lon="6.01841">
        <ele>1459.8</ele>
        <time>2023-05-15T11:50:14Z</time>
      </trkpt>
      <trkpt lat="44.64608" lon="6.01841">
        <ele>1459.8</ele>
        <time>2023-05-15T11:50:15Z</time>
      </trkpt>
      <trkpt lat="44.64608" lon="6.01839">
        <ele>1461</ele>
        <time>2023-05-15T11:50:26Z</time>
      </trkpt>
      <trkpt lat="44.64608" lon="6.01839">
        <ele>1462.2</ele>
        <time>2023-05-15T11:50:34Z</time>
      </trkpt>
      <trkpt lat="44.64608" lon="6.01839">
        <ele>1463.6</ele>
        <time>2023-05-15T11:50:38Z</time>
      </trkpt>
      <trkpt lat="44.64609" lon="6.01838">
        <ele>1464</ele>
        <time>2023-05-15T11:50:41Z</time>
      </trkpt>
      <trkpt lat="44.6461" lon="6.01833">
        <ele>1464.4</ele>
        <time>2023-05-15T11:50:44Z</time>
      </trkpt>
      <trkpt lat="44.6461" lon="6.01833">
        <ele>1464.6</ele>
        <time>2023-05-15T11:50:45Z</time>
      </trkpt>
      <trkpt lat="44.6461" lon="6.0183">
        <ele>1464.8</ele>
        <time>2023-05-15T11:50:46Z</time>
      </trkpt>
      <trkpt lat="44.6461" lon="6.01827">
        <ele>1464.8</ele>
        <time>2023-05-15T11:50:47Z</time>
      </trkpt>
      <trkpt lat="44.6461" lon="6.01825">
        <ele>1465.2</ele>
        <time>2023-05-15T11:50:48Z</time>
      </trkpt>
      <trkpt lat="44.64611" lon="6.01823">
        <ele>1465.2</ele>
        <time>2023-05-15T11:50:49Z</time>
      </trkpt>
      <trkpt lat="44.64611" lon="6.01822">
        <ele>1465.2</ele>
        <time>2023-05-15T11:50:50Z</time>
      </trkpt>
      <trkpt lat="44.64612" lon="6.0182">
        <ele>1465.2</ele>
        <time>2023-05-15T11:50:51Z</time>
      </trkpt>
      <trkpt lat="44.64612" lon="6.01818">
        <ele>1465.2</ele>
        <time>2023-05-15T11:50:52Z</time>
      </trkpt>
      <trkpt lat="44.64613" lon="6.01815">
        <ele>1465.2</ele>
        <time>2023-05-15T11:50:53Z</time>
      </trkpt>
      <trkpt lat="44.64613" lon="6.01815">
        <ele>1465.2</ele>
        <time>2023-05-15T11:50:54Z</time>
      </trkpt>
      <trkpt lat="44.64613" lon="6.01815">
        <ele>1465.2</ele>
        <time>2023-05-15T11:50:55Z</time>
      </trkpt>
      <trkpt lat="44.64613" lon="6.01815">
        <ele>1465.2</ele>
        <time>2023-05-15T11:50:56Z</time>
      </trkpt>
      <trkpt lat="44.64613" lon="6.01815">
        <ele>1465.2</ele>
        <time>2023-05-15T11:50:59Z</time>
      </trkpt>
      <trkpt lat="44.64613" lon="6.01815">
        <ele>1465.6</ele>
        <time>2023-05-15T11:51:09Z</time>
      </trkpt>
      <trkpt lat="44.64614" lon="6.01815">
        <ele>1466.2</ele>
        <time>2023-05-15T11:51:21Z</time>
      </trkpt>
      <trkpt lat="44.64614" lon="6.01815">
        <ele>1466.2</ele>
        <time>2023-05-15T11:51:27Z</time>
      </trkpt>
      <trkpt lat="44.64615" lon="6.01815">
        <ele>1466.4</ele>
        <time>2023-05-15T11:51:30Z</time>
      </trkpt>
      <trkpt lat="44.64616" lon="6.01816">
        <ele>1466.4</ele>
        <time>2023-05-15T11:51:32Z</time>
      </trkpt>
      <trkpt lat="44.64617" lon="6.01815">
        <ele>1467.2</ele>
        <time>2023-05-15T11:51:40Z</time>
      </trkpt>
      <trkpt lat="44.64617" lon="6.01814">
        <ele>1467.2</ele>
        <time>2023-05-15T11:51:41Z</time>
      </trkpt>
      <trkpt lat="44.64618" lon="6.01813">
        <ele>1467.8</ele>
        <time>2023-05-15T11:51:47Z</time>
      </trkpt>
      <trkpt lat="44.64618" lon="6.01813">
        <ele>1468.2</ele>
        <time>2023-05-15T11:51:49Z</time>
      </trkpt>
      <trkpt lat="44.64618" lon="6.01813">
        <ele>1468.4</ele>
        <time>2023-05-15T11:51:52Z</time>
      </trkpt>
      <trkpt lat="44.64619" lon="6.01811">
        <ele>1468.8</ele>
        <time>2023-05-15T11:51:56Z</time>
      </trkpt>
      <trkpt lat="44.6462" lon="6.01809">
        <ele>1469.6</ele>
        <time>2023-05-15T11:52:02Z</time>
      </trkpt>
      <trkpt lat="44.64622" lon="6.01807">
        <ele>1470</ele>
        <time>2023-05-15T11:52:06Z</time>
      </trkpt>
      <trkpt lat="44.64622" lon="6.01806">
        <ele>1470</ele>
        <time>2023-05-15T11:52:07Z</time>
      </trkpt>
      <trkpt lat="44.64622" lon="6.01806">
        <ele>1470.6</ele>
        <time>2023-05-15T11:52:09Z</time>
      </trkpt>
      <trkpt lat="44.64622" lon="6.01806">
        <ele>1470.6</ele>
        <time>2023-05-15T11:52:10Z</time>
      </trkpt>
      <trkpt lat="44.64623" lon="6.01805">
        <ele>1470.8</ele>
        <time>2023-05-15T11:52:11Z</time>
      </trkpt>
      <trkpt lat="44.64623" lon="6.01805">
        <ele>1470.8</ele>
        <time>2023-05-15T11:52:12Z</time>
      </trkpt>
      <trkpt lat="44.64623" lon="6.01805">
        <ele>1471</ele>
        <time>2023-05-15T11:52:13Z</time>
      </trkpt>
      <trkpt lat="44.64623" lon="6.01805">
        <ele>1471</ele>
        <time>2023-05-15T11:52:14Z</time>
      </trkpt>
      <trkpt lat="44.64623" lon="6.01805">
        <ele>1471</ele>
        <time>2023-05-15T11:52:15Z</time>
      </trkpt>
      <trkpt lat="44.64623" lon="6.01805">
        <ele>1471.2</ele>
        <time>2023-05-15T11:52:16Z</time>
      </trkpt>
      <trkpt lat="44.64623" lon="6.01805">
        <ele>1471.2</ele>
        <time>2023-05-15T11:52:17Z</time>
      </trkpt>
      <trkpt lat="44.64624" lon="6.01804">
        <ele>1471.2</ele>
        <time>2023-05-15T11:52:18Z</time>
      </trkpt>
      <trkpt lat="44.64624" lon="6.01802">
        <ele>1471.2</ele>
        <time>2023-05-15T11:52:19Z</time>
      </trkpt>
      <trkpt lat="44.64626" lon="6.01801">
        <ele>1471.4</ele>
        <time>2023-05-15T11:52:20Z</time>
      </trkpt>
      <trkpt lat="44.64626" lon="6.018">
        <ele>1471.4</ele>
        <time>2023-05-15T11:52:21Z</time>
      </trkpt>
      <trkpt lat="44.64626" lon="6.018">
        <ele>1471.6</ele>
        <time>2023-05-15T11:52:22Z</time>
      </trkpt>
      <trkpt lat="44.64626" lon="6.01799">
        <ele>1471.6</ele>
        <time>2023-05-15T11:52:23Z</time>
      </trkpt>
      <trkpt lat="44.64626" lon="6.01798">
        <ele>1472</ele>
        <time>2023-05-15T11:52:26Z</time>
      </trkpt>
      <trkpt lat="44.64632" lon="6.01792">
        <ele>1472.6</ele>
        <time>2023-05-15T11:52:31Z</time>
      </trkpt>
      <trkpt lat="44.64632" lon="6.01791">
        <ele>1472.8</ele>
        <time>2023-05-15T11:52:32Z</time>
      </trkpt>
      <trkpt lat="44.64632" lon="6.01791">
        <ele>1473</ele>
        <time>2023-05-15T11:52:33Z</time>
      </trkpt>
      <trkpt lat="44.64632" lon="6.01791">
        <ele>1473.2</ele>
        <time>2023-05-15T11:52:34Z</time>
      </trkpt>
      <trkpt lat="44.64633" lon="6.01789">
        <ele>1473.8</ele>
        <time>2023-05-15T11:52:38Z</time>
      </trkpt>
      <trkpt lat="44.64633" lon="6.01789">
        <ele>1473.8</ele>
        <time>2023-05-15T11:52:39Z</time>
      </trkpt>
      <trkpt lat="44.64633" lon="6.01789">
        <ele>1473.8</ele>
        <time>2023-05-15T11:52:40Z</time>
      </trkpt>
      <trkpt lat="44.64633" lon="6.01789">
        <ele>1474</ele>
        <time>2023-05-15T11:52:41Z</time>
      </trkpt>
      <trkpt lat="44.64633" lon="6.01789">
        <ele>1474</ele>
        <time>2023-05-15T11:52:42Z</time>
      </trkpt>
      <trkpt lat="44.64634" lon="6.01788">
        <ele>1474.2</ele>
        <time>2023-05-15T11:52:43Z</time>
      </trkpt>
      <trkpt lat="44.64636" lon="6.01785">
        <ele>1474.2</ele>
        <time>2023-05-15T11:52:45Z</time>
      </trkpt>
      <trkpt lat="44.64636" lon="6.01784">
        <ele>1474.2</ele>
        <time>2023-05-15T11:52:46Z</time>
      </trkpt>
      <trkpt lat="44.64637" lon="6.01783">
        <ele>1474.4</ele>
        <time>2023-05-15T11:52:47Z</time>
      </trkpt>
      <trkpt lat="44.64638" lon="6.01781">
        <ele>1474.4</ele>
        <time>2023-05-15T11:52:48Z</time>
      </trkpt>
      <trkpt lat="44.64639" lon="6.01781">
        <ele>1474.4</ele>
        <time>2023-05-15T11:52:49Z</time>
      </trkpt>
      <trkpt lat="44.64639" lon="6.0178">
        <ele>1474.4</ele>
        <time>2023-05-15T11:52:50Z</time>
      </trkpt>
      <trkpt lat="44.6464" lon="6.01779">
        <ele>1474.6</ele>
        <time>2023-05-15T11:52:51Z</time>
      </trkpt>
      <trkpt lat="44.64641" lon="6.01777">
        <ele>1474.8</ele>
        <time>2023-05-15T11:52:53Z</time>
      </trkpt>
      <trkpt lat="44.64642" lon="6.01776">
        <ele>1474.8</ele>
        <time>2023-05-15T11:52:54Z</time>
      </trkpt>
      <trkpt lat="44.64642" lon="6.01776">
        <ele>1475</ele>
        <time>2023-05-15T11:52:55Z</time>
      </trkpt>
      <trkpt lat="44.64643" lon="6.01775">
        <ele>1475.2</ele>
        <time>2023-05-15T11:52:57Z</time>
      </trkpt>
      <trkpt lat="44.64643" lon="6.01775">
        <ele>1475.4</ele>
        <time>2023-05-15T11:52:58Z</time>
      </trkpt>
      <trkpt lat="44.64643" lon="6.01775">
        <ele>1475.4</ele>
        <time>2023-05-15T11:53:00Z</time>
      </trkpt>
      <trkpt lat="44.64643" lon="6.01775">
        <ele>1475.6</ele>
        <time>2023-05-15T11:53:01Z</time>
      </trkpt>
      <trkpt lat="44.64644" lon="6.01774">
        <ele>1475.6</ele>
        <time>2023-05-15T11:53:02Z</time>
      </trkpt>
      <trkpt lat="44.64644" lon="6.01773">
        <ele>1475.6</ele>
        <time>2023-05-15T11:53:03Z</time>
      </trkpt>
      <trkpt lat="44.64645" lon="6.01773">
        <ele>1475.8</ele>
        <time>2023-05-15T11:53:04Z</time>
      </trkpt>
      <trkpt lat="44.64645" lon="6.01773">
        <ele>1476</ele>
        <time>2023-05-15T11:53:05Z</time>
      </trkpt>
      <trkpt lat="44.64645" lon="6.01772">
        <ele>1476</ele>
        <time>2023-05-15T11:53:06Z</time>
      </trkpt>
      <trkpt lat="44.64646" lon="6.0177">
        <ele>1476.4</ele>
        <time>2023-05-15T11:53:07Z</time>
      </trkpt>
      <trkpt lat="44.64647" lon="6.01766">
        <ele>1476.8</ele>
        <time>2023-05-15T11:53:10Z</time>
      </trkpt>
      <trkpt lat="44.64648" lon="6.01765">
        <ele>1476.8</ele>
        <time>2023-05-15T11:53:11Z</time>
      </trkpt>
      <trkpt lat="44.64648" lon="6.01764">
        <ele>1477</ele>
        <time>2023-05-15T11:53:12Z</time>
      </trkpt>
      <trkpt lat="44.64649" lon="6.01762">
        <ele>1477.2</ele>
        <time>2023-05-15T11:53:13Z</time>
      </trkpt>
      <trkpt lat="44.64649" lon="6.01761">
        <ele>1477.2</ele>
        <time>2023-05-15T11:53:14Z</time>
      </trkpt>
      <trkpt lat="44.6465" lon="6.01759">
        <ele>1477.2</ele>
        <time>2023-05-15T11:53:15Z</time>
      </trkpt>
      <trkpt lat="44.64651" lon="6.01757">
        <ele>1477.4</ele>
        <time>2023-05-15T11:53:16Z</time>
      </trkpt>
      <trkpt lat="44.64652" lon="6.01757">
        <ele>1477.4</ele>
        <time>2023-05-15T11:53:17Z</time>
      </trkpt>
      <trkpt lat="44.64652" lon="6.01756">
        <ele>1477.4</ele>
        <time>2023-05-15T11:53:18Z</time>
      </trkpt>
      <trkpt lat="44.64653" lon="6.01754">
        <ele>1477.6</ele>
        <time>2023-05-15T11:53:19Z</time>
      </trkpt>
      <trkpt lat="44.64654" lon="6.01753">
        <ele>1477.6</ele>
        <time>2023-05-15T11:53:20Z</time>
      </trkpt>
      <trkpt lat="44.64654" lon="6.01752">
        <ele>1477.6</ele>
        <time>2023-05-15T11:53:21Z</time>
      </trkpt>
      <trkpt lat="44.64654" lon="6.01752">
        <ele>1477.6</ele>
        <time>2023-05-15T11:53:22Z</time>
      </trkpt>
      <trkpt lat="44.64654" lon="6.01752">
        <ele>1477.8</ele>
        <time>2023-05-15T11:53:23Z</time>
      </trkpt>
      <trkpt lat="44.64654" lon="6.01752">
        <ele>1477.8</ele>
        <time>2023-05-15T11:53:24Z</time>
      </trkpt>
      <trkpt lat="44.64654" lon="6.01751">
        <ele>1477.8</ele>
        <time>2023-05-15T11:53:25Z</time>
      </trkpt>
      <trkpt lat="44.64654" lon="6.01749">
        <ele>1478</ele>
        <time>2023-05-15T11:53:27Z</time>
      </trkpt>
      <trkpt lat="44.64654" lon="6.01745">
        <ele>1478</ele>
        <time>2023-05-15T11:53:30Z</time>
      </trkpt>
      <trkpt lat="44.64654" lon="6.01744">
        <ele>1478.2</ele>
        <time>2023-05-15T11:53:32Z</time>
      </trkpt>
      <trkpt lat="44.64654" lon="6.01744">
        <ele>1478.2</ele>
        <time>2023-05-15T11:53:33Z</time>
      </trkpt>
      <trkpt lat="44.64654" lon="6.01744">
        <ele>1478.2</ele>
        <time>2023-05-15T11:53:34Z</time>
      </trkpt>
      <trkpt lat="44.64654" lon="6.01743">
        <ele>1478.4</ele>
        <time>2023-05-15T11:53:37Z</time>
      </trkpt>
      <trkpt lat="44.64654" lon="6.01743">
        <ele>1478.8</ele>
        <time>2023-05-15T11:53:41Z</time>
      </trkpt>
      <trkpt lat="44.64654" lon="6.01742">
        <ele>1479.4</ele>
        <time>2023-05-15T11:53:49Z</time>
      </trkpt>
      <trkpt lat="44.64654" lon="6.0174">
        <ele>1480.2</ele>
        <time>2023-05-15T11:53:55Z</time>
      </trkpt>
      <trkpt lat="44.64654" lon="6.0174">
        <ele>1480.4</ele>
        <time>2023-05-15T11:53:57Z</time>
      </trkpt>
      <trkpt lat="44.64654" lon="6.01739">
        <ele>1481.6</ele>
        <time>2023-05-15T11:54:05Z</time>
      </trkpt>
      <trkpt lat="44.64653" lon="6.01734">
        <ele>1482.2</ele>
        <time>2023-05-15T11:54:10Z</time>
      </trkpt>
      <trkpt lat="44.64653" lon="6.01733">
        <ele>1482.4</ele>
        <time>2023-05-15T11:54:11Z</time>
      </trkpt>
      <trkpt lat="44.64653" lon="6.01732">
        <ele>1482.4</ele>
        <time>2023-05-15T11:54:12Z</time>
      </trkpt>
      <trkpt lat="44.64653" lon="6.01732">
        <ele>1482.6</ele>
        <time>2023-05-15T11:54:13Z</time>
      </trkpt>
      <trkpt lat="44.64653" lon="6.01731">
        <ele>1482.6</ele>
        <time>2023-05-15T11:54:14Z</time>
      </trkpt>
      <trkpt lat="44.64653" lon="6.0173">
        <ele>1482.6</ele>
        <time>2023-05-15T11:54:15Z</time>
      </trkpt>
      <trkpt lat="44.64654" lon="6.01729">
        <ele>1482.8</ele>
        <time>2023-05-15T11:54:16Z</time>
      </trkpt>
      <trkpt lat="44.64654" lon="6.01727">
        <ele>1482.8</ele>
        <time>2023-05-15T11:54:17Z</time>
      </trkpt>
      <trkpt lat="44.64653" lon="6.01725">
        <ele>1483</ele>
        <time>2023-05-15T11:54:18Z</time>
      </trkpt>
      <trkpt lat="44.64653" lon="6.01723">
        <ele>1483.2</ele>
        <time>2023-05-15T11:54:19Z</time>
      </trkpt>
      <trkpt lat="44.64653" lon="6.01723">
        <ele>1483.2</ele>
        <time>2023-05-15T11:54:20Z</time>
      </trkpt>
      <trkpt lat="44.64653" lon="6.01723">
        <ele>1483.2</ele>
        <time>2023-05-15T11:54:21Z</time>
      </trkpt>
      <trkpt lat="44.64653" lon="6.01723">
        <ele>1483.4</ele>
        <time>2023-05-15T11:54:22Z</time>
      </trkpt>
      <trkpt lat="44.64653" lon="6.01723">
        <ele>1483.6</ele>
        <time>2023-05-15T11:54:23Z</time>
      </trkpt>
      <trkpt lat="44.64653" lon="6.01722">
        <ele>1483.6</ele>
        <time>2023-05-15T11:54:24Z</time>
      </trkpt>
      <trkpt lat="44.64653" lon="6.01722">
        <ele>1483.6</ele>
        <time>2023-05-15T11:54:25Z</time>
      </trkpt>
      <trkpt lat="44.64653" lon="6.01722">
        <ele>1483.6</ele>
        <time>2023-05-15T11:54:26Z</time>
      </trkpt>
      <trkpt lat="44.64653" lon="6.01722">
        <ele>1483.8</ele>
        <time>2023-05-15T11:54:27Z</time>
      </trkpt>
      <trkpt lat="44.64653" lon="6.01722">
        <ele>1483.8</ele>
        <time>2023-05-15T11:54:28Z</time>
      </trkpt>
      <trkpt lat="44.64653" lon="6.01722">
        <ele>1483.6</ele>
        <time>2023-05-15T11:54:29Z</time>
      </trkpt>
      <trkpt lat="44.64652" lon="6.01721">
        <ele>1483.8</ele>
        <time>2023-05-15T11:54:30Z</time>
      </trkpt>
      <trkpt lat="44.64652" lon="6.01721">
        <ele>1484</ele>
        <time>2023-05-15T11:54:31Z</time>
      </trkpt>
      <trkpt lat="44.64652" lon="6.01721">
        <ele>1484</ele>
        <time>2023-05-15T11:54:32Z</time>
      </trkpt>
      <trkpt lat="44.64651" lon="6.01719">
        <ele>1484.2</ele>
        <time>2023-05-15T11:54:36Z</time>
      </trkpt>
      <trkpt lat="44.64649" lon="6.01713">
        <ele>1485</ele>
        <time>2023-05-15T11:54:42Z</time>
      </trkpt>
      <trkpt lat="44.64649" lon="6.01712">
        <ele>1485.2</ele>
        <time>2023-05-15T11:54:43Z</time>
      </trkpt>
      <trkpt lat="44.64649" lon="6.01712">
        <ele>1485.4</ele>
        <time>2023-05-15T11:54:44Z</time>
      </trkpt>
      <trkpt lat="44.64649" lon="6.0171">
        <ele>1486</ele>
        <time>2023-05-15T11:54:49Z</time>
      </trkpt>
      <trkpt lat="44.64648" lon="6.01707">
        <ele>1486.2</ele>
        <time>2023-05-15T11:54:52Z</time>
      </trkpt>
      <trkpt lat="44.64647" lon="6.01707">
        <ele>1486.2</ele>
        <time>2023-05-15T11:54:53Z</time>
      </trkpt>
      <trkpt lat="44.64647" lon="6.01705">
        <ele>1486.2</ele>
        <time>2023-05-15T11:54:54Z</time>
      </trkpt>
      <trkpt lat="44.64646" lon="6.01704">
        <ele>1486.2</ele>
        <time>2023-05-15T11:54:55Z</time>
      </trkpt>
      <trkpt lat="44.64646" lon="6.01703">
        <ele>1486.2</ele>
        <time>2023-05-15T11:54:56Z</time>
      </trkpt>
      <trkpt lat="44.64646" lon="6.01703">
        <ele>1486.2</ele>
        <time>2023-05-15T11:54:57Z</time>
      </trkpt>
      <trkpt lat="44.64646" lon="6.01703">
        <ele>1486.2</ele>
        <time>2023-05-15T11:54:59Z</time>
      </trkpt>
      <trkpt lat="44.64645" lon="6.01701">
        <ele>1486.2</ele>
        <time>2023-05-15T11:55:04Z</time>
      </trkpt>
      <trkpt lat="44.64644" lon="6.01699">
        <ele>1486.4</ele>
        <time>2023-05-15T11:55:07Z</time>
      </trkpt>
      <trkpt lat="44.64644" lon="6.01699">
        <ele>1486.4</ele>
        <time>2023-05-15T11:55:08Z</time>
      </trkpt>
      <trkpt lat="44.64644" lon="6.01699">
        <ele>1487</ele>
        <time>2023-05-15T11:55:12Z</time>
      </trkpt>
      <trkpt lat="44.64643" lon="6.01696">
        <ele>1487.4</ele>
        <time>2023-05-15T11:55:16Z</time>
      </trkpt>
      <trkpt lat="44.64643" lon="6.01693">
        <ele>1487.6</ele>
        <time>2023-05-15T11:55:18Z</time>
      </trkpt>
      <trkpt lat="44.64642" lon="6.01691">
        <ele>1487.8</ele>
        <time>2023-05-15T11:55:19Z</time>
      </trkpt>
      <trkpt lat="44.64642" lon="6.0169">
        <ele>1488</ele>
        <time>2023-05-15T11:55:20Z</time>
      </trkpt>
      <trkpt lat="44.64641" lon="6.01683">
        <ele>1488</ele>
        <time>2023-05-15T11:55:24Z</time>
      </trkpt>
      <trkpt lat="44.6464" lon="6.01682">
        <ele>1488.2</ele>
        <time>2023-05-15T11:55:26Z</time>
      </trkpt>
      <trkpt lat="44.6464" lon="6.01681">
        <ele>1488.4</ele>
        <time>2023-05-15T11:55:27Z</time>
      </trkpt>
      <trkpt lat="44.6464" lon="6.0168">
        <ele>1488.4</ele>
        <time>2023-05-15T11:55:28Z</time>
      </trkpt>
      <trkpt lat="44.6464" lon="6.01679">
        <ele>1488.4</ele>
        <time>2023-05-15T11:55:29Z</time>
      </trkpt>
      <trkpt lat="44.64641" lon="6.01678">
        <ele>1488.6</ele>
        <time>2023-05-15T11:55:30Z</time>
      </trkpt>
      <trkpt lat="44.64641" lon="6.01678">
        <ele>1488.8</ele>
        <time>2023-05-15T11:55:31Z</time>
      </trkpt>
      <trkpt lat="44.64641" lon="6.01678">
        <ele>1488.8</ele>
        <time>2023-05-15T11:55:32Z</time>
      </trkpt>
      <trkpt lat="44.64641" lon="6.01678">
        <ele>1489</ele>
        <time>2023-05-15T11:55:33Z</time>
      </trkpt>
      <trkpt lat="44.64641" lon="6.01678">
        <ele>1489</ele>
        <time>2023-05-15T11:55:34Z</time>
      </trkpt>
      <trkpt lat="44.64641" lon="6.01677">
        <ele>1489</ele>
        <time>2023-05-15T11:55:35Z</time>
      </trkpt>
      <trkpt lat="44.64641" lon="6.01677">
        <ele>1489.2</ele>
        <time>2023-05-15T11:55:36Z</time>
      </trkpt>
      <trkpt lat="44.64641" lon="6.01677">
        <ele>1489.2</ele>
        <time>2023-05-15T11:55:37Z</time>
      </trkpt>
      <trkpt lat="44.64641" lon="6.01677">
        <ele>1489.2</ele>
        <time>2023-05-15T11:55:38Z</time>
      </trkpt>
      <trkpt lat="44.64642" lon="6.01677">
        <ele>1489.4</ele>
        <time>2023-05-15T11:55:39Z</time>
      </trkpt>
      <trkpt lat="44.64643" lon="6.01677">
        <ele>1489.4</ele>
        <time>2023-05-15T11:55:40Z</time>
      </trkpt>
      <trkpt lat="44.64644" lon="6.01677">
        <ele>1489.4</ele>
        <time>2023-05-15T11:55:43Z</time>
      </trkpt>
      <trkpt lat="44.64644" lon="6.01677">
        <ele>1489.4</ele>
        <time>2023-05-15T11:55:47Z</time>
      </trkpt>
      <trkpt lat="44.64647" lon="6.01675">
        <ele>1490.4</ele>
        <time>2023-05-15T11:55:54Z</time>
      </trkpt>
      <trkpt lat="44.64647" lon="6.01674">
        <ele>1490.6</ele>
        <time>2023-05-15T11:55:56Z</time>
      </trkpt>
      <trkpt lat="44.64648" lon="6.01673">
        <ele>1490.8</ele>
        <time>2023-05-15T11:55:58Z</time>
      </trkpt>
      <trkpt lat="44.64648" lon="6.01673">
        <ele>1491</ele>
        <time>2023-05-15T11:55:59Z</time>
      </trkpt>
      <trkpt lat="44.64649" lon="6.01673">
        <ele>1491</ele>
        <time>2023-05-15T11:56:00Z</time>
      </trkpt>
      <trkpt lat="44.6465" lon="6.01673">
        <ele>1491</ele>
        <time>2023-05-15T11:56:01Z</time>
      </trkpt>
      <trkpt lat="44.6465" lon="6.01673">
        <ele>1491.2</ele>
        <time>2023-05-15T11:56:02Z</time>
      </trkpt>
      <trkpt lat="44.64651" lon="6.01673">
        <ele>1491.2</ele>
        <time>2023-05-15T11:56:03Z</time>
      </trkpt>
      <trkpt lat="44.64652" lon="6.01673">
        <ele>1491.4</ele>
        <time>2023-05-15T11:56:04Z</time>
      </trkpt>
      <trkpt lat="44.64653" lon="6.01673">
        <ele>1491.8</ele>
        <time>2023-05-15T11:56:06Z</time>
      </trkpt>
      <trkpt lat="44.64653" lon="6.01673">
        <ele>1492</ele>
        <time>2023-05-15T11:56:08Z</time>
      </trkpt>
      <trkpt lat="44.64654" lon="6.01673">
        <ele>1492</ele>
        <time>2023-05-15T11:56:09Z</time>
      </trkpt>
      <trkpt lat="44.64658" lon="6.01674">
        <ele>1492.4</ele>
        <time>2023-05-15T11:56:14Z</time>
      </trkpt>
      <trkpt lat="44.64658" lon="6.01675">
        <ele>1492.4</ele>
        <time>2023-05-15T11:56:15Z</time>
      </trkpt>
      <trkpt lat="44.64659" lon="6.01675">
        <ele>1492.6</ele>
        <time>2023-05-15T11:56:16Z</time>
      </trkpt>
      <trkpt lat="44.64659" lon="6.01675">
        <ele>1492.6</ele>
        <time>2023-05-15T11:56:17Z</time>
      </trkpt>
      <trkpt lat="44.6466" lon="6.01675">
        <ele>1492.8</ele>
        <time>2023-05-15T11:56:19Z</time>
      </trkpt>
      <trkpt lat="44.6466" lon="6.01675">
        <ele>1493</ele>
        <time>2023-05-15T11:56:20Z</time>
      </trkpt>
      <trkpt lat="44.64661" lon="6.01675">
        <ele>1493</ele>
        <time>2023-05-15T11:56:21Z</time>
      </trkpt>
      <trkpt lat="44.64661" lon="6.01675">
        <ele>1493</ele>
        <time>2023-05-15T11:56:22Z</time>
      </trkpt>
      <trkpt lat="44.64661" lon="6.01676">
        <ele>1493.2</ele>
        <time>2023-05-15T11:56:23Z</time>
      </trkpt>
      <trkpt lat="44.64662" lon="6.01676">
        <ele>1493.2</ele>
        <time>2023-05-15T11:56:24Z</time>
      </trkpt>
      <trkpt lat="44.64664" lon="6.01677">
        <ele>1493.2</ele>
        <time>2023-05-15T11:56:26Z</time>
      </trkpt>
      <trkpt lat="44.64664" lon="6.01676">
        <ele>1493.4</ele>
        <time>2023-05-15T11:56:27Z</time>
      </trkpt>
      <trkpt lat="44.64665" lon="6.01676">
        <ele>1493.4</ele>
        <time>2023-05-15T11:56:28Z</time>
      </trkpt>
      <trkpt lat="44.64665" lon="6.01676">
        <ele>1493.6</ele>
        <time>2023-05-15T11:56:29Z</time>
      </trkpt>
      <trkpt lat="44.64666" lon="6.01677">
        <ele>1493.6</ele>
        <time>2023-05-15T11:56:30Z</time>
      </trkpt>
      <trkpt lat="44.64666" lon="6.01677">
        <ele>1493.8</ele>
        <time>2023-05-15T11:56:31Z</time>
      </trkpt>
      <trkpt lat="44.64668" lon="6.01678">
        <ele>1493.8</ele>
        <time>2023-05-15T11:56:33Z</time>
      </trkpt>
      <trkpt lat="44.6467" lon="6.01679">
        <ele>1494.4</ele>
        <time>2023-05-15T11:56:36Z</time>
      </trkpt>
      <trkpt lat="44.64671" lon="6.0168">
        <ele>1494.4</ele>
        <time>2023-05-15T11:56:37Z</time>
      </trkpt>
      <trkpt lat="44.64671" lon="6.0168">
        <ele>1494.4</ele>
        <time>2023-05-15T11:56:38Z</time>
      </trkpt>
      <trkpt lat="44.64672" lon="6.0168">
        <ele>1494.6</ele>
        <time>2023-05-15T11:56:39Z</time>
      </trkpt>
      <trkpt lat="44.64672" lon="6.0168">
        <ele>1494.6</ele>
        <time>2023-05-15T11:56:40Z</time>
      </trkpt>
      <trkpt lat="44.64672" lon="6.01681">
        <ele>1494.6</ele>
        <time>2023-05-15T11:56:41Z</time>
      </trkpt>
      <trkpt lat="44.64675" lon="6.01683">
        <ele>1494.8</ele>
        <time>2023-05-15T11:56:44Z</time>
      </trkpt>
      <trkpt lat="44.64676" lon="6.01683">
        <ele>1495</ele>
        <time>2023-05-15T11:56:45Z</time>
      </trkpt>
      <trkpt lat="44.64677" lon="6.01683">
        <ele>1495</ele>
        <time>2023-05-15T11:56:46Z</time>
      </trkpt>
      <trkpt lat="44.64678" lon="6.01684">
        <ele>1495.2</ele>
        <time>2023-05-15T11:56:47Z</time>
      </trkpt>
      <trkpt lat="44.6468" lon="6.01686">
        <ele>1495.8</ele>
        <time>2023-05-15T11:56:51Z</time>
      </trkpt>
      <trkpt lat="44.6468" lon="6.01686">
        <ele>1495.8</ele>
        <time>2023-05-15T11:56:52Z</time>
      </trkpt>
      <trkpt lat="44.6468" lon="6.01686">
        <ele>1495.8</ele>
        <time>2023-05-15T11:56:53Z</time>
      </trkpt>
      <trkpt lat="44.6468" lon="6.01686">
        <ele>1496</ele>
        <time>2023-05-15T11:56:54Z</time>
      </trkpt>
      <trkpt lat="44.6468" lon="6.01686">
        <ele>1496.2</ele>
        <time>2023-05-15T11:56:55Z</time>
      </trkpt>
      <trkpt lat="44.64681" lon="6.01687">
        <ele>1496.2</ele>
        <time>2023-05-15T11:56:56Z</time>
      </trkpt>
      <trkpt lat="44.64682" lon="6.01687">
        <ele>1496.6</ele>
        <time>2023-05-15T11:56:58Z</time>
      </trkpt>
      <trkpt lat="44.64683" lon="6.01687">
        <ele>1496.8</ele>
        <time>2023-05-15T11:56:59Z</time>
      </trkpt>
      <trkpt lat="44.64684" lon="6.01687">
        <ele>1497</ele>
        <time>2023-05-15T11:57:00Z</time>
      </trkpt>
      <trkpt lat="44.64684" lon="6.01688">
        <ele>1497</ele>
        <time>2023-05-15T11:57:01Z</time>
      </trkpt>
      <trkpt lat="44.64684" lon="6.01688">
        <ele>1497</ele>
        <time>2023-05-15T11:57:02Z</time>
      </trkpt>
      <trkpt lat="44.64684" lon="6.01688">
        <ele>1497</ele>
        <time>2023-05-15T11:57:03Z</time>
      </trkpt>
      <trkpt lat="44.64685" lon="6.01688">
        <ele>1497.2</ele>
        <time>2023-05-15T11:57:04Z</time>
      </trkpt>
      <trkpt lat="44.64685" lon="6.01688">
        <ele>1497.2</ele>
        <time>2023-05-15T11:57:05Z</time>
      </trkpt>
      <trkpt lat="44.64685" lon="6.01688">
        <ele>1497.2</ele>
        <time>2023-05-15T11:57:06Z</time>
      </trkpt>
      <trkpt lat="44.64685" lon="6.01688">
        <ele>1497.2</ele>
        <time>2023-05-15T11:57:08Z</time>
      </trkpt>
      <trkpt lat="44.64685" lon="6.01688">
        <ele>1497.4</ele>
        <time>2023-05-15T11:57:09Z</time>
      </trkpt>
      <trkpt lat="44.64687" lon="6.01688">
        <ele>1497.6</ele>
        <time>2023-05-15T11:57:12Z</time>
      </trkpt>
      <trkpt lat="44.6469" lon="6.01688">
        <ele>1497.6</ele>
        <time>2023-05-15T11:57:15Z</time>
      </trkpt>
      <trkpt lat="44.6469" lon="6.01688">
        <ele>1498.6</ele>
        <time>2023-05-15T11:57:25Z</time>
      </trkpt>
      <trkpt lat="44.6469" lon="6.01688">
        <ele>1499.2</ele>
        <time>2023-05-15T11:57:35Z</time>
      </trkpt>
      <trkpt lat="44.64691" lon="6.01688">
        <ele>1499.2</ele>
        <time>2023-05-15T11:57:39Z</time>
      </trkpt>
      <trkpt lat="44.64695" lon="6.01687">
        <ele>1499.2</ele>
        <time>2023-05-15T11:57:42Z</time>
      </trkpt>
      <trkpt lat="44.64708" lon="6.01684">
        <ele>1499.8</ele>
        <time>2023-05-15T11:57:50Z</time>
      </trkpt>
      <trkpt lat="44.6471" lon="6.01683">
        <ele>1500.2</ele>
        <time>2023-05-15T11:57:52Z</time>
      </trkpt>
      <trkpt lat="44.64711" lon="6.01683">
        <ele>1500.4</ele>
        <time>2023-05-15T11:57:53Z</time>
      </trkpt>
      <trkpt lat="44.64714" lon="6.01683">
        <ele>1500.6</ele>
        <time>2023-05-15T11:57:56Z</time>
      </trkpt>
      <trkpt lat="44.64715" lon="6.01683">
        <ele>1500.8</ele>
        <time>2023-05-15T11:57:57Z</time>
      </trkpt>
      <trkpt lat="44.64716" lon="6.01682">
        <ele>1501</ele>
        <time>2023-05-15T11:57:58Z</time>
      </trkpt>
      <trkpt lat="44.64718" lon="6.01683">
        <ele>1501.4</ele>
        <time>2023-05-15T11:57:59Z</time>
      </trkpt>
      <trkpt lat="44.64718" lon="6.01683">
        <ele>1501.6</ele>
        <time>2023-05-15T11:58:00Z</time>
      </trkpt>
      <trkpt lat="44.64718" lon="6.01683">
        <ele>1501.8</ele>
        <time>2023-05-15T11:58:01Z</time>
      </trkpt>
      <trkpt lat="44.64718" lon="6.01683">
        <ele>1502.2</ele>
        <time>2023-05-15T11:58:02Z</time>
      </trkpt>
      <trkpt lat="44.64719" lon="6.01683">
        <ele>1502.4</ele>
        <time>2023-05-15T11:58:04Z</time>
      </trkpt>
      <trkpt lat="44.64719" lon="6.01682">
        <ele>1502.4</ele>
        <time>2023-05-15T11:58:05Z</time>
      </trkpt>
      <trkpt lat="44.6472" lon="6.01682">
        <ele>1502.4</ele>
        <time>2023-05-15T11:58:06Z</time>
      </trkpt>
      <trkpt lat="44.64721" lon="6.01682">
        <ele>1502.6</ele>
        <time>2023-05-15T11:58:07Z</time>
      </trkpt>
      <trkpt lat="44.64723" lon="6.01682">
        <ele>1502.6</ele>
        <time>2023-05-15T11:58:08Z</time>
      </trkpt>
      <trkpt lat="44.64724" lon="6.01682">
        <ele>1502.6</ele>
        <time>2023-05-15T11:58:09Z</time>
      </trkpt>
      <trkpt lat="44.64725" lon="6.01681">
        <ele>1502.8</ele>
        <time>2023-05-15T11:58:10Z</time>
      </trkpt>
      <trkpt lat="44.64726" lon="6.01681">
        <ele>1503</ele>
        <time>2023-05-15T11:58:11Z</time>
      </trkpt>
      <trkpt lat="44.64727" lon="6.01681">
        <ele>1503</ele>
        <time>2023-05-15T11:58:12Z</time>
      </trkpt>
      <trkpt lat="44.64727" lon="6.0168">
        <ele>1503.2</ele>
        <time>2023-05-15T11:58:13Z</time>
      </trkpt>
      <trkpt lat="44.64728" lon="6.0168">
        <ele>1503.2</ele>
        <time>2023-05-15T11:58:14Z</time>
      </trkpt>
      <trkpt lat="44.6473" lon="6.0168">
        <ele>1503.4</ele>
        <time>2023-05-15T11:58:15Z</time>
      </trkpt>
      <trkpt lat="44.6473" lon="6.0168">
        <ele>1503.6</ele>
        <time>2023-05-15T11:58:16Z</time>
      </trkpt>
      <trkpt lat="44.64731" lon="6.0168">
        <ele>1503.8</ele>
        <time>2023-05-15T11:58:17Z</time>
      </trkpt>
      <trkpt lat="44.64731" lon="6.0168">
        <ele>1504</ele>
        <time>2023-05-15T11:58:18Z</time>
      </trkpt>
      <trkpt lat="44.64732" lon="6.01679">
        <ele>1504.2</ele>
        <time>2023-05-15T11:58:19Z</time>
      </trkpt>
      <trkpt lat="44.64733" lon="6.01679">
        <ele>1504.4</ele>
        <time>2023-05-15T11:58:20Z</time>
      </trkpt>
      <trkpt lat="44.64734" lon="6.01679">
        <ele>1504.4</ele>
        <time>2023-05-15T11:58:21Z</time>
      </trkpt>
      <trkpt lat="44.64735" lon="6.01679">
        <ele>1504.6</ele>
        <time>2023-05-15T11:58:22Z</time>
      </trkpt>
      <trkpt lat="44.64735" lon="6.01678">
        <ele>1504.6</ele>
        <time>2023-05-15T11:58:23Z</time>
      </trkpt>
      <trkpt lat="44.64736" lon="6.01678">
        <ele>1504.8</ele>
        <time>2023-05-15T11:58:24Z</time>
      </trkpt>
      <trkpt lat="44.64736" lon="6.01678">
        <ele>1504.8</ele>
        <time>2023-05-15T11:58:25Z</time>
      </trkpt>
      <trkpt lat="44.64736" lon="6.01678">
        <ele>1505</ele>
        <time>2023-05-15T11:58:26Z</time>
      </trkpt>
      <trkpt lat="44.64736" lon="6.01678">
        <ele>1505.4</ele>
        <time>2023-05-15T11:58:29Z</time>
      </trkpt>
      <trkpt lat="44.64737" lon="6.01678">
        <ele>1505.8</ele>
        <time>2023-05-15T11:58:34Z</time>
      </trkpt>
      <trkpt lat="44.64737" lon="6.01678">
        <ele>1506.2</ele>
        <time>2023-05-15T11:58:36Z</time>
      </trkpt>
      <trkpt lat="44.64735" lon="6.01679">
        <ele>1506.2</ele>
        <time>2023-05-15T11:58:39Z</time>
      </trkpt>
      <trkpt lat="44.64735" lon="6.01679">
        <ele>1506.2</ele>
        <time>2023-05-15T11:58:40Z</time>
      </trkpt>
      <trkpt lat="44.64735" lon="6.0168">
        <ele>1506.2</ele>
        <time>2023-05-15T11:58:41Z</time>
      </trkpt>
      <trkpt lat="44.64734" lon="6.0168">
        <ele>1506.2</ele>
        <time>2023-05-15T11:58:42Z</time>
      </trkpt>
      <trkpt lat="44.64734" lon="6.01681">
        <ele>1506.2</ele>
        <time>2023-05-15T11:58:43Z</time>
      </trkpt>
      <trkpt lat="44.64733" lon="6.01681">
        <ele>1506.2</ele>
        <time>2023-05-15T11:58:44Z</time>
      </trkpt>
      <trkpt lat="44.64733" lon="6.01681">
        <ele>1506.2</ele>
        <time>2023-05-15T11:58:45Z</time>
      </trkpt>
      <trkpt lat="44.64732" lon="6.01681">
        <ele>1506.2</ele>
        <time>2023-05-15T11:58:46Z</time>
      </trkpt>
      <trkpt lat="44.64732" lon="6.01681">
        <ele>1506.2</ele>
        <time>2023-05-15T11:58:47Z</time>
      </trkpt>
      <trkpt lat="44.64732" lon="6.01681">
        <ele>1506.2</ele>
        <time>2023-05-15T11:58:48Z</time>
      </trkpt>
      <trkpt lat="44.64731" lon="6.01682">
        <ele>1506.4</ele>
        <time>2023-05-15T11:58:50Z</time>
      </trkpt>
      <trkpt lat="44.64731" lon="6.01682">
        <ele>1506.4</ele>
        <time>2023-05-15T11:58:51Z</time>
      </trkpt>
      <trkpt lat="44.64731" lon="6.01683">
        <ele>1506.4</ele>
        <time>2023-05-15T11:58:53Z</time>
      </trkpt>
      <trkpt lat="44.64731" lon="6.01683">
        <ele>1506.4</ele>
        <time>2023-05-15T11:58:54Z</time>
      </trkpt>
      <trkpt lat="44.6473" lon="6.01685">
        <ele>1506.6</ele>
        <time>2023-05-15T11:58:59Z</time>
      </trkpt>
      <trkpt lat="44.6473" lon="6.01685">
        <ele>1506.6</ele>
        <time>2023-05-15T11:59:00Z</time>
      </trkpt>
      <trkpt lat="44.6473" lon="6.01686">
        <ele>1506.8</ele>
        <time>2023-05-15T11:59:01Z</time>
      </trkpt>
      <trkpt lat="44.64729" lon="6.01686">
        <ele>1506.8</ele>
        <time>2023-05-15T11:59:03Z</time>
      </trkpt>
      <trkpt lat="44.64729" lon="6.01686">
        <ele>1507</ele>
        <time>2023-05-15T11:59:04Z</time>
      </trkpt>
      <trkpt lat="44.64729" lon="6.01687">
        <ele>1507.2</ele>
        <time>2023-05-15T11:59:07Z</time>
      </trkpt>
      <trkpt lat="44.64729" lon="6.01687">
        <ele>1507.2</ele>
        <time>2023-05-15T11:59:08Z</time>
      </trkpt>
      <trkpt lat="44.64728" lon="6.0169">
        <ele>1507.6</ele>
        <time>2023-05-15T11:59:11Z</time>
      </trkpt>
      <trkpt lat="44.64728" lon="6.01692">
        <ele>1507.8</ele>
        <time>2023-05-15T11:59:13Z</time>
      </trkpt>
      <trkpt lat="44.64727" lon="6.01695">
        <ele>1507.8</ele>
        <time>2023-05-15T11:59:15Z</time>
      </trkpt>
      <trkpt lat="44.64727" lon="6.01695">
        <ele>1508</ele>
        <time>2023-05-15T11:59:16Z</time>
      </trkpt>
      <trkpt lat="44.64727" lon="6.01695">
        <ele>1508</ele>
        <time>2023-05-15T11:59:17Z</time>
      </trkpt>
      <trkpt lat="44.64727" lon="6.01699">
        <ele>1508</ele>
        <time>2023-05-15T11:59:21Z</time>
      </trkpt>
      <trkpt lat="44.64727" lon="6.017">
        <ele>1508.4</ele>
        <time>2023-05-15T11:59:24Z</time>
      </trkpt>
      <trkpt lat="44.64727" lon="6.017">
        <ele>1508.6</ele>
        <time>2023-05-15T11:59:25Z</time>
      </trkpt>
      <trkpt lat="44.64726" lon="6.01701">
        <ele>1508.8</ele>
        <time>2023-05-15T11:59:26Z</time>
      </trkpt>
      <trkpt lat="44.64726" lon="6.01702">
        <ele>1509</ele>
        <time>2023-05-15T11:59:27Z</time>
      </trkpt>
      <trkpt lat="44.64726" lon="6.01703">
        <ele>1509.2</ele>
        <time>2023-05-15T11:59:28Z</time>
      </trkpt>
      <trkpt lat="44.64726" lon="6.01703">
        <ele>1509.6</ele>
        <time>2023-05-15T11:59:30Z</time>
      </trkpt>
      <trkpt lat="44.64726" lon="6.01703">
        <ele>1509.6</ele>
        <time>2023-05-15T11:59:31Z</time>
      </trkpt>
      <trkpt lat="44.64726" lon="6.01704">
        <ele>1509.6</ele>
        <time>2023-05-15T11:59:32Z</time>
      </trkpt>
      <trkpt lat="44.64726" lon="6.01705">
        <ele>1509.6</ele>
        <time>2023-05-15T11:59:33Z</time>
      </trkpt>
      <trkpt lat="44.64726" lon="6.01706">
        <ele>1509.8</ele>
        <time>2023-05-15T11:59:34Z</time>
      </trkpt>
      <trkpt lat="44.64726" lon="6.01706">
        <ele>1510.2</ele>
        <time>2023-05-15T11:59:35Z</time>
      </trkpt>
      <trkpt lat="44.64726" lon="6.01706">
        <ele>1510.2</ele>
        <time>2023-05-15T11:59:36Z</time>
      </trkpt>
      <trkpt lat="44.64727" lon="6.01707">
        <ele>1510.4</ele>
        <time>2023-05-15T11:59:37Z</time>
      </trkpt>
      <trkpt lat="44.64726" lon="6.01708">
        <ele>1510.4</ele>
        <time>2023-05-15T11:59:38Z</time>
      </trkpt>
      <trkpt lat="44.64726" lon="6.01709">
        <ele>1510.8</ele>
        <time>2023-05-15T11:59:39Z</time>
      </trkpt>
      <trkpt lat="44.64726" lon="6.01709">
        <ele>1511</ele>
        <time>2023-05-15T11:59:40Z</time>
      </trkpt>
      <trkpt lat="44.64726" lon="6.0171">
        <ele>1511.2</ele>
        <time>2023-05-15T11:59:41Z</time>
      </trkpt>
      <trkpt lat="44.64726" lon="6.01712">
        <ele>1511.4</ele>
        <time>2023-05-15T11:59:42Z</time>
      </trkpt>
      <trkpt lat="44.64726" lon="6.01712">
        <ele>1511.4</ele>
        <time>2023-05-15T11:59:43Z</time>
      </trkpt>
      <trkpt lat="44.64726" lon="6.01712">
        <ele>1511.6</ele>
        <time>2023-05-15T11:59:44Z</time>
      </trkpt>
      <trkpt lat="44.64726" lon="6.01714">
        <ele>1511.8</ele>
        <time>2023-05-15T11:59:45Z</time>
      </trkpt>
      <trkpt lat="44.64726" lon="6.01714">
        <ele>1512.2</ele>
        <time>2023-05-15T11:59:46Z</time>
      </trkpt>
      <trkpt lat="44.64726" lon="6.01716">
        <ele>1512.2</ele>
        <time>2023-05-15T11:59:47Z</time>
      </trkpt>
      <trkpt lat="44.64727" lon="6.01717">
        <ele>1512.4</ele>
        <time>2023-05-15T11:59:48Z</time>
      </trkpt>
      <trkpt lat="44.64726" lon="6.01719">
        <ele>1512.4</ele>
        <time>2023-05-15T11:59:49Z</time>
      </trkpt>
      <trkpt lat="44.64726" lon="6.01719">
        <ele>1512.6</ele>
        <time>2023-05-15T11:59:50Z</time>
      </trkpt>
      <trkpt lat="44.64727" lon="6.0172">
        <ele>1512.6</ele>
        <time>2023-05-15T11:59:51Z</time>
      </trkpt>
      <trkpt lat="44.64727" lon="6.01721">
        <ele>1512.8</ele>
        <time>2023-05-15T11:59:52Z</time>
      </trkpt>
      <trkpt lat="44.64727" lon="6.01721">
        <ele>1512.8</ele>
        <time>2023-05-15T11:59:53Z</time>
      </trkpt>
      <trkpt lat="44.64726" lon="6.01721">
        <ele>1513</ele>
        <time>2023-05-15T11:59:54Z</time>
      </trkpt>
      <trkpt lat="44.64726" lon="6.01721">
        <ele>1513</ele>
        <time>2023-05-15T11:59:55Z</time>
      </trkpt>
      <trkpt lat="44.64726" lon="6.01721">
        <ele>1513.2</ele>
        <time>2023-05-15T11:59:56Z</time>
      </trkpt>
      <trkpt lat="44.64726" lon="6.01722">
        <ele>1513.6</ele>
        <time>2023-05-15T11:59:57Z</time>
      </trkpt>
      <trkpt lat="44.64726" lon="6.01722">
        <ele>1513.6</ele>
        <time>2023-05-15T11:59:58Z</time>
      </trkpt>
      <trkpt lat="44.64726" lon="6.01723">
        <ele>1513.6</ele>
        <time>2023-05-15T11:59:59Z</time>
      </trkpt>
      <trkpt lat="44.64726" lon="6.01723">
        <ele>1514</ele>
        <time>2023-05-15T12:00:00Z</time>
      </trkpt>
      <trkpt lat="44.64726" lon="6.01724">
        <ele>1514</ele>
        <time>2023-05-15T12:00:01Z</time>
      </trkpt>
      <trkpt lat="44.64726" lon="6.01724">
        <ele>1514.2</ele>
        <time>2023-05-15T12:00:02Z</time>
      </trkpt>
      <trkpt lat="44.64726" lon="6.01725">
        <ele>1514.2</ele>
        <time>2023-05-15T12:00:03Z</time>
      </trkpt>
      <trkpt lat="44.64726" lon="6.01727">
        <ele>1514.4</ele>
        <time>2023-05-15T12:00:04Z</time>
      </trkpt>
      <trkpt lat="44.64726" lon="6.01728">
        <ele>1514.4</ele>
        <time>2023-05-15T12:00:05Z</time>
      </trkpt>
      <trkpt lat="44.64725" lon="6.01729">
        <ele>1514.4</ele>
        <time>2023-05-15T12:00:06Z</time>
      </trkpt>
      <trkpt lat="44.64725" lon="6.01729">
        <ele>1514.6</ele>
        <time>2023-05-15T12:00:07Z</time>
      </trkpt>
      <trkpt lat="44.64725" lon="6.01729">
        <ele>1514.6</ele>
        <time>2023-05-15T12:00:08Z</time>
      </trkpt>
      <trkpt lat="44.64725" lon="6.0173">
        <ele>1514.6</ele>
        <time>2023-05-15T12:00:09Z</time>
      </trkpt>
      <trkpt lat="44.64725" lon="6.0173">
        <ele>1514.6</ele>
        <time>2023-05-15T12:00:10Z</time>
      </trkpt>
      <trkpt lat="44.64725" lon="6.0173">
        <ele>1514.8</ele>
        <time>2023-05-15T12:00:11Z</time>
      </trkpt>
      <trkpt lat="44.64725" lon="6.01731">
        <ele>1514.8</ele>
        <time>2023-05-15T12:00:12Z</time>
      </trkpt>
      <trkpt lat="44.64725" lon="6.01734">
        <ele>1514.8</ele>
        <time>2023-05-15T12:00:13Z</time>
      </trkpt>
      <trkpt lat="44.64725" lon="6.01737">
        <ele>1515</ele>
        <time>2023-05-15T12:00:14Z</time>
      </trkpt>
      <trkpt lat="44.64725" lon="6.0174">
        <ele>1515</ele>
        <time>2023-05-15T12:00:15Z</time>
      </trkpt>
      <trkpt lat="44.64725" lon="6.01741">
        <ele>1515</ele>
        <time>2023-05-15T12:00:16Z</time>
      </trkpt>
      <trkpt lat="44.64725" lon="6.01741">
        <ele>1515.2</ele>
        <time>2023-05-15T12:00:17Z</time>
      </trkpt>
      <trkpt lat="44.64725" lon="6.01742">
        <ele>1515.2</ele>
        <time>2023-05-15T12:00:18Z</time>
      </trkpt>
      <trkpt lat="44.64725" lon="6.01743">
        <ele>1515.4</ele>
        <time>2023-05-15T12:00:19Z</time>
      </trkpt>
      <trkpt lat="44.64724" lon="6.01746">
        <ele>1515.4</ele>
        <time>2023-05-15T12:00:20Z</time>
      </trkpt>
      <trkpt lat="44.64724" lon="6.01747">
        <ele>1515.6</ele>
        <time>2023-05-15T12:00:22Z</time>
      </trkpt>
      <trkpt lat="44.64724" lon="6.01751">
        <ele>1516.4</ele>
        <time>2023-05-15T12:00:26Z</time>
      </trkpt>
      <trkpt lat="44.64724" lon="6.01751">
        <ele>1516.6</ele>
        <time>2023-05-15T12:00:27Z</time>
      </trkpt>
      <trkpt lat="44.64723" lon="6.01752">
        <ele>1516.8</ele>
        <time>2023-05-15T12:00:28Z</time>
      </trkpt>
      <trkpt lat="44.64723" lon="6.01752">
        <ele>1517</ele>
        <time>2023-05-15T12:00:29Z</time>
      </trkpt>
      <trkpt lat="44.64723" lon="6.01752">
        <ele>1517.2</ele>
        <time>2023-05-15T12:00:30Z</time>
      </trkpt>
      <trkpt lat="44.64723" lon="6.01754">
        <ele>1517.4</ele>
        <time>2023-05-15T12:00:31Z</time>
      </trkpt>
      <trkpt lat="44.64723" lon="6.01754">
        <ele>1517.6</ele>
        <time>2023-05-15T12:00:32Z</time>
      </trkpt>
      <trkpt lat="44.64723" lon="6.01754">
        <ele>1517.8</ele>
        <time>2023-05-15T12:00:33Z</time>
      </trkpt>
      <trkpt lat="44.64723" lon="6.01754">
        <ele>1517.8</ele>
        <time>2023-05-15T12:00:34Z</time>
      </trkpt>
      <trkpt lat="44.64723" lon="6.01754">
        <ele>1518</ele>
        <time>2023-05-15T12:00:35Z</time>
      </trkpt>
      <trkpt lat="44.64723" lon="6.01754">
        <ele>1518</ele>
        <time>2023-05-15T12:00:36Z</time>
      </trkpt>
      <trkpt lat="44.64723" lon="6.01754">
        <ele>1518</ele>
        <time>2023-05-15T12:00:37Z</time>
      </trkpt>
      <trkpt lat="44.64722" lon="6.01755">
        <ele>1518.6</ele>
        <time>2023-05-15T12:00:41Z</time>
      </trkpt>
      <trkpt lat="44.64722" lon="6.01755">
        <ele>1518.8</ele>
        <time>2023-05-15T12:00:43Z</time>
      </trkpt>
      <trkpt lat="44.64722" lon="6.01756">
        <ele>1519</ele>
        <time>2023-05-15T12:00:47Z</time>
      </trkpt>
      <trkpt lat="44.64722" lon="6.01758">
        <ele>1519</ele>
        <time>2023-05-15T12:00:49Z</time>
      </trkpt>
      <trkpt lat="44.64721" lon="6.0176">
        <ele>1519</ele>
        <time>2023-05-15T12:00:50Z</time>
      </trkpt>
      <trkpt lat="44.64721" lon="6.01761">
        <ele>1519.2</ele>
        <time>2023-05-15T12:00:51Z</time>
      </trkpt>
      <trkpt lat="44.6472" lon="6.01763">
        <ele>1519.4</ele>
        <time>2023-05-15T12:00:52Z</time>
      </trkpt>
      <trkpt lat="44.6472" lon="6.01765">
        <ele>1519.4</ele>
        <time>2023-05-15T12:00:53Z</time>
      </trkpt>
      <trkpt lat="44.6472" lon="6.01767">
        <ele>1519.6</ele>
        <time>2023-05-15T12:00:54Z</time>
      </trkpt>
      <trkpt lat="44.6472" lon="6.0177">
        <ele>1519.6</ele>
        <time>2023-05-15T12:00:55Z</time>
      </trkpt>
      <trkpt lat="44.6472" lon="6.01771">
        <ele>1519.8</ele>
        <time>2023-05-15T12:00:56Z</time>
      </trkpt>
      <trkpt lat="44.6472" lon="6.01772">
        <ele>1519.8</ele>
        <time>2023-05-15T12:00:57Z</time>
      </trkpt>
      <trkpt lat="44.6472" lon="6.01773">
        <ele>1520</ele>
        <time>2023-05-15T12:00:58Z</time>
      </trkpt>
      <trkpt lat="44.6472" lon="6.01775">
        <ele>1520</ele>
        <time>2023-05-15T12:00:59Z</time>
      </trkpt>
      <trkpt lat="44.64719" lon="6.01776">
        <ele>1520.2</ele>
        <time>2023-05-15T12:01:00Z</time>
      </trkpt>
      <trkpt lat="44.64719" lon="6.01776">
        <ele>1520.2</ele>
        <time>2023-05-15T12:01:01Z</time>
      </trkpt>
      <trkpt lat="44.64719" lon="6.01776">
        <ele>1520.4</ele>
        <time>2023-05-15T12:01:02Z</time>
      </trkpt>
      <trkpt lat="44.64719" lon="6.01779">
        <ele>1520.6</ele>
        <time>2023-05-15T12:01:05Z</time>
      </trkpt>
      <trkpt lat="44.64719" lon="6.01782">
        <ele>1520.8</ele>
        <time>2023-05-15T12:01:07Z</time>
      </trkpt>
      <trkpt lat="44.64719" lon="6.01782">
        <ele>1520.8</ele>
        <time>2023-05-15T12:01:08Z</time>
      </trkpt>
      <trkpt lat="44.64719" lon="6.01784">
        <ele>1520.8</ele>
        <time>2023-05-15T12:01:09Z</time>
      </trkpt>
      <trkpt lat="44.64719" lon="6.01788">
        <ele>1521.2</ele>
        <time>2023-05-15T12:01:12Z</time>
      </trkpt>
      <trkpt lat="44.64719" lon="6.01788">
        <ele>1521.4</ele>
        <time>2023-05-15T12:01:14Z</time>
      </trkpt>
      <trkpt lat="44.64719" lon="6.01788">
        <ele>1521.4</ele>
        <time>2023-05-15T12:01:15Z</time>
      </trkpt>
      <trkpt lat="44.64719" lon="6.01789">
        <ele>1521.6</ele>
        <time>2023-05-15T12:01:16Z</time>
      </trkpt>
      <trkpt lat="44.64719" lon="6.01789">
        <ele>1521.6</ele>
        <time>2023-05-15T12:01:17Z</time>
      </trkpt>
      <trkpt lat="44.64719" lon="6.0179">
        <ele>1521.8</ele>
        <time>2023-05-15T12:01:18Z</time>
      </trkpt>
      <trkpt lat="44.64719" lon="6.0179">
        <ele>1522</ele>
        <time>2023-05-15T12:01:19Z</time>
      </trkpt>
      <trkpt lat="44.64719" lon="6.01791">
        <ele>1522.2</ele>
        <time>2023-05-15T12:01:22Z</time>
      </trkpt>
      <trkpt lat="44.64719" lon="6.01792">
        <ele>1522.2</ele>
        <time>2023-05-15T12:01:23Z</time>
      </trkpt>
      <trkpt lat="44.64718" lon="6.01792">
        <ele>1522.2</ele>
        <time>2023-05-15T12:01:24Z</time>
      </trkpt>
      <trkpt lat="44.64718" lon="6.01792">
        <ele>1522.4</ele>
        <time>2023-05-15T12:01:25Z</time>
      </trkpt>
      <trkpt lat="44.64718" lon="6.01792">
        <ele>1522.4</ele>
        <time>2023-05-15T12:01:26Z</time>
      </trkpt>
      <trkpt lat="44.64718" lon="6.01792">
        <ele>1522.4</ele>
        <time>2023-05-15T12:01:27Z</time>
      </trkpt>
      <trkpt lat="44.64718" lon="6.01792">
        <ele>1522.8</ele>
        <time>2023-05-15T12:01:31Z</time>
      </trkpt>
      <trkpt lat="44.64718" lon="6.01793">
        <ele>1522.8</ele>
        <time>2023-05-15T12:01:32Z</time>
      </trkpt>
      <trkpt lat="44.64718" lon="6.01795">
        <ele>1523</ele>
        <time>2023-05-15T12:01:33Z</time>
      </trkpt>
      <trkpt lat="44.64718" lon="6.01795">
        <ele>1523</ele>
        <time>2023-05-15T12:01:34Z</time>
      </trkpt>
      <trkpt lat="44.64718" lon="6.01795">
        <ele>1523.2</ele>
        <time>2023-05-15T12:01:35Z</time>
      </trkpt>
      <trkpt lat="44.64718" lon="6.01795">
        <ele>1523.2</ele>
        <time>2023-05-15T12:01:36Z</time>
      </trkpt>
      <trkpt lat="44.64717" lon="6.01797">
        <ele>1523.4</ele>
        <time>2023-05-15T12:01:37Z</time>
      </trkpt>
      <trkpt lat="44.64717" lon="6.01797">
        <ele>1523.6</ele>
        <time>2023-05-15T12:01:39Z</time>
      </trkpt>
      <trkpt lat="44.64717" lon="6.01797">
        <ele>1523.6</ele>
        <time>2023-05-15T12:01:40Z</time>
      </trkpt>
      <trkpt lat="44.64717" lon="6.01797">
        <ele>1523.8</ele>
        <time>2023-05-15T12:01:41Z</time>
      </trkpt>
      <trkpt lat="44.64716" lon="6.01802">
        <ele>1524.2</ele>
        <time>2023-05-15T12:01:44Z</time>
      </trkpt>
      <trkpt lat="44.64716" lon="6.01802">
        <ele>1524.4</ele>
        <time>2023-05-15T12:01:45Z</time>
      </trkpt>
      <trkpt lat="44.64716" lon="6.01802">
        <ele>1524.4</ele>
        <time>2023-05-15T12:01:46Z</time>
      </trkpt>
      <trkpt lat="44.64716" lon="6.01802">
        <ele>1524.6</ele>
        <time>2023-05-15T12:01:47Z</time>
      </trkpt>
      <trkpt lat="44.64716" lon="6.01802">
        <ele>1524.6</ele>
        <time>2023-05-15T12:01:48Z</time>
      </trkpt>
      <trkpt lat="44.64716" lon="6.01805">
        <ele>1524.8</ele>
        <time>2023-05-15T12:01:49Z</time>
      </trkpt>
      <trkpt lat="44.64716" lon="6.01805">
        <ele>1524.8</ele>
        <time>2023-05-15T12:01:50Z</time>
      </trkpt>
      <trkpt lat="44.64716" lon="6.01805">
        <ele>1525.2</ele>
        <time>2023-05-15T12:01:53Z</time>
      </trkpt>
      <trkpt lat="44.64716" lon="6.01805">
        <ele>1525.2</ele>
        <time>2023-05-15T12:01:55Z</time>
      </trkpt>
      <trkpt lat="44.64716" lon="6.01809">
        <ele>1526</ele>
        <time>2023-05-15T12:02:00Z</time>
      </trkpt>
      <trkpt lat="44.64715" lon="6.01812">
        <ele>1526.2</ele>
        <time>2023-05-15T12:02:01Z</time>
      </trkpt>
      <trkpt lat="44.64716" lon="6.01816">
        <ele>1526.4</ele>
        <time>2023-05-15T12:02:02Z</time>
      </trkpt>
      <trkpt lat="44.64716" lon="6.01819">
        <ele>1526.4</ele>
        <time>2023-05-15T12:02:03Z</time>
      </trkpt>
      <trkpt lat="44.64716" lon="6.01822">
        <ele>1526.4</ele>
        <time>2023-05-15T12:02:04Z</time>
      </trkpt>
      <trkpt lat="44.64715" lon="6.01826">
        <ele>1526.4</ele>
        <time>2023-05-15T12:02:05Z</time>
      </trkpt>
      <trkpt lat="44.64715" lon="6.01828">
        <ele>1526.6</ele>
        <time>2023-05-15T12:02:06Z</time>
      </trkpt>
      <trkpt lat="44.64715" lon="6.01829">
        <ele>1526.6</ele>
        <time>2023-05-15T12:02:07Z</time>
      </trkpt>
      <trkpt lat="44.64715" lon="6.01829">
        <ele>1526.6</ele>
        <time>2023-05-15T12:02:08Z</time>
      </trkpt>
      <trkpt lat="44.64715" lon="6.01829">
        <ele>1526.8</ele>
        <time>2023-05-15T12:02:09Z</time>
      </trkpt>
      <trkpt lat="44.64715" lon="6.01829">
        <ele>1527</ele>
        <time>2023-05-15T12:02:10Z</time>
      </trkpt>
      <trkpt lat="44.64715" lon="6.01829">
        <ele>1527.2</ele>
        <time>2023-05-15T12:02:11Z</time>
      </trkpt>
      <trkpt lat="44.64715" lon="6.01829">
        <ele>1527.4</ele>
        <time>2023-05-15T12:02:12Z</time>
      </trkpt>
      <trkpt lat="44.64715" lon="6.01829">
        <ele>1527.4</ele>
        <time>2023-05-15T12:02:13Z</time>
      </trkpt>
      <trkpt lat="44.64715" lon="6.0183">
        <ele>1527.4</ele>
        <time>2023-05-15T12:02:14Z</time>
      </trkpt>
      <trkpt lat="44.64715" lon="6.0183">
        <ele>1527.6</ele>
        <time>2023-05-15T12:02:15Z</time>
      </trkpt>
      <trkpt lat="44.64715" lon="6.0183">
        <ele>1527.6</ele>
        <time>2023-05-15T12:02:16Z</time>
      </trkpt>
      <trkpt lat="44.64715" lon="6.01831">
        <ele>1528</ele>
        <time>2023-05-15T12:02:19Z</time>
      </trkpt>
      <trkpt lat="44.64715" lon="6.01834">
        <ele>1528</ele>
        <time>2023-05-15T12:02:22Z</time>
      </trkpt>
      <trkpt lat="44.64715" lon="6.01836">
        <ele>1528.4</ele>
        <time>2023-05-15T12:02:31Z</time>
      </trkpt>
      <trkpt lat="44.64716" lon="6.01835">
        <ele>1528.6</ele>
        <time>2023-05-15T12:02:36Z</time>
      </trkpt>
      <trkpt lat="44.64716" lon="6.01835">
        <ele>1528.8</ele>
        <time>2023-05-15T12:02:37Z</time>
      </trkpt>
      <trkpt lat="44.64716" lon="6.01836">
        <ele>1529.4</ele>
        <time>2023-05-15T12:02:49Z</time>
      </trkpt>
      <trkpt lat="44.64717" lon="6.01835">
        <ele>1529.8</ele>
        <time>2023-05-15T12:02:52Z</time>
      </trkpt>
      <trkpt lat="44.64718" lon="6.01834">
        <ele>1530</ele>
        <time>2023-05-15T12:02:55Z</time>
      </trkpt>
      <trkpt lat="44.64718" lon="6.01834">
        <ele>1530.2</ele>
        <time>2023-05-15T12:02:56Z</time>
      </trkpt>
      <trkpt lat="44.64718" lon="6.01834">
        <ele>1530.6</ele>
        <time>2023-05-15T12:02:57Z</time>
      </trkpt>
      <trkpt lat="44.64718" lon="6.01834">
        <ele>1530.6</ele>
        <time>2023-05-15T12:02:58Z</time>
      </trkpt>
      <trkpt lat="44.64719" lon="6.01834">
        <ele>1530.8</ele>
        <time>2023-05-15T12:02:59Z</time>
      </trkpt>
      <trkpt lat="44.64719" lon="6.01834">
        <ele>1531</ele>
        <time>2023-05-15T12:03:01Z</time>
      </trkpt>
      <trkpt lat="44.64722" lon="6.01832">
        <ele>1532</ele>
        <time>2023-05-15T12:03:11Z</time>
      </trkpt>
      <trkpt lat="44.64722" lon="6.01832">
        <ele>1532.2</ele>
        <time>2023-05-15T12:03:12Z</time>
      </trkpt>
      <trkpt lat="44.64722" lon="6.01832">
        <ele>1532.4</ele>
        <time>2023-05-15T12:03:13Z</time>
      </trkpt>
      <trkpt lat="44.64723" lon="6.01831">
        <ele>1532.8</ele>
        <time>2023-05-15T12:03:16Z</time>
      </trkpt>
      <trkpt lat="44.64724" lon="6.01831">
        <ele>1532.8</ele>
        <time>2023-05-15T12:03:17Z</time>
      </trkpt>
      <trkpt lat="44.64725" lon="6.0183">
        <ele>1533</ele>
        <time>2023-05-15T12:03:18Z</time>
      </trkpt>
      <trkpt lat="44.64725" lon="6.0183">
        <ele>1533.4</ele>
        <time>2023-05-15T12:03:19Z</time>
      </trkpt>
      <trkpt lat="44.64726" lon="6.0183">
        <ele>1533.4</ele>
        <time>2023-05-15T12:03:20Z</time>
      </trkpt>
      <trkpt lat="44.64727" lon="6.0183">
        <ele>1533.4</ele>
        <time>2023-05-15T12:03:21Z</time>
      </trkpt>
      <trkpt lat="44.64727" lon="6.0183">
        <ele>1533.6</ele>
        <time>2023-05-15T12:03:22Z</time>
      </trkpt>
      <trkpt lat="44.64728" lon="6.01829">
        <ele>1533.6</ele>
        <time>2023-05-15T12:03:23Z</time>
      </trkpt>
      <trkpt lat="44.64728" lon="6.01828">
        <ele>1533.6</ele>
        <time>2023-05-15T12:03:24Z</time>
      </trkpt>
      <trkpt lat="44.64728" lon="6.01828">
        <ele>1533.8</ele>
        <time>2023-05-15T12:03:25Z</time>
      </trkpt>
      <trkpt lat="44.64728" lon="6.01828">
        <ele>1533.8</ele>
        <time>2023-05-15T12:03:26Z</time>
      </trkpt>
      <trkpt lat="44.64728" lon="6.01828">
        <ele>1534</ele>
        <time>2023-05-15T12:03:27Z</time>
      </trkpt>
      <trkpt lat="44.64728" lon="6.01828">
        <ele>1534</ele>
        <time>2023-05-15T12:03:28Z</time>
      </trkpt>
      <trkpt lat="44.64728" lon="6.01828">
        <ele>1534</ele>
        <time>2023-05-15T12:03:29Z</time>
      </trkpt>
      <trkpt lat="44.64728" lon="6.01828">
        <ele>1534.2</ele>
        <time>2023-05-15T12:03:30Z</time>
      </trkpt>
      <trkpt lat="44.64728" lon="6.01828">
        <ele>1534.2</ele>
        <time>2023-05-15T12:03:31Z</time>
      </trkpt>
      <trkpt lat="44.64728" lon="6.01828">
        <ele>1534.4</ele>
        <time>2023-05-15T12:03:32Z</time>
      </trkpt>
      <trkpt lat="44.64728" lon="6.01828">
        <ele>1534.4</ele>
        <time>2023-05-15T12:03:33Z</time>
      </trkpt>
      <trkpt lat="44.64728" lon="6.01828">
        <ele>1534.6</ele>
        <time>2023-05-15T12:03:34Z</time>
      </trkpt>
      <trkpt lat="44.64728" lon="6.01829">
        <ele>1534.6</ele>
        <time>2023-05-15T12:03:36Z</time>
      </trkpt>
      <trkpt lat="44.64728" lon="6.01829">
        <ele>1534.8</ele>
        <time>2023-05-15T12:03:40Z</time>
      </trkpt>
      <trkpt lat="44.64731" lon="6.01827">
        <ele>1535.4</ele>
        <time>2023-05-15T12:03:45Z</time>
      </trkpt>
      <trkpt lat="44.64732" lon="6.01826">
        <ele>1535.6</ele>
        <time>2023-05-15T12:03:46Z</time>
      </trkpt>
      <trkpt lat="44.64733" lon="6.01825">
        <ele>1535.6</ele>
        <time>2023-05-15T12:03:47Z</time>
      </trkpt>
      <trkpt lat="44.64733" lon="6.01825">
        <ele>1535.8</ele>
        <time>2023-05-15T12:03:48Z</time>
      </trkpt>
      <trkpt lat="44.64734" lon="6.01824">
        <ele>1535.8</ele>
        <time>2023-05-15T12:03:49Z</time>
      </trkpt>
      <trkpt lat="44.64734" lon="6.01824">
        <ele>1536</ele>
        <time>2023-05-15T12:03:50Z</time>
      </trkpt>
      <trkpt lat="44.64736" lon="6.01823">
        <ele>1536</ele>
        <time>2023-05-15T12:03:51Z</time>
      </trkpt>
      <trkpt lat="44.64736" lon="6.01823">
        <ele>1536.4</ele>
        <time>2023-05-15T12:03:55Z</time>
      </trkpt>
      <trkpt lat="44.64736" lon="6.01823">
        <ele>1536.4</ele>
        <time>2023-05-15T12:03:57Z</time>
      </trkpt>
      <trkpt lat="44.64736" lon="6.01823">
        <ele>1536.6</ele>
        <time>2023-05-15T12:04:00Z</time>
      </trkpt>
      <trkpt lat="44.64739" lon="6.0182">
        <ele>1537</ele>
        <time>2023-05-15T12:04:14Z</time>
      </trkpt>
      <trkpt lat="44.6474" lon="6.01818">
        <ele>1537.2</ele>
        <time>2023-05-15T12:04:17Z</time>
      </trkpt>
      <trkpt lat="44.64742" lon="6.01817">
        <ele>1537.2</ele>
        <time>2023-05-15T12:04:18Z</time>
      </trkpt>
      <trkpt lat="44.64742" lon="6.01816">
        <ele>1537.6</ele>
        <time>2023-05-15T12:04:20Z</time>
      </trkpt>
      <trkpt lat="44.64743" lon="6.01815">
        <ele>1537.8</ele>
        <time>2023-05-15T12:04:21Z</time>
      </trkpt>
      <trkpt lat="44.64744" lon="6.01814">
        <ele>1538</ele>
        <time>2023-05-15T12:04:22Z</time>
      </trkpt>
      <trkpt lat="44.64746" lon="6.0181">
        <ele>1538.4</ele>
        <time>2023-05-15T12:04:24Z</time>
      </trkpt>
      <trkpt lat="44.64746" lon="6.0181">
        <ele>1538.6</ele>
        <time>2023-05-15T12:04:25Z</time>
      </trkpt>
      <trkpt lat="44.64747" lon="6.01809">
        <ele>1539</ele>
        <time>2023-05-15T12:04:26Z</time>
      </trkpt>
      <trkpt lat="44.64748" lon="6.01808">
        <ele>1539.2</ele>
        <time>2023-05-15T12:04:28Z</time>
      </trkpt>
      <trkpt lat="44.6475" lon="6.01807">
        <ele>1539.4</ele>
        <time>2023-05-15T12:04:29Z</time>
      </trkpt>
      <trkpt lat="44.64751" lon="6.01805">
        <ele>1539.8</ele>
        <time>2023-05-15T12:04:32Z</time>
      </trkpt>
      <trkpt lat="44.64752" lon="6.01803">
        <ele>1540</ele>
        <time>2023-05-15T12:04:33Z</time>
      </trkpt>
      <trkpt lat="44.64752" lon="6.01802">
        <ele>1540</ele>
        <time>2023-05-15T12:04:34Z</time>
      </trkpt>
      <trkpt lat="44.64754" lon="6.018">
        <ele>1540.2</ele>
        <time>2023-05-15T12:04:35Z</time>
      </trkpt>
      <trkpt lat="44.64755" lon="6.01798">
        <ele>1540.2</ele>
        <time>2023-05-15T12:04:36Z</time>
      </trkpt>
      <trkpt lat="44.64756" lon="6.01796">
        <ele>1540.4</ele>
        <time>2023-05-15T12:04:37Z</time>
      </trkpt>
      <trkpt lat="44.64756" lon="6.01795">
        <ele>1540.6</ele>
        <time>2023-05-15T12:04:38Z</time>
      </trkpt>
      <trkpt lat="44.64757" lon="6.01794">
        <ele>1540.6</ele>
        <time>2023-05-15T12:04:39Z</time>
      </trkpt>
      <trkpt lat="44.64758" lon="6.01793">
        <ele>1540.8</ele>
        <time>2023-05-15T12:04:40Z</time>
      </trkpt>
      <trkpt lat="44.64759" lon="6.01793">
        <ele>1541.2</ele>
        <time>2023-05-15T12:04:41Z</time>
      </trkpt>
      <trkpt lat="44.6476" lon="6.01791">
        <ele>1541.4</ele>
        <time>2023-05-15T12:04:42Z</time>
      </trkpt>
      <trkpt lat="44.64761" lon="6.0179">
        <ele>1541.4</ele>
        <time>2023-05-15T12:04:43Z</time>
      </trkpt>
      <trkpt lat="44.64761" lon="6.0179">
        <ele>1541.6</ele>
        <time>2023-05-15T12:04:44Z</time>
      </trkpt>
      <trkpt lat="44.64763" lon="6.01788">
        <ele>1541.6</ele>
        <time>2023-05-15T12:04:46Z</time>
      </trkpt>
      <trkpt lat="44.64763" lon="6.01788">
        <ele>1541.8</ele>
        <time>2023-05-15T12:04:47Z</time>
      </trkpt>
      <trkpt lat="44.64763" lon="6.01788">
        <ele>1541.8</ele>
        <time>2023-05-15T12:04:48Z</time>
      </trkpt>
      <trkpt lat="44.64763" lon="6.01788">
        <ele>1541.8</ele>
        <time>2023-05-15T12:04:49Z</time>
      </trkpt>
      <trkpt lat="44.64763" lon="6.01788">
        <ele>1541.8</ele>
        <time>2023-05-15T12:04:50Z</time>
      </trkpt>
      <trkpt lat="44.64765" lon="6.01787">
        <ele>1542</ele>
        <time>2023-05-15T12:04:51Z</time>
      </trkpt>
      <trkpt lat="44.64766" lon="6.01787">
        <ele>1542</ele>
        <time>2023-05-15T12:04:52Z</time>
      </trkpt>
      <trkpt lat="44.64766" lon="6.01787">
        <ele>1542.2</ele>
        <time>2023-05-15T12:04:53Z</time>
      </trkpt>
      <trkpt lat="44.64766" lon="6.01787">
        <ele>1542.2</ele>
        <time>2023-05-15T12:04:54Z</time>
      </trkpt>
      <trkpt lat="44.64766" lon="6.01787">
        <ele>1542.2</ele>
        <time>2023-05-15T12:04:55Z</time>
      </trkpt>
      <trkpt lat="44.64766" lon="6.01787">
        <ele>1542.4</ele>
        <time>2023-05-15T12:04:56Z</time>
      </trkpt>
      <trkpt lat="44.64768" lon="6.01786">
        <ele>1542.4</ele>
        <time>2023-05-15T12:04:57Z</time>
      </trkpt>
      <trkpt lat="44.64769" lon="6.01786">
        <ele>1542.6</ele>
        <time>2023-05-15T12:04:58Z</time>
      </trkpt>
      <trkpt lat="44.6477" lon="6.01785">
        <ele>1542.6</ele>
        <time>2023-05-15T12:04:59Z</time>
      </trkpt>
      <trkpt lat="44.64772" lon="6.01785">
        <ele>1542.6</ele>
        <time>2023-05-15T12:05:00Z</time>
      </trkpt>
      <trkpt lat="44.64774" lon="6.01784">
        <ele>1542.8</ele>
        <time>2023-05-15T12:05:01Z</time>
      </trkpt>
      <trkpt lat="44.64775" lon="6.01783">
        <ele>1542.8</ele>
        <time>2023-05-15T12:05:02Z</time>
      </trkpt>
      <trkpt lat="44.64776" lon="6.01782">
        <ele>1543</ele>
        <time>2023-05-15T12:05:03Z</time>
      </trkpt>
      <trkpt lat="44.64776" lon="6.01782">
        <ele>1543.2</ele>
        <time>2023-05-15T12:05:04Z</time>
      </trkpt>
      <trkpt lat="44.64777" lon="6.01782">
        <ele>1543.4</ele>
        <time>2023-05-15T12:05:05Z</time>
      </trkpt>
      <trkpt lat="44.64781" lon="6.0178">
        <ele>1543.8</ele>
        <time>2023-05-15T12:05:09Z</time>
      </trkpt>
      <trkpt lat="44.64783" lon="6.01779">
        <ele>1543.8</ele>
        <time>2023-05-15T12:05:10Z</time>
      </trkpt>
      <trkpt lat="44.64786" lon="6.01777">
        <ele>1544.2</ele>
        <time>2023-05-15T12:05:12Z</time>
      </trkpt>
      <trkpt lat="44.64787" lon="6.01777">
        <ele>1544.2</ele>
        <time>2023-05-15T12:05:13Z</time>
      </trkpt>
      <trkpt lat="44.64788" lon="6.01776">
        <ele>1544.6</ele>
        <time>2023-05-15T12:05:14Z</time>
      </trkpt>
      <trkpt lat="44.64791" lon="6.01776">
        <ele>1544.8</ele>
        <time>2023-05-15T12:05:15Z</time>
      </trkpt>
      <trkpt lat="44.64791" lon="6.01775">
        <ele>1545</ele>
        <time>2023-05-15T12:05:16Z</time>
      </trkpt>
      <trkpt lat="44.64791" lon="6.01775">
        <ele>1545.2</ele>
        <time>2023-05-15T12:05:17Z</time>
      </trkpt>
      <trkpt lat="44.64791" lon="6.01775">
        <ele>1545.6</ele>
        <time>2023-05-15T12:05:18Z</time>
      </trkpt>
      <trkpt lat="44.64792" lon="6.01775">
        <ele>1546</ele>
        <time>2023-05-15T12:05:19Z</time>
      </trkpt>
      <trkpt lat="44.64792" lon="6.01775">
        <ele>1546</ele>
        <time>2023-05-15T12:05:20Z</time>
      </trkpt>
      <trkpt lat="44.64793" lon="6.01774">
        <ele>1546.2</ele>
        <time>2023-05-15T12:05:21Z</time>
      </trkpt>
      <trkpt lat="44.64793" lon="6.01774">
        <ele>1546.4</ele>
        <time>2023-05-15T12:05:22Z</time>
      </trkpt>
      <trkpt lat="44.64793" lon="6.01774">
        <ele>1546.4</ele>
        <time>2023-05-15T12:05:23Z</time>
      </trkpt>
      <trkpt lat="44.64794" lon="6.01773">
        <ele>1546.6</ele>
        <time>2023-05-15T12:05:24Z</time>
      </trkpt>
      <trkpt lat="44.64794" lon="6.01773">
        <ele>1546.8</ele>
        <time>2023-05-15T12:05:25Z</time>
      </trkpt>
      <trkpt lat="44.64795" lon="6.01773">
        <ele>1546.8</ele>
        <time>2023-05-15T12:05:26Z</time>
      </trkpt>
      <trkpt lat="44.64796" lon="6.01772">
        <ele>1547</ele>
        <time>2023-05-15T12:05:27Z</time>
      </trkpt>
      <trkpt lat="44.64798" lon="6.01772">
        <ele>1547.2</ele>
        <time>2023-05-15T12:05:28Z</time>
      </trkpt>
      <trkpt lat="44.64799" lon="6.01771">
        <ele>1547.2</ele>
        <time>2023-05-15T12:05:29Z</time>
      </trkpt>
      <trkpt lat="44.648" lon="6.01771">
        <ele>1547.4</ele>
        <time>2023-05-15T12:05:30Z</time>
      </trkpt>
      <trkpt lat="44.648" lon="6.0177">
        <ele>1547.6</ele>
        <time>2023-05-15T12:05:31Z</time>
      </trkpt>
      <trkpt lat="44.64801" lon="6.0177">
        <ele>1547.8</ele>
        <time>2023-05-15T12:05:32Z</time>
      </trkpt>
      <trkpt lat="44.64802" lon="6.01769">
        <ele>1548</ele>
        <time>2023-05-15T12:05:33Z</time>
      </trkpt>
      <trkpt lat="44.64803" lon="6.01769">
        <ele>1548.2</ele>
        <time>2023-05-15T12:05:34Z</time>
      </trkpt>
      <trkpt lat="44.64804" lon="6.01769">
        <ele>1548.2</ele>
        <time>2023-05-15T12:05:35Z</time>
      </trkpt>
      <trkpt lat="44.64806" lon="6.01768">
        <ele>1548.6</ele>
        <time>2023-05-15T12:05:36Z</time>
      </trkpt>
      <trkpt lat="44.64807" lon="6.01766">
        <ele>1548.8</ele>
        <time>2023-05-15T12:05:37Z</time>
      </trkpt>
      <trkpt lat="44.64809" lon="6.01765">
        <ele>1548.8</ele>
        <time>2023-05-15T12:05:38Z</time>
      </trkpt>
      <trkpt lat="44.6481" lon="6.01765">
        <ele>1549.2</ele>
        <time>2023-05-15T12:05:39Z</time>
      </trkpt>
      <trkpt lat="44.64811" lon="6.01764">
        <ele>1549.2</ele>
        <time>2023-05-15T12:05:40Z</time>
      </trkpt>
      <trkpt lat="44.64811" lon="6.01764">
        <ele>1549.4</ele>
        <time>2023-05-15T12:05:41Z</time>
      </trkpt>
      <trkpt lat="44.64811" lon="6.01764">
        <ele>1549.6</ele>
        <time>2023-05-15T12:05:42Z</time>
      </trkpt>
      <trkpt lat="44.64811" lon="6.01764">
        <ele>1550.4</ele>
        <time>2023-05-15T12:05:45Z</time>
      </trkpt>
      <trkpt lat="44.64812" lon="6.01764">
        <ele>1550.6</ele>
        <time>2023-05-15T12:05:46Z</time>
      </trkpt>
      <trkpt lat="44.64813" lon="6.01764">
        <ele>1550.6</ele>
        <time>2023-05-15T12:05:47Z</time>
      </trkpt>
      <trkpt lat="44.64815" lon="6.01763">
        <ele>1550.8</ele>
        <time>2023-05-15T12:05:48Z</time>
      </trkpt>
      <trkpt lat="44.64816" lon="6.01763">
        <ele>1550.8</ele>
        <time>2023-05-15T12:05:49Z</time>
      </trkpt>
      <trkpt lat="44.64816" lon="6.01763">
        <ele>1551</ele>
        <time>2023-05-15T12:05:50Z</time>
      </trkpt>
      <trkpt lat="44.64818" lon="6.01763">
        <ele>1551.4</ele>
        <time>2023-05-15T12:05:52Z</time>
      </trkpt>
      <trkpt lat="44.64819" lon="6.01762">
        <ele>1551.6</ele>
        <time>2023-05-15T12:05:53Z</time>
      </trkpt>
      <trkpt lat="44.64819" lon="6.01763">
        <ele>1551.6</ele>
        <time>2023-05-15T12:05:54Z</time>
      </trkpt>
      <trkpt lat="44.64819" lon="6.01763">
        <ele>1551.8</ele>
        <time>2023-05-15T12:05:55Z</time>
      </trkpt>
      <trkpt lat="44.6482" lon="6.01762">
        <ele>1551.8</ele>
        <time>2023-05-15T12:05:56Z</time>
      </trkpt>
      <trkpt lat="44.64822" lon="6.01762">
        <ele>1552</ele>
        <time>2023-05-15T12:05:57Z</time>
      </trkpt>
      <trkpt lat="44.64822" lon="6.01762">
        <ele>1552.2</ele>
        <time>2023-05-15T12:05:58Z</time>
      </trkpt>
      <trkpt lat="44.64823" lon="6.01762">
        <ele>1552.4</ele>
        <time>2023-05-15T12:05:59Z</time>
      </trkpt>
      <trkpt lat="44.64826" lon="6.01762">
        <ele>1552.4</ele>
        <time>2023-05-15T12:06:00Z</time>
      </trkpt>
      <trkpt lat="44.64828" lon="6.01762">
        <ele>1552.6</ele>
        <time>2023-05-15T12:06:01Z</time>
      </trkpt>
      <trkpt lat="44.6483" lon="6.01762">
        <ele>1552.6</ele>
        <time>2023-05-15T12:06:02Z</time>
      </trkpt>
      <trkpt lat="44.64831" lon="6.01762">
        <ele>1552.6</ele>
        <time>2023-05-15T12:06:03Z</time>
      </trkpt>
      <trkpt lat="44.64832" lon="6.01762">
        <ele>1552.8</ele>
        <time>2023-05-15T12:06:04Z</time>
      </trkpt>
      <trkpt lat="44.64833" lon="6.01762">
        <ele>1552.8</ele>
        <time>2023-05-15T12:06:05Z</time>
      </trkpt>
      <trkpt lat="44.64834" lon="6.01762">
        <ele>1552.8</ele>
        <time>2023-05-15T12:06:06Z</time>
      </trkpt>
      <trkpt lat="44.64835" lon="6.01762">
        <ele>1553</ele>
        <time>2023-05-15T12:06:07Z</time>
      </trkpt>
      <trkpt lat="44.64837" lon="6.01762">
        <ele>1553</ele>
        <time>2023-05-15T12:06:08Z</time>
      </trkpt>
      <trkpt lat="44.64838" lon="6.01761">
        <ele>1553.2</ele>
        <time>2023-05-15T12:06:09Z</time>
      </trkpt>
      <trkpt lat="44.64839" lon="6.0176">
        <ele>1553.2</ele>
        <time>2023-05-15T12:06:10Z</time>
      </trkpt>
      <trkpt lat="44.64841" lon="6.01759">
        <ele>1553.4</ele>
        <time>2023-05-15T12:06:11Z</time>
      </trkpt>
      <trkpt lat="44.64842" lon="6.01759">
        <ele>1553.6</ele>
        <time>2023-05-15T12:06:12Z</time>
      </trkpt>
      <trkpt lat="44.64842" lon="6.01759">
        <ele>1553.6</ele>
        <time>2023-05-15T12:06:13Z</time>
      </trkpt>
      <trkpt lat="44.64843" lon="6.01759">
        <ele>1553.8</ele>
        <time>2023-05-15T12:06:14Z</time>
      </trkpt>
      <trkpt lat="44.64844" lon="6.01758">
        <ele>1553.8</ele>
        <time>2023-05-15T12:06:15Z</time>
      </trkpt>
      <trkpt lat="44.64845" lon="6.01757">
        <ele>1553.8</ele>
        <time>2023-05-15T12:06:16Z</time>
      </trkpt>
      <trkpt lat="44.64846" lon="6.01755">
        <ele>1554</ele>
        <time>2023-05-15T12:06:17Z</time>
      </trkpt>
      <trkpt lat="44.64847" lon="6.01754">
        <ele>1554</ele>
        <time>2023-05-15T12:06:18Z</time>
      </trkpt>
      <trkpt lat="44.64848" lon="6.01753">
        <ele>1554</ele>
        <time>2023-05-15T12:06:19Z</time>
      </trkpt>
      <trkpt lat="44.64849" lon="6.01753">
        <ele>1554.2</ele>
        <time>2023-05-15T12:06:20Z</time>
      </trkpt>
      <trkpt lat="44.6485" lon="6.01752">
        <ele>1554.2</ele>
        <time>2023-05-15T12:06:21Z</time>
      </trkpt>
      <trkpt lat="44.64851" lon="6.0175">
        <ele>1554.4</ele>
        <time>2023-05-15T12:06:22Z</time>
      </trkpt>
      <trkpt lat="44.64852" lon="6.01749">
        <ele>1554.4</ele>
        <time>2023-05-15T12:06:23Z</time>
      </trkpt>
      <trkpt lat="44.64853" lon="6.01748">
        <ele>1554.4</ele>
        <time>2023-05-15T12:06:24Z</time>
      </trkpt>
      <trkpt lat="44.64855" lon="6.01747">
        <ele>1554.4</ele>
        <time>2023-05-15T12:06:25Z</time>
      </trkpt>
      <trkpt lat="44.64856" lon="6.01746">
        <ele>1554.6</ele>
        <time>2023-05-15T12:06:26Z</time>
      </trkpt>
      <trkpt lat="44.64857" lon="6.01744">
        <ele>1554.8</ele>
        <time>2023-05-15T12:06:28Z</time>
      </trkpt>
      <trkpt lat="44.64858" lon="6.01742">
        <ele>1554.8</ele>
        <time>2023-05-15T12:06:29Z</time>
      </trkpt>
      <trkpt lat="44.64859" lon="6.01741">
        <ele>1554.8</ele>
        <time>2023-05-15T12:06:30Z</time>
      </trkpt>
      <trkpt lat="44.64861" lon="6.01741">
        <ele>1555</ele>
        <time>2023-05-15T12:06:31Z</time>
      </trkpt>
      <trkpt lat="44.64862" lon="6.0174">
        <ele>1555.2</ele>
        <time>2023-05-15T12:06:32Z</time>
      </trkpt>
      <trkpt lat="44.64864" lon="6.01739">
        <ele>1555.2</ele>
        <time>2023-05-15T12:06:33Z</time>
      </trkpt>
      <trkpt lat="44.64865" lon="6.01739">
        <ele>1555.2</ele>
        <time>2023-05-15T12:06:34Z</time>
      </trkpt>
      <trkpt lat="44.64866" lon="6.01737">
        <ele>1555.4</ele>
        <time>2023-05-15T12:06:35Z</time>
      </trkpt>
      <trkpt lat="44.64868" lon="6.01737">
        <ele>1555.4</ele>
        <time>2023-05-15T12:06:36Z</time>
      </trkpt>
      <trkpt lat="44.64869" lon="6.01736">
        <ele>1555.6</ele>
        <time>2023-05-15T12:06:37Z</time>
      </trkpt>
      <trkpt lat="44.64869" lon="6.01736">
        <ele>1555.6</ele>
        <time>2023-05-15T12:06:38Z</time>
      </trkpt>
      <trkpt lat="44.64871" lon="6.01735">
        <ele>1555.8</ele>
        <time>2023-05-15T12:06:40Z</time>
      </trkpt>
      <trkpt lat="44.64872" lon="6.01734">
        <ele>1555.8</ele>
        <time>2023-05-15T12:06:41Z</time>
      </trkpt>
      <trkpt lat="44.64873" lon="6.01734">
        <ele>1556</ele>
        <time>2023-05-15T12:06:42Z</time>
      </trkpt>
      <trkpt lat="44.64877" lon="6.01732">
        <ele>1556.4</ele>
        <time>2023-05-15T12:06:46Z</time>
      </trkpt>
      <trkpt lat="44.64878" lon="6.01732">
        <ele>1556.6</ele>
        <time>2023-05-15T12:06:47Z</time>
      </trkpt>
      <trkpt lat="44.64879" lon="6.01732">
        <ele>1556.6</ele>
        <time>2023-05-15T12:06:48Z</time>
      </trkpt>
      <trkpt lat="44.6488" lon="6.01731">
        <ele>1556.8</ele>
        <time>2023-05-15T12:06:49Z</time>
      </trkpt>
      <trkpt lat="44.64881" lon="6.01731">
        <ele>1556.8</ele>
        <time>2023-05-15T12:06:50Z</time>
      </trkpt>
      <trkpt lat="44.64881" lon="6.01731">
        <ele>1557</ele>
        <time>2023-05-15T12:06:51Z</time>
      </trkpt>
      <trkpt lat="44.64882" lon="6.0173">
        <ele>1557.2</ele>
        <time>2023-05-15T12:06:52Z</time>
      </trkpt>
      <trkpt lat="44.64883" lon="6.0173">
        <ele>1557.4</ele>
        <time>2023-05-15T12:06:53Z</time>
      </trkpt>
      <trkpt lat="44.64883" lon="6.0173">
        <ele>1557.6</ele>
        <time>2023-05-15T12:06:54Z</time>
      </trkpt>
      <trkpt lat="44.64885" lon="6.01729">
        <ele>1557.6</ele>
        <time>2023-05-15T12:06:55Z</time>
      </trkpt>
      <trkpt lat="44.64886" lon="6.01729">
        <ele>1557.8</ele>
        <time>2023-05-15T12:06:56Z</time>
      </trkpt>
      <trkpt lat="44.64887" lon="6.01728">
        <ele>1557.8</ele>
        <time>2023-05-15T12:06:57Z</time>
      </trkpt>
      <trkpt lat="44.64888" lon="6.01728">
        <ele>1558</ele>
        <time>2023-05-15T12:06:58Z</time>
      </trkpt>
      <trkpt lat="44.64889" lon="6.01727">
        <ele>1558</ele>
        <time>2023-05-15T12:06:59Z</time>
      </trkpt>
      <trkpt lat="44.6489" lon="6.01728">
        <ele>1558.4</ele>
        <time>2023-05-15T12:07:00Z</time>
      </trkpt>
      <trkpt lat="44.64891" lon="6.01727">
        <ele>1558.4</ele>
        <time>2023-05-15T12:07:01Z</time>
      </trkpt>
      <trkpt lat="44.64893" lon="6.01727">
        <ele>1558.6</ele>
        <time>2023-05-15T12:07:02Z</time>
      </trkpt>
      <trkpt lat="44.64894" lon="6.01726">
        <ele>1559</ele>
        <time>2023-05-15T12:07:03Z</time>
      </trkpt>
      <trkpt lat="44.64895" lon="6.01726">
        <ele>1559</ele>
        <time>2023-05-15T12:07:04Z</time>
      </trkpt>
      <trkpt lat="44.64897" lon="6.01725">
        <ele>1559.4</ele>
        <time>2023-05-15T12:07:05Z</time>
      </trkpt>
      <trkpt lat="44.64898" lon="6.01726">
        <ele>1559.6</ele>
        <time>2023-05-15T12:07:06Z</time>
      </trkpt>
      <trkpt lat="44.64899" lon="6.01726">
        <ele>1559.8</ele>
        <time>2023-05-15T12:07:07Z</time>
      </trkpt>
      <trkpt lat="44.649" lon="6.01726">
        <ele>1559.8</ele>
        <time>2023-05-15T12:07:08Z</time>
      </trkpt>
      <trkpt lat="44.649" lon="6.01726">
        <ele>1560</ele>
        <time>2023-05-15T12:07:09Z</time>
      </trkpt>
      <trkpt lat="44.64902" lon="6.01726">
        <ele>1560.2</ele>
        <time>2023-05-15T12:07:10Z</time>
      </trkpt>
      <trkpt lat="44.64903" lon="6.01726">
        <ele>1560.4</ele>
        <time>2023-05-15T12:07:11Z</time>
      </trkpt>
      <trkpt lat="44.64904" lon="6.01727">
        <ele>1560.6</ele>
        <time>2023-05-15T12:07:12Z</time>
      </trkpt>
      <trkpt lat="44.64906" lon="6.01728">
        <ele>1560.8</ele>
        <time>2023-05-15T12:07:13Z</time>
      </trkpt>
      <trkpt lat="44.64907" lon="6.01728">
        <ele>1560.8</ele>
        <time>2023-05-15T12:07:14Z</time>
      </trkpt>
      <trkpt lat="44.64908" lon="6.01729">
        <ele>1561</ele>
        <time>2023-05-15T12:07:15Z</time>
      </trkpt>
      <trkpt lat="44.64909" lon="6.01729">
        <ele>1561.2</ele>
        <time>2023-05-15T12:07:16Z</time>
      </trkpt>
      <trkpt lat="44.64909" lon="6.0173">
        <ele>1561.2</ele>
        <time>2023-05-15T12:07:17Z</time>
      </trkpt>
      <trkpt lat="44.6491" lon="6.0173">
        <ele>1561.4</ele>
        <time>2023-05-15T12:07:18Z</time>
      </trkpt>
      <trkpt lat="44.64911" lon="6.0173">
        <ele>1561.4</ele>
        <time>2023-05-15T12:07:19Z</time>
      </trkpt>
      <trkpt lat="44.64913" lon="6.01729">
        <ele>1561.4</ele>
        <time>2023-05-15T12:07:20Z</time>
      </trkpt>
      <trkpt lat="44.64913" lon="6.01729">
        <ele>1561.4</ele>
        <time>2023-05-15T12:07:21Z</time>
      </trkpt>
      <trkpt lat="44.64913" lon="6.01729">
        <ele>1561.4</ele>
        <time>2023-05-15T12:07:22Z</time>
      </trkpt>
      <trkpt lat="44.64913" lon="6.01729">
        <ele>1561.4</ele>
        <time>2023-05-15T12:07:24Z</time>
      </trkpt>
      <trkpt lat="44.64913" lon="6.01729">
        <ele>1559.8</ele>
        <time>2023-05-15T12:08:21Z</time>
      </trkpt>
      <trkpt lat="44.64913" lon="6.01729">
        <ele>1559.8</ele>
        <time>2023-05-15T12:08:42Z</time>
      </trkpt>
      <trkpt lat="44.64913" lon="6.01729">
        <ele>1559.8</ele>
        <time>2023-05-15T12:09:29Z</time>
      </trkpt>
      <trkpt lat="44.64913" lon="6.01729">
        <ele>1560.2</ele>
        <time>2023-05-15T12:10:15Z</time>
      </trkpt>
      <trkpt lat="44.64915" lon="6.01728">
        <ele>1560.2</ele>
        <time>2023-05-15T12:10:37Z</time>
      </trkpt>
      <trkpt lat="44.64915" lon="6.01728">
        <ele>1560.4</ele>
        <time>2023-05-15T12:10:39Z</time>
      </trkpt>
      <trkpt lat="44.64915" lon="6.01728">
        <ele>1560.8</ele>
        <time>2023-05-15T12:10:42Z</time>
      </trkpt>
      <trkpt lat="44.64915" lon="6.01728">
        <ele>1560.8</ele>
        <time>2023-05-15T12:10:43Z</time>
      </trkpt>
      <trkpt lat="44.64915" lon="6.01728">
        <ele>1560.8</ele>
        <time>2023-05-15T12:10:44Z</time>
      </trkpt>
      <trkpt lat="44.64915" lon="6.01728">
        <ele>1561</ele>
        <time>2023-05-15T12:10:45Z</time>
      </trkpt>
      <trkpt lat="44.64914" lon="6.01729">
        <ele>1561</ele>
        <time>2023-05-15T12:10:46Z</time>
      </trkpt>
      <trkpt lat="44.64914" lon="6.01729">
        <ele>1561.2</ele>
        <time>2023-05-15T12:10:47Z</time>
      </trkpt>
      <trkpt lat="44.64914" lon="6.01729">
        <ele>1561.2</ele>
        <time>2023-05-15T12:10:48Z</time>
      </trkpt>
      <trkpt lat="44.64914" lon="6.01729">
        <ele>1561.2</ele>
        <time>2023-05-15T12:10:49Z</time>
      </trkpt>
      <trkpt lat="44.64914" lon="6.01729">
        <ele>1561.2</ele>
        <time>2023-05-15T12:10:50Z</time>
      </trkpt>
      <trkpt lat="44.64914" lon="6.0173">
        <ele>1561.2</ele>
        <time>2023-05-15T12:10:51Z</time>
      </trkpt>
      <trkpt lat="44.64913" lon="6.01731">
        <ele>1561.8</ele>
        <time>2023-05-15T12:10:54Z</time>
      </trkpt>
      <trkpt lat="44.64912" lon="6.01731">
        <ele>1562.6</ele>
        <time>2023-05-15T12:10:55Z</time>
      </trkpt>
      <trkpt lat="44.64911" lon="6.01731">
        <ele>1563</ele>
        <time>2023-05-15T12:10:56Z</time>
      </trkpt>
      <trkpt lat="44.6491" lon="6.01732">
        <ele>1563.2</ele>
        <time>2023-05-15T12:10:58Z</time>
      </trkpt>
      <trkpt lat="44.6491" lon="6.01732">
        <ele>1563.2</ele>
        <time>2023-05-15T12:10:59Z</time>
      </trkpt>
      <trkpt lat="44.64909" lon="6.01732">
        <ele>1563.2</ele>
        <time>2023-05-15T12:11:00Z</time>
      </trkpt>
      <trkpt lat="44.64909" lon="6.01732">
        <ele>1563.2</ele>
        <time>2023-05-15T12:11:01Z</time>
      </trkpt>
      <trkpt lat="44.64908" lon="6.01732">
        <ele>1563.2</ele>
        <time>2023-05-15T12:11:02Z</time>
      </trkpt>
      <trkpt lat="44.64908" lon="6.01732">
        <ele>1563.2</ele>
        <time>2023-05-15T12:11:03Z</time>
      </trkpt>
      <trkpt lat="44.64907" lon="6.01732">
        <ele>1563.2</ele>
        <time>2023-05-15T12:11:04Z</time>
      </trkpt>
      <trkpt lat="44.64906" lon="6.01733">
        <ele>1563.4</ele>
        <time>2023-05-15T12:11:05Z</time>
      </trkpt>
      <trkpt lat="44.64905" lon="6.01733">
        <ele>1563.4</ele>
        <time>2023-05-15T12:11:06Z</time>
      </trkpt>
      <trkpt lat="44.64905" lon="6.01733">
        <ele>1563.4</ele>
        <time>2023-05-15T12:11:07Z</time>
      </trkpt>
      <trkpt lat="44.64904" lon="6.01733">
        <ele>1563.6</ele>
        <time>2023-05-15T12:11:08Z</time>
      </trkpt>
      <trkpt lat="44.64904" lon="6.01733">
        <ele>1563.6</ele>
        <time>2023-05-15T12:11:09Z</time>
      </trkpt>
      <trkpt lat="44.64904" lon="6.01735">
        <ele>1563.6</ele>
        <time>2023-05-15T12:11:10Z</time>
      </trkpt>
      <trkpt lat="44.64903" lon="6.01736">
        <ele>1563.8</ele>
        <time>2023-05-15T12:11:11Z</time>
      </trkpt>
      <trkpt lat="44.64903" lon="6.01736">
        <ele>1564</ele>
        <time>2023-05-15T12:11:12Z</time>
      </trkpt>
      <trkpt lat="44.64902" lon="6.01736">
        <ele>1564.2</ele>
        <time>2023-05-15T12:11:13Z</time>
      </trkpt>
      <trkpt lat="44.64902" lon="6.01737">
        <ele>1564.4</ele>
        <time>2023-05-15T12:11:14Z</time>
      </trkpt>
      <trkpt lat="44.64901" lon="6.01737">
        <ele>1564.6</ele>
        <time>2023-05-15T12:11:15Z</time>
      </trkpt>
      <trkpt lat="44.649" lon="6.01737">
        <ele>1564.6</ele>
        <time>2023-05-15T12:11:16Z</time>
      </trkpt>
      <trkpt lat="44.649" lon="6.01737">
        <ele>1564.6</ele>
        <time>2023-05-15T12:11:17Z</time>
      </trkpt>
      <trkpt lat="44.64899" lon="6.01737">
        <ele>1564.8</ele>
        <time>2023-05-15T12:11:18Z</time>
      </trkpt>
      <trkpt lat="44.64899" lon="6.01738">
        <ele>1564.8</ele>
        <time>2023-05-15T12:11:19Z</time>
      </trkpt>
      <trkpt lat="44.64898" lon="6.01739">
        <ele>1564.8</ele>
        <time>2023-05-15T12:11:20Z</time>
      </trkpt>
      <trkpt lat="44.64897" lon="6.0174">
        <ele>1565</ele>
        <time>2023-05-15T12:11:21Z</time>
      </trkpt>
      <trkpt lat="44.64897" lon="6.01739">
        <ele>1565</ele>
        <time>2023-05-15T12:11:22Z</time>
      </trkpt>
      <trkpt lat="44.64896" lon="6.01739">
        <ele>1565.2</ele>
        <time>2023-05-15T12:11:23Z</time>
      </trkpt>
      <trkpt lat="44.64896" lon="6.0174">
        <ele>1565.2</ele>
        <time>2023-05-15T12:11:24Z</time>
      </trkpt>
      <trkpt lat="44.64895" lon="6.0174">
        <ele>1565.4</ele>
        <time>2023-05-15T12:11:25Z</time>
      </trkpt>
      <trkpt lat="44.64894" lon="6.01741">
        <ele>1565.4</ele>
        <time>2023-05-15T12:11:26Z</time>
      </trkpt>
      <trkpt lat="44.64893" lon="6.01742">
        <ele>1565.6</ele>
        <time>2023-05-15T12:11:27Z</time>
      </trkpt>
      <trkpt lat="44.64893" lon="6.01743">
        <ele>1565.6</ele>
        <time>2023-05-15T12:11:28Z</time>
      </trkpt>
      <trkpt lat="44.64892" lon="6.01743">
        <ele>1565.6</ele>
        <time>2023-05-15T12:11:29Z</time>
      </trkpt>
      <trkpt lat="44.64891" lon="6.01744">
        <ele>1565.8</ele>
        <time>2023-05-15T12:11:30Z</time>
      </trkpt>
      <trkpt lat="44.64891" lon="6.01744">
        <ele>1565.8</ele>
        <time>2023-05-15T12:11:31Z</time>
      </trkpt>
      <trkpt lat="44.64889" lon="6.01744">
        <ele>1565.8</ele>
        <time>2023-05-15T12:11:32Z</time>
      </trkpt>
      <trkpt lat="44.64887" lon="6.01745">
        <ele>1566</ele>
        <time>2023-05-15T12:11:34Z</time>
      </trkpt>
      <trkpt lat="44.64886" lon="6.01745">
        <ele>1566.2</ele>
        <time>2023-05-15T12:11:35Z</time>
      </trkpt>
      <trkpt lat="44.64885" lon="6.01745">
        <ele>1566.2</ele>
        <time>2023-05-15T12:11:36Z</time>
      </trkpt>
      <trkpt lat="44.64885" lon="6.01745">
        <ele>1566.2</ele>
        <time>2023-05-15T12:11:37Z</time>
      </trkpt>
      <trkpt lat="44.64884" lon="6.01747">
        <ele>1566.4</ele>
        <time>2023-05-15T12:11:38Z</time>
      </trkpt>
      <trkpt lat="44.64883" lon="6.01748">
        <ele>1566.6</ele>
        <time>2023-05-15T12:11:39Z</time>
      </trkpt>
      <trkpt lat="44.64882" lon="6.01749">
        <ele>1566.6</ele>
        <time>2023-05-15T12:11:40Z</time>
      </trkpt>
      <trkpt lat="44.64881" lon="6.01749">
        <ele>1566.6</ele>
        <time>2023-05-15T12:11:41Z</time>
      </trkpt>
      <trkpt lat="44.6488" lon="6.01749">
        <ele>1566.8</ele>
        <time>2023-05-15T12:11:42Z</time>
      </trkpt>
      <trkpt lat="44.64879" lon="6.0175">
        <ele>1566.8</ele>
        <time>2023-05-15T12:11:43Z</time>
      </trkpt>
      <trkpt lat="44.64877" lon="6.01754">
        <ele>1566.8</ele>
        <time>2023-05-15T12:11:46Z</time>
      </trkpt>
      <trkpt lat="44.64876" lon="6.01754">
        <ele>1566.8</ele>
        <time>2023-05-15T12:11:47Z</time>
      </trkpt>
      <trkpt lat="44.64876" lon="6.01755">
        <ele>1566.8</ele>
        <time>2023-05-15T12:11:48Z</time>
      </trkpt>
      <trkpt lat="44.64875" lon="6.01755">
        <ele>1566.8</ele>
        <time>2023-05-15T12:11:49Z</time>
      </trkpt>
      <trkpt lat="44.64874" lon="6.01756">
        <ele>1566.8</ele>
        <time>2023-05-15T12:11:50Z</time>
      </trkpt>
      <trkpt lat="44.64874" lon="6.01756">
        <ele>1566.8</ele>
        <time>2023-05-15T12:11:51Z</time>
      </trkpt>
      <trkpt lat="44.64873" lon="6.01757">
        <ele>1566.8</ele>
        <time>2023-05-15T12:11:53Z</time>
      </trkpt>
      <trkpt lat="44.64872" lon="6.01758">
        <ele>1566.8</ele>
        <time>2023-05-15T12:11:54Z</time>
      </trkpt>
      <trkpt lat="44.64872" lon="6.01759">
        <ele>1567</ele>
        <time>2023-05-15T12:11:55Z</time>
      </trkpt>
      <trkpt lat="44.64871" lon="6.01759">
        <ele>1567</ele>
        <time>2023-05-15T12:11:56Z</time>
      </trkpt>
      <trkpt lat="44.6487" lon="6.0176">
        <ele>1567</ele>
        <time>2023-05-15T12:11:57Z</time>
      </trkpt>
      <trkpt lat="44.64868" lon="6.01764">
        <ele>1567.2</ele>
        <time>2023-05-15T12:12:01Z</time>
      </trkpt>
      <trkpt lat="44.64868" lon="6.01765">
        <ele>1567.4</ele>
        <time>2023-05-15T12:12:02Z</time>
      </trkpt>
      <trkpt lat="44.64867" lon="6.01767">
        <ele>1567.4</ele>
        <time>2023-05-15T12:12:04Z</time>
      </trkpt>
      <trkpt lat="44.64867" lon="6.01767">
        <ele>1567.4</ele>
        <time>2023-05-15T12:12:05Z</time>
      </trkpt>
      <trkpt lat="44.64866" lon="6.01769">
        <ele>1567.8</ele>
        <time>2023-05-15T12:12:07Z</time>
      </trkpt>
      <trkpt lat="44.64866" lon="6.0177">
        <ele>1567.8</ele>
        <time>2023-05-15T12:12:08Z</time>
      </trkpt>
      <trkpt lat="44.64866" lon="6.01771">
        <ele>1567.8</ele>
        <time>2023-05-15T12:12:09Z</time>
      </trkpt>
      <trkpt lat="44.64865" lon="6.01771">
        <ele>1568.2</ele>
        <time>2023-05-15T12:12:10Z</time>
      </trkpt>
      <trkpt lat="44.64864" lon="6.01771">
        <ele>1568.2</ele>
        <time>2023-05-15T12:12:11Z</time>
      </trkpt>
      <trkpt lat="44.64862" lon="6.01772">
        <ele>1568.6</ele>
        <time>2023-05-15T12:12:13Z</time>
      </trkpt>
      <trkpt lat="44.64861" lon="6.01775">
        <ele>1569</ele>
        <time>2023-05-15T12:12:16Z</time>
      </trkpt>
      <trkpt lat="44.64859" lon="6.01778">
        <ele>1569.4</ele>
        <time>2023-05-15T12:12:20Z</time>
      </trkpt>
      <trkpt lat="44.64858" lon="6.01778">
        <ele>1569.6</ele>
        <time>2023-05-15T12:12:21Z</time>
      </trkpt>
      <trkpt lat="44.64858" lon="6.01779">
        <ele>1569.6</ele>
        <time>2023-05-15T12:12:22Z</time>
      </trkpt>
      <trkpt lat="44.64858" lon="6.01781">
        <ele>1570</ele>
        <time>2023-05-15T12:12:24Z</time>
      </trkpt>
      <trkpt lat="44.64858" lon="6.01782">
        <ele>1570.2</ele>
        <time>2023-05-15T12:12:25Z</time>
      </trkpt>
      <trkpt lat="44.64857" lon="6.01783">
        <ele>1570.4</ele>
        <time>2023-05-15T12:12:26Z</time>
      </trkpt>
      <trkpt lat="44.64857" lon="6.01783">
        <ele>1570.6</ele>
        <time>2023-05-15T12:12:27Z</time>
      </trkpt>
      <trkpt lat="44.64857" lon="6.01783">
        <ele>1570.6</ele>
        <time>2023-05-15T12:12:28Z</time>
      </trkpt>
      <trkpt lat="44.64856" lon="6.01785">
        <ele>1570.8</ele>
        <time>2023-05-15T12:12:29Z</time>
      </trkpt>
      <trkpt lat="44.64856" lon="6.01786">
        <ele>1570.8</ele>
        <time>2023-05-15T12:12:30Z</time>
      </trkpt>
      <trkpt lat="44.64855" lon="6.01787">
        <ele>1571</ele>
        <time>2023-05-15T12:12:31Z</time>
      </trkpt>
      <trkpt lat="44.64855" lon="6.01788">
        <ele>1571</ele>
        <time>2023-05-15T12:12:32Z</time>
      </trkpt>
      <trkpt lat="44.64854" lon="6.01789">
        <ele>1571.2</ele>
        <time>2023-05-15T12:12:33Z</time>
      </trkpt>
      <trkpt lat="44.64854" lon="6.0179">
        <ele>1571.2</ele>
        <time>2023-05-15T12:12:34Z</time>
      </trkpt>
      <trkpt lat="44.64854" lon="6.0179">
        <ele>1571.4</ele>
        <time>2023-05-15T12:12:35Z</time>
      </trkpt>
      <trkpt lat="44.64854" lon="6.0179">
        <ele>1571.4</ele>
        <time>2023-05-15T12:12:36Z</time>
      </trkpt>
      <trkpt lat="44.64853" lon="6.01791">
        <ele>1571.8</ele>
        <time>2023-05-15T12:12:41Z</time>
      </trkpt>
      <trkpt lat="44.64852" lon="6.01791">
        <ele>1571.8</ele>
        <time>2023-05-15T12:12:42Z</time>
      </trkpt>
      <trkpt lat="44.64851" lon="6.01792">
        <ele>1571.8</ele>
        <time>2023-05-15T12:12:43Z</time>
      </trkpt>
      <trkpt lat="44.64849" lon="6.01792">
        <ele>1571.8</ele>
        <time>2023-05-15T12:12:44Z</time>
      </trkpt>
      <trkpt lat="44.64848" lon="6.01792">
        <ele>1572</ele>
        <time>2023-05-15T12:12:45Z</time>
      </trkpt>
      <trkpt lat="44.64846" lon="6.01793">
        <ele>1572</ele>
        <time>2023-05-15T12:12:46Z</time>
      </trkpt>
      <trkpt lat="44.64845" lon="6.01793">
        <ele>1572</ele>
        <time>2023-05-15T12:12:47Z</time>
      </trkpt>
      <trkpt lat="44.64843" lon="6.01794">
        <ele>1572</ele>
        <time>2023-05-15T12:12:48Z</time>
      </trkpt>
      <trkpt lat="44.64842" lon="6.01795">
        <ele>1572.2</ele>
        <time>2023-05-15T12:12:49Z</time>
      </trkpt>
      <trkpt lat="44.64841" lon="6.01796">
        <ele>1572.2</ele>
        <time>2023-05-15T12:12:50Z</time>
      </trkpt>
      <trkpt lat="44.6484" lon="6.01797">
        <ele>1572.4</ele>
        <time>2023-05-15T12:12:51Z</time>
      </trkpt>
      <trkpt lat="44.64837" lon="6.018">
        <ele>1572.6</ele>
        <time>2023-05-15T12:12:54Z</time>
      </trkpt>
      <trkpt lat="44.64837" lon="6.01801">
        <ele>1572.8</ele>
        <time>2023-05-15T12:12:55Z</time>
      </trkpt>
      <trkpt lat="44.64836" lon="6.01802">
        <ele>1573</ele>
        <time>2023-05-15T12:12:56Z</time>
      </trkpt>
      <trkpt lat="44.64835" lon="6.01803">
        <ele>1573</ele>
        <time>2023-05-15T12:12:57Z</time>
      </trkpt>
      <trkpt lat="44.64834" lon="6.01804">
        <ele>1573.2</ele>
        <time>2023-05-15T12:12:58Z</time>
      </trkpt>
      <trkpt lat="44.64831" lon="6.01804">
        <ele>1573.6</ele>
        <time>2023-05-15T12:13:00Z</time>
      </trkpt>
      <trkpt lat="44.6483" lon="6.01805">
        <ele>1573.6</ele>
        <time>2023-05-15T12:13:01Z</time>
      </trkpt>
      <trkpt lat="44.64829" lon="6.01805">
        <ele>1573.6</ele>
        <time>2023-05-15T12:13:02Z</time>
      </trkpt>
      <trkpt lat="44.64828" lon="6.01806">
        <ele>1573.8</ele>
        <time>2023-05-15T12:13:03Z</time>
      </trkpt>
      <trkpt lat="44.64828" lon="6.01807">
        <ele>1573.8</ele>
        <time>2023-05-15T12:13:04Z</time>
      </trkpt>
      <trkpt lat="44.64828" lon="6.01808">
        <ele>1573.8</ele>
        <time>2023-05-15T12:13:05Z</time>
      </trkpt>
      <trkpt lat="44.64827" lon="6.01809">
        <ele>1574</ele>
        <time>2023-05-15T12:13:06Z</time>
      </trkpt>
      <trkpt lat="44.64827" lon="6.01812">
        <ele>1574.2</ele>
        <time>2023-05-15T12:13:07Z</time>
      </trkpt>
      <trkpt lat="44.64827" lon="6.01814">
        <ele>1574.2</ele>
        <time>2023-05-15T12:13:08Z</time>
      </trkpt>
      <trkpt lat="44.64826" lon="6.01816">
        <ele>1574.4</ele>
        <time>2023-05-15T12:13:09Z</time>
      </trkpt>
      <trkpt lat="44.64825" lon="6.01817">
        <ele>1574.6</ele>
        <time>2023-05-15T12:13:10Z</time>
      </trkpt>
      <trkpt lat="44.64825" lon="6.01818">
        <ele>1574.8</ele>
        <time>2023-05-15T12:13:11Z</time>
      </trkpt>
      <trkpt lat="44.64825" lon="6.0182">
        <ele>1574.8</ele>
        <time>2023-05-15T12:13:12Z</time>
      </trkpt>
      <trkpt lat="44.64824" lon="6.0182">
        <ele>1575</ele>
        <time>2023-05-15T12:13:13Z</time>
      </trkpt>
      <trkpt lat="44.64823" lon="6.01821">
        <ele>1575</ele>
        <time>2023-05-15T12:13:14Z</time>
      </trkpt>
      <trkpt lat="44.64822" lon="6.01822">
        <ele>1575.2</ele>
        <time>2023-05-15T12:13:15Z</time>
      </trkpt>
      <trkpt lat="44.64822" lon="6.01823">
        <ele>1575.2</ele>
        <time>2023-05-15T12:13:16Z</time>
      </trkpt>
      <trkpt lat="44.64822" lon="6.01824">
        <ele>1575.2</ele>
        <time>2023-05-15T12:13:17Z</time>
      </trkpt>
      <trkpt lat="44.64821" lon="6.01825">
        <ele>1575.4</ele>
        <time>2023-05-15T12:13:18Z</time>
      </trkpt>
      <trkpt lat="44.64821" lon="6.01826">
        <ele>1575.6</ele>
        <time>2023-05-15T12:13:19Z</time>
      </trkpt>
      <trkpt lat="44.64821" lon="6.01827">
        <ele>1575.8</ele>
        <time>2023-05-15T12:13:20Z</time>
      </trkpt>
      <trkpt lat="44.6482" lon="6.01827">
        <ele>1575.8</ele>
        <time>2023-05-15T12:13:21Z</time>
      </trkpt>
      <trkpt lat="44.6482" lon="6.01828">
        <ele>1576</ele>
        <time>2023-05-15T12:13:22Z</time>
      </trkpt>
      <trkpt lat="44.6482" lon="6.01829">
        <ele>1576.2</ele>
        <time>2023-05-15T12:13:23Z</time>
      </trkpt>
      <trkpt lat="44.64819" lon="6.0183">
        <ele>1576.2</ele>
        <time>2023-05-15T12:13:24Z</time>
      </trkpt>
      <trkpt lat="44.64819" lon="6.01831">
        <ele>1576.4</ele>
        <time>2023-05-15T12:13:25Z</time>
      </trkpt>
      <trkpt lat="44.64818" lon="6.01832">
        <ele>1576.4</ele>
        <time>2023-05-15T12:13:26Z</time>
      </trkpt>
      <trkpt lat="44.64818" lon="6.01833">
        <ele>1576.6</ele>
        <time>2023-05-15T12:13:27Z</time>
      </trkpt>
      <trkpt lat="44.64817" lon="6.01835">
        <ele>1576.6</ele>
        <time>2023-05-15T12:13:28Z</time>
      </trkpt>
      <trkpt lat="44.64817" lon="6.01836">
        <ele>1576.8</ele>
        <time>2023-05-15T12:13:29Z</time>
      </trkpt>
      <trkpt lat="44.64816" lon="6.01837">
        <ele>1577</ele>
        <time>2023-05-15T12:13:30Z</time>
      </trkpt>
      <trkpt lat="44.64816" lon="6.01839">
        <ele>1577.2</ele>
        <time>2023-05-15T12:13:31Z</time>
      </trkpt>
      <trkpt lat="44.64816" lon="6.0184">
        <ele>1577.2</ele>
        <time>2023-05-15T12:13:32Z</time>
      </trkpt>
      <trkpt lat="44.64815" lon="6.01841">
        <ele>1577.4</ele>
        <time>2023-05-15T12:13:33Z</time>
      </trkpt>
      <trkpt lat="44.64815" lon="6.01842">
        <ele>1577.4</ele>
        <time>2023-05-15T12:13:34Z</time>
      </trkpt>
      <trkpt lat="44.64814" lon="6.01844">
        <ele>1577.4</ele>
        <time>2023-05-15T12:13:35Z</time>
      </trkpt>
      <trkpt lat="44.64813" lon="6.01845">
        <ele>1577.6</ele>
        <time>2023-05-15T12:13:36Z</time>
      </trkpt>
      <trkpt lat="44.64813" lon="6.01845">
        <ele>1577.8</ele>
        <time>2023-05-15T12:13:37Z</time>
      </trkpt>
      <trkpt lat="44.64813" lon="6.01845">
        <ele>1578</ele>
        <time>2023-05-15T12:13:38Z</time>
      </trkpt>
      <trkpt lat="44.64813" lon="6.01847">
        <ele>1578.2</ele>
        <time>2023-05-15T12:13:39Z</time>
      </trkpt>
      <trkpt lat="44.64813" lon="6.01847">
        <ele>1578.4</ele>
        <time>2023-05-15T12:13:40Z</time>
      </trkpt>
      <trkpt lat="44.64813" lon="6.01847">
        <ele>1578.6</ele>
        <time>2023-05-15T12:13:41Z</time>
      </trkpt>
      <trkpt lat="44.64813" lon="6.01847">
        <ele>1578.6</ele>
        <time>2023-05-15T12:13:42Z</time>
      </trkpt>
      <trkpt lat="44.64813" lon="6.01847">
        <ele>1579.2</ele>
        <time>2023-05-15T12:13:48Z</time>
      </trkpt>
      <trkpt lat="44.64813" lon="6.01847">
        <ele>1579.4</ele>
        <time>2023-05-15T12:13:51Z</time>
      </trkpt>
      <trkpt lat="44.64812" lon="6.01851">
        <ele>1579.6</ele>
        <time>2023-05-15T12:14:00Z</time>
      </trkpt>
      <trkpt lat="44.64811" lon="6.01852">
        <ele>1579.6</ele>
        <time>2023-05-15T12:14:01Z</time>
      </trkpt>
      <trkpt lat="44.64811" lon="6.01853">
        <ele>1579.6</ele>
        <time>2023-05-15T12:14:02Z</time>
      </trkpt>
      <trkpt lat="44.6481" lon="6.01854">
        <ele>1579.6</ele>
        <time>2023-05-15T12:14:03Z</time>
      </trkpt>
      <trkpt lat="44.64809" lon="6.01855">
        <ele>1579.6</ele>
        <time>2023-05-15T12:14:04Z</time>
      </trkpt>
      <trkpt lat="44.64809" lon="6.01856">
        <ele>1579.6</ele>
        <time>2023-05-15T12:14:05Z</time>
      </trkpt>
      <trkpt lat="44.64808" lon="6.01857">
        <ele>1579.6</ele>
        <time>2023-05-15T12:14:06Z</time>
      </trkpt>
      <trkpt lat="44.64808" lon="6.01858">
        <ele>1579.8</ele>
        <time>2023-05-15T12:14:07Z</time>
      </trkpt>
      <trkpt lat="44.64808" lon="6.01859">
        <ele>1579.8</ele>
        <time>2023-05-15T12:14:08Z</time>
      </trkpt>
      <trkpt lat="44.64807" lon="6.0186">
        <ele>1579.8</ele>
        <time>2023-05-15T12:14:09Z</time>
      </trkpt>
      <trkpt lat="44.64807" lon="6.01861">
        <ele>1580</ele>
        <time>2023-05-15T12:14:10Z</time>
      </trkpt>
      <trkpt lat="44.64806" lon="6.0186">
        <ele>1580</ele>
        <time>2023-05-15T12:14:11Z</time>
      </trkpt>
      <trkpt lat="44.64806" lon="6.01861">
        <ele>1580</ele>
        <time>2023-05-15T12:14:12Z</time>
      </trkpt>
      <trkpt lat="44.64805" lon="6.01861">
        <ele>1580</ele>
        <time>2023-05-15T12:14:13Z</time>
      </trkpt>
      <trkpt lat="44.64805" lon="6.01862">
        <ele>1580.4</ele>
        <time>2023-05-15T12:14:15Z</time>
      </trkpt>
      <trkpt lat="44.64805" lon="6.01864">
        <ele>1580.6</ele>
        <time>2023-05-15T12:14:16Z</time>
      </trkpt>
      <trkpt lat="44.64804" lon="6.01864">
        <ele>1581</ele>
        <time>2023-05-15T12:14:17Z</time>
      </trkpt>
      <trkpt lat="44.64804" lon="6.01867">
        <ele>1581.2</ele>
        <time>2023-05-15T12:14:18Z</time>
      </trkpt>
      <trkpt lat="44.64804" lon="6.01868">
        <ele>1581.4</ele>
        <time>2023-05-15T12:14:19Z</time>
      </trkpt>
      <trkpt lat="44.64802" lon="6.0187">
        <ele>1582</ele>
        <time>2023-05-15T12:14:21Z</time>
      </trkpt>
      <trkpt lat="44.648" lon="6.01872">
        <ele>1582.4</ele>
        <time>2023-05-15T12:14:23Z</time>
      </trkpt>
      <trkpt lat="44.648" lon="6.01872">
        <ele>1582.8</ele>
        <time>2023-05-15T12:14:24Z</time>
      </trkpt>
      <trkpt lat="44.648" lon="6.01873">
        <ele>1583</ele>
        <time>2023-05-15T12:14:25Z</time>
      </trkpt>
      <trkpt lat="44.648" lon="6.01874">
        <ele>1583.2</ele>
        <time>2023-05-15T12:14:26Z</time>
      </trkpt>
      <trkpt lat="44.648" lon="6.01874">
        <ele>1583.4</ele>
        <time>2023-05-15T12:14:27Z</time>
      </trkpt>
      <trkpt lat="44.648" lon="6.01874">
        <ele>1583.8</ele>
        <time>2023-05-15T12:14:28Z</time>
      </trkpt>
      <trkpt lat="44.648" lon="6.01874">
        <ele>1583.8</ele>
        <time>2023-05-15T12:14:29Z</time>
      </trkpt>
      <trkpt lat="44.64799" lon="6.01877">
        <ele>1584</ele>
        <time>2023-05-15T12:14:30Z</time>
      </trkpt>
      <trkpt lat="44.64799" lon="6.01879">
        <ele>1584.4</ele>
        <time>2023-05-15T12:14:31Z</time>
      </trkpt>
      <trkpt lat="44.64798" lon="6.0188">
        <ele>1584.4</ele>
        <time>2023-05-15T12:14:32Z</time>
      </trkpt>
      <trkpt lat="44.64797" lon="6.01879">
        <ele>1584.6</ele>
        <time>2023-05-15T12:14:33Z</time>
      </trkpt>
      <trkpt lat="44.64797" lon="6.01881">
        <ele>1584.6</ele>
        <time>2023-05-15T12:14:34Z</time>
      </trkpt>
      <trkpt lat="44.64797" lon="6.01883">
        <ele>1585</ele>
        <time>2023-05-15T12:14:35Z</time>
      </trkpt>
      <trkpt lat="44.64797" lon="6.01884">
        <ele>1585.2</ele>
        <time>2023-05-15T12:14:36Z</time>
      </trkpt>
      <trkpt lat="44.64796" lon="6.01884">
        <ele>1585.4</ele>
        <time>2023-05-15T12:14:37Z</time>
      </trkpt>
      <trkpt lat="44.64795" lon="6.01886">
        <ele>1585.6</ele>
        <time>2023-05-15T12:14:38Z</time>
      </trkpt>
      <trkpt lat="44.64794" lon="6.01888">
        <ele>1585.6</ele>
        <time>2023-05-15T12:14:39Z</time>
      </trkpt>
      <trkpt lat="44.64794" lon="6.01889">
        <ele>1585.8</ele>
        <time>2023-05-15T12:14:40Z</time>
      </trkpt>
      <trkpt lat="44.64794" lon="6.01889">
        <ele>1585.8</ele>
        <time>2023-05-15T12:14:41Z</time>
      </trkpt>
      <trkpt lat="44.64794" lon="6.01889">
        <ele>1586</ele>
        <time>2023-05-15T12:14:42Z</time>
      </trkpt>
      <trkpt lat="44.64794" lon="6.01889">
        <ele>1586</ele>
        <time>2023-05-15T12:14:43Z</time>
      </trkpt>
      <trkpt lat="44.64794" lon="6.01889">
        <ele>1586.2</ele>
        <time>2023-05-15T12:14:44Z</time>
      </trkpt>
      <trkpt lat="44.64794" lon="6.01889">
        <ele>1586.2</ele>
        <time>2023-05-15T12:14:45Z</time>
      </trkpt>
      <trkpt lat="44.64794" lon="6.01889">
        <ele>1586.2</ele>
        <time>2023-05-15T12:14:46Z</time>
      </trkpt>
      <trkpt lat="44.64794" lon="6.01893">
        <ele>1586.4</ele>
        <time>2023-05-15T12:14:48Z</time>
      </trkpt>
      <trkpt lat="44.64794" lon="6.01893">
        <ele>1586.6</ele>
        <time>2023-05-15T12:14:49Z</time>
      </trkpt>
      <trkpt lat="44.64794" lon="6.01893">
        <ele>1586.6</ele>
        <time>2023-05-15T12:14:50Z</time>
      </trkpt>
      <trkpt lat="44.64794" lon="6.01893">
        <ele>1586.6</ele>
        <time>2023-05-15T12:14:51Z</time>
      </trkpt>
      <trkpt lat="44.64794" lon="6.01893">
        <ele>1587</ele>
        <time>2023-05-15T12:14:55Z</time>
      </trkpt>
      <trkpt lat="44.64794" lon="6.01893">
        <ele>1587.2</ele>
        <time>2023-05-15T12:14:56Z</time>
      </trkpt>
      <trkpt lat="44.64794" lon="6.01894">
        <ele>1587.4</ele>
        <time>2023-05-15T12:14:57Z</time>
      </trkpt>
      <trkpt lat="44.64795" lon="6.01895">
        <ele>1587.4</ele>
        <time>2023-05-15T12:14:58Z</time>
      </trkpt>
      <trkpt lat="44.64795" lon="6.01895">
        <ele>1587.6</ele>
        <time>2023-05-15T12:14:59Z</time>
      </trkpt>
      <trkpt lat="44.64795" lon="6.01895">
        <ele>1587.8</ele>
        <time>2023-05-15T12:15:00Z</time>
      </trkpt>
      <trkpt lat="44.64795" lon="6.01895">
        <ele>1588</ele>
        <time>2023-05-15T12:15:01Z</time>
      </trkpt>
      <trkpt lat="44.64795" lon="6.01895">
        <ele>1588.2</ele>
        <time>2023-05-15T12:15:03Z</time>
      </trkpt>
      <trkpt lat="44.64795" lon="6.01895">
        <ele>1588.4</ele>
        <time>2023-05-15T12:15:04Z</time>
      </trkpt>
      <trkpt lat="44.64795" lon="6.01895">
        <ele>1588.4</ele>
        <time>2023-05-15T12:15:05Z</time>
      </trkpt>
      <trkpt lat="44.64795" lon="6.01895">
        <ele>1588.4</ele>
        <time>2023-05-15T12:15:09Z</time>
      </trkpt>
      <trkpt lat="44.64797" lon="6.01896">
        <ele>1588.8</ele>
        <time>2023-05-15T12:15:16Z</time>
      </trkpt>
      <trkpt lat="44.64799" lon="6.01895">
        <ele>1589</ele>
        <time>2023-05-15T12:15:19Z</time>
      </trkpt>
      <trkpt lat="44.648" lon="6.01896">
        <ele>1589.2</ele>
        <time>2023-05-15T12:15:20Z</time>
      </trkpt>
      <trkpt lat="44.64801" lon="6.01895">
        <ele>1589.2</ele>
        <time>2023-05-15T12:15:21Z</time>
      </trkpt>
      <trkpt lat="44.64802" lon="6.01895">
        <ele>1589.4</ele>
        <time>2023-05-15T12:15:22Z</time>
      </trkpt>
      <trkpt lat="44.64805" lon="6.01897">
        <ele>1589.4</ele>
        <time>2023-05-15T12:15:24Z</time>
      </trkpt>
      <trkpt lat="44.64806" lon="6.01897">
        <ele>1589.4</ele>
        <time>2023-05-15T12:15:25Z</time>
      </trkpt>
      <trkpt lat="44.64807" lon="6.01897">
        <ele>1589.4</ele>
        <time>2023-05-15T12:15:26Z</time>
      </trkpt>
      <trkpt lat="44.64807" lon="6.01896">
        <ele>1589.8</ele>
        <time>2023-05-15T12:15:27Z</time>
      </trkpt>
      <trkpt lat="44.64809" lon="6.01895">
        <ele>1590</ele>
        <time>2023-05-15T12:15:28Z</time>
      </trkpt>
      <trkpt lat="44.6481" lon="6.01895">
        <ele>1590.2</ele>
        <time>2023-05-15T12:15:29Z</time>
      </trkpt>
      <trkpt lat="44.64811" lon="6.01895">
        <ele>1590.4</ele>
        <time>2023-05-15T12:15:30Z</time>
      </trkpt>
      <trkpt lat="44.64812" lon="6.01895">
        <ele>1590.4</ele>
        <time>2023-05-15T12:15:31Z</time>
      </trkpt>
      <trkpt lat="44.64814" lon="6.01893">
        <ele>1591</ele>
        <time>2023-05-15T12:15:34Z</time>
      </trkpt>
      <trkpt lat="44.64815" lon="6.01892">
        <ele>1591</ele>
        <time>2023-05-15T12:15:35Z</time>
      </trkpt>
      <trkpt lat="44.64816" lon="6.01891">
        <ele>1591.2</ele>
        <time>2023-05-15T12:15:36Z</time>
      </trkpt>
      <trkpt lat="44.64816" lon="6.0189">
        <ele>1591.2</ele>
        <time>2023-05-15T12:15:37Z</time>
      </trkpt>
      <trkpt lat="44.64816" lon="6.01889">
        <ele>1591.4</ele>
        <time>2023-05-15T12:15:38Z</time>
      </trkpt>
      <trkpt lat="44.64817" lon="6.01888">
        <ele>1591.8</ele>
        <time>2023-05-15T12:15:39Z</time>
      </trkpt>
      <trkpt lat="44.64818" lon="6.01887">
        <ele>1591.8</ele>
        <time>2023-05-15T12:15:40Z</time>
      </trkpt>
      <trkpt lat="44.64819" lon="6.01887">
        <ele>1592</ele>
        <time>2023-05-15T12:15:41Z</time>
      </trkpt>
      <trkpt lat="44.64819" lon="6.01887">
        <ele>1592.2</ele>
        <time>2023-05-15T12:15:42Z</time>
      </trkpt>
      <trkpt lat="44.64819" lon="6.01886">
        <ele>1592.4</ele>
        <time>2023-05-15T12:15:43Z</time>
      </trkpt>
      <trkpt lat="44.6482" lon="6.01885">
        <ele>1592.6</ele>
        <time>2023-05-15T12:15:44Z</time>
      </trkpt>
      <trkpt lat="44.64821" lon="6.01884">
        <ele>1592.8</ele>
        <time>2023-05-15T12:15:45Z</time>
      </trkpt>
      <trkpt lat="44.64821" lon="6.01882">
        <ele>1593</ele>
        <time>2023-05-15T12:15:46Z</time>
      </trkpt>
      <trkpt lat="44.64822" lon="6.01882">
        <ele>1593</ele>
        <time>2023-05-15T12:15:47Z</time>
      </trkpt>
      <trkpt lat="44.64822" lon="6.01882">
        <ele>1593.2</ele>
        <time>2023-05-15T12:15:48Z</time>
      </trkpt>
      <trkpt lat="44.64822" lon="6.01882">
        <ele>1593.4</ele>
        <time>2023-05-15T12:15:49Z</time>
      </trkpt>
      <trkpt lat="44.64823" lon="6.0188">
        <ele>1593.6</ele>
        <time>2023-05-15T12:15:50Z</time>
      </trkpt>
      <trkpt lat="44.64823" lon="6.01879">
        <ele>1593.6</ele>
        <time>2023-05-15T12:15:51Z</time>
      </trkpt>
      <trkpt lat="44.64824" lon="6.01877">
        <ele>1593.8</ele>
        <time>2023-05-15T12:15:52Z</time>
      </trkpt>
      <trkpt lat="44.64825" lon="6.01877">
        <ele>1594</ele>
        <time>2023-05-15T12:15:53Z</time>
      </trkpt>
      <trkpt lat="44.64826" lon="6.01876">
        <ele>1594.4</ele>
        <time>2023-05-15T12:15:54Z</time>
      </trkpt>
      <trkpt lat="44.64827" lon="6.01875">
        <ele>1594.6</ele>
        <time>2023-05-15T12:15:55Z</time>
      </trkpt>
      <trkpt lat="44.64828" lon="6.01874">
        <ele>1594.6</ele>
        <time>2023-05-15T12:15:56Z</time>
      </trkpt>
      <trkpt lat="44.64829" lon="6.01873">
        <ele>1594.8</ele>
        <time>2023-05-15T12:15:57Z</time>
      </trkpt>
      <trkpt lat="44.64829" lon="6.01873">
        <ele>1595</ele>
        <time>2023-05-15T12:15:58Z</time>
      </trkpt>
      <trkpt lat="44.64829" lon="6.01873">
        <ele>1595.2</ele>
        <time>2023-05-15T12:15:59Z</time>
      </trkpt>
      <trkpt lat="44.6483" lon="6.01873">
        <ele>1595.2</ele>
        <time>2023-05-15T12:16:00Z</time>
      </trkpt>
      <trkpt lat="44.64831" lon="6.01872">
        <ele>1595.6</ele>
        <time>2023-05-15T12:16:01Z</time>
      </trkpt>
      <trkpt lat="44.64832" lon="6.01872">
        <ele>1595.8</ele>
        <time>2023-05-15T12:16:02Z</time>
      </trkpt>
      <trkpt lat="44.64833" lon="6.01871">
        <ele>1595.8</ele>
        <time>2023-05-15T12:16:03Z</time>
      </trkpt>
      <trkpt lat="44.64833" lon="6.01871">
        <ele>1596</ele>
        <time>2023-05-15T12:16:04Z</time>
      </trkpt>
      <trkpt lat="44.64834" lon="6.0187">
        <ele>1596.2</ele>
        <time>2023-05-15T12:16:05Z</time>
      </trkpt>
      <trkpt lat="44.64834" lon="6.0187">
        <ele>1596.4</ele>
        <time>2023-05-15T12:16:06Z</time>
      </trkpt>
      <trkpt lat="44.64834" lon="6.01869">
        <ele>1596.6</ele>
        <time>2023-05-15T12:16:07Z</time>
      </trkpt>
      <trkpt lat="44.64834" lon="6.01868">
        <ele>1596.8</ele>
        <time>2023-05-15T12:16:08Z</time>
      </trkpt>
      <trkpt lat="44.64835" lon="6.01867">
        <ele>1597</ele>
        <time>2023-05-15T12:16:09Z</time>
      </trkpt>
      <trkpt lat="44.64836" lon="6.01866">
        <ele>1597.2</ele>
        <time>2023-05-15T12:16:10Z</time>
      </trkpt>
      <trkpt lat="44.64838" lon="6.01865">
        <ele>1597.4</ele>
        <time>2023-05-15T12:16:11Z</time>
      </trkpt>
      <trkpt lat="44.64839" lon="6.01864">
        <ele>1597.4</ele>
        <time>2023-05-15T12:16:12Z</time>
      </trkpt>
      <trkpt lat="44.6484" lon="6.01863">
        <ele>1597.6</ele>
        <time>2023-05-15T12:16:13Z</time>
      </trkpt>
      <trkpt lat="44.64841" lon="6.01863">
        <ele>1597.8</ele>
        <time>2023-05-15T12:16:14Z</time>
      </trkpt>
      <trkpt lat="44.64842" lon="6.01862">
        <ele>1598</ele>
        <time>2023-05-15T12:16:15Z</time>
      </trkpt>
      <trkpt lat="44.64843" lon="6.01861">
        <ele>1598.2</ele>
        <time>2023-05-15T12:16:16Z</time>
      </trkpt>
      <trkpt lat="44.64844" lon="6.01861">
        <ele>1598.4</ele>
        <time>2023-05-15T12:16:17Z</time>
      </trkpt>
      <trkpt lat="44.64846" lon="6.01861">
        <ele>1598.4</ele>
        <time>2023-05-15T12:16:18Z</time>
      </trkpt>
      <trkpt lat="44.64848" lon="6.0186">
        <ele>1598.6</ele>
        <time>2023-05-15T12:16:19Z</time>
      </trkpt>
      <trkpt lat="44.64849" lon="6.0186">
        <ele>1598.8</ele>
        <time>2023-05-15T12:16:20Z</time>
      </trkpt>
      <trkpt lat="44.6485" lon="6.01859">
        <ele>1599</ele>
        <time>2023-05-15T12:16:21Z</time>
      </trkpt>
      <trkpt lat="44.64851" lon="6.01859">
        <ele>1599</ele>
        <time>2023-05-15T12:16:22Z</time>
      </trkpt>
      <trkpt lat="44.64851" lon="6.01858">
        <ele>1599.2</ele>
        <time>2023-05-15T12:16:23Z</time>
      </trkpt>
      <trkpt lat="44.64851" lon="6.01858">
        <ele>1599.2</ele>
        <time>2023-05-15T12:16:24Z</time>
      </trkpt>
      <trkpt lat="44.64851" lon="6.01857">
        <ele>1599.4</ele>
        <time>2023-05-15T12:16:25Z</time>
      </trkpt>
      <trkpt lat="44.64851" lon="6.01857">
        <ele>1599.6</ele>
        <time>2023-05-15T12:16:26Z</time>
      </trkpt>
      <trkpt lat="44.64852" lon="6.01856">
        <ele>1599.8</ele>
        <time>2023-05-15T12:16:27Z</time>
      </trkpt>
      <trkpt lat="44.64853" lon="6.01857">
        <ele>1599.8</ele>
        <time>2023-05-15T12:16:28Z</time>
      </trkpt>
      <trkpt lat="44.64853" lon="6.01857">
        <ele>1600</ele>
        <time>2023-05-15T12:16:29Z</time>
      </trkpt>
      <trkpt lat="44.64855" lon="6.01856">
        <ele>1600</ele>
        <time>2023-05-15T12:16:30Z</time>
      </trkpt>
      <trkpt lat="44.64855" lon="6.01856">
        <ele>1600</ele>
        <time>2023-05-15T12:16:31Z</time>
      </trkpt>
      <trkpt lat="44.64855" lon="6.01856">
        <ele>1600</ele>
        <time>2023-05-15T12:16:32Z</time>
      </trkpt>
      <trkpt lat="44.64855" lon="6.01856">
        <ele>1600.6</ele>
        <time>2023-05-15T12:16:34Z</time>
      </trkpt>
      <trkpt lat="44.64855" lon="6.01856">
        <ele>1600.8</ele>
        <time>2023-05-15T12:16:36Z</time>
      </trkpt>
      <trkpt lat="44.64856" lon="6.01857">
        <ele>1600.4</ele>
        <time>2023-05-15T12:16:46Z</time>
      </trkpt>
      <trkpt lat="44.64856" lon="6.01857">
        <ele>1600.8</ele>
        <time>2023-05-15T12:16:56Z</time>
      </trkpt>
      <trkpt lat="44.64858" lon="6.01855">
        <ele>1600.6</ele>
        <time>2023-05-15T12:17:01Z</time>
      </trkpt>
      <trkpt lat="44.64863" lon="6.01854">
        <ele>1601.2</ele>
        <time>2023-05-15T12:17:05Z</time>
      </trkpt>
      <trkpt lat="44.64864" lon="6.01854">
        <ele>1601.4</ele>
        <time>2023-05-15T12:17:06Z</time>
      </trkpt>
      <trkpt lat="44.64865" lon="6.01854">
        <ele>1601.6</ele>
        <time>2023-05-15T12:17:08Z</time>
      </trkpt>
      <trkpt lat="44.64866" lon="6.01854">
        <ele>1601.6</ele>
        <time>2023-05-15T12:17:09Z</time>
      </trkpt>
      <trkpt lat="44.64867" lon="6.01853">
        <ele>1601.8</ele>
        <time>2023-05-15T12:17:10Z</time>
      </trkpt>
      <trkpt lat="44.64867" lon="6.01852">
        <ele>1602</ele>
        <time>2023-05-15T12:17:11Z</time>
      </trkpt>
      <trkpt lat="44.64869" lon="6.01851">
        <ele>1602.2</ele>
        <time>2023-05-15T12:17:12Z</time>
      </trkpt>
      <trkpt lat="44.6487" lon="6.0185">
        <ele>1602.4</ele>
        <time>2023-05-15T12:17:13Z</time>
      </trkpt>
      <trkpt lat="44.64871" lon="6.01848">
        <ele>1602.8</ele>
        <time>2023-05-15T12:17:15Z</time>
      </trkpt>
      <trkpt lat="44.64872" lon="6.01848">
        <ele>1603.2</ele>
        <time>2023-05-15T12:17:16Z</time>
      </trkpt>
      <trkpt lat="44.64872" lon="6.01848">
        <ele>1603.2</ele>
        <time>2023-05-15T12:17:17Z</time>
      </trkpt>
      <trkpt lat="44.64873" lon="6.01847">
        <ele>1603.4</ele>
        <time>2023-05-15T12:17:18Z</time>
      </trkpt>
      <trkpt lat="44.64873" lon="6.01847">
        <ele>1603.4</ele>
        <time>2023-05-15T12:17:19Z</time>
      </trkpt>
      <trkpt lat="44.64874" lon="6.01847">
        <ele>1603.6</ele>
        <time>2023-05-15T12:17:21Z</time>
      </trkpt>
      <trkpt lat="44.64875" lon="6.01847">
        <ele>1603.6</ele>
        <time>2023-05-15T12:17:22Z</time>
      </trkpt>
      <trkpt lat="44.64876" lon="6.01847">
        <ele>1603.8</ele>
        <time>2023-05-15T12:17:23Z</time>
      </trkpt>
      <trkpt lat="44.64878" lon="6.01846">
        <ele>1603.8</ele>
        <time>2023-05-15T12:17:24Z</time>
      </trkpt>
      <trkpt lat="44.64879" lon="6.01845">
        <ele>1604</ele>
        <time>2023-05-15T12:17:25Z</time>
      </trkpt>
      <trkpt lat="44.64879" lon="6.01844">
        <ele>1604</ele>
        <time>2023-05-15T12:17:26Z</time>
      </trkpt>
      <trkpt lat="44.64879" lon="6.01844">
        <ele>1604.2</ele>
        <time>2023-05-15T12:17:27Z</time>
      </trkpt>
      <trkpt lat="44.64879" lon="6.01844">
        <ele>1604.2</ele>
        <time>2023-05-15T12:17:28Z</time>
      </trkpt>
      <trkpt lat="44.6488" lon="6.01843">
        <ele>1604.4</ele>
        <time>2023-05-15T12:17:29Z</time>
      </trkpt>
      <trkpt lat="44.64881" lon="6.01842">
        <ele>1604.6</ele>
        <time>2023-05-15T12:17:30Z</time>
      </trkpt>
      <trkpt lat="44.64882" lon="6.01842">
        <ele>1604.6</ele>
        <time>2023-05-15T12:17:31Z</time>
      </trkpt>
      <trkpt lat="44.64884" lon="6.01842">
        <ele>1604.6</ele>
        <time>2023-05-15T12:17:32Z</time>
      </trkpt>
      <trkpt lat="44.64885" lon="6.01842">
        <ele>1604.6</ele>
        <time>2023-05-15T12:17:33Z</time>
      </trkpt>
      <trkpt lat="44.64886" lon="6.01842">
        <ele>1604.6</ele>
        <time>2023-05-15T12:17:34Z</time>
      </trkpt>
      <trkpt lat="44.64886" lon="6.01842">
        <ele>1604.6</ele>
        <time>2023-05-15T12:17:35Z</time>
      </trkpt>
      <trkpt lat="44.64887" lon="6.01842">
        <ele>1604.6</ele>
        <time>2023-05-15T12:17:36Z</time>
      </trkpt>
      <trkpt lat="44.64888" lon="6.01841">
        <ele>1604.8</ele>
        <time>2023-05-15T12:17:37Z</time>
      </trkpt>
      <trkpt lat="44.64889" lon="6.0184">
        <ele>1604.8</ele>
        <time>2023-05-15T12:17:38Z</time>
      </trkpt>
      <trkpt lat="44.6489" lon="6.01839">
        <ele>1604.8</ele>
        <time>2023-05-15T12:17:39Z</time>
      </trkpt>
      <trkpt lat="44.64892" lon="6.01838">
        <ele>1604.8</ele>
        <time>2023-05-15T12:17:40Z</time>
      </trkpt>
      <trkpt lat="44.64893" lon="6.01838">
        <ele>1605</ele>
        <time>2023-05-15T12:17:42Z</time>
      </trkpt>
      <trkpt lat="44.64894" lon="6.01838">
        <ele>1605.2</ele>
        <time>2023-05-15T12:17:43Z</time>
      </trkpt>
      <trkpt lat="44.64894" lon="6.01838">
        <ele>1605.2</ele>
        <time>2023-05-15T12:17:44Z</time>
      </trkpt>
      <trkpt lat="44.64895" lon="6.01838">
        <ele>1605.4</ele>
        <time>2023-05-15T12:17:45Z</time>
      </trkpt>
      <trkpt lat="44.64896" lon="6.01838">
        <ele>1605.6</ele>
        <time>2023-05-15T12:17:46Z</time>
      </trkpt>
      <trkpt lat="44.64896" lon="6.01838">
        <ele>1605.6</ele>
        <time>2023-05-15T12:17:47Z</time>
      </trkpt>
      <trkpt lat="44.64896" lon="6.01838">
        <ele>1605.8</ele>
        <time>2023-05-15T12:17:48Z</time>
      </trkpt>
      <trkpt lat="44.64897" lon="6.01838">
        <ele>1606</ele>
        <time>2023-05-15T12:17:51Z</time>
      </trkpt>
      <trkpt lat="44.64899" lon="6.01837">
        <ele>1606.6</ele>
        <time>2023-05-15T12:17:56Z</time>
      </trkpt>
      <trkpt lat="44.649" lon="6.01837">
        <ele>1606.8</ele>
        <time>2023-05-15T12:17:58Z</time>
      </trkpt>
      <trkpt lat="44.64901" lon="6.01836">
        <ele>1607</ele>
        <time>2023-05-15T12:17:59Z</time>
      </trkpt>
      <trkpt lat="44.64903" lon="6.01836">
        <ele>1607.6</ele>
        <time>2023-05-15T12:18:01Z</time>
      </trkpt>
      <trkpt lat="44.64903" lon="6.01836">
        <ele>1608</ele>
        <time>2023-05-15T12:18:03Z</time>
      </trkpt>
      <trkpt lat="44.64903" lon="6.01836">
        <ele>1608.2</ele>
        <time>2023-05-15T12:18:04Z</time>
      </trkpt>
      <trkpt lat="44.64903" lon="6.01836">
        <ele>1608.8</ele>
        <time>2023-05-15T12:18:06Z</time>
      </trkpt>
      <trkpt lat="44.64904" lon="6.01835">
        <ele>1609.6</ele>
        <time>2023-05-15T12:18:11Z</time>
      </trkpt>
      <trkpt lat="44.64905" lon="6.01835">
        <ele>1609.6</ele>
        <time>2023-05-15T12:18:12Z</time>
      </trkpt>
      <trkpt lat="44.64906" lon="6.01835">
        <ele>1609.8</ele>
        <time>2023-05-15T12:18:14Z</time>
      </trkpt>
      <trkpt lat="44.64906" lon="6.01835">
        <ele>1610</ele>
        <time>2023-05-15T12:18:15Z</time>
      </trkpt>
      <trkpt lat="44.64906" lon="6.01835">
        <ele>1610.2</ele>
        <time>2023-05-15T12:18:16Z</time>
      </trkpt>
      <trkpt lat="44.64906" lon="6.01834">
        <ele>1610.4</ele>
        <time>2023-05-15T12:18:17Z</time>
      </trkpt>
      <trkpt lat="44.64908" lon="6.01834">
        <ele>1610.4</ele>
        <time>2023-05-15T12:18:18Z</time>
      </trkpt>
      <trkpt lat="44.64909" lon="6.01834">
        <ele>1610.6</ele>
        <time>2023-05-15T12:18:19Z</time>
      </trkpt>
      <trkpt lat="44.64911" lon="6.01834">
        <ele>1610.8</ele>
        <time>2023-05-15T12:18:20Z</time>
      </trkpt>
      <trkpt lat="44.64912" lon="6.01833">
        <ele>1611</ele>
        <time>2023-05-15T12:18:21Z</time>
      </trkpt>
      <trkpt lat="44.64913" lon="6.01833">
        <ele>1611.2</ele>
        <time>2023-05-15T12:18:22Z</time>
      </trkpt>
      <trkpt lat="44.64913" lon="6.01833">
        <ele>1611.2</ele>
        <time>2023-05-15T12:18:23Z</time>
      </trkpt>
      <trkpt lat="44.64913" lon="6.01833">
        <ele>1611.4</ele>
        <time>2023-05-15T12:18:24Z</time>
      </trkpt>
      <trkpt lat="44.64913" lon="6.01832">
        <ele>1611.4</ele>
        <time>2023-05-15T12:18:25Z</time>
      </trkpt>
      <trkpt lat="44.64914" lon="6.01831">
        <ele>1611.6</ele>
        <time>2023-05-15T12:18:26Z</time>
      </trkpt>
      <trkpt lat="44.64915" lon="6.01831">
        <ele>1611.6</ele>
        <time>2023-05-15T12:18:27Z</time>
      </trkpt>
      <trkpt lat="44.64916" lon="6.0183">
        <ele>1611.6</ele>
        <time>2023-05-15T12:18:28Z</time>
      </trkpt>
      <trkpt lat="44.64916" lon="6.0183">
        <ele>1611.8</ele>
        <time>2023-05-15T12:18:29Z</time>
      </trkpt>
      <trkpt lat="44.64916" lon="6.0183">
        <ele>1611.8</ele>
        <time>2023-05-15T12:18:30Z</time>
      </trkpt>
      <trkpt lat="44.64917" lon="6.0183">
        <ele>1612</ele>
        <time>2023-05-15T12:18:31Z</time>
      </trkpt>
      <trkpt lat="44.64917" lon="6.0183">
        <ele>1612</ele>
        <time>2023-05-15T12:18:32Z</time>
      </trkpt>
      <trkpt lat="44.64917" lon="6.0183">
        <ele>1612.2</ele>
        <time>2023-05-15T12:18:35Z</time>
      </trkpt>
      <trkpt lat="44.64917" lon="6.0183">
        <ele>1612.4</ele>
        <time>2023-05-15T12:18:37Z</time>
      </trkpt>
      <trkpt lat="44.64918" lon="6.0183">
        <ele>1612.6</ele>
        <time>2023-05-15T12:18:38Z</time>
      </trkpt>
      <trkpt lat="44.6492" lon="6.01829">
        <ele>1612.6</ele>
        <time>2023-05-15T12:18:39Z</time>
      </trkpt>
      <trkpt lat="44.6492" lon="6.01829">
        <ele>1612.8</ele>
        <time>2023-05-15T12:18:40Z</time>
      </trkpt>
      <trkpt lat="44.6492" lon="6.01829">
        <ele>1613.2</ele>
        <time>2023-05-15T12:18:42Z</time>
      </trkpt>
      <trkpt lat="44.64922" lon="6.01828">
        <ele>1613.4</ele>
        <time>2023-05-15T12:18:44Z</time>
      </trkpt>
      <trkpt lat="44.64923" lon="6.01828">
        <ele>1613.6</ele>
        <time>2023-05-15T12:18:45Z</time>
      </trkpt>
      <trkpt lat="44.64923" lon="6.01828">
        <ele>1613.6</ele>
        <time>2023-05-15T12:18:46Z</time>
      </trkpt>
      <trkpt lat="44.64924" lon="6.01827">
        <ele>1613.6</ele>
        <time>2023-05-15T12:18:47Z</time>
      </trkpt>
      <trkpt lat="44.64924" lon="6.01827">
        <ele>1613.8</ele>
        <time>2023-05-15T12:18:48Z</time>
      </trkpt>
      <trkpt lat="44.64924" lon="6.01827">
        <ele>1614</ele>
        <time>2023-05-15T12:18:50Z</time>
      </trkpt>
      <trkpt lat="44.64924" lon="6.01827">
        <ele>1614.2</ele>
        <time>2023-05-15T12:18:51Z</time>
      </trkpt>
      <trkpt lat="44.64926" lon="6.01828">
        <ele>1614.4</ele>
        <time>2023-05-15T12:18:52Z</time>
      </trkpt>
      <trkpt lat="44.64926" lon="6.01828">
        <ele>1614.6</ele>
        <time>2023-05-15T12:18:54Z</time>
      </trkpt>
      <trkpt lat="44.64927" lon="6.01828">
        <ele>1614.6</ele>
        <time>2023-05-15T12:18:55Z</time>
      </trkpt>
      <trkpt lat="44.64927" lon="6.01828">
        <ele>1614.8</ele>
        <time>2023-05-15T12:18:56Z</time>
      </trkpt>
      <trkpt lat="44.64927" lon="6.01828">
        <ele>1615</ele>
        <time>2023-05-15T12:18:57Z</time>
      </trkpt>
      <trkpt lat="44.64927" lon="6.01828">
        <ele>1615.2</ele>
        <time>2023-05-15T12:18:58Z</time>
      </trkpt>
      <trkpt lat="44.64929" lon="6.01827">
        <ele>1615.4</ele>
        <time>2023-05-15T12:18:59Z</time>
      </trkpt>
      <trkpt lat="44.64931" lon="6.01827">
        <ele>1615.6</ele>
        <time>2023-05-15T12:19:00Z</time>
      </trkpt>
      <trkpt lat="44.64932" lon="6.01826">
        <ele>1615.6</ele>
        <time>2023-05-15T12:19:01Z</time>
      </trkpt>
      <trkpt lat="44.64933" lon="6.01826">
        <ele>1616</ele>
        <time>2023-05-15T12:19:02Z</time>
      </trkpt>
      <trkpt lat="44.64933" lon="6.01826">
        <ele>1616.2</ele>
        <time>2023-05-15T12:19:03Z</time>
      </trkpt>
      <trkpt lat="44.64933" lon="6.01826">
        <ele>1616.2</ele>
        <time>2023-05-15T12:19:04Z</time>
      </trkpt>
      <trkpt lat="44.64933" lon="6.01826">
        <ele>1616.6</ele>
        <time>2023-05-15T12:19:05Z</time>
      </trkpt>
      <trkpt lat="44.64934" lon="6.01826">
        <ele>1616.6</ele>
        <time>2023-05-15T12:19:06Z</time>
      </trkpt>
      <trkpt lat="44.64935" lon="6.01825">
        <ele>1616.8</ele>
        <time>2023-05-15T12:19:07Z</time>
      </trkpt>
      <trkpt lat="44.64936" lon="6.01825">
        <ele>1616.8</ele>
        <time>2023-05-15T12:19:08Z</time>
      </trkpt>
      <trkpt lat="44.64937" lon="6.01824">
        <ele>1617</ele>
        <time>2023-05-15T12:19:09Z</time>
      </trkpt>
      <trkpt lat="44.64938" lon="6.01824">
        <ele>1617</ele>
        <time>2023-05-15T12:19:10Z</time>
      </trkpt>
      <trkpt lat="44.64938" lon="6.01825">
        <ele>1617.2</ele>
        <time>2023-05-15T12:19:11Z</time>
      </trkpt>
      <trkpt lat="44.64939" lon="6.01825">
        <ele>1617.2</ele>
        <time>2023-05-15T12:19:12Z</time>
      </trkpt>
      <trkpt lat="44.64941" lon="6.01825">
        <ele>1617.2</ele>
        <time>2023-05-15T12:19:13Z</time>
      </trkpt>
      <trkpt lat="44.64941" lon="6.01825">
        <ele>1617.4</ele>
        <time>2023-05-15T12:19:14Z</time>
      </trkpt>
      <trkpt lat="44.64942" lon="6.01825">
        <ele>1617.6</ele>
        <time>2023-05-15T12:19:15Z</time>
      </trkpt>
      <trkpt lat="44.64943" lon="6.01825">
        <ele>1617.8</ele>
        <time>2023-05-15T12:19:16Z</time>
      </trkpt>
      <trkpt lat="44.64944" lon="6.01825">
        <ele>1618</ele>
        <time>2023-05-15T12:19:17Z</time>
      </trkpt>
      <trkpt lat="44.64945" lon="6.01824">
        <ele>1618.4</ele>
        <time>2023-05-15T12:19:18Z</time>
      </trkpt>
      <trkpt lat="44.64947" lon="6.01824">
        <ele>1618.6</ele>
        <time>2023-05-15T12:19:19Z</time>
      </trkpt>
      <trkpt lat="44.64948" lon="6.01824">
        <ele>1618.6</ele>
        <time>2023-05-15T12:19:20Z</time>
      </trkpt>
      <trkpt lat="44.64949" lon="6.01823">
        <ele>1618.8</ele>
        <time>2023-05-15T12:19:21Z</time>
      </trkpt>
      <trkpt lat="44.6495" lon="6.01823">
        <ele>1619</ele>
        <time>2023-05-15T12:19:22Z</time>
      </trkpt>
      <trkpt lat="44.6495" lon="6.01823">
        <ele>1619.2</ele>
        <time>2023-05-15T12:19:23Z</time>
      </trkpt>
      <trkpt lat="44.6495" lon="6.01823">
        <ele>1619.8</ele>
        <time>2023-05-15T12:19:27Z</time>
      </trkpt>
      <trkpt lat="44.6495" lon="6.01823">
        <ele>1620</ele>
        <time>2023-05-15T12:19:28Z</time>
      </trkpt>
      <trkpt lat="44.6495" lon="6.01823">
        <ele>1620</ele>
        <time>2023-05-15T12:19:29Z</time>
      </trkpt>
      <trkpt lat="44.64951" lon="6.01822">
        <ele>1620.8</ele>
        <time>2023-05-15T12:19:37Z</time>
      </trkpt>
      <trkpt lat="44.64951" lon="6.01822">
        <ele>1620.8</ele>
        <time>2023-05-15T12:19:38Z</time>
      </trkpt>
      <trkpt lat="44.64951" lon="6.01822">
        <ele>1621</ele>
        <time>2023-05-15T12:19:39Z</time>
      </trkpt>
      <trkpt lat="44.64952" lon="6.01822">
        <ele>1621.6</ele>
        <time>2023-05-15T12:19:45Z</time>
      </trkpt>
      <trkpt lat="44.64958" lon="6.0182">
        <ele>1622</ele>
        <time>2023-05-15T12:19:49Z</time>
      </trkpt>
      <trkpt lat="44.6496" lon="6.01821">
        <ele>1622.2</ele>
        <time>2023-05-15T12:19:50Z</time>
      </trkpt>
      <trkpt lat="44.6496" lon="6.01821">
        <ele>1622.2</ele>
        <time>2023-05-15T12:19:51Z</time>
      </trkpt>
      <trkpt lat="44.6496" lon="6.01821">
        <ele>1622.4</ele>
        <time>2023-05-15T12:19:52Z</time>
      </trkpt>
      <trkpt lat="44.6496" lon="6.01821">
        <ele>1622.6</ele>
        <time>2023-05-15T12:19:53Z</time>
      </trkpt>
      <trkpt lat="44.6496" lon="6.01821">
        <ele>1622.6</ele>
        <time>2023-05-15T12:19:54Z</time>
      </trkpt>
      <trkpt lat="44.6496" lon="6.01821">
        <ele>1622.8</ele>
        <time>2023-05-15T12:19:55Z</time>
      </trkpt>
      <trkpt lat="44.64961" lon="6.01821">
        <ele>1622.8</ele>
        <time>2023-05-15T12:19:56Z</time>
      </trkpt>
      <trkpt lat="44.64961" lon="6.01821">
        <ele>1622.8</ele>
        <time>2023-05-15T12:19:57Z</time>
      </trkpt>
      <trkpt lat="44.64961" lon="6.01821">
        <ele>1623</ele>
        <time>2023-05-15T12:19:58Z</time>
      </trkpt>
      <trkpt lat="44.64962" lon="6.01821">
        <ele>1623.2</ele>
        <time>2023-05-15T12:19:59Z</time>
      </trkpt>
      <trkpt lat="44.64966" lon="6.0182">
        <ele>1623.2</ele>
        <time>2023-05-15T12:20:01Z</time>
      </trkpt>
      <trkpt lat="44.64968" lon="6.0182">
        <ele>1623.4</ele>
        <time>2023-05-15T12:20:02Z</time>
      </trkpt>
      <trkpt lat="44.6497" lon="6.0182">
        <ele>1623.4</ele>
        <time>2023-05-15T12:20:03Z</time>
      </trkpt>
      <trkpt lat="44.6497" lon="6.0182">
        <ele>1623.4</ele>
        <time>2023-05-15T12:20:04Z</time>
      </trkpt>
      <trkpt lat="44.6497" lon="6.0182">
        <ele>1623.6</ele>
        <time>2023-05-15T12:20:05Z</time>
      </trkpt>
      <trkpt lat="44.64971" lon="6.0182">
        <ele>1623.6</ele>
        <time>2023-05-15T12:20:06Z</time>
      </trkpt>
      <trkpt lat="44.64971" lon="6.01819">
        <ele>1623.6</ele>
        <time>2023-05-15T12:20:07Z</time>
      </trkpt>
      <trkpt lat="44.64972" lon="6.01818">
        <ele>1623.6</ele>
        <time>2023-05-15T12:20:08Z</time>
      </trkpt>
      <trkpt lat="44.64977" lon="6.01817">
        <ele>1623.8</ele>
        <time>2023-05-15T12:20:11Z</time>
      </trkpt>
      <trkpt lat="44.64979" lon="6.01816">
        <ele>1624</ele>
        <time>2023-05-15T12:20:13Z</time>
      </trkpt>
      <trkpt lat="44.64981" lon="6.01816">
        <ele>1624</ele>
        <time>2023-05-15T12:20:14Z</time>
      </trkpt>
      <trkpt lat="44.64981" lon="6.01816">
        <ele>1624.2</ele>
        <time>2023-05-15T12:20:15Z</time>
      </trkpt>
      <trkpt lat="44.64982" lon="6.01816">
        <ele>1624.2</ele>
        <time>2023-05-15T12:20:16Z</time>
      </trkpt>
      <trkpt lat="44.64986" lon="6.01815">
        <ele>1624.8</ele>
        <time>2023-05-15T12:20:21Z</time>
      </trkpt>
      <trkpt lat="44.64987" lon="6.01814">
        <ele>1624.8</ele>
        <time>2023-05-15T12:20:22Z</time>
      </trkpt>
      <trkpt lat="44.64989" lon="6.01814">
        <ele>1624.8</ele>
        <time>2023-05-15T12:20:23Z</time>
      </trkpt>
      <trkpt lat="44.64992" lon="6.01812">
        <ele>1625.2</ele>
        <time>2023-05-15T12:20:28Z</time>
      </trkpt>
      <trkpt lat="44.64994" lon="6.01812">
        <ele>1625.2</ele>
        <time>2023-05-15T12:20:30Z</time>
      </trkpt>
      <trkpt lat="44.64994" lon="6.01812">
        <ele>1625.4</ele>
        <time>2023-05-15T12:20:31Z</time>
      </trkpt>
      <trkpt lat="44.64998" lon="6.0181">
        <ele>1625.4</ele>
        <time>2023-05-15T12:20:34Z</time>
      </trkpt>
      <trkpt lat="44.64999" lon="6.0181">
        <ele>1625.6</ele>
        <time>2023-05-15T12:20:36Z</time>
      </trkpt>
      <trkpt lat="44.65" lon="6.0181">
        <ele>1625.6</ele>
        <time>2023-05-15T12:20:37Z</time>
      </trkpt>
      <trkpt lat="44.65001" lon="6.0181">
        <ele>1625.8</ele>
        <time>2023-05-15T12:20:38Z</time>
      </trkpt>
      <trkpt lat="44.65002" lon="6.0181">
        <ele>1625.8</ele>
        <time>2023-05-15T12:20:39Z</time>
      </trkpt>
      <trkpt lat="44.65003" lon="6.0181">
        <ele>1626</ele>
        <time>2023-05-15T12:20:40Z</time>
      </trkpt>
      <trkpt lat="44.65004" lon="6.01809">
        <ele>1626</ele>
        <time>2023-05-15T12:20:41Z</time>
      </trkpt>
      <trkpt lat="44.65005" lon="6.01808">
        <ele>1626</ele>
        <time>2023-05-15T12:20:42Z</time>
      </trkpt>
      <trkpt lat="44.65005" lon="6.01808">
        <ele>1626.2</ele>
        <time>2023-05-15T12:20:43Z</time>
      </trkpt>
      <trkpt lat="44.65006" lon="6.01808">
        <ele>1626.2</ele>
        <time>2023-05-15T12:20:44Z</time>
      </trkpt>
      <trkpt lat="44.65006" lon="6.01808">
        <ele>1626.2</ele>
        <time>2023-05-15T12:20:45Z</time>
      </trkpt>
      <trkpt lat="44.65007" lon="6.01808">
        <ele>1626.4</ele>
        <time>2023-05-15T12:20:46Z</time>
      </trkpt>
      <trkpt lat="44.65007" lon="6.01808">
        <ele>1626.4</ele>
        <time>2023-05-15T12:20:47Z</time>
      </trkpt>
      <trkpt lat="44.65007" lon="6.01808">
        <ele>1626.4</ele>
        <time>2023-05-15T12:20:49Z</time>
      </trkpt>
      <trkpt lat="44.65007" lon="6.01808">
        <ele>1626.6</ele>
        <time>2023-05-15T12:20:52Z</time>
      </trkpt>
      <trkpt lat="44.65007" lon="6.01807">
        <ele>1627.4</ele>
        <time>2023-05-15T12:21:02Z</time>
      </trkpt>
      <trkpt lat="44.65007" lon="6.01807">
        <ele>1627.4</ele>
        <time>2023-05-15T12:21:07Z</time>
      </trkpt>
      <trkpt lat="44.65007" lon="6.01807">
        <ele>1627.2</ele>
        <time>2023-05-15T12:21:19Z</time>
      </trkpt>
      <trkpt lat="44.65007" lon="6.01807">
        <ele>1627.4</ele>
        <time>2023-05-15T12:21:33Z</time>
      </trkpt>
      <trkpt lat="44.65006" lon="6.01807">
        <ele>1627.8</ele>
        <time>2023-05-15T12:21:42Z</time>
      </trkpt>
      <trkpt lat="44.65006" lon="6.01807">
        <ele>1627.8</ele>
        <time>2023-05-15T12:21:43Z</time>
      </trkpt>
      <trkpt lat="44.65006" lon="6.01807">
        <ele>1628</ele>
        <time>2023-05-15T12:21:44Z</time>
      </trkpt>
      <trkpt lat="44.65006" lon="6.01807">
        <ele>1628.4</ele>
        <time>2023-05-15T12:21:49Z</time>
      </trkpt>
      <trkpt lat="44.65006" lon="6.01807">
        <ele>1628.4</ele>
        <time>2023-05-15T12:21:50Z</time>
      </trkpt>
      <trkpt lat="44.65005" lon="6.01808">
        <ele>1628.4</ele>
        <time>2023-05-15T12:21:52Z</time>
      </trkpt>
      <trkpt lat="44.65004" lon="6.01808">
        <ele>1628.6</ele>
        <time>2023-05-15T12:21:53Z</time>
      </trkpt>
      <trkpt lat="44.65003" lon="6.01807">
        <ele>1628.8</ele>
        <time>2023-05-15T12:21:55Z</time>
      </trkpt>
      <trkpt lat="44.65003" lon="6.01808">
        <ele>1628.8</ele>
        <time>2023-05-15T12:21:56Z</time>
      </trkpt>
      <trkpt lat="44.65002" lon="6.01809">
        <ele>1629</ele>
        <time>2023-05-15T12:21:57Z</time>
      </trkpt>
      <trkpt lat="44.65002" lon="6.0181">
        <ele>1629.4</ele>
        <time>2023-05-15T12:21:59Z</time>
      </trkpt>
      <trkpt lat="44.65002" lon="6.01811">
        <ele>1629.6</ele>
        <time>2023-05-15T12:22:00Z</time>
      </trkpt>
      <trkpt lat="44.65001" lon="6.01812">
        <ele>1629.8</ele>
        <time>2023-05-15T12:22:01Z</time>
      </trkpt>
      <trkpt lat="44.65" lon="6.01815">
        <ele>1630</ele>
        <time>2023-05-15T12:22:04Z</time>
      </trkpt>
      <trkpt lat="44.65" lon="6.01816">
        <ele>1630</ele>
        <time>2023-05-15T12:22:05Z</time>
      </trkpt>
      <trkpt lat="44.64999" lon="6.01817">
        <ele>1630</ele>
        <time>2023-05-15T12:22:06Z</time>
      </trkpt>
      <trkpt lat="44.64998" lon="6.01817">
        <ele>1630.2</ele>
        <time>2023-05-15T12:22:07Z</time>
      </trkpt>
      <trkpt lat="44.64997" lon="6.01818">
        <ele>1630.2</ele>
        <time>2023-05-15T12:22:08Z</time>
      </trkpt>
      <trkpt lat="44.64997" lon="6.01818">
        <ele>1630.2</ele>
        <time>2023-05-15T12:22:09Z</time>
      </trkpt>
      <trkpt lat="44.64997" lon="6.01817">
        <ele>1630.4</ele>
        <time>2023-05-15T12:22:10Z</time>
      </trkpt>
      <trkpt lat="44.64996" lon="6.01818">
        <ele>1630.4</ele>
        <time>2023-05-15T12:22:11Z</time>
      </trkpt>
      <trkpt lat="44.64994" lon="6.01818">
        <ele>1630.6</ele>
        <time>2023-05-15T12:22:13Z</time>
      </trkpt>
      <trkpt lat="44.64994" lon="6.01818">
        <ele>1630.8</ele>
        <time>2023-05-15T12:22:14Z</time>
      </trkpt>
      <trkpt lat="44.64993" lon="6.01818">
        <ele>1631</ele>
        <time>2023-05-15T12:22:16Z</time>
      </trkpt>
      <trkpt lat="44.64993" lon="6.01818">
        <ele>1631.2</ele>
        <time>2023-05-15T12:22:17Z</time>
      </trkpt>
      <trkpt lat="44.64993" lon="6.01818">
        <ele>1631.2</ele>
        <time>2023-05-15T12:22:18Z</time>
      </trkpt>
      <trkpt lat="44.64993" lon="6.01819">
        <ele>1631.4</ele>
        <time>2023-05-15T12:22:19Z</time>
      </trkpt>
      <trkpt lat="44.64992" lon="6.01819">
        <ele>1631.6</ele>
        <time>2023-05-15T12:22:20Z</time>
      </trkpt>
      <trkpt lat="44.64991" lon="6.0182">
        <ele>1632</ele>
        <time>2023-05-15T12:22:22Z</time>
      </trkpt>
      <trkpt lat="44.6499" lon="6.0182">
        <ele>1632</ele>
        <time>2023-05-15T12:22:23Z</time>
      </trkpt>
      <trkpt lat="44.6499" lon="6.01821">
        <ele>1632.2</ele>
        <time>2023-05-15T12:22:24Z</time>
      </trkpt>
      <trkpt lat="44.6499" lon="6.01821">
        <ele>1632.2</ele>
        <time>2023-05-15T12:22:25Z</time>
      </trkpt>
      <trkpt lat="44.6499" lon="6.01821">
        <ele>1632.4</ele>
        <time>2023-05-15T12:22:26Z</time>
      </trkpt>
      <trkpt lat="44.6499" lon="6.01821">
        <ele>1632.6</ele>
        <time>2023-05-15T12:22:27Z</time>
      </trkpt>
      <trkpt lat="44.64989" lon="6.01821">
        <ele>1632.6</ele>
        <time>2023-05-15T12:22:28Z</time>
      </trkpt>
      <trkpt lat="44.64989" lon="6.01821">
        <ele>1632.8</ele>
        <time>2023-05-15T12:22:29Z</time>
      </trkpt>
      <trkpt lat="44.64988" lon="6.01822">
        <ele>1633</ele>
        <time>2023-05-15T12:22:30Z</time>
      </trkpt>
      <trkpt lat="44.64988" lon="6.01823">
        <ele>1633.4</ele>
        <time>2023-05-15T12:22:31Z</time>
      </trkpt>
      <trkpt lat="44.64987" lon="6.01824">
        <ele>1633.4</ele>
        <time>2023-05-15T12:22:32Z</time>
      </trkpt>
      <trkpt lat="44.64987" lon="6.01825">
        <ele>1633.6</ele>
        <time>2023-05-15T12:22:33Z</time>
      </trkpt>
      <trkpt lat="44.64987" lon="6.01825">
        <ele>1633.6</ele>
        <time>2023-05-15T12:22:34Z</time>
      </trkpt>
      <trkpt lat="44.64986" lon="6.01826">
        <ele>1633.8</ele>
        <time>2023-05-15T12:22:35Z</time>
      </trkpt>
      <trkpt lat="44.64985" lon="6.01827">
        <ele>1634</ele>
        <time>2023-05-15T12:22:36Z</time>
      </trkpt>
      <trkpt lat="44.64985" lon="6.01828">
        <ele>1634</ele>
        <time>2023-05-15T12:22:37Z</time>
      </trkpt>
      <trkpt lat="44.64984" lon="6.01828">
        <ele>1634.2</ele>
        <time>2023-05-15T12:22:38Z</time>
      </trkpt>
      <trkpt lat="44.64983" lon="6.01828">
        <ele>1634.2</ele>
        <time>2023-05-15T12:22:39Z</time>
      </trkpt>
      <trkpt lat="44.64983" lon="6.01829">
        <ele>1634.2</ele>
        <time>2023-05-15T12:22:40Z</time>
      </trkpt>
      <trkpt lat="44.64983" lon="6.01829">
        <ele>1634.2</ele>
        <time>2023-05-15T12:22:41Z</time>
      </trkpt>
      <trkpt lat="44.64983" lon="6.01829">
        <ele>1634.2</ele>
        <time>2023-05-15T12:22:42Z</time>
      </trkpt>
      <trkpt lat="44.64983" lon="6.01829">
        <ele>1634.2</ele>
        <time>2023-05-15T12:22:43Z</time>
      </trkpt>
      <trkpt lat="44.64982" lon="6.0183">
        <ele>1634.2</ele>
        <time>2023-05-15T12:22:44Z</time>
      </trkpt>
      <trkpt lat="44.64981" lon="6.0183">
        <ele>1634.2</ele>
        <time>2023-05-15T12:22:45Z</time>
      </trkpt>
      <trkpt lat="44.6498" lon="6.01831">
        <ele>1634.4</ele>
        <time>2023-05-15T12:22:46Z</time>
      </trkpt>
      <trkpt lat="44.64979" lon="6.01832">
        <ele>1634.4</ele>
        <time>2023-05-15T12:22:47Z</time>
      </trkpt>
      <trkpt lat="44.64978" lon="6.01832">
        <ele>1634.4</ele>
        <time>2023-05-15T12:22:48Z</time>
      </trkpt>
      <trkpt lat="44.64978" lon="6.01833">
        <ele>1634.6</ele>
        <time>2023-05-15T12:22:49Z</time>
      </trkpt>
      <trkpt lat="44.64977" lon="6.01834">
        <ele>1634.6</ele>
        <time>2023-05-15T12:22:50Z</time>
      </trkpt>
      <trkpt lat="44.64976" lon="6.01837">
        <ele>1634.8</ele>
        <time>2023-05-15T12:22:52Z</time>
      </trkpt>
      <trkpt lat="44.64976" lon="6.01837">
        <ele>1635</ele>
        <time>2023-05-15T12:22:53Z</time>
      </trkpt>
      <trkpt lat="44.64975" lon="6.01838">
        <ele>1635.4</ele>
        <time>2023-05-15T12:22:55Z</time>
      </trkpt>
      <trkpt lat="44.64975" lon="6.01838">
        <ele>1635.4</ele>
        <time>2023-05-15T12:22:56Z</time>
      </trkpt>
      <trkpt lat="44.64975" lon="6.01838">
        <ele>1635.4</ele>
        <time>2023-05-15T12:22:57Z</time>
      </trkpt>
      <trkpt lat="44.64975" lon="6.01839">
        <ele>1635.6</ele>
        <time>2023-05-15T12:22:58Z</time>
      </trkpt>
      <trkpt lat="44.64974" lon="6.0184">
        <ele>1635.8</ele>
        <time>2023-05-15T12:22:59Z</time>
      </trkpt>
      <trkpt lat="44.64974" lon="6.0184">
        <ele>1636</ele>
        <time>2023-05-15T12:23:01Z</time>
      </trkpt>
      <trkpt lat="44.64973" lon="6.0184">
        <ele>1636.2</ele>
        <time>2023-05-15T12:23:02Z</time>
      </trkpt>
      <trkpt lat="44.64972" lon="6.0184">
        <ele>1636.2</ele>
        <time>2023-05-15T12:23:03Z</time>
      </trkpt>
      <trkpt lat="44.64972" lon="6.0184">
        <ele>1636.2</ele>
        <time>2023-05-15T12:23:04Z</time>
      </trkpt>
      <trkpt lat="44.64972" lon="6.0184">
        <ele>1636.4</ele>
        <time>2023-05-15T12:23:05Z</time>
      </trkpt>
      <trkpt lat="44.64971" lon="6.01841">
        <ele>1636.4</ele>
        <time>2023-05-15T12:23:07Z</time>
      </trkpt>
      <trkpt lat="44.64971" lon="6.01842">
        <ele>1636.8</ele>
        <time>2023-05-15T12:23:09Z</time>
      </trkpt>
      <trkpt lat="44.64969" lon="6.01843">
        <ele>1637.2</ele>
        <time>2023-05-15T12:23:11Z</time>
      </trkpt>
      <trkpt lat="44.64968" lon="6.01844">
        <ele>1637.4</ele>
        <time>2023-05-15T12:23:12Z</time>
      </trkpt>
      <trkpt lat="44.64968" lon="6.01845">
        <ele>1637.4</ele>
        <time>2023-05-15T12:23:13Z</time>
      </trkpt>
      <trkpt lat="44.64967" lon="6.01846">
        <ele>1637.6</ele>
        <time>2023-05-15T12:23:14Z</time>
      </trkpt>
      <trkpt lat="44.64966" lon="6.01847">
        <ele>1637.6</ele>
        <time>2023-05-15T12:23:15Z</time>
      </trkpt>
      <trkpt lat="44.64966" lon="6.01847">
        <ele>1637.6</ele>
        <time>2023-05-15T12:23:16Z</time>
      </trkpt>
      <trkpt lat="44.64966" lon="6.01847">
        <ele>1637.6</ele>
        <time>2023-05-15T12:23:17Z</time>
      </trkpt>
      <trkpt lat="44.64965" lon="6.01847">
        <ele>1637.8</ele>
        <time>2023-05-15T12:23:18Z</time>
      </trkpt>
      <trkpt lat="44.64964" lon="6.01848">
        <ele>1637.8</ele>
        <time>2023-05-15T12:23:19Z</time>
      </trkpt>
      <trkpt lat="44.64964" lon="6.01849">
        <ele>1637.8</ele>
        <time>2023-05-15T12:23:20Z</time>
      </trkpt>
      <trkpt lat="44.64963" lon="6.01849">
        <ele>1638</ele>
        <time>2023-05-15T12:23:21Z</time>
      </trkpt>
      <trkpt lat="44.64962" lon="6.01849">
        <ele>1638</ele>
        <time>2023-05-15T12:23:22Z</time>
      </trkpt>
      <trkpt lat="44.64961" lon="6.01849">
        <ele>1638</ele>
        <time>2023-05-15T12:23:23Z</time>
      </trkpt>
      <trkpt lat="44.64961" lon="6.01849">
        <ele>1638.2</ele>
        <time>2023-05-15T12:23:24Z</time>
      </trkpt>
      <trkpt lat="44.6496" lon="6.0185">
        <ele>1638.2</ele>
        <time>2023-05-15T12:23:25Z</time>
      </trkpt>
      <trkpt lat="44.64959" lon="6.01851">
        <ele>1638.2</ele>
        <time>2023-05-15T12:23:26Z</time>
      </trkpt>
      <trkpt lat="44.64958" lon="6.01853">
        <ele>1638.4</ele>
        <time>2023-05-15T12:23:27Z</time>
      </trkpt>
      <trkpt lat="44.64958" lon="6.01853">
        <ele>1638.4</ele>
        <time>2023-05-15T12:23:28Z</time>
      </trkpt>
      <trkpt lat="44.64958" lon="6.01853">
        <ele>1638.6</ele>
        <time>2023-05-15T12:23:29Z</time>
      </trkpt>
      <trkpt lat="44.64957" lon="6.01853">
        <ele>1639.4</ele>
        <time>2023-05-15T12:23:32Z</time>
      </trkpt>
      <trkpt lat="44.64957" lon="6.01853">
        <ele>1639.4</ele>
        <time>2023-05-15T12:23:33Z</time>
      </trkpt>
      <trkpt lat="44.64956" lon="6.01855">
        <ele>1639.8</ele>
        <time>2023-05-15T12:23:34Z</time>
      </trkpt>
      <trkpt lat="44.64956" lon="6.01858">
        <ele>1640</ele>
        <time>2023-05-15T12:23:35Z</time>
      </trkpt>
      <trkpt lat="44.64955" lon="6.01859">
        <ele>1640.4</ele>
        <time>2023-05-15T12:23:36Z</time>
      </trkpt>
      <trkpt lat="44.64955" lon="6.0186">
        <ele>1640.4</ele>
        <time>2023-05-15T12:23:37Z</time>
      </trkpt>
      <trkpt lat="44.64954" lon="6.0186">
        <ele>1640.6</ele>
        <time>2023-05-15T12:23:38Z</time>
      </trkpt>
      <trkpt lat="44.64953" lon="6.01861">
        <ele>1641</ele>
        <time>2023-05-15T12:23:39Z</time>
      </trkpt>
      <trkpt lat="44.64953" lon="6.01862">
        <ele>1641</ele>
        <time>2023-05-15T12:23:40Z</time>
      </trkpt>
      <trkpt lat="44.64952" lon="6.01863">
        <ele>1641.2</ele>
        <time>2023-05-15T12:23:41Z</time>
      </trkpt>
      <trkpt lat="44.64951" lon="6.01864">
        <ele>1641.4</ele>
        <time>2023-05-15T12:23:42Z</time>
      </trkpt>
      <trkpt lat="44.64951" lon="6.01866">
        <ele>1641.4</ele>
        <time>2023-05-15T12:23:43Z</time>
      </trkpt>
      <trkpt lat="44.6495" lon="6.01866">
        <ele>1641.4</ele>
        <time>2023-05-15T12:23:44Z</time>
      </trkpt>
      <trkpt lat="44.64949" lon="6.01866">
        <ele>1641.6</ele>
        <time>2023-05-15T12:23:45Z</time>
      </trkpt>
      <trkpt lat="44.64949" lon="6.01867">
        <ele>1641.6</ele>
        <time>2023-05-15T12:23:46Z</time>
      </trkpt>
      <trkpt lat="44.64949" lon="6.01867">
        <ele>1641.6</ele>
        <time>2023-05-15T12:23:47Z</time>
      </trkpt>
      <trkpt lat="44.64949" lon="6.01868">
        <ele>1641.8</ele>
        <time>2023-05-15T12:23:48Z</time>
      </trkpt>
      <trkpt lat="44.64949" lon="6.01868">
        <ele>1642</ele>
        <time>2023-05-15T12:23:49Z</time>
      </trkpt>
      <trkpt lat="44.64949" lon="6.01868">
        <ele>1642</ele>
        <time>2023-05-15T12:23:50Z</time>
      </trkpt>
      <trkpt lat="44.64949" lon="6.01869">
        <ele>1642.2</ele>
        <time>2023-05-15T12:23:51Z</time>
      </trkpt>
      <trkpt lat="44.64948" lon="6.01869">
        <ele>1642.4</ele>
        <time>2023-05-15T12:23:53Z</time>
      </trkpt>
      <trkpt lat="44.64948" lon="6.0187">
        <ele>1642.6</ele>
        <time>2023-05-15T12:23:54Z</time>
      </trkpt>
      <trkpt lat="44.64947" lon="6.01871">
        <ele>1642.6</ele>
        <time>2023-05-15T12:23:55Z</time>
      </trkpt>
      <trkpt lat="44.64946" lon="6.01872">
        <ele>1642.6</ele>
        <time>2023-05-15T12:23:56Z</time>
      </trkpt>
      <trkpt lat="44.64945" lon="6.01872">
        <ele>1642.8</ele>
        <time>2023-05-15T12:23:57Z</time>
      </trkpt>
      <trkpt lat="44.64944" lon="6.01873">
        <ele>1643</ele>
        <time>2023-05-15T12:23:58Z</time>
      </trkpt>
      <trkpt lat="44.64943" lon="6.01874">
        <ele>1643.2</ele>
        <time>2023-05-15T12:23:59Z</time>
      </trkpt>
      <trkpt lat="44.64943" lon="6.01874">
        <ele>1643.2</ele>
        <time>2023-05-15T12:24:00Z</time>
      </trkpt>
      <trkpt lat="44.64943" lon="6.01874">
        <ele>1643.4</ele>
        <time>2023-05-15T12:24:01Z</time>
      </trkpt>
      <trkpt lat="44.64942" lon="6.01875">
        <ele>1643.6</ele>
        <time>2023-05-15T12:24:02Z</time>
      </trkpt>
      <trkpt lat="44.64941" lon="6.01875">
        <ele>1643.6</ele>
        <time>2023-05-15T12:24:03Z</time>
      </trkpt>
      <trkpt lat="44.64941" lon="6.01875">
        <ele>1643.8</ele>
        <time>2023-05-15T12:24:04Z</time>
      </trkpt>
      <trkpt lat="44.6494" lon="6.01876">
        <ele>1643.8</ele>
        <time>2023-05-15T12:24:05Z</time>
      </trkpt>
      <trkpt lat="44.64939" lon="6.01877">
        <ele>1644.2</ele>
        <time>2023-05-15T12:24:06Z</time>
      </trkpt>
      <trkpt lat="44.64938" lon="6.01878">
        <ele>1644.2</ele>
        <time>2023-05-15T12:24:07Z</time>
      </trkpt>
      <trkpt lat="44.64937" lon="6.0188">
        <ele>1644.4</ele>
        <time>2023-05-15T12:24:08Z</time>
      </trkpt>
      <trkpt lat="44.64937" lon="6.0188">
        <ele>1644.4</ele>
        <time>2023-05-15T12:24:09Z</time>
      </trkpt>
      <trkpt lat="44.64937" lon="6.0188">
        <ele>1644.6</ele>
        <time>2023-05-15T12:24:10Z</time>
      </trkpt>
      <trkpt lat="44.64936" lon="6.0188">
        <ele>1644.6</ele>
        <time>2023-05-15T12:24:11Z</time>
      </trkpt>
      <trkpt lat="44.64936" lon="6.01881">
        <ele>1644.8</ele>
        <time>2023-05-15T12:24:12Z</time>
      </trkpt>
      <trkpt lat="44.64935" lon="6.01882">
        <ele>1645</ele>
        <time>2023-05-15T12:24:13Z</time>
      </trkpt>
      <trkpt lat="44.64935" lon="6.01884">
        <ele>1645</ele>
        <time>2023-05-15T12:24:14Z</time>
      </trkpt>
      <trkpt lat="44.64934" lon="6.01884">
        <ele>1645.4</ele>
        <time>2023-05-15T12:24:15Z</time>
      </trkpt>
      <trkpt lat="44.64934" lon="6.01884">
        <ele>1645.4</ele>
        <time>2023-05-15T12:24:16Z</time>
      </trkpt>
      <trkpt lat="44.64934" lon="6.01884">
        <ele>1645.6</ele>
        <time>2023-05-15T12:24:17Z</time>
      </trkpt>
      <trkpt lat="44.64934" lon="6.01884">
        <ele>1645.6</ele>
        <time>2023-05-15T12:24:18Z</time>
      </trkpt>
      <trkpt lat="44.64934" lon="6.01884">
        <ele>1645.8</ele>
        <time>2023-05-15T12:24:20Z</time>
      </trkpt>
      <trkpt lat="44.64932" lon="6.01886">
        <ele>1645.8</ele>
        <time>2023-05-15T12:24:21Z</time>
      </trkpt>
      <trkpt lat="44.64932" lon="6.01886">
        <ele>1646</ele>
        <time>2023-05-15T12:24:22Z</time>
      </trkpt>
      <trkpt lat="44.64932" lon="6.01887">
        <ele>1646</ele>
        <time>2023-05-15T12:24:23Z</time>
      </trkpt>
      <trkpt lat="44.64931" lon="6.01887">
        <ele>1646.2</ele>
        <time>2023-05-15T12:24:24Z</time>
      </trkpt>
      <trkpt lat="44.6493" lon="6.01889">
        <ele>1646.2</ele>
        <time>2023-05-15T12:24:25Z</time>
      </trkpt>
      <trkpt lat="44.64929" lon="6.0189">
        <ele>1646.4</ele>
        <time>2023-05-15T12:24:26Z</time>
      </trkpt>
      <trkpt lat="44.64928" lon="6.01892">
        <ele>1646.4</ele>
        <time>2023-05-15T12:24:27Z</time>
      </trkpt>
      <trkpt lat="44.64928" lon="6.01893">
        <ele>1646.6</ele>
        <time>2023-05-15T12:24:28Z</time>
      </trkpt>
      <trkpt lat="44.64927" lon="6.01894">
        <ele>1646.6</ele>
        <time>2023-05-15T12:24:29Z</time>
      </trkpt>
      <trkpt lat="44.64926" lon="6.01896">
        <ele>1646.8</ele>
        <time>2023-05-15T12:24:30Z</time>
      </trkpt>
      <trkpt lat="44.64926" lon="6.01897">
        <ele>1647</ele>
        <time>2023-05-15T12:24:31Z</time>
      </trkpt>
      <trkpt lat="44.64925" lon="6.01898">
        <ele>1647</ele>
        <time>2023-05-15T12:24:32Z</time>
      </trkpt>
      <trkpt lat="44.64925" lon="6.01898">
        <ele>1647.2</ele>
        <time>2023-05-15T12:24:33Z</time>
      </trkpt>
      <trkpt lat="44.64925" lon="6.01898">
        <ele>1647.4</ele>
        <time>2023-05-15T12:24:34Z</time>
      </trkpt>
      <trkpt lat="44.64924" lon="6.01899">
        <ele>1647.6</ele>
        <time>2023-05-15T12:24:35Z</time>
      </trkpt>
      <trkpt lat="44.64924" lon="6.01899">
        <ele>1647.6</ele>
        <time>2023-05-15T12:24:36Z</time>
      </trkpt>
      <trkpt lat="44.64924" lon="6.01899">
        <ele>1647.8</ele>
        <time>2023-05-15T12:24:37Z</time>
      </trkpt>
      <trkpt lat="44.64924" lon="6.019">
        <ele>1648</ele>
        <time>2023-05-15T12:24:38Z</time>
      </trkpt>
      <trkpt lat="44.64923" lon="6.019">
        <ele>1648.2</ele>
        <time>2023-05-15T12:24:39Z</time>
      </trkpt>
      <trkpt lat="44.64923" lon="6.019">
        <ele>1648.2</ele>
        <time>2023-05-15T12:24:40Z</time>
      </trkpt>
      <trkpt lat="44.64922" lon="6.01901">
        <ele>1648.2</ele>
        <time>2023-05-15T12:24:41Z</time>
      </trkpt>
      <trkpt lat="44.64922" lon="6.01902">
        <ele>1648.4</ele>
        <time>2023-05-15T12:24:42Z</time>
      </trkpt>
      <trkpt lat="44.64921" lon="6.01903">
        <ele>1648.4</ele>
        <time>2023-05-15T12:24:43Z</time>
      </trkpt>
      <trkpt lat="44.6492" lon="6.01904">
        <ele>1648.6</ele>
        <time>2023-05-15T12:24:44Z</time>
      </trkpt>
      <trkpt lat="44.64919" lon="6.01905">
        <ele>1648.8</ele>
        <time>2023-05-15T12:24:45Z</time>
      </trkpt>
      <trkpt lat="44.64919" lon="6.01905">
        <ele>1648.8</ele>
        <time>2023-05-15T12:24:46Z</time>
      </trkpt>
      <trkpt lat="44.64919" lon="6.01906">
        <ele>1648.8</ele>
        <time>2023-05-15T12:24:47Z</time>
      </trkpt>
      <trkpt lat="44.64919" lon="6.01907">
        <ele>1649</ele>
        <time>2023-05-15T12:24:48Z</time>
      </trkpt>
      <trkpt lat="44.64918" lon="6.01907">
        <ele>1649</ele>
        <time>2023-05-15T12:24:49Z</time>
      </trkpt>
      <trkpt lat="44.64917" lon="6.01908">
        <ele>1649</ele>
        <time>2023-05-15T12:24:50Z</time>
      </trkpt>
      <trkpt lat="44.64917" lon="6.01908">
        <ele>1649</ele>
        <time>2023-05-15T12:24:51Z</time>
      </trkpt>
      <trkpt lat="44.64917" lon="6.01909">
        <ele>1649</ele>
        <time>2023-05-15T12:24:52Z</time>
      </trkpt>
      <trkpt lat="44.64917" lon="6.01909">
        <ele>1649</ele>
        <time>2023-05-15T12:24:53Z</time>
      </trkpt>
      <trkpt lat="44.64916" lon="6.0191">
        <ele>1649.2</ele>
        <time>2023-05-15T12:24:54Z</time>
      </trkpt>
      <trkpt lat="44.64916" lon="6.0191">
        <ele>1649.2</ele>
        <time>2023-05-15T12:24:55Z</time>
      </trkpt>
      <trkpt lat="44.64916" lon="6.01911">
        <ele>1649.4</ele>
        <time>2023-05-15T12:24:56Z</time>
      </trkpt>
      <trkpt lat="44.64915" lon="6.01912">
        <ele>1649.4</ele>
        <time>2023-05-15T12:24:57Z</time>
      </trkpt>
      <trkpt lat="44.64914" lon="6.01913">
        <ele>1649.6</ele>
        <time>2023-05-15T12:24:58Z</time>
      </trkpt>
      <trkpt lat="44.64913" lon="6.01914">
        <ele>1649.8</ele>
        <time>2023-05-15T12:24:59Z</time>
      </trkpt>
      <trkpt lat="44.64913" lon="6.01914">
        <ele>1650</ele>
        <time>2023-05-15T12:25:00Z</time>
      </trkpt>
      <trkpt lat="44.64913" lon="6.01914">
        <ele>1650</ele>
        <time>2023-05-15T12:25:01Z</time>
      </trkpt>
      <trkpt lat="44.64913" lon="6.01915">
        <ele>1650.4</ele>
        <time>2023-05-15T12:25:02Z</time>
      </trkpt>
      <trkpt lat="44.64911" lon="6.01917">
        <ele>1650.4</ele>
        <time>2023-05-15T12:25:04Z</time>
      </trkpt>
      <trkpt lat="44.64911" lon="6.01918">
        <ele>1650.6</ele>
        <time>2023-05-15T12:25:05Z</time>
      </trkpt>
      <trkpt lat="44.64911" lon="6.01918">
        <ele>1650.6</ele>
        <time>2023-05-15T12:25:06Z</time>
      </trkpt>
      <trkpt lat="44.6491" lon="6.01918">
        <ele>1650.8</ele>
        <time>2023-05-15T12:25:07Z</time>
      </trkpt>
      <trkpt lat="44.64909" lon="6.01919">
        <ele>1650.8</ele>
        <time>2023-05-15T12:25:09Z</time>
      </trkpt>
      <trkpt lat="44.64908" lon="6.01921">
        <ele>1651</ele>
        <time>2023-05-15T12:25:10Z</time>
      </trkpt>
      <trkpt lat="44.64906" lon="6.01924">
        <ele>1651.2</ele>
        <time>2023-05-15T12:25:14Z</time>
      </trkpt>
      <trkpt lat="44.64906" lon="6.01925">
        <ele>1651.4</ele>
        <time>2023-05-15T12:25:15Z</time>
      </trkpt>
      <trkpt lat="44.64905" lon="6.01926">
        <ele>1651.6</ele>
        <time>2023-05-15T12:25:16Z</time>
      </trkpt>
      <trkpt lat="44.64905" lon="6.01928">
        <ele>1651.8</ele>
        <time>2023-05-15T12:25:17Z</time>
      </trkpt>
      <trkpt lat="44.64904" lon="6.0193">
        <ele>1652</ele>
        <time>2023-05-15T12:25:18Z</time>
      </trkpt>
      <trkpt lat="44.64903" lon="6.01932">
        <ele>1652</ele>
        <time>2023-05-15T12:25:19Z</time>
      </trkpt>
      <trkpt lat="44.64902" lon="6.01933">
        <ele>1652</ele>
        <time>2023-05-15T12:25:21Z</time>
      </trkpt>
      <trkpt lat="44.64899" lon="6.01939">
        <ele>1652</ele>
        <time>2023-05-15T12:25:26Z</time>
      </trkpt>
      <trkpt lat="44.64899" lon="6.01939">
        <ele>1652.2</ele>
        <time>2023-05-15T12:25:27Z</time>
      </trkpt>
      <trkpt lat="44.64899" lon="6.0194">
        <ele>1652.2</ele>
        <time>2023-05-15T12:25:28Z</time>
      </trkpt>
      <trkpt lat="44.64899" lon="6.01941">
        <ele>1652.2</ele>
        <time>2023-05-15T12:25:29Z</time>
      </trkpt>
      <trkpt lat="44.64898" lon="6.01942">
        <ele>1652.2</ele>
        <time>2023-05-15T12:25:30Z</time>
      </trkpt>
      <trkpt lat="44.64897" lon="6.01944">
        <ele>1652.2</ele>
        <time>2023-05-15T12:25:31Z</time>
      </trkpt>
      <trkpt lat="44.64897" lon="6.01944">
        <ele>1652.4</ele>
        <time>2023-05-15T12:25:32Z</time>
      </trkpt>
      <trkpt lat="44.64896" lon="6.01944">
        <ele>1652.4</ele>
        <time>2023-05-15T12:25:33Z</time>
      </trkpt>
      <trkpt lat="44.64896" lon="6.01945">
        <ele>1652.4</ele>
        <time>2023-05-15T12:25:34Z</time>
      </trkpt>
      <trkpt lat="44.64895" lon="6.01948">
        <ele>1652.6</ele>
        <time>2023-05-15T12:25:38Z</time>
      </trkpt>
      <trkpt lat="44.64894" lon="6.0195">
        <ele>1652.8</ele>
        <time>2023-05-15T12:25:41Z</time>
      </trkpt>
      <trkpt lat="44.64893" lon="6.01951">
        <ele>1653</ele>
        <time>2023-05-15T12:25:42Z</time>
      </trkpt>
      <trkpt lat="44.64891" lon="6.01954">
        <ele>1653.2</ele>
        <time>2023-05-15T12:25:46Z</time>
      </trkpt>
      <trkpt lat="44.64891" lon="6.01954">
        <ele>1653.4</ele>
        <time>2023-05-15T12:25:47Z</time>
      </trkpt>
      <trkpt lat="44.64889" lon="6.01958">
        <ele>1653.6</ele>
        <time>2023-05-15T12:25:52Z</time>
      </trkpt>
      <trkpt lat="44.64889" lon="6.0196">
        <ele>1653.8</ele>
        <time>2023-05-15T12:25:54Z</time>
      </trkpt>
      <trkpt lat="44.64888" lon="6.01963">
        <ele>1654.2</ele>
        <time>2023-05-15T12:25:56Z</time>
      </trkpt>
      <trkpt lat="44.64887" lon="6.01965">
        <ele>1654.4</ele>
        <time>2023-05-15T12:25:58Z</time>
      </trkpt>
      <trkpt lat="44.64887" lon="6.01966">
        <ele>1654.6</ele>
        <time>2023-05-15T12:25:59Z</time>
      </trkpt>
      <trkpt lat="44.64887" lon="6.01967">
        <ele>1654.8</ele>
        <time>2023-05-15T12:26:00Z</time>
      </trkpt>
      <trkpt lat="44.64887" lon="6.01968">
        <ele>1655</ele>
        <time>2023-05-15T12:26:01Z</time>
      </trkpt>
      <trkpt lat="44.64886" lon="6.01969">
        <ele>1655</ele>
        <time>2023-05-15T12:26:02Z</time>
      </trkpt>
      <trkpt lat="44.64886" lon="6.0197">
        <ele>1655.4</ele>
        <time>2023-05-15T12:26:03Z</time>
      </trkpt>
      <trkpt lat="44.64886" lon="6.0197">
        <ele>1655.4</ele>
        <time>2023-05-15T12:26:04Z</time>
      </trkpt>
      <trkpt lat="44.64886" lon="6.0197">
        <ele>1655.6</ele>
        <time>2023-05-15T12:26:05Z</time>
      </trkpt>
      <trkpt lat="44.64886" lon="6.01972">
        <ele>1655.6</ele>
        <time>2023-05-15T12:26:06Z</time>
      </trkpt>
      <trkpt lat="44.64886" lon="6.01973">
        <ele>1655.8</ele>
        <time>2023-05-15T12:26:07Z</time>
      </trkpt>
      <trkpt lat="44.64885" lon="6.01974">
        <ele>1655.8</ele>
        <time>2023-05-15T12:26:08Z</time>
      </trkpt>
      <trkpt lat="44.64885" lon="6.01975">
        <ele>1656</ele>
        <time>2023-05-15T12:26:09Z</time>
      </trkpt>
      <trkpt lat="44.64884" lon="6.01976">
        <ele>1656</ele>
        <time>2023-05-15T12:26:10Z</time>
      </trkpt>
      <trkpt lat="44.64884" lon="6.01977">
        <ele>1656</ele>
        <time>2023-05-15T12:26:11Z</time>
      </trkpt>
      <trkpt lat="44.64883" lon="6.01978">
        <ele>1656</ele>
        <time>2023-05-15T12:26:12Z</time>
      </trkpt>
      <trkpt lat="44.64883" lon="6.0198">
        <ele>1656</ele>
        <time>2023-05-15T12:26:13Z</time>
      </trkpt>
      <trkpt lat="44.64882" lon="6.01981">
        <ele>1656</ele>
        <time>2023-05-15T12:26:14Z</time>
      </trkpt>
      <trkpt lat="44.64882" lon="6.01981">
        <ele>1656</ele>
        <time>2023-05-15T12:26:15Z</time>
      </trkpt>
      <trkpt lat="44.64882" lon="6.01982">
        <ele>1656</ele>
        <time>2023-05-15T12:26:16Z</time>
      </trkpt>
      <trkpt lat="44.64882" lon="6.01982">
        <ele>1656.2</ele>
        <time>2023-05-15T12:26:17Z</time>
      </trkpt>
      <trkpt lat="44.64882" lon="6.01983">
        <ele>1656.2</ele>
        <time>2023-05-15T12:26:18Z</time>
      </trkpt>
      <trkpt lat="44.64882" lon="6.01983">
        <ele>1656.2</ele>
        <time>2023-05-15T12:26:19Z</time>
      </trkpt>
      <trkpt lat="44.64882" lon="6.01983">
        <ele>1656.2</ele>
        <time>2023-05-15T12:26:20Z</time>
      </trkpt>
      <trkpt lat="44.64881" lon="6.01984">
        <ele>1656.6</ele>
        <time>2023-05-15T12:26:23Z</time>
      </trkpt>
      <trkpt lat="44.6488" lon="6.01986">
        <ele>1656.8</ele>
        <time>2023-05-15T12:26:24Z</time>
      </trkpt>
      <trkpt lat="44.6488" lon="6.01986">
        <ele>1656.8</ele>
        <time>2023-05-15T12:26:25Z</time>
      </trkpt>
      <trkpt lat="44.64879" lon="6.01987">
        <ele>1657</ele>
        <time>2023-05-15T12:26:26Z</time>
      </trkpt>
      <trkpt lat="44.64879" lon="6.0199">
        <ele>1657.2</ele>
        <time>2023-05-15T12:26:28Z</time>
      </trkpt>
      <trkpt lat="44.64879" lon="6.01992">
        <ele>1657.2</ele>
        <time>2023-05-15T12:26:29Z</time>
      </trkpt>
      <trkpt lat="44.64879" lon="6.01993">
        <ele>1657.4</ele>
        <time>2023-05-15T12:26:30Z</time>
      </trkpt>
      <trkpt lat="44.64879" lon="6.01993">
        <ele>1657.4</ele>
        <time>2023-05-15T12:26:31Z</time>
      </trkpt>
      <trkpt lat="44.64878" lon="6.01994">
        <ele>1657.6</ele>
        <time>2023-05-15T12:26:32Z</time>
      </trkpt>
      <trkpt lat="44.64878" lon="6.01995">
        <ele>1657.8</ele>
        <time>2023-05-15T12:26:33Z</time>
      </trkpt>
      <trkpt lat="44.64877" lon="6.01998">
        <ele>1658</ele>
        <time>2023-05-15T12:26:35Z</time>
      </trkpt>
      <trkpt lat="44.64877" lon="6.01999">
        <ele>1658</ele>
        <time>2023-05-15T12:26:36Z</time>
      </trkpt>
      <trkpt lat="44.64875" lon="6.02002">
        <ele>1658.2</ele>
        <time>2023-05-15T12:26:39Z</time>
      </trkpt>
      <trkpt lat="44.64874" lon="6.02002">
        <ele>1658.4</ele>
        <time>2023-05-15T12:26:40Z</time>
      </trkpt>
      <trkpt lat="44.64873" lon="6.02005">
        <ele>1658.6</ele>
        <time>2023-05-15T12:26:45Z</time>
      </trkpt>
      <trkpt lat="44.64871" lon="6.02007">
        <ele>1659</ele>
        <time>2023-05-15T12:26:52Z</time>
      </trkpt>
      <trkpt lat="44.64871" lon="6.02008">
        <ele>1659.2</ele>
        <time>2023-05-15T12:26:53Z</time>
      </trkpt>
      <trkpt lat="44.64871" lon="6.02009">
        <ele>1659.2</ele>
        <time>2023-05-15T12:26:54Z</time>
      </trkpt>
      <trkpt lat="44.64871" lon="6.02011">
        <ele>1659.2</ele>
        <time>2023-05-15T12:26:55Z</time>
      </trkpt>
      <trkpt lat="44.64871" lon="6.02012">
        <ele>1659.2</ele>
        <time>2023-05-15T12:26:56Z</time>
      </trkpt>
      <trkpt lat="44.64871" lon="6.02013">
        <ele>1659.2</ele>
        <time>2023-05-15T12:26:57Z</time>
      </trkpt>
      <trkpt lat="44.6487" lon="6.02017">
        <ele>1659.8</ele>
        <time>2023-05-15T12:27:00Z</time>
      </trkpt>
      <trkpt lat="44.64869" lon="6.02018">
        <ele>1660.2</ele>
        <time>2023-05-15T12:27:02Z</time>
      </trkpt>
      <trkpt lat="44.64869" lon="6.02019">
        <ele>1660.8</ele>
        <time>2023-05-15T12:27:09Z</time>
      </trkpt>
      <trkpt lat="44.64869" lon="6.02019">
        <ele>1661</ele>
        <time>2023-05-15T12:27:14Z</time>
      </trkpt>
      <trkpt lat="44.64871" lon="6.0202">
        <ele>1661.2</ele>
        <time>2023-05-15T12:27:41Z</time>
      </trkpt>
      <trkpt lat="44.64872" lon="6.02018">
        <ele>1661.2</ele>
        <time>2023-05-15T12:27:43Z</time>
      </trkpt>
      <trkpt lat="44.64872" lon="6.02017">
        <ele>1661.2</ele>
        <time>2023-05-15T12:27:44Z</time>
      </trkpt>
      <trkpt lat="44.64874" lon="6.02014">
        <ele>1661.4</ele>
        <time>2023-05-15T12:27:48Z</time>
      </trkpt>
      <trkpt lat="44.64874" lon="6.02014">
        <ele>1661.4</ele>
        <time>2023-05-15T12:27:49Z</time>
      </trkpt>
      <trkpt lat="44.64875" lon="6.02013">
        <ele>1661.6</ele>
        <time>2023-05-15T12:27:50Z</time>
      </trkpt>
      <trkpt lat="44.64878" lon="6.0201">
        <ele>1661.8</ele>
        <time>2023-05-15T12:27:55Z</time>
      </trkpt>
      <trkpt lat="44.64878" lon="6.02009">
        <ele>1661.8</ele>
        <time>2023-05-15T12:27:56Z</time>
      </trkpt>
      <trkpt lat="44.64879" lon="6.02008">
        <ele>1661.8</ele>
        <time>2023-05-15T12:27:57Z</time>
      </trkpt>
      <trkpt lat="44.64879" lon="6.02008">
        <ele>1661.8</ele>
        <time>2023-05-15T12:27:58Z</time>
      </trkpt>
      <trkpt lat="44.6488" lon="6.02007">
        <ele>1661.8</ele>
        <time>2023-05-15T12:27:59Z</time>
      </trkpt>
      <trkpt lat="44.6488" lon="6.02006">
        <ele>1661.8</ele>
        <time>2023-05-15T12:28:00Z</time>
      </trkpt>
      <trkpt lat="44.64882" lon="6.02003">
        <ele>1661.8</ele>
        <time>2023-05-15T12:28:04Z</time>
      </trkpt>
      <trkpt lat="44.64882" lon="6.02003">
        <ele>1662.2</ele>
        <time>2023-05-15T12:28:05Z</time>
      </trkpt>
      <trkpt lat="44.64883" lon="6.02002">
        <ele>1662.2</ele>
        <time>2023-05-15T12:28:06Z</time>
      </trkpt>
      <trkpt lat="44.64883" lon="6.02002">
        <ele>1662.2</ele>
        <time>2023-05-15T12:28:07Z</time>
      </trkpt>
      <trkpt lat="44.64884" lon="6.02002">
        <ele>1662.4</ele>
        <time>2023-05-15T12:28:08Z</time>
      </trkpt>
      <trkpt lat="44.64885" lon="6.02">
        <ele>1662.6</ele>
        <time>2023-05-15T12:28:14Z</time>
      </trkpt>
      <trkpt lat="44.64885" lon="6.02">
        <ele>1662.6</ele>
        <time>2023-05-15T12:28:17Z</time>
      </trkpt>
      <trkpt lat="44.64885" lon="6.02">
        <ele>1662.6</ele>
        <time>2023-05-15T12:28:19Z</time>
      </trkpt>
      <trkpt lat="44.64888" lon="6.01996">
        <ele>1662.8</ele>
        <time>2023-05-15T12:28:27Z</time>
      </trkpt>
      <trkpt lat="44.64889" lon="6.01995">
        <ele>1662.8</ele>
        <time>2023-05-15T12:28:28Z</time>
      </trkpt>
      <trkpt lat="44.64891" lon="6.01992">
        <ele>1663</ele>
        <time>2023-05-15T12:28:30Z</time>
      </trkpt>
      <trkpt lat="44.64894" lon="6.01988">
        <ele>1663.2</ele>
        <time>2023-05-15T12:28:33Z</time>
      </trkpt>
      <trkpt lat="44.64897" lon="6.01985">
        <ele>1663.4</ele>
        <time>2023-05-15T12:28:36Z</time>
      </trkpt>
      <trkpt lat="44.64898" lon="6.01984">
        <ele>1663.8</ele>
        <time>2023-05-15T12:28:37Z</time>
      </trkpt>
      <trkpt lat="44.649" lon="6.01981">
        <ele>1664.2</ele>
        <time>2023-05-15T12:28:40Z</time>
      </trkpt>
      <trkpt lat="44.64901" lon="6.01979">
        <ele>1664.4</ele>
        <time>2023-05-15T12:28:41Z</time>
      </trkpt>
      <trkpt lat="44.64902" lon="6.01978">
        <ele>1664.6</ele>
        <time>2023-05-15T12:28:42Z</time>
      </trkpt>
      <trkpt lat="44.64904" lon="6.01975">
        <ele>1664.8</ele>
        <time>2023-05-15T12:28:44Z</time>
      </trkpt>
      <trkpt lat="44.64907" lon="6.01973">
        <ele>1665</ele>
        <time>2023-05-15T12:28:46Z</time>
      </trkpt>
      <trkpt lat="44.6491" lon="6.0197">
        <ele>1665.2</ele>
        <time>2023-05-15T12:28:49Z</time>
      </trkpt>
      <trkpt lat="44.64911" lon="6.01969">
        <ele>1665.4</ele>
        <time>2023-05-15T12:28:50Z</time>
      </trkpt>
      <trkpt lat="44.64915" lon="6.01965">
        <ele>1665.8</ele>
        <time>2023-05-15T12:28:55Z</time>
      </trkpt>
      <trkpt lat="44.64916" lon="6.01964">
        <ele>1665.8</ele>
        <time>2023-05-15T12:28:56Z</time>
      </trkpt>
      <trkpt lat="44.64917" lon="6.01963">
        <ele>1666.2</ele>
        <time>2023-05-15T12:28:57Z</time>
      </trkpt>
      <trkpt lat="44.64917" lon="6.01963">
        <ele>1666.4</ele>
        <time>2023-05-15T12:28:58Z</time>
      </trkpt>
      <trkpt lat="44.64918" lon="6.01962">
        <ele>1666.6</ele>
        <time>2023-05-15T12:28:59Z</time>
      </trkpt>
      <trkpt lat="44.64919" lon="6.01961">
        <ele>1667</ele>
        <time>2023-05-15T12:29:00Z</time>
      </trkpt>
      <trkpt lat="44.6492" lon="6.0196">
        <ele>1667</ele>
        <time>2023-05-15T12:29:01Z</time>
      </trkpt>
      <trkpt lat="44.64921" lon="6.0196">
        <ele>1667.2</ele>
        <time>2023-05-15T12:29:02Z</time>
      </trkpt>
      <trkpt lat="44.64922" lon="6.01959">
        <ele>1667.4</ele>
        <time>2023-05-15T12:29:03Z</time>
      </trkpt>
      <trkpt lat="44.64922" lon="6.01959">
        <ele>1667.6</ele>
        <time>2023-05-15T12:29:04Z</time>
      </trkpt>
      <trkpt lat="44.64923" lon="6.01959">
        <ele>1667.6</ele>
        <time>2023-05-15T12:29:05Z</time>
      </trkpt>
      <trkpt lat="44.64924" lon="6.01958">
        <ele>1667.8</ele>
        <time>2023-05-15T12:29:06Z</time>
      </trkpt>
      <trkpt lat="44.64925" lon="6.01958">
        <ele>1668.2</ele>
        <time>2023-05-15T12:29:07Z</time>
      </trkpt>
      <trkpt lat="44.64926" lon="6.01957">
        <ele>1668.2</ele>
        <time>2023-05-15T12:29:08Z</time>
      </trkpt>
      <trkpt lat="44.64926" lon="6.01956">
        <ele>1668.6</ele>
        <time>2023-05-15T12:29:09Z</time>
      </trkpt>
      <trkpt lat="44.64927" lon="6.01956">
        <ele>1668.6</ele>
        <time>2023-05-15T12:29:10Z</time>
      </trkpt>
      <trkpt lat="44.64928" lon="6.01955">
        <ele>1668.8</ele>
        <time>2023-05-15T12:29:11Z</time>
      </trkpt>
      <trkpt lat="44.64929" lon="6.01954">
        <ele>1669</ele>
        <time>2023-05-15T12:29:12Z</time>
      </trkpt>
      <trkpt lat="44.6493" lon="6.01954">
        <ele>1669</ele>
        <time>2023-05-15T12:29:13Z</time>
      </trkpt>
      <trkpt lat="44.64931" lon="6.01953">
        <ele>1669.2</ele>
        <time>2023-05-15T12:29:14Z</time>
      </trkpt>
      <trkpt lat="44.64931" lon="6.01953">
        <ele>1669.2</ele>
        <time>2023-05-15T12:29:15Z</time>
      </trkpt>
      <trkpt lat="44.64931" lon="6.01952">
        <ele>1669.6</ele>
        <time>2023-05-15T12:29:16Z</time>
      </trkpt>
      <trkpt lat="44.64932" lon="6.01952">
        <ele>1670</ele>
        <time>2023-05-15T12:29:17Z</time>
      </trkpt>
      <trkpt lat="44.64933" lon="6.01951">
        <ele>1670.2</ele>
        <time>2023-05-15T12:29:18Z</time>
      </trkpt>
      <trkpt lat="44.64934" lon="6.01951">
        <ele>1670.4</ele>
        <time>2023-05-15T12:29:19Z</time>
      </trkpt>
      <trkpt lat="44.64935" lon="6.0195">
        <ele>1670.4</ele>
        <time>2023-05-15T12:29:20Z</time>
      </trkpt>
      <trkpt lat="44.64935" lon="6.0195">
        <ele>1670.6</ele>
        <time>2023-05-15T12:29:21Z</time>
      </trkpt>
      <trkpt lat="44.64936" lon="6.01949">
        <ele>1670.6</ele>
        <time>2023-05-15T12:29:22Z</time>
      </trkpt>
      <trkpt lat="44.64937" lon="6.01949">
        <ele>1670.6</ele>
        <time>2023-05-15T12:29:23Z</time>
      </trkpt>
      <trkpt lat="44.64937" lon="6.01949">
        <ele>1670.8</ele>
        <time>2023-05-15T12:29:24Z</time>
      </trkpt>
      <trkpt lat="44.64937" lon="6.01948">
        <ele>1670.8</ele>
        <time>2023-05-15T12:29:25Z</time>
      </trkpt>
      <trkpt lat="44.64938" lon="6.01947">
        <ele>1670.8</ele>
        <time>2023-05-15T12:29:26Z</time>
      </trkpt>
      <trkpt lat="44.64939" lon="6.01947">
        <ele>1671</ele>
        <time>2023-05-15T12:29:27Z</time>
      </trkpt>
      <trkpt lat="44.6494" lon="6.01946">
        <ele>1671</ele>
        <time>2023-05-15T12:29:28Z</time>
      </trkpt>
      <trkpt lat="44.6494" lon="6.01946">
        <ele>1671.2</ele>
        <time>2023-05-15T12:29:29Z</time>
      </trkpt>
      <trkpt lat="44.6494" lon="6.01946">
        <ele>1671.8</ele>
        <time>2023-05-15T12:29:34Z</time>
      </trkpt>
      <trkpt lat="44.6494" lon="6.01946">
        <ele>1671.8</ele>
        <time>2023-05-15T12:29:36Z</time>
      </trkpt>
      <trkpt lat="44.6494" lon="6.01946">
        <ele>1672</ele>
        <time>2023-05-15T12:29:39Z</time>
      </trkpt>
      <trkpt lat="44.6494" lon="6.01946">
        <ele>1672.2</ele>
        <time>2023-05-15T12:29:43Z</time>
      </trkpt>
      <trkpt lat="44.6494" lon="6.01946">
        <ele>1672.2</ele>
        <time>2023-05-15T12:29:44Z</time>
      </trkpt>
      <trkpt lat="44.6494" lon="6.01946">
        <ele>1672.6</ele>
        <time>2023-05-15T12:29:45Z</time>
      </trkpt>
      <trkpt lat="44.64942" lon="6.01946">
        <ele>1673.2</ele>
        <time>2023-05-15T12:29:51Z</time>
      </trkpt>
      <trkpt lat="44.64943" lon="6.01946">
        <ele>1673.2</ele>
        <time>2023-05-15T12:29:52Z</time>
      </trkpt>
      <trkpt lat="44.64943" lon="6.01946">
        <ele>1673.4</ele>
        <time>2023-05-15T12:29:53Z</time>
      </trkpt>
      <trkpt lat="44.64943" lon="6.01946">
        <ele>1673.4</ele>
        <time>2023-05-15T12:29:54Z</time>
      </trkpt>
      <trkpt lat="44.64944" lon="6.01946">
        <ele>1673.6</ele>
        <time>2023-05-15T12:29:55Z</time>
      </trkpt>
      <trkpt lat="44.64947" lon="6.01944">
        <ele>1674.2</ele>
        <time>2023-05-15T12:30:01Z</time>
      </trkpt>
      <trkpt lat="44.64948" lon="6.01944">
        <ele>1674.4</ele>
        <time>2023-05-15T12:30:02Z</time>
      </trkpt>
      <trkpt lat="44.64949" lon="6.01943">
        <ele>1674.6</ele>
        <time>2023-05-15T12:30:03Z</time>
      </trkpt>
      <trkpt lat="44.6495" lon="6.01943">
        <ele>1674.8</ele>
        <time>2023-05-15T12:30:04Z</time>
      </trkpt>
      <trkpt lat="44.64952" lon="6.01943">
        <ele>1675</ele>
        <time>2023-05-15T12:30:07Z</time>
      </trkpt>
      <trkpt lat="44.64953" lon="6.01942">
        <ele>1675.2</ele>
        <time>2023-05-15T12:30:09Z</time>
      </trkpt>
      <trkpt lat="44.64953" lon="6.01942">
        <ele>1675.4</ele>
        <time>2023-05-15T12:30:10Z</time>
      </trkpt>
      <trkpt lat="44.64953" lon="6.01942">
        <ele>1675.4</ele>
        <time>2023-05-15T12:30:11Z</time>
      </trkpt>
      <trkpt lat="44.64954" lon="6.01941">
        <ele>1675.6</ele>
        <time>2023-05-15T12:30:14Z</time>
      </trkpt>
      <trkpt lat="44.64955" lon="6.0194">
        <ele>1675.8</ele>
        <time>2023-05-15T12:30:16Z</time>
      </trkpt>
      <trkpt lat="44.64956" lon="6.0194">
        <ele>1676</ele>
        <time>2023-05-15T12:30:17Z</time>
      </trkpt>
      <trkpt lat="44.64957" lon="6.01939">
        <ele>1676.2</ele>
        <time>2023-05-15T12:30:19Z</time>
      </trkpt>
      <trkpt lat="44.64961" lon="6.01937">
        <ele>1676.6</ele>
        <time>2023-05-15T12:30:24Z</time>
      </trkpt>
      <trkpt lat="44.64963" lon="6.01936">
        <ele>1677</ele>
        <time>2023-05-15T12:30:27Z</time>
      </trkpt>
      <trkpt lat="44.64964" lon="6.01936">
        <ele>1677.4</ele>
        <time>2023-05-15T12:30:28Z</time>
      </trkpt>
      <trkpt lat="44.64964" lon="6.01935">
        <ele>1677.4</ele>
        <time>2023-05-15T12:30:29Z</time>
      </trkpt>
      <trkpt lat="44.64965" lon="6.01935">
        <ele>1677.6</ele>
        <time>2023-05-15T12:30:30Z</time>
      </trkpt>
      <trkpt lat="44.64965" lon="6.01935">
        <ele>1677.6</ele>
        <time>2023-05-15T12:30:31Z</time>
      </trkpt>
      <trkpt lat="44.64966" lon="6.01935">
        <ele>1677.6</ele>
        <time>2023-05-15T12:30:32Z</time>
      </trkpt>
      <trkpt lat="44.64966" lon="6.01935">
        <ele>1677.8</ele>
        <time>2023-05-15T12:30:33Z</time>
      </trkpt>
      <trkpt lat="44.64967" lon="6.01934">
        <ele>1677.8</ele>
        <time>2023-05-15T12:30:34Z</time>
      </trkpt>
      <trkpt lat="44.64968" lon="6.01934">
        <ele>1678</ele>
        <time>2023-05-15T12:30:35Z</time>
      </trkpt>
      <trkpt lat="44.64968" lon="6.01934">
        <ele>1678.2</ele>
        <time>2023-05-15T12:30:36Z</time>
      </trkpt>
      <trkpt lat="44.64969" lon="6.01934">
        <ele>1678.2</ele>
        <time>2023-05-15T12:30:37Z</time>
      </trkpt>
      <trkpt lat="44.64969" lon="6.01934">
        <ele>1678.2</ele>
        <time>2023-05-15T12:30:38Z</time>
      </trkpt>
      <trkpt lat="44.6497" lon="6.01933">
        <ele>1678.4</ele>
        <time>2023-05-15T12:30:39Z</time>
      </trkpt>
      <trkpt lat="44.6497" lon="6.01933">
        <ele>1678.4</ele>
        <time>2023-05-15T12:30:40Z</time>
      </trkpt>
      <trkpt lat="44.64971" lon="6.01932">
        <ele>1678.6</ele>
        <time>2023-05-15T12:30:41Z</time>
      </trkpt>
      <trkpt lat="44.64971" lon="6.01932">
        <ele>1678.6</ele>
        <time>2023-05-15T12:30:42Z</time>
      </trkpt>
      <trkpt lat="44.64972" lon="6.01932">
        <ele>1679.2</ele>
        <time>2023-05-15T12:30:46Z</time>
      </trkpt>
      <trkpt lat="44.64975" lon="6.01931">
        <ele>1679.8</ele>
        <time>2023-05-15T12:30:54Z</time>
      </trkpt>
      <trkpt lat="44.64976" lon="6.01931">
        <ele>1680.2</ele>
        <time>2023-05-15T12:30:59Z</time>
      </trkpt>
      <trkpt lat="44.64979" lon="6.0193">
        <ele>1680.6</ele>
        <time>2023-05-15T12:31:03Z</time>
      </trkpt>
      <trkpt lat="44.6498" lon="6.0193">
        <ele>1680.6</ele>
        <time>2023-05-15T12:31:04Z</time>
      </trkpt>
      <trkpt lat="44.64981" lon="6.0193">
        <ele>1680.6</ele>
        <time>2023-05-15T12:31:05Z</time>
      </trkpt>
      <trkpt lat="44.64986" lon="6.01928">
        <ele>1681.4</ele>
        <time>2023-05-15T12:31:10Z</time>
      </trkpt>
      <trkpt lat="44.64988" lon="6.01927">
        <ele>1681.8</ele>
        <time>2023-05-15T12:31:13Z</time>
      </trkpt>
      <trkpt lat="44.64988" lon="6.01927">
        <ele>1681.8</ele>
        <time>2023-05-15T12:31:14Z</time>
      </trkpt>
      <trkpt lat="44.64989" lon="6.01927">
        <ele>1682</ele>
        <time>2023-05-15T12:31:15Z</time>
      </trkpt>
      <trkpt lat="44.64989" lon="6.01927">
        <ele>1682</ele>
        <time>2023-05-15T12:31:16Z</time>
      </trkpt>
      <trkpt lat="44.64989" lon="6.01927">
        <ele>1682.2</ele>
        <time>2023-05-15T12:31:17Z</time>
      </trkpt>
      <trkpt lat="44.6499" lon="6.01927">
        <ele>1682.2</ele>
        <time>2023-05-15T12:31:19Z</time>
      </trkpt>
      <trkpt lat="44.6499" lon="6.01927">
        <ele>1682.4</ele>
        <time>2023-05-15T12:31:20Z</time>
      </trkpt>
      <trkpt lat="44.6499" lon="6.01927">
        <ele>1682.4</ele>
        <time>2023-05-15T12:31:21Z</time>
      </trkpt>
      <trkpt lat="44.6499" lon="6.01927">
        <ele>1682.6</ele>
        <time>2023-05-15T12:31:22Z</time>
      </trkpt>
      <trkpt lat="44.6499" lon="6.01927">
        <ele>1682.8</ele>
        <time>2023-05-15T12:31:23Z</time>
      </trkpt>
      <trkpt lat="44.64991" lon="6.01926">
        <ele>1682.8</ele>
        <time>2023-05-15T12:31:24Z</time>
      </trkpt>
      <trkpt lat="44.64992" lon="6.01926">
        <ele>1683.6</ele>
        <time>2023-05-15T12:31:32Z</time>
      </trkpt>
      <trkpt lat="44.64993" lon="6.01925">
        <ele>1683.8</ele>
        <time>2023-05-15T12:31:33Z</time>
      </trkpt>
      <trkpt lat="44.64999" lon="6.01924">
        <ele>1684.2</ele>
        <time>2023-05-15T12:31:41Z</time>
      </trkpt>
      <trkpt lat="44.65001" lon="6.01923">
        <ele>1684.4</ele>
        <time>2023-05-15T12:31:43Z</time>
      </trkpt>
      <trkpt lat="44.65001" lon="6.01923">
        <ele>1684.6</ele>
        <time>2023-05-15T12:31:44Z</time>
      </trkpt>
      <trkpt lat="44.65002" lon="6.01923">
        <ele>1684.6</ele>
        <time>2023-05-15T12:31:45Z</time>
      </trkpt>
      <trkpt lat="44.65002" lon="6.01922">
        <ele>1684.8</ele>
        <time>2023-05-15T12:31:46Z</time>
      </trkpt>
      <trkpt lat="44.65003" lon="6.01922">
        <ele>1684.8</ele>
        <time>2023-05-15T12:31:47Z</time>
      </trkpt>
      <trkpt lat="44.65004" lon="6.01922">
        <ele>1685</ele>
        <time>2023-05-15T12:31:48Z</time>
      </trkpt>
      <trkpt lat="44.65006" lon="6.01921">
        <ele>1685.2</ele>
        <time>2023-05-15T12:31:51Z</time>
      </trkpt>
      <trkpt lat="44.6501" lon="6.01921">
        <ele>1685.8</ele>
        <time>2023-05-15T12:31:56Z</time>
      </trkpt>
      <trkpt lat="44.65011" lon="6.01921">
        <ele>1685.8</ele>
        <time>2023-05-15T12:31:57Z</time>
      </trkpt>
      <trkpt lat="44.65011" lon="6.01921">
        <ele>1686</ele>
        <time>2023-05-15T12:31:58Z</time>
      </trkpt>
      <trkpt lat="44.65013" lon="6.0192">
        <ele>1686.2</ele>
        <time>2023-05-15T12:32:01Z</time>
      </trkpt>
      <trkpt lat="44.65013" lon="6.0192">
        <ele>1686.4</ele>
        <time>2023-05-15T12:32:02Z</time>
      </trkpt>
      <trkpt lat="44.65014" lon="6.0192">
        <ele>1686.4</ele>
        <time>2023-05-15T12:32:04Z</time>
      </trkpt>
      <trkpt lat="44.65016" lon="6.01919">
        <ele>1686.8</ele>
        <time>2023-05-15T12:32:13Z</time>
      </trkpt>
      <trkpt lat="44.65021" lon="6.01918">
        <ele>1687.2</ele>
        <time>2023-05-15T12:32:20Z</time>
      </trkpt>
      <trkpt lat="44.65021" lon="6.01918">
        <ele>1687.4</ele>
        <time>2023-05-15T12:32:21Z</time>
      </trkpt>
      <trkpt lat="44.65022" lon="6.01918">
        <ele>1687.6</ele>
        <time>2023-05-15T12:32:22Z</time>
      </trkpt>
      <trkpt lat="44.65023" lon="6.01918">
        <ele>1687.6</ele>
        <time>2023-05-15T12:32:23Z</time>
      </trkpt>
      <trkpt lat="44.65024" lon="6.01917">
        <ele>1688</ele>
        <time>2023-05-15T12:32:26Z</time>
      </trkpt>
      <trkpt lat="44.65027" lon="6.01917">
        <ele>1688.4</ele>
        <time>2023-05-15T12:32:30Z</time>
      </trkpt>
      <trkpt lat="44.65029" lon="6.01916">
        <ele>1688.6</ele>
        <time>2023-05-15T12:32:33Z</time>
      </trkpt>
      <trkpt lat="44.65029" lon="6.01916">
        <ele>1688.8</ele>
        <time>2023-05-15T12:32:34Z</time>
      </trkpt>
      <trkpt lat="44.65031" lon="6.01915">
        <ele>1689</ele>
        <time>2023-05-15T12:32:36Z</time>
      </trkpt>
      <trkpt lat="44.65031" lon="6.01915">
        <ele>1689</ele>
        <time>2023-05-15T12:32:37Z</time>
      </trkpt>
      <trkpt lat="44.65032" lon="6.01915">
        <ele>1689</ele>
        <time>2023-05-15T12:32:38Z</time>
      </trkpt>
      <trkpt lat="44.65032" lon="6.01915">
        <ele>1689</ele>
        <time>2023-05-15T12:32:39Z</time>
      </trkpt>
      <trkpt lat="44.65033" lon="6.01915">
        <ele>1689.2</ele>
        <time>2023-05-15T12:32:40Z</time>
      </trkpt>
      <trkpt lat="44.65034" lon="6.01916">
        <ele>1689.4</ele>
        <time>2023-05-15T12:32:41Z</time>
      </trkpt>
      <trkpt lat="44.65035" lon="6.01916">
        <ele>1689.8</ele>
        <time>2023-05-15T12:32:43Z</time>
      </trkpt>
      <trkpt lat="44.65036" lon="6.01917">
        <ele>1690</ele>
        <time>2023-05-15T12:32:44Z</time>
      </trkpt>
      <trkpt lat="44.65037" lon="6.01917">
        <ele>1690</ele>
        <time>2023-05-15T12:32:45Z</time>
      </trkpt>
      <trkpt lat="44.6504" lon="6.01919">
        <ele>1690.6</ele>
        <time>2023-05-15T12:32:51Z</time>
      </trkpt>
      <trkpt lat="44.65041" lon="6.0192">
        <ele>1690.6</ele>
        <time>2023-05-15T12:32:52Z</time>
      </trkpt>
      <trkpt lat="44.65042" lon="6.0192">
        <ele>1690.6</ele>
        <time>2023-05-15T12:32:53Z</time>
      </trkpt>
      <trkpt lat="44.65042" lon="6.0192">
        <ele>1690.6</ele>
        <time>2023-05-15T12:32:54Z</time>
      </trkpt>
      <trkpt lat="44.65042" lon="6.0192">
        <ele>1690.6</ele>
        <time>2023-05-15T12:32:57Z</time>
      </trkpt>
      <trkpt lat="44.65043" lon="6.0192">
        <ele>1690.6</ele>
        <time>2023-05-15T12:32:59Z</time>
      </trkpt>
      <trkpt lat="44.65046" lon="6.0192">
        <ele>1690.6</ele>
        <time>2023-05-15T12:33:04Z</time>
      </trkpt>
      <trkpt lat="44.65046" lon="6.0192">
        <ele>1690.6</ele>
        <time>2023-05-15T12:33:05Z</time>
      </trkpt>
      <trkpt lat="44.65047" lon="6.0192">
        <ele>1690.8</ele>
        <time>2023-05-15T12:33:07Z</time>
      </trkpt>
      <trkpt lat="44.65049" lon="6.01919">
        <ele>1690.8</ele>
        <time>2023-05-15T12:33:13Z</time>
      </trkpt>
      <trkpt lat="44.6505" lon="6.01919">
        <ele>1690.8</ele>
        <time>2023-05-15T12:33:14Z</time>
      </trkpt>
      <trkpt lat="44.65051" lon="6.01918">
        <ele>1690.6</ele>
        <time>2023-05-15T12:33:19Z</time>
      </trkpt>
      <trkpt lat="44.65053" lon="6.01918">
        <ele>1690.8</ele>
        <time>2023-05-15T12:33:22Z</time>
      </trkpt>
      <trkpt lat="44.65053" lon="6.01918">
        <ele>1690.8</ele>
        <time>2023-05-15T12:33:23Z</time>
      </trkpt>
      <trkpt lat="44.65054" lon="6.01917">
        <ele>1690.8</ele>
        <time>2023-05-15T12:33:24Z</time>
      </trkpt>
      <trkpt lat="44.65055" lon="6.01917">
        <ele>1691</ele>
        <time>2023-05-15T12:33:25Z</time>
      </trkpt>
      <trkpt lat="44.65056" lon="6.01916">
        <ele>1691.2</ele>
        <time>2023-05-15T12:33:29Z</time>
      </trkpt>
      <trkpt lat="44.65057" lon="6.01915">
        <ele>1691.2</ele>
        <time>2023-05-15T12:33:30Z</time>
      </trkpt>
      <trkpt lat="44.6506" lon="6.01914">
        <ele>1691.8</ele>
        <time>2023-05-15T12:33:35Z</time>
      </trkpt>
      <trkpt lat="44.65063" lon="6.01912">
        <ele>1692.8</ele>
        <time>2023-05-15T12:33:39Z</time>
      </trkpt>
      <trkpt lat="44.65064" lon="6.01912">
        <ele>1693</ele>
        <time>2023-05-15T12:33:40Z</time>
      </trkpt>
      <trkpt lat="44.65064" lon="6.01911">
        <ele>1693.4</ele>
        <time>2023-05-15T12:33:42Z</time>
      </trkpt>
      <trkpt lat="44.65064" lon="6.01911">
        <ele>1694</ele>
        <time>2023-05-15T12:33:45Z</time>
      </trkpt>
      <trkpt lat="44.65065" lon="6.01911">
        <ele>1694.4</ele>
        <time>2023-05-15T12:33:46Z</time>
      </trkpt>
      <trkpt lat="44.65065" lon="6.01911">
        <ele>1694.4</ele>
        <time>2023-05-15T12:33:47Z</time>
      </trkpt>
      <trkpt lat="44.65065" lon="6.0191">
        <ele>1694.8</ele>
        <time>2023-05-15T12:33:49Z</time>
      </trkpt>
      <trkpt lat="44.65065" lon="6.0191">
        <ele>1695</ele>
        <time>2023-05-15T12:33:50Z</time>
      </trkpt>
      <trkpt lat="44.65065" lon="6.0191">
        <ele>1695.4</ele>
        <time>2023-05-15T12:33:52Z</time>
      </trkpt>
      <trkpt lat="44.65066" lon="6.01909">
        <ele>1695.4</ele>
        <time>2023-05-15T12:33:54Z</time>
      </trkpt>
      <trkpt lat="44.65067" lon="6.01909">
        <ele>1695.8</ele>
        <time>2023-05-15T12:33:55Z</time>
      </trkpt>
      <trkpt lat="44.65067" lon="6.01909">
        <ele>1695.6</ele>
        <time>2023-05-15T12:33:56Z</time>
      </trkpt>
      <trkpt lat="44.65068" lon="6.01907">
        <ele>1696.2</ele>
        <time>2023-05-15T12:34:00Z</time>
      </trkpt>
      <trkpt lat="44.65069" lon="6.01907">
        <ele>1696.4</ele>
        <time>2023-05-15T12:34:01Z</time>
      </trkpt>
      <trkpt lat="44.65069" lon="6.01907">
        <ele>1696.6</ele>
        <time>2023-05-15T12:34:02Z</time>
      </trkpt>
      <trkpt lat="44.65069" lon="6.01907">
        <ele>1696.6</ele>
        <time>2023-05-15T12:34:03Z</time>
      </trkpt>
      <trkpt lat="44.6507" lon="6.01907">
        <ele>1696.8</ele>
        <time>2023-05-15T12:34:04Z</time>
      </trkpt>
      <trkpt lat="44.65071" lon="6.01907">
        <ele>1697.6</ele>
        <time>2023-05-15T12:34:08Z</time>
      </trkpt>
      <trkpt lat="44.65072" lon="6.01906">
        <ele>1697.8</ele>
        <time>2023-05-15T12:34:09Z</time>
      </trkpt>
      <trkpt lat="44.65072" lon="6.01906">
        <ele>1697.8</ele>
        <time>2023-05-15T12:34:10Z</time>
      </trkpt>
      <trkpt lat="44.65073" lon="6.01906">
        <ele>1698.2</ele>
        <time>2023-05-15T12:34:13Z</time>
      </trkpt>
      <trkpt lat="44.65073" lon="6.01905">
        <ele>1698.4</ele>
        <time>2023-05-15T12:34:14Z</time>
      </trkpt>
      <trkpt lat="44.65074" lon="6.01905">
        <ele>1698.6</ele>
        <time>2023-05-15T12:34:15Z</time>
      </trkpt>
      <trkpt lat="44.65074" lon="6.01905">
        <ele>1698.6</ele>
        <time>2023-05-15T12:34:16Z</time>
      </trkpt>
      <trkpt lat="44.65074" lon="6.01905">
        <ele>1698.8</ele>
        <time>2023-05-15T12:34:17Z</time>
      </trkpt>
      <trkpt lat="44.65075" lon="6.01905">
        <ele>1699.8</ele>
        <time>2023-05-15T12:34:26Z</time>
      </trkpt>
      <trkpt lat="44.65076" lon="6.01905">
        <ele>1699.8</ele>
        <time>2023-05-15T12:34:28Z</time>
      </trkpt>
      <trkpt lat="44.65077" lon="6.01904">
        <ele>1700.2</ele>
        <time>2023-05-15T12:34:30Z</time>
      </trkpt>
      <trkpt lat="44.65078" lon="6.01904">
        <ele>1700.6</ele>
        <time>2023-05-15T12:34:33Z</time>
      </trkpt>
      <trkpt lat="44.65079" lon="6.01904">
        <ele>1700.8</ele>
        <time>2023-05-15T12:34:35Z</time>
      </trkpt>
      <trkpt lat="44.65079" lon="6.01904">
        <ele>1701</ele>
        <time>2023-05-15T12:34:36Z</time>
      </trkpt>
      <trkpt lat="44.6508" lon="6.01904">
        <ele>1701</ele>
        <time>2023-05-15T12:34:37Z</time>
      </trkpt>
      <trkpt lat="44.65081" lon="6.01903">
        <ele>1701.4</ele>
        <time>2023-05-15T12:34:41Z</time>
      </trkpt>
      <trkpt lat="44.65082" lon="6.01903">
        <ele>1701.6</ele>
        <time>2023-05-15T12:34:42Z</time>
      </trkpt>
      <trkpt lat="44.65082" lon="6.01903">
        <ele>1701.6</ele>
        <time>2023-05-15T12:34:43Z</time>
      </trkpt>
      <trkpt lat="44.65083" lon="6.01903">
        <ele>1701.8</ele>
        <time>2023-05-15T12:34:44Z</time>
      </trkpt>
      <trkpt lat="44.65083" lon="6.01903">
        <ele>1701.8</ele>
        <time>2023-05-15T12:34:45Z</time>
      </trkpt>
      <trkpt lat="44.65083" lon="6.01903">
        <ele>1701.8</ele>
        <time>2023-05-15T12:34:46Z</time>
      </trkpt>
      <trkpt lat="44.65084" lon="6.01903">
        <ele>1702</ele>
        <time>2023-05-15T12:34:47Z</time>
      </trkpt>
      <trkpt lat="44.65084" lon="6.01903">
        <ele>1702.2</ele>
        <time>2023-05-15T12:34:48Z</time>
      </trkpt>
      <trkpt lat="44.65084" lon="6.01903">
        <ele>1702.2</ele>
        <time>2023-05-15T12:34:49Z</time>
      </trkpt>
      <trkpt lat="44.65084" lon="6.01903">
        <ele>1702.4</ele>
        <time>2023-05-15T12:34:50Z</time>
      </trkpt>
      <trkpt lat="44.65084" lon="6.01903">
        <ele>1702.4</ele>
        <time>2023-05-15T12:34:51Z</time>
      </trkpt>
      <trkpt lat="44.65085" lon="6.01902">
        <ele>1702.6</ele>
        <time>2023-05-15T12:34:52Z</time>
      </trkpt>
      <trkpt lat="44.65086" lon="6.01902">
        <ele>1703</ele>
        <time>2023-05-15T12:34:56Z</time>
      </trkpt>
      <trkpt lat="44.65089" lon="6.019">
        <ele>1703.2</ele>
        <time>2023-05-15T12:35:01Z</time>
      </trkpt>
      <trkpt lat="44.6509" lon="6.019">
        <ele>1703.4</ele>
        <time>2023-05-15T12:35:04Z</time>
      </trkpt>
      <trkpt lat="44.65097" lon="6.01896">
        <ele>1703.8</ele>
        <time>2023-05-15T12:35:16Z</time>
      </trkpt>
      <trkpt lat="44.65098" lon="6.01896">
        <ele>1704</ele>
        <time>2023-05-15T12:35:17Z</time>
      </trkpt>
      <trkpt lat="44.65098" lon="6.01895">
        <ele>1704</ele>
        <time>2023-05-15T12:35:18Z</time>
      </trkpt>
      <trkpt lat="44.65101" lon="6.01894">
        <ele>1704</ele>
        <time>2023-05-15T12:35:22Z</time>
      </trkpt>
      <trkpt lat="44.65102" lon="6.01893">
        <ele>1704.2</ele>
        <time>2023-05-15T12:35:23Z</time>
      </trkpt>
      <trkpt lat="44.65102" lon="6.01893">
        <ele>1704.2</ele>
        <time>2023-05-15T12:35:24Z</time>
      </trkpt>
      <trkpt lat="44.65103" lon="6.01892">
        <ele>1704.2</ele>
        <time>2023-05-15T12:35:27Z</time>
      </trkpt>
      <trkpt lat="44.65105" lon="6.0189">
        <ele>1704.6</ele>
        <time>2023-05-15T12:35:32Z</time>
      </trkpt>
      <trkpt lat="44.65106" lon="6.0189">
        <ele>1704.8</ele>
        <time>2023-05-15T12:35:33Z</time>
      </trkpt>
      <trkpt lat="44.65108" lon="6.01889">
        <ele>1705.2</ele>
        <time>2023-05-15T12:35:36Z</time>
      </trkpt>
      <trkpt lat="44.65109" lon="6.01889">
        <ele>1705.4</ele>
        <time>2023-05-15T12:35:38Z</time>
      </trkpt>
      <trkpt lat="44.6511" lon="6.01889">
        <ele>1705.8</ele>
        <time>2023-05-15T12:35:40Z</time>
      </trkpt>
      <trkpt lat="44.65111" lon="6.01888">
        <ele>1706.8</ele>
        <time>2023-05-15T12:35:46Z</time>
      </trkpt>
      <trkpt lat="44.65112" lon="6.01888">
        <ele>1707</ele>
        <time>2023-05-15T12:35:49Z</time>
      </trkpt>
      <trkpt lat="44.65113" lon="6.01887">
        <ele>1707.2</ele>
        <time>2023-05-15T12:35:52Z</time>
      </trkpt>
      <trkpt lat="44.65113" lon="6.01887">
        <ele>1707.4</ele>
        <time>2023-05-15T12:35:53Z</time>
      </trkpt>
      <trkpt lat="44.65114" lon="6.01886">
        <ele>1708</ele>
        <time>2023-05-15T12:36:02Z</time>
      </trkpt>
      <trkpt lat="44.65116" lon="6.01886">
        <ele>1708.2</ele>
        <time>2023-05-15T12:36:04Z</time>
      </trkpt>
      <trkpt lat="44.65118" lon="6.01885">
        <ele>1708.4</ele>
        <time>2023-05-15T12:36:07Z</time>
      </trkpt>
      <trkpt lat="44.6512" lon="6.01884">
        <ele>1708.6</ele>
        <time>2023-05-15T12:36:10Z</time>
      </trkpt>
      <trkpt lat="44.6512" lon="6.01884">
        <ele>1708.6</ele>
        <time>2023-05-15T12:36:11Z</time>
      </trkpt>
      <trkpt lat="44.6512" lon="6.01884">
        <ele>1708.8</ele>
        <time>2023-05-15T12:36:12Z</time>
      </trkpt>
      <trkpt lat="44.65121" lon="6.01884">
        <ele>1708.8</ele>
        <time>2023-05-15T12:36:14Z</time>
      </trkpt>
      <trkpt lat="44.65122" lon="6.01883">
        <ele>1709.4</ele>
        <time>2023-05-15T12:36:17Z</time>
      </trkpt>
      <trkpt lat="44.65123" lon="6.01882">
        <ele>1709.6</ele>
        <time>2023-05-15T12:36:19Z</time>
      </trkpt>
      <trkpt lat="44.65124" lon="6.01881">
        <ele>1709.8</ele>
        <time>2023-05-15T12:36:22Z</time>
      </trkpt>
      <trkpt lat="44.65124" lon="6.01881">
        <ele>1710</ele>
        <time>2023-05-15T12:36:23Z</time>
      </trkpt>
      <trkpt lat="44.65125" lon="6.01881">
        <ele>1710.2</ele>
        <time>2023-05-15T12:36:24Z</time>
      </trkpt>
      <trkpt lat="44.65125" lon="6.01881">
        <ele>1710.2</ele>
        <time>2023-05-15T12:36:25Z</time>
      </trkpt>
      <trkpt lat="44.65126" lon="6.0188">
        <ele>1710.6</ele>
        <time>2023-05-15T12:36:28Z</time>
      </trkpt>
      <trkpt lat="44.65127" lon="6.0188">
        <ele>1711</ele>
        <time>2023-05-15T12:36:31Z</time>
      </trkpt>
      <trkpt lat="44.65129" lon="6.01879">
        <ele>1711.2</ele>
        <time>2023-05-15T12:36:37Z</time>
      </trkpt>
      <trkpt lat="44.65132" lon="6.01876">
        <ele>1712</ele>
        <time>2023-05-15T12:36:43Z</time>
      </trkpt>
      <trkpt lat="44.65134" lon="6.01874">
        <ele>1712.6</ele>
        <time>2023-05-15T12:36:49Z</time>
      </trkpt>
      <trkpt lat="44.65137" lon="6.01872">
        <ele>1712.8</ele>
        <time>2023-05-15T12:36:55Z</time>
      </trkpt>
      <trkpt lat="44.6514" lon="6.0187">
        <ele>1713.2</ele>
        <time>2023-05-15T12:36:59Z</time>
      </trkpt>
      <trkpt lat="44.65141" lon="6.01869">
        <ele>1713.8</ele>
        <time>2023-05-15T12:37:02Z</time>
      </trkpt>
      <trkpt lat="44.65141" lon="6.01869">
        <ele>1714.4</ele>
        <time>2023-05-15T12:37:04Z</time>
      </trkpt>
      <trkpt lat="44.65142" lon="6.01868">
        <ele>1715</ele>
        <time>2023-05-15T12:37:06Z</time>
      </trkpt>
      <trkpt lat="44.65143" lon="6.01867">
        <ele>1715.4</ele>
        <time>2023-05-15T12:37:07Z</time>
      </trkpt>
      <trkpt lat="44.65143" lon="6.01867">
        <ele>1715.4</ele>
        <time>2023-05-15T12:37:08Z</time>
      </trkpt>
      <trkpt lat="44.65144" lon="6.01867">
        <ele>1715.8</ele>
        <time>2023-05-15T12:37:09Z</time>
      </trkpt>
      <trkpt lat="44.65145" lon="6.01866">
        <ele>1715.8</ele>
        <time>2023-05-15T12:37:10Z</time>
      </trkpt>
      <trkpt lat="44.65145" lon="6.01866">
        <ele>1716</ele>
        <time>2023-05-15T12:37:11Z</time>
      </trkpt>
      <trkpt lat="44.65146" lon="6.01865">
        <ele>1716</ele>
        <time>2023-05-15T12:37:12Z</time>
      </trkpt>
      <trkpt lat="44.65146" lon="6.01865">
        <ele>1716</ele>
        <time>2023-05-15T12:37:13Z</time>
      </trkpt>
      <trkpt lat="44.65147" lon="6.01864">
        <ele>1716</ele>
        <time>2023-05-15T12:37:14Z</time>
      </trkpt>
      <trkpt lat="44.65147" lon="6.01864">
        <ele>1716</ele>
        <time>2023-05-15T12:37:15Z</time>
      </trkpt>
      <trkpt lat="44.65148" lon="6.01863">
        <ele>1716</ele>
        <time>2023-05-15T12:37:16Z</time>
      </trkpt>
      <trkpt lat="44.65148" lon="6.01863">
        <ele>1716</ele>
        <time>2023-05-15T12:37:17Z</time>
      </trkpt>
      <trkpt lat="44.65149" lon="6.01863">
        <ele>1716.2</ele>
        <time>2023-05-15T12:37:18Z</time>
      </trkpt>
      <trkpt lat="44.65149" lon="6.01863">
        <ele>1716.6</ele>
        <time>2023-05-15T12:37:19Z</time>
      </trkpt>
      <trkpt lat="44.6515" lon="6.01862">
        <ele>1716.6</ele>
        <time>2023-05-15T12:37:20Z</time>
      </trkpt>
      <trkpt lat="44.6515" lon="6.01861">
        <ele>1716.8</ele>
        <time>2023-05-15T12:37:21Z</time>
      </trkpt>
      <trkpt lat="44.65151" lon="6.01861">
        <ele>1716.8</ele>
        <time>2023-05-15T12:37:22Z</time>
      </trkpt>
      <trkpt lat="44.65151" lon="6.01861">
        <ele>1717</ele>
        <time>2023-05-15T12:37:23Z</time>
      </trkpt>
      <trkpt lat="44.65152" lon="6.0186">
        <ele>1717.2</ele>
        <time>2023-05-15T12:37:24Z</time>
      </trkpt>
      <trkpt lat="44.65152" lon="6.0186">
        <ele>1717.2</ele>
        <time>2023-05-15T12:37:25Z</time>
      </trkpt>
      <trkpt lat="44.65152" lon="6.0186">
        <ele>1717.4</ele>
        <time>2023-05-15T12:37:26Z</time>
      </trkpt>
      <trkpt lat="44.65152" lon="6.01859">
        <ele>1717.4</ele>
        <time>2023-05-15T12:37:27Z</time>
      </trkpt>
      <trkpt lat="44.65153" lon="6.01859">
        <ele>1717.6</ele>
        <time>2023-05-15T12:37:28Z</time>
      </trkpt>
      <trkpt lat="44.65154" lon="6.01858">
        <ele>1717.6</ele>
        <time>2023-05-15T12:37:29Z</time>
      </trkpt>
      <trkpt lat="44.65154" lon="6.01858">
        <ele>1718</ele>
        <time>2023-05-15T12:37:30Z</time>
      </trkpt>
      <trkpt lat="44.65154" lon="6.01858">
        <ele>1718</ele>
        <time>2023-05-15T12:37:31Z</time>
      </trkpt>
      <trkpt lat="44.65154" lon="6.01858">
        <ele>1718.2</ele>
        <time>2023-05-15T12:37:32Z</time>
      </trkpt>
      <trkpt lat="44.65155" lon="6.01857">
        <ele>1718.2</ele>
        <time>2023-05-15T12:37:33Z</time>
      </trkpt>
      <trkpt lat="44.65155" lon="6.01857">
        <ele>1718.2</ele>
        <time>2023-05-15T12:37:34Z</time>
      </trkpt>
      <trkpt lat="44.65156" lon="6.01857">
        <ele>1718.2</ele>
        <time>2023-05-15T12:37:35Z</time>
      </trkpt>
      <trkpt lat="44.65156" lon="6.01857">
        <ele>1718.2</ele>
        <time>2023-05-15T12:37:36Z</time>
      </trkpt>
      <trkpt lat="44.65156" lon="6.01856">
        <ele>1718.2</ele>
        <time>2023-05-15T12:37:37Z</time>
      </trkpt>
      <trkpt lat="44.65157" lon="6.01856">
        <ele>1718.4</ele>
        <time>2023-05-15T12:37:38Z</time>
      </trkpt>
      <trkpt lat="44.65157" lon="6.01856">
        <ele>1718.4</ele>
        <time>2023-05-15T12:37:39Z</time>
      </trkpt>
      <trkpt lat="44.65159" lon="6.01855">
        <ele>1718.4</ele>
        <time>2023-05-15T12:37:43Z</time>
      </trkpt>
      <trkpt lat="44.65166" lon="6.0185">
        <ele>1719</ele>
        <time>2023-05-15T12:37:53Z</time>
      </trkpt>
      <trkpt lat="44.65168" lon="6.01849">
        <ele>1719.2</ele>
        <time>2023-05-15T12:37:56Z</time>
      </trkpt>
      <trkpt lat="44.65169" lon="6.01849">
        <ele>1719.2</ele>
        <time>2023-05-15T12:37:57Z</time>
      </trkpt>
      <trkpt lat="44.6517" lon="6.01849">
        <ele>1719.2</ele>
        <time>2023-05-15T12:37:58Z</time>
      </trkpt>
      <trkpt lat="44.65171" lon="6.01848">
        <ele>1719.4</ele>
        <time>2023-05-15T12:38:01Z</time>
      </trkpt>
      <trkpt lat="44.65172" lon="6.01847">
        <ele>1719.6</ele>
        <time>2023-05-15T12:38:02Z</time>
      </trkpt>
      <trkpt lat="44.65172" lon="6.01847">
        <ele>1719.6</ele>
        <time>2023-05-15T12:38:03Z</time>
      </trkpt>
      <trkpt lat="44.65174" lon="6.01846">
        <ele>1719.8</ele>
        <time>2023-05-15T12:38:06Z</time>
      </trkpt>
      <trkpt lat="44.65175" lon="6.01846">
        <ele>1719.8</ele>
        <time>2023-05-15T12:38:07Z</time>
      </trkpt>
      <trkpt lat="44.65175" lon="6.01846">
        <ele>1719.8</ele>
        <time>2023-05-15T12:38:08Z</time>
      </trkpt>
      <trkpt lat="44.65175" lon="6.01845">
        <ele>1720.4</ele>
        <time>2023-05-15T12:38:09Z</time>
      </trkpt>
      <trkpt lat="44.65176" lon="6.01845">
        <ele>1720.6</ele>
        <time>2023-05-15T12:38:10Z</time>
      </trkpt>
      <trkpt lat="44.65176" lon="6.01845">
        <ele>1721.2</ele>
        <time>2023-05-15T12:38:15Z</time>
      </trkpt>
      <trkpt lat="44.65177" lon="6.01844">
        <ele>1721.6</ele>
        <time>2023-05-15T12:38:18Z</time>
      </trkpt>
      <trkpt lat="44.65178" lon="6.01844">
        <ele>1721.8</ele>
        <time>2023-05-15T12:38:19Z</time>
      </trkpt>
      <trkpt lat="44.65179" lon="6.01844">
        <ele>1722</ele>
        <time>2023-05-15T12:38:21Z</time>
      </trkpt>
      <trkpt lat="44.65181" lon="6.01842">
        <ele>1722.4</ele>
        <time>2023-05-15T12:38:26Z</time>
      </trkpt>
      <trkpt lat="44.65182" lon="6.01842">
        <ele>1722.4</ele>
        <time>2023-05-15T12:38:27Z</time>
      </trkpt>
      <trkpt lat="44.65183" lon="6.01842">
        <ele>1722.4</ele>
        <time>2023-05-15T12:38:28Z</time>
      </trkpt>
      <trkpt lat="44.65184" lon="6.01841">
        <ele>1722.4</ele>
        <time>2023-05-15T12:38:30Z</time>
      </trkpt>
      <trkpt lat="44.65184" lon="6.01841">
        <ele>1722.4</ele>
        <time>2023-05-15T12:38:31Z</time>
      </trkpt>
      <trkpt lat="44.65185" lon="6.01841">
        <ele>1722.4</ele>
        <time>2023-05-15T12:38:32Z</time>
      </trkpt>
      <trkpt lat="44.65185" lon="6.01841">
        <ele>1722.4</ele>
        <time>2023-05-15T12:38:33Z</time>
      </trkpt>
      <trkpt lat="44.65189" lon="6.01838">
        <ele>1722.6</ele>
        <time>2023-05-15T12:38:40Z</time>
      </trkpt>
      <trkpt lat="44.65189" lon="6.01838">
        <ele>1723</ele>
        <time>2023-05-15T12:38:41Z</time>
      </trkpt>
      <trkpt lat="44.6519" lon="6.01838">
        <ele>1723</ele>
        <time>2023-05-15T12:38:42Z</time>
      </trkpt>
      <trkpt lat="44.65191" lon="6.01838">
        <ele>1723.4</ele>
        <time>2023-05-15T12:38:45Z</time>
      </trkpt>
      <trkpt lat="44.65191" lon="6.01838">
        <ele>1723.6</ele>
        <time>2023-05-15T12:38:46Z</time>
      </trkpt>
      <trkpt lat="44.65192" lon="6.01838">
        <ele>1723.8</ele>
        <time>2023-05-15T12:38:47Z</time>
      </trkpt>
      <trkpt lat="44.65192" lon="6.01838">
        <ele>1724</ele>
        <time>2023-05-15T12:38:48Z</time>
      </trkpt>
      <trkpt lat="44.65192" lon="6.01838">
        <ele>1724</ele>
        <time>2023-05-15T12:38:49Z</time>
      </trkpt>
      <trkpt lat="44.65193" lon="6.01837">
        <ele>1724.2</ele>
        <time>2023-05-15T12:38:50Z</time>
      </trkpt>
      <trkpt lat="44.65194" lon="6.01837">
        <ele>1724.2</ele>
        <time>2023-05-15T12:38:51Z</time>
      </trkpt>
      <trkpt lat="44.65194" lon="6.01837">
        <ele>1724.2</ele>
        <time>2023-05-15T12:38:52Z</time>
      </trkpt>
      <trkpt lat="44.65197" lon="6.01836">
        <ele>1724.8</ele>
        <time>2023-05-15T12:39:00Z</time>
      </trkpt>
      <trkpt lat="44.65197" lon="6.01836">
        <ele>1724.8</ele>
        <time>2023-05-15T12:39:02Z</time>
      </trkpt>
      <trkpt lat="44.65198" lon="6.01836">
        <ele>1725</ele>
        <time>2023-05-15T12:39:03Z</time>
      </trkpt>
      <trkpt lat="44.65198" lon="6.01836">
        <ele>1725</ele>
        <time>2023-05-15T12:39:04Z</time>
      </trkpt>
      <trkpt lat="44.65198" lon="6.01835">
        <ele>1725</ele>
        <time>2023-05-15T12:39:05Z</time>
      </trkpt>
      <trkpt lat="44.65201" lon="6.01835">
        <ele>1725.4</ele>
        <time>2023-05-15T12:39:10Z</time>
      </trkpt>
      <trkpt lat="44.65201" lon="6.01835">
        <ele>1725.6</ele>
        <time>2023-05-15T12:39:12Z</time>
      </trkpt>
      <trkpt lat="44.65201" lon="6.01835">
        <ele>1725.8</ele>
        <time>2023-05-15T12:39:14Z</time>
      </trkpt>
      <trkpt lat="44.65201" lon="6.01835">
        <ele>1725.8</ele>
        <time>2023-05-15T12:39:15Z</time>
      </trkpt>
      <trkpt lat="44.65201" lon="6.01835">
        <ele>1725.8</ele>
        <time>2023-05-15T12:39:16Z</time>
      </trkpt>
      <trkpt lat="44.65204" lon="6.01834">
        <ele>1726.2</ele>
        <time>2023-05-15T12:39:20Z</time>
      </trkpt>
      <trkpt lat="44.65205" lon="6.01833">
        <ele>1726.2</ele>
        <time>2023-05-15T12:39:22Z</time>
      </trkpt>
      <trkpt lat="44.65206" lon="6.01833">
        <ele>1726.4</ele>
        <time>2023-05-15T12:39:24Z</time>
      </trkpt>
      <trkpt lat="44.65207" lon="6.01833">
        <ele>1726.6</ele>
        <time>2023-05-15T12:39:25Z</time>
      </trkpt>
      <trkpt lat="44.65207" lon="6.01833">
        <ele>1726.6</ele>
        <time>2023-05-15T12:39:26Z</time>
      </trkpt>
      <trkpt lat="44.65208" lon="6.01833">
        <ele>1727</ele>
        <time>2023-05-15T12:39:27Z</time>
      </trkpt>
      <trkpt lat="44.65208" lon="6.01832">
        <ele>1726.8</ele>
        <time>2023-05-15T12:39:28Z</time>
      </trkpt>
      <trkpt lat="44.65209" lon="6.01832">
        <ele>1727.2</ele>
        <time>2023-05-15T12:39:31Z</time>
      </trkpt>
      <trkpt lat="44.65209" lon="6.01832">
        <ele>1727.8</ele>
        <time>2023-05-15T12:39:38Z</time>
      </trkpt>
      <trkpt lat="44.65209" lon="6.01832">
        <ele>1727.8</ele>
        <time>2023-05-15T12:39:40Z</time>
      </trkpt>
      <trkpt lat="44.65213" lon="6.01831">
        <ele>1728.4</ele>
        <time>2023-05-15T12:39:49Z</time>
      </trkpt>
      <trkpt lat="44.65216" lon="6.0183">
        <ele>1729.2</ele>
        <time>2023-05-15T12:39:53Z</time>
      </trkpt>
      <trkpt lat="44.6522" lon="6.01829">
        <ele>1729.8</ele>
        <time>2023-05-15T12:39:58Z</time>
      </trkpt>
      <trkpt lat="44.65221" lon="6.01829">
        <ele>1730.2</ele>
        <time>2023-05-15T12:40:01Z</time>
      </trkpt>
      <trkpt lat="44.65221" lon="6.01828">
        <ele>1730.4</ele>
        <time>2023-05-15T12:40:02Z</time>
      </trkpt>
      <trkpt lat="44.65222" lon="6.01828">
        <ele>1730.6</ele>
        <time>2023-05-15T12:40:03Z</time>
      </trkpt>
      <trkpt lat="44.65224" lon="6.01827">
        <ele>1731.2</ele>
        <time>2023-05-15T12:40:07Z</time>
      </trkpt>
      <trkpt lat="44.65224" lon="6.01827">
        <ele>1731.4</ele>
        <time>2023-05-15T12:40:08Z</time>
      </trkpt>
      <trkpt lat="44.65225" lon="6.01827">
        <ele>1731.4</ele>
        <time>2023-05-15T12:40:09Z</time>
      </trkpt>
      <trkpt lat="44.65226" lon="6.01827">
        <ele>1731.6</ele>
        <time>2023-05-15T12:40:10Z</time>
      </trkpt>
      <trkpt lat="44.65227" lon="6.01826">
        <ele>1731.6</ele>
        <time>2023-05-15T12:40:11Z</time>
      </trkpt>
      <trkpt lat="44.65227" lon="6.01826">
        <ele>1731.8</ele>
        <time>2023-05-15T12:40:12Z</time>
      </trkpt>
      <trkpt lat="44.65228" lon="6.01826">
        <ele>1731.8</ele>
        <time>2023-05-15T12:40:13Z</time>
      </trkpt>
      <trkpt lat="44.65228" lon="6.01826">
        <ele>1732</ele>
        <time>2023-05-15T12:40:14Z</time>
      </trkpt>
      <trkpt lat="44.65229" lon="6.01826">
        <ele>1732</ele>
        <time>2023-05-15T12:40:15Z</time>
      </trkpt>
      <trkpt lat="44.65229" lon="6.01826">
        <ele>1732</ele>
        <time>2023-05-15T12:40:16Z</time>
      </trkpt>
      <trkpt lat="44.6523" lon="6.01825">
        <ele>1732</ele>
        <time>2023-05-15T12:40:17Z</time>
      </trkpt>
      <trkpt lat="44.65231" lon="6.01825">
        <ele>1732</ele>
        <time>2023-05-15T12:40:18Z</time>
      </trkpt>
      <trkpt lat="44.65231" lon="6.01825">
        <ele>1732.2</ele>
        <time>2023-05-15T12:40:19Z</time>
      </trkpt>
      <trkpt lat="44.65232" lon="6.01824">
        <ele>1732.2</ele>
        <time>2023-05-15T12:40:20Z</time>
      </trkpt>
      <trkpt lat="44.65233" lon="6.01824">
        <ele>1732.2</ele>
        <time>2023-05-15T12:40:21Z</time>
      </trkpt>
      <trkpt lat="44.65233" lon="6.01824">
        <ele>1732.2</ele>
        <time>2023-05-15T12:40:22Z</time>
      </trkpt>
      <trkpt lat="44.65233" lon="6.01824">
        <ele>1732.2</ele>
        <time>2023-05-15T12:40:23Z</time>
      </trkpt>
      <trkpt lat="44.65234" lon="6.01824">
        <ele>1732.2</ele>
        <time>2023-05-15T12:40:24Z</time>
      </trkpt>
      <trkpt lat="44.65235" lon="6.01823">
        <ele>1732.2</ele>
        <time>2023-05-15T12:40:25Z</time>
      </trkpt>
      <trkpt lat="44.65236" lon="6.01823">
        <ele>1732.2</ele>
        <time>2023-05-15T12:40:27Z</time>
      </trkpt>
      <trkpt lat="44.65236" lon="6.01823">
        <ele>1732.2</ele>
        <time>2023-05-15T12:40:28Z</time>
      </trkpt>
      <trkpt lat="44.65236" lon="6.01823">
        <ele>1732.8</ele>
        <time>2023-05-15T12:40:33Z</time>
      </trkpt>
      <trkpt lat="44.65238" lon="6.01823">
        <ele>1733.4</ele>
        <time>2023-05-15T12:40:38Z</time>
      </trkpt>
      <trkpt lat="44.65241" lon="6.01822">
        <ele>1733.8</ele>
        <time>2023-05-15T12:40:45Z</time>
      </trkpt>
      <trkpt lat="44.65242" lon="6.01822">
        <ele>1733.8</ele>
        <time>2023-05-15T12:40:46Z</time>
      </trkpt>
      <trkpt lat="44.65243" lon="6.01822">
        <ele>1733.8</ele>
        <time>2023-05-15T12:40:48Z</time>
      </trkpt>
      <trkpt lat="44.65245" lon="6.01821">
        <ele>1734.2</ele>
        <time>2023-05-15T12:40:51Z</time>
      </trkpt>
      <trkpt lat="44.65249" lon="6.0182">
        <ele>1735</ele>
        <time>2023-05-15T12:40:57Z</time>
      </trkpt>
      <trkpt lat="44.65252" lon="6.01819">
        <ele>1735.4</ele>
        <time>2023-05-15T12:41:02Z</time>
      </trkpt>
      <trkpt lat="44.65253" lon="6.01818">
        <ele>1735.8</ele>
        <time>2023-05-15T12:41:06Z</time>
      </trkpt>
      <trkpt lat="44.65253" lon="6.01818">
        <ele>1735.8</ele>
        <time>2023-05-15T12:41:07Z</time>
      </trkpt>
      <trkpt lat="44.65253" lon="6.01818">
        <ele>1735.8</ele>
        <time>2023-05-15T12:41:08Z</time>
      </trkpt>
      <trkpt lat="44.65253" lon="6.01818">
        <ele>1735.8</ele>
        <time>2023-05-15T12:41:09Z</time>
      </trkpt>
      <trkpt lat="44.65253" lon="6.01818">
        <ele>1735.8</ele>
        <time>2023-05-15T12:41:10Z</time>
      </trkpt>
      <trkpt lat="44.65253" lon="6.01818">
        <ele>1736</ele>
        <time>2023-05-15T12:41:11Z</time>
      </trkpt>
      <trkpt lat="44.65254" lon="6.01818">
        <ele>1736.4</ele>
        <time>2023-05-15T12:41:17Z</time>
      </trkpt>
      <trkpt lat="44.65254" lon="6.01817">
        <ele>1737</ele>
        <time>2023-05-15T12:41:21Z</time>
      </trkpt>
      <trkpt lat="44.65257" lon="6.01817">
        <ele>1737.4</ele>
        <time>2023-05-15T12:41:27Z</time>
      </trkpt>
      <trkpt lat="44.65257" lon="6.01817">
        <ele>1737.4</ele>
        <time>2023-05-15T12:41:28Z</time>
      </trkpt>
      <trkpt lat="44.65258" lon="6.01817">
        <ele>1737.6</ele>
        <time>2023-05-15T12:41:30Z</time>
      </trkpt>
      <trkpt lat="44.65261" lon="6.01817">
        <ele>1738.4</ele>
        <time>2023-05-15T12:41:39Z</time>
      </trkpt>
      <trkpt lat="44.65262" lon="6.01817">
        <ele>1738.8</ele>
        <time>2023-05-15T12:41:46Z</time>
      </trkpt>
      <trkpt lat="44.65262" lon="6.01817">
        <ele>1738.8</ele>
        <time>2023-05-15T12:41:49Z</time>
      </trkpt>
      <trkpt lat="44.65264" lon="6.01816">
        <ele>1739.8</ele>
        <time>2023-05-15T12:41:59Z</time>
      </trkpt>
      <trkpt lat="44.65264" lon="6.01816">
        <ele>1740.2</ele>
        <time>2023-05-15T12:42:04Z</time>
      </trkpt>
      <trkpt lat="44.65266" lon="6.01816">
        <ele>1740.8</ele>
        <time>2023-05-15T12:42:14Z</time>
      </trkpt>
      <trkpt lat="44.65267" lon="6.01816">
        <ele>1741.8</ele>
        <time>2023-05-15T12:42:22Z</time>
      </trkpt>
      <trkpt lat="44.65268" lon="6.01816">
        <ele>1742</ele>
        <time>2023-05-15T12:42:25Z</time>
      </trkpt>
      <trkpt lat="44.65268" lon="6.01816">
        <ele>1742.2</ele>
        <time>2023-05-15T12:42:26Z</time>
      </trkpt>
      <trkpt lat="44.65269" lon="6.01816">
        <ele>1742.2</ele>
        <time>2023-05-15T12:42:28Z</time>
      </trkpt>
      <trkpt lat="44.65272" lon="6.01815">
        <ele>1743.2</ele>
        <time>2023-05-15T12:42:40Z</time>
      </trkpt>
      <trkpt lat="44.65273" lon="6.01814">
        <ele>1743.4</ele>
        <time>2023-05-15T12:42:41Z</time>
      </trkpt>
      <trkpt lat="44.65274" lon="6.01814">
        <ele>1743.6</ele>
        <time>2023-05-15T12:42:45Z</time>
      </trkpt>
      <trkpt lat="44.65274" lon="6.01814">
        <ele>1743.8</ele>
        <time>2023-05-15T12:42:47Z</time>
      </trkpt>
      <trkpt lat="44.65274" lon="6.01814">
        <ele>1744.2</ele>
        <time>2023-05-15T12:42:50Z</time>
      </trkpt>
      <trkpt lat="44.65276" lon="6.01814">
        <ele>1744.6</ele>
        <time>2023-05-15T12:42:54Z</time>
      </trkpt>
      <trkpt lat="44.65277" lon="6.01814">
        <ele>1745.2</ele>
        <time>2023-05-15T12:43:00Z</time>
      </trkpt>
      <trkpt lat="44.65277" lon="6.01814">
        <ele>1745.6</ele>
        <time>2023-05-15T12:43:01Z</time>
      </trkpt>
      <trkpt lat="44.65278" lon="6.01814">
        <ele>1746.2</ele>
        <time>2023-05-15T12:43:04Z</time>
      </trkpt>
      <trkpt lat="44.65279" lon="6.01814">
        <ele>1746.4</ele>
        <time>2023-05-15T12:43:09Z</time>
      </trkpt>
      <trkpt lat="44.65281" lon="6.01813">
        <ele>1746.4</ele>
        <time>2023-05-15T12:43:17Z</time>
      </trkpt>
      <trkpt lat="44.65282" lon="6.01813">
        <ele>1746.6</ele>
        <time>2023-05-15T12:43:20Z</time>
      </trkpt>
      <trkpt lat="44.65282" lon="6.01812">
        <ele>1747.4</ele>
        <time>2023-05-15T12:43:28Z</time>
      </trkpt>
      <trkpt lat="44.65282" lon="6.01812">
        <ele>1747.6</ele>
        <time>2023-05-15T12:43:32Z</time>
      </trkpt>
      <trkpt lat="44.65283" lon="6.0181">
        <ele>1747.2</ele>
        <time>2023-05-15T12:43:42Z</time>
      </trkpt>
      <trkpt lat="44.65284" lon="6.01807">
        <ele>1747.2</ele>
        <time>2023-05-15T12:43:48Z</time>
      </trkpt>
      <trkpt lat="44.65285" lon="6.01805">
        <ele>1747.2</ele>
        <time>2023-05-15T12:43:50Z</time>
      </trkpt>
      <trkpt lat="44.65285" lon="6.01805">
        <ele>1747.2</ele>
        <time>2023-05-15T12:43:54Z</time>
      </trkpt>
      <trkpt lat="44.65289" lon="6.01801">
        <ele>1747.2</ele>
        <time>2023-05-15T12:44:00Z</time>
      </trkpt>
      <trkpt lat="44.65291" lon="6.01797">
        <ele>1747.2</ele>
        <time>2023-05-15T12:44:02Z</time>
      </trkpt>
      <trkpt lat="44.65297" lon="6.01789">
        <ele>1747.4</ele>
        <time>2023-05-15T12:44:07Z</time>
      </trkpt>
      <trkpt lat="44.65302" lon="6.01781">
        <ele>1747.8</ele>
        <time>2023-05-15T12:44:12Z</time>
      </trkpt>
      <trkpt lat="44.65303" lon="6.0178">
        <ele>1748</ele>
        <time>2023-05-15T12:44:13Z</time>
      </trkpt>
      <trkpt lat="44.65304" lon="6.01778">
        <ele>1748.2</ele>
        <time>2023-05-15T12:44:14Z</time>
      </trkpt>
      <trkpt lat="44.65307" lon="6.01773">
        <ele>1748.2</ele>
        <time>2023-05-15T12:44:17Z</time>
      </trkpt>
      <trkpt lat="44.65308" lon="6.01772">
        <ele>1748.4</ele>
        <time>2023-05-15T12:44:18Z</time>
      </trkpt>
      <trkpt lat="44.65308" lon="6.01771">
        <ele>1748.6</ele>
        <time>2023-05-15T12:44:19Z</time>
      </trkpt>
      <trkpt lat="44.65309" lon="6.01771">
        <ele>1748.6</ele>
        <time>2023-05-15T12:44:20Z</time>
      </trkpt>
      <trkpt lat="44.65309" lon="6.01771">
        <ele>1748.8</ele>
        <time>2023-05-15T12:44:21Z</time>
      </trkpt>
      <trkpt lat="44.6531" lon="6.01769">
        <ele>1748.8</ele>
        <time>2023-05-15T12:44:22Z</time>
      </trkpt>
      <trkpt lat="44.65311" lon="6.01767">
        <ele>1748.8</ele>
        <time>2023-05-15T12:44:23Z</time>
      </trkpt>
      <trkpt lat="44.65314" lon="6.0176">
        <ele>1749</ele>
        <time>2023-05-15T12:44:27Z</time>
      </trkpt>
      <trkpt lat="44.65318" lon="6.01753">
        <ele>1748.8</ele>
        <time>2023-05-15T12:44:31Z</time>
      </trkpt>
      <trkpt lat="44.65323" lon="6.01743">
        <ele>1748.8</ele>
        <time>2023-05-15T12:44:36Z</time>
      </trkpt>
      <trkpt lat="44.65324" lon="6.01742">
        <ele>1749</ele>
        <time>2023-05-15T12:44:37Z</time>
      </trkpt>
      <trkpt lat="44.65325" lon="6.0174">
        <ele>1749</ele>
        <time>2023-05-15T12:44:38Z</time>
      </trkpt>
      <trkpt lat="44.65332" lon="6.01728">
        <ele>1749.2</ele>
        <time>2023-05-15T12:44:44Z</time>
      </trkpt>
      <trkpt lat="44.65333" lon="6.01726">
        <ele>1749.2</ele>
        <time>2023-05-15T12:44:45Z</time>
      </trkpt>
      <trkpt lat="44.65334" lon="6.01724">
        <ele>1749.2</ele>
        <time>2023-05-15T12:44:46Z</time>
      </trkpt>
      <trkpt lat="44.65342" lon="6.01707">
        <ele>1749.2</ele>
        <time>2023-05-15T12:44:54Z</time>
      </trkpt>
      <trkpt lat="44.65349" lon="6.01695">
        <ele>1749.6</ele>
        <time>2023-05-15T12:45:00Z</time>
      </trkpt>
      <trkpt lat="44.65355" lon="6.01686">
        <ele>1749.4</ele>
        <time>2023-05-15T12:45:04Z</time>
      </trkpt>
      <trkpt lat="44.65362" lon="6.01677">
        <ele>1749.2</ele>
        <time>2023-05-15T12:45:09Z</time>
      </trkpt>
      <trkpt lat="44.65368" lon="6.0167">
        <ele>1749.2</ele>
        <time>2023-05-15T12:45:13Z</time>
      </trkpt>
      <trkpt lat="44.6537" lon="6.01669">
        <ele>1749.2</ele>
        <time>2023-05-15T12:45:14Z</time>
      </trkpt>
      <trkpt lat="44.65374" lon="6.01665">
        <ele>1749.4</ele>
        <time>2023-05-15T12:45:17Z</time>
      </trkpt>
      <trkpt lat="44.65377" lon="6.01662">
        <ele>1749.8</ele>
        <time>2023-05-15T12:45:19Z</time>
      </trkpt>
      <trkpt lat="44.65381" lon="6.01656">
        <ele>1750</ele>
        <time>2023-05-15T12:45:22Z</time>
      </trkpt>
      <trkpt lat="44.65383" lon="6.01655">
        <ele>1750.2</ele>
        <time>2023-05-15T12:45:23Z</time>
      </trkpt>
      <trkpt lat="44.65384" lon="6.01653">
        <ele>1750.2</ele>
        <time>2023-05-15T12:45:24Z</time>
      </trkpt>
      <trkpt lat="44.65389" lon="6.01646">
        <ele>1750.4</ele>
        <time>2023-05-15T12:45:27Z</time>
      </trkpt>
      <trkpt lat="44.65392" lon="6.01643">
        <ele>1750.4</ele>
        <time>2023-05-15T12:45:29Z</time>
      </trkpt>
      <trkpt lat="44.65394" lon="6.01642">
        <ele>1750.4</ele>
        <time>2023-05-15T12:45:30Z</time>
      </trkpt>
      <trkpt lat="44.65395" lon="6.01641">
        <ele>1750.4</ele>
        <time>2023-05-15T12:45:31Z</time>
      </trkpt>
      <trkpt lat="44.65396" lon="6.01641">
        <ele>1750.4</ele>
        <time>2023-05-15T12:45:32Z</time>
      </trkpt>
      <trkpt lat="44.65397" lon="6.01641">
        <ele>1750.4</ele>
        <time>2023-05-15T12:45:33Z</time>
      </trkpt>
      <trkpt lat="44.65399" lon="6.01642">
        <ele>1750.4</ele>
        <time>2023-05-15T12:45:34Z</time>
      </trkpt>
      <trkpt lat="44.654" lon="6.01642">
        <ele>1750.4</ele>
        <time>2023-05-15T12:45:35Z</time>
      </trkpt>
      <trkpt lat="44.65402" lon="6.01642">
        <ele>1750.4</ele>
        <time>2023-05-15T12:45:36Z</time>
      </trkpt>
      <trkpt lat="44.65403" lon="6.01642">
        <ele>1750.6</ele>
        <time>2023-05-15T12:45:37Z</time>
      </trkpt>
      <trkpt lat="44.65404" lon="6.01642">
        <ele>1750.6</ele>
        <time>2023-05-15T12:45:38Z</time>
      </trkpt>
      <trkpt lat="44.65406" lon="6.01643">
        <ele>1750.6</ele>
        <time>2023-05-15T12:45:39Z</time>
      </trkpt>
      <trkpt lat="44.65407" lon="6.01643">
        <ele>1750.6</ele>
        <time>2023-05-15T12:45:40Z</time>
      </trkpt>
      <trkpt lat="44.65407" lon="6.01643">
        <ele>1750.8</ele>
        <time>2023-05-15T12:45:41Z</time>
      </trkpt>
      <trkpt lat="44.65407" lon="6.01643">
        <ele>1750.8</ele>
        <time>2023-05-15T12:45:42Z</time>
      </trkpt>
      <trkpt lat="44.65407" lon="6.01643">
        <ele>1751.6</ele>
        <time>2023-05-15T12:45:50Z</time>
      </trkpt>
      <trkpt lat="44.65409" lon="6.01643">
        <ele>1751.6</ele>
        <time>2023-05-15T12:45:54Z</time>
      </trkpt>
      <trkpt lat="44.65409" lon="6.01643">
        <ele>1751.6</ele>
        <time>2023-05-15T12:45:58Z</time>
      </trkpt>
      <trkpt lat="44.6541" lon="6.01643">
        <ele>1751.6</ele>
        <time>2023-05-15T12:45:59Z</time>
      </trkpt>
      <trkpt lat="44.65414" lon="6.01642">
        <ele>1751.8</ele>
        <time>2023-05-15T12:46:06Z</time>
      </trkpt>
      <trkpt lat="44.65415" lon="6.01642">
        <ele>1751.8</ele>
        <time>2023-05-15T12:46:07Z</time>
      </trkpt>
      <trkpt lat="44.65416" lon="6.01642">
        <ele>1752</ele>
        <time>2023-05-15T12:46:08Z</time>
      </trkpt>
      <trkpt lat="44.65416" lon="6.01642">
        <ele>1752</ele>
        <time>2023-05-15T12:46:09Z</time>
      </trkpt>
      <trkpt lat="44.65416" lon="6.01641">
        <ele>1752.2</ele>
        <time>2023-05-15T12:46:11Z</time>
      </trkpt>
      <trkpt lat="44.65417" lon="6.01641">
        <ele>1752.2</ele>
        <time>2023-05-15T12:46:12Z</time>
      </trkpt>
      <trkpt lat="44.65417" lon="6.01641">
        <ele>1752.2</ele>
        <time>2023-05-15T12:46:13Z</time>
      </trkpt>
      <trkpt lat="44.65417" lon="6.01641">
        <ele>1752.4</ele>
        <time>2023-05-15T12:46:14Z</time>
      </trkpt>
      <trkpt lat="44.65417" lon="6.01641">
        <ele>1752.4</ele>
        <time>2023-05-15T12:46:15Z</time>
      </trkpt>
      <trkpt lat="44.65417" lon="6.01641">
        <ele>1752.4</ele>
        <time>2023-05-15T12:46:16Z</time>
      </trkpt>
      <trkpt lat="44.65417" lon="6.01641">
        <ele>1752.6</ele>
        <time>2023-05-15T12:46:17Z</time>
      </trkpt>
      <trkpt lat="44.65417" lon="6.01641">
        <ele>1752.6</ele>
        <time>2023-05-15T12:46:18Z</time>
      </trkpt>
      <trkpt lat="44.65418" lon="6.0164">
        <ele>1752.6</ele>
        <time>2023-05-15T12:46:21Z</time>
      </trkpt>
      <trkpt lat="44.65419" lon="6.01639">
        <ele>1752.6</ele>
        <time>2023-05-15T12:46:29Z</time>
      </trkpt>
      <trkpt lat="44.65419" lon="6.01639">
        <ele>1752.8</ele>
        <time>2023-05-15T12:46:40Z</time>
      </trkpt>
      <trkpt lat="44.65419" lon="6.01639">
        <ele>1753</ele>
        <time>2023-05-15T12:46:43Z</time>
      </trkpt>
      <trkpt lat="44.65419" lon="6.01639">
        <ele>1753.6</ele>
        <time>2023-05-15T12:46:53Z</time>
      </trkpt>
      <trkpt lat="44.6542" lon="6.01638">
        <ele>1753.6</ele>
        <time>2023-05-15T12:47:15Z</time>
      </trkpt>
      <trkpt lat="44.6542" lon="6.01637">
        <ele>1754</ele>
        <time>2023-05-15T12:47:25Z</time>
      </trkpt>
      <trkpt lat="44.65422" lon="6.01637">
        <ele>1754.2</ele>
        <time>2023-05-15T12:47:33Z</time>
      </trkpt>
      <trkpt lat="44.65425" lon="6.01636">
        <ele>1754.2</ele>
        <time>2023-05-15T12:47:40Z</time>
      </trkpt>
      <trkpt lat="44.65425" lon="6.01636">
        <ele>1754.4</ele>
        <time>2023-05-15T12:47:47Z</time>
      </trkpt>
      <trkpt lat="44.65425" lon="6.01635">
        <ele>1754.6</ele>
        <time>2023-05-15T12:47:50Z</time>
      </trkpt>
      <trkpt lat="44.65427" lon="6.01633">
        <ele>1754</ele>
        <time>2023-05-15T12:47:58Z</time>
      </trkpt>
      <trkpt lat="44.65429" lon="6.01631">
        <ele>1754.4</ele>
        <time>2023-05-15T12:48:05Z</time>
      </trkpt>
      <trkpt lat="44.65433" lon="6.01628">
        <ele>1754.6</ele>
        <time>2023-05-15T12:48:11Z</time>
      </trkpt>
      <trkpt lat="44.65433" lon="6.01628">
        <ele>1754.6</ele>
        <time>2023-05-15T12:48:12Z</time>
      </trkpt>
      <trkpt lat="44.65433" lon="6.01628">
        <ele>1754.8</ele>
        <time>2023-05-15T12:48:13Z</time>
      </trkpt>
      <trkpt lat="44.65433" lon="6.01628">
        <ele>1754.8</ele>
        <time>2023-05-15T12:48:14Z</time>
      </trkpt>
      <trkpt lat="44.65434" lon="6.01627">
        <ele>1754.8</ele>
        <time>2023-05-15T12:48:22Z</time>
      </trkpt>
      <trkpt lat="44.65436" lon="6.01627">
        <ele>1754.8</ele>
        <time>2023-05-15T12:48:25Z</time>
      </trkpt>
      <trkpt lat="44.65437" lon="6.01627">
        <ele>1754.8</ele>
        <time>2023-05-15T12:48:26Z</time>
      </trkpt>
      <trkpt lat="44.65438" lon="6.01626">
        <ele>1754.8</ele>
        <time>2023-05-15T12:48:27Z</time>
      </trkpt>
      <trkpt lat="44.65439" lon="6.01625">
        <ele>1754.8</ele>
        <time>2023-05-15T12:48:28Z</time>
      </trkpt>
      <trkpt lat="44.65439" lon="6.01625">
        <ele>1754.8</ele>
        <time>2023-05-15T12:48:29Z</time>
      </trkpt>
      <trkpt lat="44.6544" lon="6.01624">
        <ele>1754.8</ele>
        <time>2023-05-15T12:48:32Z</time>
      </trkpt>
      <trkpt lat="44.65442" lon="6.01623">
        <ele>1754.6</ele>
        <time>2023-05-15T12:48:36Z</time>
      </trkpt>
      <trkpt lat="44.65442" lon="6.01622">
        <ele>1754.6</ele>
        <time>2023-05-15T12:48:37Z</time>
      </trkpt>
      <trkpt lat="44.65442" lon="6.01622">
        <ele>1754.6</ele>
        <time>2023-05-15T12:48:38Z</time>
      </trkpt>
      <trkpt lat="44.65443" lon="6.01622">
        <ele>1754.4</ele>
        <time>2023-05-15T12:48:41Z</time>
      </trkpt>
      <trkpt lat="44.65443" lon="6.01622">
        <ele>1754.2</ele>
        <time>2023-05-15T12:48:45Z</time>
      </trkpt>
      <trkpt lat="44.65443" lon="6.01622">
        <ele>1754.6</ele>
        <time>2023-05-15T12:48:52Z</time>
      </trkpt>
      <trkpt lat="44.65443" lon="6.01622">
        <ele>1754.8</ele>
        <time>2023-05-15T12:48:56Z</time>
      </trkpt>
      <trkpt lat="44.65444" lon="6.01621">
        <ele>1755</ele>
        <time>2023-05-15T12:49:02Z</time>
      </trkpt>
      <trkpt lat="44.65444" lon="6.01621">
        <ele>1754.8</ele>
        <time>2023-05-15T12:49:11Z</time>
      </trkpt>
      <trkpt lat="44.65444" lon="6.01621">
        <ele>1755</ele>
        <time>2023-05-15T12:49:21Z</time>
      </trkpt>
      <trkpt lat="44.65445" lon="6.01621">
        <ele>1755.4</ele>
        <time>2023-05-15T12:49:31Z</time>
      </trkpt>
      <trkpt lat="44.65446" lon="6.01619">
        <ele>1755.4</ele>
        <time>2023-05-15T12:49:37Z</time>
      </trkpt>
      <trkpt lat="44.65446" lon="6.01617">
        <ele>1755.2</ele>
        <time>2023-05-15T12:49:40Z</time>
      </trkpt>
      <trkpt lat="44.65447" lon="6.01614">
        <ele>1754.6</ele>
        <time>2023-05-15T12:49:48Z</time>
      </trkpt>
      <trkpt lat="44.65446" lon="6.01609">
        <ele>1754.4</ele>
        <time>2023-05-15T12:49:52Z</time>
      </trkpt>
      <trkpt lat="44.65446" lon="6.01609">
        <ele>1754.4</ele>
        <time>2023-05-15T12:49:53Z</time>
      </trkpt>
      <trkpt lat="44.65446" lon="6.01608">
        <ele>1754.2</ele>
        <time>2023-05-15T12:49:54Z</time>
      </trkpt>
      <trkpt lat="44.65446" lon="6.01606">
        <ele>1754.2</ele>
        <time>2023-05-15T12:49:55Z</time>
      </trkpt>
      <trkpt lat="44.65444" lon="6.01604">
        <ele>1753.8</ele>
        <time>2023-05-15T12:49:57Z</time>
      </trkpt>
      <trkpt lat="44.65444" lon="6.01603">
        <ele>1753.8</ele>
        <time>2023-05-15T12:49:58Z</time>
      </trkpt>
      <trkpt lat="44.65444" lon="6.01601">
        <ele>1753.6</ele>
        <time>2023-05-15T12:49:59Z</time>
      </trkpt>
      <trkpt lat="44.65444" lon="6.016">
        <ele>1753.6</ele>
        <time>2023-05-15T12:50:00Z</time>
      </trkpt>
      <trkpt lat="44.65444" lon="6.01598">
        <ele>1753.6</ele>
        <time>2023-05-15T12:50:01Z</time>
      </trkpt>
      <trkpt lat="44.65444" lon="6.01596">
        <ele>1753.4</ele>
        <time>2023-05-15T12:50:02Z</time>
      </trkpt>
      <trkpt lat="44.65444" lon="6.01595">
        <ele>1753.2</ele>
        <time>2023-05-15T12:50:03Z</time>
      </trkpt>
      <trkpt lat="44.65444" lon="6.01593">
        <ele>1753.2</ele>
        <time>2023-05-15T12:50:04Z</time>
      </trkpt>
      <trkpt lat="44.65445" lon="6.01588">
        <ele>1752.8</ele>
        <time>2023-05-15T12:50:08Z</time>
      </trkpt>
      <trkpt lat="44.65445" lon="6.01588">
        <ele>1752.8</ele>
        <time>2023-05-15T12:50:10Z</time>
      </trkpt>
      <trkpt lat="44.65447" lon="6.01586">
        <ele>1752.8</ele>
        <time>2023-05-15T12:50:12Z</time>
      </trkpt>
      <trkpt lat="44.65448" lon="6.01585">
        <ele>1752.8</ele>
        <time>2023-05-15T12:50:13Z</time>
      </trkpt>
      <trkpt lat="44.65449" lon="6.01585">
        <ele>1752.8</ele>
        <time>2023-05-15T12:50:14Z</time>
      </trkpt>
      <trkpt lat="44.65449" lon="6.01584">
        <ele>1752.8</ele>
        <time>2023-05-15T12:50:15Z</time>
      </trkpt>
      <trkpt lat="44.6545" lon="6.01584">
        <ele>1752.8</ele>
        <time>2023-05-15T12:50:16Z</time>
      </trkpt>
      <trkpt lat="44.65451" lon="6.01583">
        <ele>1752.8</ele>
        <time>2023-05-15T12:50:17Z</time>
      </trkpt>
      <trkpt lat="44.65451" lon="6.01583">
        <ele>1752.8</ele>
        <time>2023-05-15T12:50:18Z</time>
      </trkpt>
      <trkpt lat="44.65452" lon="6.01582">
        <ele>1753</ele>
        <time>2023-05-15T12:50:19Z</time>
      </trkpt>
      <trkpt lat="44.65454" lon="6.01582">
        <ele>1753.2</ele>
        <time>2023-05-15T12:50:22Z</time>
      </trkpt>
      <trkpt lat="44.65455" lon="6.01581">
        <ele>1753.2</ele>
        <time>2023-05-15T12:50:23Z</time>
      </trkpt>
      <trkpt lat="44.65455" lon="6.01581">
        <ele>1753.2</ele>
        <time>2023-05-15T12:50:24Z</time>
      </trkpt>
      <trkpt lat="44.65456" lon="6.0158">
        <ele>1753.2</ele>
        <time>2023-05-15T12:50:25Z</time>
      </trkpt>
      <trkpt lat="44.65457" lon="6.01579">
        <ele>1753.2</ele>
        <time>2023-05-15T12:50:26Z</time>
      </trkpt>
      <trkpt lat="44.65458" lon="6.01579">
        <ele>1753.4</ele>
        <time>2023-05-15T12:50:27Z</time>
      </trkpt>
      <trkpt lat="44.65458" lon="6.01579">
        <ele>1753.4</ele>
        <time>2023-05-15T12:50:28Z</time>
      </trkpt>
      <trkpt lat="44.65458" lon="6.01579">
        <ele>1753.4</ele>
        <time>2023-05-15T12:50:29Z</time>
      </trkpt>
      <trkpt lat="44.65458" lon="6.01579">
        <ele>1753.4</ele>
        <time>2023-05-15T12:50:30Z</time>
      </trkpt>
      <trkpt lat="44.65459" lon="6.01579">
        <ele>1753.6</ele>
        <time>2023-05-15T12:50:35Z</time>
      </trkpt>
      <trkpt lat="44.65462" lon="6.01579">
        <ele>1753.8</ele>
        <time>2023-05-15T12:50:40Z</time>
      </trkpt>
      <trkpt lat="44.65464" lon="6.01578">
        <ele>1754</ele>
        <time>2023-05-15T12:50:44Z</time>
      </trkpt>
      <trkpt lat="44.65465" lon="6.01578">
        <ele>1754</ele>
        <time>2023-05-15T12:50:45Z</time>
      </trkpt>
      <trkpt lat="44.65466" lon="6.01578">
        <ele>1754</ele>
        <time>2023-05-15T12:50:46Z</time>
      </trkpt>
      <trkpt lat="44.65467" lon="6.01577">
        <ele>1754</ele>
        <time>2023-05-15T12:50:49Z</time>
      </trkpt>
      <trkpt lat="44.65468" lon="6.01577">
        <ele>1754</ele>
        <time>2023-05-15T12:50:50Z</time>
      </trkpt>
      <trkpt lat="44.65468" lon="6.01576">
        <ele>1754</ele>
        <time>2023-05-15T12:50:51Z</time>
      </trkpt>
      <trkpt lat="44.65469" lon="6.01576">
        <ele>1754</ele>
        <time>2023-05-15T12:50:56Z</time>
      </trkpt>
      <trkpt lat="44.6547" lon="6.01575">
        <ele>1754</ele>
        <time>2023-05-15T12:51:00Z</time>
      </trkpt>
      <trkpt lat="44.6547" lon="6.01575">
        <ele>1754</ele>
        <time>2023-05-15T12:51:01Z</time>
      </trkpt>
      <trkpt lat="44.65471" lon="6.01575">
        <ele>1754</ele>
        <time>2023-05-15T12:51:02Z</time>
      </trkpt>
      <trkpt lat="44.65471" lon="6.01575">
        <ele>1754</ele>
        <time>2023-05-15T12:51:03Z</time>
      </trkpt>
      <trkpt lat="44.65471" lon="6.01574">
        <ele>1754</ele>
        <time>2023-05-15T12:51:04Z</time>
      </trkpt>
      <trkpt lat="44.65471" lon="6.01574">
        <ele>1754.2</ele>
        <time>2023-05-15T12:51:05Z</time>
      </trkpt>
      <trkpt lat="44.65471" lon="6.01574">
        <ele>1754.2</ele>
        <time>2023-05-15T12:51:06Z</time>
      </trkpt>
      <trkpt lat="44.65471" lon="6.01573">
        <ele>1754.4</ele>
        <time>2023-05-15T12:51:11Z</time>
      </trkpt>
      <trkpt lat="44.65471" lon="6.01573">
        <ele>1754.4</ele>
        <time>2023-05-15T12:51:13Z</time>
      </trkpt>
      <trkpt lat="44.65474" lon="6.01568">
        <ele>1754.6</ele>
        <time>2023-05-15T12:51:20Z</time>
      </trkpt>
      <trkpt lat="44.65474" lon="6.01568">
        <ele>1754.8</ele>
        <time>2023-05-15T12:51:21Z</time>
      </trkpt>
      <trkpt lat="44.65474" lon="6.01568">
        <ele>1754.8</ele>
        <time>2023-05-15T12:51:22Z</time>
      </trkpt>
      <trkpt lat="44.65475" lon="6.01567">
        <ele>1755</ele>
        <time>2023-05-15T12:51:24Z</time>
      </trkpt>
      <trkpt lat="44.65475" lon="6.01567">
        <ele>1755.6</ele>
        <time>2023-05-15T12:51:28Z</time>
      </trkpt>
      <trkpt lat="44.65474" lon="6.01567">
        <ele>1756</ele>
        <time>2023-05-15T12:51:36Z</time>
      </trkpt>
      <trkpt lat="44.65474" lon="6.01567">
        <ele>1756.2</ele>
        <time>2023-05-15T12:51:37Z</time>
      </trkpt>
      <trkpt lat="44.65475" lon="6.01567">
        <ele>1757.2</ele>
        <time>2023-05-15T12:51:45Z</time>
      </trkpt>
      <trkpt lat="44.65476" lon="6.01567">
        <ele>1758.2</ele>
        <time>2023-05-15T12:51:50Z</time>
      </trkpt>
      <trkpt lat="44.65477" lon="6.01567">
        <ele>1759.2</ele>
        <time>2023-05-15T12:52:00Z</time>
      </trkpt>
      <trkpt lat="44.65477" lon="6.01567">
        <ele>1759.4</ele>
        <time>2023-05-15T12:52:02Z</time>
      </trkpt>
      <trkpt lat="44.65477" lon="6.01567">
        <ele>1759.4</ele>
        <time>2023-05-15T12:52:03Z</time>
      </trkpt>
      <trkpt lat="44.65478" lon="6.01566">
        <ele>1759.8</ele>
        <time>2023-05-15T12:52:10Z</time>
      </trkpt>
      <trkpt lat="44.65479" lon="6.01566">
        <ele>1760</ele>
        <time>2023-05-15T12:52:13Z</time>
      </trkpt>
      <trkpt lat="44.6548" lon="6.01566">
        <ele>1760.4</ele>
        <time>2023-05-15T12:52:15Z</time>
      </trkpt>
      <trkpt lat="44.6548" lon="6.01566">
        <ele>1760.4</ele>
        <time>2023-05-15T12:52:16Z</time>
      </trkpt>
      <trkpt lat="44.65481" lon="6.01565">
        <ele>1760.8</ele>
        <time>2023-05-15T12:52:23Z</time>
      </trkpt>
      <trkpt lat="44.65483" lon="6.01564">
        <ele>1760.8</ele>
        <time>2023-05-15T12:52:32Z</time>
      </trkpt>
      <trkpt lat="44.65483" lon="6.01564">
        <ele>1760.8</ele>
        <time>2023-05-15T12:52:34Z</time>
      </trkpt>
      <trkpt lat="44.65484" lon="6.01563">
        <ele>1760.8</ele>
        <time>2023-05-15T12:52:42Z</time>
      </trkpt>
      <trkpt lat="44.65484" lon="6.01564">
        <ele>1761</ele>
        <time>2023-05-15T12:52:50Z</time>
      </trkpt>
      <trkpt lat="44.65484" lon="6.01563">
        <ele>1761</ele>
        <time>2023-05-15T12:52:54Z</time>
      </trkpt>
      <trkpt lat="44.65485" lon="6.01563">
        <ele>1761</ele>
        <time>2023-05-15T12:53:02Z</time>
      </trkpt>
      <trkpt lat="44.65486" lon="6.01561">
        <ele>1761</ele>
        <time>2023-05-15T12:53:09Z</time>
      </trkpt>
      <trkpt lat="44.65488" lon="6.01559">
        <ele>1761</ele>
        <time>2023-05-15T12:53:13Z</time>
      </trkpt>
      <trkpt lat="44.65488" lon="6.01559">
        <ele>1761.2</ele>
        <time>2023-05-15T12:53:14Z</time>
      </trkpt>
      <trkpt lat="44.65488" lon="6.01559">
        <ele>1761.2</ele>
        <time>2023-05-15T12:53:16Z</time>
      </trkpt>
      <trkpt lat="44.65488" lon="6.01559">
        <ele>1761.4</ele>
        <time>2023-05-15T12:53:17Z</time>
      </trkpt>
      <trkpt lat="44.65488" lon="6.01558">
        <ele>1761.8</ele>
        <time>2023-05-15T12:53:23Z</time>
      </trkpt>
      <trkpt lat="44.6549" lon="6.01553">
        <ele>1761.8</ele>
        <time>2023-05-15T12:53:31Z</time>
      </trkpt>
      <trkpt lat="44.6549" lon="6.01552">
        <ele>1761.6</ele>
        <time>2023-05-15T12:53:32Z</time>
      </trkpt>
      <trkpt lat="44.6549" lon="6.01551">
        <ele>1761.6</ele>
        <time>2023-05-15T12:53:33Z</time>
      </trkpt>
      <trkpt lat="44.6549" lon="6.0155">
        <ele>1761.6</ele>
        <time>2023-05-15T12:53:34Z</time>
      </trkpt>
      <trkpt lat="44.6549" lon="6.0155">
        <ele>1761.6</ele>
        <time>2023-05-15T12:53:35Z</time>
      </trkpt>
      <trkpt lat="44.6549" lon="6.01548">
        <ele>1761.4</ele>
        <time>2023-05-15T12:53:38Z</time>
      </trkpt>
      <trkpt lat="44.6549" lon="6.01548">
        <ele>1761.4</ele>
        <time>2023-05-15T12:53:39Z</time>
      </trkpt>
      <trkpt lat="44.6549" lon="6.01548">
        <ele>1761.2</ele>
        <time>2023-05-15T12:53:40Z</time>
      </trkpt>
      <trkpt lat="44.6549" lon="6.01548">
        <ele>1761</ele>
        <time>2023-05-15T12:53:41Z</time>
      </trkpt>
      <trkpt lat="44.6549" lon="6.01548">
        <ele>1760.8</ele>
        <time>2023-05-15T12:53:42Z</time>
      </trkpt>
      <trkpt lat="44.6549" lon="6.01548">
        <ele>1760.8</ele>
        <time>2023-05-15T12:53:43Z</time>
      </trkpt>
      <trkpt lat="44.6549" lon="6.01547">
        <ele>1760.6</ele>
        <time>2023-05-15T12:53:44Z</time>
      </trkpt>
      <trkpt lat="44.65488" lon="6.01543">
        <ele>1760.6</ele>
        <time>2023-05-15T12:53:47Z</time>
      </trkpt>
      <trkpt lat="44.65489" lon="6.01542">
        <ele>1760.6</ele>
        <time>2023-05-15T12:53:48Z</time>
      </trkpt>
      <trkpt lat="44.65489" lon="6.01541">
        <ele>1760.6</ele>
        <time>2023-05-15T12:53:49Z</time>
      </trkpt>
      <trkpt lat="44.65488" lon="6.01541">
        <ele>1760.6</ele>
        <time>2023-05-15T12:53:50Z</time>
      </trkpt>
      <trkpt lat="44.65488" lon="6.0154">
        <ele>1760.6</ele>
        <time>2023-05-15T12:53:51Z</time>
      </trkpt>
      <trkpt lat="44.65488" lon="6.01539">
        <ele>1760.6</ele>
        <time>2023-05-15T12:53:52Z</time>
      </trkpt>
      <trkpt lat="44.65488" lon="6.01539">
        <ele>1760.6</ele>
        <time>2023-05-15T12:53:53Z</time>
      </trkpt>
      <trkpt lat="44.65488" lon="6.01538">
        <ele>1760.6</ele>
        <time>2023-05-15T12:53:54Z</time>
      </trkpt>
      <trkpt lat="44.65488" lon="6.01537">
        <ele>1760.8</ele>
        <time>2023-05-15T12:53:56Z</time>
      </trkpt>
      <trkpt lat="44.65487" lon="6.01534">
        <ele>1760.6</ele>
        <time>2023-05-15T12:53:59Z</time>
      </trkpt>
      <trkpt lat="44.65487" lon="6.01533">
        <ele>1760.4</ele>
        <time>2023-05-15T12:54:00Z</time>
      </trkpt>
      <trkpt lat="44.65486" lon="6.01531">
        <ele>1760.2</ele>
        <time>2023-05-15T12:54:02Z</time>
      </trkpt>
      <trkpt lat="44.65486" lon="6.01529">
        <ele>1760</ele>
        <time>2023-05-15T12:54:03Z</time>
      </trkpt>
      <trkpt lat="44.65486" lon="6.01528">
        <ele>1760</ele>
        <time>2023-05-15T12:54:04Z</time>
      </trkpt>
      <trkpt lat="44.65485" lon="6.01527">
        <ele>1759.8</ele>
        <time>2023-05-15T12:54:06Z</time>
      </trkpt>
      <trkpt lat="44.65485" lon="6.01526">
        <ele>1759.6</ele>
        <time>2023-05-15T12:54:07Z</time>
      </trkpt>
      <trkpt lat="44.65486" lon="6.01523">
        <ele>1759.6</ele>
        <time>2023-05-15T12:54:09Z</time>
      </trkpt>
      <trkpt lat="44.65485" lon="6.01522">
        <ele>1759.4</ele>
        <time>2023-05-15T12:54:10Z</time>
      </trkpt>
      <trkpt lat="44.65486" lon="6.0152">
        <ele>1759.4</ele>
        <time>2023-05-15T12:54:11Z</time>
      </trkpt>
      <trkpt lat="44.65486" lon="6.01519">
        <ele>1759.2</ele>
        <time>2023-05-15T12:54:12Z</time>
      </trkpt>
      <trkpt lat="44.65487" lon="6.01518">
        <ele>1759.2</ele>
        <time>2023-05-15T12:54:13Z</time>
      </trkpt>
      <trkpt lat="44.65487" lon="6.01517">
        <ele>1759.2</ele>
        <time>2023-05-15T12:54:14Z</time>
      </trkpt>
      <trkpt lat="44.65488" lon="6.01515">
        <ele>1759.2</ele>
        <time>2023-05-15T12:54:15Z</time>
      </trkpt>
      <trkpt lat="44.65488" lon="6.01513">
        <ele>1759</ele>
        <time>2023-05-15T12:54:16Z</time>
      </trkpt>
      <trkpt lat="44.65488" lon="6.01512">
        <ele>1759</ele>
        <time>2023-05-15T12:54:17Z</time>
      </trkpt>
      <trkpt lat="44.65488" lon="6.01511">
        <ele>1759</ele>
        <time>2023-05-15T12:54:18Z</time>
      </trkpt>
      <trkpt lat="44.65489" lon="6.01506">
        <ele>1758.6</ele>
        <time>2023-05-15T12:54:22Z</time>
      </trkpt>
      <trkpt lat="44.65489" lon="6.01502">
        <ele>1758.4</ele>
        <time>2023-05-15T12:54:25Z</time>
      </trkpt>
      <trkpt lat="44.65489" lon="6.01501">
        <ele>1758.2</ele>
        <time>2023-05-15T12:54:26Z</time>
      </trkpt>
      <trkpt lat="44.6549" lon="6.015">
        <ele>1758.2</ele>
        <time>2023-05-15T12:54:27Z</time>
      </trkpt>
      <trkpt lat="44.6549" lon="6.01499">
        <ele>1758.2</ele>
        <time>2023-05-15T12:54:28Z</time>
      </trkpt>
      <trkpt lat="44.6549" lon="6.01499">
        <ele>1758.2</ele>
        <time>2023-05-15T12:54:29Z</time>
      </trkpt>
      <trkpt lat="44.65491" lon="6.01498">
        <ele>1758.2</ele>
        <time>2023-05-15T12:54:30Z</time>
      </trkpt>
      <trkpt lat="44.65491" lon="6.01498">
        <ele>1758.2</ele>
        <time>2023-05-15T12:54:31Z</time>
      </trkpt>
      <trkpt lat="44.65494" lon="6.01494">
        <ele>1758.4</ele>
        <time>2023-05-15T12:54:36Z</time>
      </trkpt>
      <trkpt lat="44.65495" lon="6.01494">
        <ele>1758.4</ele>
        <time>2023-05-15T12:54:37Z</time>
      </trkpt>
      <trkpt lat="44.65495" lon="6.01494">
        <ele>1758.4</ele>
        <time>2023-05-15T12:54:38Z</time>
      </trkpt>
      <trkpt lat="44.65496" lon="6.01493">
        <ele>1758.6</ele>
        <time>2023-05-15T12:54:39Z</time>
      </trkpt>
      <trkpt lat="44.65496" lon="6.01492">
        <ele>1758.8</ele>
        <time>2023-05-15T12:54:41Z</time>
      </trkpt>
      <trkpt lat="44.65497" lon="6.01492">
        <ele>1758.8</ele>
        <time>2023-05-15T12:54:42Z</time>
      </trkpt>
      <trkpt lat="44.65497" lon="6.01492">
        <ele>1758.8</ele>
        <time>2023-05-15T12:54:43Z</time>
      </trkpt>
      <trkpt lat="44.65498" lon="6.01492">
        <ele>1759</ele>
        <time>2023-05-15T12:54:45Z</time>
      </trkpt>
      <trkpt lat="44.65498" lon="6.01491">
        <ele>1759</ele>
        <time>2023-05-15T12:54:47Z</time>
      </trkpt>
      <trkpt lat="44.65499" lon="6.01491">
        <ele>1759.2</ele>
        <time>2023-05-15T12:54:48Z</time>
      </trkpt>
      <trkpt lat="44.655" lon="6.0149">
        <ele>1759.2</ele>
        <time>2023-05-15T12:54:49Z</time>
      </trkpt>
      <trkpt lat="44.65503" lon="6.01488">
        <ele>1759.4</ele>
        <time>2023-05-15T12:54:54Z</time>
      </trkpt>
      <trkpt lat="44.65503" lon="6.01486">
        <ele>1759.6</ele>
        <time>2023-05-15T12:54:55Z</time>
      </trkpt>
      <trkpt lat="44.65503" lon="6.01485">
        <ele>1759.6</ele>
        <time>2023-05-15T12:54:56Z</time>
      </trkpt>
      <trkpt lat="44.65503" lon="6.01484">
        <ele>1759.6</ele>
        <time>2023-05-15T12:54:57Z</time>
      </trkpt>
      <trkpt lat="44.65503" lon="6.01484">
        <ele>1759.6</ele>
        <time>2023-05-15T12:54:58Z</time>
      </trkpt>
      <trkpt lat="44.65503" lon="6.01483">
        <ele>1759.8</ele>
        <time>2023-05-15T12:55:03Z</time>
      </trkpt>
      <trkpt lat="44.65503" lon="6.01479">
        <ele>1760</ele>
        <time>2023-05-15T12:55:06Z</time>
      </trkpt>
      <trkpt lat="44.65503" lon="6.01478">
        <ele>1760</ele>
        <time>2023-05-15T12:55:07Z</time>
      </trkpt>
      <trkpt lat="44.65503" lon="6.01477">
        <ele>1760</ele>
        <time>2023-05-15T12:55:08Z</time>
      </trkpt>
      <trkpt lat="44.65503" lon="6.01476">
        <ele>1760.2</ele>
        <time>2023-05-15T12:55:11Z</time>
      </trkpt>
      <trkpt lat="44.65502" lon="6.01473">
        <ele>1760.4</ele>
        <time>2023-05-15T12:55:13Z</time>
      </trkpt>
      <trkpt lat="44.65501" lon="6.01472">
        <ele>1760.4</ele>
        <time>2023-05-15T12:55:14Z</time>
      </trkpt>
      <trkpt lat="44.65501" lon="6.01472">
        <ele>1760.4</ele>
        <time>2023-05-15T12:55:15Z</time>
      </trkpt>
      <trkpt lat="44.65501" lon="6.01471">
        <ele>1760.4</ele>
        <time>2023-05-15T12:55:16Z</time>
      </trkpt>
      <trkpt lat="44.65501" lon="6.0147">
        <ele>1760.6</ele>
        <time>2023-05-15T12:55:17Z</time>
      </trkpt>
      <trkpt lat="44.65501" lon="6.01469">
        <ele>1760.6</ele>
        <time>2023-05-15T12:55:18Z</time>
      </trkpt>
      <trkpt lat="44.65503" lon="6.01467">
        <ele>1760.6</ele>
        <time>2023-05-15T12:55:21Z</time>
      </trkpt>
      <trkpt lat="44.65503" lon="6.01467">
        <ele>1760.6</ele>
        <time>2023-05-15T12:55:22Z</time>
      </trkpt>
      <trkpt lat="44.65504" lon="6.01466">
        <ele>1760.6</ele>
        <time>2023-05-15T12:55:23Z</time>
      </trkpt>
      <trkpt lat="44.65505" lon="6.01466">
        <ele>1760.6</ele>
        <time>2023-05-15T12:55:24Z</time>
      </trkpt>
      <trkpt lat="44.65505" lon="6.01465">
        <ele>1760.4</ele>
        <time>2023-05-15T12:55:25Z</time>
      </trkpt>
      <trkpt lat="44.65505" lon="6.01464">
        <ele>1760.4</ele>
        <time>2023-05-15T12:55:26Z</time>
      </trkpt>
      <trkpt lat="44.65506" lon="6.01463">
        <ele>1760.4</ele>
        <time>2023-05-15T12:55:28Z</time>
      </trkpt>
      <trkpt lat="44.65505" lon="6.01463">
        <ele>1760.4</ele>
        <time>2023-05-15T12:55:29Z</time>
      </trkpt>
      <trkpt lat="44.65506" lon="6.01462">
        <ele>1760.4</ele>
        <time>2023-05-15T12:55:30Z</time>
      </trkpt>
      <trkpt lat="44.65506" lon="6.01461">
        <ele>1760.4</ele>
        <time>2023-05-15T12:55:32Z</time>
      </trkpt>
      <trkpt lat="44.65507" lon="6.01461">
        <ele>1760.4</ele>
        <time>2023-05-15T12:55:33Z</time>
      </trkpt>
      <trkpt lat="44.65507" lon="6.0146">
        <ele>1760.4</ele>
        <time>2023-05-15T12:55:34Z</time>
      </trkpt>
      <trkpt lat="44.65507" lon="6.01459">
        <ele>1760.4</ele>
        <time>2023-05-15T12:55:36Z</time>
      </trkpt>
      <trkpt lat="44.65507" lon="6.01459">
        <ele>1760.4</ele>
        <time>2023-05-15T12:55:37Z</time>
      </trkpt>
      <trkpt lat="44.65507" lon="6.01458">
        <ele>1760.4</ele>
        <time>2023-05-15T12:55:38Z</time>
      </trkpt>
      <trkpt lat="44.65507" lon="6.01458">
        <ele>1760.4</ele>
        <time>2023-05-15T12:55:40Z</time>
      </trkpt>
      <trkpt lat="44.65507" lon="6.01458">
        <ele>1760.4</ele>
        <time>2023-05-15T12:55:41Z</time>
      </trkpt>
      <trkpt lat="44.65507" lon="6.01458">
        <ele>1760.4</ele>
        <time>2023-05-15T12:55:42Z</time>
      </trkpt>
      <trkpt lat="44.65508" lon="6.01458">
        <ele>1760.4</ele>
        <time>2023-05-15T12:55:43Z</time>
      </trkpt>
      <trkpt lat="44.65509" lon="6.01457">
        <ele>1760.8</ele>
        <time>2023-05-15T12:55:55Z</time>
      </trkpt>
      <trkpt lat="44.6551" lon="6.01456">
        <ele>1761</ele>
        <time>2023-05-15T12:55:57Z</time>
      </trkpt>
      <trkpt lat="44.6551" lon="6.01453">
        <ele>1761.6</ele>
        <time>2023-05-15T12:56:01Z</time>
      </trkpt>
      <trkpt lat="44.6551" lon="6.01452">
        <ele>1761.8</ele>
        <time>2023-05-15T12:56:02Z</time>
      </trkpt>
      <trkpt lat="44.6551" lon="6.01449">
        <ele>1762</ele>
        <time>2023-05-15T12:56:05Z</time>
      </trkpt>
      <trkpt lat="44.65512" lon="6.01443">
        <ele>1762.4</ele>
        <time>2023-05-15T12:56:11Z</time>
      </trkpt>
      <trkpt lat="44.65512" lon="6.01442">
        <ele>1762.6</ele>
        <time>2023-05-15T12:56:12Z</time>
      </trkpt>
      <trkpt lat="44.65512" lon="6.01441">
        <ele>1763</ele>
        <time>2023-05-15T12:56:15Z</time>
      </trkpt>
      <trkpt lat="44.65512" lon="6.01441">
        <ele>1763</ele>
        <time>2023-05-15T12:56:18Z</time>
      </trkpt>
      <trkpt lat="44.65513" lon="6.01437">
        <ele>1763.4</ele>
        <time>2023-05-15T12:56:25Z</time>
      </trkpt>
      <trkpt lat="44.65513" lon="6.01436">
        <ele>1763.4</ele>
        <time>2023-05-15T12:56:26Z</time>
      </trkpt>
      <trkpt lat="44.65513" lon="6.01433">
        <ele>1763.4</ele>
        <time>2023-05-15T12:56:28Z</time>
      </trkpt>
      <trkpt lat="44.65514" lon="6.01432">
        <ele>1763.4</ele>
        <time>2023-05-15T12:56:29Z</time>
      </trkpt>
      <trkpt lat="44.65515" lon="6.01431">
        <ele>1763.4</ele>
        <time>2023-05-15T12:56:30Z</time>
      </trkpt>
      <trkpt lat="44.65515" lon="6.0143">
        <ele>1763.6</ele>
        <time>2023-05-15T12:56:31Z</time>
      </trkpt>
      <trkpt lat="44.65515" lon="6.01428">
        <ele>1763.8</ele>
        <time>2023-05-15T12:56:32Z</time>
      </trkpt>
      <trkpt lat="44.65516" lon="6.01426">
        <ele>1764.2</ele>
        <time>2023-05-15T12:56:34Z</time>
      </trkpt>
      <trkpt lat="44.65517" lon="6.01425">
        <ele>1764.4</ele>
        <time>2023-05-15T12:56:35Z</time>
      </trkpt>
      <trkpt lat="44.65518" lon="6.01425">
        <ele>1764.4</ele>
        <time>2023-05-15T12:56:36Z</time>
      </trkpt>
      <trkpt lat="44.65518" lon="6.01424">
        <ele>1764.4</ele>
        <time>2023-05-15T12:56:37Z</time>
      </trkpt>
      <trkpt lat="44.65519" lon="6.01423">
        <ele>1764.6</ele>
        <time>2023-05-15T12:56:38Z</time>
      </trkpt>
      <trkpt lat="44.65519" lon="6.01423">
        <ele>1764.8</ele>
        <time>2023-05-15T12:56:40Z</time>
      </trkpt>
      <trkpt lat="44.65519" lon="6.01423">
        <ele>1765.2</ele>
        <time>2023-05-15T12:56:41Z</time>
      </trkpt>
      <trkpt lat="44.65519" lon="6.01422">
        <ele>1765.2</ele>
        <time>2023-05-15T12:56:42Z</time>
      </trkpt>
      <trkpt lat="44.65519" lon="6.01422">
        <ele>1765.4</ele>
        <time>2023-05-15T12:56:43Z</time>
      </trkpt>
      <trkpt lat="44.6552" lon="6.01422">
        <ele>1765.8</ele>
        <time>2023-05-15T12:56:45Z</time>
      </trkpt>
      <trkpt lat="44.65521" lon="6.01421">
        <ele>1765.8</ele>
        <time>2023-05-15T12:56:46Z</time>
      </trkpt>
      <trkpt lat="44.65521" lon="6.01421">
        <ele>1766</ele>
        <time>2023-05-15T12:56:47Z</time>
      </trkpt>
      <trkpt lat="44.65522" lon="6.0142">
        <ele>1766.2</ele>
        <time>2023-05-15T12:56:48Z</time>
      </trkpt>
      <trkpt lat="44.65522" lon="6.01419">
        <ele>1766.4</ele>
        <time>2023-05-15T12:56:49Z</time>
      </trkpt>
      <trkpt lat="44.65523" lon="6.01419">
        <ele>1766.6</ele>
        <time>2023-05-15T12:56:50Z</time>
      </trkpt>
      <trkpt lat="44.65523" lon="6.01418">
        <ele>1766.6</ele>
        <time>2023-05-15T12:56:51Z</time>
      </trkpt>
      <trkpt lat="44.65523" lon="6.01418">
        <ele>1766.8</ele>
        <time>2023-05-15T12:56:54Z</time>
      </trkpt>
      <trkpt lat="44.65524" lon="6.01416">
        <ele>1767</ele>
        <time>2023-05-15T12:56:55Z</time>
      </trkpt>
      <trkpt lat="44.65524" lon="6.01416">
        <ele>1767</ele>
        <time>2023-05-15T12:56:56Z</time>
      </trkpt>
      <trkpt lat="44.65524" lon="6.01415">
        <ele>1767</ele>
        <time>2023-05-15T12:56:57Z</time>
      </trkpt>
      <trkpt lat="44.65525" lon="6.01414">
        <ele>1767</ele>
        <time>2023-05-15T12:56:58Z</time>
      </trkpt>
      <trkpt lat="44.65525" lon="6.01414">
        <ele>1767</ele>
        <time>2023-05-15T12:56:59Z</time>
      </trkpt>
      <trkpt lat="44.65526" lon="6.01413">
        <ele>1767</ele>
        <time>2023-05-15T12:57:00Z</time>
      </trkpt>
      <trkpt lat="44.65526" lon="6.01412">
        <ele>1767</ele>
        <time>2023-05-15T12:57:01Z</time>
      </trkpt>
      <trkpt lat="44.65526" lon="6.01411">
        <ele>1767.2</ele>
        <time>2023-05-15T12:57:02Z</time>
      </trkpt>
      <trkpt lat="44.65527" lon="6.0141">
        <ele>1767.2</ele>
        <time>2023-05-15T12:57:03Z</time>
      </trkpt>
      <trkpt lat="44.65527" lon="6.0141">
        <ele>1767.2</ele>
        <time>2023-05-15T12:57:05Z</time>
      </trkpt>
      <trkpt lat="44.65527" lon="6.01408">
        <ele>1767.4</ele>
        <time>2023-05-15T12:57:06Z</time>
      </trkpt>
      <trkpt lat="44.65528" lon="6.01407">
        <ele>1767.4</ele>
        <time>2023-05-15T12:57:07Z</time>
      </trkpt>
      <trkpt lat="44.65528" lon="6.01404">
        <ele>1767.8</ele>
        <time>2023-05-15T12:57:10Z</time>
      </trkpt>
      <trkpt lat="44.65528" lon="6.01403">
        <ele>1767.8</ele>
        <time>2023-05-15T12:57:11Z</time>
      </trkpt>
      <trkpt lat="44.6553" lon="6.014">
        <ele>1768.6</ele>
        <time>2023-05-15T12:57:15Z</time>
      </trkpt>
      <trkpt lat="44.6553" lon="6.01399">
        <ele>1768.6</ele>
        <time>2023-05-15T12:57:17Z</time>
      </trkpt>
      <trkpt lat="44.6553" lon="6.01399">
        <ele>1768.8</ele>
        <time>2023-05-15T12:57:19Z</time>
      </trkpt>
      <trkpt lat="44.65531" lon="6.01398">
        <ele>1769</ele>
        <time>2023-05-15T12:57:21Z</time>
      </trkpt>
      <trkpt lat="44.65532" lon="6.01396">
        <ele>1769.2</ele>
        <time>2023-05-15T12:57:23Z</time>
      </trkpt>
      <trkpt lat="44.65532" lon="6.01396">
        <ele>1769.2</ele>
        <time>2023-05-15T12:57:24Z</time>
      </trkpt>
      <trkpt lat="44.65532" lon="6.01396">
        <ele>1769.2</ele>
        <time>2023-05-15T12:57:25Z</time>
      </trkpt>
      <trkpt lat="44.65535" lon="6.01393">
        <ele>1769.2</ele>
        <time>2023-05-15T12:57:28Z</time>
      </trkpt>
      <trkpt lat="44.65535" lon="6.01393">
        <ele>1769.2</ele>
        <time>2023-05-15T12:57:29Z</time>
      </trkpt>
      <trkpt lat="44.65535" lon="6.01392">
        <ele>1769.2</ele>
        <time>2023-05-15T12:57:30Z</time>
      </trkpt>
      <trkpt lat="44.65535" lon="6.01392">
        <ele>1769.2</ele>
        <time>2023-05-15T12:57:31Z</time>
      </trkpt>
      <trkpt lat="44.65536" lon="6.01392">
        <ele>1769.2</ele>
        <time>2023-05-15T12:57:32Z</time>
      </trkpt>
      <trkpt lat="44.65536" lon="6.0139">
        <ele>1769.2</ele>
        <time>2023-05-15T12:57:34Z</time>
      </trkpt>
      <trkpt lat="44.65537" lon="6.01387">
        <ele>1769.4</ele>
        <time>2023-05-15T12:57:36Z</time>
      </trkpt>
      <trkpt lat="44.65537" lon="6.01386">
        <ele>1769.4</ele>
        <time>2023-05-15T12:57:37Z</time>
      </trkpt>
      <trkpt lat="44.65537" lon="6.01385">
        <ele>1769.4</ele>
        <time>2023-05-15T12:57:38Z</time>
      </trkpt>
      <trkpt lat="44.65538" lon="6.01384">
        <ele>1769.6</ele>
        <time>2023-05-15T12:57:39Z</time>
      </trkpt>
      <trkpt lat="44.6554" lon="6.01379">
        <ele>1769.8</ele>
        <time>2023-05-15T12:57:44Z</time>
      </trkpt>
      <trkpt lat="44.6554" lon="6.01379">
        <ele>1769.8</ele>
        <time>2023-05-15T12:57:45Z</time>
      </trkpt>
      <trkpt lat="44.6554" lon="6.01378">
        <ele>1770</ele>
        <time>2023-05-15T12:57:50Z</time>
      </trkpt>
      <trkpt lat="44.65541" lon="6.01377">
        <ele>1770</ele>
        <time>2023-05-15T12:57:51Z</time>
      </trkpt>
      <trkpt lat="44.65543" lon="6.01374">
        <ele>1770.2</ele>
        <time>2023-05-15T12:57:55Z</time>
      </trkpt>
      <trkpt lat="44.65543" lon="6.01373">
        <ele>1770.2</ele>
        <time>2023-05-15T12:57:56Z</time>
      </trkpt>
      <trkpt lat="44.65543" lon="6.01371">
        <ele>1770.2</ele>
        <time>2023-05-15T12:57:57Z</time>
      </trkpt>
      <trkpt lat="44.65543" lon="6.0137">
        <ele>1770.2</ele>
        <time>2023-05-15T12:57:58Z</time>
      </trkpt>
      <trkpt lat="44.65543" lon="6.01369">
        <ele>1770.4</ele>
        <time>2023-05-15T12:57:59Z</time>
      </trkpt>
      <trkpt lat="44.65543" lon="6.01368">
        <ele>1770.4</ele>
        <time>2023-05-15T12:58:00Z</time>
      </trkpt>
      <trkpt lat="44.65545" lon="6.01361">
        <ele>1770.6</ele>
        <time>2023-05-15T12:58:06Z</time>
      </trkpt>
      <trkpt lat="44.65546" lon="6.0136">
        <ele>1770.6</ele>
        <time>2023-05-15T12:58:07Z</time>
      </trkpt>
      <trkpt lat="44.65546" lon="6.0136">
        <ele>1770.6</ele>
        <time>2023-05-15T12:58:08Z</time>
      </trkpt>
      <trkpt lat="44.65547" lon="6.01359">
        <ele>1770.6</ele>
        <time>2023-05-15T12:58:09Z</time>
      </trkpt>
      <trkpt lat="44.65547" lon="6.01358">
        <ele>1770.8</ele>
        <time>2023-05-15T12:58:10Z</time>
      </trkpt>
      <trkpt lat="44.65548" lon="6.01358">
        <ele>1770.8</ele>
        <time>2023-05-15T12:58:11Z</time>
      </trkpt>
      <trkpt lat="44.65549" lon="6.01356">
        <ele>1771</ele>
        <time>2023-05-15T12:58:13Z</time>
      </trkpt>
      <trkpt lat="44.65549" lon="6.01356">
        <ele>1771</ele>
        <time>2023-05-15T12:58:14Z</time>
      </trkpt>
      <trkpt lat="44.65549" lon="6.01355">
        <ele>1771</ele>
        <time>2023-05-15T12:58:15Z</time>
      </trkpt>
      <trkpt lat="44.6555" lon="6.01355">
        <ele>1771</ele>
        <time>2023-05-15T12:58:16Z</time>
      </trkpt>
      <trkpt lat="44.6555" lon="6.01354">
        <ele>1771.2</ele>
        <time>2023-05-15T12:58:17Z</time>
      </trkpt>
      <trkpt lat="44.6555" lon="6.01353">
        <ele>1771.2</ele>
        <time>2023-05-15T12:58:18Z</time>
      </trkpt>
      <trkpt lat="44.65551" lon="6.01352">
        <ele>1771.2</ele>
        <time>2023-05-15T12:58:19Z</time>
      </trkpt>
      <trkpt lat="44.65551" lon="6.01352">
        <ele>1771.2</ele>
        <time>2023-05-15T12:58:20Z</time>
      </trkpt>
      <trkpt lat="44.65551" lon="6.01352">
        <ele>1771.4</ele>
        <time>2023-05-15T12:58:21Z</time>
      </trkpt>
      <trkpt lat="44.65551" lon="6.01351">
        <ele>1771.4</ele>
        <time>2023-05-15T12:58:22Z</time>
      </trkpt>
      <trkpt lat="44.65551" lon="6.01349">
        <ele>1771.8</ele>
        <time>2023-05-15T12:58:27Z</time>
      </trkpt>
      <trkpt lat="44.65551" lon="6.01348">
        <ele>1772.4</ele>
        <time>2023-05-15T12:58:32Z</time>
      </trkpt>
      <trkpt lat="44.65551" lon="6.01348">
        <ele>1772.6</ele>
        <time>2023-05-15T12:58:33Z</time>
      </trkpt>
      <trkpt lat="44.65552" lon="6.01347">
        <ele>1772.8</ele>
        <time>2023-05-15T12:58:41Z</time>
      </trkpt>
      <trkpt lat="44.65552" lon="6.01338">
        <ele>1772.2</ele>
        <time>2023-05-15T12:58:48Z</time>
      </trkpt>
      <trkpt lat="44.65552" lon="6.01336">
        <ele>1772.2</ele>
        <time>2023-05-15T12:58:49Z</time>
      </trkpt>
      <trkpt lat="44.65552" lon="6.01334">
        <ele>1772.2</ele>
        <time>2023-05-15T12:58:50Z</time>
      </trkpt>
      <trkpt lat="44.65553" lon="6.01333">
        <ele>1772.2</ele>
        <time>2023-05-15T12:58:51Z</time>
      </trkpt>
      <trkpt lat="44.65553" lon="6.01331">
        <ele>1772.2</ele>
        <time>2023-05-15T12:58:52Z</time>
      </trkpt>
      <trkpt lat="44.65554" lon="6.01329">
        <ele>1772.2</ele>
        <time>2023-05-15T12:58:53Z</time>
      </trkpt>
      <trkpt lat="44.65555" lon="6.01328">
        <ele>1772.2</ele>
        <time>2023-05-15T12:58:54Z</time>
      </trkpt>
      <trkpt lat="44.65556" lon="6.01327">
        <ele>1772.4</ele>
        <time>2023-05-15T12:58:55Z</time>
      </trkpt>
      <trkpt lat="44.65558" lon="6.01323">
        <ele>1772.8</ele>
        <time>2023-05-15T12:58:58Z</time>
      </trkpt>
      <trkpt lat="44.65558" lon="6.01322">
        <ele>1773</ele>
        <time>2023-05-15T12:58:59Z</time>
      </trkpt>
      <trkpt lat="44.65558" lon="6.01321">
        <ele>1773.2</ele>
        <time>2023-05-15T12:59:00Z</time>
      </trkpt>
      <trkpt lat="44.65555" lon="6.01318">
        <ele>1773.4</ele>
        <time>2023-05-15T12:59:02Z</time>
      </trkpt>
      <trkpt lat="44.65554" lon="6.01316">
        <ele>1773.4</ele>
        <time>2023-05-15T12:59:03Z</time>
      </trkpt>
      <trkpt lat="44.65552" lon="6.01311">
        <ele>1773.6</ele>
        <time>2023-05-15T12:59:06Z</time>
      </trkpt>
      <trkpt lat="44.65552" lon="6.01309">
        <ele>1773.8</ele>
        <time>2023-05-15T12:59:07Z</time>
      </trkpt>
      <trkpt lat="44.65541" lon="6.01296">
        <ele>1773.8</ele>
        <time>2023-05-15T12:59:15Z</time>
      </trkpt>
      <trkpt lat="44.6554" lon="6.01295">
        <ele>1773.6</ele>
        <time>2023-05-15T12:59:16Z</time>
      </trkpt>
      <trkpt lat="44.6554" lon="6.01294">
        <ele>1773.6</ele>
        <time>2023-05-15T12:59:17Z</time>
      </trkpt>
      <trkpt lat="44.6554" lon="6.01294">
        <ele>1773.6</ele>
        <time>2023-05-15T12:59:18Z</time>
      </trkpt>
      <trkpt lat="44.6554" lon="6.01294">
        <ele>1773.4</ele>
        <time>2023-05-15T12:59:21Z</time>
      </trkpt>
      <trkpt lat="44.6554" lon="6.01294">
        <ele>1773.4</ele>
        <time>2023-05-15T12:59:25Z</time>
      </trkpt>
      <trkpt lat="44.6554" lon="6.01294">
        <ele>1773.2</ele>
        <time>2023-05-15T12:59:34Z</time>
      </trkpt>
      <trkpt lat="44.65538" lon="6.0129">
        <ele>1773</ele>
        <time>2023-05-15T12:59:48Z</time>
      </trkpt>
      <trkpt lat="44.65538" lon="6.0129">
        <ele>1773</ele>
        <time>2023-05-15T12:59:49Z</time>
      </trkpt>
      <trkpt lat="44.65539" lon="6.01288">
        <ele>1772.8</ele>
        <time>2023-05-15T12:59:55Z</time>
      </trkpt>
      <trkpt lat="44.65539" lon="6.01285">
        <ele>1772.8</ele>
        <time>2023-05-15T12:59:58Z</time>
      </trkpt>
      <trkpt lat="44.65539" lon="6.01284">
        <ele>1772.6</ele>
        <time>2023-05-15T13:00:02Z</time>
      </trkpt>
      <trkpt lat="44.6554" lon="6.01282">
        <ele>1772.6</ele>
        <time>2023-05-15T13:00:05Z</time>
      </trkpt>
      <trkpt lat="44.6554" lon="6.01282">
        <ele>1772.6</ele>
        <time>2023-05-15T13:00:06Z</time>
      </trkpt>
      <trkpt lat="44.6554" lon="6.01282">
        <ele>1773</ele>
        <time>2023-05-15T13:00:10Z</time>
      </trkpt>
      <trkpt lat="44.65541" lon="6.01281">
        <ele>1773.4</ele>
        <time>2023-05-15T13:00:13Z</time>
      </trkpt>
      <trkpt lat="44.65541" lon="6.0128">
        <ele>1773.8</ele>
        <time>2023-05-15T13:00:17Z</time>
      </trkpt>
      <trkpt lat="44.65543" lon="6.01277">
        <ele>1774.2</ele>
        <time>2023-05-15T13:00:24Z</time>
      </trkpt>
      <trkpt lat="44.65543" lon="6.01276">
        <ele>1774.4</ele>
        <time>2023-05-15T13:00:30Z</time>
      </trkpt>
      <trkpt lat="44.65543" lon="6.01275">
        <ele>1774.6</ele>
        <time>2023-05-15T13:00:31Z</time>
      </trkpt>
      <trkpt lat="44.65545" lon="6.01273">
        <ele>1776.2</ele>
        <time>2023-05-15T13:00:36Z</time>
      </trkpt>
      <trkpt lat="44.65546" lon="6.0127">
        <ele>1776.4</ele>
        <time>2023-05-15T13:00:39Z</time>
      </trkpt>
      <trkpt lat="44.65547" lon="6.01267">
        <ele>1776.6</ele>
        <time>2023-05-15T13:00:42Z</time>
      </trkpt>
      <trkpt lat="44.65548" lon="6.01266">
        <ele>1776.6</ele>
        <time>2023-05-15T13:00:43Z</time>
      </trkpt>
      <trkpt lat="44.65549" lon="6.01265">
        <ele>1776.6</ele>
        <time>2023-05-15T13:00:44Z</time>
      </trkpt>
      <trkpt lat="44.65549" lon="6.01264">
        <ele>1776.6</ele>
        <time>2023-05-15T13:00:45Z</time>
      </trkpt>
      <trkpt lat="44.6555" lon="6.01263">
        <ele>1776.8</ele>
        <time>2023-05-15T13:00:46Z</time>
      </trkpt>
      <trkpt lat="44.6555" lon="6.01263">
        <ele>1776.8</ele>
        <time>2023-05-15T13:00:47Z</time>
      </trkpt>
      <trkpt lat="44.6555" lon="6.01262">
        <ele>1776.8</ele>
        <time>2023-05-15T13:00:48Z</time>
      </trkpt>
      <trkpt lat="44.65551" lon="6.01261">
        <ele>1776.8</ele>
        <time>2023-05-15T13:00:49Z</time>
      </trkpt>
      <trkpt lat="44.65552" lon="6.01261">
        <ele>1777</ele>
        <time>2023-05-15T13:00:50Z</time>
      </trkpt>
      <trkpt lat="44.65552" lon="6.0126">
        <ele>1777</ele>
        <time>2023-05-15T13:00:51Z</time>
      </trkpt>
      <trkpt lat="44.65552" lon="6.01259">
        <ele>1777.2</ele>
        <time>2023-05-15T13:00:52Z</time>
      </trkpt>
      <trkpt lat="44.65553" lon="6.01258">
        <ele>1777.6</ele>
        <time>2023-05-15T13:00:55Z</time>
      </trkpt>
      <trkpt lat="44.65553" lon="6.01257">
        <ele>1777.8</ele>
        <time>2023-05-15T13:00:56Z</time>
      </trkpt>
      <trkpt lat="44.65554" lon="6.01257">
        <ele>1778</ele>
        <time>2023-05-15T13:00:57Z</time>
      </trkpt>
      <trkpt lat="44.65554" lon="6.01257">
        <ele>1778.2</ele>
        <time>2023-05-15T13:00:58Z</time>
      </trkpt>
      <trkpt lat="44.65554" lon="6.01256">
        <ele>1778.2</ele>
        <time>2023-05-15T13:00:59Z</time>
      </trkpt>
      <trkpt lat="44.65554" lon="6.01256">
        <ele>1778.2</ele>
        <time>2023-05-15T13:01:00Z</time>
      </trkpt>
      <trkpt lat="44.65554" lon="6.01256">
        <ele>1778.4</ele>
        <time>2023-05-15T13:01:01Z</time>
      </trkpt>
      <trkpt lat="44.65555" lon="6.01256">
        <ele>1778.4</ele>
        <time>2023-05-15T13:01:02Z</time>
      </trkpt>
      <trkpt lat="44.65555" lon="6.01256">
        <ele>1778.6</ele>
        <time>2023-05-15T13:01:03Z</time>
      </trkpt>
      <trkpt lat="44.65555" lon="6.01255">
        <ele>1778.6</ele>
        <time>2023-05-15T13:01:04Z</time>
      </trkpt>
      <trkpt lat="44.65555" lon="6.01255">
        <ele>1778.6</ele>
        <time>2023-05-15T13:01:05Z</time>
      </trkpt>
      <trkpt lat="44.65556" lon="6.01254">
        <ele>1778.8</ele>
        <time>2023-05-15T13:01:06Z</time>
      </trkpt>
      <trkpt lat="44.65556" lon="6.01254">
        <ele>1778.8</ele>
        <time>2023-05-15T13:01:07Z</time>
      </trkpt>
      <trkpt lat="44.65556" lon="6.01254">
        <ele>1779</ele>
        <time>2023-05-15T13:01:08Z</time>
      </trkpt>
      <trkpt lat="44.65556" lon="6.01254">
        <ele>1779</ele>
        <time>2023-05-15T13:01:09Z</time>
      </trkpt>
      <trkpt lat="44.65556" lon="6.01254">
        <ele>1779.2</ele>
        <time>2023-05-15T13:01:12Z</time>
      </trkpt>
      <trkpt lat="44.65556" lon="6.01254">
        <ele>1779.6</ele>
        <time>2023-05-15T13:01:14Z</time>
      </trkpt>
      <trkpt lat="44.65557" lon="6.01252">
        <ele>1779.8</ele>
        <time>2023-05-15T13:01:17Z</time>
      </trkpt>
      <trkpt lat="44.65558" lon="6.01252">
        <ele>1779.6</ele>
        <time>2023-05-15T13:01:18Z</time>
      </trkpt>
      <trkpt lat="44.65558" lon="6.01252">
        <ele>1779.8</ele>
        <time>2023-05-15T13:01:19Z</time>
      </trkpt>
      <trkpt lat="44.65558" lon="6.01252">
        <ele>1780.4</ele>
        <time>2023-05-15T13:01:22Z</time>
      </trkpt>
      <trkpt lat="44.6556" lon="6.01249">
        <ele>1781</ele>
        <time>2023-05-15T13:01:25Z</time>
      </trkpt>
      <trkpt lat="44.6556" lon="6.01249">
        <ele>1781.4</ele>
        <time>2023-05-15T13:01:26Z</time>
      </trkpt>
      <trkpt lat="44.6556" lon="6.01249">
        <ele>1781.4</ele>
        <time>2023-05-15T13:01:27Z</time>
      </trkpt>
      <trkpt lat="44.6556" lon="6.01249">
        <ele>1781.6</ele>
        <time>2023-05-15T13:01:28Z</time>
      </trkpt>
      <trkpt lat="44.6556" lon="6.01249">
        <ele>1781.6</ele>
        <time>2023-05-15T13:01:29Z</time>
      </trkpt>
      <trkpt lat="44.65561" lon="6.01248">
        <ele>1781.6</ele>
        <time>2023-05-15T13:01:30Z</time>
      </trkpt>
      <trkpt lat="44.65561" lon="6.01248">
        <ele>1781.8</ele>
        <time>2023-05-15T13:01:31Z</time>
      </trkpt>
      <trkpt lat="44.65561" lon="6.01248">
        <ele>1782</ele>
        <time>2023-05-15T13:01:32Z</time>
      </trkpt>
      <trkpt lat="44.65561" lon="6.01248">
        <ele>1782.4</ele>
        <time>2023-05-15T13:01:33Z</time>
      </trkpt>
      <trkpt lat="44.65561" lon="6.01248">
        <ele>1782.6</ele>
        <time>2023-05-15T13:01:34Z</time>
      </trkpt>
      <trkpt lat="44.65561" lon="6.01248">
        <ele>1783.2</ele>
        <time>2023-05-15T13:01:38Z</time>
      </trkpt>
      <trkpt lat="44.65564" lon="6.01243">
        <ele>1783.8</ele>
        <time>2023-05-15T13:01:45Z</time>
      </trkpt>
      <trkpt lat="44.65564" lon="6.01243">
        <ele>1784</ele>
        <time>2023-05-15T13:01:46Z</time>
      </trkpt>
      <trkpt lat="44.65564" lon="6.01243">
        <ele>1784.4</ele>
        <time>2023-05-15T13:01:47Z</time>
      </trkpt>
      <trkpt lat="44.65564" lon="6.01243">
        <ele>1784.4</ele>
        <time>2023-05-15T13:01:48Z</time>
      </trkpt>
      <trkpt lat="44.65565" lon="6.01243">
        <ele>1784.6</ele>
        <time>2023-05-15T13:01:49Z</time>
      </trkpt>
      <trkpt lat="44.65565" lon="6.01243">
        <ele>1785</ele>
        <time>2023-05-15T13:01:51Z</time>
      </trkpt>
      <trkpt lat="44.65566" lon="6.01242">
        <ele>1785.2</ele>
        <time>2023-05-15T13:01:52Z</time>
      </trkpt>
      <trkpt lat="44.65567" lon="6.01241">
        <ele>1785.6</ele>
        <time>2023-05-15T13:01:56Z</time>
      </trkpt>
      <trkpt lat="44.65567" lon="6.0124">
        <ele>1785.8</ele>
        <time>2023-05-15T13:01:57Z</time>
      </trkpt>
      <trkpt lat="44.65567" lon="6.0124">
        <ele>1785.8</ele>
        <time>2023-05-15T13:01:58Z</time>
      </trkpt>
      <trkpt lat="44.65568" lon="6.0124">
        <ele>1785.8</ele>
        <time>2023-05-15T13:01:59Z</time>
      </trkpt>
      <trkpt lat="44.65568" lon="6.01239">
        <ele>1785.8</ele>
        <time>2023-05-15T13:02:00Z</time>
      </trkpt>
      <trkpt lat="44.65569" lon="6.01238">
        <ele>1786</ele>
        <time>2023-05-15T13:02:01Z</time>
      </trkpt>
      <trkpt lat="44.65569" lon="6.01237">
        <ele>1786</ele>
        <time>2023-05-15T13:02:02Z</time>
      </trkpt>
      <trkpt lat="44.65569" lon="6.01237">
        <ele>1786.2</ele>
        <time>2023-05-15T13:02:03Z</time>
      </trkpt>
      <trkpt lat="44.65569" lon="6.01237">
        <ele>1786.8</ele>
        <time>2023-05-15T13:02:05Z</time>
      </trkpt>
      <trkpt lat="44.65569" lon="6.01237">
        <ele>1787</ele>
        <time>2023-05-15T13:02:06Z</time>
      </trkpt>
      <trkpt lat="44.65569" lon="6.01237">
        <ele>1787.4</ele>
        <time>2023-05-15T13:02:07Z</time>
      </trkpt>
      <trkpt lat="44.65569" lon="6.01237">
        <ele>1787.8</ele>
        <time>2023-05-15T13:02:09Z</time>
      </trkpt>
      <trkpt lat="44.6557" lon="6.01237">
        <ele>1788</ele>
        <time>2023-05-15T13:02:10Z</time>
      </trkpt>
      <trkpt lat="44.65571" lon="6.01236">
        <ele>1788</ele>
        <time>2023-05-15T13:02:11Z</time>
      </trkpt>
      <trkpt lat="44.65572" lon="6.01235">
        <ele>1788</ele>
        <time>2023-05-15T13:02:12Z</time>
      </trkpt>
      <trkpt lat="44.65572" lon="6.01235">
        <ele>1788.2</ele>
        <time>2023-05-15T13:02:13Z</time>
      </trkpt>
      <trkpt lat="44.65573" lon="6.01234">
        <ele>1788.2</ele>
        <time>2023-05-15T13:02:14Z</time>
      </trkpt>
      <trkpt lat="44.65573" lon="6.01233">
        <ele>1788.2</ele>
        <time>2023-05-15T13:02:15Z</time>
      </trkpt>
      <trkpt lat="44.65574" lon="6.01233">
        <ele>1788.2</ele>
        <time>2023-05-15T13:02:16Z</time>
      </trkpt>
      <trkpt lat="44.65574" lon="6.01233">
        <ele>1788.4</ele>
        <time>2023-05-15T13:02:17Z</time>
      </trkpt>
      <trkpt lat="44.65574" lon="6.01233">
        <ele>1788.4</ele>
        <time>2023-05-15T13:02:18Z</time>
      </trkpt>
      <trkpt lat="44.65574" lon="6.01233">
        <ele>1788.4</ele>
        <time>2023-05-15T13:02:19Z</time>
      </trkpt>
      <trkpt lat="44.65574" lon="6.01233">
        <ele>1788.4</ele>
        <time>2023-05-15T13:02:20Z</time>
      </trkpt>
      <trkpt lat="44.65574" lon="6.01233">
        <ele>1788.4</ele>
        <time>2023-05-15T13:02:21Z</time>
      </trkpt>
      <trkpt lat="44.65575" lon="6.01232">
        <ele>1789.6</ele>
        <time>2023-05-15T13:02:28Z</time>
      </trkpt>
      <trkpt lat="44.65576" lon="6.01231">
        <ele>1789.8</ele>
        <time>2023-05-15T13:02:29Z</time>
      </trkpt>
      <trkpt lat="44.65576" lon="6.01231">
        <ele>1790.2</ele>
        <time>2023-05-15T13:02:30Z</time>
      </trkpt>
      <trkpt lat="44.65577" lon="6.0123">
        <ele>1790.4</ele>
        <time>2023-05-15T13:02:31Z</time>
      </trkpt>
      <trkpt lat="44.65578" lon="6.0123">
        <ele>1790.4</ele>
        <time>2023-05-15T13:02:32Z</time>
      </trkpt>
      <trkpt lat="44.65579" lon="6.01229">
        <ele>1790.6</ele>
        <time>2023-05-15T13:02:33Z</time>
      </trkpt>
      <trkpt lat="44.65579" lon="6.01229">
        <ele>1790.6</ele>
        <time>2023-05-15T13:02:34Z</time>
      </trkpt>
      <trkpt lat="44.65579" lon="6.01229">
        <ele>1790.6</ele>
        <time>2023-05-15T13:02:35Z</time>
      </trkpt>
      <trkpt lat="44.65579" lon="6.01229">
        <ele>1790.8</ele>
        <time>2023-05-15T13:02:36Z</time>
      </trkpt>
      <trkpt lat="44.65579" lon="6.01229">
        <ele>1790.8</ele>
        <time>2023-05-15T13:02:37Z</time>
      </trkpt>
      <trkpt lat="44.65579" lon="6.01229">
        <ele>1791</ele>
        <time>2023-05-15T13:02:38Z</time>
      </trkpt>
      <trkpt lat="44.65579" lon="6.01229">
        <ele>1791</ele>
        <time>2023-05-15T13:02:39Z</time>
      </trkpt>
      <trkpt lat="44.6558" lon="6.01229">
        <ele>1791.4</ele>
        <time>2023-05-15T13:02:44Z</time>
      </trkpt>
      <trkpt lat="44.65582" lon="6.01228">
        <ele>1791.4</ele>
        <time>2023-05-15T13:02:45Z</time>
      </trkpt>
      <trkpt lat="44.65582" lon="6.01228">
        <ele>1791.6</ele>
        <time>2023-05-15T13:02:46Z</time>
      </trkpt>
      <trkpt lat="44.65583" lon="6.01228">
        <ele>1791.8</ele>
        <time>2023-05-15T13:02:50Z</time>
      </trkpt>
      <trkpt lat="44.65584" lon="6.01228">
        <ele>1792</ele>
        <time>2023-05-15T13:02:51Z</time>
      </trkpt>
      <trkpt lat="44.65585" lon="6.01227">
        <ele>1792</ele>
        <time>2023-05-15T13:02:52Z</time>
      </trkpt>
      <trkpt lat="44.65585" lon="6.01227">
        <ele>1792.2</ele>
        <time>2023-05-15T13:02:53Z</time>
      </trkpt>
      <trkpt lat="44.65586" lon="6.01227">
        <ele>1792.8</ele>
        <time>2023-05-15T13:03:00Z</time>
      </trkpt>
      <trkpt lat="44.65591" lon="6.01226">
        <ele>1792.8</ele>
        <time>2023-05-15T13:03:10Z</time>
      </trkpt>
      <trkpt lat="44.65592" lon="6.01225">
        <ele>1792.8</ele>
        <time>2023-05-15T13:03:11Z</time>
      </trkpt>
      <trkpt lat="44.65598" lon="6.01224">
        <ele>1793.4</ele>
        <time>2023-05-15T13:03:19Z</time>
      </trkpt>
      <trkpt lat="44.65601" lon="6.01223">
        <ele>1793.4</ele>
        <time>2023-05-15T13:03:22Z</time>
      </trkpt>
      <trkpt lat="44.65602" lon="6.01222">
        <ele>1793.4</ele>
        <time>2023-05-15T13:03:23Z</time>
      </trkpt>
      <trkpt lat="44.65604" lon="6.01221">
        <ele>1793.4</ele>
        <time>2023-05-15T13:03:25Z</time>
      </trkpt>
      <trkpt lat="44.65608" lon="6.01217">
        <ele>1793.4</ele>
        <time>2023-05-15T13:03:30Z</time>
      </trkpt>
      <trkpt lat="44.6561" lon="6.01216">
        <ele>1793.4</ele>
        <time>2023-05-15T13:03:32Z</time>
      </trkpt>
      <trkpt lat="44.65611" lon="6.01215">
        <ele>1793.4</ele>
        <time>2023-05-15T13:03:33Z</time>
      </trkpt>
      <trkpt lat="44.65613" lon="6.01213">
        <ele>1793.4</ele>
        <time>2023-05-15T13:03:36Z</time>
      </trkpt>
      <trkpt lat="44.65614" lon="6.01212">
        <ele>1793.4</ele>
        <time>2023-05-15T13:03:37Z</time>
      </trkpt>
      <trkpt lat="44.65615" lon="6.01211">
        <ele>1793.4</ele>
        <time>2023-05-15T13:03:38Z</time>
      </trkpt>
      <trkpt lat="44.65616" lon="6.01209">
        <ele>1793.4</ele>
        <time>2023-05-15T13:03:40Z</time>
      </trkpt>
      <trkpt lat="44.65617" lon="6.01208">
        <ele>1793.6</ele>
        <time>2023-05-15T13:03:41Z</time>
      </trkpt>
      <trkpt lat="44.65618" lon="6.01207">
        <ele>1793.6</ele>
        <time>2023-05-15T13:03:42Z</time>
      </trkpt>
      <trkpt lat="44.65618" lon="6.01206">
        <ele>1793.6</ele>
        <time>2023-05-15T13:03:43Z</time>
      </trkpt>
      <trkpt lat="44.65619" lon="6.01206">
        <ele>1794</ele>
        <time>2023-05-15T13:03:44Z</time>
      </trkpt>
      <trkpt lat="44.65619" lon="6.01205">
        <ele>1793.8</ele>
        <time>2023-05-15T13:03:45Z</time>
      </trkpt>
      <trkpt lat="44.6562" lon="6.01205">
        <ele>1793.8</ele>
        <time>2023-05-15T13:03:46Z</time>
      </trkpt>
      <trkpt lat="44.6562" lon="6.01205">
        <ele>1794</ele>
        <time>2023-05-15T13:03:47Z</time>
      </trkpt>
      <trkpt lat="44.6562" lon="6.01204">
        <ele>1794.4</ele>
        <time>2023-05-15T13:03:50Z</time>
      </trkpt>
      <trkpt lat="44.65621" lon="6.01203">
        <ele>1794.6</ele>
        <time>2023-05-15T13:03:51Z</time>
      </trkpt>
      <trkpt lat="44.65621" lon="6.01203">
        <ele>1794.6</ele>
        <time>2023-05-15T13:03:52Z</time>
      </trkpt>
      <trkpt lat="44.65621" lon="6.01203">
        <ele>1794.6</ele>
        <time>2023-05-15T13:03:53Z</time>
      </trkpt>
      <trkpt lat="44.65621" lon="6.01202">
        <ele>1794.8</ele>
        <time>2023-05-15T13:03:54Z</time>
      </trkpt>
      <trkpt lat="44.65622" lon="6.01202">
        <ele>1795</ele>
        <time>2023-05-15T13:03:55Z</time>
      </trkpt>
      <trkpt lat="44.65623" lon="6.01201">
        <ele>1795</ele>
        <time>2023-05-15T13:03:56Z</time>
      </trkpt>
      <trkpt lat="44.65626" lon="6.01198">
        <ele>1795.6</ele>
        <time>2023-05-15T13:04:02Z</time>
      </trkpt>
      <trkpt lat="44.65628" lon="6.01196">
        <ele>1796</ele>
        <time>2023-05-15T13:04:07Z</time>
      </trkpt>
      <trkpt lat="44.65628" lon="6.01196">
        <ele>1796.2</ele>
        <time>2023-05-15T13:04:08Z</time>
      </trkpt>
      <trkpt lat="44.65629" lon="6.01195">
        <ele>1796.6</ele>
        <time>2023-05-15T13:04:11Z</time>
      </trkpt>
      <trkpt lat="44.65629" lon="6.01195">
        <ele>1797.8</ele>
        <time>2023-05-15T13:04:17Z</time>
      </trkpt>
      <trkpt lat="44.6563" lon="6.01193">
        <ele>1798.2</ele>
        <time>2023-05-15T13:04:20Z</time>
      </trkpt>
      <trkpt lat="44.65631" lon="6.01193">
        <ele>1798.2</ele>
        <time>2023-05-15T13:04:21Z</time>
      </trkpt>
      <trkpt lat="44.65631" lon="6.01193">
        <ele>1798.4</ele>
        <time>2023-05-15T13:04:22Z</time>
      </trkpt>
      <trkpt lat="44.65632" lon="6.01192">
        <ele>1798.6</ele>
        <time>2023-05-15T13:04:23Z</time>
      </trkpt>
      <trkpt lat="44.65632" lon="6.01192">
        <ele>1798.6</ele>
        <time>2023-05-15T13:04:24Z</time>
      </trkpt>
      <trkpt lat="44.65633" lon="6.01192">
        <ele>1798.6</ele>
        <time>2023-05-15T13:04:25Z</time>
      </trkpt>
      <trkpt lat="44.65633" lon="6.01192">
        <ele>1798.6</ele>
        <time>2023-05-15T13:04:26Z</time>
      </trkpt>
      <trkpt lat="44.65633" lon="6.01192">
        <ele>1798.8</ele>
        <time>2023-05-15T13:04:27Z</time>
      </trkpt>
      <trkpt lat="44.65634" lon="6.01191">
        <ele>1798.8</ele>
        <time>2023-05-15T13:04:28Z</time>
      </trkpt>
      <trkpt lat="44.65635" lon="6.01191">
        <ele>1799</ele>
        <time>2023-05-15T13:04:29Z</time>
      </trkpt>
      <trkpt lat="44.65635" lon="6.01191">
        <ele>1799.2</ele>
        <time>2023-05-15T13:04:30Z</time>
      </trkpt>
      <trkpt lat="44.65636" lon="6.01191">
        <ele>1799.2</ele>
        <time>2023-05-15T13:04:31Z</time>
      </trkpt>
      <trkpt lat="44.65637" lon="6.01191">
        <ele>1799.4</ele>
        <time>2023-05-15T13:04:32Z</time>
      </trkpt>
      <trkpt lat="44.65638" lon="6.0119">
        <ele>1799.4</ele>
        <time>2023-05-15T13:04:33Z</time>
      </trkpt>
      <trkpt lat="44.65638" lon="6.0119">
        <ele>1799.6</ele>
        <time>2023-05-15T13:04:34Z</time>
      </trkpt>
      <trkpt lat="44.65639" lon="6.0119">
        <ele>1799.6</ele>
        <time>2023-05-15T13:04:35Z</time>
      </trkpt>
      <trkpt lat="44.65639" lon="6.0119">
        <ele>1799.6</ele>
        <time>2023-05-15T13:04:36Z</time>
      </trkpt>
      <trkpt lat="44.65639" lon="6.01189">
        <ele>1800</ele>
        <time>2023-05-15T13:04:38Z</time>
      </trkpt>
      <trkpt lat="44.6564" lon="6.01189">
        <ele>1800</ele>
        <time>2023-05-15T13:04:39Z</time>
      </trkpt>
      <trkpt lat="44.6564" lon="6.01189">
        <ele>1800.4</ele>
        <time>2023-05-15T13:04:44Z</time>
      </trkpt>
      <trkpt lat="44.65641" lon="6.01188">
        <ele>1800.8</ele>
        <time>2023-05-15T13:04:46Z</time>
      </trkpt>
      <trkpt lat="44.65642" lon="6.01188">
        <ele>1801</ele>
        <time>2023-05-15T13:04:47Z</time>
      </trkpt>
      <trkpt lat="44.65642" lon="6.01188">
        <ele>1801</ele>
        <time>2023-05-15T13:04:48Z</time>
      </trkpt>
      <trkpt lat="44.65643" lon="6.01188">
        <ele>1801</ele>
        <time>2023-05-15T13:04:49Z</time>
      </trkpt>
      <trkpt lat="44.65643" lon="6.01187">
        <ele>1801.2</ele>
        <time>2023-05-15T13:04:50Z</time>
      </trkpt>
      <trkpt lat="44.65644" lon="6.01186">
        <ele>1801.2</ele>
        <time>2023-05-15T13:04:52Z</time>
      </trkpt>
      <trkpt lat="44.65644" lon="6.01186">
        <ele>1801.2</ele>
        <time>2023-05-15T13:04:53Z</time>
      </trkpt>
      <trkpt lat="44.65644" lon="6.01186">
        <ele>1801.4</ele>
        <time>2023-05-15T13:04:55Z</time>
      </trkpt>
      <trkpt lat="44.65644" lon="6.01186">
        <ele>1801.4</ele>
        <time>2023-05-15T13:04:56Z</time>
      </trkpt>
      <trkpt lat="44.65645" lon="6.01186">
        <ele>1801.4</ele>
        <time>2023-05-15T13:04:57Z</time>
      </trkpt>
      <trkpt lat="44.65645" lon="6.01186">
        <ele>1801.4</ele>
        <time>2023-05-15T13:04:58Z</time>
      </trkpt>
      <trkpt lat="44.65648" lon="6.01184">
        <ele>1801.6</ele>
        <time>2023-05-15T13:05:04Z</time>
      </trkpt>
      <trkpt lat="44.6565" lon="6.01183">
        <ele>1801.8</ele>
        <time>2023-05-15T13:05:08Z</time>
      </trkpt>
      <trkpt lat="44.6565" lon="6.01183">
        <ele>1802</ele>
        <time>2023-05-15T13:05:09Z</time>
      </trkpt>
      <trkpt lat="44.6565" lon="6.01183">
        <ele>1802</ele>
        <time>2023-05-15T13:05:10Z</time>
      </trkpt>
      <trkpt lat="44.65652" lon="6.01182">
        <ele>1802.8</ele>
        <time>2023-05-15T13:05:14Z</time>
      </trkpt>
      <trkpt lat="44.65653" lon="6.01182">
        <ele>1803</ele>
        <time>2023-05-15T13:05:16Z</time>
      </trkpt>
      <trkpt lat="44.65654" lon="6.01181">
        <ele>1803.4</ele>
        <time>2023-05-15T13:05:17Z</time>
      </trkpt>
      <trkpt lat="44.65654" lon="6.01181">
        <ele>1803.8</ele>
        <time>2023-05-15T13:05:18Z</time>
      </trkpt>
      <trkpt lat="44.65655" lon="6.0118">
        <ele>1804.2</ele>
        <time>2023-05-15T13:05:19Z</time>
      </trkpt>
      <trkpt lat="44.65656" lon="6.0118">
        <ele>1804.6</ele>
        <time>2023-05-15T13:05:21Z</time>
      </trkpt>
      <trkpt lat="44.65656" lon="6.01179">
        <ele>1804.8</ele>
        <time>2023-05-15T13:05:22Z</time>
      </trkpt>
      <trkpt lat="44.65657" lon="6.01179">
        <ele>1805</ele>
        <time>2023-05-15T13:05:23Z</time>
      </trkpt>
      <trkpt lat="44.65657" lon="6.01179">
        <ele>1805.2</ele>
        <time>2023-05-15T13:05:24Z</time>
      </trkpt>
      <trkpt lat="44.65658" lon="6.01179">
        <ele>1805.2</ele>
        <time>2023-05-15T13:05:25Z</time>
      </trkpt>
      <trkpt lat="44.65658" lon="6.01179">
        <ele>1805.4</ele>
        <time>2023-05-15T13:05:26Z</time>
      </trkpt>
      <trkpt lat="44.65658" lon="6.01179">
        <ele>1805.4</ele>
        <time>2023-05-15T13:05:27Z</time>
      </trkpt>
      <trkpt lat="44.65659" lon="6.01178">
        <ele>1805.4</ele>
        <time>2023-05-15T13:05:28Z</time>
      </trkpt>
      <trkpt lat="44.65659" lon="6.01178">
        <ele>1805.6</ele>
        <time>2023-05-15T13:05:29Z</time>
      </trkpt>
      <trkpt lat="44.6566" lon="6.01178">
        <ele>1805.6</ele>
        <time>2023-05-15T13:05:30Z</time>
      </trkpt>
      <trkpt lat="44.6566" lon="6.01177">
        <ele>1805.6</ele>
        <time>2023-05-15T13:05:31Z</time>
      </trkpt>
      <trkpt lat="44.65661" lon="6.01177">
        <ele>1805.6</ele>
        <time>2023-05-15T13:05:32Z</time>
      </trkpt>
      <trkpt lat="44.65662" lon="6.01177">
        <ele>1805.6</ele>
        <time>2023-05-15T13:05:33Z</time>
      </trkpt>
      <trkpt lat="44.65663" lon="6.01176">
        <ele>1805.6</ele>
        <time>2023-05-15T13:05:34Z</time>
      </trkpt>
      <trkpt lat="44.65663" lon="6.01176">
        <ele>1805.6</ele>
        <time>2023-05-15T13:05:35Z</time>
      </trkpt>
      <trkpt lat="44.65664" lon="6.01176">
        <ele>1805.4</ele>
        <time>2023-05-15T13:05:36Z</time>
      </trkpt>
      <trkpt lat="44.65664" lon="6.01176">
        <ele>1805.4</ele>
        <time>2023-05-15T13:05:37Z</time>
      </trkpt>
      <trkpt lat="44.65665" lon="6.01175">
        <ele>1805.4</ele>
        <time>2023-05-15T13:05:38Z</time>
      </trkpt>
      <trkpt lat="44.65666" lon="6.01175">
        <ele>1805.4</ele>
        <time>2023-05-15T13:05:39Z</time>
      </trkpt>
      <trkpt lat="44.65667" lon="6.01175">
        <ele>1805.4</ele>
        <time>2023-05-15T13:05:40Z</time>
      </trkpt>
      <trkpt lat="44.65667" lon="6.01175">
        <ele>1805.4</ele>
        <time>2023-05-15T13:05:41Z</time>
      </trkpt>
      <trkpt lat="44.65668" lon="6.01174">
        <ele>1805.4</ele>
        <time>2023-05-15T13:05:43Z</time>
      </trkpt>
      <trkpt lat="44.6567" lon="6.01174">
        <ele>1805.4</ele>
        <time>2023-05-15T13:05:45Z</time>
      </trkpt>
      <trkpt lat="44.65672" lon="6.01173">
        <ele>1805.4</ele>
        <time>2023-05-15T13:05:49Z</time>
      </trkpt>
      <trkpt lat="44.65674" lon="6.01171">
        <ele>1805.6</ele>
        <time>2023-05-15T13:05:52Z</time>
      </trkpt>
      <trkpt lat="44.65674" lon="6.01171">
        <ele>1805.6</ele>
        <time>2023-05-15T13:05:53Z</time>
      </trkpt>
      <trkpt lat="44.65675" lon="6.01171">
        <ele>1805.8</ele>
        <time>2023-05-15T13:05:54Z</time>
      </trkpt>
      <trkpt lat="44.65675" lon="6.0117">
        <ele>1805.8</ele>
        <time>2023-05-15T13:05:55Z</time>
      </trkpt>
      <trkpt lat="44.65677" lon="6.01169">
        <ele>1806.2</ele>
        <time>2023-05-15T13:05:57Z</time>
      </trkpt>
      <trkpt lat="44.6568" lon="6.01168">
        <ele>1806.6</ele>
        <time>2023-05-15T13:06:02Z</time>
      </trkpt>
      <trkpt lat="44.65685" lon="6.01166">
        <ele>1807.2</ele>
        <time>2023-05-15T13:06:08Z</time>
      </trkpt>
      <trkpt lat="44.65686" lon="6.01164">
        <ele>1807.6</ele>
        <time>2023-05-15T13:06:10Z</time>
      </trkpt>
      <trkpt lat="44.65687" lon="6.01163">
        <ele>1807.6</ele>
        <time>2023-05-15T13:06:11Z</time>
      </trkpt>
      <trkpt lat="44.65688" lon="6.01162">
        <ele>1807.8</ele>
        <time>2023-05-15T13:06:13Z</time>
      </trkpt>
      <trkpt lat="44.65691" lon="6.01159">
        <ele>1808</ele>
        <time>2023-05-15T13:06:17Z</time>
      </trkpt>
      <trkpt lat="44.65692" lon="6.01158">
        <ele>1808</ele>
        <time>2023-05-15T13:06:18Z</time>
      </trkpt>
      <trkpt lat="44.65692" lon="6.01158">
        <ele>1808.2</ele>
        <time>2023-05-15T13:06:19Z</time>
      </trkpt>
      <trkpt lat="44.65692" lon="6.01158">
        <ele>1808.2</ele>
        <time>2023-05-15T13:06:20Z</time>
      </trkpt>
      <trkpt lat="44.65694" lon="6.01156">
        <ele>1808.2</ele>
        <time>2023-05-15T13:06:22Z</time>
      </trkpt>
      <trkpt lat="44.65695" lon="6.01155">
        <ele>1808.2</ele>
        <time>2023-05-15T13:06:23Z</time>
      </trkpt>
      <trkpt lat="44.65695" lon="6.01155">
        <ele>1808.4</ele>
        <time>2023-05-15T13:06:24Z</time>
      </trkpt>
      <trkpt lat="44.65696" lon="6.01154">
        <ele>1808.4</ele>
        <time>2023-05-15T13:06:25Z</time>
      </trkpt>
      <trkpt lat="44.65697" lon="6.01154">
        <ele>1808.4</ele>
        <time>2023-05-15T13:06:26Z</time>
      </trkpt>
      <trkpt lat="44.65697" lon="6.01154">
        <ele>1808.6</ele>
        <time>2023-05-15T13:06:27Z</time>
      </trkpt>
      <trkpt lat="44.65697" lon="6.01154">
        <ele>1808.6</ele>
        <time>2023-05-15T13:06:28Z</time>
      </trkpt>
      <trkpt lat="44.657" lon="6.01153">
        <ele>1809</ele>
        <time>2023-05-15T13:06:32Z</time>
      </trkpt>
      <trkpt lat="44.657" lon="6.01153">
        <ele>1809.4</ele>
        <time>2023-05-15T13:06:33Z</time>
      </trkpt>
      <trkpt lat="44.65701" lon="6.01152">
        <ele>1809.4</ele>
        <time>2023-05-15T13:06:34Z</time>
      </trkpt>
      <trkpt lat="44.65702" lon="6.01152">
        <ele>1809.8</ele>
        <time>2023-05-15T13:06:35Z</time>
      </trkpt>
      <trkpt lat="44.65702" lon="6.01152">
        <ele>1810</ele>
        <time>2023-05-15T13:06:36Z</time>
      </trkpt>
      <trkpt lat="44.65704" lon="6.01152">
        <ele>1810.2</ele>
        <time>2023-05-15T13:06:38Z</time>
      </trkpt>
      <trkpt lat="44.65704" lon="6.01152">
        <ele>1810.2</ele>
        <time>2023-05-15T13:06:39Z</time>
      </trkpt>
      <trkpt lat="44.65705" lon="6.01152">
        <ele>1810.4</ele>
        <time>2023-05-15T13:06:40Z</time>
      </trkpt>
      <trkpt lat="44.65706" lon="6.01152">
        <ele>1810.6</ele>
        <time>2023-05-15T13:06:41Z</time>
      </trkpt>
      <trkpt lat="44.65707" lon="6.01153">
        <ele>1811.2</ele>
        <time>2023-05-15T13:06:42Z</time>
      </trkpt>
      <trkpt lat="44.65707" lon="6.01153">
        <ele>1811.4</ele>
        <time>2023-05-15T13:06:43Z</time>
      </trkpt>
      <trkpt lat="44.65708" lon="6.01153">
        <ele>1812.4</ele>
        <time>2023-05-15T13:06:44Z</time>
      </trkpt>
      <trkpt lat="44.65708" lon="6.01153">
        <ele>1813.4</ele>
        <time>2023-05-15T13:06:45Z</time>
      </trkpt>
      <trkpt lat="44.65709" lon="6.01154">
        <ele>1813.6</ele>
        <time>2023-05-15T13:06:46Z</time>
      </trkpt>
      <trkpt lat="44.6571" lon="6.01154">
        <ele>1814</ele>
        <time>2023-05-15T13:06:47Z</time>
      </trkpt>
      <trkpt lat="44.6571" lon="6.01155">
        <ele>1814</ele>
        <time>2023-05-15T13:06:48Z</time>
      </trkpt>
      <trkpt lat="44.65711" lon="6.01155">
        <ele>1814.2</ele>
        <time>2023-05-15T13:06:49Z</time>
      </trkpt>
      <trkpt lat="44.65712" lon="6.01156">
        <ele>1814.2</ele>
        <time>2023-05-15T13:06:50Z</time>
      </trkpt>
      <trkpt lat="44.65712" lon="6.01156">
        <ele>1814.2</ele>
        <time>2023-05-15T13:06:51Z</time>
      </trkpt>
      <trkpt lat="44.65713" lon="6.01156">
        <ele>1814.2</ele>
        <time>2023-05-15T13:06:52Z</time>
      </trkpt>
      <trkpt lat="44.65713" lon="6.01157">
        <ele>1814.2</ele>
        <time>2023-05-15T13:06:53Z</time>
      </trkpt>
      <trkpt lat="44.65714" lon="6.01157">
        <ele>1814</ele>
        <time>2023-05-15T13:06:54Z</time>
      </trkpt>
      <trkpt lat="44.65715" lon="6.01157">
        <ele>1814</ele>
        <time>2023-05-15T13:06:55Z</time>
      </trkpt>
      <trkpt lat="44.65716" lon="6.01157">
        <ele>1813.8</ele>
        <time>2023-05-15T13:06:56Z</time>
      </trkpt>
      <trkpt lat="44.65717" lon="6.01158">
        <ele>1813.8</ele>
        <time>2023-05-15T13:06:57Z</time>
      </trkpt>
      <trkpt lat="44.65717" lon="6.01158">
        <ele>1813.8</ele>
        <time>2023-05-15T13:06:58Z</time>
      </trkpt>
      <trkpt lat="44.65718" lon="6.01159">
        <ele>1813.8</ele>
        <time>2023-05-15T13:06:59Z</time>
      </trkpt>
      <trkpt lat="44.65718" lon="6.01159">
        <ele>1813.8</ele>
        <time>2023-05-15T13:07:00Z</time>
      </trkpt>
      <trkpt lat="44.65719" lon="6.01159">
        <ele>1813.8</ele>
        <time>2023-05-15T13:07:01Z</time>
      </trkpt>
      <trkpt lat="44.65719" lon="6.0116">
        <ele>1813.8</ele>
        <time>2023-05-15T13:07:02Z</time>
      </trkpt>
      <trkpt lat="44.6572" lon="6.0116">
        <ele>1813.8</ele>
        <time>2023-05-15T13:07:03Z</time>
      </trkpt>
      <trkpt lat="44.65721" lon="6.0116">
        <ele>1813.8</ele>
        <time>2023-05-15T13:07:04Z</time>
      </trkpt>
      <trkpt lat="44.65722" lon="6.0116">
        <ele>1813.8</ele>
        <time>2023-05-15T13:07:05Z</time>
      </trkpt>
      <trkpt lat="44.65722" lon="6.0116">
        <ele>1813.8</ele>
        <time>2023-05-15T13:07:06Z</time>
      </trkpt>
      <trkpt lat="44.65723" lon="6.0116">
        <ele>1814</ele>
        <time>2023-05-15T13:07:07Z</time>
      </trkpt>
      <trkpt lat="44.65724" lon="6.0116">
        <ele>1814</ele>
        <time>2023-05-15T13:07:08Z</time>
      </trkpt>
      <trkpt lat="44.65725" lon="6.01161">
        <ele>1814.4</ele>
        <time>2023-05-15T13:07:10Z</time>
      </trkpt>
      <trkpt lat="44.65726" lon="6.01161">
        <ele>1814.4</ele>
        <time>2023-05-15T13:07:11Z</time>
      </trkpt>
      <trkpt lat="44.65726" lon="6.01162">
        <ele>1814.6</ele>
        <time>2023-05-15T13:07:12Z</time>
      </trkpt>
      <trkpt lat="44.65727" lon="6.01162">
        <ele>1814.6</ele>
        <time>2023-05-15T13:07:13Z</time>
      </trkpt>
      <trkpt lat="44.65727" lon="6.01163">
        <ele>1814.6</ele>
        <time>2023-05-15T13:07:14Z</time>
      </trkpt>
      <trkpt lat="44.65728" lon="6.01163">
        <ele>1814.6</ele>
        <time>2023-05-15T13:07:15Z</time>
      </trkpt>
      <trkpt lat="44.65729" lon="6.01163">
        <ele>1814.6</ele>
        <time>2023-05-15T13:07:16Z</time>
      </trkpt>
      <trkpt lat="44.65729" lon="6.01163">
        <ele>1814.6</ele>
        <time>2023-05-15T13:07:17Z</time>
      </trkpt>
      <trkpt lat="44.6573" lon="6.01163">
        <ele>1814.6</ele>
        <time>2023-05-15T13:07:18Z</time>
      </trkpt>
      <trkpt lat="44.65731" lon="6.01162">
        <ele>1814.6</ele>
        <time>2023-05-15T13:07:19Z</time>
      </trkpt>
      <trkpt lat="44.65731" lon="6.01161">
        <ele>1814.6</ele>
        <time>2023-05-15T13:07:20Z</time>
      </trkpt>
      <trkpt lat="44.65732" lon="6.01161">
        <ele>1814.8</ele>
        <time>2023-05-15T13:07:21Z</time>
      </trkpt>
      <trkpt lat="44.65733" lon="6.0116">
        <ele>1814.8</ele>
        <time>2023-05-15T13:07:22Z</time>
      </trkpt>
      <trkpt lat="44.65733" lon="6.0116">
        <ele>1815</ele>
        <time>2023-05-15T13:07:23Z</time>
      </trkpt>
      <trkpt lat="44.65735" lon="6.01158">
        <ele>1815.4</ele>
        <time>2023-05-15T13:07:27Z</time>
      </trkpt>
      <trkpt lat="44.65735" lon="6.01157">
        <ele>1815.6</ele>
        <time>2023-05-15T13:07:28Z</time>
      </trkpt>
      <trkpt lat="44.65736" lon="6.01157">
        <ele>1815.8</ele>
        <time>2023-05-15T13:07:29Z</time>
      </trkpt>
      <trkpt lat="44.65736" lon="6.01157">
        <ele>1816</ele>
        <time>2023-05-15T13:07:30Z</time>
      </trkpt>
      <trkpt lat="44.65737" lon="6.01156">
        <ele>1816</ele>
        <time>2023-05-15T13:07:31Z</time>
      </trkpt>
      <trkpt lat="44.65737" lon="6.01156">
        <ele>1816.4</ele>
        <time>2023-05-15T13:07:32Z</time>
      </trkpt>
      <trkpt lat="44.65737" lon="6.01155">
        <ele>1816.6</ele>
        <time>2023-05-15T13:07:33Z</time>
      </trkpt>
      <trkpt lat="44.65737" lon="6.01155">
        <ele>1816.6</ele>
        <time>2023-05-15T13:07:34Z</time>
      </trkpt>
      <trkpt lat="44.65737" lon="6.01155">
        <ele>1816.8</ele>
        <time>2023-05-15T13:07:35Z</time>
      </trkpt>
      <trkpt lat="44.65738" lon="6.01155">
        <ele>1816.8</ele>
        <time>2023-05-15T13:07:36Z</time>
      </trkpt>
      <trkpt lat="44.65738" lon="6.01155">
        <ele>1817</ele>
        <time>2023-05-15T13:07:37Z</time>
      </trkpt>
      <trkpt lat="44.65738" lon="6.01155">
        <ele>1817</ele>
        <time>2023-05-15T13:07:38Z</time>
      </trkpt>
      <trkpt lat="44.65738" lon="6.01154">
        <ele>1816.8</ele>
        <time>2023-05-15T13:07:39Z</time>
      </trkpt>
      <trkpt lat="44.65739" lon="6.01153">
        <ele>1816.8</ele>
        <time>2023-05-15T13:07:40Z</time>
      </trkpt>
      <trkpt lat="44.6574" lon="6.01152">
        <ele>1816.8</ele>
        <time>2023-05-15T13:07:41Z</time>
      </trkpt>
      <trkpt lat="44.6574" lon="6.01152">
        <ele>1816.8</ele>
        <time>2023-05-15T13:07:42Z</time>
      </trkpt>
      <trkpt lat="44.65741" lon="6.01151">
        <ele>1816.8</ele>
        <time>2023-05-15T13:07:43Z</time>
      </trkpt>
      <trkpt lat="44.65741" lon="6.01151">
        <ele>1816.6</ele>
        <time>2023-05-15T13:07:44Z</time>
      </trkpt>
      <trkpt lat="44.65741" lon="6.0115">
        <ele>1816.6</ele>
        <time>2023-05-15T13:07:45Z</time>
      </trkpt>
      <trkpt lat="44.65744" lon="6.01147">
        <ele>1816.6</ele>
        <time>2023-05-15T13:07:50Z</time>
      </trkpt>
      <trkpt lat="44.65745" lon="6.01147">
        <ele>1816.6</ele>
        <time>2023-05-15T13:07:51Z</time>
      </trkpt>
      <trkpt lat="44.65745" lon="6.01147">
        <ele>1816.6</ele>
        <time>2023-05-15T13:07:52Z</time>
      </trkpt>
      <trkpt lat="44.65745" lon="6.01146">
        <ele>1816.8</ele>
        <time>2023-05-15T13:07:53Z</time>
      </trkpt>
      <trkpt lat="44.65748" lon="6.01144">
        <ele>1817.4</ele>
        <time>2023-05-15T13:07:57Z</time>
      </trkpt>
      <trkpt lat="44.65749" lon="6.01144">
        <ele>1817.6</ele>
        <time>2023-05-15T13:07:58Z</time>
      </trkpt>
      <trkpt lat="44.65749" lon="6.01143">
        <ele>1817.6</ele>
        <time>2023-05-15T13:07:59Z</time>
      </trkpt>
      <trkpt lat="44.65751" lon="6.01143">
        <ele>1818</ele>
        <time>2023-05-15T13:08:01Z</time>
      </trkpt>
      <trkpt lat="44.65754" lon="6.01144">
        <ele>1819</ele>
        <time>2023-05-15T13:08:05Z</time>
      </trkpt>
      <trkpt lat="44.65754" lon="6.01143">
        <ele>1819.2</ele>
        <time>2023-05-15T13:08:06Z</time>
      </trkpt>
      <trkpt lat="44.65756" lon="6.01144">
        <ele>1819.6</ele>
        <time>2023-05-15T13:08:09Z</time>
      </trkpt>
      <trkpt lat="44.65757" lon="6.01144">
        <ele>1819.8</ele>
        <time>2023-05-15T13:08:10Z</time>
      </trkpt>
      <trkpt lat="44.65757" lon="6.01144">
        <ele>1819.8</ele>
        <time>2023-05-15T13:08:11Z</time>
      </trkpt>
      <trkpt lat="44.65758" lon="6.01145">
        <ele>1819.8</ele>
        <time>2023-05-15T13:08:12Z</time>
      </trkpt>
      <trkpt lat="44.65759" lon="6.01145">
        <ele>1819.8</ele>
        <time>2023-05-15T13:08:13Z</time>
      </trkpt>
      <trkpt lat="44.65759" lon="6.01145">
        <ele>1820</ele>
        <time>2023-05-15T13:08:14Z</time>
      </trkpt>
      <trkpt lat="44.6576" lon="6.01145">
        <ele>1820</ele>
        <time>2023-05-15T13:08:15Z</time>
      </trkpt>
      <trkpt lat="44.65761" lon="6.01144">
        <ele>1820</ele>
        <time>2023-05-15T13:08:16Z</time>
      </trkpt>
      <trkpt lat="44.65761" lon="6.01144">
        <ele>1820</ele>
        <time>2023-05-15T13:08:17Z</time>
      </trkpt>
      <trkpt lat="44.65762" lon="6.01143">
        <ele>1820.2</ele>
        <time>2023-05-15T13:08:18Z</time>
      </trkpt>
      <trkpt lat="44.65763" lon="6.01143">
        <ele>1820.2</ele>
        <time>2023-05-15T13:08:19Z</time>
      </trkpt>
      <trkpt lat="44.65763" lon="6.01142">
        <ele>1820.4</ele>
        <time>2023-05-15T13:08:20Z</time>
      </trkpt>
      <trkpt lat="44.65764" lon="6.01142">
        <ele>1820.6</ele>
        <time>2023-05-15T13:08:21Z</time>
      </trkpt>
      <trkpt lat="44.65764" lon="6.01141">
        <ele>1820.6</ele>
        <time>2023-05-15T13:08:22Z</time>
      </trkpt>
      <trkpt lat="44.65765" lon="6.01141">
        <ele>1820.6</ele>
        <time>2023-05-15T13:08:23Z</time>
      </trkpt>
      <trkpt lat="44.65766" lon="6.0114">
        <ele>1820.6</ele>
        <time>2023-05-15T13:08:24Z</time>
      </trkpt>
      <trkpt lat="44.65766" lon="6.0114">
        <ele>1820.8</ele>
        <time>2023-05-15T13:08:25Z</time>
      </trkpt>
      <trkpt lat="44.65767" lon="6.01139">
        <ele>1820.8</ele>
        <time>2023-05-15T13:08:26Z</time>
      </trkpt>
      <trkpt lat="44.65768" lon="6.01139">
        <ele>1820.8</ele>
        <time>2023-05-15T13:08:27Z</time>
      </trkpt>
      <trkpt lat="44.65769" lon="6.01138">
        <ele>1820.8</ele>
        <time>2023-05-15T13:08:28Z</time>
      </trkpt>
      <trkpt lat="44.65769" lon="6.01138">
        <ele>1820.8</ele>
        <time>2023-05-15T13:08:29Z</time>
      </trkpt>
      <trkpt lat="44.6577" lon="6.01138">
        <ele>1820.8</ele>
        <time>2023-05-15T13:08:30Z</time>
      </trkpt>
      <trkpt lat="44.6577" lon="6.01138">
        <ele>1821</ele>
        <time>2023-05-15T13:08:31Z</time>
      </trkpt>
      <trkpt lat="44.6577" lon="6.01137">
        <ele>1821</ele>
        <time>2023-05-15T13:08:32Z</time>
      </trkpt>
      <trkpt lat="44.65771" lon="6.01137">
        <ele>1821.4</ele>
        <time>2023-05-15T13:08:35Z</time>
      </trkpt>
      <trkpt lat="44.65771" lon="6.01137">
        <ele>1821.8</ele>
        <time>2023-05-15T13:08:36Z</time>
      </trkpt>
      <trkpt lat="44.65772" lon="6.01137">
        <ele>1822.2</ele>
        <time>2023-05-15T13:08:37Z</time>
      </trkpt>
      <trkpt lat="44.65773" lon="6.01137">
        <ele>1822.8</ele>
        <time>2023-05-15T13:08:39Z</time>
      </trkpt>
      <trkpt lat="44.65773" lon="6.01137">
        <ele>1823</ele>
        <time>2023-05-15T13:08:40Z</time>
      </trkpt>
      <trkpt lat="44.65774" lon="6.01136">
        <ele>1823.2</ele>
        <time>2023-05-15T13:08:41Z</time>
      </trkpt>
      <trkpt lat="44.65774" lon="6.01136">
        <ele>1823.2</ele>
        <time>2023-05-15T13:08:42Z</time>
      </trkpt>
      <trkpt lat="44.65775" lon="6.01136">
        <ele>1823.4</ele>
        <time>2023-05-15T13:08:43Z</time>
      </trkpt>
      <trkpt lat="44.65776" lon="6.01136">
        <ele>1823.6</ele>
        <time>2023-05-15T13:08:44Z</time>
      </trkpt>
      <trkpt lat="44.65776" lon="6.01136">
        <ele>1824</ele>
        <time>2023-05-15T13:08:45Z</time>
      </trkpt>
      <trkpt lat="44.65777" lon="6.01136">
        <ele>1824.4</ele>
        <time>2023-05-15T13:08:46Z</time>
      </trkpt>
      <trkpt lat="44.65777" lon="6.01136">
        <ele>1824.8</ele>
        <time>2023-05-15T13:08:47Z</time>
      </trkpt>
      <trkpt lat="44.65778" lon="6.01136">
        <ele>1825.6</ele>
        <time>2023-05-15T13:08:48Z</time>
      </trkpt>
      <trkpt lat="44.65779" lon="6.01136">
        <ele>1826</ele>
        <time>2023-05-15T13:08:49Z</time>
      </trkpt>
      <trkpt lat="44.65779" lon="6.01136">
        <ele>1826.2</ele>
        <time>2023-05-15T13:08:50Z</time>
      </trkpt>
      <trkpt lat="44.65779" lon="6.01136">
        <ele>1826.4</ele>
        <time>2023-05-15T13:08:51Z</time>
      </trkpt>
      <trkpt lat="44.6578" lon="6.01136">
        <ele>1826.4</ele>
        <time>2023-05-15T13:08:52Z</time>
      </trkpt>
      <trkpt lat="44.65781" lon="6.01136">
        <ele>1826.6</ele>
        <time>2023-05-15T13:08:53Z</time>
      </trkpt>
      <trkpt lat="44.65782" lon="6.01137">
        <ele>1826.6</ele>
        <time>2023-05-15T13:08:54Z</time>
      </trkpt>
      <trkpt lat="44.65782" lon="6.01137">
        <ele>1827</ele>
        <time>2023-05-15T13:08:55Z</time>
      </trkpt>
      <trkpt lat="44.65783" lon="6.01137">
        <ele>1827</ele>
        <time>2023-05-15T13:08:56Z</time>
      </trkpt>
      <trkpt lat="44.65783" lon="6.01137">
        <ele>1827.2</ele>
        <time>2023-05-15T13:08:57Z</time>
      </trkpt>
      <trkpt lat="44.65784" lon="6.01137">
        <ele>1827.4</ele>
        <time>2023-05-15T13:08:58Z</time>
      </trkpt>
      <trkpt lat="44.65785" lon="6.01137">
        <ele>1827.4</ele>
        <time>2023-05-15T13:08:59Z</time>
      </trkpt>
      <trkpt lat="44.65785" lon="6.01137">
        <ele>1827.4</ele>
        <time>2023-05-15T13:09:00Z</time>
      </trkpt>
      <trkpt lat="44.65785" lon="6.01137">
        <ele>1827.6</ele>
        <time>2023-05-15T13:09:01Z</time>
      </trkpt>
      <trkpt lat="44.65785" lon="6.01137">
        <ele>1827.8</ele>
        <time>2023-05-15T13:09:02Z</time>
      </trkpt>
      <trkpt lat="44.65786" lon="6.01137">
        <ele>1827.8</ele>
        <time>2023-05-15T13:09:03Z</time>
      </trkpt>
      <trkpt lat="44.65786" lon="6.01138">
        <ele>1828</ele>
        <time>2023-05-15T13:09:04Z</time>
      </trkpt>
      <trkpt lat="44.65787" lon="6.01138">
        <ele>1828</ele>
        <time>2023-05-15T13:09:05Z</time>
      </trkpt>
      <trkpt lat="44.65787" lon="6.01138">
        <ele>1828.2</ele>
        <time>2023-05-15T13:09:06Z</time>
      </trkpt>
      <trkpt lat="44.65788" lon="6.01139">
        <ele>1828.2</ele>
        <time>2023-05-15T13:09:07Z</time>
      </trkpt>
      <trkpt lat="44.65788" lon="6.01139">
        <ele>1828.4</ele>
        <time>2023-05-15T13:09:09Z</time>
      </trkpt>
      <trkpt lat="44.65789" lon="6.01139">
        <ele>1828.4</ele>
        <time>2023-05-15T13:09:10Z</time>
      </trkpt>
      <trkpt lat="44.65789" lon="6.01139">
        <ele>1828.4</ele>
        <time>2023-05-15T13:09:11Z</time>
      </trkpt>
      <trkpt lat="44.6579" lon="6.01139">
        <ele>1828.4</ele>
        <time>2023-05-15T13:09:12Z</time>
      </trkpt>
      <trkpt lat="44.6579" lon="6.01139">
        <ele>1828.2</ele>
        <time>2023-05-15T13:09:14Z</time>
      </trkpt>
      <trkpt lat="44.65791" lon="6.01139">
        <ele>1828</ele>
        <time>2023-05-15T13:09:15Z</time>
      </trkpt>
      <trkpt lat="44.65792" lon="6.0114">
        <ele>1828</ele>
        <time>2023-05-15T13:09:16Z</time>
      </trkpt>
      <trkpt lat="44.65792" lon="6.0114">
        <ele>1828</ele>
        <time>2023-05-15T13:09:17Z</time>
      </trkpt>
      <trkpt lat="44.65793" lon="6.0114">
        <ele>1827.8</ele>
        <time>2023-05-15T13:09:18Z</time>
      </trkpt>
      <trkpt lat="44.65793" lon="6.0114">
        <ele>1827.8</ele>
        <time>2023-05-15T13:09:19Z</time>
      </trkpt>
      <trkpt lat="44.65794" lon="6.0114">
        <ele>1829.2</ele>
        <time>2023-05-15T13:09:24Z</time>
      </trkpt>
      <trkpt lat="44.65796" lon="6.0114">
        <ele>1829.6</ele>
        <time>2023-05-15T13:09:26Z</time>
      </trkpt>
      <trkpt lat="44.65798" lon="6.0114">
        <ele>1829.8</ele>
        <time>2023-05-15T13:09:31Z</time>
      </trkpt>
      <trkpt lat="44.65801" lon="6.0114">
        <ele>1830</ele>
        <time>2023-05-15T13:09:36Z</time>
      </trkpt>
      <trkpt lat="44.65802" lon="6.0114">
        <ele>1830</ele>
        <time>2023-05-15T13:09:37Z</time>
      </trkpt>
      <trkpt lat="44.65803" lon="6.0114">
        <ele>1830.6</ele>
        <time>2023-05-15T13:09:38Z</time>
      </trkpt>
      <trkpt lat="44.65803" lon="6.0114">
        <ele>1831.6</ele>
        <time>2023-05-15T13:09:39Z</time>
      </trkpt>
      <trkpt lat="44.65803" lon="6.0114">
        <ele>1833.8</ele>
        <time>2023-05-15T13:09:40Z</time>
      </trkpt>
      <trkpt lat="44.65803" lon="6.0114">
        <ele>1834.4</ele>
        <time>2023-05-15T13:09:41Z</time>
      </trkpt>
      <trkpt lat="44.65804" lon="6.0114">
        <ele>1835.2</ele>
        <time>2023-05-15T13:09:42Z</time>
      </trkpt>
      <trkpt lat="44.65805" lon="6.01141">
        <ele>1835.4</ele>
        <time>2023-05-15T13:09:43Z</time>
      </trkpt>
      <trkpt lat="44.65805" lon="6.01141">
        <ele>1835.6</ele>
        <time>2023-05-15T13:09:44Z</time>
      </trkpt>
      <trkpt lat="44.65805" lon="6.01141">
        <ele>1835.8</ele>
        <time>2023-05-15T13:09:45Z</time>
      </trkpt>
      <trkpt lat="44.65806" lon="6.01141">
        <ele>1836</ele>
        <time>2023-05-15T13:09:46Z</time>
      </trkpt>
      <trkpt lat="44.65807" lon="6.01141">
        <ele>1836</ele>
        <time>2023-05-15T13:09:47Z</time>
      </trkpt>
      <trkpt lat="44.65807" lon="6.01142">
        <ele>1836</ele>
        <time>2023-05-15T13:09:48Z</time>
      </trkpt>
      <trkpt lat="44.65808" lon="6.01142">
        <ele>1836</ele>
        <time>2023-05-15T13:09:49Z</time>
      </trkpt>
      <trkpt lat="44.65809" lon="6.01143">
        <ele>1836</ele>
        <time>2023-05-15T13:09:50Z</time>
      </trkpt>
      <trkpt lat="44.6581" lon="6.01143">
        <ele>1835.8</ele>
        <time>2023-05-15T13:09:51Z</time>
      </trkpt>
      <trkpt lat="44.65811" lon="6.01144">
        <ele>1835.6</ele>
        <time>2023-05-15T13:09:52Z</time>
      </trkpt>
      <trkpt lat="44.65812" lon="6.01144">
        <ele>1835.6</ele>
        <time>2023-05-15T13:09:53Z</time>
      </trkpt>
      <trkpt lat="44.65813" lon="6.01145">
        <ele>1835.4</ele>
        <time>2023-05-15T13:09:54Z</time>
      </trkpt>
      <trkpt lat="44.65813" lon="6.01145">
        <ele>1835.4</ele>
        <time>2023-05-15T13:09:55Z</time>
      </trkpt>
      <trkpt lat="44.65814" lon="6.01146">
        <ele>1835</ele>
        <time>2023-05-15T13:09:56Z</time>
      </trkpt>
      <trkpt lat="44.65815" lon="6.01146">
        <ele>1834.6</ele>
        <time>2023-05-15T13:09:57Z</time>
      </trkpt>
      <trkpt lat="44.65816" lon="6.01147">
        <ele>1833.8</ele>
        <time>2023-05-15T13:09:58Z</time>
      </trkpt>
      <trkpt lat="44.65817" lon="6.01148">
        <ele>1833.4</ele>
        <time>2023-05-15T13:09:59Z</time>
      </trkpt>
      <trkpt lat="44.65818" lon="6.01148">
        <ele>1833</ele>
        <time>2023-05-15T13:10:00Z</time>
      </trkpt>
      <trkpt lat="44.65819" lon="6.01149">
        <ele>1832.8</ele>
        <time>2023-05-15T13:10:01Z</time>
      </trkpt>
      <trkpt lat="44.6582" lon="6.01149">
        <ele>1832</ele>
        <time>2023-05-15T13:10:02Z</time>
      </trkpt>
      <trkpt lat="44.6582" lon="6.01149">
        <ele>1831.6</ele>
        <time>2023-05-15T13:10:03Z</time>
      </trkpt>
      <trkpt lat="44.65821" lon="6.01149">
        <ele>1831.4</ele>
        <time>2023-05-15T13:10:04Z</time>
      </trkpt>
      <trkpt lat="44.65822" lon="6.01149">
        <ele>1830.6</ele>
        <time>2023-05-15T13:10:05Z</time>
      </trkpt>
      <trkpt lat="44.65825" lon="6.0115">
        <ele>1830</ele>
        <time>2023-05-15T13:10:08Z</time>
      </trkpt>
      <trkpt lat="44.65826" lon="6.01151">
        <ele>1829.8</ele>
        <time>2023-05-15T13:10:09Z</time>
      </trkpt>
      <trkpt lat="44.65826" lon="6.01151">
        <ele>1829.8</ele>
        <time>2023-05-15T13:10:10Z</time>
      </trkpt>
      <trkpt lat="44.65827" lon="6.01151">
        <ele>1829.6</ele>
        <time>2023-05-15T13:10:11Z</time>
      </trkpt>
      <trkpt lat="44.65828" lon="6.01151">
        <ele>1829.4</ele>
        <time>2023-05-15T13:10:12Z</time>
      </trkpt>
      <trkpt lat="44.65829" lon="6.0115">
        <ele>1829.4</ele>
        <time>2023-05-15T13:10:13Z</time>
      </trkpt>
      <trkpt lat="44.6583" lon="6.01149">
        <ele>1829.4</ele>
        <time>2023-05-15T13:10:14Z</time>
      </trkpt>
      <trkpt lat="44.65831" lon="6.01148">
        <ele>1829.4</ele>
        <time>2023-05-15T13:10:15Z</time>
      </trkpt>
      <trkpt lat="44.65831" lon="6.01147">
        <ele>1829.4</ele>
        <time>2023-05-15T13:10:16Z</time>
      </trkpt>
      <trkpt lat="44.65831" lon="6.01146">
        <ele>1829.2</ele>
        <time>2023-05-15T13:10:17Z</time>
      </trkpt>
      <trkpt lat="44.65831" lon="6.01146">
        <ele>1829.2</ele>
        <time>2023-05-15T13:10:18Z</time>
      </trkpt>
      <trkpt lat="44.65831" lon="6.01146">
        <ele>1829.2</ele>
        <time>2023-05-15T13:10:20Z</time>
      </trkpt>
      <trkpt lat="44.65833" lon="6.01146">
        <ele>1829.2</ele>
        <time>2023-05-15T13:10:25Z</time>
      </trkpt>
      <trkpt lat="44.65835" lon="6.01146">
        <ele>1829.4</ele>
        <time>2023-05-15T13:10:28Z</time>
      </trkpt>
      <trkpt lat="44.65835" lon="6.01146">
        <ele>1829.6</ele>
        <time>2023-05-15T13:10:29Z</time>
      </trkpt>
      <trkpt lat="44.65839" lon="6.01146">
        <ele>1830.2</ele>
        <time>2023-05-15T13:10:36Z</time>
      </trkpt>
      <trkpt lat="44.65839" lon="6.01147">
        <ele>1830.4</ele>
        <time>2023-05-15T13:10:37Z</time>
      </trkpt>
      <trkpt lat="44.6584" lon="6.01147">
        <ele>1830.4</ele>
        <time>2023-05-15T13:10:38Z</time>
      </trkpt>
      <trkpt lat="44.65842" lon="6.01147">
        <ele>1830.8</ele>
        <time>2023-05-15T13:10:40Z</time>
      </trkpt>
      <trkpt lat="44.65844" lon="6.01148">
        <ele>1831.4</ele>
        <time>2023-05-15T13:10:44Z</time>
      </trkpt>
      <trkpt lat="44.65844" lon="6.01147">
        <ele>1831.6</ele>
        <time>2023-05-15T13:10:45Z</time>
      </trkpt>
      <trkpt lat="44.65845" lon="6.01147">
        <ele>1831.6</ele>
        <time>2023-05-15T13:10:46Z</time>
      </trkpt>
      <trkpt lat="44.65846" lon="6.01148">
        <ele>1831.8</ele>
        <time>2023-05-15T13:10:47Z</time>
      </trkpt>
      <trkpt lat="44.65846" lon="6.01148">
        <ele>1831.8</ele>
        <time>2023-05-15T13:10:48Z</time>
      </trkpt>
      <trkpt lat="44.65847" lon="6.01148">
        <ele>1831.8</ele>
        <time>2023-05-15T13:10:49Z</time>
      </trkpt>
      <trkpt lat="44.65848" lon="6.01148">
        <ele>1832</ele>
        <time>2023-05-15T13:10:50Z</time>
      </trkpt>
      <trkpt lat="44.65848" lon="6.01148">
        <ele>1832</ele>
        <time>2023-05-15T13:10:51Z</time>
      </trkpt>
      <trkpt lat="44.65849" lon="6.01148">
        <ele>1832.2</ele>
        <time>2023-05-15T13:10:52Z</time>
      </trkpt>
      <trkpt lat="44.65849" lon="6.01148">
        <ele>1832.4</ele>
        <time>2023-05-15T13:10:53Z</time>
      </trkpt>
      <trkpt lat="44.6585" lon="6.01149">
        <ele>1832.6</ele>
        <time>2023-05-15T13:10:54Z</time>
      </trkpt>
      <trkpt lat="44.65851" lon="6.01149">
        <ele>1833</ele>
        <time>2023-05-15T13:10:55Z</time>
      </trkpt>
      <trkpt lat="44.65851" lon="6.01149">
        <ele>1833</ele>
        <time>2023-05-15T13:10:56Z</time>
      </trkpt>
      <trkpt lat="44.65852" lon="6.01149">
        <ele>1833.4</ele>
        <time>2023-05-15T13:10:57Z</time>
      </trkpt>
      <trkpt lat="44.65852" lon="6.01149">
        <ele>1833.4</ele>
        <time>2023-05-15T13:10:58Z</time>
      </trkpt>
      <trkpt lat="44.65853" lon="6.01149">
        <ele>1833.8</ele>
        <time>2023-05-15T13:10:59Z</time>
      </trkpt>
      <trkpt lat="44.65853" lon="6.01149">
        <ele>1834.2</ele>
        <time>2023-05-15T13:11:03Z</time>
      </trkpt>
      <trkpt lat="44.65854" lon="6.01149">
        <ele>1834.4</ele>
        <time>2023-05-15T13:11:04Z</time>
      </trkpt>
      <trkpt lat="44.65854" lon="6.01149">
        <ele>1834.4</ele>
        <time>2023-05-15T13:11:05Z</time>
      </trkpt>
      <trkpt lat="44.65854" lon="6.01149">
        <ele>1834.4</ele>
        <time>2023-05-15T13:11:06Z</time>
      </trkpt>
      <trkpt lat="44.65855" lon="6.01149">
        <ele>1834.6</ele>
        <time>2023-05-15T13:11:07Z</time>
      </trkpt>
      <trkpt lat="44.65855" lon="6.01149">
        <ele>1834.8</ele>
        <time>2023-05-15T13:11:08Z</time>
      </trkpt>
      <trkpt lat="44.65856" lon="6.0115">
        <ele>1834.8</ele>
        <time>2023-05-15T13:11:09Z</time>
      </trkpt>
      <trkpt lat="44.65856" lon="6.0115">
        <ele>1834.8</ele>
        <time>2023-05-15T13:11:10Z</time>
      </trkpt>
      <trkpt lat="44.65857" lon="6.0115">
        <ele>1834.8</ele>
        <time>2023-05-15T13:11:11Z</time>
      </trkpt>
      <trkpt lat="44.65857" lon="6.0115">
        <ele>1834.8</ele>
        <time>2023-05-15T13:11:12Z</time>
      </trkpt>
      <trkpt lat="44.65857" lon="6.0115">
        <ele>1835</ele>
        <time>2023-05-15T13:11:13Z</time>
      </trkpt>
      <trkpt lat="44.65857" lon="6.0115">
        <ele>1835</ele>
        <time>2023-05-15T13:11:14Z</time>
      </trkpt>
      <trkpt lat="44.65857" lon="6.0115">
        <ele>1835</ele>
        <time>2023-05-15T13:11:15Z</time>
      </trkpt>
      <trkpt lat="44.65857" lon="6.0115">
        <ele>1835</ele>
        <time>2023-05-15T13:11:16Z</time>
      </trkpt>
      <trkpt lat="44.65857" lon="6.0115">
        <ele>1835.2</ele>
        <time>2023-05-15T13:11:17Z</time>
      </trkpt>
      <trkpt lat="44.65858" lon="6.0115">
        <ele>1835.2</ele>
        <time>2023-05-15T13:11:18Z</time>
      </trkpt>
      <trkpt lat="44.65858" lon="6.0115">
        <ele>1835.6</ele>
        <time>2023-05-15T13:11:20Z</time>
      </trkpt>
      <trkpt lat="44.65859" lon="6.0115">
        <ele>1835.8</ele>
        <time>2023-05-15T13:11:22Z</time>
      </trkpt>
      <trkpt lat="44.65859" lon="6.0115">
        <ele>1835.8</ele>
        <time>2023-05-15T13:11:23Z</time>
      </trkpt>
      <trkpt lat="44.6586" lon="6.0115">
        <ele>1836</ele>
        <time>2023-05-15T13:11:25Z</time>
      </trkpt>
      <trkpt lat="44.65861" lon="6.0115">
        <ele>1835.8</ele>
        <time>2023-05-15T13:11:26Z</time>
      </trkpt>
      <trkpt lat="44.65862" lon="6.0115">
        <ele>1836.4</ele>
        <time>2023-05-15T13:11:28Z</time>
      </trkpt>
      <trkpt lat="44.65863" lon="6.01151">
        <ele>1837</ele>
        <time>2023-05-15T13:11:31Z</time>
      </trkpt>
      <trkpt lat="44.65864" lon="6.01151">
        <ele>1837.2</ele>
        <time>2023-05-15T13:11:32Z</time>
      </trkpt>
      <trkpt lat="44.65865" lon="6.01151">
        <ele>1837.2</ele>
        <time>2023-05-15T13:11:33Z</time>
      </trkpt>
      <trkpt lat="44.65866" lon="6.01151">
        <ele>1837.2</ele>
        <time>2023-05-15T13:11:34Z</time>
      </trkpt>
      <trkpt lat="44.65866" lon="6.01151">
        <ele>1837.4</ele>
        <time>2023-05-15T13:11:35Z</time>
      </trkpt>
      <trkpt lat="44.65866" lon="6.01151">
        <ele>1837.4</ele>
        <time>2023-05-15T13:11:36Z</time>
      </trkpt>
      <trkpt lat="44.65866" lon="6.01151">
        <ele>1837.6</ele>
        <time>2023-05-15T13:11:37Z</time>
      </trkpt>
      <trkpt lat="44.65867" lon="6.01151">
        <ele>1837.6</ele>
        <time>2023-05-15T13:11:38Z</time>
      </trkpt>
      <trkpt lat="44.65867" lon="6.01151">
        <ele>1837.8</ele>
        <time>2023-05-15T13:11:39Z</time>
      </trkpt>
      <trkpt lat="44.65868" lon="6.01151">
        <ele>1838</ele>
        <time>2023-05-15T13:11:40Z</time>
      </trkpt>
      <trkpt lat="44.65868" lon="6.01151">
        <ele>1838</ele>
        <time>2023-05-15T13:11:41Z</time>
      </trkpt>
      <trkpt lat="44.65869" lon="6.01151">
        <ele>1838.4</ele>
        <time>2023-05-15T13:11:43Z</time>
      </trkpt>
      <trkpt lat="44.65869" lon="6.01151">
        <ele>1838.6</ele>
        <time>2023-05-15T13:11:44Z</time>
      </trkpt>
      <trkpt lat="44.65869" lon="6.01151">
        <ele>1838.8</ele>
        <time>2023-05-15T13:11:45Z</time>
      </trkpt>
      <trkpt lat="44.65869" lon="6.0115">
        <ele>1839.2</ele>
        <time>2023-05-15T13:11:46Z</time>
      </trkpt>
      <trkpt lat="44.6587" lon="6.0115">
        <ele>1839.6</ele>
        <time>2023-05-15T13:11:47Z</time>
      </trkpt>
      <trkpt lat="44.65871" lon="6.01151">
        <ele>1839.8</ele>
        <time>2023-05-15T13:11:48Z</time>
      </trkpt>
      <trkpt lat="44.65871" lon="6.01151">
        <ele>1840</ele>
        <time>2023-05-15T13:11:49Z</time>
      </trkpt>
      <trkpt lat="44.65872" lon="6.01151">
        <ele>1840.2</ele>
        <time>2023-05-15T13:11:50Z</time>
      </trkpt>
      <trkpt lat="44.65872" lon="6.01151">
        <ele>1840.4</ele>
        <time>2023-05-15T13:11:51Z</time>
      </trkpt>
      <trkpt lat="44.65872" lon="6.01151">
        <ele>1840.4</ele>
        <time>2023-05-15T13:11:52Z</time>
      </trkpt>
      <trkpt lat="44.65873" lon="6.01151">
        <ele>1840.6</ele>
        <time>2023-05-15T13:11:53Z</time>
      </trkpt>
      <trkpt lat="44.65873" lon="6.01152">
        <ele>1840.8</ele>
        <time>2023-05-15T13:11:54Z</time>
      </trkpt>
      <trkpt lat="44.65874" lon="6.01152">
        <ele>1841</ele>
        <time>2023-05-15T13:11:55Z</time>
      </trkpt>
      <trkpt lat="44.65874" lon="6.01152">
        <ele>1841.4</ele>
        <time>2023-05-15T13:11:56Z</time>
      </trkpt>
      <trkpt lat="44.65874" lon="6.01152">
        <ele>1841.4</ele>
        <time>2023-05-15T13:11:57Z</time>
      </trkpt>
      <trkpt lat="44.65874" lon="6.01152">
        <ele>1841.8</ele>
        <time>2023-05-15T13:11:58Z</time>
      </trkpt>
      <trkpt lat="44.65874" lon="6.01152">
        <ele>1841.8</ele>
        <time>2023-05-15T13:11:59Z</time>
      </trkpt>
      <trkpt lat="44.65875" lon="6.01152">
        <ele>1842</ele>
        <time>2023-05-15T13:12:01Z</time>
      </trkpt>
      <trkpt lat="44.65875" lon="6.01152">
        <ele>1842</ele>
        <time>2023-05-15T13:12:02Z</time>
      </trkpt>
      <trkpt lat="44.65876" lon="6.01153">
        <ele>1842</ele>
        <time>2023-05-15T13:12:03Z</time>
      </trkpt>
      <trkpt lat="44.65877" lon="6.01153">
        <ele>1842</ele>
        <time>2023-05-15T13:12:04Z</time>
      </trkpt>
      <trkpt lat="44.65879" lon="6.01153">
        <ele>1842.2</ele>
        <time>2023-05-15T13:12:11Z</time>
      </trkpt>
      <trkpt lat="44.6588" lon="6.01154">
        <ele>1842.2</ele>
        <time>2023-05-15T13:12:12Z</time>
      </trkpt>
      <trkpt lat="44.6588" lon="6.01154">
        <ele>1842.2</ele>
        <time>2023-05-15T13:12:13Z</time>
      </trkpt>
      <trkpt lat="44.65881" lon="6.01155">
        <ele>1842.2</ele>
        <time>2023-05-15T13:12:14Z</time>
      </trkpt>
      <trkpt lat="44.65882" lon="6.01155">
        <ele>1842.2</ele>
        <time>2023-05-15T13:12:15Z</time>
      </trkpt>
      <trkpt lat="44.65882" lon="6.01155">
        <ele>1842.2</ele>
        <time>2023-05-15T13:12:16Z</time>
      </trkpt>
      <trkpt lat="44.65883" lon="6.01155">
        <ele>1842.2</ele>
        <time>2023-05-15T13:12:17Z</time>
      </trkpt>
      <trkpt lat="44.65885" lon="6.01155">
        <ele>1842.2</ele>
        <time>2023-05-15T13:12:20Z</time>
      </trkpt>
      <trkpt lat="44.65886" lon="6.01156">
        <ele>1842.2</ele>
        <time>2023-05-15T13:12:23Z</time>
      </trkpt>
      <trkpt lat="44.65886" lon="6.01156">
        <ele>1842.4</ele>
        <time>2023-05-15T13:12:24Z</time>
      </trkpt>
      <trkpt lat="44.65887" lon="6.01156">
        <ele>1842.4</ele>
        <time>2023-05-15T13:12:25Z</time>
      </trkpt>
      <trkpt lat="44.65887" lon="6.01156">
        <ele>1842.4</ele>
        <time>2023-05-15T13:12:26Z</time>
      </trkpt>
      <trkpt lat="44.65889" lon="6.01156">
        <ele>1843.2</ele>
        <time>2023-05-15T13:12:30Z</time>
      </trkpt>
      <trkpt lat="44.6589" lon="6.01157">
        <ele>1843.2</ele>
        <time>2023-05-15T13:12:31Z</time>
      </trkpt>
      <trkpt lat="44.65891" lon="6.01157">
        <ele>1843.8</ele>
        <time>2023-05-15T13:12:34Z</time>
      </trkpt>
      <trkpt lat="44.65893" lon="6.01158">
        <ele>1844</ele>
        <time>2023-05-15T13:12:38Z</time>
      </trkpt>
      <trkpt lat="44.65893" lon="6.01158">
        <ele>1844</ele>
        <time>2023-05-15T13:12:39Z</time>
      </trkpt>
      <trkpt lat="44.65893" lon="6.01158">
        <ele>1844.2</ele>
        <time>2023-05-15T13:12:40Z</time>
      </trkpt>
      <trkpt lat="44.65893" lon="6.01158">
        <ele>1844.6</ele>
        <time>2023-05-15T13:12:41Z</time>
      </trkpt>
      <trkpt lat="44.65895" lon="6.01159">
        <ele>1845.2</ele>
        <time>2023-05-15T13:12:43Z</time>
      </trkpt>
      <trkpt lat="44.65896" lon="6.01159">
        <ele>1845.6</ele>
        <time>2023-05-15T13:12:45Z</time>
      </trkpt>
      <trkpt lat="44.65897" lon="6.0116">
        <ele>1845.8</ele>
        <time>2023-05-15T13:12:48Z</time>
      </trkpt>
      <trkpt lat="44.65898" lon="6.0116">
        <ele>1845.8</ele>
        <time>2023-05-15T13:12:49Z</time>
      </trkpt>
      <trkpt lat="44.65898" lon="6.0116">
        <ele>1845.8</ele>
        <time>2023-05-15T13:12:50Z</time>
      </trkpt>
      <trkpt lat="44.65899" lon="6.01161">
        <ele>1845.8</ele>
        <time>2023-05-15T13:12:51Z</time>
      </trkpt>
      <trkpt lat="44.659" lon="6.01161">
        <ele>1845.8</ele>
        <time>2023-05-15T13:12:52Z</time>
      </trkpt>
      <trkpt lat="44.659" lon="6.01161">
        <ele>1845.8</ele>
        <time>2023-05-15T13:12:53Z</time>
      </trkpt>
      <trkpt lat="44.65901" lon="6.01161">
        <ele>1845.8</ele>
        <time>2023-05-15T13:12:54Z</time>
      </trkpt>
      <trkpt lat="44.65901" lon="6.01162">
        <ele>1845.8</ele>
        <time>2023-05-15T13:12:55Z</time>
      </trkpt>
      <trkpt lat="44.65901" lon="6.01162">
        <ele>1846</ele>
        <time>2023-05-15T13:12:56Z</time>
      </trkpt>
      <trkpt lat="44.65902" lon="6.01162">
        <ele>1846.2</ele>
        <time>2023-05-15T13:12:57Z</time>
      </trkpt>
      <trkpt lat="44.65902" lon="6.01162">
        <ele>1846.2</ele>
        <time>2023-05-15T13:12:58Z</time>
      </trkpt>
      <trkpt lat="44.65903" lon="6.01163">
        <ele>1846.4</ele>
        <time>2023-05-15T13:12:59Z</time>
      </trkpt>
      <trkpt lat="44.65903" lon="6.01163">
        <ele>1846.6</ele>
        <time>2023-05-15T13:13:00Z</time>
      </trkpt>
      <trkpt lat="44.65904" lon="6.01164">
        <ele>1846.8</ele>
        <time>2023-05-15T13:13:01Z</time>
      </trkpt>
      <trkpt lat="44.65905" lon="6.01164">
        <ele>1846.8</ele>
        <time>2023-05-15T13:13:02Z</time>
      </trkpt>
      <trkpt lat="44.65905" lon="6.01164">
        <ele>1846.8</ele>
        <time>2023-05-15T13:13:03Z</time>
      </trkpt>
      <trkpt lat="44.65906" lon="6.01165">
        <ele>1846.8</ele>
        <time>2023-05-15T13:13:04Z</time>
      </trkpt>
      <trkpt lat="44.65906" lon="6.01165">
        <ele>1846.8</ele>
        <time>2023-05-15T13:13:05Z</time>
      </trkpt>
      <trkpt lat="44.65907" lon="6.01166">
        <ele>1846.8</ele>
        <time>2023-05-15T13:13:06Z</time>
      </trkpt>
      <trkpt lat="44.65908" lon="6.01166">
        <ele>1846.8</ele>
        <time>2023-05-15T13:13:08Z</time>
      </trkpt>
      <trkpt lat="44.65908" lon="6.01167">
        <ele>1846.8</ele>
        <time>2023-05-15T13:13:09Z</time>
      </trkpt>
      <trkpt lat="44.65909" lon="6.01168">
        <ele>1846.6</ele>
        <time>2023-05-15T13:13:10Z</time>
      </trkpt>
      <trkpt lat="44.65909" lon="6.01168">
        <ele>1846.4</ele>
        <time>2023-05-15T13:13:11Z</time>
      </trkpt>
      <trkpt lat="44.65913" lon="6.01171">
        <ele>1845.8</ele>
        <time>2023-05-15T13:13:18Z</time>
      </trkpt>
      <trkpt lat="44.65916" lon="6.01173">
        <ele>1846</ele>
        <time>2023-05-15T13:13:22Z</time>
      </trkpt>
      <trkpt lat="44.65917" lon="6.01174">
        <ele>1846.2</ele>
        <time>2023-05-15T13:13:24Z</time>
      </trkpt>
      <trkpt lat="44.65917" lon="6.01174">
        <ele>1846.4</ele>
        <time>2023-05-15T13:13:25Z</time>
      </trkpt>
      <trkpt lat="44.65921" lon="6.01178">
        <ele>1846.8</ele>
        <time>2023-05-15T13:13:31Z</time>
      </trkpt>
      <trkpt lat="44.65922" lon="6.01179">
        <ele>1846.8</ele>
        <time>2023-05-15T13:13:34Z</time>
      </trkpt>
      <trkpt lat="44.65923" lon="6.01179">
        <ele>1847</ele>
        <time>2023-05-15T13:13:35Z</time>
      </trkpt>
      <trkpt lat="44.65924" lon="6.01181">
        <ele>1847.4</ele>
        <time>2023-05-15T13:13:38Z</time>
      </trkpt>
      <trkpt lat="44.65925" lon="6.01182">
        <ele>1847.6</ele>
        <time>2023-05-15T13:13:39Z</time>
      </trkpt>
      <trkpt lat="44.65925" lon="6.01182">
        <ele>1847.8</ele>
        <time>2023-05-15T13:13:40Z</time>
      </trkpt>
      <trkpt lat="44.65926" lon="6.01182">
        <ele>1848</ele>
        <time>2023-05-15T13:13:41Z</time>
      </trkpt>
      <trkpt lat="44.65926" lon="6.01183">
        <ele>1848.6</ele>
        <time>2023-05-15T13:13:42Z</time>
      </trkpt>
      <trkpt lat="44.65927" lon="6.01183">
        <ele>1848.6</ele>
        <time>2023-05-15T13:13:43Z</time>
      </trkpt>
      <trkpt lat="44.65927" lon="6.01183">
        <ele>1849</ele>
        <time>2023-05-15T13:13:44Z</time>
      </trkpt>
      <trkpt lat="44.65927" lon="6.01183">
        <ele>1849.2</ele>
        <time>2023-05-15T13:13:45Z</time>
      </trkpt>
      <trkpt lat="44.65927" lon="6.01184">
        <ele>1849.4</ele>
        <time>2023-05-15T13:13:46Z</time>
      </trkpt>
      <trkpt lat="44.65928" lon="6.01184">
        <ele>1849.4</ele>
        <time>2023-05-15T13:13:48Z</time>
      </trkpt>
      <trkpt lat="44.65929" lon="6.01184">
        <ele>1849.6</ele>
        <time>2023-05-15T13:13:49Z</time>
      </trkpt>
      <trkpt lat="44.65929" lon="6.01185">
        <ele>1849.8</ele>
        <time>2023-05-15T13:13:50Z</time>
      </trkpt>
      <trkpt lat="44.6593" lon="6.01186">
        <ele>1849.8</ele>
        <time>2023-05-15T13:13:51Z</time>
      </trkpt>
      <trkpt lat="44.6593" lon="6.01187">
        <ele>1849.8</ele>
        <time>2023-05-15T13:13:52Z</time>
      </trkpt>
      <trkpt lat="44.65931" lon="6.01188">
        <ele>1849.8</ele>
        <time>2023-05-15T13:13:53Z</time>
      </trkpt>
      <trkpt lat="44.65931" lon="6.01188">
        <ele>1849.8</ele>
        <time>2023-05-15T13:13:54Z</time>
      </trkpt>
      <trkpt lat="44.65932" lon="6.01189">
        <ele>1849.4</ele>
        <time>2023-05-15T13:14:02Z</time>
      </trkpt>
      <trkpt lat="44.65935" lon="6.01191">
        <ele>1850</ele>
        <time>2023-05-15T13:14:14Z</time>
      </trkpt>
      <trkpt lat="44.65937" lon="6.01193">
        <ele>1850.6</ele>
        <time>2023-05-15T13:14:18Z</time>
      </trkpt>
      <trkpt lat="44.65938" lon="6.01194">
        <ele>1850.6</ele>
        <time>2023-05-15T13:14:19Z</time>
      </trkpt>
      <trkpt lat="44.65939" lon="6.01194">
        <ele>1850.8</ele>
        <time>2023-05-15T13:14:20Z</time>
      </trkpt>
      <trkpt lat="44.65939" lon="6.01195">
        <ele>1850.8</ele>
        <time>2023-05-15T13:14:21Z</time>
      </trkpt>
      <trkpt lat="44.65939" lon="6.01195">
        <ele>1851.2</ele>
        <time>2023-05-15T13:14:22Z</time>
      </trkpt>
      <trkpt lat="44.6594" lon="6.01195">
        <ele>1851.2</ele>
        <time>2023-05-15T13:14:23Z</time>
      </trkpt>
      <trkpt lat="44.65946" lon="6.01197">
        <ele>1851.2</ele>
        <time>2023-05-15T13:14:31Z</time>
      </trkpt>
      <trkpt lat="44.65948" lon="6.01198">
        <ele>1851.2</ele>
        <time>2023-05-15T13:14:36Z</time>
      </trkpt>
      <trkpt lat="44.65951" lon="6.01199">
        <ele>1851.2</ele>
        <time>2023-05-15T13:14:38Z</time>
      </trkpt>
      <trkpt lat="44.65953" lon="6.012">
        <ele>1851.2</ele>
        <time>2023-05-15T13:14:39Z</time>
      </trkpt>
      <trkpt lat="44.65954" lon="6.01201">
        <ele>1851.2</ele>
        <time>2023-05-15T13:14:40Z</time>
      </trkpt>
      <trkpt lat="44.65956" lon="6.01201">
        <ele>1851.2</ele>
        <time>2023-05-15T13:14:41Z</time>
      </trkpt>
      <trkpt lat="44.65957" lon="6.01201">
        <ele>1851.2</ele>
        <time>2023-05-15T13:14:42Z</time>
      </trkpt>
      <trkpt lat="44.65961" lon="6.01203">
        <ele>1850.8</ele>
        <time>2023-05-15T13:14:45Z</time>
      </trkpt>
      <trkpt lat="44.65969" lon="6.01208">
        <ele>1850.6</ele>
        <time>2023-05-15T13:14:51Z</time>
      </trkpt>
      <trkpt lat="44.6597" lon="6.01208">
        <ele>1850.6</ele>
        <time>2023-05-15T13:14:52Z</time>
      </trkpt>
      <trkpt lat="44.65982" lon="6.01212">
        <ele>1850.6</ele>
        <time>2023-05-15T13:15:00Z</time>
      </trkpt>
      <trkpt lat="44.65983" lon="6.01212">
        <ele>1850.6</ele>
        <time>2023-05-15T13:15:01Z</time>
      </trkpt>
      <trkpt lat="44.65984" lon="6.01213">
        <ele>1850.6</ele>
        <time>2023-05-15T13:15:02Z</time>
      </trkpt>
      <trkpt lat="44.65985" lon="6.01213">
        <ele>1850.4</ele>
        <time>2023-05-15T13:15:03Z</time>
      </trkpt>
      <trkpt lat="44.65986" lon="6.01213">
        <ele>1850.4</ele>
        <time>2023-05-15T13:15:04Z</time>
      </trkpt>
      <trkpt lat="44.65986" lon="6.01213">
        <ele>1849.8</ele>
        <time>2023-05-15T13:15:07Z</time>
      </trkpt>
      <trkpt lat="44.65986" lon="6.01213">
        <ele>1849.4</ele>
        <time>2023-05-15T13:15:10Z</time>
      </trkpt>
      <trkpt lat="44.65988" lon="6.01214">
        <ele>1849</ele>
        <time>2023-05-15T13:15:14Z</time>
      </trkpt>
      <trkpt lat="44.65991" lon="6.01214">
        <ele>1849</ele>
        <time>2023-05-15T13:15:16Z</time>
      </trkpt>
      <trkpt lat="44.65992" lon="6.01214">
        <ele>1849</ele>
        <time>2023-05-15T13:15:17Z</time>
      </trkpt>
      <trkpt lat="44.65993" lon="6.01214">
        <ele>1848.6</ele>
        <time>2023-05-15T13:15:18Z</time>
      </trkpt>
      <trkpt lat="44.65996" lon="6.01215">
        <ele>1848.6</ele>
        <time>2023-05-15T13:15:20Z</time>
      </trkpt>
      <trkpt lat="44.65997" lon="6.01215">
        <ele>1848.6</ele>
        <time>2023-05-15T13:15:21Z</time>
      </trkpt>
      <trkpt lat="44.65997" lon="6.01215">
        <ele>1848.4</ele>
        <time>2023-05-15T13:15:22Z</time>
      </trkpt>
      <trkpt lat="44.65997" lon="6.01215">
        <ele>1847.6</ele>
        <time>2023-05-15T13:15:25Z</time>
      </trkpt>
      <trkpt lat="44.65997" lon="6.01215">
        <ele>1846.8</ele>
        <time>2023-05-15T13:15:29Z</time>
      </trkpt>
      <trkpt lat="44.66" lon="6.01215">
        <ele>1846.6</ele>
        <time>2023-05-15T13:15:33Z</time>
      </trkpt>
      <trkpt lat="44.66003" lon="6.01216">
        <ele>1846.6</ele>
        <time>2023-05-15T13:15:35Z</time>
      </trkpt>
      <trkpt lat="44.66005" lon="6.01216">
        <ele>1846.6</ele>
        <time>2023-05-15T13:15:36Z</time>
      </trkpt>
      <trkpt lat="44.66009" lon="6.01216">
        <ele>1846.6</ele>
        <time>2023-05-15T13:15:38Z</time>
      </trkpt>
      <trkpt lat="44.66026" lon="6.01215">
        <ele>1845.8</ele>
        <time>2023-05-15T13:15:46Z</time>
      </trkpt>
      <trkpt lat="44.66029" lon="6.01214">
        <ele>1845.4</ele>
        <time>2023-05-15T13:15:48Z</time>
      </trkpt>
      <trkpt lat="44.66029" lon="6.01214">
        <ele>1845.2</ele>
        <time>2023-05-15T13:15:50Z</time>
      </trkpt>
      <trkpt lat="44.66032" lon="6.01212">
        <ele>1844.8</ele>
        <time>2023-05-15T13:15:53Z</time>
      </trkpt>
      <trkpt lat="44.66033" lon="6.01211">
        <ele>1844.4</ele>
        <time>2023-05-15T13:15:55Z</time>
      </trkpt>
      <trkpt lat="44.66033" lon="6.01211">
        <ele>1843.6</ele>
        <time>2023-05-15T13:16:00Z</time>
      </trkpt>
      <trkpt lat="44.66033" lon="6.01211">
        <ele>1843.4</ele>
        <time>2023-05-15T13:16:01Z</time>
      </trkpt>
      <trkpt lat="44.66033" lon="6.01211">
        <ele>1842.4</ele>
        <time>2023-05-15T13:16:05Z</time>
      </trkpt>
      <trkpt lat="44.66033" lon="6.01211">
        <ele>1842.4</ele>
        <time>2023-05-15T13:16:06Z</time>
      </trkpt>
      <trkpt lat="44.66033" lon="6.01211">
        <ele>1841.4</ele>
        <time>2023-05-15T13:16:29Z</time>
      </trkpt>
      <trkpt lat="44.66033" lon="6.01211">
        <ele>1840.6</ele>
        <time>2023-05-15T13:17:01Z</time>
      </trkpt>
      <trkpt lat="44.66033" lon="6.01212">
        <ele>1840.8</ele>
        <time>2023-05-15T13:17:03Z</time>
      </trkpt>
      <trkpt lat="44.66034" lon="6.01213">
        <ele>1840.8</ele>
        <time>2023-05-15T13:17:04Z</time>
      </trkpt>
      <trkpt lat="44.66034" lon="6.01213">
        <ele>1840.8</ele>
        <time>2023-05-15T13:17:05Z</time>
      </trkpt>
      <trkpt lat="44.66034" lon="6.01213">
        <ele>1841.8</ele>
        <time>2023-05-15T13:17:12Z</time>
      </trkpt>
      <trkpt lat="44.66034" lon="6.01213">
        <ele>1842.2</ele>
        <time>2023-05-15T13:17:33Z</time>
      </trkpt>
      <trkpt lat="44.66035" lon="6.01213">
        <ele>1842.6</ele>
        <time>2023-05-15T13:17:38Z</time>
      </trkpt>
      <trkpt lat="44.66037" lon="6.01213">
        <ele>1842.8</ele>
        <time>2023-05-15T13:17:39Z</time>
      </trkpt>
      <trkpt lat="44.66041" lon="6.01212">
        <ele>1842.6</ele>
        <time>2023-05-15T13:17:41Z</time>
      </trkpt>
      <trkpt lat="44.66044" lon="6.01211">
        <ele>1842.6</ele>
        <time>2023-05-15T13:17:42Z</time>
      </trkpt>
      <trkpt lat="44.66049" lon="6.01212">
        <ele>1842.6</ele>
        <time>2023-05-15T13:17:44Z</time>
      </trkpt>
      <trkpt lat="44.66051" lon="6.01214">
        <ele>1842.4</ele>
        <time>2023-05-15T13:17:45Z</time>
      </trkpt>
      <trkpt lat="44.66053" lon="6.01216">
        <ele>1842</ele>
        <time>2023-05-15T13:17:46Z</time>
      </trkpt>
      <trkpt lat="44.66055" lon="6.01218">
        <ele>1841.8</ele>
        <time>2023-05-15T13:17:47Z</time>
      </trkpt>
      <trkpt lat="44.66057" lon="6.0122">
        <ele>1840.8</ele>
        <time>2023-05-15T13:17:48Z</time>
      </trkpt>
      <trkpt lat="44.66063" lon="6.01225">
        <ele>1839.8</ele>
        <time>2023-05-15T13:17:51Z</time>
      </trkpt>
      <trkpt lat="44.66068" lon="6.01228">
        <ele>1839.2</ele>
        <time>2023-05-15T13:17:53Z</time>
      </trkpt>
      <trkpt lat="44.6607" lon="6.0123">
        <ele>1839.2</ele>
        <time>2023-05-15T13:17:54Z</time>
      </trkpt>
      <trkpt lat="44.66072" lon="6.01232">
        <ele>1838.8</ele>
        <time>2023-05-15T13:17:55Z</time>
      </trkpt>
      <trkpt lat="44.66073" lon="6.01234">
        <ele>1838.6</ele>
        <time>2023-05-15T13:17:56Z</time>
      </trkpt>
      <trkpt lat="44.66075" lon="6.01235">
        <ele>1838.2</ele>
        <time>2023-05-15T13:17:57Z</time>
      </trkpt>
      <trkpt lat="44.66076" lon="6.01236">
        <ele>1838</ele>
        <time>2023-05-15T13:17:58Z</time>
      </trkpt>
      <trkpt lat="44.66077" lon="6.01237">
        <ele>1837.8</ele>
        <time>2023-05-15T13:17:59Z</time>
      </trkpt>
      <trkpt lat="44.66078" lon="6.01238">
        <ele>1837.4</ele>
        <time>2023-05-15T13:18:00Z</time>
      </trkpt>
      <trkpt lat="44.66078" lon="6.01238">
        <ele>1836.4</ele>
        <time>2023-05-15T13:18:05Z</time>
      </trkpt>
      <trkpt lat="44.6608" lon="6.0124">
        <ele>1836.4</ele>
        <time>2023-05-15T13:18:11Z</time>
      </trkpt>
      <trkpt lat="44.66081" lon="6.01242">
        <ele>1836.4</ele>
        <time>2023-05-15T13:18:12Z</time>
      </trkpt>
      <trkpt lat="44.66083" lon="6.01244">
        <ele>1836.6</ele>
        <time>2023-05-15T13:18:13Z</time>
      </trkpt>
      <trkpt lat="44.66085" lon="6.01246">
        <ele>1836.6</ele>
        <time>2023-05-15T13:18:14Z</time>
      </trkpt>
      <trkpt lat="44.66087" lon="6.01248">
        <ele>1836.6</ele>
        <time>2023-05-15T13:18:15Z</time>
      </trkpt>
      <trkpt lat="44.66089" lon="6.01249">
        <ele>1836.6</ele>
        <time>2023-05-15T13:18:16Z</time>
      </trkpt>
      <trkpt lat="44.66091" lon="6.01249">
        <ele>1836.6</ele>
        <time>2023-05-15T13:18:17Z</time>
      </trkpt>
      <trkpt lat="44.66092" lon="6.01249">
        <ele>1836.4</ele>
        <time>2023-05-15T13:18:18Z</time>
      </trkpt>
      <trkpt lat="44.66094" lon="6.01249">
        <ele>1835.6</ele>
        <time>2023-05-15T13:18:19Z</time>
      </trkpt>
      <trkpt lat="44.66096" lon="6.01249">
        <ele>1834.8</ele>
        <time>2023-05-15T13:18:20Z</time>
      </trkpt>
      <trkpt lat="44.66098" lon="6.0125">
        <ele>1834.2</ele>
        <time>2023-05-15T13:18:21Z</time>
      </trkpt>
      <trkpt lat="44.66101" lon="6.01252">
        <ele>1832.8</ele>
        <time>2023-05-15T13:18:22Z</time>
      </trkpt>
      <trkpt lat="44.66107" lon="6.01254">
        <ele>1831</ele>
        <time>2023-05-15T13:18:24Z</time>
      </trkpt>
      <trkpt lat="44.66113" lon="6.01257">
        <ele>1829.4</ele>
        <time>2023-05-15T13:18:26Z</time>
      </trkpt>
      <trkpt lat="44.66115" lon="6.01259">
        <ele>1828.8</ele>
        <time>2023-05-15T13:18:27Z</time>
      </trkpt>
      <trkpt lat="44.66118" lon="6.01261">
        <ele>1827.2</ele>
        <time>2023-05-15T13:18:28Z</time>
      </trkpt>
      <trkpt lat="44.6612" lon="6.01263">
        <ele>1825</ele>
        <time>2023-05-15T13:18:29Z</time>
      </trkpt>
      <trkpt lat="44.66126" lon="6.01267">
        <ele>1823.6</ele>
        <time>2023-05-15T13:18:31Z</time>
      </trkpt>
      <trkpt lat="44.66129" lon="6.01269">
        <ele>1822.8</ele>
        <time>2023-05-15T13:18:32Z</time>
      </trkpt>
      <trkpt lat="44.66131" lon="6.0127">
        <ele>1821.8</ele>
        <time>2023-05-15T13:18:33Z</time>
      </trkpt>
      <trkpt lat="44.66134" lon="6.01272">
        <ele>1821.2</ele>
        <time>2023-05-15T13:18:34Z</time>
      </trkpt>
      <trkpt lat="44.66136" lon="6.01275">
        <ele>1819.6</ele>
        <time>2023-05-15T13:18:35Z</time>
      </trkpt>
      <trkpt lat="44.66137" lon="6.01277">
        <ele>1819.2</ele>
        <time>2023-05-15T13:18:36Z</time>
      </trkpt>
      <trkpt lat="44.66139" lon="6.01278">
        <ele>1818</ele>
        <time>2023-05-15T13:18:37Z</time>
      </trkpt>
      <trkpt lat="44.66141" lon="6.01279">
        <ele>1817</ele>
        <time>2023-05-15T13:18:38Z</time>
      </trkpt>
      <trkpt lat="44.66143" lon="6.0128">
        <ele>1816.4</ele>
        <time>2023-05-15T13:18:39Z</time>
      </trkpt>
      <trkpt lat="44.66145" lon="6.01281">
        <ele>1815.4</ele>
        <time>2023-05-15T13:18:40Z</time>
      </trkpt>
      <trkpt lat="44.66147" lon="6.01282">
        <ele>1815</ele>
        <time>2023-05-15T13:18:41Z</time>
      </trkpt>
      <trkpt lat="44.66148" lon="6.01282">
        <ele>1813</ele>
        <time>2023-05-15T13:18:42Z</time>
      </trkpt>
      <trkpt lat="44.66149" lon="6.01283">
        <ele>1812.4</ele>
        <time>2023-05-15T13:18:43Z</time>
      </trkpt>
      <trkpt lat="44.6615" lon="6.01284">
        <ele>1811</ele>
        <time>2023-05-15T13:18:44Z</time>
      </trkpt>
      <trkpt lat="44.6615" lon="6.01284">
        <ele>1810</ele>
        <time>2023-05-15T13:18:45Z</time>
      </trkpt>
      <trkpt lat="44.6615" lon="6.01284">
        <ele>1809.6</ele>
        <time>2023-05-15T13:18:46Z</time>
      </trkpt>
      <trkpt lat="44.6615" lon="6.01284">
        <ele>1808.4</ele>
        <time>2023-05-15T13:18:47Z</time>
      </trkpt>
      <trkpt lat="44.6615" lon="6.01284">
        <ele>1807.8</ele>
        <time>2023-05-15T13:18:48Z</time>
      </trkpt>
      <trkpt lat="44.6615" lon="6.01284">
        <ele>1807.2</ele>
        <time>2023-05-15T13:18:49Z</time>
      </trkpt>
      <trkpt lat="44.6615" lon="6.01284">
        <ele>1806.2</ele>
        <time>2023-05-15T13:18:51Z</time>
      </trkpt>
      <trkpt lat="44.6615" lon="6.01284">
        <ele>1805.2</ele>
        <time>2023-05-15T13:18:55Z</time>
      </trkpt>
      <trkpt lat="44.6615" lon="6.01284">
        <ele>1805</ele>
        <time>2023-05-15T13:19:02Z</time>
      </trkpt>
      <trkpt lat="44.6615" lon="6.01284">
        <ele>1804.2</ele>
        <time>2023-05-15T13:19:18Z</time>
      </trkpt>
      <trkpt lat="44.66153" lon="6.01287">
        <ele>1804.4</ele>
        <time>2023-05-15T13:19:26Z</time>
      </trkpt>
      <trkpt lat="44.66166" lon="6.01299">
        <ele>1804.4</ele>
        <time>2023-05-15T13:19:31Z</time>
      </trkpt>
      <trkpt lat="44.66173" lon="6.01305">
        <ele>1803.2</ele>
        <time>2023-05-15T13:19:33Z</time>
      </trkpt>
      <trkpt lat="44.66177" lon="6.01307">
        <ele>1802.6</ele>
        <time>2023-05-15T13:19:34Z</time>
      </trkpt>
      <trkpt lat="44.6618" lon="6.0131">
        <ele>1802.4</ele>
        <time>2023-05-15T13:19:35Z</time>
      </trkpt>
      <trkpt lat="44.66183" lon="6.01312">
        <ele>1800.8</ele>
        <time>2023-05-15T13:19:36Z</time>
      </trkpt>
      <trkpt lat="44.66185" lon="6.01314">
        <ele>1800.2</ele>
        <time>2023-05-15T13:19:37Z</time>
      </trkpt>
      <trkpt lat="44.66187" lon="6.01316">
        <ele>1798.4</ele>
        <time>2023-05-15T13:19:38Z</time>
      </trkpt>
      <trkpt lat="44.6619" lon="6.01318">
        <ele>1796.4</ele>
        <time>2023-05-15T13:19:39Z</time>
      </trkpt>
      <trkpt lat="44.66192" lon="6.01319">
        <ele>1795.8</ele>
        <time>2023-05-15T13:19:40Z</time>
      </trkpt>
      <trkpt lat="44.66194" lon="6.0132">
        <ele>1794.4</ele>
        <time>2023-05-15T13:19:41Z</time>
      </trkpt>
      <trkpt lat="44.66198" lon="6.01321">
        <ele>1792.2</ele>
        <time>2023-05-15T13:19:43Z</time>
      </trkpt>
      <trkpt lat="44.66199" lon="6.01322">
        <ele>1791.2</ele>
        <time>2023-05-15T13:19:44Z</time>
      </trkpt>
      <trkpt lat="44.66199" lon="6.01322">
        <ele>1790.2</ele>
        <time>2023-05-15T13:19:45Z</time>
      </trkpt>
      <trkpt lat="44.66199" lon="6.01322">
        <ele>1787.8</ele>
        <time>2023-05-15T13:19:47Z</time>
      </trkpt>
      <trkpt lat="44.66199" lon="6.01322">
        <ele>1786.8</ele>
        <time>2023-05-15T13:19:48Z</time>
      </trkpt>
      <trkpt lat="44.66203" lon="6.01323">
        <ele>1785.6</ele>
        <time>2023-05-15T13:19:50Z</time>
      </trkpt>
      <trkpt lat="44.66208" lon="6.01325">
        <ele>1784.8</ele>
        <time>2023-05-15T13:19:52Z</time>
      </trkpt>
      <trkpt lat="44.66211" lon="6.01327">
        <ele>1784.4</ele>
        <time>2023-05-15T13:19:53Z</time>
      </trkpt>
      <trkpt lat="44.66216" lon="6.01332">
        <ele>1783.4</ele>
        <time>2023-05-15T13:19:55Z</time>
      </trkpt>
      <trkpt lat="44.66219" lon="6.01334">
        <ele>1783</ele>
        <time>2023-05-15T13:19:56Z</time>
      </trkpt>
      <trkpt lat="44.66221" lon="6.01336">
        <ele>1781.6</ele>
        <time>2023-05-15T13:19:57Z</time>
      </trkpt>
      <trkpt lat="44.66224" lon="6.01338">
        <ele>1780</ele>
        <time>2023-05-15T13:19:58Z</time>
      </trkpt>
      <trkpt lat="44.66226" lon="6.0134">
        <ele>1778.2</ele>
        <time>2023-05-15T13:19:59Z</time>
      </trkpt>
      <trkpt lat="44.6623" lon="6.01343">
        <ele>1777</ele>
        <time>2023-05-15T13:20:01Z</time>
      </trkpt>
      <trkpt lat="44.66233" lon="6.01345">
        <ele>1776.6</ele>
        <time>2023-05-15T13:20:02Z</time>
      </trkpt>
      <trkpt lat="44.66235" lon="6.01346">
        <ele>1775.8</ele>
        <time>2023-05-15T13:20:03Z</time>
      </trkpt>
      <trkpt lat="44.66237" lon="6.01347">
        <ele>1774.4</ele>
        <time>2023-05-15T13:20:04Z</time>
      </trkpt>
      <trkpt lat="44.66239" lon="6.01348">
        <ele>1774</ele>
        <time>2023-05-15T13:20:05Z</time>
      </trkpt>
      <trkpt lat="44.6624" lon="6.01349">
        <ele>1773</ele>
        <time>2023-05-15T13:20:06Z</time>
      </trkpt>
      <trkpt lat="44.66241" lon="6.0135">
        <ele>1772.2</ele>
        <time>2023-05-15T13:20:07Z</time>
      </trkpt>
      <trkpt lat="44.66241" lon="6.01352">
        <ele>1770.4</ele>
        <time>2023-05-15T13:20:08Z</time>
      </trkpt>
      <trkpt lat="44.66242" lon="6.01354">
        <ele>1769.8</ele>
        <time>2023-05-15T13:20:09Z</time>
      </trkpt>
      <trkpt lat="44.66243" lon="6.01355">
        <ele>1769</ele>
        <time>2023-05-15T13:20:10Z</time>
      </trkpt>
      <trkpt lat="44.66246" lon="6.01356">
        <ele>1767.6</ele>
        <time>2023-05-15T13:20:12Z</time>
      </trkpt>
      <trkpt lat="44.66247" lon="6.01356">
        <ele>1766.8</ele>
        <time>2023-05-15T13:20:13Z</time>
      </trkpt>
      <trkpt lat="44.66249" lon="6.01356">
        <ele>1766.4</ele>
        <time>2023-05-15T13:20:14Z</time>
      </trkpt>
      <trkpt lat="44.66256" lon="6.01357">
        <ele>1764.2</ele>
        <time>2023-05-15T13:20:17Z</time>
      </trkpt>
      <trkpt lat="44.66258" lon="6.01357">
        <ele>1763.4</ele>
        <time>2023-05-15T13:20:18Z</time>
      </trkpt>
      <trkpt lat="44.66258" lon="6.01357">
        <ele>1762.6</ele>
        <time>2023-05-15T13:20:19Z</time>
      </trkpt>
      <trkpt lat="44.66258" lon="6.01357">
        <ele>1760</ele>
        <time>2023-05-15T13:20:21Z</time>
      </trkpt>
      <trkpt lat="44.66258" lon="6.01357">
        <ele>1759</ele>
        <time>2023-05-15T13:20:22Z</time>
      </trkpt>
      <trkpt lat="44.66259" lon="6.01357">
        <ele>1757.8</ele>
        <time>2023-05-15T13:20:24Z</time>
      </trkpt>
      <trkpt lat="44.66259" lon="6.01356">
        <ele>1756.6</ele>
        <time>2023-05-15T13:20:28Z</time>
      </trkpt>
      <trkpt lat="44.66259" lon="6.01356">
        <ele>1756</ele>
        <time>2023-05-15T13:20:30Z</time>
      </trkpt>
      <trkpt lat="44.66259" lon="6.01356">
        <ele>1755.6</ele>
        <time>2023-05-15T13:20:34Z</time>
      </trkpt>
      <trkpt lat="44.66259" lon="6.01356">
        <ele>1754.8</ele>
        <time>2023-05-15T13:20:43Z</time>
      </trkpt>
      <trkpt lat="44.66259" lon="6.01356">
        <ele>1754.2</ele>
        <time>2023-05-15T13:21:13Z</time>
      </trkpt>
      <trkpt lat="44.66259" lon="6.01356">
        <ele>1755.2</ele>
        <time>2023-05-15T13:21:43Z</time>
      </trkpt>
      <trkpt lat="44.66257" lon="6.01359">
        <ele>1754.6</ele>
        <time>2023-05-15T13:21:49Z</time>
      </trkpt>
      <trkpt lat="44.66256" lon="6.01361">
        <ele>1754.4</ele>
        <time>2023-05-15T13:21:50Z</time>
      </trkpt>
      <trkpt lat="44.66255" lon="6.01363">
        <ele>1754.4</ele>
        <time>2023-05-15T13:21:51Z</time>
      </trkpt>
      <trkpt lat="44.66254" lon="6.01365">
        <ele>1754.2</ele>
        <time>2023-05-15T13:21:52Z</time>
      </trkpt>
      <trkpt lat="44.66252" lon="6.01366">
        <ele>1754.2</ele>
        <time>2023-05-15T13:21:53Z</time>
      </trkpt>
      <trkpt lat="44.6625" lon="6.01367">
        <ele>1753.8</ele>
        <time>2023-05-15T13:21:54Z</time>
      </trkpt>
      <trkpt lat="44.66248" lon="6.01368">
        <ele>1753.4</ele>
        <time>2023-05-15T13:21:55Z</time>
      </trkpt>
      <trkpt lat="44.66246" lon="6.01369">
        <ele>1753</ele>
        <time>2023-05-15T13:21:56Z</time>
      </trkpt>
      <trkpt lat="44.66244" lon="6.0137">
        <ele>1752.8</ele>
        <time>2023-05-15T13:21:57Z</time>
      </trkpt>
      <trkpt lat="44.66242" lon="6.01372">
        <ele>1751.8</ele>
        <time>2023-05-15T13:21:59Z</time>
      </trkpt>
      <trkpt lat="44.6624" lon="6.01373">
        <ele>1751.6</ele>
        <time>2023-05-15T13:22:00Z</time>
      </trkpt>
      <trkpt lat="44.66239" lon="6.01374">
        <ele>1751</ele>
        <time>2023-05-15T13:22:01Z</time>
      </trkpt>
      <trkpt lat="44.66237" lon="6.01377">
        <ele>1750.8</ele>
        <time>2023-05-15T13:22:02Z</time>
      </trkpt>
      <trkpt lat="44.66235" lon="6.0138">
        <ele>1750.2</ele>
        <time>2023-05-15T13:22:03Z</time>
      </trkpt>
      <trkpt lat="44.66232" lon="6.01385">
        <ele>1749.4</ele>
        <time>2023-05-15T13:22:05Z</time>
      </trkpt>
      <trkpt lat="44.6623" lon="6.01387">
        <ele>1749</ele>
        <time>2023-05-15T13:22:06Z</time>
      </trkpt>
      <trkpt lat="44.66229" lon="6.01389">
        <ele>1747.2</ele>
        <time>2023-05-15T13:22:07Z</time>
      </trkpt>
      <trkpt lat="44.66227" lon="6.01392">
        <ele>1745.8</ele>
        <time>2023-05-15T13:22:08Z</time>
      </trkpt>
      <trkpt lat="44.66224" lon="6.01396">
        <ele>1744.4</ele>
        <time>2023-05-15T13:22:10Z</time>
      </trkpt>
      <trkpt lat="44.66223" lon="6.01398">
        <ele>1744</ele>
        <time>2023-05-15T13:22:11Z</time>
      </trkpt>
      <trkpt lat="44.66222" lon="6.014">
        <ele>1743</ele>
        <time>2023-05-15T13:22:12Z</time>
      </trkpt>
      <trkpt lat="44.66219" lon="6.01403">
        <ele>1741.6</ele>
        <time>2023-05-15T13:22:14Z</time>
      </trkpt>
      <trkpt lat="44.66215" lon="6.01407">
        <ele>1739.6</ele>
        <time>2023-05-15T13:22:16Z</time>
      </trkpt>
      <trkpt lat="44.66213" lon="6.0141">
        <ele>1738.6</ele>
        <time>2023-05-15T13:22:17Z</time>
      </trkpt>
      <trkpt lat="44.66213" lon="6.01413">
        <ele>1738.2</ele>
        <time>2023-05-15T13:22:18Z</time>
      </trkpt>
      <trkpt lat="44.66212" lon="6.01415">
        <ele>1737.4</ele>
        <time>2023-05-15T13:22:19Z</time>
      </trkpt>
      <trkpt lat="44.6621" lon="6.01415">
        <ele>1737</ele>
        <time>2023-05-15T13:22:20Z</time>
      </trkpt>
      <trkpt lat="44.66209" lon="6.01415">
        <ele>1735.6</ele>
        <time>2023-05-15T13:22:21Z</time>
      </trkpt>
      <trkpt lat="44.66207" lon="6.01415">
        <ele>1735.2</ele>
        <time>2023-05-15T13:22:22Z</time>
      </trkpt>
      <trkpt lat="44.66206" lon="6.01414">
        <ele>1734.4</ele>
        <time>2023-05-15T13:22:23Z</time>
      </trkpt>
      <trkpt lat="44.66204" lon="6.01414">
        <ele>1734.2</ele>
        <time>2023-05-15T13:22:24Z</time>
      </trkpt>
      <trkpt lat="44.66203" lon="6.01414">
        <ele>1733.8</ele>
        <time>2023-05-15T13:22:25Z</time>
      </trkpt>
      <trkpt lat="44.66203" lon="6.01414">
        <ele>1733.4</ele>
        <time>2023-05-15T13:22:26Z</time>
      </trkpt>
      <trkpt lat="44.66203" lon="6.01414">
        <ele>1733.4</ele>
        <time>2023-05-15T13:22:27Z</time>
      </trkpt>
      <trkpt lat="44.66203" lon="6.01414">
        <ele>1733</ele>
        <time>2023-05-15T13:22:30Z</time>
      </trkpt>
      <trkpt lat="44.662" lon="6.01416">
        <ele>1732.6</ele>
        <time>2023-05-15T13:22:35Z</time>
      </trkpt>
      <trkpt lat="44.66198" lon="6.01418">
        <ele>1732.4</ele>
        <time>2023-05-15T13:22:37Z</time>
      </trkpt>
      <trkpt lat="44.66197" lon="6.01419">
        <ele>1732.2</ele>
        <time>2023-05-15T13:22:38Z</time>
      </trkpt>
      <trkpt lat="44.66196" lon="6.0142">
        <ele>1732.2</ele>
        <time>2023-05-15T13:22:39Z</time>
      </trkpt>
      <trkpt lat="44.66196" lon="6.01421">
        <ele>1732.2</ele>
        <time>2023-05-15T13:22:40Z</time>
      </trkpt>
      <trkpt lat="44.66196" lon="6.01421">
        <ele>1730.8</ele>
        <time>2023-05-15T13:22:44Z</time>
      </trkpt>
      <trkpt lat="44.66196" lon="6.01421">
        <ele>1730.4</ele>
        <time>2023-05-15T13:22:45Z</time>
      </trkpt>
      <trkpt lat="44.66195" lon="6.01421">
        <ele>1729.8</ele>
        <time>2023-05-15T13:22:48Z</time>
      </trkpt>
      <trkpt lat="44.66195" lon="6.01421">
        <ele>1729.6</ele>
        <time>2023-05-15T13:22:49Z</time>
      </trkpt>
      <trkpt lat="44.66195" lon="6.01422">
        <ele>1729.4</ele>
        <time>2023-05-15T13:22:50Z</time>
      </trkpt>
      <trkpt lat="44.66195" lon="6.01422">
        <ele>1729.4</ele>
        <time>2023-05-15T13:22:51Z</time>
      </trkpt>
      <trkpt lat="44.66194" lon="6.01422">
        <ele>1729</ele>
        <time>2023-05-15T13:22:53Z</time>
      </trkpt>
      <trkpt lat="44.66194" lon="6.01422">
        <ele>1728.6</ele>
        <time>2023-05-15T13:22:55Z</time>
      </trkpt>
      <trkpt lat="44.66194" lon="6.01422">
        <ele>1728.6</ele>
        <time>2023-05-15T13:22:56Z</time>
      </trkpt>
      <trkpt lat="44.66194" lon="6.01422">
        <ele>1728.6</ele>
        <time>2023-05-15T13:22:57Z</time>
      </trkpt>
      <trkpt lat="44.66193" lon="6.01423">
        <ele>1728.4</ele>
        <time>2023-05-15T13:22:58Z</time>
      </trkpt>
      <trkpt lat="44.66191" lon="6.01424">
        <ele>1728.4</ele>
        <time>2023-05-15T13:22:59Z</time>
      </trkpt>
      <trkpt lat="44.66188" lon="6.01427">
        <ele>1728.2</ele>
        <time>2023-05-15T13:23:01Z</time>
      </trkpt>
      <trkpt lat="44.66182" lon="6.0143">
        <ele>1727.6</ele>
        <time>2023-05-15T13:23:04Z</time>
      </trkpt>
      <trkpt lat="44.6618" lon="6.0143">
        <ele>1727.4</ele>
        <time>2023-05-15T13:23:05Z</time>
      </trkpt>
      <trkpt lat="44.66179" lon="6.01431">
        <ele>1727</ele>
        <time>2023-05-15T13:23:06Z</time>
      </trkpt>
      <trkpt lat="44.66178" lon="6.01431">
        <ele>1726.8</ele>
        <time>2023-05-15T13:23:07Z</time>
      </trkpt>
      <trkpt lat="44.66176" lon="6.01432">
        <ele>1725.2</ele>
        <time>2023-05-15T13:23:08Z</time>
      </trkpt>
      <trkpt lat="44.66173" lon="6.01433">
        <ele>1724.2</ele>
        <time>2023-05-15T13:23:10Z</time>
      </trkpt>
      <trkpt lat="44.66172" lon="6.01434">
        <ele>1723.8</ele>
        <time>2023-05-15T13:23:11Z</time>
      </trkpt>
      <trkpt lat="44.66171" lon="6.01434">
        <ele>1723.6</ele>
        <time>2023-05-15T13:23:12Z</time>
      </trkpt>
      <trkpt lat="44.66169" lon="6.01434">
        <ele>1723</ele>
        <time>2023-05-15T13:23:13Z</time>
      </trkpt>
      <trkpt lat="44.66168" lon="6.01434">
        <ele>1722.4</ele>
        <time>2023-05-15T13:23:14Z</time>
      </trkpt>
      <trkpt lat="44.66167" lon="6.01434">
        <ele>1721</ele>
        <time>2023-05-15T13:23:16Z</time>
      </trkpt>
      <trkpt lat="44.66167" lon="6.01434">
        <ele>1719.4</ele>
        <time>2023-05-15T13:23:18Z</time>
      </trkpt>
      <trkpt lat="44.66167" lon="6.01434">
        <ele>1718.4</ele>
        <time>2023-05-15T13:23:21Z</time>
      </trkpt>
      <trkpt lat="44.66167" lon="6.01434">
        <ele>1717.4</ele>
        <time>2023-05-15T13:23:27Z</time>
      </trkpt>
      <trkpt lat="44.66165" lon="6.01433">
        <ele>1717.4</ele>
        <time>2023-05-15T13:23:29Z</time>
      </trkpt>
      <trkpt lat="44.66164" lon="6.01433">
        <ele>1717</ele>
        <time>2023-05-15T13:23:31Z</time>
      </trkpt>
      <trkpt lat="44.66161" lon="6.01436">
        <ele>1715.8</ele>
        <time>2023-05-15T13:23:38Z</time>
      </trkpt>
      <trkpt lat="44.6616" lon="6.01437">
        <ele>1715.4</ele>
        <time>2023-05-15T13:23:41Z</time>
      </trkpt>
      <trkpt lat="44.66159" lon="6.01437">
        <ele>1715</ele>
        <time>2023-05-15T13:23:42Z</time>
      </trkpt>
      <trkpt lat="44.66158" lon="6.01438">
        <ele>1714.6</ele>
        <time>2023-05-15T13:23:43Z</time>
      </trkpt>
      <trkpt lat="44.66158" lon="6.01438">
        <ele>1714.6</ele>
        <time>2023-05-15T13:23:44Z</time>
      </trkpt>
      <trkpt lat="44.66158" lon="6.01438">
        <ele>1714.4</ele>
        <time>2023-05-15T13:23:45Z</time>
      </trkpt>
      <trkpt lat="44.66158" lon="6.01438">
        <ele>1713.6</ele>
        <time>2023-05-15T13:23:47Z</time>
      </trkpt>
      <trkpt lat="44.66158" lon="6.01438">
        <ele>1713.4</ele>
        <time>2023-05-15T13:23:48Z</time>
      </trkpt>
      <trkpt lat="44.66158" lon="6.01438">
        <ele>1712.4</ele>
        <time>2023-05-15T13:23:51Z</time>
      </trkpt>
      <trkpt lat="44.66158" lon="6.01438">
        <ele>1712.2</ele>
        <time>2023-05-15T13:23:52Z</time>
      </trkpt>
      <trkpt lat="44.66155" lon="6.01441">
        <ele>1712</ele>
        <time>2023-05-15T13:23:55Z</time>
      </trkpt>
      <trkpt lat="44.66154" lon="6.01442">
        <ele>1711.8</ele>
        <time>2023-05-15T13:23:56Z</time>
      </trkpt>
      <trkpt lat="44.66153" lon="6.01443">
        <ele>1711.6</ele>
        <time>2023-05-15T13:23:57Z</time>
      </trkpt>
      <trkpt lat="44.66152" lon="6.01443">
        <ele>1711.4</ele>
        <time>2023-05-15T13:23:58Z</time>
      </trkpt>
      <trkpt lat="44.6615" lon="6.01444">
        <ele>1711.2</ele>
        <time>2023-05-15T13:23:59Z</time>
      </trkpt>
      <trkpt lat="44.66148" lon="6.01444">
        <ele>1710.8</ele>
        <time>2023-05-15T13:24:00Z</time>
      </trkpt>
      <trkpt lat="44.66147" lon="6.01443">
        <ele>1710.6</ele>
        <time>2023-05-15T13:24:01Z</time>
      </trkpt>
      <trkpt lat="44.66143" lon="6.01443">
        <ele>1709.8</ele>
        <time>2023-05-15T13:24:04Z</time>
      </trkpt>
      <trkpt lat="44.66143" lon="6.01443">
        <ele>1709.4</ele>
        <time>2023-05-15T13:24:05Z</time>
      </trkpt>
      <trkpt lat="44.66142" lon="6.01443">
        <ele>1709</ele>
        <time>2023-05-15T13:24:06Z</time>
      </trkpt>
      <trkpt lat="44.66142" lon="6.01443">
        <ele>1708.4</ele>
        <time>2023-05-15T13:24:07Z</time>
      </trkpt>
      <trkpt lat="44.66142" lon="6.01443">
        <ele>1707.4</ele>
        <time>2023-05-15T13:24:12Z</time>
      </trkpt>
      <trkpt lat="44.66142" lon="6.01443">
        <ele>1707</ele>
        <time>2023-05-15T13:24:15Z</time>
      </trkpt>
      <trkpt lat="44.66142" lon="6.01443">
        <ele>1706.6</ele>
        <time>2023-05-15T13:24:25Z</time>
      </trkpt>
      <trkpt lat="44.66142" lon="6.01443">
        <ele>1707.2</ele>
        <time>2023-05-15T13:24:55Z</time>
      </trkpt>
      <trkpt lat="44.66142" lon="6.01443">
        <ele>1707.4</ele>
        <time>2023-05-15T13:25:18Z</time>
      </trkpt>
      <trkpt lat="44.66142" lon="6.01443">
        <ele>1707.8</ele>
        <time>2023-05-15T13:25:57Z</time>
      </trkpt>
      <trkpt lat="44.66142" lon="6.01443">
        <ele>1708</ele>
        <time>2023-05-15T13:26:05Z</time>
      </trkpt>
      <trkpt lat="44.66142" lon="6.01443">
        <ele>1707.8</ele>
        <time>2023-05-15T13:26:10Z</time>
      </trkpt>
      <trkpt lat="44.66142" lon="6.01443">
        <ele>1708.4</ele>
        <time>2023-05-15T13:26:28Z</time>
      </trkpt>
      <trkpt lat="44.66142" lon="6.01443">
        <ele>1708.6</ele>
        <time>2023-05-15T13:26:32Z</time>
      </trkpt>
      <trkpt lat="44.66142" lon="6.01443">
        <ele>1708.4</ele>
        <time>2023-05-15T13:26:48Z</time>
      </trkpt>
      <trkpt lat="44.66142" lon="6.01443">
        <ele>1708.4</ele>
        <time>2023-05-15T13:26:50Z</time>
      </trkpt>
      <trkpt lat="44.66142" lon="6.01443">
        <ele>1708</ele>
        <time>2023-05-15T13:27:04Z</time>
      </trkpt>
      <trkpt lat="44.6614" lon="6.01444">
        <ele>1708.2</ele>
        <time>2023-05-15T13:27:23Z</time>
      </trkpt>
      <trkpt lat="44.6614" lon="6.01446">
        <ele>1708.2</ele>
        <time>2023-05-15T13:27:24Z</time>
      </trkpt>
      <trkpt lat="44.6614" lon="6.01448">
        <ele>1708.4</ele>
        <time>2023-05-15T13:27:26Z</time>
      </trkpt>
      <trkpt lat="44.6614" lon="6.01449">
        <ele>1708.4</ele>
        <time>2023-05-15T13:27:27Z</time>
      </trkpt>
      <trkpt lat="44.6614" lon="6.0145">
        <ele>1708.4</ele>
        <time>2023-05-15T13:27:28Z</time>
      </trkpt>
      <trkpt lat="44.6614" lon="6.0145">
        <ele>1708.4</ele>
        <time>2023-05-15T13:27:29Z</time>
      </trkpt>
      <trkpt lat="44.66139" lon="6.01451">
        <ele>1708.4</ele>
        <time>2023-05-15T13:27:30Z</time>
      </trkpt>
      <trkpt lat="44.66138" lon="6.01452">
        <ele>1708.4</ele>
        <time>2023-05-15T13:27:31Z</time>
      </trkpt>
      <trkpt lat="44.66138" lon="6.01453">
        <ele>1708.4</ele>
        <time>2023-05-15T13:27:32Z</time>
      </trkpt>
      <trkpt lat="44.66138" lon="6.01453">
        <ele>1708.4</ele>
        <time>2023-05-15T13:27:33Z</time>
      </trkpt>
      <trkpt lat="44.66137" lon="6.01453">
        <ele>1708</ele>
        <time>2023-05-15T13:27:35Z</time>
      </trkpt>
      <trkpt lat="44.66137" lon="6.01455">
        <ele>1708</ele>
        <time>2023-05-15T13:27:36Z</time>
      </trkpt>
      <trkpt lat="44.66136" lon="6.01457">
        <ele>1707.8</ele>
        <time>2023-05-15T13:27:37Z</time>
      </trkpt>
      <trkpt lat="44.66133" lon="6.0146">
        <ele>1707.6</ele>
        <time>2023-05-15T13:27:39Z</time>
      </trkpt>
      <trkpt lat="44.66133" lon="6.01463">
        <ele>1707.6</ele>
        <time>2023-05-15T13:27:40Z</time>
      </trkpt>
      <trkpt lat="44.66132" lon="6.01464">
        <ele>1707.6</ele>
        <time>2023-05-15T13:27:41Z</time>
      </trkpt>
      <trkpt lat="44.66132" lon="6.01465">
        <ele>1707.4</ele>
        <time>2023-05-15T13:27:42Z</time>
      </trkpt>
      <trkpt lat="44.66131" lon="6.01466">
        <ele>1707</ele>
        <time>2023-05-15T13:27:43Z</time>
      </trkpt>
      <trkpt lat="44.6613" lon="6.01467">
        <ele>1706.8</ele>
        <time>2023-05-15T13:27:44Z</time>
      </trkpt>
      <trkpt lat="44.66129" lon="6.01468">
        <ele>1706.4</ele>
        <time>2023-05-15T13:27:45Z</time>
      </trkpt>
      <trkpt lat="44.66129" lon="6.01468">
        <ele>1706.2</ele>
        <time>2023-05-15T13:27:46Z</time>
      </trkpt>
      <trkpt lat="44.66129" lon="6.01468">
        <ele>1704.6</ele>
        <time>2023-05-15T13:27:49Z</time>
      </trkpt>
      <trkpt lat="44.66129" lon="6.01468">
        <ele>1704.4</ele>
        <time>2023-05-15T13:27:50Z</time>
      </trkpt>
      <trkpt lat="44.66129" lon="6.01468">
        <ele>1703.6</ele>
        <time>2023-05-15T13:27:52Z</time>
      </trkpt>
      <trkpt lat="44.66129" lon="6.01468">
        <ele>1702.4</ele>
        <time>2023-05-15T13:27:56Z</time>
      </trkpt>
      <trkpt lat="44.66129" lon="6.01468">
        <ele>1701.4</ele>
        <time>2023-05-15T13:28:08Z</time>
      </trkpt>
      <trkpt lat="44.66129" lon="6.01468">
        <ele>1701</ele>
        <time>2023-05-15T13:28:12Z</time>
      </trkpt>
      <trkpt lat="44.66129" lon="6.01468">
        <ele>1701</ele>
        <time>2023-05-15T13:28:13Z</time>
      </trkpt>
      <trkpt lat="44.66129" lon="6.01468">
        <ele>1700.8</ele>
        <time>2023-05-15T13:28:15Z</time>
      </trkpt>
      <trkpt lat="44.66126" lon="6.01472">
        <ele>1700.4</ele>
        <time>2023-05-15T13:28:22Z</time>
      </trkpt>
      <trkpt lat="44.66126" lon="6.01473">
        <ele>1700.2</ele>
        <time>2023-05-15T13:28:23Z</time>
      </trkpt>
      <trkpt lat="44.66125" lon="6.01473">
        <ele>1700</ele>
        <time>2023-05-15T13:28:24Z</time>
      </trkpt>
      <trkpt lat="44.6612" lon="6.01479">
        <ele>1699</ele>
        <time>2023-05-15T13:28:28Z</time>
      </trkpt>
      <trkpt lat="44.66117" lon="6.01481">
        <ele>1698.8</ele>
        <time>2023-05-15T13:28:30Z</time>
      </trkpt>
      <trkpt lat="44.66115" lon="6.01486">
        <ele>1698.4</ele>
        <time>2023-05-15T13:28:32Z</time>
      </trkpt>
      <trkpt lat="44.66115" lon="6.01487">
        <ele>1698</ele>
        <time>2023-05-15T13:28:33Z</time>
      </trkpt>
      <trkpt lat="44.66115" lon="6.01488">
        <ele>1697.8</ele>
        <time>2023-05-15T13:28:34Z</time>
      </trkpt>
      <trkpt lat="44.66114" lon="6.01488">
        <ele>1697.4</ele>
        <time>2023-05-15T13:28:35Z</time>
      </trkpt>
      <trkpt lat="44.66112" lon="6.01493">
        <ele>1696.2</ele>
        <time>2023-05-15T13:28:38Z</time>
      </trkpt>
      <trkpt lat="44.66111" lon="6.01497">
        <ele>1695.2</ele>
        <time>2023-05-15T13:28:40Z</time>
      </trkpt>
      <trkpt lat="44.66111" lon="6.01498">
        <ele>1695</ele>
        <time>2023-05-15T13:28:41Z</time>
      </trkpt>
      <trkpt lat="44.6611" lon="6.01499">
        <ele>1694.2</ele>
        <time>2023-05-15T13:28:42Z</time>
      </trkpt>
      <trkpt lat="44.6611" lon="6.01499">
        <ele>1693.8</ele>
        <time>2023-05-15T13:28:43Z</time>
      </trkpt>
      <trkpt lat="44.6611" lon="6.01499">
        <ele>1692.8</ele>
        <time>2023-05-15T13:28:45Z</time>
      </trkpt>
      <trkpt lat="44.6611" lon="6.01499">
        <ele>1692</ele>
        <time>2023-05-15T13:28:46Z</time>
      </trkpt>
      <trkpt lat="44.6611" lon="6.01499">
        <ele>1691.2</ele>
        <time>2023-05-15T13:28:53Z</time>
      </trkpt>
      <trkpt lat="44.66111" lon="6.01499">
        <ele>1690.8</ele>
        <time>2023-05-15T13:28:58Z</time>
      </trkpt>
      <trkpt lat="44.66111" lon="6.01499">
        <ele>1690.8</ele>
        <time>2023-05-15T13:29:00Z</time>
      </trkpt>
      <trkpt lat="44.6611" lon="6.015">
        <ele>1690.6</ele>
        <time>2023-05-15T13:29:07Z</time>
      </trkpt>
      <trkpt lat="44.6611" lon="6.015">
        <ele>1690.2</ele>
        <time>2023-05-15T13:29:26Z</time>
      </trkpt>
      <trkpt lat="44.6611" lon="6.015">
        <ele>1690.4</ele>
        <time>2023-05-15T13:29:38Z</time>
      </trkpt>
      <trkpt lat="44.6611" lon="6.015">
        <ele>1690.4</ele>
        <time>2023-05-15T13:29:48Z</time>
      </trkpt>
      <trkpt lat="44.66111" lon="6.01505">
        <ele>1690.8</ele>
        <time>2023-05-15T13:29:56Z</time>
      </trkpt>
      <trkpt lat="44.66111" lon="6.01507">
        <ele>1690.6</ele>
        <time>2023-05-15T13:29:58Z</time>
      </trkpt>
      <trkpt lat="44.66111" lon="6.01508">
        <ele>1690.6</ele>
        <time>2023-05-15T13:29:59Z</time>
      </trkpt>
      <trkpt lat="44.66112" lon="6.01509">
        <ele>1690.6</ele>
        <time>2023-05-15T13:30:00Z</time>
      </trkpt>
      <trkpt lat="44.66112" lon="6.01513">
        <ele>1690.6</ele>
        <time>2023-05-15T13:30:02Z</time>
      </trkpt>
      <trkpt lat="44.66112" lon="6.01514">
        <ele>1690.6</ele>
        <time>2023-05-15T13:30:03Z</time>
      </trkpt>
      <trkpt lat="44.66112" lon="6.01515">
        <ele>1690.6</ele>
        <time>2023-05-15T13:30:04Z</time>
      </trkpt>
      <trkpt lat="44.66113" lon="6.01518">
        <ele>1690.6</ele>
        <time>2023-05-15T13:30:06Z</time>
      </trkpt>
      <trkpt lat="44.66113" lon="6.0152">
        <ele>1690.4</ele>
        <time>2023-05-15T13:30:07Z</time>
      </trkpt>
      <trkpt lat="44.66114" lon="6.01522">
        <ele>1690.4</ele>
        <time>2023-05-15T13:30:08Z</time>
      </trkpt>
      <trkpt lat="44.66114" lon="6.01524">
        <ele>1690.4</ele>
        <time>2023-05-15T13:30:10Z</time>
      </trkpt>
      <trkpt lat="44.66114" lon="6.01524">
        <ele>1690.2</ele>
        <time>2023-05-15T13:30:12Z</time>
      </trkpt>
      <trkpt lat="44.66115" lon="6.01526">
        <ele>1689.2</ele>
        <time>2023-05-15T13:30:35Z</time>
      </trkpt>
      <trkpt lat="44.66116" lon="6.01528">
        <ele>1689.2</ele>
        <time>2023-05-15T13:30:36Z</time>
      </trkpt>
      <trkpt lat="44.6612" lon="6.01537">
        <ele>1689</ele>
        <time>2023-05-15T13:30:41Z</time>
      </trkpt>
      <trkpt lat="44.6612" lon="6.01538">
        <ele>1689</ele>
        <time>2023-05-15T13:30:42Z</time>
      </trkpt>
      <trkpt lat="44.66121" lon="6.01538">
        <ele>1688.8</ele>
        <time>2023-05-15T13:30:43Z</time>
      </trkpt>
      <trkpt lat="44.66121" lon="6.01539">
        <ele>1688.4</ele>
        <time>2023-05-15T13:30:45Z</time>
      </trkpt>
      <trkpt lat="44.66122" lon="6.01539">
        <ele>1688</ele>
        <time>2023-05-15T13:30:46Z</time>
      </trkpt>
      <trkpt lat="44.66124" lon="6.01542">
        <ele>1687</ele>
        <time>2023-05-15T13:30:48Z</time>
      </trkpt>
      <trkpt lat="44.66128" lon="6.01545">
        <ele>1686.2</ele>
        <time>2023-05-15T13:30:51Z</time>
      </trkpt>
      <trkpt lat="44.6613" lon="6.01546">
        <ele>1685.8</ele>
        <time>2023-05-15T13:30:52Z</time>
      </trkpt>
      <trkpt lat="44.6613" lon="6.01548">
        <ele>1685.8</ele>
        <time>2023-05-15T13:30:53Z</time>
      </trkpt>
      <trkpt lat="44.66131" lon="6.01548">
        <ele>1685.4</ele>
        <time>2023-05-15T13:30:54Z</time>
      </trkpt>
      <trkpt lat="44.66131" lon="6.01548">
        <ele>1684.8</ele>
        <time>2023-05-15T13:30:55Z</time>
      </trkpt>
      <trkpt lat="44.66132" lon="6.01549">
        <ele>1684.4</ele>
        <time>2023-05-15T13:30:56Z</time>
      </trkpt>
      <trkpt lat="44.66133" lon="6.0155">
        <ele>1683.6</ele>
        <time>2023-05-15T13:30:57Z</time>
      </trkpt>
      <trkpt lat="44.66133" lon="6.01552">
        <ele>1683.4</ele>
        <time>2023-05-15T13:30:58Z</time>
      </trkpt>
      <trkpt lat="44.66134" lon="6.01554">
        <ele>1682.8</ele>
        <time>2023-05-15T13:30:59Z</time>
      </trkpt>
      <trkpt lat="44.66135" lon="6.01556">
        <ele>1682.8</ele>
        <time>2023-05-15T13:31:00Z</time>
      </trkpt>
      <trkpt lat="44.66137" lon="6.01559">
        <ele>1682.2</ele>
        <time>2023-05-15T13:31:02Z</time>
      </trkpt>
      <trkpt lat="44.66138" lon="6.0156">
        <ele>1681.8</ele>
        <time>2023-05-15T13:31:03Z</time>
      </trkpt>
      <trkpt lat="44.66139" lon="6.01562">
        <ele>1681.4</ele>
        <time>2023-05-15T13:31:04Z</time>
      </trkpt>
      <trkpt lat="44.66139" lon="6.01563">
        <ele>1681.2</ele>
        <time>2023-05-15T13:31:05Z</time>
      </trkpt>
      <trkpt lat="44.6614" lon="6.01564">
        <ele>1680.6</ele>
        <time>2023-05-15T13:31:06Z</time>
      </trkpt>
      <trkpt lat="44.6614" lon="6.01564">
        <ele>1680.4</ele>
        <time>2023-05-15T13:31:07Z</time>
      </trkpt>
      <trkpt lat="44.6614" lon="6.01564">
        <ele>1680</ele>
        <time>2023-05-15T13:31:08Z</time>
      </trkpt>
      <trkpt lat="44.66141" lon="6.01564">
        <ele>1679.8</ele>
        <time>2023-05-15T13:31:09Z</time>
      </trkpt>
      <trkpt lat="44.66142" lon="6.01568">
        <ele>1679</ele>
        <time>2023-05-15T13:31:12Z</time>
      </trkpt>
      <trkpt lat="44.66143" lon="6.01568">
        <ele>1678.8</ele>
        <time>2023-05-15T13:31:13Z</time>
      </trkpt>
      <trkpt lat="44.66143" lon="6.01568">
        <ele>1678.4</ele>
        <time>2023-05-15T13:31:15Z</time>
      </trkpt>
      <trkpt lat="44.66143" lon="6.01568">
        <ele>1678.2</ele>
        <time>2023-05-15T13:31:16Z</time>
      </trkpt>
      <trkpt lat="44.66143" lon="6.01569">
        <ele>1678</ele>
        <time>2023-05-15T13:31:18Z</time>
      </trkpt>
      <trkpt lat="44.66143" lon="6.01569">
        <ele>1677.6</ele>
        <time>2023-05-15T13:31:20Z</time>
      </trkpt>
      <trkpt lat="44.66146" lon="6.0157">
        <ele>1676.8</ele>
        <time>2023-05-15T13:31:23Z</time>
      </trkpt>
      <trkpt lat="44.66147" lon="6.01571">
        <ele>1676.2</ele>
        <time>2023-05-15T13:31:24Z</time>
      </trkpt>
      <trkpt lat="44.66147" lon="6.01571">
        <ele>1676</ele>
        <time>2023-05-15T13:31:25Z</time>
      </trkpt>
      <trkpt lat="44.66147" lon="6.01572">
        <ele>1675.6</ele>
        <time>2023-05-15T13:31:26Z</time>
      </trkpt>
      <trkpt lat="44.66149" lon="6.01575">
        <ele>1675</ele>
        <time>2023-05-15T13:31:29Z</time>
      </trkpt>
      <trkpt lat="44.6615" lon="6.01576">
        <ele>1675</ele>
        <time>2023-05-15T13:31:30Z</time>
      </trkpt>
      <trkpt lat="44.66151" lon="6.01577">
        <ele>1674.8</ele>
        <time>2023-05-15T13:31:31Z</time>
      </trkpt>
      <trkpt lat="44.66153" lon="6.01579">
        <ele>1674.4</ele>
        <time>2023-05-15T13:31:33Z</time>
      </trkpt>
      <trkpt lat="44.66155" lon="6.01583">
        <ele>1674</ele>
        <time>2023-05-15T13:31:35Z</time>
      </trkpt>
      <trkpt lat="44.66158" lon="6.01587">
        <ele>1673.4</ele>
        <time>2023-05-15T13:31:37Z</time>
      </trkpt>
      <trkpt lat="44.66159" lon="6.01589">
        <ele>1672.8</ele>
        <time>2023-05-15T13:31:38Z</time>
      </trkpt>
      <trkpt lat="44.66161" lon="6.01592">
        <ele>1672</ele>
        <time>2023-05-15T13:31:41Z</time>
      </trkpt>
      <trkpt lat="44.66162" lon="6.01593">
        <ele>1671.6</ele>
        <time>2023-05-15T13:31:42Z</time>
      </trkpt>
      <trkpt lat="44.66163" lon="6.01595">
        <ele>1671</ele>
        <time>2023-05-15T13:31:43Z</time>
      </trkpt>
      <trkpt lat="44.66164" lon="6.01597">
        <ele>1670.4</ele>
        <time>2023-05-15T13:31:45Z</time>
      </trkpt>
      <trkpt lat="44.66164" lon="6.01598">
        <ele>1670.2</ele>
        <time>2023-05-15T13:31:46Z</time>
      </trkpt>
      <trkpt lat="44.66164" lon="6.01598">
        <ele>1669.8</ele>
        <time>2023-05-15T13:31:47Z</time>
      </trkpt>
      <trkpt lat="44.66165" lon="6.01599">
        <ele>1669.6</ele>
        <time>2023-05-15T13:31:48Z</time>
      </trkpt>
      <trkpt lat="44.66166" lon="6.016">
        <ele>1669.4</ele>
        <time>2023-05-15T13:31:49Z</time>
      </trkpt>
      <trkpt lat="44.66168" lon="6.01601">
        <ele>1669.2</ele>
        <time>2023-05-15T13:31:50Z</time>
      </trkpt>
      <trkpt lat="44.66169" lon="6.01602">
        <ele>1668.8</ele>
        <time>2023-05-15T13:31:51Z</time>
      </trkpt>
      <trkpt lat="44.66172" lon="6.01605">
        <ele>1668.6</ele>
        <time>2023-05-15T13:31:53Z</time>
      </trkpt>
      <trkpt lat="44.66173" lon="6.01607">
        <ele>1668.2</ele>
        <time>2023-05-15T13:31:54Z</time>
      </trkpt>
      <trkpt lat="44.66175" lon="6.01608">
        <ele>1668</ele>
        <time>2023-05-15T13:31:55Z</time>
      </trkpt>
      <trkpt lat="44.66176" lon="6.0161">
        <ele>1667.2</ele>
        <time>2023-05-15T13:31:57Z</time>
      </trkpt>
      <trkpt lat="44.66177" lon="6.0161">
        <ele>1667</ele>
        <time>2023-05-15T13:31:58Z</time>
      </trkpt>
      <trkpt lat="44.66177" lon="6.01611">
        <ele>1666.6</ele>
        <time>2023-05-15T13:31:59Z</time>
      </trkpt>
      <trkpt lat="44.66178" lon="6.01613">
        <ele>1666.2</ele>
        <time>2023-05-15T13:32:00Z</time>
      </trkpt>
      <trkpt lat="44.66179" lon="6.01615">
        <ele>1665.8</ele>
        <time>2023-05-15T13:32:01Z</time>
      </trkpt>
      <trkpt lat="44.66179" lon="6.01617">
        <ele>1665.6</ele>
        <time>2023-05-15T13:32:02Z</time>
      </trkpt>
      <trkpt lat="44.6618" lon="6.01619">
        <ele>1665</ele>
        <time>2023-05-15T13:32:03Z</time>
      </trkpt>
      <trkpt lat="44.66181" lon="6.0162">
        <ele>1664.8</ele>
        <time>2023-05-15T13:32:04Z</time>
      </trkpt>
      <trkpt lat="44.66183" lon="6.01624">
        <ele>1664.2</ele>
        <time>2023-05-15T13:32:06Z</time>
      </trkpt>
      <trkpt lat="44.66184" lon="6.01626">
        <ele>1664</ele>
        <time>2023-05-15T13:32:07Z</time>
      </trkpt>
      <trkpt lat="44.66188" lon="6.01632">
        <ele>1663</ele>
        <time>2023-05-15T13:32:11Z</time>
      </trkpt>
      <trkpt lat="44.66189" lon="6.01633">
        <ele>1662.8</ele>
        <time>2023-05-15T13:32:12Z</time>
      </trkpt>
      <trkpt lat="44.6619" lon="6.01635">
        <ele>1662.8</ele>
        <time>2023-05-15T13:32:13Z</time>
      </trkpt>
      <trkpt lat="44.66192" lon="6.01638">
        <ele>1662</ele>
        <time>2023-05-15T13:32:16Z</time>
      </trkpt>
      <trkpt lat="44.66192" lon="6.01638">
        <ele>1661.4</ele>
        <time>2023-05-15T13:32:17Z</time>
      </trkpt>
      <trkpt lat="44.66192" lon="6.01638">
        <ele>1661</ele>
        <time>2023-05-15T13:32:19Z</time>
      </trkpt>
      <trkpt lat="44.66192" lon="6.01638">
        <ele>1660.4</ele>
        <time>2023-05-15T13:32:21Z</time>
      </trkpt>
      <trkpt lat="44.66192" lon="6.01638">
        <ele>1659.4</ele>
        <time>2023-05-15T13:32:25Z</time>
      </trkpt>
      <trkpt lat="44.66192" lon="6.01638">
        <ele>1658.8</ele>
        <time>2023-05-15T13:32:38Z</time>
      </trkpt>
      <trkpt lat="44.66193" lon="6.0164">
        <ele>1659.4</ele>
        <time>2023-05-15T13:33:05Z</time>
      </trkpt>
      <trkpt lat="44.66193" lon="6.01641">
        <ele>1659.4</ele>
        <time>2023-05-15T13:33:06Z</time>
      </trkpt>
      <trkpt lat="44.66193" lon="6.01641">
        <ele>1659.4</ele>
        <time>2023-05-15T13:33:07Z</time>
      </trkpt>
      <trkpt lat="44.66194" lon="6.01642">
        <ele>1659.4</ele>
        <time>2023-05-15T13:33:08Z</time>
      </trkpt>
      <trkpt lat="44.66194" lon="6.01643">
        <ele>1659.4</ele>
        <time>2023-05-15T13:33:09Z</time>
      </trkpt>
      <trkpt lat="44.66194" lon="6.01643">
        <ele>1659.4</ele>
        <time>2023-05-15T13:33:10Z</time>
      </trkpt>
      <trkpt lat="44.66194" lon="6.01643">
        <ele>1659.4</ele>
        <time>2023-05-15T13:33:11Z</time>
      </trkpt>
      <trkpt lat="44.66195" lon="6.01644">
        <ele>1659.4</ele>
        <time>2023-05-15T13:33:12Z</time>
      </trkpt>
      <trkpt lat="44.66195" lon="6.01644">
        <ele>1659.2</ele>
        <time>2023-05-15T13:33:13Z</time>
      </trkpt>
      <trkpt lat="44.66198" lon="6.01646">
        <ele>1659</ele>
        <time>2023-05-15T13:33:17Z</time>
      </trkpt>
      <trkpt lat="44.66198" lon="6.01646">
        <ele>1658.8</ele>
        <time>2023-05-15T13:33:18Z</time>
      </trkpt>
      <trkpt lat="44.662" lon="6.01648">
        <ele>1658.2</ele>
        <time>2023-05-15T13:33:21Z</time>
      </trkpt>
      <trkpt lat="44.66201" lon="6.01648">
        <ele>1658</ele>
        <time>2023-05-15T13:33:22Z</time>
      </trkpt>
      <trkpt lat="44.66203" lon="6.0165">
        <ele>1657.6</ele>
        <time>2023-05-15T13:33:26Z</time>
      </trkpt>
      <trkpt lat="44.66203" lon="6.01651">
        <ele>1657.4</ele>
        <time>2023-05-15T13:33:27Z</time>
      </trkpt>
      <trkpt lat="44.66204" lon="6.01652">
        <ele>1657.2</ele>
        <time>2023-05-15T13:33:28Z</time>
      </trkpt>
      <trkpt lat="44.66204" lon="6.01652">
        <ele>1657</ele>
        <time>2023-05-15T13:33:29Z</time>
      </trkpt>
      <trkpt lat="44.66205" lon="6.01653">
        <ele>1656.8</ele>
        <time>2023-05-15T13:33:30Z</time>
      </trkpt>
      <trkpt lat="44.66205" lon="6.01653">
        <ele>1656.8</ele>
        <time>2023-05-15T13:33:31Z</time>
      </trkpt>
      <trkpt lat="44.66205" lon="6.01653">
        <ele>1656.6</ele>
        <time>2023-05-15T13:33:32Z</time>
      </trkpt>
      <trkpt lat="44.66206" lon="6.01654">
        <ele>1656.2</ele>
        <time>2023-05-15T13:33:34Z</time>
      </trkpt>
      <trkpt lat="44.66207" lon="6.01655">
        <ele>1656.2</ele>
        <time>2023-05-15T13:33:35Z</time>
      </trkpt>
      <trkpt lat="44.66208" lon="6.01655">
        <ele>1656</ele>
        <time>2023-05-15T13:33:36Z</time>
      </trkpt>
      <trkpt lat="44.66209" lon="6.01656">
        <ele>1655.8</ele>
        <time>2023-05-15T13:33:38Z</time>
      </trkpt>
      <trkpt lat="44.66209" lon="6.01656">
        <ele>1655.6</ele>
        <time>2023-05-15T13:33:39Z</time>
      </trkpt>
      <trkpt lat="44.66209" lon="6.01656">
        <ele>1655.6</ele>
        <time>2023-05-15T13:33:40Z</time>
      </trkpt>
      <trkpt lat="44.66211" lon="6.01658">
        <ele>1655.4</ele>
        <time>2023-05-15T13:33:43Z</time>
      </trkpt>
      <trkpt lat="44.66212" lon="6.01659">
        <ele>1655.4</ele>
        <time>2023-05-15T13:33:44Z</time>
      </trkpt>
      <trkpt lat="44.66212" lon="6.0166">
        <ele>1655.2</ele>
        <time>2023-05-15T13:33:45Z</time>
      </trkpt>
      <trkpt lat="44.66213" lon="6.01661">
        <ele>1655</ele>
        <time>2023-05-15T13:33:46Z</time>
      </trkpt>
      <trkpt lat="44.66214" lon="6.01663">
        <ele>1654.8</ele>
        <time>2023-05-15T13:33:48Z</time>
      </trkpt>
      <trkpt lat="44.66216" lon="6.01664">
        <ele>1654.6</ele>
        <time>2023-05-15T13:33:50Z</time>
      </trkpt>
      <trkpt lat="44.66217" lon="6.01665">
        <ele>1654.2</ele>
        <time>2023-05-15T13:33:51Z</time>
      </trkpt>
      <trkpt lat="44.66217" lon="6.01666">
        <ele>1654</ele>
        <time>2023-05-15T13:33:52Z</time>
      </trkpt>
      <trkpt lat="44.66218" lon="6.01667">
        <ele>1653.8</ele>
        <time>2023-05-15T13:33:53Z</time>
      </trkpt>
      <trkpt lat="44.66218" lon="6.01667">
        <ele>1653.6</ele>
        <time>2023-05-15T13:33:54Z</time>
      </trkpt>
      <trkpt lat="44.66219" lon="6.01667">
        <ele>1652.6</ele>
        <time>2023-05-15T13:33:57Z</time>
      </trkpt>
      <trkpt lat="44.66221" lon="6.0167">
        <ele>1651.4</ele>
        <time>2023-05-15T13:34:00Z</time>
      </trkpt>
      <trkpt lat="44.66223" lon="6.01672">
        <ele>1651.2</ele>
        <time>2023-05-15T13:34:01Z</time>
      </trkpt>
      <trkpt lat="44.66224" lon="6.01674">
        <ele>1650.6</ele>
        <time>2023-05-15T13:34:02Z</time>
      </trkpt>
      <trkpt lat="44.66227" lon="6.01677">
        <ele>1649.8</ele>
        <time>2023-05-15T13:34:04Z</time>
      </trkpt>
      <trkpt lat="44.66228" lon="6.01679">
        <ele>1649.6</ele>
        <time>2023-05-15T13:34:05Z</time>
      </trkpt>
      <trkpt lat="44.6623" lon="6.0168">
        <ele>1649</ele>
        <time>2023-05-15T13:34:06Z</time>
      </trkpt>
      <trkpt lat="44.66231" lon="6.01682">
        <ele>1648.4</ele>
        <time>2023-05-15T13:34:07Z</time>
      </trkpt>
      <trkpt lat="44.66235" lon="6.01688">
        <ele>1647.2</ele>
        <time>2023-05-15T13:34:10Z</time>
      </trkpt>
      <trkpt lat="44.66239" lon="6.01693">
        <ele>1646</ele>
        <time>2023-05-15T13:34:13Z</time>
      </trkpt>
      <trkpt lat="44.66243" lon="6.01696">
        <ele>1645</ele>
        <time>2023-05-15T13:34:15Z</time>
      </trkpt>
      <trkpt lat="44.66246" lon="6.01698">
        <ele>1643.6</ele>
        <time>2023-05-15T13:34:17Z</time>
      </trkpt>
      <trkpt lat="44.66249" lon="6.01703">
        <ele>1641.8</ele>
        <time>2023-05-15T13:34:20Z</time>
      </trkpt>
      <trkpt lat="44.6625" lon="6.01704">
        <ele>1641.4</ele>
        <time>2023-05-15T13:34:21Z</time>
      </trkpt>
      <trkpt lat="44.66251" lon="6.01706">
        <ele>1640.6</ele>
        <time>2023-05-15T13:34:22Z</time>
      </trkpt>
      <trkpt lat="44.66252" lon="6.01706">
        <ele>1639.6</ele>
        <time>2023-05-15T13:34:23Z</time>
      </trkpt>
      <trkpt lat="44.66253" lon="6.01706">
        <ele>1639.4</ele>
        <time>2023-05-15T13:34:24Z</time>
      </trkpt>
      <trkpt lat="44.66255" lon="6.01707">
        <ele>1639</ele>
        <time>2023-05-15T13:34:25Z</time>
      </trkpt>
      <trkpt lat="44.66256" lon="6.01708">
        <ele>1638.6</ele>
        <time>2023-05-15T13:34:26Z</time>
      </trkpt>
      <trkpt lat="44.66257" lon="6.01708">
        <ele>1638</ele>
        <time>2023-05-15T13:34:27Z</time>
      </trkpt>
      <trkpt lat="44.66258" lon="6.01708">
        <ele>1637.6</ele>
        <time>2023-05-15T13:34:28Z</time>
      </trkpt>
      <trkpt lat="44.66258" lon="6.01708">
        <ele>1636.8</ele>
        <time>2023-05-15T13:34:29Z</time>
      </trkpt>
      <trkpt lat="44.66258" lon="6.01708">
        <ele>1635.2</ele>
        <time>2023-05-15T13:34:32Z</time>
      </trkpt>
      <trkpt lat="44.66258" lon="6.01708">
        <ele>1633.8</ele>
        <time>2023-05-15T13:34:38Z</time>
      </trkpt>
      <trkpt lat="44.66257" lon="6.01708">
        <ele>1633.2</ele>
        <time>2023-05-15T13:34:42Z</time>
      </trkpt>
      <trkpt lat="44.66258" lon="6.01707">
        <ele>1632.8</ele>
        <time>2023-05-15T13:34:47Z</time>
      </trkpt>
      <trkpt lat="44.66258" lon="6.01706">
        <ele>1632.4</ele>
        <time>2023-05-15T13:34:50Z</time>
      </trkpt>
      <trkpt lat="44.66258" lon="6.01702">
        <ele>1632.2</ele>
        <time>2023-05-15T13:34:53Z</time>
      </trkpt>
      <trkpt lat="44.6626" lon="6.01697">
        <ele>1631.8</ele>
        <time>2023-05-15T13:34:56Z</time>
      </trkpt>
      <trkpt lat="44.6626" lon="6.01695">
        <ele>1631.6</ele>
        <time>2023-05-15T13:34:57Z</time>
      </trkpt>
      <trkpt lat="44.6626" lon="6.01693">
        <ele>1631.6</ele>
        <time>2023-05-15T13:34:58Z</time>
      </trkpt>
      <trkpt lat="44.66261" lon="6.01686">
        <ele>1630.4</ele>
        <time>2023-05-15T13:35:01Z</time>
      </trkpt>
      <trkpt lat="44.66262" lon="6.01682">
        <ele>1629.6</ele>
        <time>2023-05-15T13:35:03Z</time>
      </trkpt>
      <trkpt lat="44.66262" lon="6.01679">
        <ele>1628.6</ele>
        <time>2023-05-15T13:35:04Z</time>
      </trkpt>
      <trkpt lat="44.66262" lon="6.01671">
        <ele>1627.6</ele>
        <time>2023-05-15T13:35:07Z</time>
      </trkpt>
      <trkpt lat="44.66262" lon="6.0167">
        <ele>1627</ele>
        <time>2023-05-15T13:35:08Z</time>
      </trkpt>
      <trkpt lat="44.66263" lon="6.01669">
        <ele>1626.6</ele>
        <time>2023-05-15T13:35:09Z</time>
      </trkpt>
      <trkpt lat="44.66263" lon="6.01668">
        <ele>1625.2</ele>
        <time>2023-05-15T13:35:10Z</time>
      </trkpt>
      <trkpt lat="44.66263" lon="6.01668">
        <ele>1624.2</ele>
        <time>2023-05-15T13:35:11Z</time>
      </trkpt>
      <trkpt lat="44.66263" lon="6.01667">
        <ele>1623.8</ele>
        <time>2023-05-15T13:35:12Z</time>
      </trkpt>
      <trkpt lat="44.66263" lon="6.01665">
        <ele>1623.6</ele>
        <time>2023-05-15T13:35:13Z</time>
      </trkpt>
      <trkpt lat="44.66263" lon="6.01662">
        <ele>1622.6</ele>
        <time>2023-05-15T13:35:15Z</time>
      </trkpt>
      <trkpt lat="44.66264" lon="6.01661">
        <ele>1622.4</ele>
        <time>2023-05-15T13:35:16Z</time>
      </trkpt>
      <trkpt lat="44.66264" lon="6.0166">
        <ele>1622</ele>
        <time>2023-05-15T13:35:17Z</time>
      </trkpt>
      <trkpt lat="44.66264" lon="6.0166">
        <ele>1622</ele>
        <time>2023-05-15T13:35:18Z</time>
      </trkpt>
      <trkpt lat="44.66264" lon="6.0166">
        <ele>1621.4</ele>
        <time>2023-05-15T13:35:19Z</time>
      </trkpt>
      <trkpt lat="44.66264" lon="6.0166">
        <ele>1620.8</ele>
        <time>2023-05-15T13:35:20Z</time>
      </trkpt>
      <trkpt lat="44.66264" lon="6.01659">
        <ele>1620.2</ele>
        <time>2023-05-15T13:35:22Z</time>
      </trkpt>
      <trkpt lat="44.66265" lon="6.01656">
        <ele>1619.6</ele>
        <time>2023-05-15T13:35:25Z</time>
      </trkpt>
      <trkpt lat="44.66265" lon="6.01654">
        <ele>1619.2</ele>
        <time>2023-05-15T13:35:27Z</time>
      </trkpt>
      <trkpt lat="44.66265" lon="6.01654">
        <ele>1619</ele>
        <time>2023-05-15T13:35:28Z</time>
      </trkpt>
      <trkpt lat="44.66265" lon="6.01654">
        <ele>1618.6</ele>
        <time>2023-05-15T13:35:29Z</time>
      </trkpt>
      <trkpt lat="44.66265" lon="6.01654">
        <ele>1618</ele>
        <time>2023-05-15T13:35:33Z</time>
      </trkpt>
      <trkpt lat="44.66265" lon="6.01654">
        <ele>1617.8</ele>
        <time>2023-05-15T13:35:34Z</time>
      </trkpt>
      <trkpt lat="44.66265" lon="6.01651">
        <ele>1617</ele>
        <time>2023-05-15T13:35:42Z</time>
      </trkpt>
      <trkpt lat="44.66265" lon="6.01649">
        <ele>1617</ele>
        <time>2023-05-15T13:35:43Z</time>
      </trkpt>
      <trkpt lat="44.66266" lon="6.01648">
        <ele>1616.6</ele>
        <time>2023-05-15T13:35:46Z</time>
      </trkpt>
      <trkpt lat="44.66266" lon="6.01648">
        <ele>1616.2</ele>
        <time>2023-05-15T13:35:47Z</time>
      </trkpt>
      <trkpt lat="44.66266" lon="6.01647">
        <ele>1616</ele>
        <time>2023-05-15T13:35:48Z</time>
      </trkpt>
      <trkpt lat="44.66266" lon="6.01646">
        <ele>1615.8</ele>
        <time>2023-05-15T13:35:49Z</time>
      </trkpt>
      <trkpt lat="44.66267" lon="6.01643">
        <ele>1615</ele>
        <time>2023-05-15T13:35:54Z</time>
      </trkpt>
      <trkpt lat="44.66267" lon="6.01643">
        <ele>1614.8</ele>
        <time>2023-05-15T13:35:55Z</time>
      </trkpt>
      <trkpt lat="44.66267" lon="6.01642">
        <ele>1614.4</ele>
        <time>2023-05-15T13:35:56Z</time>
      </trkpt>
      <trkpt lat="44.66267" lon="6.01641">
        <ele>1613.8</ele>
        <time>2023-05-15T13:35:59Z</time>
      </trkpt>
      <trkpt lat="44.66267" lon="6.01641">
        <ele>1613.8</ele>
        <time>2023-05-15T13:36:00Z</time>
      </trkpt>
      <trkpt lat="44.66267" lon="6.01641">
        <ele>1613.6</ele>
        <time>2023-05-15T13:36:01Z</time>
      </trkpt>
      <trkpt lat="44.66267" lon="6.01641">
        <ele>1613.4</ele>
        <time>2023-05-15T13:36:02Z</time>
      </trkpt>
      <trkpt lat="44.66267" lon="6.01641">
        <ele>1613.2</ele>
        <time>2023-05-15T13:36:03Z</time>
      </trkpt>
      <trkpt lat="44.66267" lon="6.01641">
        <ele>1612.6</ele>
        <time>2023-05-15T13:36:05Z</time>
      </trkpt>
      <trkpt lat="44.66268" lon="6.01638">
        <ele>1612.2</ele>
        <time>2023-05-15T13:36:07Z</time>
      </trkpt>
      <trkpt lat="44.66268" lon="6.01638">
        <ele>1612</ele>
        <time>2023-05-15T13:36:08Z</time>
      </trkpt>
      <trkpt lat="44.66268" lon="6.01638">
        <ele>1612</ele>
        <time>2023-05-15T13:36:09Z</time>
      </trkpt>
      <trkpt lat="44.66269" lon="6.01637">
        <ele>1611.8</ele>
        <time>2023-05-15T13:36:10Z</time>
      </trkpt>
      <trkpt lat="44.66269" lon="6.01637">
        <ele>1611.6</ele>
        <time>2023-05-15T13:36:11Z</time>
      </trkpt>
      <trkpt lat="44.6627" lon="6.01636">
        <ele>1611</ele>
        <time>2023-05-15T13:36:12Z</time>
      </trkpt>
      <trkpt lat="44.6627" lon="6.01636">
        <ele>1610.2</ele>
        <time>2023-05-15T13:36:15Z</time>
      </trkpt>
      <trkpt lat="44.6627" lon="6.01636">
        <ele>1610</ele>
        <time>2023-05-15T13:36:16Z</time>
      </trkpt>
      <trkpt lat="44.6627" lon="6.01636">
        <ele>1609.8</ele>
        <time>2023-05-15T13:36:17Z</time>
      </trkpt>
      <trkpt lat="44.6627" lon="6.01635">
        <ele>1609.6</ele>
        <time>2023-05-15T13:36:18Z</time>
      </trkpt>
      <trkpt lat="44.66272" lon="6.01633">
        <ele>1609.2</ele>
        <time>2023-05-15T13:36:21Z</time>
      </trkpt>
      <trkpt lat="44.66272" lon="6.01631">
        <ele>1609</ele>
        <time>2023-05-15T13:36:22Z</time>
      </trkpt>
      <trkpt lat="44.66273" lon="6.01629">
        <ele>1608.4</ele>
        <time>2023-05-15T13:36:26Z</time>
      </trkpt>
      <trkpt lat="44.66273" lon="6.01629">
        <ele>1608.2</ele>
        <time>2023-05-15T13:36:27Z</time>
      </trkpt>
      <trkpt lat="44.66273" lon="6.01629">
        <ele>1608</ele>
        <time>2023-05-15T13:36:28Z</time>
      </trkpt>
      <trkpt lat="44.66273" lon="6.01628">
        <ele>1607.4</ele>
        <time>2023-05-15T13:36:31Z</time>
      </trkpt>
      <trkpt lat="44.66274" lon="6.01627">
        <ele>1607</ele>
        <time>2023-05-15T13:36:33Z</time>
      </trkpt>
      <trkpt lat="44.66274" lon="6.01627">
        <ele>1606.8</ele>
        <time>2023-05-15T13:36:34Z</time>
      </trkpt>
      <trkpt lat="44.66276" lon="6.01623">
        <ele>1605.8</ele>
        <time>2023-05-15T13:36:38Z</time>
      </trkpt>
      <trkpt lat="44.66276" lon="6.01623">
        <ele>1605.2</ele>
        <time>2023-05-15T13:36:40Z</time>
      </trkpt>
      <trkpt lat="44.66276" lon="6.01622">
        <ele>1604.4</ele>
        <time>2023-05-15T13:36:42Z</time>
      </trkpt>
      <trkpt lat="44.66278" lon="6.0162">
        <ele>1603.8</ele>
        <time>2023-05-15T13:36:46Z</time>
      </trkpt>
      <trkpt lat="44.66279" lon="6.0162">
        <ele>1603.4</ele>
        <time>2023-05-15T13:36:48Z</time>
      </trkpt>
      <trkpt lat="44.6628" lon="6.01619">
        <ele>1603.2</ele>
        <time>2023-05-15T13:36:49Z</time>
      </trkpt>
      <trkpt lat="44.6628" lon="6.01618">
        <ele>1603.2</ele>
        <time>2023-05-15T13:36:51Z</time>
      </trkpt>
      <trkpt lat="44.66281" lon="6.01617">
        <ele>1603.2</ele>
        <time>2023-05-15T13:36:52Z</time>
      </trkpt>
      <trkpt lat="44.66281" lon="6.01616">
        <ele>1603</ele>
        <time>2023-05-15T13:36:53Z</time>
      </trkpt>
      <trkpt lat="44.66281" lon="6.01615">
        <ele>1602.4</ele>
        <time>2023-05-15T13:36:54Z</time>
      </trkpt>
      <trkpt lat="44.66281" lon="6.01615">
        <ele>1602.2</ele>
        <time>2023-05-15T13:36:55Z</time>
      </trkpt>
      <trkpt lat="44.66282" lon="6.01614">
        <ele>1602</ele>
        <time>2023-05-15T13:36:56Z</time>
      </trkpt>
      <trkpt lat="44.66282" lon="6.01614">
        <ele>1601.8</ele>
        <time>2023-05-15T13:36:57Z</time>
      </trkpt>
      <trkpt lat="44.66282" lon="6.01614">
        <ele>1601.2</ele>
        <time>2023-05-15T13:36:59Z</time>
      </trkpt>
      <trkpt lat="44.66282" lon="6.01614">
        <ele>1600.6</ele>
        <time>2023-05-15T13:37:00Z</time>
      </trkpt>
      <trkpt lat="44.66282" lon="6.01614">
        <ele>1600.4</ele>
        <time>2023-05-15T13:37:01Z</time>
      </trkpt>
      <trkpt lat="44.66282" lon="6.01614">
        <ele>1599.8</ele>
        <time>2023-05-15T13:37:02Z</time>
      </trkpt>
      <trkpt lat="44.66282" lon="6.01614">
        <ele>1599.4</ele>
        <time>2023-05-15T13:37:03Z</time>
      </trkpt>
      <trkpt lat="44.66282" lon="6.01614">
        <ele>1599.4</ele>
        <time>2023-05-15T13:37:04Z</time>
      </trkpt>
      <trkpt lat="44.66283" lon="6.01611">
        <ele>1598.6</ele>
        <time>2023-05-15T13:37:08Z</time>
      </trkpt>
      <trkpt lat="44.66283" lon="6.0161">
        <ele>1598.6</ele>
        <time>2023-05-15T13:37:09Z</time>
      </trkpt>
      <trkpt lat="44.66284" lon="6.01609">
        <ele>1598.4</ele>
        <time>2023-05-15T13:37:10Z</time>
      </trkpt>
      <trkpt lat="44.66284" lon="6.01609">
        <ele>1598.4</ele>
        <time>2023-05-15T13:37:11Z</time>
      </trkpt>
      <trkpt lat="44.66285" lon="6.01608">
        <ele>1597.8</ele>
        <time>2023-05-15T13:37:12Z</time>
      </trkpt>
      <trkpt lat="44.66286" lon="6.01606">
        <ele>1597.2</ele>
        <time>2023-05-15T13:37:14Z</time>
      </trkpt>
      <trkpt lat="44.66286" lon="6.01606">
        <ele>1597.2</ele>
        <time>2023-05-15T13:37:15Z</time>
      </trkpt>
      <trkpt lat="44.66286" lon="6.01602">
        <ele>1596.4</ele>
        <time>2023-05-15T13:37:18Z</time>
      </trkpt>
      <trkpt lat="44.66287" lon="6.01601">
        <ele>1596.2</ele>
        <time>2023-05-15T13:37:19Z</time>
      </trkpt>
      <trkpt lat="44.66287" lon="6.016">
        <ele>1596.2</ele>
        <time>2023-05-15T13:37:20Z</time>
      </trkpt>
      <trkpt lat="44.66287" lon="6.016">
        <ele>1595.2</ele>
        <time>2023-05-15T13:37:25Z</time>
      </trkpt>
      <trkpt lat="44.66287" lon="6.016">
        <ele>1595</ele>
        <time>2023-05-15T13:37:26Z</time>
      </trkpt>
      <trkpt lat="44.66287" lon="6.01599">
        <ele>1594</ele>
        <time>2023-05-15T13:37:35Z</time>
      </trkpt>
      <trkpt lat="44.66287" lon="6.01599">
        <ele>1593.2</ele>
        <time>2023-05-15T13:37:39Z</time>
      </trkpt>
      <trkpt lat="44.66287" lon="6.01598">
        <ele>1593</ele>
        <time>2023-05-15T13:37:42Z</time>
      </trkpt>
      <trkpt lat="44.66287" lon="6.01598">
        <ele>1592.6</ele>
        <time>2023-05-15T13:37:46Z</time>
      </trkpt>
      <trkpt lat="44.66287" lon="6.01597">
        <ele>1592.4</ele>
        <time>2023-05-15T13:37:47Z</time>
      </trkpt>
      <trkpt lat="44.66288" lon="6.01594">
        <ele>1591.6</ele>
        <time>2023-05-15T13:37:52Z</time>
      </trkpt>
      <trkpt lat="44.66289" lon="6.01593">
        <ele>1591.6</ele>
        <time>2023-05-15T13:37:53Z</time>
      </trkpt>
      <trkpt lat="44.66289" lon="6.01592">
        <ele>1591.6</ele>
        <time>2023-05-15T13:37:54Z</time>
      </trkpt>
      <trkpt lat="44.66289" lon="6.01592">
        <ele>1591.4</ele>
        <time>2023-05-15T13:37:57Z</time>
      </trkpt>
      <trkpt lat="44.66289" lon="6.01592">
        <ele>1591.2</ele>
        <time>2023-05-15T13:37:58Z</time>
      </trkpt>
      <trkpt lat="44.6629" lon="6.01591">
        <ele>1590.6</ele>
        <time>2023-05-15T13:38:02Z</time>
      </trkpt>
      <trkpt lat="44.6629" lon="6.01589">
        <ele>1590.4</ele>
        <time>2023-05-15T13:38:04Z</time>
      </trkpt>
      <trkpt lat="44.6629" lon="6.01589">
        <ele>1590.2</ele>
        <time>2023-05-15T13:38:05Z</time>
      </trkpt>
      <trkpt lat="44.66291" lon="6.01586">
        <ele>1589.8</ele>
        <time>2023-05-15T13:38:09Z</time>
      </trkpt>
      <trkpt lat="44.66291" lon="6.01585">
        <ele>1589.6</ele>
        <time>2023-05-15T13:38:10Z</time>
      </trkpt>
      <trkpt lat="44.66291" lon="6.01583">
        <ele>1589.4</ele>
        <time>2023-05-15T13:38:11Z</time>
      </trkpt>
      <trkpt lat="44.66292" lon="6.01581">
        <ele>1589.4</ele>
        <time>2023-05-15T13:38:12Z</time>
      </trkpt>
      <trkpt lat="44.66292" lon="6.01579">
        <ele>1588.8</ele>
        <time>2023-05-15T13:38:14Z</time>
      </trkpt>
      <trkpt lat="44.66292" lon="6.01579">
        <ele>1588.6</ele>
        <time>2023-05-15T13:38:15Z</time>
      </trkpt>
      <trkpt lat="44.66292" lon="6.01579">
        <ele>1588.4</ele>
        <time>2023-05-15T13:38:16Z</time>
      </trkpt>
      <trkpt lat="44.66293" lon="6.01577">
        <ele>1587.6</ele>
        <time>2023-05-15T13:38:20Z</time>
      </trkpt>
      <trkpt lat="44.66293" lon="6.01577">
        <ele>1587.6</ele>
        <time>2023-05-15T13:38:21Z</time>
      </trkpt>
      <trkpt lat="44.66293" lon="6.01576">
        <ele>1587.4</ele>
        <time>2023-05-15T13:38:22Z</time>
      </trkpt>
      <trkpt lat="44.66292" lon="6.01576">
        <ele>1586.8</ele>
        <time>2023-05-15T13:38:23Z</time>
      </trkpt>
      <trkpt lat="44.66294" lon="6.01574">
        <ele>1585.8</ele>
        <time>2023-05-15T13:38:26Z</time>
      </trkpt>
      <trkpt lat="44.66294" lon="6.01575">
        <ele>1585.6</ele>
        <time>2023-05-15T13:38:27Z</time>
      </trkpt>
      <trkpt lat="44.66295" lon="6.01574">
        <ele>1585.2</ele>
        <time>2023-05-15T13:38:31Z</time>
      </trkpt>
      <trkpt lat="44.66295" lon="6.01574">
        <ele>1585</ele>
        <time>2023-05-15T13:38:32Z</time>
      </trkpt>
      <trkpt lat="44.66296" lon="6.01573">
        <ele>1584.8</ele>
        <time>2023-05-15T13:38:33Z</time>
      </trkpt>
      <trkpt lat="44.66297" lon="6.01573">
        <ele>1584.6</ele>
        <time>2023-05-15T13:38:34Z</time>
      </trkpt>
      <trkpt lat="44.66298" lon="6.01572">
        <ele>1584.4</ele>
        <time>2023-05-15T13:38:36Z</time>
      </trkpt>
      <trkpt lat="44.66299" lon="6.0157">
        <ele>1584.4</ele>
        <time>2023-05-15T13:38:37Z</time>
      </trkpt>
      <trkpt lat="44.663" lon="6.0157">
        <ele>1583.8</ele>
        <time>2023-05-15T13:38:39Z</time>
      </trkpt>
      <trkpt lat="44.663" lon="6.0157">
        <ele>1583.6</ele>
        <time>2023-05-15T13:38:40Z</time>
      </trkpt>
      <trkpt lat="44.663" lon="6.0157">
        <ele>1583.4</ele>
        <time>2023-05-15T13:38:41Z</time>
      </trkpt>
      <trkpt lat="44.663" lon="6.01569">
        <ele>1583.2</ele>
        <time>2023-05-15T13:38:42Z</time>
      </trkpt>
      <trkpt lat="44.66301" lon="6.01569">
        <ele>1582.6</ele>
        <time>2023-05-15T13:38:44Z</time>
      </trkpt>
      <trkpt lat="44.66301" lon="6.01568">
        <ele>1582.6</ele>
        <time>2023-05-15T13:38:45Z</time>
      </trkpt>
      <trkpt lat="44.66301" lon="6.01568">
        <ele>1582.2</ele>
        <time>2023-05-15T13:38:46Z</time>
      </trkpt>
      <trkpt lat="44.66302" lon="6.01566">
        <ele>1582</ele>
        <time>2023-05-15T13:38:48Z</time>
      </trkpt>
      <trkpt lat="44.66304" lon="6.01564">
        <ele>1582</ele>
        <time>2023-05-15T13:38:49Z</time>
      </trkpt>
      <trkpt lat="44.66304" lon="6.01563">
        <ele>1581.8</ele>
        <time>2023-05-15T13:38:50Z</time>
      </trkpt>
      <trkpt lat="44.66304" lon="6.01563">
        <ele>1581.4</ele>
        <time>2023-05-15T13:38:51Z</time>
      </trkpt>
      <trkpt lat="44.66305" lon="6.01563">
        <ele>1581</ele>
        <time>2023-05-15T13:38:52Z</time>
      </trkpt>
      <trkpt lat="44.66307" lon="6.0156">
        <ele>1580.2</ele>
        <time>2023-05-15T13:38:55Z</time>
      </trkpt>
      <trkpt lat="44.66307" lon="6.0156">
        <ele>1580</ele>
        <time>2023-05-15T13:38:56Z</time>
      </trkpt>
      <trkpt lat="44.66307" lon="6.0156">
        <ele>1579.8</ele>
        <time>2023-05-15T13:38:57Z</time>
      </trkpt>
      <trkpt lat="44.66307" lon="6.0156">
        <ele>1579.8</ele>
        <time>2023-05-15T13:38:58Z</time>
      </trkpt>
      <trkpt lat="44.66307" lon="6.0156">
        <ele>1579.4</ele>
        <time>2023-05-15T13:38:59Z</time>
      </trkpt>
      <trkpt lat="44.66307" lon="6.0156">
        <ele>1579.4</ele>
        <time>2023-05-15T13:39:00Z</time>
      </trkpt>
      <trkpt lat="44.66307" lon="6.0156">
        <ele>1579.2</ele>
        <time>2023-05-15T13:39:01Z</time>
      </trkpt>
      <trkpt lat="44.66308" lon="6.01559">
        <ele>1578.8</ele>
        <time>2023-05-15T13:39:04Z</time>
      </trkpt>
      <trkpt lat="44.66308" lon="6.01559">
        <ele>1578.6</ele>
        <time>2023-05-15T13:39:05Z</time>
      </trkpt>
      <trkpt lat="44.66308" lon="6.01559">
        <ele>1578</ele>
        <time>2023-05-15T13:39:09Z</time>
      </trkpt>
      <trkpt lat="44.66308" lon="6.01558">
        <ele>1577.8</ele>
        <time>2023-05-15T13:39:11Z</time>
      </trkpt>
      <trkpt lat="44.6631" lon="6.01557">
        <ele>1577.4</ele>
        <time>2023-05-15T13:39:17Z</time>
      </trkpt>
      <trkpt lat="44.6631" lon="6.01557">
        <ele>1576.6</ele>
        <time>2023-05-15T13:39:19Z</time>
      </trkpt>
      <trkpt lat="44.6631" lon="6.01557">
        <ele>1575.4</ele>
        <time>2023-05-15T13:39:24Z</time>
      </trkpt>
      <trkpt lat="44.66312" lon="6.01557">
        <ele>1575</ele>
        <time>2023-05-15T13:39:28Z</time>
      </trkpt>
      <trkpt lat="44.66313" lon="6.01557">
        <ele>1574.8</ele>
        <time>2023-05-15T13:39:29Z</time>
      </trkpt>
      <trkpt lat="44.66315" lon="6.01556">
        <ele>1574.8</ele>
        <time>2023-05-15T13:39:31Z</time>
      </trkpt>
      <trkpt lat="44.66317" lon="6.01556">
        <ele>1574.6</ele>
        <time>2023-05-15T13:39:32Z</time>
      </trkpt>
      <trkpt lat="44.66319" lon="6.01557">
        <ele>1574.6</ele>
        <time>2023-05-15T13:39:33Z</time>
      </trkpt>
      <trkpt lat="44.66321" lon="6.01558">
        <ele>1574.4</ele>
        <time>2023-05-15T13:39:34Z</time>
      </trkpt>
      <trkpt lat="44.66323" lon="6.01558">
        <ele>1574.4</ele>
        <time>2023-05-15T13:39:35Z</time>
      </trkpt>
      <trkpt lat="44.66324" lon="6.01558">
        <ele>1573.6</ele>
        <time>2023-05-15T13:39:36Z</time>
      </trkpt>
      <trkpt lat="44.66324" lon="6.01559">
        <ele>1573.2</ele>
        <time>2023-05-15T13:39:37Z</time>
      </trkpt>
      <trkpt lat="44.66325" lon="6.01559">
        <ele>1572.2</ele>
        <time>2023-05-15T13:39:38Z</time>
      </trkpt>
      <trkpt lat="44.66325" lon="6.01559">
        <ele>1572</ele>
        <time>2023-05-15T13:39:39Z</time>
      </trkpt>
      <trkpt lat="44.66325" lon="6.01559">
        <ele>1571.6</ele>
        <time>2023-05-15T13:39:40Z</time>
      </trkpt>
      <trkpt lat="44.66326" lon="6.01559">
        <ele>1571.4</ele>
        <time>2023-05-15T13:39:41Z</time>
      </trkpt>
      <trkpt lat="44.66326" lon="6.01559">
        <ele>1570.8</ele>
        <time>2023-05-15T13:39:42Z</time>
      </trkpt>
      <trkpt lat="44.66326" lon="6.01559">
        <ele>1570.4</ele>
        <time>2023-05-15T13:39:43Z</time>
      </trkpt>
      <trkpt lat="44.66327" lon="6.01559">
        <ele>1569.8</ele>
        <time>2023-05-15T13:39:46Z</time>
      </trkpt>
      <trkpt lat="44.66327" lon="6.01559">
        <ele>1569.6</ele>
        <time>2023-05-15T13:39:47Z</time>
      </trkpt>
      <trkpt lat="44.66327" lon="6.01559">
        <ele>1569.6</ele>
        <time>2023-05-15T13:39:48Z</time>
      </trkpt>
      <trkpt lat="44.66328" lon="6.01558">
        <ele>1569.2</ele>
        <time>2023-05-15T13:39:49Z</time>
      </trkpt>
      <trkpt lat="44.66329" lon="6.01559">
        <ele>1568.6</ele>
        <time>2023-05-15T13:39:52Z</time>
      </trkpt>
      <trkpt lat="44.66329" lon="6.01559">
        <ele>1568.6</ele>
        <time>2023-05-15T13:39:53Z</time>
      </trkpt>
      <trkpt lat="44.66329" lon="6.01559">
        <ele>1568.2</ele>
        <time>2023-05-15T13:39:54Z</time>
      </trkpt>
      <trkpt lat="44.66329" lon="6.01558">
        <ele>1568.2</ele>
        <time>2023-05-15T13:39:55Z</time>
      </trkpt>
      <trkpt lat="44.66329" lon="6.01558">
        <ele>1567.2</ele>
        <time>2023-05-15T13:40:01Z</time>
      </trkpt>
      <trkpt lat="44.66329" lon="6.01558">
        <ele>1567</ele>
        <time>2023-05-15T13:40:04Z</time>
      </trkpt>
      <trkpt lat="44.66331" lon="6.01557">
        <ele>1566</ele>
        <time>2023-05-15T13:40:12Z</time>
      </trkpt>
      <trkpt lat="44.66331" lon="6.01557">
        <ele>1566</ele>
        <time>2023-05-15T13:40:13Z</time>
      </trkpt>
      <trkpt lat="44.66332" lon="6.01556">
        <ele>1565.6</ele>
        <time>2023-05-15T13:40:15Z</time>
      </trkpt>
      <trkpt lat="44.66333" lon="6.01556">
        <ele>1565.6</ele>
        <time>2023-05-15T13:40:18Z</time>
      </trkpt>
      <trkpt lat="44.66333" lon="6.01556">
        <ele>1565.4</ele>
        <time>2023-05-15T13:40:19Z</time>
      </trkpt>
      <trkpt lat="44.66334" lon="6.01556">
        <ele>1564.8</ele>
        <time>2023-05-15T13:40:21Z</time>
      </trkpt>
      <trkpt lat="44.66334" lon="6.01556">
        <ele>1564.6</ele>
        <time>2023-05-15T13:40:22Z</time>
      </trkpt>
      <trkpt lat="44.66335" lon="6.01555">
        <ele>1564.4</ele>
        <time>2023-05-15T13:40:23Z</time>
      </trkpt>
      <trkpt lat="44.66338" lon="6.01555">
        <ele>1564.2</ele>
        <time>2023-05-15T13:40:24Z</time>
      </trkpt>
      <trkpt lat="44.66338" lon="6.01555">
        <ele>1563.8</ele>
        <time>2023-05-15T13:40:25Z</time>
      </trkpt>
      <trkpt lat="44.6634" lon="6.01555">
        <ele>1563.4</ele>
        <time>2023-05-15T13:40:26Z</time>
      </trkpt>
      <trkpt lat="44.66341" lon="6.01554">
        <ele>1563.2</ele>
        <time>2023-05-15T13:40:27Z</time>
      </trkpt>
      <trkpt lat="44.66344" lon="6.01554">
        <ele>1562.6</ele>
        <time>2023-05-15T13:40:30Z</time>
      </trkpt>
      <trkpt lat="44.66344" lon="6.01554">
        <ele>1562.4</ele>
        <time>2023-05-15T13:40:32Z</time>
      </trkpt>
      <trkpt lat="44.66344" lon="6.01554">
        <ele>1562</ele>
        <time>2023-05-15T13:40:33Z</time>
      </trkpt>
      <trkpt lat="44.66345" lon="6.01554">
        <ele>1562</ele>
        <time>2023-05-15T13:40:34Z</time>
      </trkpt>
      <trkpt lat="44.66345" lon="6.01554">
        <ele>1561.8</ele>
        <time>2023-05-15T13:40:35Z</time>
      </trkpt>
      <trkpt lat="44.66345" lon="6.01554">
        <ele>1561.6</ele>
        <time>2023-05-15T13:40:36Z</time>
      </trkpt>
      <trkpt lat="44.66346" lon="6.01553">
        <ele>1561</ele>
        <time>2023-05-15T13:40:38Z</time>
      </trkpt>
      <trkpt lat="44.66349" lon="6.01552">
        <ele>1560.6</ele>
        <time>2023-05-15T13:40:40Z</time>
      </trkpt>
      <trkpt lat="44.66349" lon="6.01552">
        <ele>1560.6</ele>
        <time>2023-05-15T13:40:41Z</time>
      </trkpt>
      <trkpt lat="44.66349" lon="6.01552">
        <ele>1560.2</ele>
        <time>2023-05-15T13:40:42Z</time>
      </trkpt>
      <trkpt lat="44.66349" lon="6.01552">
        <ele>1559.8</ele>
        <time>2023-05-15T13:40:43Z</time>
      </trkpt>
      <trkpt lat="44.66349" lon="6.01552">
        <ele>1559.6</ele>
        <time>2023-05-15T13:40:44Z</time>
      </trkpt>
      <trkpt lat="44.66354" lon="6.01551">
        <ele>1558.8</ele>
        <time>2023-05-15T13:40:48Z</time>
      </trkpt>
      <trkpt lat="44.66354" lon="6.01551">
        <ele>1558.8</ele>
        <time>2023-05-15T13:40:49Z</time>
      </trkpt>
      <trkpt lat="44.66354" lon="6.01551">
        <ele>1558.8</ele>
        <time>2023-05-15T13:40:50Z</time>
      </trkpt>
      <trkpt lat="44.66354" lon="6.01551">
        <ele>1558.6</ele>
        <time>2023-05-15T13:40:51Z</time>
      </trkpt>
      <trkpt lat="44.66354" lon="6.01551">
        <ele>1558.6</ele>
        <time>2023-05-15T13:40:52Z</time>
      </trkpt>
      <trkpt lat="44.66354" lon="6.01551">
        <ele>1558.4</ele>
        <time>2023-05-15T13:40:53Z</time>
      </trkpt>
      <trkpt lat="44.66354" lon="6.01551">
        <ele>1557.8</ele>
        <time>2023-05-15T13:40:56Z</time>
      </trkpt>
      <trkpt lat="44.66354" lon="6.01551">
        <ele>1557.4</ele>
        <time>2023-05-15T13:40:58Z</time>
      </trkpt>
      <trkpt lat="44.66354" lon="6.0155">
        <ele>1556.6</ele>
        <time>2023-05-15T13:41:01Z</time>
      </trkpt>
      <trkpt lat="44.66354" lon="6.0155">
        <ele>1556.4</ele>
        <time>2023-05-15T13:41:03Z</time>
      </trkpt>
      <trkpt lat="44.66355" lon="6.0155">
        <ele>1555.8</ele>
        <time>2023-05-15T13:41:06Z</time>
      </trkpt>
      <trkpt lat="44.66355" lon="6.0155">
        <ele>1555.6</ele>
        <time>2023-05-15T13:41:07Z</time>
      </trkpt>
      <trkpt lat="44.66356" lon="6.0155">
        <ele>1555.2</ele>
        <time>2023-05-15T13:41:09Z</time>
      </trkpt>
      <trkpt lat="44.66358" lon="6.01551">
        <ele>1554.8</ele>
        <time>2023-05-15T13:41:11Z</time>
      </trkpt>
      <trkpt lat="44.66358" lon="6.01552">
        <ele>1554.4</ele>
        <time>2023-05-15T13:41:13Z</time>
      </trkpt>
      <trkpt lat="44.66359" lon="6.01551">
        <ele>1554.2</ele>
        <time>2023-05-15T13:41:14Z</time>
      </trkpt>
      <trkpt lat="44.66359" lon="6.01551">
        <ele>1554</ele>
        <time>2023-05-15T13:41:15Z</time>
      </trkpt>
      <trkpt lat="44.6636" lon="6.01551">
        <ele>1553.8</ele>
        <time>2023-05-15T13:41:16Z</time>
      </trkpt>
      <trkpt lat="44.6636" lon="6.01551">
        <ele>1553.6</ele>
        <time>2023-05-15T13:41:18Z</time>
      </trkpt>
      <trkpt lat="44.66363" lon="6.01551">
        <ele>1552.8</ele>
        <time>2023-05-15T13:41:25Z</time>
      </trkpt>
      <trkpt lat="44.66363" lon="6.01551">
        <ele>1552.6</ele>
        <time>2023-05-15T13:41:26Z</time>
      </trkpt>
      <trkpt lat="44.66364" lon="6.01551">
        <ele>1551.6</ele>
        <time>2023-05-15T13:41:33Z</time>
      </trkpt>
      <trkpt lat="44.66365" lon="6.0155">
        <ele>1551.2</ele>
        <time>2023-05-15T13:41:34Z</time>
      </trkpt>
      <trkpt lat="44.66366" lon="6.01548">
        <ele>1550.4</ele>
        <time>2023-05-15T13:41:37Z</time>
      </trkpt>
      <trkpt lat="44.66366" lon="6.01548">
        <ele>1550</ele>
        <time>2023-05-15T13:41:40Z</time>
      </trkpt>
      <trkpt lat="44.66368" lon="6.01546">
        <ele>1549.4</ele>
        <time>2023-05-15T13:41:42Z</time>
      </trkpt>
      <trkpt lat="44.66369" lon="6.01545">
        <ele>1549.4</ele>
        <time>2023-05-15T13:41:43Z</time>
      </trkpt>
      <trkpt lat="44.66369" lon="6.01544">
        <ele>1549.2</ele>
        <time>2023-05-15T13:41:44Z</time>
      </trkpt>
      <trkpt lat="44.6637" lon="6.01544">
        <ele>1549</ele>
        <time>2023-05-15T13:41:45Z</time>
      </trkpt>
      <trkpt lat="44.6637" lon="6.01544">
        <ele>1548.6</ele>
        <time>2023-05-15T13:41:46Z</time>
      </trkpt>
      <trkpt lat="44.6637" lon="6.01544">
        <ele>1548.8</ele>
        <time>2023-05-15T13:41:47Z</time>
      </trkpt>
      <trkpt lat="44.66371" lon="6.01543">
        <ele>1548.4</ele>
        <time>2023-05-15T13:41:48Z</time>
      </trkpt>
      <trkpt lat="44.66372" lon="6.01543">
        <ele>1548</ele>
        <time>2023-05-15T13:41:49Z</time>
      </trkpt>
      <trkpt lat="44.66373" lon="6.01543">
        <ele>1547</ele>
        <time>2023-05-15T13:41:51Z</time>
      </trkpt>
      <trkpt lat="44.66373" lon="6.01543">
        <ele>1547</ele>
        <time>2023-05-15T13:41:52Z</time>
      </trkpt>
      <trkpt lat="44.66374" lon="6.01543">
        <ele>1546.8</ele>
        <time>2023-05-15T13:41:53Z</time>
      </trkpt>
      <trkpt lat="44.66374" lon="6.01544">
        <ele>1546.6</ele>
        <time>2023-05-15T13:41:54Z</time>
      </trkpt>
      <trkpt lat="44.66374" lon="6.01544">
        <ele>1546.4</ele>
        <time>2023-05-15T13:41:55Z</time>
      </trkpt>
      <trkpt lat="44.66376" lon="6.01544">
        <ele>1546.2</ele>
        <time>2023-05-15T13:41:56Z</time>
      </trkpt>
      <trkpt lat="44.66379" lon="6.01544">
        <ele>1546</ele>
        <time>2023-05-15T13:41:57Z</time>
      </trkpt>
      <trkpt lat="44.6638" lon="6.01544">
        <ele>1545.4</ele>
        <time>2023-05-15T13:41:58Z</time>
      </trkpt>
      <trkpt lat="44.6638" lon="6.01544">
        <ele>1545.4</ele>
        <time>2023-05-15T13:41:59Z</time>
      </trkpt>
      <trkpt lat="44.6638" lon="6.01544">
        <ele>1544.8</ele>
        <time>2023-05-15T13:42:00Z</time>
      </trkpt>
      <trkpt lat="44.66381" lon="6.01544">
        <ele>1544.6</ele>
        <time>2023-05-15T13:42:01Z</time>
      </trkpt>
      <trkpt lat="44.66382" lon="6.01544">
        <ele>1544.2</ele>
        <time>2023-05-15T13:42:02Z</time>
      </trkpt>
      <trkpt lat="44.66382" lon="6.01544">
        <ele>1543.8</ele>
        <time>2023-05-15T13:42:03Z</time>
      </trkpt>
      <trkpt lat="44.66382" lon="6.01544">
        <ele>1543.2</ele>
        <time>2023-05-15T13:42:04Z</time>
      </trkpt>
      <trkpt lat="44.66385" lon="6.01544">
        <ele>1543</ele>
        <time>2023-05-15T13:42:06Z</time>
      </trkpt>
      <trkpt lat="44.66385" lon="6.01544">
        <ele>1542.4</ele>
        <time>2023-05-15T13:42:07Z</time>
      </trkpt>
      <trkpt lat="44.66385" lon="6.01544">
        <ele>1541.8</ele>
        <time>2023-05-15T13:42:09Z</time>
      </trkpt>
      <trkpt lat="44.66386" lon="6.01544">
        <ele>1541.6</ele>
        <time>2023-05-15T13:42:10Z</time>
      </trkpt>
      <trkpt lat="44.6639" lon="6.01546">
        <ele>1540.6</ele>
        <time>2023-05-15T13:42:13Z</time>
      </trkpt>
      <trkpt lat="44.6639" lon="6.01546">
        <ele>1540.4</ele>
        <time>2023-05-15T13:42:14Z</time>
      </trkpt>
      <trkpt lat="44.66391" lon="6.01546">
        <ele>1540</ele>
        <time>2023-05-15T13:42:17Z</time>
      </trkpt>
      <trkpt lat="44.66391" lon="6.01546">
        <ele>1539.8</ele>
        <time>2023-05-15T13:42:18Z</time>
      </trkpt>
      <trkpt lat="44.66393" lon="6.01547">
        <ele>1539.4</ele>
        <time>2023-05-15T13:42:20Z</time>
      </trkpt>
      <trkpt lat="44.66394" lon="6.01547">
        <ele>1539.2</ele>
        <time>2023-05-15T13:42:21Z</time>
      </trkpt>
      <trkpt lat="44.66395" lon="6.01549">
        <ele>1538.8</ele>
        <time>2023-05-15T13:42:23Z</time>
      </trkpt>
      <trkpt lat="44.66395" lon="6.01549">
        <ele>1538.6</ele>
        <time>2023-05-15T13:42:24Z</time>
      </trkpt>
      <trkpt lat="44.66395" lon="6.01549">
        <ele>1538.4</ele>
        <time>2023-05-15T13:42:25Z</time>
      </trkpt>
      <trkpt lat="44.66396" lon="6.01549">
        <ele>1538.2</ele>
        <time>2023-05-15T13:42:27Z</time>
      </trkpt>
      <trkpt lat="44.66396" lon="6.01549">
        <ele>1538</ele>
        <time>2023-05-15T13:42:29Z</time>
      </trkpt>
      <trkpt lat="44.66396" lon="6.01549">
        <ele>1538</ele>
        <time>2023-05-15T13:42:30Z</time>
      </trkpt>
      <trkpt lat="44.66396" lon="6.01549">
        <ele>1537</ele>
        <time>2023-05-15T13:42:32Z</time>
      </trkpt>
      <trkpt lat="44.66397" lon="6.01549">
        <ele>1536.2</ele>
        <time>2023-05-15T13:42:35Z</time>
      </trkpt>
      <trkpt lat="44.66398" lon="6.01549">
        <ele>1535.8</ele>
        <time>2023-05-15T13:42:36Z</time>
      </trkpt>
      <trkpt lat="44.66398" lon="6.01549">
        <ele>1535.6</ele>
        <time>2023-05-15T13:42:37Z</time>
      </trkpt>
      <trkpt lat="44.66398" lon="6.01549">
        <ele>1535.4</ele>
        <time>2023-05-15T13:42:38Z</time>
      </trkpt>
      <trkpt lat="44.66402" lon="6.01549">
        <ele>1534.4</ele>
        <time>2023-05-15T13:42:43Z</time>
      </trkpt>
      <trkpt lat="44.66405" lon="6.0155">
        <ele>1533.8</ele>
        <time>2023-05-15T13:42:45Z</time>
      </trkpt>
      <trkpt lat="44.66406" lon="6.01551">
        <ele>1533.4</ele>
        <time>2023-05-15T13:42:46Z</time>
      </trkpt>
      <trkpt lat="44.66406" lon="6.01551">
        <ele>1533.2</ele>
        <time>2023-05-15T13:42:47Z</time>
      </trkpt>
      <trkpt lat="44.66407" lon="6.01552">
        <ele>1533</ele>
        <time>2023-05-15T13:42:48Z</time>
      </trkpt>
      <trkpt lat="44.66407" lon="6.01552">
        <ele>1532.6</ele>
        <time>2023-05-15T13:42:49Z</time>
      </trkpt>
      <trkpt lat="44.66409" lon="6.01553">
        <ele>1532.2</ele>
        <time>2023-05-15T13:42:50Z</time>
      </trkpt>
      <trkpt lat="44.66409" lon="6.01553">
        <ele>1532</ele>
        <time>2023-05-15T13:42:51Z</time>
      </trkpt>
      <trkpt lat="44.66409" lon="6.01553">
        <ele>1531.8</ele>
        <time>2023-05-15T13:42:52Z</time>
      </trkpt>
      <trkpt lat="44.6641" lon="6.01553">
        <ele>1531.6</ele>
        <time>2023-05-15T13:42:53Z</time>
      </trkpt>
      <trkpt lat="44.6641" lon="6.01553">
        <ele>1531.2</ele>
        <time>2023-05-15T13:42:55Z</time>
      </trkpt>
      <trkpt lat="44.6641" lon="6.01553">
        <ele>1530.6</ele>
        <time>2023-05-15T13:42:59Z</time>
      </trkpt>
      <trkpt lat="44.66414" lon="6.01552">
        <ele>1530</ele>
        <time>2023-05-15T13:43:04Z</time>
      </trkpt>
      <trkpt lat="44.66418" lon="6.01552">
        <ele>1529.2</ele>
        <time>2023-05-15T13:43:09Z</time>
      </trkpt>
      <trkpt lat="44.66418" lon="6.01552">
        <ele>1528.8</ele>
        <time>2023-05-15T13:43:10Z</time>
      </trkpt>
      <trkpt lat="44.6642" lon="6.01552">
        <ele>1527.8</ele>
        <time>2023-05-15T13:43:15Z</time>
      </trkpt>
      <trkpt lat="44.6642" lon="6.01552">
        <ele>1527.6</ele>
        <time>2023-05-15T13:43:17Z</time>
      </trkpt>
      <trkpt lat="44.6642" lon="6.01552">
        <ele>1527.2</ele>
        <time>2023-05-15T13:43:30Z</time>
      </trkpt>
      <trkpt lat="44.66421" lon="6.01552">
        <ele>1527.8</ele>
        <time>2023-05-15T13:44:55Z</time>
      </trkpt>
      <trkpt lat="44.66421" lon="6.01552">
        <ele>1527.8</ele>
        <time>2023-05-15T13:44:56Z</time>
      </trkpt>
      <trkpt lat="44.66423" lon="6.01552">
        <ele>1527.4</ele>
        <time>2023-05-15T13:45:02Z</time>
      </trkpt>
      <trkpt lat="44.66425" lon="6.01551">
        <ele>1527.2</ele>
        <time>2023-05-15T13:45:04Z</time>
      </trkpt>
      <trkpt lat="44.66425" lon="6.01551">
        <ele>1527.2</ele>
        <time>2023-05-15T13:45:05Z</time>
      </trkpt>
      <trkpt lat="44.66427" lon="6.01551">
        <ele>1527</ele>
        <time>2023-05-15T13:45:07Z</time>
      </trkpt>
      <trkpt lat="44.66427" lon="6.01551">
        <ele>1527</ele>
        <time>2023-05-15T13:45:08Z</time>
      </trkpt>
      <trkpt lat="44.66427" lon="6.01551">
        <ele>1526.8</ele>
        <time>2023-05-15T13:45:09Z</time>
      </trkpt>
      <trkpt lat="44.66427" lon="6.01551">
        <ele>1526.8</ele>
        <time>2023-05-15T13:45:10Z</time>
      </trkpt>
      <trkpt lat="44.66428" lon="6.01551">
        <ele>1526.4</ele>
        <time>2023-05-15T13:45:11Z</time>
      </trkpt>
      <trkpt lat="44.66429" lon="6.01551">
        <ele>1526</ele>
        <time>2023-05-15T13:45:12Z</time>
      </trkpt>
      <trkpt lat="44.6643" lon="6.01551">
        <ele>1525.6</ele>
        <time>2023-05-15T13:45:14Z</time>
      </trkpt>
      <trkpt lat="44.66432" lon="6.01551">
        <ele>1525.4</ele>
        <time>2023-05-15T13:45:15Z</time>
      </trkpt>
      <trkpt lat="44.66435" lon="6.01552">
        <ele>1524.8</ele>
        <time>2023-05-15T13:45:18Z</time>
      </trkpt>
      <trkpt lat="44.66435" lon="6.01552">
        <ele>1524.4</ele>
        <time>2023-05-15T13:45:19Z</time>
      </trkpt>
      <trkpt lat="44.66435" lon="6.01553">
        <ele>1524.4</ele>
        <time>2023-05-15T13:45:20Z</time>
      </trkpt>
      <trkpt lat="44.66436" lon="6.01553">
        <ele>1523.6</ele>
        <time>2023-05-15T13:45:24Z</time>
      </trkpt>
      <trkpt lat="44.66436" lon="6.01553">
        <ele>1523.4</ele>
        <time>2023-05-15T13:45:25Z</time>
      </trkpt>
      <trkpt lat="44.66438" lon="6.01552">
        <ele>1522.8</ele>
        <time>2023-05-15T13:45:31Z</time>
      </trkpt>
      <trkpt lat="44.6644" lon="6.01551">
        <ele>1522.6</ele>
        <time>2023-05-15T13:45:32Z</time>
      </trkpt>
      <trkpt lat="44.66441" lon="6.01551">
        <ele>1522.4</ele>
        <time>2023-05-15T13:45:33Z</time>
      </trkpt>
      <trkpt lat="44.66442" lon="6.0155">
        <ele>1522.4</ele>
        <time>2023-05-15T13:45:34Z</time>
      </trkpt>
      <trkpt lat="44.66443" lon="6.01549">
        <ele>1522.2</ele>
        <time>2023-05-15T13:45:35Z</time>
      </trkpt>
      <trkpt lat="44.66445" lon="6.01548">
        <ele>1522.2</ele>
        <time>2023-05-15T13:45:36Z</time>
      </trkpt>
      <trkpt lat="44.66447" lon="6.01549">
        <ele>1522</ele>
        <time>2023-05-15T13:45:37Z</time>
      </trkpt>
      <trkpt lat="44.66449" lon="6.0155">
        <ele>1521.8</ele>
        <time>2023-05-15T13:45:38Z</time>
      </trkpt>
      <trkpt lat="44.66451" lon="6.01552">
        <ele>1521.6</ele>
        <time>2023-05-15T13:45:39Z</time>
      </trkpt>
      <trkpt lat="44.66457" lon="6.01555">
        <ele>1520.4</ele>
        <time>2023-05-15T13:45:42Z</time>
      </trkpt>
      <trkpt lat="44.66458" lon="6.01554">
        <ele>1519.6</ele>
        <time>2023-05-15T13:45:43Z</time>
      </trkpt>
      <trkpt lat="44.6646" lon="6.01554">
        <ele>1519.2</ele>
        <time>2023-05-15T13:45:44Z</time>
      </trkpt>
      <trkpt lat="44.66465" lon="6.01555">
        <ele>1518.2</ele>
        <time>2023-05-15T13:45:47Z</time>
      </trkpt>
      <trkpt lat="44.66468" lon="6.01554">
        <ele>1517</ele>
        <time>2023-05-15T13:45:48Z</time>
      </trkpt>
      <trkpt lat="44.6647" lon="6.01553">
        <ele>1516.6</ele>
        <time>2023-05-15T13:45:49Z</time>
      </trkpt>
      <trkpt lat="44.66473" lon="6.01551">
        <ele>1515.6</ele>
        <time>2023-05-15T13:45:50Z</time>
      </trkpt>
      <trkpt lat="44.66476" lon="6.0155">
        <ele>1514.6</ele>
        <time>2023-05-15T13:45:51Z</time>
      </trkpt>
      <trkpt lat="44.66482" lon="6.01547">
        <ele>1513</ele>
        <time>2023-05-15T13:45:53Z</time>
      </trkpt>
      <trkpt lat="44.66487" lon="6.01546">
        <ele>1511.6</ele>
        <time>2023-05-15T13:45:55Z</time>
      </trkpt>
      <trkpt lat="44.6649" lon="6.01545">
        <ele>1510.2</ele>
        <time>2023-05-15T13:45:56Z</time>
      </trkpt>
      <trkpt lat="44.66492" lon="6.01544">
        <ele>1508.6</ele>
        <time>2023-05-15T13:45:57Z</time>
      </trkpt>
      <trkpt lat="44.66495" lon="6.01544">
        <ele>1508.2</ele>
        <time>2023-05-15T13:45:58Z</time>
      </trkpt>
      <trkpt lat="44.66498" lon="6.01544">
        <ele>1507.4</ele>
        <time>2023-05-15T13:45:59Z</time>
      </trkpt>
      <trkpt lat="44.66501" lon="6.01543">
        <ele>1506</ele>
        <time>2023-05-15T13:46:00Z</time>
      </trkpt>
      <trkpt lat="44.66507" lon="6.01542">
        <ele>1504.2</ele>
        <time>2023-05-15T13:46:02Z</time>
      </trkpt>
      <trkpt lat="44.66509" lon="6.01542">
        <ele>1503.6</ele>
        <time>2023-05-15T13:46:03Z</time>
      </trkpt>
      <trkpt lat="44.66511" lon="6.01541">
        <ele>1503</ele>
        <time>2023-05-15T13:46:04Z</time>
      </trkpt>
      <trkpt lat="44.66514" lon="6.01541">
        <ele>1501.8</ele>
        <time>2023-05-15T13:46:05Z</time>
      </trkpt>
      <trkpt lat="44.66516" lon="6.0154">
        <ele>1500.6</ele>
        <time>2023-05-15T13:46:06Z</time>
      </trkpt>
      <trkpt lat="44.66518" lon="6.01539">
        <ele>1500.2</ele>
        <time>2023-05-15T13:46:07Z</time>
      </trkpt>
      <trkpt lat="44.66521" lon="6.01539">
        <ele>1499.8</ele>
        <time>2023-05-15T13:46:08Z</time>
      </trkpt>
      <trkpt lat="44.66523" lon="6.0154">
        <ele>1498.4</ele>
        <time>2023-05-15T13:46:09Z</time>
      </trkpt>
      <trkpt lat="44.66525" lon="6.01541">
        <ele>1497.8</ele>
        <time>2023-05-15T13:46:10Z</time>
      </trkpt>
      <trkpt lat="44.66527" lon="6.01542">
        <ele>1496.8</ele>
        <time>2023-05-15T13:46:11Z</time>
      </trkpt>
      <trkpt lat="44.66529" lon="6.01543">
        <ele>1496.4</ele>
        <time>2023-05-15T13:46:12Z</time>
      </trkpt>
      <trkpt lat="44.66531" lon="6.01544">
        <ele>1495.6</ele>
        <time>2023-05-15T13:46:13Z</time>
      </trkpt>
      <trkpt lat="44.66532" lon="6.01545">
        <ele>1495.2</ele>
        <time>2023-05-15T13:46:14Z</time>
      </trkpt>
      <trkpt lat="44.66534" lon="6.01547">
        <ele>1494.4</ele>
        <time>2023-05-15T13:46:15Z</time>
      </trkpt>
      <trkpt lat="44.66535" lon="6.0155">
        <ele>1494</ele>
        <time>2023-05-15T13:46:16Z</time>
      </trkpt>
      <trkpt lat="44.66536" lon="6.01553">
        <ele>1493.4</ele>
        <time>2023-05-15T13:46:17Z</time>
      </trkpt>
      <trkpt lat="44.66539" lon="6.01555">
        <ele>1492.4</ele>
        <time>2023-05-15T13:46:18Z</time>
      </trkpt>
      <trkpt lat="44.66543" lon="6.0156">
        <ele>1490.8</ele>
        <time>2023-05-15T13:46:20Z</time>
      </trkpt>
      <trkpt lat="44.66546" lon="6.0156">
        <ele>1490.2</ele>
        <time>2023-05-15T13:46:21Z</time>
      </trkpt>
      <trkpt lat="44.66548" lon="6.01561">
        <ele>1489.6</ele>
        <time>2023-05-15T13:46:22Z</time>
      </trkpt>
      <trkpt lat="44.6655" lon="6.01562">
        <ele>1488.2</ele>
        <time>2023-05-15T13:46:23Z</time>
      </trkpt>
      <trkpt lat="44.66551" lon="6.01564">
        <ele>1487.8</ele>
        <time>2023-05-15T13:46:24Z</time>
      </trkpt>
      <trkpt lat="44.66552" lon="6.01566">
        <ele>1487.2</ele>
        <time>2023-05-15T13:46:25Z</time>
      </trkpt>
      <trkpt lat="44.66553" lon="6.01569">
        <ele>1486.4</ele>
        <time>2023-05-15T13:46:26Z</time>
      </trkpt>
      <trkpt lat="44.66553" lon="6.0157">
        <ele>1484.8</ele>
        <time>2023-05-15T13:46:27Z</time>
      </trkpt>
      <trkpt lat="44.66553" lon="6.0157">
        <ele>1483.2</ele>
        <time>2023-05-15T13:46:29Z</time>
      </trkpt>
      <trkpt lat="44.66553" lon="6.0157">
        <ele>1482</ele>
        <time>2023-05-15T13:46:31Z</time>
      </trkpt>
      <trkpt lat="44.66553" lon="6.0157">
        <ele>1480.8</ele>
        <time>2023-05-15T13:46:34Z</time>
      </trkpt>
      <trkpt lat="44.66553" lon="6.0157">
        <ele>1480</ele>
        <time>2023-05-15T13:46:48Z</time>
      </trkpt>
      <trkpt lat="44.66554" lon="6.01571">
        <ele>1480.2</ele>
        <time>2023-05-15T13:47:06Z</time>
      </trkpt>
      <trkpt lat="44.66555" lon="6.01573">
        <ele>1480.2</ele>
        <time>2023-05-15T13:47:07Z</time>
      </trkpt>
      <trkpt lat="44.66558" lon="6.01575">
        <ele>1480.2</ele>
        <time>2023-05-15T13:47:08Z</time>
      </trkpt>
      <trkpt lat="44.66564" lon="6.01579">
        <ele>1479.8</ele>
        <time>2023-05-15T13:47:11Z</time>
      </trkpt>
      <trkpt lat="44.66566" lon="6.01581">
        <ele>1479.8</ele>
        <time>2023-05-15T13:47:12Z</time>
      </trkpt>
      <trkpt lat="44.66569" lon="6.01582">
        <ele>1479.2</ele>
        <time>2023-05-15T13:47:13Z</time>
      </trkpt>
      <trkpt lat="44.66571" lon="6.01583">
        <ele>1479</ele>
        <time>2023-05-15T13:47:14Z</time>
      </trkpt>
      <trkpt lat="44.66574" lon="6.01584">
        <ele>1478</ele>
        <time>2023-05-15T13:47:15Z</time>
      </trkpt>
      <trkpt lat="44.66576" lon="6.01585">
        <ele>1477.6</ele>
        <time>2023-05-15T13:47:16Z</time>
      </trkpt>
      <trkpt lat="44.66579" lon="6.01585">
        <ele>1477</ele>
        <time>2023-05-15T13:47:17Z</time>
      </trkpt>
      <trkpt lat="44.66581" lon="6.01585">
        <ele>1476.4</ele>
        <time>2023-05-15T13:47:18Z</time>
      </trkpt>
      <trkpt lat="44.66585" lon="6.01586">
        <ele>1475.4</ele>
        <time>2023-05-15T13:47:19Z</time>
      </trkpt>
      <trkpt lat="44.66589" lon="6.0159">
        <ele>1474</ele>
        <time>2023-05-15T13:47:21Z</time>
      </trkpt>
      <trkpt lat="44.66591" lon="6.01591">
        <ele>1473.4</ele>
        <time>2023-05-15T13:47:22Z</time>
      </trkpt>
      <trkpt lat="44.66593" lon="6.01593">
        <ele>1472.6</ele>
        <time>2023-05-15T13:47:23Z</time>
      </trkpt>
      <trkpt lat="44.66594" lon="6.01595">
        <ele>1471.2</ele>
        <time>2023-05-15T13:47:24Z</time>
      </trkpt>
      <trkpt lat="44.66596" lon="6.01598">
        <ele>1470.8</ele>
        <time>2023-05-15T13:47:25Z</time>
      </trkpt>
      <trkpt lat="44.66598" lon="6.01599">
        <ele>1469.8</ele>
        <time>2023-05-15T13:47:26Z</time>
      </trkpt>
      <trkpt lat="44.666" lon="6.01601">
        <ele>1469</ele>
        <time>2023-05-15T13:47:27Z</time>
      </trkpt>
      <trkpt lat="44.66603" lon="6.01603">
        <ele>1468.4</ele>
        <time>2023-05-15T13:47:28Z</time>
      </trkpt>
      <trkpt lat="44.66606" lon="6.01604">
        <ele>1467.6</ele>
        <time>2023-05-15T13:47:29Z</time>
      </trkpt>
      <trkpt lat="44.66609" lon="6.01604">
        <ele>1467.2</ele>
        <time>2023-05-15T13:47:30Z</time>
      </trkpt>
      <trkpt lat="44.66612" lon="6.01603">
        <ele>1466.8</ele>
        <time>2023-05-15T13:47:31Z</time>
      </trkpt>
      <trkpt lat="44.66615" lon="6.01602">
        <ele>1465.8</ele>
        <time>2023-05-15T13:47:32Z</time>
      </trkpt>
      <trkpt lat="44.66617" lon="6.016">
        <ele>1464</ele>
        <time>2023-05-15T13:47:33Z</time>
      </trkpt>
      <trkpt lat="44.6662" lon="6.01598">
        <ele>1463.4</ele>
        <time>2023-05-15T13:47:34Z</time>
      </trkpt>
      <trkpt lat="44.66622" lon="6.01597">
        <ele>1462.4</ele>
        <time>2023-05-15T13:47:35Z</time>
      </trkpt>
      <trkpt lat="44.66625" lon="6.01597">
        <ele>1461.4</ele>
        <time>2023-05-15T13:47:36Z</time>
      </trkpt>
      <trkpt lat="44.66628" lon="6.01597">
        <ele>1461.2</ele>
        <time>2023-05-15T13:47:37Z</time>
      </trkpt>
      <trkpt lat="44.66631" lon="6.01596">
        <ele>1460</ele>
        <time>2023-05-15T13:47:38Z</time>
      </trkpt>
      <trkpt lat="44.66633" lon="6.01595">
        <ele>1459.6</ele>
        <time>2023-05-15T13:47:39Z</time>
      </trkpt>
      <trkpt lat="44.66635" lon="6.01595">
        <ele>1459</ele>
        <time>2023-05-15T13:47:40Z</time>
      </trkpt>
      <trkpt lat="44.66639" lon="6.01595">
        <ele>1458.2</ele>
        <time>2023-05-15T13:47:41Z</time>
      </trkpt>
      <trkpt lat="44.66641" lon="6.01595">
        <ele>1457.4</ele>
        <time>2023-05-15T13:47:42Z</time>
      </trkpt>
      <trkpt lat="44.66643" lon="6.01596">
        <ele>1456.8</ele>
        <time>2023-05-15T13:47:43Z</time>
      </trkpt>
      <trkpt lat="44.66644" lon="6.01598">
        <ele>1455.6</ele>
        <time>2023-05-15T13:47:44Z</time>
      </trkpt>
      <trkpt lat="44.66645" lon="6.016">
        <ele>1454.6</ele>
        <time>2023-05-15T13:47:45Z</time>
      </trkpt>
      <trkpt lat="44.66647" lon="6.01602">
        <ele>1454.2</ele>
        <time>2023-05-15T13:47:46Z</time>
      </trkpt>
      <trkpt lat="44.66653" lon="6.01605">
        <ele>1453.2</ele>
        <time>2023-05-15T13:47:48Z</time>
      </trkpt>
      <trkpt lat="44.66656" lon="6.01606">
        <ele>1452.8</ele>
        <time>2023-05-15T13:47:49Z</time>
      </trkpt>
      <trkpt lat="44.66659" lon="6.01606">
        <ele>1452.2</ele>
        <time>2023-05-15T13:47:50Z</time>
      </trkpt>
      <trkpt lat="44.66662" lon="6.01605">
        <ele>1451.2</ele>
        <time>2023-05-15T13:47:51Z</time>
      </trkpt>
      <trkpt lat="44.66665" lon="6.01604">
        <ele>1449.6</ele>
        <time>2023-05-15T13:47:52Z</time>
      </trkpt>
      <trkpt lat="44.66668" lon="6.01604">
        <ele>1448.8</ele>
        <time>2023-05-15T13:47:53Z</time>
      </trkpt>
      <trkpt lat="44.66671" lon="6.01603">
        <ele>1447.8</ele>
        <time>2023-05-15T13:47:54Z</time>
      </trkpt>
      <trkpt lat="44.66676" lon="6.01603">
        <ele>1446.8</ele>
        <time>2023-05-15T13:47:56Z</time>
      </trkpt>
      <trkpt lat="44.66677" lon="6.01602">
        <ele>1446.2</ele>
        <time>2023-05-15T13:47:57Z</time>
      </trkpt>
      <trkpt lat="44.66677" lon="6.01602">
        <ele>1444.6</ele>
        <time>2023-05-15T13:47:58Z</time>
      </trkpt>
      <trkpt lat="44.66677" lon="6.01602">
        <ele>1443.2</ele>
        <time>2023-05-15T13:47:59Z</time>
      </trkpt>
      <trkpt lat="44.66677" lon="6.01602">
        <ele>1442</ele>
        <time>2023-05-15T13:48:02Z</time>
      </trkpt>
      <trkpt lat="44.66677" lon="6.01602">
        <ele>1440.8</ele>
        <time>2023-05-15T13:48:07Z</time>
      </trkpt>
      <trkpt lat="44.66678" lon="6.016">
        <ele>1440.6</ele>
        <time>2023-05-15T13:48:08Z</time>
      </trkpt>
      <trkpt lat="44.6668" lon="6.01599">
        <ele>1440.6</ele>
        <time>2023-05-15T13:48:09Z</time>
      </trkpt>
      <trkpt lat="44.66689" lon="6.01582">
        <ele>1440.2</ele>
        <time>2023-05-15T13:48:15Z</time>
      </trkpt>
      <trkpt lat="44.6669" lon="6.01579">
        <ele>1440.2</ele>
        <time>2023-05-15T13:48:16Z</time>
      </trkpt>
      <trkpt lat="44.66691" lon="6.01577">
        <ele>1440</ele>
        <time>2023-05-15T13:48:17Z</time>
      </trkpt>
      <trkpt lat="44.66692" lon="6.01574">
        <ele>1440</ele>
        <time>2023-05-15T13:48:18Z</time>
      </trkpt>
      <trkpt lat="44.66694" lon="6.01571">
        <ele>1439.4</ele>
        <time>2023-05-15T13:48:19Z</time>
      </trkpt>
      <trkpt lat="44.66695" lon="6.01566">
        <ele>1439.2</ele>
        <time>2023-05-15T13:48:20Z</time>
      </trkpt>
      <trkpt lat="44.66699" lon="6.01553">
        <ele>1438.2</ele>
        <time>2023-05-15T13:48:23Z</time>
      </trkpt>
      <trkpt lat="44.66703" lon="6.01543">
        <ele>1437.6</ele>
        <time>2023-05-15T13:48:25Z</time>
      </trkpt>
      <trkpt lat="44.66707" lon="6.01533">
        <ele>1436.8</ele>
        <time>2023-05-15T13:48:27Z</time>
      </trkpt>
      <trkpt lat="44.66714" lon="6.0152">
        <ele>1435.6</ele>
        <time>2023-05-15T13:48:30Z</time>
      </trkpt>
      <trkpt lat="44.66716" lon="6.01515">
        <ele>1435.4</ele>
        <time>2023-05-15T13:48:31Z</time>
      </trkpt>
      <trkpt lat="44.6672" lon="6.01509">
        <ele>1434.6</ele>
        <time>2023-05-15T13:48:33Z</time>
      </trkpt>
      <trkpt lat="44.66722" lon="6.01503">
        <ele>1434.2</ele>
        <time>2023-05-15T13:48:34Z</time>
      </trkpt>
      <trkpt lat="44.66724" lon="6.01498">
        <ele>1433.6</ele>
        <time>2023-05-15T13:48:35Z</time>
      </trkpt>
      <trkpt lat="44.6673" lon="6.01485">
        <ele>1432.4</ele>
        <time>2023-05-15T13:48:37Z</time>
      </trkpt>
      <trkpt lat="44.66735" lon="6.01476">
        <ele>1431.4</ele>
        <time>2023-05-15T13:48:39Z</time>
      </trkpt>
      <trkpt lat="44.66738" lon="6.01473">
        <ele>1430.2</ele>
        <time>2023-05-15T13:48:40Z</time>
      </trkpt>
      <trkpt lat="44.6674" lon="6.0147">
        <ele>1429.8</ele>
        <time>2023-05-15T13:48:41Z</time>
      </trkpt>
      <trkpt lat="44.66742" lon="6.01468">
        <ele>1429</ele>
        <time>2023-05-15T13:48:42Z</time>
      </trkpt>
      <trkpt lat="44.66745" lon="6.01466">
        <ele>1428.6</ele>
        <time>2023-05-15T13:48:43Z</time>
      </trkpt>
      <trkpt lat="44.66747" lon="6.01465">
        <ele>1427.8</ele>
        <time>2023-05-15T13:48:44Z</time>
      </trkpt>
      <trkpt lat="44.66748" lon="6.01464">
        <ele>1427.6</ele>
        <time>2023-05-15T13:48:45Z</time>
      </trkpt>
      <trkpt lat="44.66749" lon="6.01463">
        <ele>1426.4</ele>
        <time>2023-05-15T13:48:46Z</time>
      </trkpt>
      <trkpt lat="44.6675" lon="6.01462">
        <ele>1425.2</ele>
        <time>2023-05-15T13:48:47Z</time>
      </trkpt>
      <trkpt lat="44.6675" lon="6.01462">
        <ele>1424.4</ele>
        <time>2023-05-15T13:48:48Z</time>
      </trkpt>
      <trkpt lat="44.6675" lon="6.01462">
        <ele>1423.6</ele>
        <time>2023-05-15T13:48:49Z</time>
      </trkpt>
      <trkpt lat="44.6675" lon="6.01462">
        <ele>1423.4</ele>
        <time>2023-05-15T13:48:50Z</time>
      </trkpt>
      <trkpt lat="44.6675" lon="6.01462">
        <ele>1422.4</ele>
        <time>2023-05-15T13:48:52Z</time>
      </trkpt>
      <trkpt lat="44.6675" lon="6.01462">
        <ele>1421</ele>
        <time>2023-05-15T13:48:55Z</time>
      </trkpt>
      <trkpt lat="44.6675" lon="6.0146">
        <ele>1420.4</ele>
        <time>2023-05-15T13:49:01Z</time>
      </trkpt>
      <trkpt lat="44.6675" lon="6.01459">
        <ele>1420.4</ele>
        <time>2023-05-15T13:49:02Z</time>
      </trkpt>
      <trkpt lat="44.66749" lon="6.01457">
        <ele>1420.4</ele>
        <time>2023-05-15T13:49:06Z</time>
      </trkpt>
      <trkpt lat="44.66749" lon="6.01457">
        <ele>1420.2</ele>
        <time>2023-05-15T13:49:07Z</time>
      </trkpt>
      <trkpt lat="44.66749" lon="6.01457">
        <ele>1420</ele>
        <time>2023-05-15T13:49:10Z</time>
      </trkpt>
      <trkpt lat="44.66749" lon="6.01457">
        <ele>1419.8</ele>
        <time>2023-05-15T13:49:11Z</time>
      </trkpt>
      <trkpt lat="44.6675" lon="6.01457">
        <ele>1419.8</ele>
        <time>2023-05-15T13:49:12Z</time>
      </trkpt>
      <trkpt lat="44.66749" lon="6.01455">
        <ele>1419.8</ele>
        <time>2023-05-15T13:49:15Z</time>
      </trkpt>
      <trkpt lat="44.6675" lon="6.01454">
        <ele>1419.8</ele>
        <time>2023-05-15T13:49:22Z</time>
      </trkpt>
      <trkpt lat="44.66751" lon="6.01453">
        <ele>1419.8</ele>
        <time>2023-05-15T13:49:23Z</time>
      </trkpt>
      <trkpt lat="44.66752" lon="6.01451">
        <ele>1419.8</ele>
        <time>2023-05-15T13:49:24Z</time>
      </trkpt>
      <trkpt lat="44.66755" lon="6.01448">
        <ele>1419.6</ele>
        <time>2023-05-15T13:49:26Z</time>
      </trkpt>
      <trkpt lat="44.66756" lon="6.01447">
        <ele>1419.4</ele>
        <time>2023-05-15T13:49:27Z</time>
      </trkpt>
      <trkpt lat="44.66757" lon="6.01445">
        <ele>1419.2</ele>
        <time>2023-05-15T13:49:28Z</time>
      </trkpt>
      <trkpt lat="44.66759" lon="6.01442">
        <ele>1418.6</ele>
        <time>2023-05-15T13:49:30Z</time>
      </trkpt>
      <trkpt lat="44.66759" lon="6.01442">
        <ele>1418</ele>
        <time>2023-05-15T13:49:33Z</time>
      </trkpt>
      <trkpt lat="44.66758" lon="6.01441">
        <ele>1417.4</ele>
        <time>2023-05-15T13:49:34Z</time>
      </trkpt>
      <trkpt lat="44.66762" lon="6.01434">
        <ele>1417</ele>
        <time>2023-05-15T13:49:38Z</time>
      </trkpt>
      <trkpt lat="44.66764" lon="6.01433">
        <ele>1416.6</ele>
        <time>2023-05-15T13:49:39Z</time>
      </trkpt>
      <trkpt lat="44.66765" lon="6.01431">
        <ele>1416.4</ele>
        <time>2023-05-15T13:49:40Z</time>
      </trkpt>
      <trkpt lat="44.66766" lon="6.01429">
        <ele>1416.2</ele>
        <time>2023-05-15T13:49:41Z</time>
      </trkpt>
      <trkpt lat="44.66767" lon="6.01428">
        <ele>1416</ele>
        <time>2023-05-15T13:49:42Z</time>
      </trkpt>
      <trkpt lat="44.66767" lon="6.01426">
        <ele>1415.6</ele>
        <time>2023-05-15T13:49:43Z</time>
      </trkpt>
      <trkpt lat="44.66767" lon="6.01423">
        <ele>1415.2</ele>
        <time>2023-05-15T13:49:44Z</time>
      </trkpt>
      <trkpt lat="44.66766" lon="6.0142">
        <ele>1415</ele>
        <time>2023-05-15T13:49:45Z</time>
      </trkpt>
      <trkpt lat="44.66766" lon="6.01418">
        <ele>1414.8</ele>
        <time>2023-05-15T13:49:46Z</time>
      </trkpt>
      <trkpt lat="44.66765" lon="6.01417">
        <ele>1414.6</ele>
        <time>2023-05-15T13:49:47Z</time>
      </trkpt>
      <trkpt lat="44.66765" lon="6.01417">
        <ele>1414.4</ele>
        <time>2023-05-15T13:49:48Z</time>
      </trkpt>
      <trkpt lat="44.66765" lon="6.01416">
        <ele>1414.4</ele>
        <time>2023-05-15T13:49:49Z</time>
      </trkpt>
      <trkpt lat="44.66764" lon="6.01415">
        <ele>1414.2</ele>
        <time>2023-05-15T13:49:50Z</time>
      </trkpt>
      <trkpt lat="44.66762" lon="6.01413">
        <ele>1414</ele>
        <time>2023-05-15T13:49:51Z</time>
      </trkpt>
      <trkpt lat="44.66762" lon="6.01411">
        <ele>1413.8</ele>
        <time>2023-05-15T13:49:53Z</time>
      </trkpt>
      <trkpt lat="44.66762" lon="6.0141">
        <ele>1413.6</ele>
        <time>2023-05-15T13:49:54Z</time>
      </trkpt>
      <trkpt lat="44.66763" lon="6.01408">
        <ele>1413.6</ele>
        <time>2023-05-15T13:49:55Z</time>
      </trkpt>
      <trkpt lat="44.66764" lon="6.01406">
        <ele>1413.4</ele>
        <time>2023-05-15T13:49:56Z</time>
      </trkpt>
      <trkpt lat="44.66764" lon="6.01405">
        <ele>1413.2</ele>
        <time>2023-05-15T13:49:57Z</time>
      </trkpt>
      <trkpt lat="44.66765" lon="6.01404">
        <ele>1413</ele>
        <time>2023-05-15T13:49:58Z</time>
      </trkpt>
      <trkpt lat="44.66771" lon="6.01392">
        <ele>1412.6</ele>
        <time>2023-05-15T13:50:01Z</time>
      </trkpt>
      <trkpt lat="44.66775" lon="6.01389">
        <ele>1412.2</ele>
        <time>2023-05-15T13:50:02Z</time>
      </trkpt>
      <trkpt lat="44.66777" lon="6.01387">
        <ele>1412</ele>
        <time>2023-05-15T13:50:03Z</time>
      </trkpt>
      <trkpt lat="44.66779" lon="6.01384">
        <ele>1411.6</ele>
        <time>2023-05-15T13:50:04Z</time>
      </trkpt>
      <trkpt lat="44.6678" lon="6.0138">
        <ele>1411.6</ele>
        <time>2023-05-15T13:50:05Z</time>
      </trkpt>
      <trkpt lat="44.66782" lon="6.01375">
        <ele>1411.2</ele>
        <time>2023-05-15T13:50:06Z</time>
      </trkpt>
      <trkpt lat="44.66783" lon="6.01369">
        <ele>1410.8</ele>
        <time>2023-05-15T13:50:07Z</time>
      </trkpt>
      <trkpt lat="44.66783" lon="6.01362">
        <ele>1410.2</ele>
        <time>2023-05-15T13:50:08Z</time>
      </trkpt>
      <trkpt lat="44.66785" lon="6.01356">
        <ele>1409.6</ele>
        <time>2023-05-15T13:50:09Z</time>
      </trkpt>
      <trkpt lat="44.6679" lon="6.01348">
        <ele>1408</ele>
        <time>2023-05-15T13:50:11Z</time>
      </trkpt>
      <trkpt lat="44.66793" lon="6.01345">
        <ele>1407.6</ele>
        <time>2023-05-15T13:50:12Z</time>
      </trkpt>
      <trkpt lat="44.66797" lon="6.01343">
        <ele>1406.8</ele>
        <time>2023-05-15T13:50:13Z</time>
      </trkpt>
      <trkpt lat="44.66799" lon="6.0134">
        <ele>1406.4</ele>
        <time>2023-05-15T13:50:14Z</time>
      </trkpt>
      <trkpt lat="44.66802" lon="6.01337">
        <ele>1405.8</ele>
        <time>2023-05-15T13:50:15Z</time>
      </trkpt>
      <trkpt lat="44.66806" lon="6.01334">
        <ele>1405.2</ele>
        <time>2023-05-15T13:50:16Z</time>
      </trkpt>
      <trkpt lat="44.66807" lon="6.01332">
        <ele>1405</ele>
        <time>2023-05-15T13:50:17Z</time>
      </trkpt>
      <trkpt lat="44.66809" lon="6.01329">
        <ele>1403.4</ele>
        <time>2023-05-15T13:50:18Z</time>
      </trkpt>
      <trkpt lat="44.6681" lon="6.01327">
        <ele>1402.6</ele>
        <time>2023-05-15T13:50:19Z</time>
      </trkpt>
      <trkpt lat="44.6681" lon="6.01324">
        <ele>1402.2</ele>
        <time>2023-05-15T13:50:20Z</time>
      </trkpt>
      <trkpt lat="44.66809" lon="6.01321">
        <ele>1401.4</ele>
        <time>2023-05-15T13:50:21Z</time>
      </trkpt>
      <trkpt lat="44.66809" lon="6.0132">
        <ele>1400.4</ele>
        <time>2023-05-15T13:50:22Z</time>
      </trkpt>
      <trkpt lat="44.66809" lon="6.01319">
        <ele>1399.6</ele>
        <time>2023-05-15T13:50:23Z</time>
      </trkpt>
      <trkpt lat="44.66808" lon="6.01317">
        <ele>1398.6</ele>
        <time>2023-05-15T13:50:24Z</time>
      </trkpt>
      <trkpt lat="44.66808" lon="6.01314">
        <ele>1397.4</ele>
        <time>2023-05-15T13:50:25Z</time>
      </trkpt>
      <trkpt lat="44.66809" lon="6.01312">
        <ele>1397.2</ele>
        <time>2023-05-15T13:50:26Z</time>
      </trkpt>
      <trkpt lat="44.66811" lon="6.01308">
        <ele>1396.6</ele>
        <time>2023-05-15T13:50:27Z</time>
      </trkpt>
      <trkpt lat="44.66813" lon="6.01305">
        <ele>1396.6</ele>
        <time>2023-05-15T13:50:28Z</time>
      </trkpt>
      <trkpt lat="44.66815" lon="6.01301">
        <ele>1396.4</ele>
        <time>2023-05-15T13:50:29Z</time>
      </trkpt>
      <trkpt lat="44.66818" lon="6.0129">
        <ele>1396</ele>
        <time>2023-05-15T13:50:32Z</time>
      </trkpt>
      <trkpt lat="44.66817" lon="6.01286">
        <ele>1396</ele>
        <time>2023-05-15T13:50:33Z</time>
      </trkpt>
      <trkpt lat="44.66815" lon="6.01283">
        <ele>1396</ele>
        <time>2023-05-15T13:50:34Z</time>
      </trkpt>
      <trkpt lat="44.66814" lon="6.0128">
        <ele>1395.8</ele>
        <time>2023-05-15T13:50:35Z</time>
      </trkpt>
      <trkpt lat="44.66813" lon="6.01277">
        <ele>1395.8</ele>
        <time>2023-05-15T13:50:36Z</time>
      </trkpt>
      <trkpt lat="44.66813" lon="6.01272">
        <ele>1395.6</ele>
        <time>2023-05-15T13:50:37Z</time>
      </trkpt>
      <trkpt lat="44.66815" lon="6.01264">
        <ele>1395.2</ele>
        <time>2023-05-15T13:50:39Z</time>
      </trkpt>
      <trkpt lat="44.66815" lon="6.0126">
        <ele>1394.6</ele>
        <time>2023-05-15T13:50:40Z</time>
      </trkpt>
      <trkpt lat="44.66815" lon="6.01256">
        <ele>1394.2</ele>
        <time>2023-05-15T13:50:41Z</time>
      </trkpt>
      <trkpt lat="44.66817" lon="6.01251">
        <ele>1394.2</ele>
        <time>2023-05-15T13:50:42Z</time>
      </trkpt>
      <trkpt lat="44.66822" lon="6.01244">
        <ele>1393.8</ele>
        <time>2023-05-15T13:50:44Z</time>
      </trkpt>
      <trkpt lat="44.66825" lon="6.0124">
        <ele>1393.8</ele>
        <time>2023-05-15T13:50:45Z</time>
      </trkpt>
      <trkpt lat="44.66829" lon="6.01237">
        <ele>1393.6</ele>
        <time>2023-05-15T13:50:46Z</time>
      </trkpt>
      <trkpt lat="44.6683" lon="6.01235">
        <ele>1393.6</ele>
        <time>2023-05-15T13:50:47Z</time>
      </trkpt>
      <trkpt lat="44.6683" lon="6.01234">
        <ele>1393.4</ele>
        <time>2023-05-15T13:50:48Z</time>
      </trkpt>
      <trkpt lat="44.6683" lon="6.01234">
        <ele>1393.4</ele>
        <time>2023-05-15T13:50:49Z</time>
      </trkpt>
      <trkpt lat="44.66831" lon="6.01234">
        <ele>1393.4</ele>
        <time>2023-05-15T13:50:50Z</time>
      </trkpt>
      <trkpt lat="44.66833" lon="6.01232">
        <ele>1393.4</ele>
        <time>2023-05-15T13:50:51Z</time>
      </trkpt>
      <trkpt lat="44.6684" lon="6.01231">
        <ele>1393.2</ele>
        <time>2023-05-15T13:50:53Z</time>
      </trkpt>
      <trkpt lat="44.6685" lon="6.01231">
        <ele>1393</ele>
        <time>2023-05-15T13:50:55Z</time>
      </trkpt>
      <trkpt lat="44.66855" lon="6.01232">
        <ele>1392.8</ele>
        <time>2023-05-15T13:50:56Z</time>
      </trkpt>
      <trkpt lat="44.66863" lon="6.01236">
        <ele>1392</ele>
        <time>2023-05-15T13:50:58Z</time>
      </trkpt>
      <trkpt lat="44.66866" lon="6.01239">
        <ele>1391.4</ele>
        <time>2023-05-15T13:50:59Z</time>
      </trkpt>
      <trkpt lat="44.6687" lon="6.01241">
        <ele>1391.2</ele>
        <time>2023-05-15T13:51:00Z</time>
      </trkpt>
      <trkpt lat="44.66874" lon="6.01243">
        <ele>1391</ele>
        <time>2023-05-15T13:51:01Z</time>
      </trkpt>
      <trkpt lat="44.66885" lon="6.01245">
        <ele>1390</ele>
        <time>2023-05-15T13:51:03Z</time>
      </trkpt>
      <trkpt lat="44.6689" lon="6.01247">
        <ele>1389.6</ele>
        <time>2023-05-15T13:51:04Z</time>
      </trkpt>
      <trkpt lat="44.66894" lon="6.01249">
        <ele>1388.4</ele>
        <time>2023-05-15T13:51:05Z</time>
      </trkpt>
      <trkpt lat="44.66899" lon="6.01249">
        <ele>1387</ele>
        <time>2023-05-15T13:51:06Z</time>
      </trkpt>
      <trkpt lat="44.66907" lon="6.01248">
        <ele>1386.4</ele>
        <time>2023-05-15T13:51:07Z</time>
      </trkpt>
      <trkpt lat="44.66913" lon="6.01247">
        <ele>1385.4</ele>
        <time>2023-05-15T13:51:08Z</time>
      </trkpt>
      <trkpt lat="44.66919" lon="6.01245">
        <ele>1384.6</ele>
        <time>2023-05-15T13:51:09Z</time>
      </trkpt>
      <trkpt lat="44.66923" lon="6.01244">
        <ele>1383.4</ele>
        <time>2023-05-15T13:51:10Z</time>
      </trkpt>
      <trkpt lat="44.66924" lon="6.01244">
        <ele>1383</ele>
        <time>2023-05-15T13:51:11Z</time>
      </trkpt>
      <trkpt lat="44.66925" lon="6.01243">
        <ele>1382.4</ele>
        <time>2023-05-15T13:51:12Z</time>
      </trkpt>
      <trkpt lat="44.66926" lon="6.01241">
        <ele>1381.4</ele>
        <time>2023-05-15T13:51:13Z</time>
      </trkpt>
      <trkpt lat="44.66927" lon="6.01238">
        <ele>1381</ele>
        <time>2023-05-15T13:51:14Z</time>
      </trkpt>
      <trkpt lat="44.66926" lon="6.01235">
        <ele>1379.4</ele>
        <time>2023-05-15T13:51:15Z</time>
      </trkpt>
      <trkpt lat="44.66919" lon="6.01229">
        <ele>1377.6</ele>
        <time>2023-05-15T13:51:17Z</time>
      </trkpt>
      <trkpt lat="44.66913" lon="6.01223">
        <ele>1376.2</ele>
        <time>2023-05-15T13:51:19Z</time>
      </trkpt>
      <trkpt lat="44.6691" lon="6.0122">
        <ele>1375.8</ele>
        <time>2023-05-15T13:51:20Z</time>
      </trkpt>
      <trkpt lat="44.66907" lon="6.01218">
        <ele>1375.4</ele>
        <time>2023-05-15T13:51:21Z</time>
      </trkpt>
      <trkpt lat="44.66903" lon="6.01216">
        <ele>1374.8</ele>
        <time>2023-05-15T13:51:22Z</time>
      </trkpt>
      <trkpt lat="44.66899" lon="6.01213">
        <ele>1374.4</ele>
        <time>2023-05-15T13:51:23Z</time>
      </trkpt>
      <trkpt lat="44.66894" lon="6.01208">
        <ele>1373.6</ele>
        <time>2023-05-15T13:51:25Z</time>
      </trkpt>
      <trkpt lat="44.66893" lon="6.01207">
        <ele>1372.4</ele>
        <time>2023-05-15T13:51:26Z</time>
      </trkpt>
      <trkpt lat="44.66891" lon="6.01205">
        <ele>1371.8</ele>
        <time>2023-05-15T13:51:27Z</time>
      </trkpt>
      <trkpt lat="44.66891" lon="6.01204">
        <ele>1371</ele>
        <time>2023-05-15T13:51:28Z</time>
      </trkpt>
      <trkpt lat="44.66891" lon="6.01203">
        <ele>1370.6</ele>
        <time>2023-05-15T13:51:29Z</time>
      </trkpt>
      <trkpt lat="44.66891" lon="6.01202">
        <ele>1370.2</ele>
        <time>2023-05-15T13:51:30Z</time>
      </trkpt>
      <trkpt lat="44.66892" lon="6.01202">
        <ele>1370</ele>
        <time>2023-05-15T13:51:31Z</time>
      </trkpt>
      <trkpt lat="44.66892" lon="6.012">
        <ele>1369.8</ele>
        <time>2023-05-15T13:51:32Z</time>
      </trkpt>
      <trkpt lat="44.66892" lon="6.01194">
        <ele>1369.8</ele>
        <time>2023-05-15T13:51:35Z</time>
      </trkpt>
      <trkpt lat="44.66892" lon="6.0119">
        <ele>1369.8</ele>
        <time>2023-05-15T13:51:36Z</time>
      </trkpt>
      <trkpt lat="44.66893" lon="6.01188">
        <ele>1369.8</ele>
        <time>2023-05-15T13:51:37Z</time>
      </trkpt>
      <trkpt lat="44.66893" lon="6.01186">
        <ele>1370</ele>
        <time>2023-05-15T13:51:38Z</time>
      </trkpt>
      <trkpt lat="44.66893" lon="6.01183">
        <ele>1370</ele>
        <time>2023-05-15T13:51:39Z</time>
      </trkpt>
      <trkpt lat="44.66892" lon="6.01177">
        <ele>1370.2</ele>
        <time>2023-05-15T13:51:41Z</time>
      </trkpt>
      <trkpt lat="44.66891" lon="6.01174">
        <ele>1370.4</ele>
        <time>2023-05-15T13:51:42Z</time>
      </trkpt>
      <trkpt lat="44.66892" lon="6.01171">
        <ele>1370.4</ele>
        <time>2023-05-15T13:51:43Z</time>
      </trkpt>
      <trkpt lat="44.66892" lon="6.01167">
        <ele>1370.4</ele>
        <time>2023-05-15T13:51:44Z</time>
      </trkpt>
      <trkpt lat="44.66892" lon="6.01167">
        <ele>1370.4</ele>
        <time>2023-05-15T13:51:45Z</time>
      </trkpt>
      <trkpt lat="44.66892" lon="6.01167">
        <ele>1370.4</ele>
        <time>2023-05-15T13:51:46Z</time>
      </trkpt>
      <trkpt lat="44.66893" lon="6.01165">
        <ele>1369.8</ele>
        <time>2023-05-15T13:51:49Z</time>
      </trkpt>
      <trkpt lat="44.66894" lon="6.01164">
        <ele>1369.6</ele>
        <time>2023-05-15T13:51:50Z</time>
      </trkpt>
      <trkpt lat="44.66894" lon="6.01164">
        <ele>1369.6</ele>
        <time>2023-05-15T13:51:51Z</time>
      </trkpt>
      <trkpt lat="44.66894" lon="6.01164">
        <ele>1369.4</ele>
        <time>2023-05-15T13:51:52Z</time>
      </trkpt>
      <trkpt lat="44.66894" lon="6.01164">
        <ele>1369.2</ele>
        <time>2023-05-15T13:51:53Z</time>
      </trkpt>
      <trkpt lat="44.66894" lon="6.01164">
        <ele>1369</ele>
        <time>2023-05-15T13:51:55Z</time>
      </trkpt>
      <trkpt lat="44.66894" lon="6.01164">
        <ele>1368.6</ele>
        <time>2023-05-15T13:51:56Z</time>
      </trkpt>
      <trkpt lat="44.66894" lon="6.01165">
        <ele>1368.6</ele>
        <time>2023-05-15T13:51:57Z</time>
      </trkpt>
      <trkpt lat="44.66894" lon="6.01165">
        <ele>1368.2</ele>
        <time>2023-05-15T13:52:00Z</time>
      </trkpt>
      <trkpt lat="44.66894" lon="6.01165">
        <ele>1368</ele>
        <time>2023-05-15T13:52:03Z</time>
      </trkpt>
      <trkpt lat="44.66894" lon="6.01165">
        <ele>1368</ele>
        <time>2023-05-15T13:52:04Z</time>
      </trkpt>
      <trkpt lat="44.66894" lon="6.01166">
        <ele>1368</ele>
        <time>2023-05-15T13:52:05Z</time>
      </trkpt>
      <trkpt lat="44.66894" lon="6.01167">
        <ele>1368.2</ele>
        <time>2023-05-15T13:52:07Z</time>
      </trkpt>
      <trkpt lat="44.66894" lon="6.01167">
        <ele>1368.2</ele>
        <time>2023-05-15T13:52:10Z</time>
      </trkpt>
      <trkpt lat="44.66894" lon="6.01167">
        <ele>1368.2</ele>
        <time>2023-05-15T13:52:11Z</time>
      </trkpt>
      <trkpt lat="44.66894" lon="6.01167">
        <ele>1368.4</ele>
        <time>2023-05-15T13:52:12Z</time>
      </trkpt>
      <trkpt lat="44.66894" lon="6.01167">
        <ele>1368.4</ele>
        <time>2023-05-15T13:52:13Z</time>
      </trkpt>
      <trkpt lat="44.66894" lon="6.01167">
        <ele>1368.4</ele>
        <time>2023-05-15T13:52:14Z</time>
      </trkpt>
      <trkpt lat="44.66894" lon="6.01167">
        <ele>1368.4</ele>
        <time>2023-05-15T13:52:15Z</time>
      </trkpt>
      <trkpt lat="44.66894" lon="6.01167">
        <ele>1368.6</ele>
        <time>2023-05-15T13:52:16Z</time>
      </trkpt>
      <trkpt lat="44.66894" lon="6.01167">
        <ele>1368.8</ele>
        <time>2023-05-15T13:52:17Z</time>
      </trkpt>
      <trkpt lat="44.66894" lon="6.01166">
        <ele>1368.8</ele>
        <time>2023-05-15T13:52:18Z</time>
      </trkpt>
      <trkpt lat="44.66895" lon="6.01165">
        <ele>1369</ele>
        <time>2023-05-15T13:52:19Z</time>
      </trkpt>
      <trkpt lat="44.66895" lon="6.01164">
        <ele>1369</ele>
        <time>2023-05-15T13:52:20Z</time>
      </trkpt>
      <trkpt lat="44.66894" lon="6.01162">
        <ele>1369.2</ele>
        <time>2023-05-15T13:52:22Z</time>
      </trkpt>
      <trkpt lat="44.66894" lon="6.01162">
        <ele>1369.4</ele>
        <time>2023-05-15T13:52:23Z</time>
      </trkpt>
      <trkpt lat="44.66894" lon="6.01162">
        <ele>1369.4</ele>
        <time>2023-05-15T13:52:25Z</time>
      </trkpt>
      <trkpt lat="44.66894" lon="6.01162">
        <ele>1369.4</ele>
        <time>2023-05-15T13:52:26Z</time>
      </trkpt>
      <trkpt lat="44.66895" lon="6.01161">
        <ele>1369.4</ele>
        <time>2023-05-15T13:52:29Z</time>
      </trkpt>
      <trkpt lat="44.66895" lon="6.01161">
        <ele>1369.4</ele>
        <time>2023-05-15T13:52:30Z</time>
      </trkpt>
      <trkpt lat="44.66896" lon="6.01161">
        <ele>1369.4</ele>
        <time>2023-05-15T13:52:31Z</time>
      </trkpt>
      <trkpt lat="44.66898" lon="6.01161">
        <ele>1369.6</ele>
        <time>2023-05-15T13:52:32Z</time>
      </trkpt>
      <trkpt lat="44.669" lon="6.01161">
        <ele>1369.6</ele>
        <time>2023-05-15T13:52:33Z</time>
      </trkpt>
      <trkpt lat="44.66905" lon="6.01159">
        <ele>1369.6</ele>
        <time>2023-05-15T13:52:35Z</time>
      </trkpt>
      <trkpt lat="44.66908" lon="6.01156">
        <ele>1369.8</ele>
        <time>2023-05-15T13:52:36Z</time>
      </trkpt>
      <trkpt lat="44.66912" lon="6.01154">
        <ele>1370</ele>
        <time>2023-05-15T13:52:37Z</time>
      </trkpt>
      <trkpt lat="44.66921" lon="6.01147">
        <ele>1370.2</ele>
        <time>2023-05-15T13:52:40Z</time>
      </trkpt>
      <trkpt lat="44.66924" lon="6.01146">
        <ele>1370.2</ele>
        <time>2023-05-15T13:52:41Z</time>
      </trkpt>
      <trkpt lat="44.66926" lon="6.01145">
        <ele>1370.2</ele>
        <time>2023-05-15T13:52:42Z</time>
      </trkpt>
      <trkpt lat="44.6693" lon="6.01143">
        <ele>1370.2</ele>
        <time>2023-05-15T13:52:43Z</time>
      </trkpt>
      <trkpt lat="44.6694" lon="6.01138">
        <ele>1370.2</ele>
        <time>2023-05-15T13:52:46Z</time>
      </trkpt>
      <trkpt lat="44.66943" lon="6.01135">
        <ele>1370.2</ele>
        <time>2023-05-15T13:52:47Z</time>
      </trkpt>
      <trkpt lat="44.66951" lon="6.01121">
        <ele>1370.2</ele>
        <time>2023-05-15T13:52:50Z</time>
      </trkpt>
      <trkpt lat="44.66952" lon="6.01115">
        <ele>1370</ele>
        <time>2023-05-15T13:52:51Z</time>
      </trkpt>
      <trkpt lat="44.66953" lon="6.01111">
        <ele>1370</ele>
        <time>2023-05-15T13:52:52Z</time>
      </trkpt>
      <trkpt lat="44.66959" lon="6.01098">
        <ele>1370</ele>
        <time>2023-05-15T13:52:55Z</time>
      </trkpt>
      <trkpt lat="44.66964" lon="6.01076">
        <ele>1369.4</ele>
        <time>2023-05-15T13:52:58Z</time>
      </trkpt>
      <trkpt lat="44.66963" lon="6.0107">
        <ele>1369.4</ele>
        <time>2023-05-15T13:52:59Z</time>
      </trkpt>
      <trkpt lat="44.66964" lon="6.01066">
        <ele>1369</ele>
        <time>2023-05-15T13:53:00Z</time>
      </trkpt>
      <trkpt lat="44.66966" lon="6.01062">
        <ele>1368.8</ele>
        <time>2023-05-15T13:53:01Z</time>
      </trkpt>
      <trkpt lat="44.66967" lon="6.01057">
        <ele>1368.6</ele>
        <time>2023-05-15T13:53:02Z</time>
      </trkpt>
      <trkpt lat="44.66968" lon="6.01054">
        <ele>1368.6</ele>
        <time>2023-05-15T13:53:03Z</time>
      </trkpt>
      <trkpt lat="44.66969" lon="6.01053">
        <ele>1368.6</ele>
        <time>2023-05-15T13:53:04Z</time>
      </trkpt>
      <trkpt lat="44.6697" lon="6.01051">
        <ele>1368.6</ele>
        <time>2023-05-15T13:53:05Z</time>
      </trkpt>
      <trkpt lat="44.66971" lon="6.0105">
        <ele>1368.4</ele>
        <time>2023-05-15T13:53:06Z</time>
      </trkpt>
      <trkpt lat="44.66971" lon="6.01049">
        <ele>1368.4</ele>
        <time>2023-05-15T13:53:07Z</time>
      </trkpt>
      <trkpt lat="44.66971" lon="6.01049">
        <ele>1368.4</ele>
        <time>2023-05-15T13:53:08Z</time>
      </trkpt>
      <trkpt lat="44.66974" lon="6.01046">
        <ele>1368.4</ele>
        <time>2023-05-15T13:53:10Z</time>
      </trkpt>
      <trkpt lat="44.66977" lon="6.01044">
        <ele>1368.4</ele>
        <time>2023-05-15T13:53:11Z</time>
      </trkpt>
      <trkpt lat="44.66979" lon="6.01041">
        <ele>1368.4</ele>
        <time>2023-05-15T13:53:12Z</time>
      </trkpt>
      <trkpt lat="44.6699" lon="6.01035">
        <ele>1368.6</ele>
        <time>2023-05-15T13:53:16Z</time>
      </trkpt>
      <trkpt lat="44.66999" lon="6.01035">
        <ele>1367.8</ele>
        <time>2023-05-15T13:53:21Z</time>
      </trkpt>
      <trkpt lat="44.67002" lon="6.01037">
        <ele>1367.6</ele>
        <time>2023-05-15T13:53:22Z</time>
      </trkpt>
      <trkpt lat="44.67006" lon="6.01039">
        <ele>1366.8</ele>
        <time>2023-05-15T13:53:23Z</time>
      </trkpt>
      <trkpt lat="44.67011" lon="6.0104">
        <ele>1366.4</ele>
        <time>2023-05-15T13:53:24Z</time>
      </trkpt>
      <trkpt lat="44.67014" lon="6.01041">
        <ele>1365.6</ele>
        <time>2023-05-15T13:53:25Z</time>
      </trkpt>
      <trkpt lat="44.67015" lon="6.01041">
        <ele>1365.2</ele>
        <time>2023-05-15T13:53:26Z</time>
      </trkpt>
      <trkpt lat="44.67016" lon="6.01041">
        <ele>1365</ele>
        <time>2023-05-15T13:53:27Z</time>
      </trkpt>
      <trkpt lat="44.67018" lon="6.01041">
        <ele>1364.8</ele>
        <time>2023-05-15T13:53:28Z</time>
      </trkpt>
      <trkpt lat="44.67026" lon="6.01042">
        <ele>1364.8</ele>
        <time>2023-05-15T13:53:31Z</time>
      </trkpt>
      <trkpt lat="44.67031" lon="6.01042">
        <ele>1364.8</ele>
        <time>2023-05-15T13:53:33Z</time>
      </trkpt>
      <trkpt lat="44.67033" lon="6.01042">
        <ele>1364.8</ele>
        <time>2023-05-15T13:53:34Z</time>
      </trkpt>
      <trkpt lat="44.67034" lon="6.01042">
        <ele>1365</ele>
        <time>2023-05-15T13:53:35Z</time>
      </trkpt>
      <trkpt lat="44.67035" lon="6.01042">
        <ele>1365.2</ele>
        <time>2023-05-15T13:53:36Z</time>
      </trkpt>
      <trkpt lat="44.67039" lon="6.01041">
        <ele>1365.4</ele>
        <time>2023-05-15T13:53:38Z</time>
      </trkpt>
      <trkpt lat="44.67043" lon="6.01041">
        <ele>1365.4</ele>
        <time>2023-05-15T13:53:40Z</time>
      </trkpt>
      <trkpt lat="44.67043" lon="6.01041">
        <ele>1365.4</ele>
        <time>2023-05-15T13:53:41Z</time>
      </trkpt>
      <trkpt lat="44.67044" lon="6.01041">
        <ele>1365.4</ele>
        <time>2023-05-15T13:53:42Z</time>
      </trkpt>
      <trkpt lat="44.67045" lon="6.01041">
        <ele>1365</ele>
        <time>2023-05-15T13:53:43Z</time>
      </trkpt>
      <trkpt lat="44.67045" lon="6.01041">
        <ele>1365</ele>
        <time>2023-05-15T13:53:44Z</time>
      </trkpt>
      <trkpt lat="44.67045" lon="6.01041">
        <ele>1364.4</ele>
        <time>2023-05-15T13:53:46Z</time>
      </trkpt>
      <trkpt lat="44.67045" lon="6.01041">
        <ele>1363.8</ele>
        <time>2023-05-15T13:53:48Z</time>
      </trkpt>
      <trkpt lat="44.67047" lon="6.01039">
        <ele>1363.4</ele>
        <time>2023-05-15T13:53:58Z</time>
      </trkpt>
      <trkpt lat="44.67053" lon="6.01036">
        <ele>1363.4</ele>
        <time>2023-05-15T13:54:01Z</time>
      </trkpt>
      <trkpt lat="44.67065" lon="6.01024">
        <ele>1362.6</ele>
        <time>2023-05-15T13:54:06Z</time>
      </trkpt>
      <trkpt lat="44.67068" lon="6.0102">
        <ele>1362.4</ele>
        <time>2023-05-15T13:54:07Z</time>
      </trkpt>
      <trkpt lat="44.67072" lon="6.01016">
        <ele>1361.2</ele>
        <time>2023-05-15T13:54:09Z</time>
      </trkpt>
      <trkpt lat="44.67075" lon="6.01015">
        <ele>1360.4</ele>
        <time>2023-05-15T13:54:10Z</time>
      </trkpt>
      <trkpt lat="44.67078" lon="6.01015">
        <ele>1359</ele>
        <time>2023-05-15T13:54:11Z</time>
      </trkpt>
      <trkpt lat="44.6708" lon="6.01014">
        <ele>1358</ele>
        <time>2023-05-15T13:54:12Z</time>
      </trkpt>
      <trkpt lat="44.67084" lon="6.01014">
        <ele>1356.8</ele>
        <time>2023-05-15T13:54:13Z</time>
      </trkpt>
      <trkpt lat="44.67089" lon="6.01014">
        <ele>1356.4</ele>
        <time>2023-05-15T13:54:14Z</time>
      </trkpt>
      <trkpt lat="44.67092" lon="6.01014">
        <ele>1354.8</ele>
        <time>2023-05-15T13:54:15Z</time>
      </trkpt>
      <trkpt lat="44.67097" lon="6.01014">
        <ele>1354.4</ele>
        <time>2023-05-15T13:54:16Z</time>
      </trkpt>
      <trkpt lat="44.671" lon="6.01015">
        <ele>1353.6</ele>
        <time>2023-05-15T13:54:17Z</time>
      </trkpt>
      <trkpt lat="44.67109" lon="6.01015">
        <ele>1351.8</ele>
        <time>2023-05-15T13:54:19Z</time>
      </trkpt>
      <trkpt lat="44.67115" lon="6.01015">
        <ele>1349.4</ele>
        <time>2023-05-15T13:54:20Z</time>
      </trkpt>
      <trkpt lat="44.67126" lon="6.01015">
        <ele>1347.4</ele>
        <time>2023-05-15T13:54:22Z</time>
      </trkpt>
      <trkpt lat="44.67135" lon="6.01013">
        <ele>1346.6</ele>
        <time>2023-05-15T13:54:23Z</time>
      </trkpt>
      <trkpt lat="44.67142" lon="6.0101">
        <ele>1345.8</ele>
        <time>2023-05-15T13:54:24Z</time>
      </trkpt>
      <trkpt lat="44.67147" lon="6.01009">
        <ele>1344.8</ele>
        <time>2023-05-15T13:54:25Z</time>
      </trkpt>
      <trkpt lat="44.67152" lon="6.01008">
        <ele>1341.8</ele>
        <time>2023-05-15T13:54:26Z</time>
      </trkpt>
      <trkpt lat="44.67159" lon="6.0101">
        <ele>1339.8</ele>
        <time>2023-05-15T13:54:27Z</time>
      </trkpt>
      <trkpt lat="44.67164" lon="6.01011">
        <ele>1339.2</ele>
        <time>2023-05-15T13:54:28Z</time>
      </trkpt>
      <trkpt lat="44.67165" lon="6.01012">
        <ele>1337.6</ele>
        <time>2023-05-15T13:54:29Z</time>
      </trkpt>
      <trkpt lat="44.67165" lon="6.01012">
        <ele>1336.6</ele>
        <time>2023-05-15T13:54:30Z</time>
      </trkpt>
      <trkpt lat="44.67166" lon="6.01011">
        <ele>1335</ele>
        <time>2023-05-15T13:54:31Z</time>
      </trkpt>
      <trkpt lat="44.67167" lon="6.01011">
        <ele>1333.8</ele>
        <time>2023-05-15T13:54:32Z</time>
      </trkpt>
      <trkpt lat="44.67168" lon="6.01009">
        <ele>1332</ele>
        <time>2023-05-15T13:54:33Z</time>
      </trkpt>
      <trkpt lat="44.67172" lon="6.01008">
        <ele>1330.8</ele>
        <time>2023-05-15T13:54:34Z</time>
      </trkpt>
      <trkpt lat="44.67181" lon="6.01003">
        <ele>1329.4</ele>
        <time>2023-05-15T13:54:36Z</time>
      </trkpt>
      <trkpt lat="44.67187" lon="6.00998">
        <ele>1327.8</ele>
        <time>2023-05-15T13:54:38Z</time>
      </trkpt>
      <trkpt lat="44.67197" lon="6.00992">
        <ele>1326.2</ele>
        <time>2023-05-15T13:54:40Z</time>
      </trkpt>
      <trkpt lat="44.672" lon="6.0099">
        <ele>1326</ele>
        <time>2023-05-15T13:54:41Z</time>
      </trkpt>
      <trkpt lat="44.67203" lon="6.00987">
        <ele>1324.8</ele>
        <time>2023-05-15T13:54:42Z</time>
      </trkpt>
      <trkpt lat="44.67206" lon="6.00984">
        <ele>1323.8</ele>
        <time>2023-05-15T13:54:43Z</time>
      </trkpt>
      <trkpt lat="44.67209" lon="6.0098">
        <ele>1323</ele>
        <time>2023-05-15T13:54:44Z</time>
      </trkpt>
      <trkpt lat="44.67213" lon="6.00976">
        <ele>1321.4</ele>
        <time>2023-05-15T13:54:45Z</time>
      </trkpt>
      <trkpt lat="44.67224" lon="6.00965">
        <ele>1319.6</ele>
        <time>2023-05-15T13:54:47Z</time>
      </trkpt>
      <trkpt lat="44.67229" lon="6.0096">
        <ele>1318.4</ele>
        <time>2023-05-15T13:54:48Z</time>
      </trkpt>
      <trkpt lat="44.67233" lon="6.00955">
        <ele>1316.8</ele>
        <time>2023-05-15T13:54:49Z</time>
      </trkpt>
      <trkpt lat="44.67235" lon="6.00951">
        <ele>1315.4</ele>
        <time>2023-05-15T13:54:50Z</time>
      </trkpt>
      <trkpt lat="44.67236" lon="6.00946">
        <ele>1314.6</ele>
        <time>2023-05-15T13:54:51Z</time>
      </trkpt>
      <trkpt lat="44.67237" lon="6.00942">
        <ele>1313</ele>
        <time>2023-05-15T13:54:52Z</time>
      </trkpt>
      <trkpt lat="44.67237" lon="6.00939">
        <ele>1312</ele>
        <time>2023-05-15T13:54:53Z</time>
      </trkpt>
      <trkpt lat="44.67238" lon="6.00936">
        <ele>1310.4</ele>
        <time>2023-05-15T13:54:54Z</time>
      </trkpt>
      <trkpt lat="44.67239" lon="6.00932">
        <ele>1309.6</ele>
        <time>2023-05-15T13:54:55Z</time>
      </trkpt>
      <trkpt lat="44.67241" lon="6.00929">
        <ele>1309</ele>
        <time>2023-05-15T13:54:56Z</time>
      </trkpt>
      <trkpt lat="44.67245" lon="6.00919">
        <ele>1308</ele>
        <time>2023-05-15T13:54:59Z</time>
      </trkpt>
      <trkpt lat="44.67246" lon="6.00917">
        <ele>1308</ele>
        <time>2023-05-15T13:55:00Z</time>
      </trkpt>
      <trkpt lat="44.67248" lon="6.00913">
        <ele>1308</ele>
        <time>2023-05-15T13:55:01Z</time>
      </trkpt>
      <trkpt lat="44.67249" lon="6.00911">
        <ele>1308</ele>
        <time>2023-05-15T13:55:02Z</time>
      </trkpt>
      <trkpt lat="44.6725" lon="6.00908">
        <ele>1307.8</ele>
        <time>2023-05-15T13:55:03Z</time>
      </trkpt>
      <trkpt lat="44.67256" lon="6.00899">
        <ele>1308.2</ele>
        <time>2023-05-15T13:55:06Z</time>
      </trkpt>
      <trkpt lat="44.67267" lon="6.00882">
        <ele>1308.6</ele>
        <time>2023-05-15T13:55:12Z</time>
      </trkpt>
      <trkpt lat="44.67275" lon="6.00856">
        <ele>1308.4</ele>
        <time>2023-05-15T13:55:18Z</time>
      </trkpt>
      <trkpt lat="44.67278" lon="6.0084">
        <ele>1307.8</ele>
        <time>2023-05-15T13:55:21Z</time>
      </trkpt>
      <trkpt lat="44.6728" lon="6.00827">
        <ele>1307.2</ele>
        <time>2023-05-15T13:55:23Z</time>
      </trkpt>
      <trkpt lat="44.67281" lon="6.00813">
        <ele>1307.2</ele>
        <time>2023-05-15T13:55:25Z</time>
      </trkpt>
      <trkpt lat="44.67286" lon="6.00799">
        <ele>1306.6</ele>
        <time>2023-05-15T13:55:27Z</time>
      </trkpt>
      <trkpt lat="44.67288" lon="6.00793">
        <ele>1306.4</ele>
        <time>2023-05-15T13:55:28Z</time>
      </trkpt>
      <trkpt lat="44.6729" lon="6.00786">
        <ele>1306</ele>
        <time>2023-05-15T13:55:29Z</time>
      </trkpt>
      <trkpt lat="44.67292" lon="6.00781">
        <ele>1305.8</ele>
        <time>2023-05-15T13:55:30Z</time>
      </trkpt>
      <trkpt lat="44.67294" lon="6.00775">
        <ele>1305.8</ele>
        <time>2023-05-15T13:55:31Z</time>
      </trkpt>
      <trkpt lat="44.67295" lon="6.0077">
        <ele>1305.8</ele>
        <time>2023-05-15T13:55:32Z</time>
      </trkpt>
      <trkpt lat="44.67295" lon="6.00766">
        <ele>1305.8</ele>
        <time>2023-05-15T13:55:33Z</time>
      </trkpt>
      <trkpt lat="44.67295" lon="6.00762">
        <ele>1305.4</ele>
        <time>2023-05-15T13:55:34Z</time>
      </trkpt>
      <trkpt lat="44.67296" lon="6.00758">
        <ele>1305.2</ele>
        <time>2023-05-15T13:55:35Z</time>
      </trkpt>
      <trkpt lat="44.67296" lon="6.00754">
        <ele>1305.2</ele>
        <time>2023-05-15T13:55:36Z</time>
      </trkpt>
      <trkpt lat="44.67296" lon="6.00751">
        <ele>1305.2</ele>
        <time>2023-05-15T13:55:37Z</time>
      </trkpt>
      <trkpt lat="44.67295" lon="6.00747">
        <ele>1304.6</ele>
        <time>2023-05-15T13:55:38Z</time>
      </trkpt>
      <trkpt lat="44.67294" lon="6.00744">
        <ele>1304.6</ele>
        <time>2023-05-15T13:55:39Z</time>
      </trkpt>
      <trkpt lat="44.67293" lon="6.00741">
        <ele>1304.6</ele>
        <time>2023-05-15T13:55:40Z</time>
      </trkpt>
      <trkpt lat="44.67293" lon="6.00738">
        <ele>1304.6</ele>
        <time>2023-05-15T13:55:41Z</time>
      </trkpt>
      <trkpt lat="44.67294" lon="6.00735">
        <ele>1304.6</ele>
        <time>2023-05-15T13:55:42Z</time>
      </trkpt>
      <trkpt lat="44.67295" lon="6.00732">
        <ele>1304.4</ele>
        <time>2023-05-15T13:55:43Z</time>
      </trkpt>
      <trkpt lat="44.67295" lon="6.00729">
        <ele>1304.4</ele>
        <time>2023-05-15T13:55:44Z</time>
      </trkpt>
      <trkpt lat="44.67297" lon="6.00726">
        <ele>1304.6</ele>
        <time>2023-05-15T13:55:45Z</time>
      </trkpt>
      <trkpt lat="44.67298" lon="6.00724">
        <ele>1304.6</ele>
        <time>2023-05-15T13:55:46Z</time>
      </trkpt>
      <trkpt lat="44.67298" lon="6.00721">
        <ele>1304.6</ele>
        <time>2023-05-15T13:55:47Z</time>
      </trkpt>
      <trkpt lat="44.673" lon="6.00717">
        <ele>1304.6</ele>
        <time>2023-05-15T13:55:49Z</time>
      </trkpt>
      <trkpt lat="44.673" lon="6.00715">
        <ele>1304.6</ele>
        <time>2023-05-15T13:55:50Z</time>
      </trkpt>
      <trkpt lat="44.673" lon="6.00712">
        <ele>1304.8</ele>
        <time>2023-05-15T13:55:52Z</time>
      </trkpt>
      <trkpt lat="44.67299" lon="6.00711">
        <ele>1305.2</ele>
        <time>2023-05-15T13:55:53Z</time>
      </trkpt>
      <trkpt lat="44.67299" lon="6.00711">
        <ele>1305.2</ele>
        <time>2023-05-15T13:55:54Z</time>
      </trkpt>
      <trkpt lat="44.67299" lon="6.00711">
        <ele>1305.2</ele>
        <time>2023-05-15T13:55:55Z</time>
      </trkpt>
      <trkpt lat="44.67299" lon="6.00711">
        <ele>1305.4</ele>
        <time>2023-05-15T13:55:56Z</time>
      </trkpt>
      <trkpt lat="44.67299" lon="6.00711">
        <ele>1305.4</ele>
        <time>2023-05-15T13:55:58Z</time>
      </trkpt>
      <trkpt lat="44.67299" lon="6.00711">
        <ele>1305.8</ele>
        <time>2023-05-15T13:55:59Z</time>
      </trkpt>
      <trkpt lat="44.67299" lon="6.00711">
        <ele>1305.8</ele>
        <time>2023-05-15T13:56:07Z</time>
      </trkpt>
      <trkpt lat="44.673" lon="6.00711">
        <ele>1305.8</ele>
        <time>2023-05-15T13:56:19Z</time>
      </trkpt>
      <trkpt lat="44.67301" lon="6.00708">
        <ele>1305.8</ele>
        <time>2023-05-15T13:56:22Z</time>
      </trkpt>
      <trkpt lat="44.673" lon="6.00704">
        <ele>1305.8</ele>
        <time>2023-05-15T13:56:24Z</time>
      </trkpt>
      <trkpt lat="44.67299" lon="6.00702">
        <ele>1305.8</ele>
        <time>2023-05-15T13:56:25Z</time>
      </trkpt>
      <trkpt lat="44.67298" lon="6.007">
        <ele>1305.8</ele>
        <time>2023-05-15T13:56:26Z</time>
      </trkpt>
      <trkpt lat="44.67294" lon="6.00696">
        <ele>1305.8</ele>
        <time>2023-05-15T13:56:28Z</time>
      </trkpt>
      <trkpt lat="44.67293" lon="6.00693">
        <ele>1305.8</ele>
        <time>2023-05-15T13:56:29Z</time>
      </trkpt>
      <trkpt lat="44.6729" lon="6.00686">
        <ele>1305.8</ele>
        <time>2023-05-15T13:56:31Z</time>
      </trkpt>
      <trkpt lat="44.67289" lon="6.00682">
        <ele>1305.8</ele>
        <time>2023-05-15T13:56:32Z</time>
      </trkpt>
      <trkpt lat="44.67286" lon="6.00669">
        <ele>1306</ele>
        <time>2023-05-15T13:56:35Z</time>
      </trkpt>
      <trkpt lat="44.67286" lon="6.00667">
        <ele>1306</ele>
        <time>2023-05-15T13:56:36Z</time>
      </trkpt>
      <trkpt lat="44.67284" lon="6.00663">
        <ele>1306</ele>
        <time>2023-05-15T13:56:37Z</time>
      </trkpt>
      <trkpt lat="44.67283" lon="6.00659">
        <ele>1306</ele>
        <time>2023-05-15T13:56:38Z</time>
      </trkpt>
      <trkpt lat="44.67279" lon="6.00646">
        <ele>1306</ele>
        <time>2023-05-15T13:56:41Z</time>
      </trkpt>
      <trkpt lat="44.67278" lon="6.00642">
        <ele>1306</ele>
        <time>2023-05-15T13:56:42Z</time>
      </trkpt>
      <trkpt lat="44.67278" lon="6.00638">
        <ele>1306</ele>
        <time>2023-05-15T13:56:43Z</time>
      </trkpt>
      <trkpt lat="44.67279" lon="6.00634">
        <ele>1306</ele>
        <time>2023-05-15T13:56:44Z</time>
      </trkpt>
      <trkpt lat="44.67279" lon="6.00631">
        <ele>1306</ele>
        <time>2023-05-15T13:56:45Z</time>
      </trkpt>
      <trkpt lat="44.67278" lon="6.00628">
        <ele>1306</ele>
        <time>2023-05-15T13:56:46Z</time>
      </trkpt>
      <trkpt lat="44.67277" lon="6.00621">
        <ele>1305.8</ele>
        <time>2023-05-15T13:56:47Z</time>
      </trkpt>
      <trkpt lat="44.67275" lon="6.00614">
        <ele>1305.8</ele>
        <time>2023-05-15T13:56:48Z</time>
      </trkpt>
      <trkpt lat="44.67275" lon="6.00607">
        <ele>1305.8</ele>
        <time>2023-05-15T13:56:49Z</time>
      </trkpt>
      <trkpt lat="44.67272" lon="6.00597">
        <ele>1305.4</ele>
        <time>2023-05-15T13:56:51Z</time>
      </trkpt>
      <trkpt lat="44.67272" lon="6.00592">
        <ele>1305.2</ele>
        <time>2023-05-15T13:56:52Z</time>
      </trkpt>
      <trkpt lat="44.67271" lon="6.00587">
        <ele>1304.8</ele>
        <time>2023-05-15T13:56:53Z</time>
      </trkpt>
      <trkpt lat="44.6727" lon="6.00577">
        <ele>1304.2</ele>
        <time>2023-05-15T13:56:55Z</time>
      </trkpt>
      <trkpt lat="44.67272" lon="6.00573">
        <ele>1304</ele>
        <time>2023-05-15T13:56:56Z</time>
      </trkpt>
      <trkpt lat="44.67273" lon="6.00571">
        <ele>1303.4</ele>
        <time>2023-05-15T13:56:57Z</time>
      </trkpt>
      <trkpt lat="44.67276" lon="6.00569">
        <ele>1303</ele>
        <time>2023-05-15T13:56:58Z</time>
      </trkpt>
      <trkpt lat="44.67276" lon="6.00569">
        <ele>1302.8</ele>
        <time>2023-05-15T13:56:59Z</time>
      </trkpt>
      <trkpt lat="44.67276" lon="6.00569">
        <ele>1302.4</ele>
        <time>2023-05-15T13:57:06Z</time>
      </trkpt>
      <trkpt lat="44.67276" lon="6.00569">
        <ele>1302.2</ele>
        <time>2023-05-15T13:57:13Z</time>
      </trkpt>
      <trkpt lat="44.67276" lon="6.00569">
        <ele>1302.4</ele>
        <time>2023-05-15T13:57:18Z</time>
      </trkpt>
      <trkpt lat="44.67276" lon="6.00569">
        <ele>1302.6</ele>
        <time>2023-05-15T13:57:22Z</time>
      </trkpt>
      <trkpt lat="44.67276" lon="6.00569">
        <ele>1302.8</ele>
        <time>2023-05-15T13:57:33Z</time>
      </trkpt>
      <trkpt lat="44.67277" lon="6.00569">
        <ele>1302.8</ele>
        <time>2023-05-15T13:57:56Z</time>
      </trkpt>
      <trkpt lat="44.67281" lon="6.00572">
        <ele>1302.6</ele>
        <time>2023-05-15T13:57:58Z</time>
      </trkpt>
      <trkpt lat="44.67284" lon="6.00578">
        <ele>1302.6</ele>
        <time>2023-05-15T13:58:00Z</time>
      </trkpt>
      <trkpt lat="44.67284" lon="6.00581">
        <ele>1302.4</ele>
        <time>2023-05-15T13:58:01Z</time>
      </trkpt>
      <trkpt lat="44.67284" lon="6.00584">
        <ele>1302.2</ele>
        <time>2023-05-15T13:58:02Z</time>
      </trkpt>
      <trkpt lat="44.67285" lon="6.00588">
        <ele>1302.2</ele>
        <time>2023-05-15T13:58:03Z</time>
      </trkpt>
      <trkpt lat="44.67286" lon="6.00591">
        <ele>1301.6</ele>
        <time>2023-05-15T13:58:04Z</time>
      </trkpt>
      <trkpt lat="44.6729" lon="6.00595">
        <ele>1300.4</ele>
        <time>2023-05-15T13:58:06Z</time>
      </trkpt>
      <trkpt lat="44.67293" lon="6.00599">
        <ele>1300.2</ele>
        <time>2023-05-15T13:58:07Z</time>
      </trkpt>
      <trkpt lat="44.67297" lon="6.00601">
        <ele>1299.4</ele>
        <time>2023-05-15T13:58:08Z</time>
      </trkpt>
      <trkpt lat="44.67301" lon="6.00604">
        <ele>1298.6</ele>
        <time>2023-05-15T13:58:09Z</time>
      </trkpt>
      <trkpt lat="44.67303" lon="6.00607">
        <ele>1297.8</ele>
        <time>2023-05-15T13:58:10Z</time>
      </trkpt>
      <trkpt lat="44.67305" lon="6.0061">
        <ele>1297.2</ele>
        <time>2023-05-15T13:58:11Z</time>
      </trkpt>
      <trkpt lat="44.67307" lon="6.00613">
        <ele>1297</ele>
        <time>2023-05-15T13:58:12Z</time>
      </trkpt>
      <trkpt lat="44.67309" lon="6.00617">
        <ele>1296.2</ele>
        <time>2023-05-15T13:58:13Z</time>
      </trkpt>
      <trkpt lat="44.67311" lon="6.00621">
        <ele>1295.8</ele>
        <time>2023-05-15T13:58:14Z</time>
      </trkpt>
      <trkpt lat="44.67315" lon="6.00622">
        <ele>1294.6</ele>
        <time>2023-05-15T13:58:15Z</time>
      </trkpt>
      <trkpt lat="44.67319" lon="6.00621">
        <ele>1294.2</ele>
        <time>2023-05-15T13:58:16Z</time>
      </trkpt>
      <trkpt lat="44.67323" lon="6.00622">
        <ele>1293.4</ele>
        <time>2023-05-15T13:58:17Z</time>
      </trkpt>
      <trkpt lat="44.67326" lon="6.00623">
        <ele>1292.2</ele>
        <time>2023-05-15T13:58:18Z</time>
      </trkpt>
      <trkpt lat="44.67329" lon="6.00626">
        <ele>1291.6</ele>
        <time>2023-05-15T13:58:19Z</time>
      </trkpt>
      <trkpt lat="44.67331" lon="6.00629">
        <ele>1291</ele>
        <time>2023-05-15T13:58:20Z</time>
      </trkpt>
      <trkpt lat="44.67334" lon="6.00631">
        <ele>1290.4</ele>
        <time>2023-05-15T13:58:21Z</time>
      </trkpt>
      <trkpt lat="44.67336" lon="6.00633">
        <ele>1289.4</ele>
        <time>2023-05-15T13:58:22Z</time>
      </trkpt>
      <trkpt lat="44.67349" lon="6.00643">
        <ele>1288</ele>
        <time>2023-05-15T13:58:25Z</time>
      </trkpt>
      <trkpt lat="44.67351" lon="6.00645">
        <ele>1287</ele>
        <time>2023-05-15T13:58:26Z</time>
      </trkpt>
      <trkpt lat="44.67354" lon="6.00647">
        <ele>1286.4</ele>
        <time>2023-05-15T13:58:27Z</time>
      </trkpt>
      <trkpt lat="44.67357" lon="6.00646">
        <ele>1286</ele>
        <time>2023-05-15T13:58:28Z</time>
      </trkpt>
      <trkpt lat="44.67358" lon="6.00645">
        <ele>1284.4</ele>
        <time>2023-05-15T13:58:29Z</time>
      </trkpt>
      <trkpt lat="44.67359" lon="6.00644">
        <ele>1283.8</ele>
        <time>2023-05-15T13:58:30Z</time>
      </trkpt>
      <trkpt lat="44.67359" lon="6.00643">
        <ele>1283.2</ele>
        <time>2023-05-15T13:58:31Z</time>
      </trkpt>
      <trkpt lat="44.6736" lon="6.0064">
        <ele>1283</ele>
        <time>2023-05-15T13:58:32Z</time>
      </trkpt>
      <trkpt lat="44.67361" lon="6.00638">
        <ele>1282.6</ele>
        <time>2023-05-15T13:58:33Z</time>
      </trkpt>
      <trkpt lat="44.67362" lon="6.00636">
        <ele>1282.2</ele>
        <time>2023-05-15T13:58:34Z</time>
      </trkpt>
      <trkpt lat="44.67364" lon="6.00635">
        <ele>1282.2</ele>
        <time>2023-05-15T13:58:35Z</time>
      </trkpt>
      <trkpt lat="44.67365" lon="6.00634">
        <ele>1281.8</ele>
        <time>2023-05-15T13:58:36Z</time>
      </trkpt>
      <trkpt lat="44.67366" lon="6.00634">
        <ele>1281.6</ele>
        <time>2023-05-15T13:58:37Z</time>
      </trkpt>
      <trkpt lat="44.67367" lon="6.00634">
        <ele>1281.2</ele>
        <time>2023-05-15T13:58:38Z</time>
      </trkpt>
      <trkpt lat="44.67368" lon="6.00635">
        <ele>1281</ele>
        <time>2023-05-15T13:58:39Z</time>
      </trkpt>
      <trkpt lat="44.67373" lon="6.0064">
        <ele>1280.2</ele>
        <time>2023-05-15T13:58:42Z</time>
      </trkpt>
      <trkpt lat="44.67375" lon="6.00642">
        <ele>1279.8</ele>
        <time>2023-05-15T13:58:43Z</time>
      </trkpt>
      <trkpt lat="44.67378" lon="6.00645">
        <ele>1279.8</ele>
        <time>2023-05-15T13:58:44Z</time>
      </trkpt>
      <trkpt lat="44.67381" lon="6.00647">
        <ele>1279.6</ele>
        <time>2023-05-15T13:58:45Z</time>
      </trkpt>
      <trkpt lat="44.67389" lon="6.00655">
        <ele>1279</ele>
        <time>2023-05-15T13:58:47Z</time>
      </trkpt>
      <trkpt lat="44.67394" lon="6.00658">
        <ele>1278.4</ele>
        <time>2023-05-15T13:58:48Z</time>
      </trkpt>
      <trkpt lat="44.67398" lon="6.0066">
        <ele>1277.2</ele>
        <time>2023-05-15T13:58:49Z</time>
      </trkpt>
      <trkpt lat="44.67403" lon="6.00663">
        <ele>1276</ele>
        <time>2023-05-15T13:58:50Z</time>
      </trkpt>
      <trkpt lat="44.67407" lon="6.00666">
        <ele>1275.6</ele>
        <time>2023-05-15T13:58:51Z</time>
      </trkpt>
      <trkpt lat="44.67411" lon="6.00671">
        <ele>1274.4</ele>
        <time>2023-05-15T13:58:52Z</time>
      </trkpt>
      <trkpt lat="44.67419" lon="6.00681">
        <ele>1273.6</ele>
        <time>2023-05-15T13:58:54Z</time>
      </trkpt>
      <trkpt lat="44.67422" lon="6.00685">
        <ele>1273.2</ele>
        <time>2023-05-15T13:58:55Z</time>
      </trkpt>
      <trkpt lat="44.67426" lon="6.00688">
        <ele>1272.6</ele>
        <time>2023-05-15T13:58:56Z</time>
      </trkpt>
      <trkpt lat="44.67431" lon="6.00694">
        <ele>1272.2</ele>
        <time>2023-05-15T13:58:57Z</time>
      </trkpt>
      <trkpt lat="44.67436" lon="6.00699">
        <ele>1271</ele>
        <time>2023-05-15T13:58:58Z</time>
      </trkpt>
      <trkpt lat="44.67442" lon="6.00703">
        <ele>1270</ele>
        <time>2023-05-15T13:58:59Z</time>
      </trkpt>
      <trkpt lat="44.67452" lon="6.00707">
        <ele>1269</ele>
        <time>2023-05-15T13:59:01Z</time>
      </trkpt>
      <trkpt lat="44.67455" lon="6.00707">
        <ele>1269</ele>
        <time>2023-05-15T13:59:02Z</time>
      </trkpt>
      <trkpt lat="44.67456" lon="6.00707">
        <ele>1267.2</ele>
        <time>2023-05-15T13:59:03Z</time>
      </trkpt>
      <trkpt lat="44.67456" lon="6.00707">
        <ele>1265.4</ele>
        <time>2023-05-15T13:59:05Z</time>
      </trkpt>
      <trkpt lat="44.67456" lon="6.00707">
        <ele>1264.2</ele>
        <time>2023-05-15T13:59:06Z</time>
      </trkpt>
      <trkpt lat="44.67456" lon="6.00707">
        <ele>1262.8</ele>
        <time>2023-05-15T13:59:10Z</time>
      </trkpt>
      <trkpt lat="44.67456" lon="6.00707">
        <ele>1262.4</ele>
        <time>2023-05-15T13:59:12Z</time>
      </trkpt>
      <trkpt lat="44.67455" lon="6.00709">
        <ele>1261.8</ele>
        <time>2023-05-15T13:59:17Z</time>
      </trkpt>
      <trkpt lat="44.67455" lon="6.00709">
        <ele>1261.2</ele>
        <time>2023-05-15T13:59:24Z</time>
      </trkpt>
      <trkpt lat="44.67456" lon="6.00708">
        <ele>1261.2</ele>
        <time>2023-05-15T13:59:29Z</time>
      </trkpt>
      <trkpt lat="44.67456" lon="6.00708">
        <ele>1261.2</ele>
        <time>2023-05-15T13:59:30Z</time>
      </trkpt>
      <trkpt lat="44.67456" lon="6.00708">
        <ele>1261.4</ele>
        <time>2023-05-15T13:59:31Z</time>
      </trkpt>
      <trkpt lat="44.67456" lon="6.00708">
        <ele>1261.4</ele>
        <time>2023-05-15T13:59:32Z</time>
      </trkpt>
      <trkpt lat="44.67456" lon="6.00708">
        <ele>1261.4</ele>
        <time>2023-05-15T13:59:33Z</time>
      </trkpt>
      <trkpt lat="44.67456" lon="6.00708">
        <ele>1262</ele>
        <time>2023-05-15T13:59:42Z</time>
      </trkpt>
      <trkpt lat="44.67456" lon="6.00708">
        <ele>1262.4</ele>
        <time>2023-05-15T13:59:56Z</time>
      </trkpt>
      <trkpt lat="44.67457" lon="6.00706">
        <ele>1262.2</ele>
        <time>2023-05-15T14:00:02Z</time>
      </trkpt>
      <trkpt lat="44.6746" lon="6.00702">
        <ele>1262</ele>
        <time>2023-05-15T14:00:04Z</time>
      </trkpt>
      <trkpt lat="44.67468" lon="6.00691">
        <ele>1260.8</ele>
        <time>2023-05-15T14:00:08Z</time>
      </trkpt>
      <trkpt lat="44.67469" lon="6.00691">
        <ele>1260.6</ele>
        <time>2023-05-15T14:00:09Z</time>
      </trkpt>
      <trkpt lat="44.67469" lon="6.0069">
        <ele>1260.2</ele>
        <time>2023-05-15T14:00:10Z</time>
      </trkpt>
      <trkpt lat="44.67471" lon="6.0069">
        <ele>1260</ele>
        <time>2023-05-15T14:00:11Z</time>
      </trkpt>
      <trkpt lat="44.67471" lon="6.0069">
        <ele>1259.4</ele>
        <time>2023-05-15T14:00:12Z</time>
      </trkpt>
      <trkpt lat="44.67472" lon="6.00689">
        <ele>1259.2</ele>
        <time>2023-05-15T14:00:13Z</time>
      </trkpt>
      <trkpt lat="44.67473" lon="6.00687">
        <ele>1258.6</ele>
        <time>2023-05-15T14:00:14Z</time>
      </trkpt>
      <trkpt lat="44.67474" lon="6.00685">
        <ele>1258.4</ele>
        <time>2023-05-15T14:00:15Z</time>
      </trkpt>
      <trkpt lat="44.67475" lon="6.00683">
        <ele>1258.2</ele>
        <time>2023-05-15T14:00:16Z</time>
      </trkpt>
      <trkpt lat="44.67475" lon="6.00682">
        <ele>1258</ele>
        <time>2023-05-15T14:00:17Z</time>
      </trkpt>
      <trkpt lat="44.67475" lon="6.00682">
        <ele>1257.6</ele>
        <time>2023-05-15T14:00:18Z</time>
      </trkpt>
      <trkpt lat="44.67475" lon="6.00682">
        <ele>1257</ele>
        <time>2023-05-15T14:00:19Z</time>
      </trkpt>
      <trkpt lat="44.67475" lon="6.00682">
        <ele>1256.2</ele>
        <time>2023-05-15T14:00:22Z</time>
      </trkpt>
      <trkpt lat="44.67475" lon="6.00682">
        <ele>1256</ele>
        <time>2023-05-15T14:00:24Z</time>
      </trkpt>
      <trkpt lat="44.67475" lon="6.00682">
        <ele>1255.2</ele>
        <time>2023-05-15T14:00:48Z</time>
      </trkpt>
      <trkpt lat="44.67476" lon="6.00681">
        <ele>1255.2</ele>
        <time>2023-05-15T14:01:34Z</time>
      </trkpt>
      <trkpt lat="44.67477" lon="6.00677">
        <ele>1255</ele>
        <time>2023-05-15T14:01:38Z</time>
      </trkpt>
      <trkpt lat="44.67477" lon="6.00677">
        <ele>1255</ele>
        <time>2023-05-15T14:01:39Z</time>
      </trkpt>
      <trkpt lat="44.67477" lon="6.00676">
        <ele>1254.8</ele>
        <time>2023-05-15T14:01:40Z</time>
      </trkpt>
      <trkpt lat="44.67477" lon="6.00674">
        <ele>1254.6</ele>
        <time>2023-05-15T14:01:44Z</time>
      </trkpt>
      <trkpt lat="44.67477" lon="6.00674">
        <ele>1254.6</ele>
        <time>2023-05-15T14:01:45Z</time>
      </trkpt>
      <trkpt lat="44.67477" lon="6.00673">
        <ele>1254.6</ele>
        <time>2023-05-15T14:01:46Z</time>
      </trkpt>
      <trkpt lat="44.67477" lon="6.00673">
        <ele>1254.6</ele>
        <time>2023-05-15T14:01:47Z</time>
      </trkpt>
      <trkpt lat="44.67477" lon="6.00673">
        <ele>1254.6</ele>
        <time>2023-05-15T14:01:50Z</time>
      </trkpt>
      <trkpt lat="44.67478" lon="6.0067">
        <ele>1254.8</ele>
        <time>2023-05-15T14:01:56Z</time>
      </trkpt>
      <trkpt lat="44.67478" lon="6.0067">
        <ele>1254.6</ele>
        <time>2023-05-15T14:02:01Z</time>
      </trkpt>
      <trkpt lat="44.67478" lon="6.0067">
        <ele>1254.6</ele>
        <time>2023-05-15T14:02:14Z</time>
      </trkpt>
      <trkpt lat="44.67478" lon="6.0067">
        <ele>1254.2</ele>
        <time>2023-05-15T14:02:35Z</time>
      </trkpt>
      <trkpt lat="44.6748" lon="6.00669">
        <ele>1254.6</ele>
        <time>2023-05-15T14:02:41Z</time>
      </trkpt>
      <trkpt lat="44.67482" lon="6.00667">
        <ele>1255.2</ele>
        <time>2023-05-15T14:02:47Z</time>
      </trkpt>
      <trkpt lat="44.67483" lon="6.00667">
        <ele>1255.2</ele>
        <time>2023-05-15T14:02:48Z</time>
      </trkpt>
      <trkpt lat="44.67484" lon="6.00667">
        <ele>1255.2</ele>
        <time>2023-05-15T14:02:49Z</time>
      </trkpt>
      <trkpt lat="44.67485" lon="6.00667">
        <ele>1255.4</ele>
        <time>2023-05-15T14:02:51Z</time>
      </trkpt>
      <trkpt lat="44.67488" lon="6.00668">
        <ele>1255.2</ele>
        <time>2023-05-15T14:02:53Z</time>
      </trkpt>
      <trkpt lat="44.67489" lon="6.00669">
        <ele>1255.2</ele>
        <time>2023-05-15T14:02:54Z</time>
      </trkpt>
      <trkpt lat="44.6749" lon="6.00669">
        <ele>1255.2</ele>
        <time>2023-05-15T14:02:55Z</time>
      </trkpt>
      <trkpt lat="44.67491" lon="6.0067">
        <ele>1255.2</ele>
        <time>2023-05-15T14:02:56Z</time>
      </trkpt>
      <trkpt lat="44.67495" lon="6.0067">
        <ele>1255</ele>
        <time>2023-05-15T14:02:59Z</time>
      </trkpt>
      <trkpt lat="44.67495" lon="6.0067">
        <ele>1254.8</ele>
        <time>2023-05-15T14:03:00Z</time>
      </trkpt>
      <trkpt lat="44.67495" lon="6.0067">
        <ele>1254.6</ele>
        <time>2023-05-15T14:03:01Z</time>
      </trkpt>
      <trkpt lat="44.67496" lon="6.0067">
        <ele>1254.6</ele>
        <time>2023-05-15T14:03:02Z</time>
      </trkpt>
      <trkpt lat="44.67496" lon="6.00671">
        <ele>1254.4</ele>
        <time>2023-05-15T14:03:03Z</time>
      </trkpt>
      <trkpt lat="44.67496" lon="6.00671">
        <ele>1254.4</ele>
        <time>2023-05-15T14:03:05Z</time>
      </trkpt>
      <trkpt lat="44.67496" lon="6.00671">
        <ele>1254.2</ele>
        <time>2023-05-15T14:03:09Z</time>
      </trkpt>
      <trkpt lat="44.67497" lon="6.0067">
        <ele>1254.6</ele>
        <time>2023-05-15T14:03:16Z</time>
      </trkpt>
      <trkpt lat="44.67497" lon="6.0067">
        <ele>1255.8</ele>
        <time>2023-05-15T14:03:24Z</time>
      </trkpt>
      <trkpt lat="44.67497" lon="6.0067">
        <ele>1256.2</ele>
        <time>2023-05-15T14:03:29Z</time>
      </trkpt>
      <trkpt lat="44.67498" lon="6.0067">
        <ele>1256.6</ele>
        <time>2023-05-15T14:03:33Z</time>
      </trkpt>
      <trkpt lat="44.67498" lon="6.0067">
        <ele>1256.6</ele>
        <time>2023-05-15T14:03:34Z</time>
      </trkpt>
      <trkpt lat="44.67498" lon="6.00669">
        <ele>1256.8</ele>
        <time>2023-05-15T14:03:35Z</time>
      </trkpt>
      <trkpt lat="44.67498" lon="6.00669">
        <ele>1257.8</ele>
        <time>2023-05-15T14:03:39Z</time>
      </trkpt>
      <trkpt lat="44.67498" lon="6.00669">
        <ele>1258.2</ele>
        <time>2023-05-15T14:03:40Z</time>
      </trkpt>
      <trkpt lat="44.67498" lon="6.00668">
        <ele>1258.8</ele>
        <time>2023-05-15T14:03:47Z</time>
      </trkpt>
      <trkpt lat="44.67498" lon="6.00668">
        <ele>1258.8</ele>
        <time>2023-05-15T14:03:49Z</time>
      </trkpt>
      <trkpt lat="44.67498" lon="6.00668">
        <ele>1259</ele>
        <time>2023-05-15T14:03:55Z</time>
      </trkpt>
      <trkpt lat="44.67498" lon="6.00668">
        <ele>1259</ele>
        <time>2023-05-15T14:03:57Z</time>
      </trkpt>
      <trkpt lat="44.67498" lon="6.00668">
        <ele>1259.2</ele>
        <time>2023-05-15T14:04:04Z</time>
      </trkpt>
      <trkpt lat="44.67499" lon="6.00667">
        <ele>1259.2</ele>
        <time>2023-05-15T14:04:05Z</time>
      </trkpt>
      <trkpt lat="44.67499" lon="6.00667">
        <ele>1259.2</ele>
        <time>2023-05-15T14:04:06Z</time>
      </trkpt>
      <trkpt lat="44.67499" lon="6.00668">
        <ele>1259.4</ele>
        <time>2023-05-15T14:04:15Z</time>
      </trkpt>
      <trkpt lat="44.675" lon="6.00669">
        <ele>1260.2</ele>
        <time>2023-05-15T14:04:22Z</time>
      </trkpt>
      <trkpt lat="44.67501" lon="6.00669">
        <ele>1260.6</ele>
        <time>2023-05-15T14:04:24Z</time>
      </trkpt>
      <trkpt lat="44.67501" lon="6.00669">
        <ele>1260.6</ele>
        <time>2023-05-15T14:04:25Z</time>
      </trkpt>
      <trkpt lat="44.67501" lon="6.00669">
        <ele>1261</ele>
        <time>2023-05-15T14:04:26Z</time>
      </trkpt>
      <trkpt lat="44.67502" lon="6.00669">
        <ele>1261.4</ele>
        <time>2023-05-15T14:04:28Z</time>
      </trkpt>
      <trkpt lat="44.67502" lon="6.00668">
        <ele>1262.4</ele>
        <time>2023-05-15T14:04:35Z</time>
      </trkpt>
      <trkpt lat="44.67502" lon="6.00668">
        <ele>1262.4</ele>
        <time>2023-05-15T14:04:36Z</time>
      </trkpt>
      <trkpt lat="44.67502" lon="6.00668">
        <ele>1263.2</ele>
        <time>2023-05-15T14:04:39Z</time>
      </trkpt>
      <trkpt lat="44.67502" lon="6.00668">
        <ele>1263.4</ele>
        <time>2023-05-15T14:04:41Z</time>
      </trkpt>
      <trkpt lat="44.67502" lon="6.00668">
        <ele>1263.4</ele>
        <time>2023-05-15T14:04:42Z</time>
      </trkpt>
      <trkpt lat="44.67503" lon="6.00668">
        <ele>1263.6</ele>
        <time>2023-05-15T14:04:43Z</time>
      </trkpt>
      <trkpt lat="44.67504" lon="6.00668">
        <ele>1263.6</ele>
        <time>2023-05-15T14:04:44Z</time>
      </trkpt>
      <trkpt lat="44.67505" lon="6.00667">
        <ele>1263.6</ele>
        <time>2023-05-15T14:04:45Z</time>
      </trkpt>
      <trkpt lat="44.67505" lon="6.00667">
        <ele>1263.6</ele>
        <time>2023-05-15T14:04:46Z</time>
      </trkpt>
      <trkpt lat="44.67505" lon="6.00667">
        <ele>1263.8</ele>
        <time>2023-05-15T14:04:47Z</time>
      </trkpt>
      <trkpt lat="44.67505" lon="6.00667">
        <ele>1263.8</ele>
        <time>2023-05-15T14:04:48Z</time>
      </trkpt>
      <trkpt lat="44.67505" lon="6.00667">
        <ele>1264</ele>
        <time>2023-05-15T14:04:49Z</time>
      </trkpt>
      <trkpt lat="44.67505" lon="6.00667">
        <ele>1264.8</ele>
        <time>2023-05-15T14:04:51Z</time>
      </trkpt>
      <trkpt lat="44.67505" lon="6.00667">
        <ele>1264.8</ele>
        <time>2023-05-15T14:04:52Z</time>
      </trkpt>
      <trkpt lat="44.67505" lon="6.00667">
        <ele>1264.8</ele>
        <time>2023-05-15T14:04:54Z</time>
      </trkpt>
      <trkpt lat="44.67505" lon="6.00667">
        <ele>1265.2</ele>
        <time>2023-05-15T14:04:55Z</time>
      </trkpt>
      <trkpt lat="44.67505" lon="6.00667">
        <ele>1265.8</ele>
        <time>2023-05-15T14:04:58Z</time>
      </trkpt>
      <trkpt lat="44.67507" lon="6.00667">
        <ele>1266</ele>
        <time>2023-05-15T14:04:59Z</time>
      </trkpt>
      <trkpt lat="44.67507" lon="6.00668">
        <ele>1266</ele>
        <time>2023-05-15T14:05:00Z</time>
      </trkpt>
      <trkpt lat="44.67507" lon="6.00668">
        <ele>1266.2</ele>
        <time>2023-05-15T14:05:01Z</time>
      </trkpt>
      <trkpt lat="44.67508" lon="6.00667">
        <ele>1266.2</ele>
        <time>2023-05-15T14:05:02Z</time>
      </trkpt>
      <trkpt lat="44.67508" lon="6.00667">
        <ele>1266.4</ele>
        <time>2023-05-15T14:05:03Z</time>
      </trkpt>
      <trkpt lat="44.67508" lon="6.00667">
        <ele>1266.6</ele>
        <time>2023-05-15T14:05:04Z</time>
      </trkpt>
      <trkpt lat="44.6751" lon="6.00667">
        <ele>1266.8</ele>
        <time>2023-05-15T14:05:05Z</time>
      </trkpt>
      <trkpt lat="44.67511" lon="6.00667">
        <ele>1267</ele>
        <time>2023-05-15T14:05:06Z</time>
      </trkpt>
      <trkpt lat="44.67512" lon="6.00667">
        <ele>1267</ele>
        <time>2023-05-15T14:05:07Z</time>
      </trkpt>
      <trkpt lat="44.67512" lon="6.00667">
        <ele>1267</ele>
        <time>2023-05-15T14:05:08Z</time>
      </trkpt>
      <trkpt lat="44.67512" lon="6.00667">
        <ele>1267.2</ele>
        <time>2023-05-15T14:05:10Z</time>
      </trkpt>
      <trkpt lat="44.67514" lon="6.00667">
        <ele>1267.4</ele>
        <time>2023-05-15T14:05:11Z</time>
      </trkpt>
      <trkpt lat="44.67514" lon="6.00667">
        <ele>1267.6</ele>
        <time>2023-05-15T14:05:15Z</time>
      </trkpt>
      <trkpt lat="44.67516" lon="6.00666">
        <ele>1267.8</ele>
        <time>2023-05-15T14:05:17Z</time>
      </trkpt>
      <trkpt lat="44.67517" lon="6.00666">
        <ele>1267.8</ele>
        <time>2023-05-15T14:05:19Z</time>
      </trkpt>
      <trkpt lat="44.67516" lon="6.00665">
        <ele>1267.8</ele>
        <time>2023-05-15T14:05:20Z</time>
      </trkpt>
      <trkpt lat="44.67516" lon="6.00665">
        <ele>1267.8</ele>
        <time>2023-05-15T14:05:21Z</time>
      </trkpt>
      <trkpt lat="44.67516" lon="6.00665">
        <ele>1268</ele>
        <time>2023-05-15T14:05:22Z</time>
      </trkpt>
      <trkpt lat="44.67517" lon="6.00665">
        <ele>1268</ele>
        <time>2023-05-15T14:05:23Z</time>
      </trkpt>
      <trkpt lat="44.67518" lon="6.00664">
        <ele>1268</ele>
        <time>2023-05-15T14:05:24Z</time>
      </trkpt>
      <trkpt lat="44.67518" lon="6.00663">
        <ele>1268.2</ele>
        <time>2023-05-15T14:05:25Z</time>
      </trkpt>
      <trkpt lat="44.67518" lon="6.00663">
        <ele>1268.4</ele>
        <time>2023-05-15T14:05:28Z</time>
      </trkpt>
      <trkpt lat="44.67518" lon="6.00662">
        <ele>1269</ele>
        <time>2023-05-15T14:05:33Z</time>
      </trkpt>
      <trkpt lat="44.67518" lon="6.00662">
        <ele>1269.4</ele>
        <time>2023-05-15T14:05:34Z</time>
      </trkpt>
      <trkpt lat="44.67518" lon="6.00662">
        <ele>1269.8</ele>
        <time>2023-05-15T14:05:37Z</time>
      </trkpt>
      <trkpt lat="44.67518" lon="6.00662">
        <ele>1270.2</ele>
        <time>2023-05-15T14:05:39Z</time>
      </trkpt>
      <trkpt lat="44.67518" lon="6.00662">
        <ele>1270.6</ele>
        <time>2023-05-15T14:05:46Z</time>
      </trkpt>
      <trkpt lat="44.67518" lon="6.00662">
        <ele>1270.6</ele>
        <time>2023-05-15T14:05:47Z</time>
      </trkpt>
      <trkpt lat="44.67519" lon="6.00662">
        <ele>1270.8</ele>
        <time>2023-05-15T14:05:54Z</time>
      </trkpt>
      <trkpt lat="44.67519" lon="6.00662">
        <ele>1271.2</ele>
        <time>2023-05-15T14:05:56Z</time>
      </trkpt>
      <trkpt lat="44.67519" lon="6.00662">
        <ele>1271.4</ele>
        <time>2023-05-15T14:05:57Z</time>
      </trkpt>
      <trkpt lat="44.67519" lon="6.00661">
        <ele>1271.4</ele>
        <time>2023-05-15T14:05:58Z</time>
      </trkpt>
      <trkpt lat="44.67519" lon="6.00659">
        <ele>1271.6</ele>
        <time>2023-05-15T14:05:59Z</time>
      </trkpt>
      <trkpt lat="44.67519" lon="6.00658">
        <ele>1271.6</ele>
        <time>2023-05-15T14:06:00Z</time>
      </trkpt>
      <trkpt lat="44.67519" lon="6.00658">
        <ele>1272</ele>
        <time>2023-05-15T14:06:03Z</time>
      </trkpt>
      <trkpt lat="44.67519" lon="6.00658">
        <ele>1272.4</ele>
        <time>2023-05-15T14:06:06Z</time>
      </trkpt>
      <trkpt lat="44.67519" lon="6.00658">
        <ele>1273</ele>
        <time>2023-05-15T14:06:11Z</time>
      </trkpt>
      <trkpt lat="44.67518" lon="6.00657">
        <ele>1273.4</ele>
        <time>2023-05-15T14:06:13Z</time>
      </trkpt>
      <trkpt lat="44.67518" lon="6.00657">
        <ele>1273.4</ele>
        <time>2023-05-15T14:06:14Z</time>
      </trkpt>
      <trkpt lat="44.67518" lon="6.00657">
        <ele>1273.8</ele>
        <time>2023-05-15T14:06:18Z</time>
      </trkpt>
      <trkpt lat="44.67517" lon="6.00656">
        <ele>1274.6</ele>
        <time>2023-05-15T14:06:25Z</time>
      </trkpt>
      <trkpt lat="44.67517" lon="6.00656">
        <ele>1275</ele>
        <time>2023-05-15T14:06:28Z</time>
      </trkpt>
      <trkpt lat="44.67516" lon="6.00655">
        <ele>1275</ele>
        <time>2023-05-15T14:06:29Z</time>
      </trkpt>
      <trkpt lat="44.67516" lon="6.00654">
        <ele>1275</ele>
        <time>2023-05-15T14:06:30Z</time>
      </trkpt>
      <trkpt lat="44.67516" lon="6.00654">
        <ele>1275.2</ele>
        <time>2023-05-15T14:06:31Z</time>
      </trkpt>
      <trkpt lat="44.67516" lon="6.00654">
        <ele>1275.2</ele>
        <time>2023-05-15T14:06:32Z</time>
      </trkpt>
      <trkpt lat="44.67516" lon="6.00654">
        <ele>1275.4</ele>
        <time>2023-05-15T14:06:33Z</time>
      </trkpt>
      <trkpt lat="44.67516" lon="6.00654">
        <ele>1275.4</ele>
        <time>2023-05-15T14:06:34Z</time>
      </trkpt>
      <trkpt lat="44.67516" lon="6.00654">
        <ele>1275.4</ele>
        <time>2023-05-15T14:06:35Z</time>
      </trkpt>
      <trkpt lat="44.67516" lon="6.00654">
        <ele>1275.6</ele>
        <time>2023-05-15T14:06:36Z</time>
      </trkpt>
      <trkpt lat="44.67516" lon="6.00654">
        <ele>1275.6</ele>
        <time>2023-05-15T14:06:37Z</time>
      </trkpt>
      <trkpt lat="44.67516" lon="6.00654">
        <ele>1275.8</ele>
        <time>2023-05-15T14:06:38Z</time>
      </trkpt>
      <trkpt lat="44.67517" lon="6.00654">
        <ele>1276.4</ele>
        <time>2023-05-15T14:06:48Z</time>
      </trkpt>
      <trkpt lat="44.67519" lon="6.00653">
        <ele>1276.6</ele>
        <time>2023-05-15T14:06:50Z</time>
      </trkpt>
      <trkpt lat="44.67519" lon="6.00653">
        <ele>1276.6</ele>
        <time>2023-05-15T14:06:51Z</time>
      </trkpt>
      <trkpt lat="44.67519" lon="6.00653">
        <ele>1276.8</ele>
        <time>2023-05-15T14:06:52Z</time>
      </trkpt>
      <trkpt lat="44.6752" lon="6.00653">
        <ele>1276.8</ele>
        <time>2023-05-15T14:06:53Z</time>
      </trkpt>
      <trkpt lat="44.67521" lon="6.00654">
        <ele>1277</ele>
        <time>2023-05-15T14:06:54Z</time>
      </trkpt>
      <trkpt lat="44.67521" lon="6.00654">
        <ele>1277</ele>
        <time>2023-05-15T14:06:55Z</time>
      </trkpt>
      <trkpt lat="44.67521" lon="6.00654">
        <ele>1277.2</ele>
        <time>2023-05-15T14:06:56Z</time>
      </trkpt>
      <trkpt lat="44.67521" lon="6.00654">
        <ele>1277.4</ele>
        <time>2023-05-15T14:06:57Z</time>
      </trkpt>
      <trkpt lat="44.67521" lon="6.00654">
        <ele>1277.6</ele>
        <time>2023-05-15T14:06:58Z</time>
      </trkpt>
      <trkpt lat="44.67521" lon="6.00654">
        <ele>1277.8</ele>
        <time>2023-05-15T14:07:00Z</time>
      </trkpt>
      <trkpt lat="44.67521" lon="6.00654">
        <ele>1278.2</ele>
        <time>2023-05-15T14:07:03Z</time>
      </trkpt>
      <trkpt lat="44.67523" lon="6.0065">
        <ele>1278.4</ele>
        <time>2023-05-15T14:07:06Z</time>
      </trkpt>
      <trkpt lat="44.67525" lon="6.00651">
        <ele>1278.6</ele>
        <time>2023-05-15T14:07:08Z</time>
      </trkpt>
      <trkpt lat="44.67525" lon="6.00651">
        <ele>1278.6</ele>
        <time>2023-05-15T14:07:09Z</time>
      </trkpt>
      <trkpt lat="44.67525" lon="6.00651">
        <ele>1278.6</ele>
        <time>2023-05-15T14:07:10Z</time>
      </trkpt>
      <trkpt lat="44.67525" lon="6.00651">
        <ele>1278.8</ele>
        <time>2023-05-15T14:07:11Z</time>
      </trkpt>
      <trkpt lat="44.67526" lon="6.00651">
        <ele>1278.8</ele>
        <time>2023-05-15T14:07:12Z</time>
      </trkpt>
      <trkpt lat="44.67526" lon="6.00651">
        <ele>1279</ele>
        <time>2023-05-15T14:07:14Z</time>
      </trkpt>
      <trkpt lat="44.67526" lon="6.00651">
        <ele>1279.2</ele>
        <time>2023-05-15T14:07:15Z</time>
      </trkpt>
      <trkpt lat="44.67526" lon="6.00651">
        <ele>1279.2</ele>
        <time>2023-05-15T14:07:16Z</time>
      </trkpt>
      <trkpt lat="44.67527" lon="6.00651">
        <ele>1280</ele>
        <time>2023-05-15T14:07:21Z</time>
      </trkpt>
      <trkpt lat="44.67527" lon="6.00651">
        <ele>1280.2</ele>
        <time>2023-05-15T14:07:22Z</time>
      </trkpt>
      <trkpt lat="44.67527" lon="6.00651">
        <ele>1280.2</ele>
        <time>2023-05-15T14:07:23Z</time>
      </trkpt>
      <trkpt lat="44.67528" lon="6.0065">
        <ele>1280.4</ele>
        <time>2023-05-15T14:07:24Z</time>
      </trkpt>
      <trkpt lat="44.67529" lon="6.0065">
        <ele>1280.6</ele>
        <time>2023-05-15T14:07:26Z</time>
      </trkpt>
      <trkpt lat="44.6753" lon="6.0065">
        <ele>1281</ele>
        <time>2023-05-15T14:07:28Z</time>
      </trkpt>
      <trkpt lat="44.6753" lon="6.0065">
        <ele>1281.2</ele>
        <time>2023-05-15T14:07:29Z</time>
      </trkpt>
      <trkpt lat="44.67532" lon="6.0065">
        <ele>1281.4</ele>
        <time>2023-05-15T14:07:30Z</time>
      </trkpt>
      <trkpt lat="44.67532" lon="6.00651">
        <ele>1281.8</ele>
        <time>2023-05-15T14:07:31Z</time>
      </trkpt>
      <trkpt lat="44.67532" lon="6.00651">
        <ele>1281.8</ele>
        <time>2023-05-15T14:07:32Z</time>
      </trkpt>
      <trkpt lat="44.67533" lon="6.00651">
        <ele>1282</ele>
        <time>2023-05-15T14:07:33Z</time>
      </trkpt>
      <trkpt lat="44.67533" lon="6.00651">
        <ele>1282</ele>
        <time>2023-05-15T14:07:34Z</time>
      </trkpt>
      <trkpt lat="44.67533" lon="6.00651">
        <ele>1282</ele>
        <time>2023-05-15T14:07:35Z</time>
      </trkpt>
      <trkpt lat="44.67533" lon="6.00651">
        <ele>1282.2</ele>
        <time>2023-05-15T14:07:37Z</time>
      </trkpt>
      <trkpt lat="44.67533" lon="6.00651">
        <ele>1282.4</ele>
        <time>2023-05-15T14:07:38Z</time>
      </trkpt>
      <trkpt lat="44.67533" lon="6.00651">
        <ele>1282.4</ele>
        <time>2023-05-15T14:07:39Z</time>
      </trkpt>
      <trkpt lat="44.67533" lon="6.00651">
        <ele>1282.6</ele>
        <time>2023-05-15T14:07:41Z</time>
      </trkpt>
      <trkpt lat="44.67536" lon="6.00652">
        <ele>1283.2</ele>
        <time>2023-05-15T14:07:47Z</time>
      </trkpt>
      <trkpt lat="44.67538" lon="6.00652">
        <ele>1283.4</ele>
        <time>2023-05-15T14:07:48Z</time>
      </trkpt>
      <trkpt lat="44.6754" lon="6.00652">
        <ele>1283.4</ele>
        <time>2023-05-15T14:07:49Z</time>
      </trkpt>
      <trkpt lat="44.6754" lon="6.00653">
        <ele>1283.6</ele>
        <time>2023-05-15T14:07:50Z</time>
      </trkpt>
      <trkpt lat="44.67542" lon="6.00653">
        <ele>1283.6</ele>
        <time>2023-05-15T14:07:51Z</time>
      </trkpt>
      <trkpt lat="44.67543" lon="6.00654">
        <ele>1283.6</ele>
        <time>2023-05-15T14:07:52Z</time>
      </trkpt>
      <trkpt lat="44.67544" lon="6.00654">
        <ele>1283.8</ele>
        <time>2023-05-15T14:07:53Z</time>
      </trkpt>
      <trkpt lat="44.67544" lon="6.00655">
        <ele>1284</ele>
        <time>2023-05-15T14:07:54Z</time>
      </trkpt>
      <trkpt lat="44.67545" lon="6.00655">
        <ele>1284.2</ele>
        <time>2023-05-15T14:07:55Z</time>
      </trkpt>
      <trkpt lat="44.67545" lon="6.00655">
        <ele>1284.2</ele>
        <time>2023-05-15T14:07:57Z</time>
      </trkpt>
      <trkpt lat="44.67545" lon="6.00655">
        <ele>1284.2</ele>
        <time>2023-05-15T14:08:05Z</time>
      </trkpt>
      <trkpt lat="44.67545" lon="6.00655">
        <ele>1284.4</ele>
        <time>2023-05-15T14:08:12Z</time>
      </trkpt>
      <trkpt lat="44.67545" lon="6.00655">
        <ele>1284</ele>
        <time>2023-05-15T14:08:28Z</time>
      </trkpt>
      <trkpt lat="44.67545" lon="6.00655">
        <ele>1283.8</ele>
        <time>2023-05-15T14:08:49Z</time>
      </trkpt>
      <trkpt lat="44.67545" lon="6.00655">
        <ele>1284.2</ele>
        <time>2023-05-15T14:09:04Z</time>
      </trkpt>
      <trkpt lat="44.67547" lon="6.00651">
        <ele>1284.2</ele>
        <time>2023-05-15T14:09:14Z</time>
      </trkpt>
      <trkpt lat="44.67549" lon="6.00648">
        <ele>1284</ele>
        <time>2023-05-15T14:09:15Z</time>
      </trkpt>
      <trkpt lat="44.67552" lon="6.00637">
        <ele>1283.6</ele>
        <time>2023-05-15T14:09:18Z</time>
      </trkpt>
      <trkpt lat="44.67553" lon="6.00633">
        <ele>1283.2</ele>
        <time>2023-05-15T14:09:19Z</time>
      </trkpt>
      <trkpt lat="44.67555" lon="6.0063">
        <ele>1282.6</ele>
        <time>2023-05-15T14:09:20Z</time>
      </trkpt>
      <trkpt lat="44.67556" lon="6.00627">
        <ele>1282.4</ele>
        <time>2023-05-15T14:09:21Z</time>
      </trkpt>
      <trkpt lat="44.67561" lon="6.00622">
        <ele>1280.8</ele>
        <time>2023-05-15T14:09:23Z</time>
      </trkpt>
      <trkpt lat="44.67563" lon="6.00621">
        <ele>1280</ele>
        <time>2023-05-15T14:09:24Z</time>
      </trkpt>
      <trkpt lat="44.67566" lon="6.00619">
        <ele>1279</ele>
        <time>2023-05-15T14:09:25Z</time>
      </trkpt>
      <trkpt lat="44.67574" lon="6.00614">
        <ele>1277.4</ele>
        <time>2023-05-15T14:09:27Z</time>
      </trkpt>
      <trkpt lat="44.6758" lon="6.00614">
        <ele>1277</ele>
        <time>2023-05-15T14:09:28Z</time>
      </trkpt>
      <trkpt lat="44.67586" lon="6.00614">
        <ele>1276.2</ele>
        <time>2023-05-15T14:09:29Z</time>
      </trkpt>
      <trkpt lat="44.67592" lon="6.00616">
        <ele>1276</ele>
        <time>2023-05-15T14:09:30Z</time>
      </trkpt>
      <trkpt lat="44.67596" lon="6.00619">
        <ele>1275.4</ele>
        <time>2023-05-15T14:09:31Z</time>
      </trkpt>
      <trkpt lat="44.67601" lon="6.00621">
        <ele>1274.8</ele>
        <time>2023-05-15T14:09:32Z</time>
      </trkpt>
      <trkpt lat="44.67607" lon="6.00622">
        <ele>1274.6</ele>
        <time>2023-05-15T14:09:33Z</time>
      </trkpt>
      <trkpt lat="44.67611" lon="6.00621">
        <ele>1273.8</ele>
        <time>2023-05-15T14:09:34Z</time>
      </trkpt>
      <trkpt lat="44.67614" lon="6.00619">
        <ele>1273.4</ele>
        <time>2023-05-15T14:09:35Z</time>
      </trkpt>
      <trkpt lat="44.6762" lon="6.00618">
        <ele>1272.4</ele>
        <time>2023-05-15T14:09:36Z</time>
      </trkpt>
      <trkpt lat="44.67635" lon="6.00621">
        <ele>1271.6</ele>
        <time>2023-05-15T14:09:38Z</time>
      </trkpt>
      <trkpt lat="44.67641" lon="6.00623">
        <ele>1271</ele>
        <time>2023-05-15T14:09:39Z</time>
      </trkpt>
      <trkpt lat="44.67646" lon="6.00625">
        <ele>1270.8</ele>
        <time>2023-05-15T14:09:40Z</time>
      </trkpt>
      <trkpt lat="44.6765" lon="6.00625">
        <ele>1269.8</ele>
        <time>2023-05-15T14:09:41Z</time>
      </trkpt>
      <trkpt lat="44.67655" lon="6.00626">
        <ele>1269.6</ele>
        <time>2023-05-15T14:09:42Z</time>
      </trkpt>
      <trkpt lat="44.67666" lon="6.00625">
        <ele>1268.8</ele>
        <time>2023-05-15T14:09:44Z</time>
      </trkpt>
      <trkpt lat="44.67672" lon="6.00622">
        <ele>1267.2</ele>
        <time>2023-05-15T14:09:45Z</time>
      </trkpt>
      <trkpt lat="44.67673" lon="6.00621">
        <ele>1266.6</ele>
        <time>2023-05-15T14:09:46Z</time>
      </trkpt>
      <trkpt lat="44.67673" lon="6.00621">
        <ele>1265</ele>
        <time>2023-05-15T14:09:47Z</time>
      </trkpt>
      <trkpt lat="44.67673" lon="6.00621">
        <ele>1263.8</ele>
        <time>2023-05-15T14:09:48Z</time>
      </trkpt>
      <trkpt lat="44.67673" lon="6.00621">
        <ele>1263.2</ele>
        <time>2023-05-15T14:09:49Z</time>
      </trkpt>
      <trkpt lat="44.67673" lon="6.00621">
        <ele>1262.4</ele>
        <time>2023-05-15T14:09:50Z</time>
      </trkpt>
      <trkpt lat="44.67675" lon="6.0062">
        <ele>1261.4</ele>
        <time>2023-05-15T14:09:54Z</time>
      </trkpt>
      <trkpt lat="44.67676" lon="6.00619">
        <ele>1261.2</ele>
        <time>2023-05-15T14:09:55Z</time>
      </trkpt>
      <trkpt lat="44.67678" lon="6.00618">
        <ele>1261</ele>
        <time>2023-05-15T14:09:57Z</time>
      </trkpt>
      <trkpt lat="44.67678" lon="6.00618">
        <ele>1260.8</ele>
        <time>2023-05-15T14:09:59Z</time>
      </trkpt>
      <trkpt lat="44.67679" lon="6.00618">
        <ele>1260.8</ele>
        <time>2023-05-15T14:10:01Z</time>
      </trkpt>
      <trkpt lat="44.67679" lon="6.00616">
        <ele>1261.2</ele>
        <time>2023-05-15T14:10:08Z</time>
      </trkpt>
      <trkpt lat="44.6768" lon="6.00616">
        <ele>1261.6</ele>
        <time>2023-05-15T14:10:14Z</time>
      </trkpt>
      <trkpt lat="44.67682" lon="6.00617">
        <ele>1261.4</ele>
        <time>2023-05-15T14:10:15Z</time>
      </trkpt>
      <trkpt lat="44.67685" lon="6.00618">
        <ele>1261.4</ele>
        <time>2023-05-15T14:10:17Z</time>
      </trkpt>
      <trkpt lat="44.67687" lon="6.0062">
        <ele>1261.4</ele>
        <time>2023-05-15T14:10:18Z</time>
      </trkpt>
      <trkpt lat="44.67694" lon="6.00625">
        <ele>1261</ele>
        <time>2023-05-15T14:10:21Z</time>
      </trkpt>
      <trkpt lat="44.67699" lon="6.00631">
        <ele>1260.6</ele>
        <time>2023-05-15T14:10:23Z</time>
      </trkpt>
      <trkpt lat="44.67702" lon="6.00634">
        <ele>1260.2</ele>
        <time>2023-05-15T14:10:24Z</time>
      </trkpt>
      <trkpt lat="44.67708" lon="6.00638">
        <ele>1259.8</ele>
        <time>2023-05-15T14:10:26Z</time>
      </trkpt>
      <trkpt lat="44.67709" lon="6.00637">
        <ele>1259.6</ele>
        <time>2023-05-15T14:10:27Z</time>
      </trkpt>
      <trkpt lat="44.67711" lon="6.00636">
        <ele>1259.6</ele>
        <time>2023-05-15T14:10:28Z</time>
      </trkpt>
      <trkpt lat="44.67712" lon="6.00635">
        <ele>1259.4</ele>
        <time>2023-05-15T14:10:29Z</time>
      </trkpt>
      <trkpt lat="44.67713" lon="6.00633">
        <ele>1259.4</ele>
        <time>2023-05-15T14:10:30Z</time>
      </trkpt>
      <trkpt lat="44.67714" lon="6.00631">
        <ele>1259.4</ele>
        <time>2023-05-15T14:10:31Z</time>
      </trkpt>
      <trkpt lat="44.67716" lon="6.00631">
        <ele>1259.4</ele>
        <time>2023-05-15T14:10:32Z</time>
      </trkpt>
      <trkpt lat="44.67717" lon="6.00631">
        <ele>1259.2</ele>
        <time>2023-05-15T14:10:33Z</time>
      </trkpt>
      <trkpt lat="44.67717" lon="6.0063">
        <ele>1259.4</ele>
        <time>2023-05-15T14:10:34Z</time>
      </trkpt>
      <trkpt lat="44.67717" lon="6.0063">
        <ele>1259.4</ele>
        <time>2023-05-15T14:10:35Z</time>
      </trkpt>
      <trkpt lat="44.67717" lon="6.0063">
        <ele>1259.4</ele>
        <time>2023-05-15T14:10:37Z</time>
      </trkpt>
      <trkpt lat="44.67717" lon="6.00629">
        <ele>1259.6</ele>
        <time>2023-05-15T14:10:38Z</time>
      </trkpt>
      <trkpt lat="44.67718" lon="6.00626">
        <ele>1259.8</ele>
        <time>2023-05-15T14:10:42Z</time>
      </trkpt>
      <trkpt lat="44.67719" lon="6.0062">
        <ele>1260.4</ele>
        <time>2023-05-15T14:10:47Z</time>
      </trkpt>
      <trkpt lat="44.6772" lon="6.00614">
        <ele>1260.8</ele>
        <time>2023-05-15T14:10:53Z</time>
      </trkpt>
      <trkpt lat="44.67721" lon="6.00613">
        <ele>1261</ele>
        <time>2023-05-15T14:10:54Z</time>
      </trkpt>
      <trkpt lat="44.67722" lon="6.0061">
        <ele>1261.2</ele>
        <time>2023-05-15T14:10:56Z</time>
      </trkpt>
      <trkpt lat="44.67722" lon="6.00609">
        <ele>1261.2</ele>
        <time>2023-05-15T14:10:57Z</time>
      </trkpt>
      <trkpt lat="44.67721" lon="6.00608">
        <ele>1261.4</ele>
        <time>2023-05-15T14:10:58Z</time>
      </trkpt>
      <trkpt lat="44.67722" lon="6.00607">
        <ele>1261.6</ele>
        <time>2023-05-15T14:10:59Z</time>
      </trkpt>
      <trkpt lat="44.67722" lon="6.00606">
        <ele>1261.6</ele>
        <time>2023-05-15T14:11:00Z</time>
      </trkpt>
      <trkpt lat="44.67722" lon="6.00606">
        <ele>1261.8</ele>
        <time>2023-05-15T14:11:01Z</time>
      </trkpt>
      <trkpt lat="44.67722" lon="6.00605">
        <ele>1262</ele>
        <time>2023-05-15T14:11:02Z</time>
      </trkpt>
      <trkpt lat="44.67723" lon="6.00605">
        <ele>1262.4</ele>
        <time>2023-05-15T14:11:04Z</time>
      </trkpt>
      <trkpt lat="44.67723" lon="6.00605">
        <ele>1262.8</ele>
        <time>2023-05-15T14:11:08Z</time>
      </trkpt>
      <trkpt lat="44.67724" lon="6.00603">
        <ele>1263</ele>
        <time>2023-05-15T14:11:10Z</time>
      </trkpt>
      <trkpt lat="44.67725" lon="6.00602">
        <ele>1263</ele>
        <time>2023-05-15T14:11:11Z</time>
      </trkpt>
      <trkpt lat="44.67726" lon="6.006">
        <ele>1263</ele>
        <time>2023-05-15T14:11:12Z</time>
      </trkpt>
      <trkpt lat="44.67726" lon="6.00598">
        <ele>1263</ele>
        <time>2023-05-15T14:11:13Z</time>
      </trkpt>
      <trkpt lat="44.67727" lon="6.00596">
        <ele>1263</ele>
        <time>2023-05-15T14:11:14Z</time>
      </trkpt>
      <trkpt lat="44.67728" lon="6.00595">
        <ele>1263.2</ele>
        <time>2023-05-15T14:11:15Z</time>
      </trkpt>
      <trkpt lat="44.67728" lon="6.00595">
        <ele>1263.4</ele>
        <time>2023-05-15T14:11:17Z</time>
      </trkpt>
      <trkpt lat="44.67728" lon="6.00595">
        <ele>1263.8</ele>
        <time>2023-05-15T14:11:19Z</time>
      </trkpt>
      <trkpt lat="44.67728" lon="6.00595">
        <ele>1264.4</ele>
        <time>2023-05-15T14:11:26Z</time>
      </trkpt>
      <trkpt lat="44.67728" lon="6.00595">
        <ele>1264.4</ele>
        <time>2023-05-15T14:11:27Z</time>
      </trkpt>
      <trkpt lat="44.67729" lon="6.00594">
        <ele>1264.6</ele>
        <time>2023-05-15T14:11:28Z</time>
      </trkpt>
      <trkpt lat="44.6773" lon="6.00592">
        <ele>1264.6</ele>
        <time>2023-05-15T14:11:29Z</time>
      </trkpt>
      <trkpt lat="44.6773" lon="6.00591">
        <ele>1264.8</ele>
        <time>2023-05-15T14:11:30Z</time>
      </trkpt>
      <trkpt lat="44.6773" lon="6.00589">
        <ele>1264.8</ele>
        <time>2023-05-15T14:11:31Z</time>
      </trkpt>
      <trkpt lat="44.67732" lon="6.00584">
        <ele>1265</ele>
        <time>2023-05-15T14:11:34Z</time>
      </trkpt>
      <trkpt lat="44.67732" lon="6.00582">
        <ele>1265</ele>
        <time>2023-05-15T14:11:35Z</time>
      </trkpt>
      <trkpt lat="44.67734" lon="6.0058">
        <ele>1265</ele>
        <time>2023-05-15T14:11:37Z</time>
      </trkpt>
      <trkpt lat="44.67735" lon="6.00575">
        <ele>1265.4</ele>
        <time>2023-05-15T14:11:40Z</time>
      </trkpt>
      <trkpt lat="44.67736" lon="6.00573">
        <ele>1265.4</ele>
        <time>2023-05-15T14:11:41Z</time>
      </trkpt>
      <trkpt lat="44.67736" lon="6.00572">
        <ele>1265.8</ele>
        <time>2023-05-15T14:11:42Z</time>
      </trkpt>
      <trkpt lat="44.67737" lon="6.0057">
        <ele>1265.8</ele>
        <time>2023-05-15T14:11:43Z</time>
      </trkpt>
      <trkpt lat="44.67738" lon="6.00567">
        <ele>1266</ele>
        <time>2023-05-15T14:11:44Z</time>
      </trkpt>
      <trkpt lat="44.67738" lon="6.00565">
        <ele>1266.2</ele>
        <time>2023-05-15T14:11:45Z</time>
      </trkpt>
      <trkpt lat="44.67739" lon="6.00563">
        <ele>1266.4</ele>
        <time>2023-05-15T14:11:46Z</time>
      </trkpt>
      <trkpt lat="44.6774" lon="6.00562">
        <ele>1266.6</ele>
        <time>2023-05-15T14:11:47Z</time>
      </trkpt>
      <trkpt lat="44.6774" lon="6.00561">
        <ele>1266.8</ele>
        <time>2023-05-15T14:11:48Z</time>
      </trkpt>
      <trkpt lat="44.6774" lon="6.0056">
        <ele>1267</ele>
        <time>2023-05-15T14:11:49Z</time>
      </trkpt>
      <trkpt lat="44.67741" lon="6.00559">
        <ele>1267.2</ele>
        <time>2023-05-15T14:11:50Z</time>
      </trkpt>
      <trkpt lat="44.67742" lon="6.00558">
        <ele>1267.4</ele>
        <time>2023-05-15T14:11:51Z</time>
      </trkpt>
      <trkpt lat="44.67742" lon="6.00557">
        <ele>1267.6</ele>
        <time>2023-05-15T14:11:52Z</time>
      </trkpt>
      <trkpt lat="44.67743" lon="6.00556">
        <ele>1267.8</ele>
        <time>2023-05-15T14:11:53Z</time>
      </trkpt>
      <trkpt lat="44.67743" lon="6.00554">
        <ele>1268</ele>
        <time>2023-05-15T14:11:54Z</time>
      </trkpt>
      <trkpt lat="44.67743" lon="6.00553">
        <ele>1268.2</ele>
        <time>2023-05-15T14:11:55Z</time>
      </trkpt>
      <trkpt lat="44.67744" lon="6.00553">
        <ele>1268.4</ele>
        <time>2023-05-15T14:11:56Z</time>
      </trkpt>
      <trkpt lat="44.67744" lon="6.00552">
        <ele>1268.4</ele>
        <time>2023-05-15T14:11:57Z</time>
      </trkpt>
      <trkpt lat="44.67745" lon="6.0055">
        <ele>1268.6</ele>
        <time>2023-05-15T14:11:58Z</time>
      </trkpt>
      <trkpt lat="44.67746" lon="6.00549">
        <ele>1268.6</ele>
        <time>2023-05-15T14:11:59Z</time>
      </trkpt>
      <trkpt lat="44.67746" lon="6.00548">
        <ele>1268.8</ele>
        <time>2023-05-15T14:12:00Z</time>
      </trkpt>
      <trkpt lat="44.67746" lon="6.00546">
        <ele>1268.8</ele>
        <time>2023-05-15T14:12:01Z</time>
      </trkpt>
      <trkpt lat="44.67747" lon="6.00545">
        <ele>1269</ele>
        <time>2023-05-15T14:12:02Z</time>
      </trkpt>
      <trkpt lat="44.67747" lon="6.00544">
        <ele>1269</ele>
        <time>2023-05-15T14:12:03Z</time>
      </trkpt>
      <trkpt lat="44.67748" lon="6.00542">
        <ele>1269</ele>
        <time>2023-05-15T14:12:04Z</time>
      </trkpt>
      <trkpt lat="44.6775" lon="6.0054">
        <ele>1269.2</ele>
        <time>2023-05-15T14:12:05Z</time>
      </trkpt>
      <trkpt lat="44.67751" lon="6.00538">
        <ele>1269.2</ele>
        <time>2023-05-15T14:12:06Z</time>
      </trkpt>
      <trkpt lat="44.67752" lon="6.00536">
        <ele>1269.2</ele>
        <time>2023-05-15T14:12:07Z</time>
      </trkpt>
      <trkpt lat="44.67754" lon="6.00536">
        <ele>1269.2</ele>
        <time>2023-05-15T14:12:08Z</time>
      </trkpt>
      <trkpt lat="44.67754" lon="6.00535">
        <ele>1269.2</ele>
        <time>2023-05-15T14:12:09Z</time>
      </trkpt>
      <trkpt lat="44.67754" lon="6.00535">
        <ele>1269.2</ele>
        <time>2023-05-15T14:12:10Z</time>
      </trkpt>
      <trkpt lat="44.67754" lon="6.00535">
        <ele>1269.4</ele>
        <time>2023-05-15T14:12:13Z</time>
      </trkpt>
      <trkpt lat="44.67755" lon="6.00535">
        <ele>1269.4</ele>
        <time>2023-05-15T14:12:14Z</time>
      </trkpt>
      <trkpt lat="44.67755" lon="6.00535">
        <ele>1269.4</ele>
        <time>2023-05-15T14:12:16Z</time>
      </trkpt>
      <trkpt lat="44.67755" lon="6.00535">
        <ele>1269.6</ele>
        <time>2023-05-15T14:12:19Z</time>
      </trkpt>
      <trkpt lat="44.67757" lon="6.00536">
        <ele>1270.2</ele>
        <time>2023-05-15T14:12:27Z</time>
      </trkpt>
      <trkpt lat="44.67758" lon="6.00535">
        <ele>1270.2</ele>
        <time>2023-05-15T14:12:28Z</time>
      </trkpt>
      <trkpt lat="44.67759" lon="6.00534">
        <ele>1270.2</ele>
        <time>2023-05-15T14:12:29Z</time>
      </trkpt>
      <trkpt lat="44.67759" lon="6.00534">
        <ele>1270.2</ele>
        <time>2023-05-15T14:12:30Z</time>
      </trkpt>
      <trkpt lat="44.6776" lon="6.00533">
        <ele>1270.2</ele>
        <time>2023-05-15T14:12:31Z</time>
      </trkpt>
      <trkpt lat="44.67761" lon="6.00533">
        <ele>1270.4</ele>
        <time>2023-05-15T14:12:32Z</time>
      </trkpt>
      <trkpt lat="44.67761" lon="6.00533">
        <ele>1270.6</ele>
        <time>2023-05-15T14:12:36Z</time>
      </trkpt>
      <trkpt lat="44.67761" lon="6.00533">
        <ele>1270.6</ele>
        <time>2023-05-15T14:12:37Z</time>
      </trkpt>
      <trkpt lat="44.67761" lon="6.00533">
        <ele>1270.6</ele>
        <time>2023-05-15T14:12:38Z</time>
      </trkpt>
      <trkpt lat="44.67761" lon="6.00533">
        <ele>1270.8</ele>
        <time>2023-05-15T14:12:43Z</time>
      </trkpt>
      <trkpt lat="44.67761" lon="6.00533">
        <ele>1270.8</ele>
        <time>2023-05-15T14:13:02Z</time>
      </trkpt>
      <trkpt lat="44.67762" lon="6.00532">
        <ele>1271</ele>
        <time>2023-05-15T14:13:08Z</time>
      </trkpt>
      <trkpt lat="44.67762" lon="6.00532">
        <ele>1271.2</ele>
        <time>2023-05-15T14:13:12Z</time>
      </trkpt>
      <trkpt lat="44.67762" lon="6.00532">
        <ele>1271.4</ele>
        <time>2023-05-15T14:13:22Z</time>
      </trkpt>
      <trkpt lat="44.67762" lon="6.00532">
        <ele>1271.4</ele>
        <time>2023-05-15T14:13:41Z</time>
      </trkpt>
      <trkpt lat="44.67762" lon="6.00532">
        <ele>1271.6</ele>
        <time>2023-05-15T14:14:05Z</time>
      </trkpt>
      <trkpt lat="44.67762" lon="6.00532">
        <ele>1271.2</ele>
        <time>2023-05-15T14:14:26Z</time>
      </trkpt>
      <trkpt lat="44.67762" lon="6.00532">
        <ele>1271</ele>
        <time>2023-05-15T14:14:55Z</time>
      </trkpt>
      <trkpt lat="44.67762" lon="6.00532">
        <ele>1270.8</ele>
        <time>2023-05-15T14:15:17Z</time>
      </trkpt>
      <trkpt lat="44.67762" lon="6.00532">
        <ele>1270.6</ele>
        <time>2023-05-15T14:15:44Z</time>
      </trkpt>
      <trkpt lat="44.67763" lon="6.00532">
        <ele>1271.6</ele>
        <time>2023-05-15T14:16:03Z</time>
      </trkpt>
      <trkpt lat="44.67763" lon="6.00532">
        <ele>1271.6</ele>
        <time>2023-05-15T14:16:06Z</time>
      </trkpt>
      <trkpt lat="44.67763" lon="6.0053">
        <ele>1271.8</ele>
        <time>2023-05-15T14:16:10Z</time>
      </trkpt>
      <trkpt lat="44.67765" lon="6.00526">
        <ele>1271.8</ele>
        <time>2023-05-15T14:16:13Z</time>
      </trkpt>
      <trkpt lat="44.67766" lon="6.00525">
        <ele>1272.2</ele>
        <time>2023-05-15T14:16:14Z</time>
      </trkpt>
      <trkpt lat="44.67766" lon="6.00524">
        <ele>1272.2</ele>
        <time>2023-05-15T14:16:15Z</time>
      </trkpt>
      <trkpt lat="44.67769" lon="6.00519">
        <ele>1272.8</ele>
        <time>2023-05-15T14:16:20Z</time>
      </trkpt>
      <trkpt lat="44.6777" lon="6.00519">
        <ele>1273</ele>
        <time>2023-05-15T14:16:21Z</time>
      </trkpt>
      <trkpt lat="44.67771" lon="6.00518">
        <ele>1273</ele>
        <time>2023-05-15T14:16:22Z</time>
      </trkpt>
      <trkpt lat="44.67771" lon="6.00516">
        <ele>1273</ele>
        <time>2023-05-15T14:16:23Z</time>
      </trkpt>
      <trkpt lat="44.67772" lon="6.00514">
        <ele>1273</ele>
        <time>2023-05-15T14:16:24Z</time>
      </trkpt>
      <trkpt lat="44.67773" lon="6.00513">
        <ele>1273.2</ele>
        <time>2023-05-15T14:16:26Z</time>
      </trkpt>
      <trkpt lat="44.67774" lon="6.00513">
        <ele>1273.6</ele>
        <time>2023-05-15T14:16:27Z</time>
      </trkpt>
      <trkpt lat="44.67774" lon="6.00512">
        <ele>1274</ele>
        <time>2023-05-15T14:16:28Z</time>
      </trkpt>
      <trkpt lat="44.67775" lon="6.00512">
        <ele>1274</ele>
        <time>2023-05-15T14:16:29Z</time>
      </trkpt>
      <trkpt lat="44.67775" lon="6.00511">
        <ele>1274</ele>
        <time>2023-05-15T14:16:30Z</time>
      </trkpt>
      <trkpt lat="44.67775" lon="6.00511">
        <ele>1274.2</ele>
        <time>2023-05-15T14:16:31Z</time>
      </trkpt>
      <trkpt lat="44.67776" lon="6.0051">
        <ele>1274.4</ele>
        <time>2023-05-15T14:16:32Z</time>
      </trkpt>
      <trkpt lat="44.67779" lon="6.00508">
        <ele>1274.8</ele>
        <time>2023-05-15T14:16:35Z</time>
      </trkpt>
      <trkpt lat="44.67779" lon="6.00508">
        <ele>1274.8</ele>
        <time>2023-05-15T14:16:36Z</time>
      </trkpt>
      <trkpt lat="44.67779" lon="6.00508">
        <ele>1275</ele>
        <time>2023-05-15T14:16:37Z</time>
      </trkpt>
      <trkpt lat="44.6778" lon="6.00508">
        <ele>1275</ele>
        <time>2023-05-15T14:16:38Z</time>
      </trkpt>
      <trkpt lat="44.6778" lon="6.00508">
        <ele>1275</ele>
        <time>2023-05-15T14:16:39Z</time>
      </trkpt>
      <trkpt lat="44.67781" lon="6.00507">
        <ele>1275</ele>
        <time>2023-05-15T14:16:40Z</time>
      </trkpt>
      <trkpt lat="44.67782" lon="6.00506">
        <ele>1275.4</ele>
        <time>2023-05-15T14:16:41Z</time>
      </trkpt>
      <trkpt lat="44.67783" lon="6.00505">
        <ele>1275.4</ele>
        <time>2023-05-15T14:16:42Z</time>
      </trkpt>
      <trkpt lat="44.67783" lon="6.00504">
        <ele>1275.6</ele>
        <time>2023-05-15T14:16:43Z</time>
      </trkpt>
      <trkpt lat="44.67784" lon="6.00504">
        <ele>1275.6</ele>
        <time>2023-05-15T14:16:44Z</time>
      </trkpt>
      <trkpt lat="44.67785" lon="6.00504">
        <ele>1275.6</ele>
        <time>2023-05-15T14:16:45Z</time>
      </trkpt>
      <trkpt lat="44.67785" lon="6.00503">
        <ele>1276</ele>
        <time>2023-05-15T14:16:46Z</time>
      </trkpt>
      <trkpt lat="44.67785" lon="6.00503">
        <ele>1276.2</ele>
        <time>2023-05-15T14:16:47Z</time>
      </trkpt>
      <trkpt lat="44.67785" lon="6.00503">
        <ele>1276.4</ele>
        <time>2023-05-15T14:16:48Z</time>
      </trkpt>
      <trkpt lat="44.67786" lon="6.00503">
        <ele>1276.4</ele>
        <time>2023-05-15T14:16:49Z</time>
      </trkpt>
      <trkpt lat="44.67786" lon="6.00503">
        <ele>1276.8</ele>
        <time>2023-05-15T14:16:50Z</time>
      </trkpt>
      <trkpt lat="44.67788" lon="6.00503">
        <ele>1276.8</ele>
        <time>2023-05-15T14:16:51Z</time>
      </trkpt>
      <trkpt lat="44.67788" lon="6.00503">
        <ele>1277</ele>
        <time>2023-05-15T14:16:52Z</time>
      </trkpt>
      <trkpt lat="44.67788" lon="6.00503">
        <ele>1277.2</ele>
        <time>2023-05-15T14:16:53Z</time>
      </trkpt>
      <trkpt lat="44.6779" lon="6.00503">
        <ele>1277.2</ele>
        <time>2023-05-15T14:16:54Z</time>
      </trkpt>
      <trkpt lat="44.6779" lon="6.00503">
        <ele>1277.6</ele>
        <time>2023-05-15T14:16:55Z</time>
      </trkpt>
      <trkpt lat="44.6779" lon="6.00503">
        <ele>1277.6</ele>
        <time>2023-05-15T14:16:56Z</time>
      </trkpt>
      <trkpt lat="44.6779" lon="6.00503">
        <ele>1277.8</ele>
        <time>2023-05-15T14:16:57Z</time>
      </trkpt>
      <trkpt lat="44.67791" lon="6.00502">
        <ele>1277.8</ele>
        <time>2023-05-15T14:16:58Z</time>
      </trkpt>
      <trkpt lat="44.67793" lon="6.00502">
        <ele>1278</ele>
        <time>2023-05-15T14:16:59Z</time>
      </trkpt>
      <trkpt lat="44.67794" lon="6.005">
        <ele>1278.2</ele>
        <time>2023-05-15T14:17:00Z</time>
      </trkpt>
      <trkpt lat="44.67795" lon="6.005">
        <ele>1278.2</ele>
        <time>2023-05-15T14:17:01Z</time>
      </trkpt>
      <trkpt lat="44.67796" lon="6.00499">
        <ele>1278.4</ele>
        <time>2023-05-15T14:17:02Z</time>
      </trkpt>
      <trkpt lat="44.67797" lon="6.00499">
        <ele>1278.4</ele>
        <time>2023-05-15T14:17:03Z</time>
      </trkpt>
      <trkpt lat="44.67798" lon="6.00499">
        <ele>1278.4</ele>
        <time>2023-05-15T14:17:04Z</time>
      </trkpt>
      <trkpt lat="44.67798" lon="6.00499">
        <ele>1278.6</ele>
        <time>2023-05-15T14:17:05Z</time>
      </trkpt>
      <trkpt lat="44.67798" lon="6.00499">
        <ele>1279</ele>
        <time>2023-05-15T14:17:09Z</time>
      </trkpt>
      <trkpt lat="44.67798" lon="6.00499">
        <ele>1279</ele>
        <time>2023-05-15T14:17:10Z</time>
      </trkpt>
      <trkpt lat="44.67799" lon="6.00499">
        <ele>1279.2</ele>
        <time>2023-05-15T14:17:12Z</time>
      </trkpt>
      <trkpt lat="44.678" lon="6.00499">
        <ele>1279.2</ele>
        <time>2023-05-15T14:17:13Z</time>
      </trkpt>
      <trkpt lat="44.67801" lon="6.00498">
        <ele>1279.2</ele>
        <time>2023-05-15T14:17:14Z</time>
      </trkpt>
      <trkpt lat="44.67802" lon="6.00498">
        <ele>1279.2</ele>
        <time>2023-05-15T14:17:15Z</time>
      </trkpt>
      <trkpt lat="44.67804" lon="6.00497">
        <ele>1279.2</ele>
        <time>2023-05-15T14:17:16Z</time>
      </trkpt>
      <trkpt lat="44.67805" lon="6.00497">
        <ele>1279.4</ele>
        <time>2023-05-15T14:17:17Z</time>
      </trkpt>
      <trkpt lat="44.67807" lon="6.00497">
        <ele>1279.6</ele>
        <time>2023-05-15T14:17:18Z</time>
      </trkpt>
      <trkpt lat="44.67808" lon="6.00497">
        <ele>1279.6</ele>
        <time>2023-05-15T14:17:19Z</time>
      </trkpt>
      <trkpt lat="44.67809" lon="6.00496">
        <ele>1279.8</ele>
        <time>2023-05-15T14:17:20Z</time>
      </trkpt>
      <trkpt lat="44.6781" lon="6.00496">
        <ele>1280</ele>
        <time>2023-05-15T14:17:21Z</time>
      </trkpt>
      <trkpt lat="44.67811" lon="6.00494">
        <ele>1280</ele>
        <time>2023-05-15T14:17:22Z</time>
      </trkpt>
      <trkpt lat="44.67813" lon="6.00494">
        <ele>1280.2</ele>
        <time>2023-05-15T14:17:23Z</time>
      </trkpt>
      <trkpt lat="44.67814" lon="6.00493">
        <ele>1280.4</ele>
        <time>2023-05-15T14:17:24Z</time>
      </trkpt>
      <trkpt lat="44.67818" lon="6.00493">
        <ele>1280.6</ele>
        <time>2023-05-15T14:17:26Z</time>
      </trkpt>
      <trkpt lat="44.67822" lon="6.00492">
        <ele>1281</ele>
        <time>2023-05-15T14:17:29Z</time>
      </trkpt>
      <trkpt lat="44.67822" lon="6.00492">
        <ele>1281</ele>
        <time>2023-05-15T14:17:30Z</time>
      </trkpt>
      <trkpt lat="44.67822" lon="6.00492">
        <ele>1281.2</ele>
        <time>2023-05-15T14:17:31Z</time>
      </trkpt>
      <trkpt lat="44.67823" lon="6.00492">
        <ele>1281.4</ele>
        <time>2023-05-15T14:17:32Z</time>
      </trkpt>
      <trkpt lat="44.67825" lon="6.00492">
        <ele>1281.6</ele>
        <time>2023-05-15T14:17:33Z</time>
      </trkpt>
      <trkpt lat="44.67827" lon="6.00493">
        <ele>1281.8</ele>
        <time>2023-05-15T14:17:34Z</time>
      </trkpt>
      <trkpt lat="44.67828" lon="6.00493">
        <ele>1281.8</ele>
        <time>2023-05-15T14:17:35Z</time>
      </trkpt>
      <trkpt lat="44.67829" lon="6.00493">
        <ele>1282.2</ele>
        <time>2023-05-15T14:17:36Z</time>
      </trkpt>
      <trkpt lat="44.6783" lon="6.00493">
        <ele>1282.2</ele>
        <time>2023-05-15T14:17:37Z</time>
      </trkpt>
      <trkpt lat="44.67831" lon="6.00494">
        <ele>1282.4</ele>
        <time>2023-05-15T14:17:38Z</time>
      </trkpt>
      <trkpt lat="44.67831" lon="6.00494">
        <ele>1282.6</ele>
        <time>2023-05-15T14:17:39Z</time>
      </trkpt>
      <trkpt lat="44.67832" lon="6.00494">
        <ele>1282.8</ele>
        <time>2023-05-15T14:17:40Z</time>
      </trkpt>
      <trkpt lat="44.67833" lon="6.00495">
        <ele>1283</ele>
        <time>2023-05-15T14:17:41Z</time>
      </trkpt>
      <trkpt lat="44.67833" lon="6.00495">
        <ele>1283.2</ele>
        <time>2023-05-15T14:17:42Z</time>
      </trkpt>
      <trkpt lat="44.67833" lon="6.00495">
        <ele>1283.6</ele>
        <time>2023-05-15T14:17:43Z</time>
      </trkpt>
      <trkpt lat="44.67834" lon="6.00496">
        <ele>1283.6</ele>
        <time>2023-05-15T14:17:44Z</time>
      </trkpt>
      <trkpt lat="44.67835" lon="6.00497">
        <ele>1283.8</ele>
        <time>2023-05-15T14:17:45Z</time>
      </trkpt>
      <trkpt lat="44.67837" lon="6.00497">
        <ele>1284</ele>
        <time>2023-05-15T14:17:46Z</time>
      </trkpt>
      <trkpt lat="44.67838" lon="6.00498">
        <ele>1284.2</ele>
        <time>2023-05-15T14:17:47Z</time>
      </trkpt>
      <trkpt lat="44.67839" lon="6.00498">
        <ele>1284.4</ele>
        <time>2023-05-15T14:17:48Z</time>
      </trkpt>
      <trkpt lat="44.6784" lon="6.00499">
        <ele>1284.6</ele>
        <time>2023-05-15T14:17:49Z</time>
      </trkpt>
      <trkpt lat="44.67841" lon="6.005">
        <ele>1284.8</ele>
        <time>2023-05-15T14:17:50Z</time>
      </trkpt>
      <trkpt lat="44.67842" lon="6.005">
        <ele>1284.8</ele>
        <time>2023-05-15T14:17:51Z</time>
      </trkpt>
      <trkpt lat="44.67842" lon="6.005">
        <ele>1285</ele>
        <time>2023-05-15T14:17:52Z</time>
      </trkpt>
      <trkpt lat="44.67842" lon="6.00499">
        <ele>1285</ele>
        <time>2023-05-15T14:17:53Z</time>
      </trkpt>
      <trkpt lat="44.67843" lon="6.00498">
        <ele>1285.4</ele>
        <time>2023-05-15T14:17:54Z</time>
      </trkpt>
      <trkpt lat="44.67844" lon="6.00498">
        <ele>1285.4</ele>
        <time>2023-05-15T14:17:55Z</time>
      </trkpt>
      <trkpt lat="44.67844" lon="6.00498">
        <ele>1285.8</ele>
        <time>2023-05-15T14:17:56Z</time>
      </trkpt>
      <trkpt lat="44.67845" lon="6.00498">
        <ele>1286</ele>
        <time>2023-05-15T14:17:57Z</time>
      </trkpt>
      <trkpt lat="44.67846" lon="6.00499">
        <ele>1286</ele>
        <time>2023-05-15T14:17:58Z</time>
      </trkpt>
      <trkpt lat="44.67846" lon="6.00499">
        <ele>1286.2</ele>
        <time>2023-05-15T14:17:59Z</time>
      </trkpt>
      <trkpt lat="44.67846" lon="6.00499">
        <ele>1286.4</ele>
        <time>2023-05-15T14:18:00Z</time>
      </trkpt>
      <trkpt lat="44.67846" lon="6.00499">
        <ele>1286.6</ele>
        <time>2023-05-15T14:18:01Z</time>
      </trkpt>
      <trkpt lat="44.67846" lon="6.00499">
        <ele>1286.6</ele>
        <time>2023-05-15T14:18:02Z</time>
      </trkpt>
      <trkpt lat="44.67848" lon="6.00499">
        <ele>1286.8</ele>
        <time>2023-05-15T14:18:03Z</time>
      </trkpt>
      <trkpt lat="44.6785" lon="6.005">
        <ele>1287</ele>
        <time>2023-05-15T14:18:04Z</time>
      </trkpt>
      <trkpt lat="44.6785" lon="6.005">
        <ele>1287.2</ele>
        <time>2023-05-15T14:18:05Z</time>
      </trkpt>
      <trkpt lat="44.67851" lon="6.005">
        <ele>1287.2</ele>
        <time>2023-05-15T14:18:06Z</time>
      </trkpt>
      <trkpt lat="44.67851" lon="6.005">
        <ele>1287.4</ele>
        <time>2023-05-15T14:18:07Z</time>
      </trkpt>
      <trkpt lat="44.67852" lon="6.005">
        <ele>1287.6</ele>
        <time>2023-05-15T14:18:08Z</time>
      </trkpt>
      <trkpt lat="44.67854" lon="6.005">
        <ele>1287.6</ele>
        <time>2023-05-15T14:18:09Z</time>
      </trkpt>
      <trkpt lat="44.67856" lon="6.00501">
        <ele>1287.8</ele>
        <time>2023-05-15T14:18:10Z</time>
      </trkpt>
      <trkpt lat="44.67858" lon="6.00501">
        <ele>1288</ele>
        <time>2023-05-15T14:18:11Z</time>
      </trkpt>
      <trkpt lat="44.67859" lon="6.00501">
        <ele>1288.2</ele>
        <time>2023-05-15T14:18:12Z</time>
      </trkpt>
      <trkpt lat="44.67861" lon="6.00501">
        <ele>1288.2</ele>
        <time>2023-05-15T14:18:13Z</time>
      </trkpt>
      <trkpt lat="44.67863" lon="6.00501">
        <ele>1288.2</ele>
        <time>2023-05-15T14:18:14Z</time>
      </trkpt>
      <trkpt lat="44.67865" lon="6.005">
        <ele>1288.4</ele>
        <time>2023-05-15T14:18:15Z</time>
      </trkpt>
      <trkpt lat="44.67866" lon="6.005">
        <ele>1288.4</ele>
        <time>2023-05-15T14:18:16Z</time>
      </trkpt>
      <trkpt lat="44.67867" lon="6.005">
        <ele>1288.6</ele>
        <time>2023-05-15T14:18:17Z</time>
      </trkpt>
      <trkpt lat="44.67868" lon="6.005">
        <ele>1288.6</ele>
        <time>2023-05-15T14:18:18Z</time>
      </trkpt>
      <trkpt lat="44.6787" lon="6.00501">
        <ele>1288.8</ele>
        <time>2023-05-15T14:18:19Z</time>
      </trkpt>
      <trkpt lat="44.67872" lon="6.00501">
        <ele>1289</ele>
        <time>2023-05-15T14:18:20Z</time>
      </trkpt>
      <trkpt lat="44.67873" lon="6.00502">
        <ele>1289</ele>
        <time>2023-05-15T14:18:21Z</time>
      </trkpt>
      <trkpt lat="44.67874" lon="6.00502">
        <ele>1289.4</ele>
        <time>2023-05-15T14:18:22Z</time>
      </trkpt>
      <trkpt lat="44.67875" lon="6.00502">
        <ele>1289.6</ele>
        <time>2023-05-15T14:18:23Z</time>
      </trkpt>
      <trkpt lat="44.67876" lon="6.00503">
        <ele>1289.8</ele>
        <time>2023-05-15T14:18:24Z</time>
      </trkpt>
      <trkpt lat="44.67877" lon="6.00503">
        <ele>1289.8</ele>
        <time>2023-05-15T14:18:25Z</time>
      </trkpt>
      <trkpt lat="44.67878" lon="6.00503">
        <ele>1290</ele>
        <time>2023-05-15T14:18:26Z</time>
      </trkpt>
      <trkpt lat="44.6788" lon="6.00504">
        <ele>1290.2</ele>
        <time>2023-05-15T14:18:27Z</time>
      </trkpt>
      <trkpt lat="44.67882" lon="6.00505">
        <ele>1290.4</ele>
        <time>2023-05-15T14:18:28Z</time>
      </trkpt>
      <trkpt lat="44.67884" lon="6.00506">
        <ele>1290.6</ele>
        <time>2023-05-15T14:18:29Z</time>
      </trkpt>
      <trkpt lat="44.67885" lon="6.00508">
        <ele>1290.8</ele>
        <time>2023-05-15T14:18:30Z</time>
      </trkpt>
      <trkpt lat="44.67886" lon="6.00509">
        <ele>1291</ele>
        <time>2023-05-15T14:18:31Z</time>
      </trkpt>
      <trkpt lat="44.67888" lon="6.00509">
        <ele>1291.2</ele>
        <time>2023-05-15T14:18:32Z</time>
      </trkpt>
      <trkpt lat="44.6789" lon="6.00508">
        <ele>1291.2</ele>
        <time>2023-05-15T14:18:33Z</time>
      </trkpt>
      <trkpt lat="44.6789" lon="6.00508">
        <ele>1291.4</ele>
        <time>2023-05-15T14:18:34Z</time>
      </trkpt>
      <trkpt lat="44.6789" lon="6.00508">
        <ele>1291.8</ele>
        <time>2023-05-15T14:18:35Z</time>
      </trkpt>
      <trkpt lat="44.67892" lon="6.00507">
        <ele>1291.8</ele>
        <time>2023-05-15T14:18:36Z</time>
      </trkpt>
      <trkpt lat="44.67894" lon="6.00507">
        <ele>1292</ele>
        <time>2023-05-15T14:18:37Z</time>
      </trkpt>
      <trkpt lat="44.67895" lon="6.00508">
        <ele>1292</ele>
        <time>2023-05-15T14:18:38Z</time>
      </trkpt>
      <trkpt lat="44.67896" lon="6.00509">
        <ele>1292.2</ele>
        <time>2023-05-15T14:18:39Z</time>
      </trkpt>
      <trkpt lat="44.67897" lon="6.0051">
        <ele>1292.4</ele>
        <time>2023-05-15T14:18:40Z</time>
      </trkpt>
      <trkpt lat="44.67897" lon="6.0051">
        <ele>1292.6</ele>
        <time>2023-05-15T14:18:41Z</time>
      </trkpt>
      <trkpt lat="44.67898" lon="6.00512">
        <ele>1292.8</ele>
        <time>2023-05-15T14:18:42Z</time>
      </trkpt>
      <trkpt lat="44.679" lon="6.00513">
        <ele>1292.8</ele>
        <time>2023-05-15T14:18:43Z</time>
      </trkpt>
      <trkpt lat="44.679" lon="6.00513">
        <ele>1293</ele>
        <time>2023-05-15T14:18:44Z</time>
      </trkpt>
      <trkpt lat="44.67901" lon="6.00515">
        <ele>1293.2</ele>
        <time>2023-05-15T14:18:45Z</time>
      </trkpt>
      <trkpt lat="44.67902" lon="6.00516">
        <ele>1293.2</ele>
        <time>2023-05-15T14:18:46Z</time>
      </trkpt>
      <trkpt lat="44.67903" lon="6.00517">
        <ele>1293.4</ele>
        <time>2023-05-15T14:18:47Z</time>
      </trkpt>
      <trkpt lat="44.67904" lon="6.00518">
        <ele>1293.6</ele>
        <time>2023-05-15T14:18:48Z</time>
      </trkpt>
      <trkpt lat="44.67905" lon="6.00518">
        <ele>1293.8</ele>
        <time>2023-05-15T14:18:49Z</time>
      </trkpt>
      <trkpt lat="44.67906" lon="6.00519">
        <ele>1293.8</ele>
        <time>2023-05-15T14:18:50Z</time>
      </trkpt>
      <trkpt lat="44.67907" lon="6.00519">
        <ele>1294</ele>
        <time>2023-05-15T14:18:51Z</time>
      </trkpt>
      <trkpt lat="44.67908" lon="6.0052">
        <ele>1294.4</ele>
        <time>2023-05-15T14:18:52Z</time>
      </trkpt>
      <trkpt lat="44.67909" lon="6.00521">
        <ele>1294.6</ele>
        <time>2023-05-15T14:18:53Z</time>
      </trkpt>
      <trkpt lat="44.6791" lon="6.00521">
        <ele>1294.8</ele>
        <time>2023-05-15T14:18:54Z</time>
      </trkpt>
      <trkpt lat="44.6791" lon="6.00522">
        <ele>1294.8</ele>
        <time>2023-05-15T14:18:55Z</time>
      </trkpt>
      <trkpt lat="44.6791" lon="6.00522">
        <ele>1294.8</ele>
        <time>2023-05-15T14:18:56Z</time>
      </trkpt>
      <trkpt lat="44.6791" lon="6.00522">
        <ele>1294.8</ele>
        <time>2023-05-15T14:18:57Z</time>
      </trkpt>
      <trkpt lat="44.67911" lon="6.00523">
        <ele>1295</ele>
        <time>2023-05-15T14:18:58Z</time>
      </trkpt>
      <trkpt lat="44.67912" lon="6.00523">
        <ele>1295.2</ele>
        <time>2023-05-15T14:18:59Z</time>
      </trkpt>
      <trkpt lat="44.67913" lon="6.00524">
        <ele>1295.2</ele>
        <time>2023-05-15T14:19:00Z</time>
      </trkpt>
      <trkpt lat="44.67914" lon="6.00525">
        <ele>1295.4</ele>
        <time>2023-05-15T14:19:01Z</time>
      </trkpt>
      <trkpt lat="44.67915" lon="6.00526">
        <ele>1295.6</ele>
        <time>2023-05-15T14:19:02Z</time>
      </trkpt>
      <trkpt lat="44.67917" lon="6.00527">
        <ele>1295.8</ele>
        <time>2023-05-15T14:19:03Z</time>
      </trkpt>
      <trkpt lat="44.67918" lon="6.00527">
        <ele>1296</ele>
        <time>2023-05-15T14:19:04Z</time>
      </trkpt>
      <trkpt lat="44.67919" lon="6.00529">
        <ele>1296</ele>
        <time>2023-05-15T14:19:05Z</time>
      </trkpt>
      <trkpt lat="44.6792" lon="6.00529">
        <ele>1296</ele>
        <time>2023-05-15T14:19:06Z</time>
      </trkpt>
      <trkpt lat="44.67921" lon="6.0053">
        <ele>1296.2</ele>
        <time>2023-05-15T14:19:07Z</time>
      </trkpt>
      <trkpt lat="44.67923" lon="6.00531">
        <ele>1296.4</ele>
        <time>2023-05-15T14:19:08Z</time>
      </trkpt>
      <trkpt lat="44.67923" lon="6.00531">
        <ele>1296.4</ele>
        <time>2023-05-15T14:19:09Z</time>
      </trkpt>
      <trkpt lat="44.67925" lon="6.00532">
        <ele>1296.8</ele>
        <time>2023-05-15T14:19:10Z</time>
      </trkpt>
      <trkpt lat="44.67926" lon="6.00533">
        <ele>1296.8</ele>
        <time>2023-05-15T14:19:11Z</time>
      </trkpt>
      <trkpt lat="44.67927" lon="6.00534">
        <ele>1297.2</ele>
        <time>2023-05-15T14:19:12Z</time>
      </trkpt>
      <trkpt lat="44.67928" lon="6.00535">
        <ele>1297.2</ele>
        <time>2023-05-15T14:19:13Z</time>
      </trkpt>
      <trkpt lat="44.67929" lon="6.00535">
        <ele>1297.4</ele>
        <time>2023-05-15T14:19:14Z</time>
      </trkpt>
      <trkpt lat="44.6793" lon="6.00536">
        <ele>1297.6</ele>
        <time>2023-05-15T14:19:15Z</time>
      </trkpt>
      <trkpt lat="44.67931" lon="6.00537">
        <ele>1297.8</ele>
        <time>2023-05-15T14:19:16Z</time>
      </trkpt>
      <trkpt lat="44.67932" lon="6.00539">
        <ele>1298</ele>
        <time>2023-05-15T14:19:17Z</time>
      </trkpt>
      <trkpt lat="44.67934" lon="6.00539">
        <ele>1298</ele>
        <time>2023-05-15T14:19:18Z</time>
      </trkpt>
      <trkpt lat="44.67936" lon="6.00541">
        <ele>1298.2</ele>
        <time>2023-05-15T14:19:19Z</time>
      </trkpt>
      <trkpt lat="44.67936" lon="6.00541">
        <ele>1298.4</ele>
        <time>2023-05-15T14:19:20Z</time>
      </trkpt>
      <trkpt lat="44.67938" lon="6.00541">
        <ele>1298.4</ele>
        <time>2023-05-15T14:19:21Z</time>
      </trkpt>
      <trkpt lat="44.67939" lon="6.00541">
        <ele>1298.4</ele>
        <time>2023-05-15T14:19:22Z</time>
      </trkpt>
      <trkpt lat="44.67939" lon="6.00541">
        <ele>1298.6</ele>
        <time>2023-05-15T14:19:23Z</time>
      </trkpt>
      <trkpt lat="44.6794" lon="6.00541">
        <ele>1299</ele>
        <time>2023-05-15T14:19:24Z</time>
      </trkpt>
      <trkpt lat="44.67941" lon="6.00541">
        <ele>1299.2</ele>
        <time>2023-05-15T14:19:25Z</time>
      </trkpt>
      <trkpt lat="44.67943" lon="6.00541">
        <ele>1299.4</ele>
        <time>2023-05-15T14:19:26Z</time>
      </trkpt>
      <trkpt lat="44.67944" lon="6.00541">
        <ele>1299.4</ele>
        <time>2023-05-15T14:19:27Z</time>
      </trkpt>
      <trkpt lat="44.67945" lon="6.00541">
        <ele>1299.6</ele>
        <time>2023-05-15T14:19:28Z</time>
      </trkpt>
      <trkpt lat="44.67946" lon="6.0054">
        <ele>1299.6</ele>
        <time>2023-05-15T14:19:29Z</time>
      </trkpt>
      <trkpt lat="44.67946" lon="6.00539">
        <ele>1299.8</ele>
        <time>2023-05-15T14:19:30Z</time>
      </trkpt>
      <trkpt lat="44.67946" lon="6.00539">
        <ele>1300</ele>
        <time>2023-05-15T14:19:31Z</time>
      </trkpt>
      <trkpt lat="44.67947" lon="6.00536">
        <ele>1300</ele>
        <time>2023-05-15T14:19:32Z</time>
      </trkpt>
      <trkpt lat="44.67948" lon="6.00535">
        <ele>1300.2</ele>
        <time>2023-05-15T14:19:33Z</time>
      </trkpt>
      <trkpt lat="44.67949" lon="6.00535">
        <ele>1300.4</ele>
        <time>2023-05-15T14:19:34Z</time>
      </trkpt>
      <trkpt lat="44.67949" lon="6.00535">
        <ele>1300.6</ele>
        <time>2023-05-15T14:19:35Z</time>
      </trkpt>
      <trkpt lat="44.67949" lon="6.00533">
        <ele>1300.8</ele>
        <time>2023-05-15T14:19:36Z</time>
      </trkpt>
      <trkpt lat="44.67949" lon="6.00531">
        <ele>1301.2</ele>
        <time>2023-05-15T14:19:37Z</time>
      </trkpt>
      <trkpt lat="44.6795" lon="6.00529">
        <ele>1301.4</ele>
        <time>2023-05-15T14:19:38Z</time>
      </trkpt>
      <trkpt lat="44.6795" lon="6.00528">
        <ele>1301.6</ele>
        <time>2023-05-15T14:19:39Z</time>
      </trkpt>
      <trkpt lat="44.6795" lon="6.00526">
        <ele>1302</ele>
        <time>2023-05-15T14:19:40Z</time>
      </trkpt>
      <trkpt lat="44.67951" lon="6.00525">
        <ele>1302</ele>
        <time>2023-05-15T14:19:41Z</time>
      </trkpt>
      <trkpt lat="44.67951" lon="6.00523">
        <ele>1302.2</ele>
        <time>2023-05-15T14:19:42Z</time>
      </trkpt>
      <trkpt lat="44.67951" lon="6.00521">
        <ele>1302.4</ele>
        <time>2023-05-15T14:19:43Z</time>
      </trkpt>
      <trkpt lat="44.67951" lon="6.0052">
        <ele>1302.6</ele>
        <time>2023-05-15T14:19:44Z</time>
      </trkpt>
      <trkpt lat="44.67951" lon="6.00518">
        <ele>1302.6</ele>
        <time>2023-05-15T14:19:45Z</time>
      </trkpt>
      <trkpt lat="44.67951" lon="6.00518">
        <ele>1303</ele>
        <time>2023-05-15T14:19:46Z</time>
      </trkpt>
      <trkpt lat="44.67951" lon="6.00517">
        <ele>1303</ele>
        <time>2023-05-15T14:19:47Z</time>
      </trkpt>
      <trkpt lat="44.67951" lon="6.00515">
        <ele>1303.2</ele>
        <time>2023-05-15T14:19:48Z</time>
      </trkpt>
      <trkpt lat="44.67951" lon="6.00513">
        <ele>1303.2</ele>
        <time>2023-05-15T14:19:49Z</time>
      </trkpt>
      <trkpt lat="44.67951" lon="6.00512">
        <ele>1303.2</ele>
        <time>2023-05-15T14:19:50Z</time>
      </trkpt>
      <trkpt lat="44.67951" lon="6.00511">
        <ele>1303.2</ele>
        <time>2023-05-15T14:19:51Z</time>
      </trkpt>
      <trkpt lat="44.67951" lon="6.00508">
        <ele>1303.4</ele>
        <time>2023-05-15T14:19:52Z</time>
      </trkpt>
      <trkpt lat="44.67951" lon="6.00506">
        <ele>1303.4</ele>
        <time>2023-05-15T14:19:53Z</time>
      </trkpt>
      <trkpt lat="44.67951" lon="6.00505">
        <ele>1303.4</ele>
        <time>2023-05-15T14:19:54Z</time>
      </trkpt>
      <trkpt lat="44.67952" lon="6.00503">
        <ele>1303.4</ele>
        <time>2023-05-15T14:19:55Z</time>
      </trkpt>
      <trkpt lat="44.67952" lon="6.00502">
        <ele>1303.8</ele>
        <time>2023-05-15T14:19:56Z</time>
      </trkpt>
      <trkpt lat="44.67953" lon="6.005">
        <ele>1303.6</ele>
        <time>2023-05-15T14:19:57Z</time>
      </trkpt>
      <trkpt lat="44.67953" lon="6.00498">
        <ele>1303.8</ele>
        <time>2023-05-15T14:19:58Z</time>
      </trkpt>
      <trkpt lat="44.67954" lon="6.00497">
        <ele>1303.8</ele>
        <time>2023-05-15T14:19:59Z</time>
      </trkpt>
      <trkpt lat="44.67954" lon="6.00495">
        <ele>1304</ele>
        <time>2023-05-15T14:20:00Z</time>
      </trkpt>
      <trkpt lat="44.67954" lon="6.00493">
        <ele>1304.2</ele>
        <time>2023-05-15T14:20:01Z</time>
      </trkpt>
      <trkpt lat="44.67954" lon="6.00491">
        <ele>1304.4</ele>
        <time>2023-05-15T14:20:02Z</time>
      </trkpt>
      <trkpt lat="44.67954" lon="6.00489">
        <ele>1304.6</ele>
        <time>2023-05-15T14:20:03Z</time>
      </trkpt>
      <trkpt lat="44.67953" lon="6.00488">
        <ele>1304.6</ele>
        <time>2023-05-15T14:20:04Z</time>
      </trkpt>
      <trkpt lat="44.67953" lon="6.00488">
        <ele>1304.8</ele>
        <time>2023-05-15T14:20:05Z</time>
      </trkpt>
      <trkpt lat="44.67954" lon="6.00485">
        <ele>1304.8</ele>
        <time>2023-05-15T14:20:06Z</time>
      </trkpt>
      <trkpt lat="44.67953" lon="6.00483">
        <ele>1305</ele>
        <time>2023-05-15T14:20:07Z</time>
      </trkpt>
      <trkpt lat="44.67953" lon="6.00482">
        <ele>1305</ele>
        <time>2023-05-15T14:20:08Z</time>
      </trkpt>
      <trkpt lat="44.67954" lon="6.00481">
        <ele>1305.4</ele>
        <time>2023-05-15T14:20:09Z</time>
      </trkpt>
      <trkpt lat="44.67954" lon="6.0048">
        <ele>1305.4</ele>
        <time>2023-05-15T14:20:10Z</time>
      </trkpt>
      <trkpt lat="44.67954" lon="6.00479">
        <ele>1305.8</ele>
        <time>2023-05-15T14:20:11Z</time>
      </trkpt>
      <trkpt lat="44.67954" lon="6.00477">
        <ele>1306.2</ele>
        <time>2023-05-15T14:20:12Z</time>
      </trkpt>
      <trkpt lat="44.67954" lon="6.00476">
        <ele>1306.2</ele>
        <time>2023-05-15T14:20:13Z</time>
      </trkpt>
      <trkpt lat="44.67954" lon="6.00474">
        <ele>1306.2</ele>
        <time>2023-05-15T14:20:14Z</time>
      </trkpt>
      <trkpt lat="44.67953" lon="6.00473">
        <ele>1306.4</ele>
        <time>2023-05-15T14:20:15Z</time>
      </trkpt>
      <trkpt lat="44.67953" lon="6.00471">
        <ele>1306.4</ele>
        <time>2023-05-15T14:20:16Z</time>
      </trkpt>
      <trkpt lat="44.67952" lon="6.0047">
        <ele>1306.4</ele>
        <time>2023-05-15T14:20:17Z</time>
      </trkpt>
      <trkpt lat="44.67952" lon="6.00468">
        <ele>1306.6</ele>
        <time>2023-05-15T14:20:18Z</time>
      </trkpt>
      <trkpt lat="44.67951" lon="6.00467">
        <ele>1306.6</ele>
        <time>2023-05-15T14:20:19Z</time>
      </trkpt>
      <trkpt lat="44.67951" lon="6.00466">
        <ele>1306.8</ele>
        <time>2023-05-15T14:20:20Z</time>
      </trkpt>
      <trkpt lat="44.6795" lon="6.00465">
        <ele>1307</ele>
        <time>2023-05-15T14:20:21Z</time>
      </trkpt>
      <trkpt lat="44.67949" lon="6.00463">
        <ele>1307</ele>
        <time>2023-05-15T14:20:22Z</time>
      </trkpt>
      <trkpt lat="44.67949" lon="6.00463">
        <ele>1307.2</ele>
        <time>2023-05-15T14:20:23Z</time>
      </trkpt>
      <trkpt lat="44.67947" lon="6.00461">
        <ele>1307.2</ele>
        <time>2023-05-15T14:20:24Z</time>
      </trkpt>
      <trkpt lat="44.67946" lon="6.0046">
        <ele>1307.4</ele>
        <time>2023-05-15T14:20:25Z</time>
      </trkpt>
      <trkpt lat="44.67946" lon="6.00458">
        <ele>1307.4</ele>
        <time>2023-05-15T14:20:26Z</time>
      </trkpt>
      <trkpt lat="44.67945" lon="6.00457">
        <ele>1307.6</ele>
        <time>2023-05-15T14:20:27Z</time>
      </trkpt>
      <trkpt lat="44.67944" lon="6.00456">
        <ele>1307.6</ele>
        <time>2023-05-15T14:20:28Z</time>
      </trkpt>
      <trkpt lat="44.67944" lon="6.00455">
        <ele>1307.8</ele>
        <time>2023-05-15T14:20:29Z</time>
      </trkpt>
      <trkpt lat="44.67943" lon="6.00454">
        <ele>1308</ele>
        <time>2023-05-15T14:20:30Z</time>
      </trkpt>
      <trkpt lat="44.67943" lon="6.00452">
        <ele>1308</ele>
        <time>2023-05-15T14:20:31Z</time>
      </trkpt>
      <trkpt lat="44.67942" lon="6.00451">
        <ele>1308.2</ele>
        <time>2023-05-15T14:20:32Z</time>
      </trkpt>
      <trkpt lat="44.67942" lon="6.0045">
        <ele>1308.4</ele>
        <time>2023-05-15T14:20:33Z</time>
      </trkpt>
      <trkpt lat="44.67941" lon="6.00448">
        <ele>1308.4</ele>
        <time>2023-05-15T14:20:34Z</time>
      </trkpt>
      <trkpt lat="44.67941" lon="6.00447">
        <ele>1308.6</ele>
        <time>2023-05-15T14:20:35Z</time>
      </trkpt>
      <trkpt lat="44.6794" lon="6.00446">
        <ele>1308.8</ele>
        <time>2023-05-15T14:20:36Z</time>
      </trkpt>
      <trkpt lat="44.67939" lon="6.00444">
        <ele>1308.8</ele>
        <time>2023-05-15T14:20:37Z</time>
      </trkpt>
      <trkpt lat="44.67939" lon="6.00443">
        <ele>1309</ele>
        <time>2023-05-15T14:20:38Z</time>
      </trkpt>
      <trkpt lat="44.67939" lon="6.00442">
        <ele>1309</ele>
        <time>2023-05-15T14:20:39Z</time>
      </trkpt>
      <trkpt lat="44.67938" lon="6.0044">
        <ele>1309.2</ele>
        <time>2023-05-15T14:20:40Z</time>
      </trkpt>
      <trkpt lat="44.67938" lon="6.00439">
        <ele>1309.2</ele>
        <time>2023-05-15T14:20:41Z</time>
      </trkpt>
      <trkpt lat="44.67937" lon="6.00438">
        <ele>1309.4</ele>
        <time>2023-05-15T14:20:42Z</time>
      </trkpt>
      <trkpt lat="44.67937" lon="6.00436">
        <ele>1309.6</ele>
        <time>2023-05-15T14:20:43Z</time>
      </trkpt>
      <trkpt lat="44.67936" lon="6.00435">
        <ele>1310</ele>
        <time>2023-05-15T14:20:44Z</time>
      </trkpt>
      <trkpt lat="44.67936" lon="6.00434">
        <ele>1310</ele>
        <time>2023-05-15T14:20:45Z</time>
      </trkpt>
      <trkpt lat="44.67936" lon="6.00432">
        <ele>1310.2</ele>
        <time>2023-05-15T14:20:46Z</time>
      </trkpt>
      <trkpt lat="44.67936" lon="6.0043">
        <ele>1310.2</ele>
        <time>2023-05-15T14:20:47Z</time>
      </trkpt>
      <trkpt lat="44.67936" lon="6.00429">
        <ele>1310.4</ele>
        <time>2023-05-15T14:20:48Z</time>
      </trkpt>
      <trkpt lat="44.67935" lon="6.00427">
        <ele>1310.4</ele>
        <time>2023-05-15T14:20:49Z</time>
      </trkpt>
      <trkpt lat="44.67935" lon="6.00427">
        <ele>1310.8</ele>
        <time>2023-05-15T14:20:50Z</time>
      </trkpt>
      <trkpt lat="44.67935" lon="6.00425">
        <ele>1310.8</ele>
        <time>2023-05-15T14:20:51Z</time>
      </trkpt>
      <trkpt lat="44.67935" lon="6.00423">
        <ele>1311</ele>
        <time>2023-05-15T14:20:52Z</time>
      </trkpt>
      <trkpt lat="44.67934" lon="6.00421">
        <ele>1311.2</ele>
        <time>2023-05-15T14:20:53Z</time>
      </trkpt>
      <trkpt lat="44.67934" lon="6.0042">
        <ele>1311.2</ele>
        <time>2023-05-15T14:20:54Z</time>
      </trkpt>
      <trkpt lat="44.67934" lon="6.00418">
        <ele>1311.4</ele>
        <time>2023-05-15T14:20:55Z</time>
      </trkpt>
      <trkpt lat="44.67933" lon="6.00417">
        <ele>1311.6</ele>
        <time>2023-05-15T14:20:56Z</time>
      </trkpt>
      <trkpt lat="44.67932" lon="6.00415">
        <ele>1311.6</ele>
        <time>2023-05-15T14:20:57Z</time>
      </trkpt>
      <trkpt lat="44.67932" lon="6.00414">
        <ele>1311.8</ele>
        <time>2023-05-15T14:20:58Z</time>
      </trkpt>
      <trkpt lat="44.67932" lon="6.00412">
        <ele>1311.8</ele>
        <time>2023-05-15T14:20:59Z</time>
      </trkpt>
      <trkpt lat="44.67931" lon="6.00411">
        <ele>1312</ele>
        <time>2023-05-15T14:21:00Z</time>
      </trkpt>
      <trkpt lat="44.67931" lon="6.00408">
        <ele>1312</ele>
        <time>2023-05-15T14:21:01Z</time>
      </trkpt>
      <trkpt lat="44.67931" lon="6.00407">
        <ele>1312.4</ele>
        <time>2023-05-15T14:21:02Z</time>
      </trkpt>
      <trkpt lat="44.67931" lon="6.00406">
        <ele>1312.4</ele>
        <time>2023-05-15T14:21:03Z</time>
      </trkpt>
      <trkpt lat="44.67931" lon="6.00404">
        <ele>1312.8</ele>
        <time>2023-05-15T14:21:04Z</time>
      </trkpt>
      <trkpt lat="44.67931" lon="6.00404">
        <ele>1312.8</ele>
        <time>2023-05-15T14:21:05Z</time>
      </trkpt>
      <trkpt lat="44.6793" lon="6.00402">
        <ele>1313.2</ele>
        <time>2023-05-15T14:21:06Z</time>
      </trkpt>
      <trkpt lat="44.6793" lon="6.00401">
        <ele>1313.2</ele>
        <time>2023-05-15T14:21:07Z</time>
      </trkpt>
      <trkpt lat="44.6793" lon="6.004">
        <ele>1313.6</ele>
        <time>2023-05-15T14:21:08Z</time>
      </trkpt>
      <trkpt lat="44.6793" lon="6.00399">
        <ele>1313.8</ele>
        <time>2023-05-15T14:21:09Z</time>
      </trkpt>
      <trkpt lat="44.6793" lon="6.00397">
        <ele>1314</ele>
        <time>2023-05-15T14:21:10Z</time>
      </trkpt>
      <trkpt lat="44.67931" lon="6.00395">
        <ele>1314.4</ele>
        <time>2023-05-15T14:21:11Z</time>
      </trkpt>
      <trkpt lat="44.67932" lon="6.00394">
        <ele>1314.4</ele>
        <time>2023-05-15T14:21:12Z</time>
      </trkpt>
      <trkpt lat="44.67932" lon="6.00393">
        <ele>1314.6</ele>
        <time>2023-05-15T14:21:13Z</time>
      </trkpt>
      <trkpt lat="44.67933" lon="6.00392">
        <ele>1314.6</ele>
        <time>2023-05-15T14:21:14Z</time>
      </trkpt>
      <trkpt lat="44.67933" lon="6.00391">
        <ele>1314.8</ele>
        <time>2023-05-15T14:21:15Z</time>
      </trkpt>
      <trkpt lat="44.67933" lon="6.00389">
        <ele>1315</ele>
        <time>2023-05-15T14:21:16Z</time>
      </trkpt>
      <trkpt lat="44.67933" lon="6.00388">
        <ele>1315.2</ele>
        <time>2023-05-15T14:21:17Z</time>
      </trkpt>
      <trkpt lat="44.67933" lon="6.00388">
        <ele>1315.4</ele>
        <time>2023-05-15T14:21:18Z</time>
      </trkpt>
      <trkpt lat="44.67933" lon="6.00387">
        <ele>1315.6</ele>
        <time>2023-05-15T14:21:19Z</time>
      </trkpt>
      <trkpt lat="44.67933" lon="6.00386">
        <ele>1315.8</ele>
        <time>2023-05-15T14:21:20Z</time>
      </trkpt>
      <trkpt lat="44.67933" lon="6.00385">
        <ele>1316</ele>
        <time>2023-05-15T14:21:21Z</time>
      </trkpt>
      <trkpt lat="44.67933" lon="6.00384">
        <ele>1316.2</ele>
        <time>2023-05-15T14:21:22Z</time>
      </trkpt>
      <trkpt lat="44.67934" lon="6.00383">
        <ele>1316.2</ele>
        <time>2023-05-15T14:21:23Z</time>
      </trkpt>
      <trkpt lat="44.67934" lon="6.00381">
        <ele>1316.4</ele>
        <time>2023-05-15T14:21:24Z</time>
      </trkpt>
      <trkpt lat="44.67935" lon="6.0038">
        <ele>1316.6</ele>
        <time>2023-05-15T14:21:25Z</time>
      </trkpt>
      <trkpt lat="44.67935" lon="6.00379">
        <ele>1316.8</ele>
        <time>2023-05-15T14:21:26Z</time>
      </trkpt>
      <trkpt lat="44.67936" lon="6.00378">
        <ele>1316.8</ele>
        <time>2023-05-15T14:21:27Z</time>
      </trkpt>
      <trkpt lat="44.67936" lon="6.00377">
        <ele>1317</ele>
        <time>2023-05-15T14:21:28Z</time>
      </trkpt>
      <trkpt lat="44.67937" lon="6.00376">
        <ele>1317.2</ele>
        <time>2023-05-15T14:21:29Z</time>
      </trkpt>
      <trkpt lat="44.67937" lon="6.00375">
        <ele>1317.2</ele>
        <time>2023-05-15T14:21:30Z</time>
      </trkpt>
      <trkpt lat="44.67938" lon="6.00374">
        <ele>1317.2</ele>
        <time>2023-05-15T14:21:31Z</time>
      </trkpt>
      <trkpt lat="44.67939" lon="6.00373">
        <ele>1317.4</ele>
        <time>2023-05-15T14:21:32Z</time>
      </trkpt>
      <trkpt lat="44.67939" lon="6.00372">
        <ele>1317.4</ele>
        <time>2023-05-15T14:21:33Z</time>
      </trkpt>
      <trkpt lat="44.67939" lon="6.0037">
        <ele>1317.6</ele>
        <time>2023-05-15T14:21:34Z</time>
      </trkpt>
      <trkpt lat="44.6794" lon="6.00369">
        <ele>1317.6</ele>
        <time>2023-05-15T14:21:35Z</time>
      </trkpt>
      <trkpt lat="44.6794" lon="6.00369">
        <ele>1317.8</ele>
        <time>2023-05-15T14:21:36Z</time>
      </trkpt>
      <trkpt lat="44.67941" lon="6.00369">
        <ele>1317.8</ele>
        <time>2023-05-15T14:21:37Z</time>
      </trkpt>
      <trkpt lat="44.67941" lon="6.00368">
        <ele>1318</ele>
        <time>2023-05-15T14:21:38Z</time>
      </trkpt>
      <trkpt lat="44.67942" lon="6.00367">
        <ele>1318</ele>
        <time>2023-05-15T14:21:39Z</time>
      </trkpt>
      <trkpt lat="44.67942" lon="6.00366">
        <ele>1318.2</ele>
        <time>2023-05-15T14:21:40Z</time>
      </trkpt>
      <trkpt lat="44.67943" lon="6.00365">
        <ele>1318.2</ele>
        <time>2023-05-15T14:21:41Z</time>
      </trkpt>
      <trkpt lat="44.67944" lon="6.00364">
        <ele>1318.4</ele>
        <time>2023-05-15T14:21:42Z</time>
      </trkpt>
      <trkpt lat="44.67945" lon="6.00362">
        <ele>1318.4</ele>
        <time>2023-05-15T14:21:43Z</time>
      </trkpt>
      <trkpt lat="44.67946" lon="6.00361">
        <ele>1318.4</ele>
        <time>2023-05-15T14:21:44Z</time>
      </trkpt>
      <trkpt lat="44.67946" lon="6.0036">
        <ele>1318.6</ele>
        <time>2023-05-15T14:21:45Z</time>
      </trkpt>
      <trkpt lat="44.67946" lon="6.0036">
        <ele>1318.8</ele>
        <time>2023-05-15T14:21:46Z</time>
      </trkpt>
      <trkpt lat="44.67947" lon="6.00359">
        <ele>1319</ele>
        <time>2023-05-15T14:21:47Z</time>
      </trkpt>
      <trkpt lat="44.67947" lon="6.00359">
        <ele>1319</ele>
        <time>2023-05-15T14:21:48Z</time>
      </trkpt>
      <trkpt lat="44.67949" lon="6.00359">
        <ele>1319.4</ele>
        <time>2023-05-15T14:21:49Z</time>
      </trkpt>
      <trkpt lat="44.6795" lon="6.00358">
        <ele>1319.4</ele>
        <time>2023-05-15T14:21:50Z</time>
      </trkpt>
      <trkpt lat="44.67951" lon="6.00358">
        <ele>1319.6</ele>
        <time>2023-05-15T14:21:51Z</time>
      </trkpt>
      <trkpt lat="44.67951" lon="6.00357">
        <ele>1319.8</ele>
        <time>2023-05-15T14:21:52Z</time>
      </trkpt>
      <trkpt lat="44.67952" lon="6.00356">
        <ele>1320</ele>
        <time>2023-05-15T14:21:53Z</time>
      </trkpt>
      <trkpt lat="44.67953" lon="6.00356">
        <ele>1320.2</ele>
        <time>2023-05-15T14:21:54Z</time>
      </trkpt>
      <trkpt lat="44.67953" lon="6.00356">
        <ele>1320.2</ele>
        <time>2023-05-15T14:21:55Z</time>
      </trkpt>
      <trkpt lat="44.67954" lon="6.00354">
        <ele>1320.4</ele>
        <time>2023-05-15T14:21:56Z</time>
      </trkpt>
      <trkpt lat="44.67954" lon="6.00354">
        <ele>1320.6</ele>
        <time>2023-05-15T14:21:57Z</time>
      </trkpt>
      <trkpt lat="44.67956" lon="6.00353">
        <ele>1320.8</ele>
        <time>2023-05-15T14:21:58Z</time>
      </trkpt>
      <trkpt lat="44.67957" lon="6.00353">
        <ele>1320.8</ele>
        <time>2023-05-15T14:21:59Z</time>
      </trkpt>
      <trkpt lat="44.67957" lon="6.00353">
        <ele>1321</ele>
        <time>2023-05-15T14:22:00Z</time>
      </trkpt>
      <trkpt lat="44.67957" lon="6.00353">
        <ele>1321.4</ele>
        <time>2023-05-15T14:22:01Z</time>
      </trkpt>
      <trkpt lat="44.67958" lon="6.00351">
        <ele>1321.4</ele>
        <time>2023-05-15T14:22:02Z</time>
      </trkpt>
      <trkpt lat="44.67959" lon="6.0035">
        <ele>1322</ele>
        <time>2023-05-15T14:22:03Z</time>
      </trkpt>
      <trkpt lat="44.6796" lon="6.00349">
        <ele>1322.2</ele>
        <time>2023-05-15T14:22:04Z</time>
      </trkpt>
      <trkpt lat="44.67961" lon="6.00348">
        <ele>1322.4</ele>
        <time>2023-05-15T14:22:05Z</time>
      </trkpt>
      <trkpt lat="44.67961" lon="6.00346">
        <ele>1322.4</ele>
        <time>2023-05-15T14:22:06Z</time>
      </trkpt>
      <trkpt lat="44.67962" lon="6.00345">
        <ele>1322.6</ele>
        <time>2023-05-15T14:22:07Z</time>
      </trkpt>
      <trkpt lat="44.67963" lon="6.00344">
        <ele>1323</ele>
        <time>2023-05-15T14:22:08Z</time>
      </trkpt>
      <trkpt lat="44.67963" lon="6.00343">
        <ele>1323</ele>
        <time>2023-05-15T14:22:09Z</time>
      </trkpt>
      <trkpt lat="44.67965" lon="6.00343">
        <ele>1323.2</ele>
        <time>2023-05-15T14:22:10Z</time>
      </trkpt>
      <trkpt lat="44.67966" lon="6.00343">
        <ele>1323.2</ele>
        <time>2023-05-15T14:22:11Z</time>
      </trkpt>
      <trkpt lat="44.67967" lon="6.00342">
        <ele>1323.4</ele>
        <time>2023-05-15T14:22:12Z</time>
      </trkpt>
      <trkpt lat="44.67968" lon="6.00341">
        <ele>1323.4</ele>
        <time>2023-05-15T14:22:13Z</time>
      </trkpt>
      <trkpt lat="44.67969" lon="6.00339">
        <ele>1323.6</ele>
        <time>2023-05-15T14:22:14Z</time>
      </trkpt>
      <trkpt lat="44.6797" lon="6.00338">
        <ele>1323.8</ele>
        <time>2023-05-15T14:22:15Z</time>
      </trkpt>
      <trkpt lat="44.67971" lon="6.00337">
        <ele>1324</ele>
        <time>2023-05-15T14:22:16Z</time>
      </trkpt>
      <trkpt lat="44.67972" lon="6.00336">
        <ele>1324</ele>
        <time>2023-05-15T14:22:17Z</time>
      </trkpt>
      <trkpt lat="44.67973" lon="6.00335">
        <ele>1324.2</ele>
        <time>2023-05-15T14:22:18Z</time>
      </trkpt>
      <trkpt lat="44.67974" lon="6.00334">
        <ele>1324.2</ele>
        <time>2023-05-15T14:22:19Z</time>
      </trkpt>
      <trkpt lat="44.67974" lon="6.00333">
        <ele>1324.4</ele>
        <time>2023-05-15T14:22:20Z</time>
      </trkpt>
      <trkpt lat="44.67975" lon="6.00332">
        <ele>1324.6</ele>
        <time>2023-05-15T14:22:21Z</time>
      </trkpt>
      <trkpt lat="44.67976" lon="6.00331">
        <ele>1324.6</ele>
        <time>2023-05-15T14:22:22Z</time>
      </trkpt>
      <trkpt lat="44.67977" lon="6.00331">
        <ele>1324.8</ele>
        <time>2023-05-15T14:22:23Z</time>
      </trkpt>
      <trkpt lat="44.67979" lon="6.0033">
        <ele>1324.8</ele>
        <time>2023-05-15T14:22:24Z</time>
      </trkpt>
      <trkpt lat="44.6798" lon="6.00329">
        <ele>1324.8</ele>
        <time>2023-05-15T14:22:25Z</time>
      </trkpt>
      <trkpt lat="44.67981" lon="6.00329">
        <ele>1325</ele>
        <time>2023-05-15T14:22:26Z</time>
      </trkpt>
      <trkpt lat="44.67982" lon="6.00328">
        <ele>1325</ele>
        <time>2023-05-15T14:22:27Z</time>
      </trkpt>
      <trkpt lat="44.67983" lon="6.00326">
        <ele>1325.4</ele>
        <time>2023-05-15T14:22:28Z</time>
      </trkpt>
      <trkpt lat="44.67984" lon="6.00324">
        <ele>1325.4</ele>
        <time>2023-05-15T14:22:29Z</time>
      </trkpt>
      <trkpt lat="44.67986" lon="6.00322">
        <ele>1325.6</ele>
        <time>2023-05-15T14:22:30Z</time>
      </trkpt>
      <trkpt lat="44.67986" lon="6.00321">
        <ele>1325.8</ele>
        <time>2023-05-15T14:22:31Z</time>
      </trkpt>
      <trkpt lat="44.67987" lon="6.00319">
        <ele>1326</ele>
        <time>2023-05-15T14:22:32Z</time>
      </trkpt>
      <trkpt lat="44.67987" lon="6.00317">
        <ele>1326.2</ele>
        <time>2023-05-15T14:22:33Z</time>
      </trkpt>
      <trkpt lat="44.67987" lon="6.00316">
        <ele>1326.4</ele>
        <time>2023-05-15T14:22:34Z</time>
      </trkpt>
      <trkpt lat="44.67987" lon="6.00315">
        <ele>1326.8</ele>
        <time>2023-05-15T14:22:35Z</time>
      </trkpt>
      <trkpt lat="44.67988" lon="6.00314">
        <ele>1327</ele>
        <time>2023-05-15T14:22:36Z</time>
      </trkpt>
      <trkpt lat="44.67989" lon="6.00314">
        <ele>1327</ele>
        <time>2023-05-15T14:22:37Z</time>
      </trkpt>
      <trkpt lat="44.67989" lon="6.00312">
        <ele>1327.2</ele>
        <time>2023-05-15T14:22:38Z</time>
      </trkpt>
      <trkpt lat="44.67988" lon="6.00311">
        <ele>1327.2</ele>
        <time>2023-05-15T14:22:39Z</time>
      </trkpt>
      <trkpt lat="44.67988" lon="6.0031">
        <ele>1327.4</ele>
        <time>2023-05-15T14:22:40Z</time>
      </trkpt>
      <trkpt lat="44.6799" lon="6.0031">
        <ele>1327.4</ele>
        <time>2023-05-15T14:22:41Z</time>
      </trkpt>
      <trkpt lat="44.6799" lon="6.00308">
        <ele>1327.6</ele>
        <time>2023-05-15T14:22:42Z</time>
      </trkpt>
      <trkpt lat="44.6799" lon="6.00309">
        <ele>1327.8</ele>
        <time>2023-05-15T14:22:43Z</time>
      </trkpt>
      <trkpt lat="44.6799" lon="6.00307">
        <ele>1327.8</ele>
        <time>2023-05-15T14:22:44Z</time>
      </trkpt>
      <trkpt lat="44.67991" lon="6.00306">
        <ele>1328</ele>
        <time>2023-05-15T14:22:45Z</time>
      </trkpt>
      <trkpt lat="44.67991" lon="6.00303">
        <ele>1328.2</ele>
        <time>2023-05-15T14:22:46Z</time>
      </trkpt>
      <trkpt lat="44.67991" lon="6.00301">
        <ele>1328.2</ele>
        <time>2023-05-15T14:22:47Z</time>
      </trkpt>
      <trkpt lat="44.67992" lon="6.00299">
        <ele>1328.2</ele>
        <time>2023-05-15T14:22:48Z</time>
      </trkpt>
      <trkpt lat="44.67992" lon="6.00298">
        <ele>1328.4</ele>
        <time>2023-05-15T14:22:49Z</time>
      </trkpt>
      <trkpt lat="44.67992" lon="6.00299">
        <ele>1328.4</ele>
        <time>2023-05-15T14:22:50Z</time>
      </trkpt>
      <trkpt lat="44.67993" lon="6.00299">
        <ele>1328.6</ele>
        <time>2023-05-15T14:22:51Z</time>
      </trkpt>
      <trkpt lat="44.67994" lon="6.00299">
        <ele>1328.8</ele>
        <time>2023-05-15T14:22:52Z</time>
      </trkpt>
      <trkpt lat="44.67995" lon="6.00298">
        <ele>1329</ele>
        <time>2023-05-15T14:22:53Z</time>
      </trkpt>
      <trkpt lat="44.67995" lon="6.00297">
        <ele>1329</ele>
        <time>2023-05-15T14:22:54Z</time>
      </trkpt>
      <trkpt lat="44.67996" lon="6.00296">
        <ele>1329.2</ele>
        <time>2023-05-15T14:22:55Z</time>
      </trkpt>
      <trkpt lat="44.67997" lon="6.00294">
        <ele>1329.2</ele>
        <time>2023-05-15T14:22:56Z</time>
      </trkpt>
      <trkpt lat="44.67997" lon="6.00294">
        <ele>1329.2</ele>
        <time>2023-05-15T14:22:57Z</time>
      </trkpt>
      <trkpt lat="44.67998" lon="6.00291">
        <ele>1329.4</ele>
        <time>2023-05-15T14:22:58Z</time>
      </trkpt>
      <trkpt lat="44.67999" lon="6.0029">
        <ele>1329.4</ele>
        <time>2023-05-15T14:22:59Z</time>
      </trkpt>
      <trkpt lat="44.68" lon="6.0029">
        <ele>1329.4</ele>
        <time>2023-05-15T14:23:00Z</time>
      </trkpt>
      <trkpt lat="44.68001" lon="6.00289">
        <ele>1329.6</ele>
        <time>2023-05-15T14:23:01Z</time>
      </trkpt>
      <trkpt lat="44.68002" lon="6.00287">
        <ele>1329.6</ele>
        <time>2023-05-15T14:23:02Z</time>
      </trkpt>
      <trkpt lat="44.68003" lon="6.00285">
        <ele>1329.6</ele>
        <time>2023-05-15T14:23:03Z</time>
      </trkpt>
      <trkpt lat="44.68004" lon="6.00283">
        <ele>1329.8</ele>
        <time>2023-05-15T14:23:04Z</time>
      </trkpt>
      <trkpt lat="44.68005" lon="6.00281">
        <ele>1329.8</ele>
        <time>2023-05-15T14:23:05Z</time>
      </trkpt>
      <trkpt lat="44.68006" lon="6.0028">
        <ele>1329.8</ele>
        <time>2023-05-15T14:23:06Z</time>
      </trkpt>
      <trkpt lat="44.68007" lon="6.00279">
        <ele>1330</ele>
        <time>2023-05-15T14:23:07Z</time>
      </trkpt>
      <trkpt lat="44.68008" lon="6.00277">
        <ele>1330.2</ele>
        <time>2023-05-15T14:23:08Z</time>
      </trkpt>
      <trkpt lat="44.68008" lon="6.00277">
        <ele>1330.4</ele>
        <time>2023-05-15T14:23:09Z</time>
      </trkpt>
      <trkpt lat="44.68008" lon="6.00276">
        <ele>1330.4</ele>
        <time>2023-05-15T14:23:10Z</time>
      </trkpt>
      <trkpt lat="44.68009" lon="6.00275">
        <ele>1330.6</ele>
        <time>2023-05-15T14:23:11Z</time>
      </trkpt>
      <trkpt lat="44.6801" lon="6.00275">
        <ele>1330.6</ele>
        <time>2023-05-15T14:23:12Z</time>
      </trkpt>
      <trkpt lat="44.68013" lon="6.00275">
        <ele>1330.8</ele>
        <time>2023-05-15T14:23:13Z</time>
      </trkpt>
      <trkpt lat="44.68014" lon="6.00275">
        <ele>1330.8</ele>
        <time>2023-05-15T14:23:14Z</time>
      </trkpt>
      <trkpt lat="44.68016" lon="6.00274">
        <ele>1331</ele>
        <time>2023-05-15T14:23:15Z</time>
      </trkpt>
      <trkpt lat="44.68017" lon="6.00273">
        <ele>1331</ele>
        <time>2023-05-15T14:23:16Z</time>
      </trkpt>
      <trkpt lat="44.68019" lon="6.00271">
        <ele>1331.2</ele>
        <time>2023-05-15T14:23:17Z</time>
      </trkpt>
      <trkpt lat="44.68022" lon="6.00268">
        <ele>1331.4</ele>
        <time>2023-05-15T14:23:18Z</time>
      </trkpt>
      <trkpt lat="44.68024" lon="6.00268">
        <ele>1331.6</ele>
        <time>2023-05-15T14:23:19Z</time>
      </trkpt>
      <trkpt lat="44.68026" lon="6.00266">
        <ele>1331.8</ele>
        <time>2023-05-15T14:23:20Z</time>
      </trkpt>
      <trkpt lat="44.68028" lon="6.00265">
        <ele>1331.8</ele>
        <time>2023-05-15T14:23:21Z</time>
      </trkpt>
      <trkpt lat="44.6803" lon="6.00263">
        <ele>1332</ele>
        <time>2023-05-15T14:23:22Z</time>
      </trkpt>
      <trkpt lat="44.68032" lon="6.00262">
        <ele>1332.2</ele>
        <time>2023-05-15T14:23:23Z</time>
      </trkpt>
      <trkpt lat="44.68033" lon="6.00261">
        <ele>1332.2</ele>
        <time>2023-05-15T14:23:24Z</time>
      </trkpt>
      <trkpt lat="44.68034" lon="6.0026">
        <ele>1332.4</ele>
        <time>2023-05-15T14:23:25Z</time>
      </trkpt>
      <trkpt lat="44.68036" lon="6.00259">
        <ele>1332.4</ele>
        <time>2023-05-15T14:23:26Z</time>
      </trkpt>
      <trkpt lat="44.68037" lon="6.00259">
        <ele>1332.6</ele>
        <time>2023-05-15T14:23:27Z</time>
      </trkpt>
      <trkpt lat="44.68038" lon="6.00258">
        <ele>1332.6</ele>
        <time>2023-05-15T14:23:28Z</time>
      </trkpt>
      <trkpt lat="44.6804" lon="6.00258">
        <ele>1332.8</ele>
        <time>2023-05-15T14:23:29Z</time>
      </trkpt>
      <trkpt lat="44.68042" lon="6.00258">
        <ele>1333</ele>
        <time>2023-05-15T14:23:30Z</time>
      </trkpt>
      <trkpt lat="44.68044" lon="6.00257">
        <ele>1333.2</ele>
        <time>2023-05-15T14:23:31Z</time>
      </trkpt>
      <trkpt lat="44.68046" lon="6.00256">
        <ele>1333.2</ele>
        <time>2023-05-15T14:23:32Z</time>
      </trkpt>
      <trkpt lat="44.68048" lon="6.00254">
        <ele>1333.4</ele>
        <time>2023-05-15T14:23:33Z</time>
      </trkpt>
      <trkpt lat="44.6805" lon="6.00254">
        <ele>1333.4</ele>
        <time>2023-05-15T14:23:34Z</time>
      </trkpt>
      <trkpt lat="44.68052" lon="6.0025">
        <ele>1333.6</ele>
        <time>2023-05-15T14:23:35Z</time>
      </trkpt>
      <trkpt lat="44.68052" lon="6.00247">
        <ele>1333.6</ele>
        <time>2023-05-15T14:23:36Z</time>
      </trkpt>
      <trkpt lat="44.68052" lon="6.00246">
        <ele>1333.6</ele>
        <time>2023-05-15T14:23:37Z</time>
      </trkpt>
      <trkpt lat="44.68053" lon="6.00246">
        <ele>1333.8</ele>
        <time>2023-05-15T14:23:38Z</time>
      </trkpt>
      <trkpt lat="44.68054" lon="6.00246">
        <ele>1333.8</ele>
        <time>2023-05-15T14:23:39Z</time>
      </trkpt>
      <trkpt lat="44.68055" lon="6.00245">
        <ele>1334</ele>
        <time>2023-05-15T14:23:40Z</time>
      </trkpt>
      <trkpt lat="44.68056" lon="6.00244">
        <ele>1334</ele>
        <time>2023-05-15T14:23:41Z</time>
      </trkpt>
      <trkpt lat="44.68057" lon="6.00243">
        <ele>1334</ele>
        <time>2023-05-15T14:23:42Z</time>
      </trkpt>
      <trkpt lat="44.68058" lon="6.00242">
        <ele>1334.2</ele>
        <time>2023-05-15T14:23:43Z</time>
      </trkpt>
      <trkpt lat="44.6806" lon="6.0024">
        <ele>1334.4</ele>
        <time>2023-05-15T14:23:44Z</time>
      </trkpt>
      <trkpt lat="44.6806" lon="6.0024">
        <ele>1334.6</ele>
        <time>2023-05-15T14:23:45Z</time>
      </trkpt>
      <trkpt lat="44.68061" lon="6.00239">
        <ele>1334.6</ele>
        <time>2023-05-15T14:23:46Z</time>
      </trkpt>
      <trkpt lat="44.68062" lon="6.00238">
        <ele>1334.6</ele>
        <time>2023-05-15T14:23:47Z</time>
      </trkpt>
      <trkpt lat="44.68064" lon="6.00238">
        <ele>1334.6</ele>
        <time>2023-05-15T14:23:48Z</time>
      </trkpt>
      <trkpt lat="44.68065" lon="6.00237">
        <ele>1334.8</ele>
        <time>2023-05-15T14:23:49Z</time>
      </trkpt>
      <trkpt lat="44.68067" lon="6.00238">
        <ele>1334.8</ele>
        <time>2023-05-15T14:23:50Z</time>
      </trkpt>
      <trkpt lat="44.68069" lon="6.00237">
        <ele>1334.8</ele>
        <time>2023-05-15T14:23:51Z</time>
      </trkpt>
      <trkpt lat="44.6807" lon="6.00236">
        <ele>1335</ele>
        <time>2023-05-15T14:23:52Z</time>
      </trkpt>
      <trkpt lat="44.68072" lon="6.00235">
        <ele>1335</ele>
        <time>2023-05-15T14:23:53Z</time>
      </trkpt>
      <trkpt lat="44.68073" lon="6.00233">
        <ele>1335.4</ele>
        <time>2023-05-15T14:23:54Z</time>
      </trkpt>
      <trkpt lat="44.68074" lon="6.00232">
        <ele>1335.4</ele>
        <time>2023-05-15T14:23:55Z</time>
      </trkpt>
      <trkpt lat="44.68075" lon="6.00229">
        <ele>1335.6</ele>
        <time>2023-05-15T14:23:57Z</time>
      </trkpt>
      <trkpt lat="44.68077" lon="6.00225">
        <ele>1335.8</ele>
        <time>2023-05-15T14:23:59Z</time>
      </trkpt>
      <trkpt lat="44.68078" lon="6.00224">
        <ele>1336</ele>
        <time>2023-05-15T14:24:00Z</time>
      </trkpt>
      <trkpt lat="44.6808" lon="6.00224">
        <ele>1336</ele>
        <time>2023-05-15T14:24:01Z</time>
      </trkpt>
      <trkpt lat="44.68081" lon="6.00223">
        <ele>1336.2</ele>
        <time>2023-05-15T14:24:02Z</time>
      </trkpt>
      <trkpt lat="44.68082" lon="6.00223">
        <ele>1336.2</ele>
        <time>2023-05-15T14:24:03Z</time>
      </trkpt>
      <trkpt lat="44.68083" lon="6.00223">
        <ele>1336.4</ele>
        <time>2023-05-15T14:24:04Z</time>
      </trkpt>
      <trkpt lat="44.68083" lon="6.00223">
        <ele>1336.4</ele>
        <time>2023-05-15T14:24:05Z</time>
      </trkpt>
      <trkpt lat="44.68083" lon="6.00223">
        <ele>1336.6</ele>
        <time>2023-05-15T14:24:06Z</time>
      </trkpt>
      <trkpt lat="44.68083" lon="6.00223">
        <ele>1336.6</ele>
        <time>2023-05-15T14:24:07Z</time>
      </trkpt>
      <trkpt lat="44.68083" lon="6.00223">
        <ele>1336.6</ele>
        <time>2023-05-15T14:24:08Z</time>
      </trkpt>
      <trkpt lat="44.68083" lon="6.00223">
        <ele>1336.8</ele>
        <time>2023-05-15T14:24:09Z</time>
      </trkpt>
      <trkpt lat="44.68083" lon="6.00223">
        <ele>1337</ele>
        <time>2023-05-15T14:24:21Z</time>
      </trkpt>
      <trkpt lat="44.68083" lon="6.00223">
        <ele>1336.8</ele>
        <time>2023-05-15T14:24:34Z</time>
      </trkpt>
      <trkpt lat="44.68083" lon="6.00223">
        <ele>1336.8</ele>
        <time>2023-05-15T14:24:45Z</time>
      </trkpt>
      <trkpt lat="44.68083" lon="6.00223">
        <ele>1336.6</ele>
        <time>2023-05-15T14:24:51Z</time>
      </trkpt>
      <trkpt lat="44.68083" lon="6.00223">
        <ele>1336.8</ele>
        <time>2023-05-15T14:25:00Z</time>
      </trkpt>
      <trkpt lat="44.68088" lon="6.00218">
        <ele>1337</ele>
        <time>2023-05-15T14:25:06Z</time>
      </trkpt>
      <trkpt lat="44.6809" lon="6.00216">
        <ele>1337</ele>
        <time>2023-05-15T14:25:07Z</time>
      </trkpt>
      <trkpt lat="44.68094" lon="6.00214">
        <ele>1337.2</ele>
        <time>2023-05-15T14:25:10Z</time>
      </trkpt>
      <trkpt lat="44.68095" lon="6.00214">
        <ele>1337.4</ele>
        <time>2023-05-15T14:25:12Z</time>
      </trkpt>
      <trkpt lat="44.68096" lon="6.00214">
        <ele>1337.4</ele>
        <time>2023-05-15T14:25:13Z</time>
      </trkpt>
      <trkpt lat="44.68096" lon="6.00214">
        <ele>1337.4</ele>
        <time>2023-05-15T14:25:14Z</time>
      </trkpt>
      <trkpt lat="44.68097" lon="6.00211">
        <ele>1337.6</ele>
        <time>2023-05-15T14:25:15Z</time>
      </trkpt>
      <trkpt lat="44.68098" lon="6.0021">
        <ele>1337.6</ele>
        <time>2023-05-15T14:25:16Z</time>
      </trkpt>
      <trkpt lat="44.681" lon="6.0021">
        <ele>1337.6</ele>
        <time>2023-05-15T14:25:17Z</time>
      </trkpt>
      <trkpt lat="44.68101" lon="6.0021">
        <ele>1337.8</ele>
        <time>2023-05-15T14:25:18Z</time>
      </trkpt>
      <trkpt lat="44.68102" lon="6.0021">
        <ele>1338</ele>
        <time>2023-05-15T14:25:19Z</time>
      </trkpt>
      <trkpt lat="44.68104" lon="6.00209">
        <ele>1338.2</ele>
        <time>2023-05-15T14:25:20Z</time>
      </trkpt>
      <trkpt lat="44.68105" lon="6.00209">
        <ele>1338.4</ele>
        <time>2023-05-15T14:25:21Z</time>
      </trkpt>
      <trkpt lat="44.68107" lon="6.00209">
        <ele>1338.4</ele>
        <time>2023-05-15T14:25:22Z</time>
      </trkpt>
      <trkpt lat="44.6811" lon="6.00208">
        <ele>1338.6</ele>
        <time>2023-05-15T14:25:23Z</time>
      </trkpt>
      <trkpt lat="44.68115" lon="6.00209">
        <ele>1339.2</ele>
        <time>2023-05-15T14:25:26Z</time>
      </trkpt>
      <trkpt lat="44.68117" lon="6.00209">
        <ele>1339.4</ele>
        <time>2023-05-15T14:25:28Z</time>
      </trkpt>
      <trkpt lat="44.68119" lon="6.00209">
        <ele>1339.6</ele>
        <time>2023-05-15T14:25:29Z</time>
      </trkpt>
      <trkpt lat="44.6812" lon="6.00208">
        <ele>1339.6</ele>
        <time>2023-05-15T14:25:30Z</time>
      </trkpt>
      <trkpt lat="44.68123" lon="6.00208">
        <ele>1340</ele>
        <time>2023-05-15T14:25:32Z</time>
      </trkpt>
      <trkpt lat="44.68124" lon="6.00208">
        <ele>1340.2</ele>
        <time>2023-05-15T14:25:33Z</time>
      </trkpt>
      <trkpt lat="44.68126" lon="6.00207">
        <ele>1340.4</ele>
        <time>2023-05-15T14:25:34Z</time>
      </trkpt>
      <trkpt lat="44.68127" lon="6.00207">
        <ele>1340.8</ele>
        <time>2023-05-15T14:25:35Z</time>
      </trkpt>
      <trkpt lat="44.68127" lon="6.00207">
        <ele>1340.8</ele>
        <time>2023-05-15T14:25:36Z</time>
      </trkpt>
      <trkpt lat="44.68128" lon="6.00208">
        <ele>1341.2</ele>
        <time>2023-05-15T14:25:37Z</time>
      </trkpt>
      <trkpt lat="44.6813" lon="6.00208">
        <ele>1341.2</ele>
        <time>2023-05-15T14:25:38Z</time>
      </trkpt>
      <trkpt lat="44.68131" lon="6.00208">
        <ele>1341.4</ele>
        <time>2023-05-15T14:25:39Z</time>
      </trkpt>
      <trkpt lat="44.68132" lon="6.00208">
        <ele>1341.6</ele>
        <time>2023-05-15T14:25:40Z</time>
      </trkpt>
      <trkpt lat="44.68134" lon="6.00207">
        <ele>1341.6</ele>
        <time>2023-05-15T14:25:41Z</time>
      </trkpt>
      <trkpt lat="44.68134" lon="6.00206">
        <ele>1341.8</ele>
        <time>2023-05-15T14:25:42Z</time>
      </trkpt>
      <trkpt lat="44.68135" lon="6.00205">
        <ele>1341.8</ele>
        <time>2023-05-15T14:25:43Z</time>
      </trkpt>
      <trkpt lat="44.68136" lon="6.00203">
        <ele>1342</ele>
        <time>2023-05-15T14:25:44Z</time>
      </trkpt>
      <trkpt lat="44.68137" lon="6.00202">
        <ele>1342</ele>
        <time>2023-05-15T14:25:45Z</time>
      </trkpt>
      <trkpt lat="44.68139" lon="6.002">
        <ele>1342</ele>
        <time>2023-05-15T14:25:46Z</time>
      </trkpt>
      <trkpt lat="44.68141" lon="6.00198">
        <ele>1342.2</ele>
        <time>2023-05-15T14:25:47Z</time>
      </trkpt>
      <trkpt lat="44.68143" lon="6.00198">
        <ele>1342.2</ele>
        <time>2023-05-15T14:25:48Z</time>
      </trkpt>
      <trkpt lat="44.68144" lon="6.00196">
        <ele>1342.2</ele>
        <time>2023-05-15T14:25:49Z</time>
      </trkpt>
      <trkpt lat="44.68144" lon="6.00196">
        <ele>1342.2</ele>
        <time>2023-05-15T14:25:50Z</time>
      </trkpt>
      <trkpt lat="44.68146" lon="6.00195">
        <ele>1342.4</ele>
        <time>2023-05-15T14:25:51Z</time>
      </trkpt>
      <trkpt lat="44.68146" lon="6.00195">
        <ele>1342.6</ele>
        <time>2023-05-15T14:25:52Z</time>
      </trkpt>
      <trkpt lat="44.68146" lon="6.00195">
        <ele>1342.8</ele>
        <time>2023-05-15T14:25:53Z</time>
      </trkpt>
      <trkpt lat="44.68146" lon="6.00194">
        <ele>1343</ele>
        <time>2023-05-15T14:25:54Z</time>
      </trkpt>
      <trkpt lat="44.68148" lon="6.00193">
        <ele>1343.2</ele>
        <time>2023-05-15T14:25:55Z</time>
      </trkpt>
      <trkpt lat="44.68149" lon="6.00191">
        <ele>1343.2</ele>
        <time>2023-05-15T14:25:56Z</time>
      </trkpt>
      <trkpt lat="44.68149" lon="6.0019">
        <ele>1343.4</ele>
        <time>2023-05-15T14:25:57Z</time>
      </trkpt>
      <trkpt lat="44.6815" lon="6.00188">
        <ele>1343.4</ele>
        <time>2023-05-15T14:25:58Z</time>
      </trkpt>
      <trkpt lat="44.68152" lon="6.00186">
        <ele>1343.4</ele>
        <time>2023-05-15T14:25:59Z</time>
      </trkpt>
      <trkpt lat="44.68154" lon="6.00184">
        <ele>1343.6</ele>
        <time>2023-05-15T14:26:00Z</time>
      </trkpt>
      <trkpt lat="44.68155" lon="6.00183">
        <ele>1343.8</ele>
        <time>2023-05-15T14:26:01Z</time>
      </trkpt>
      <trkpt lat="44.68156" lon="6.00181">
        <ele>1344</ele>
        <time>2023-05-15T14:26:02Z</time>
      </trkpt>
      <trkpt lat="44.68158" lon="6.0018">
        <ele>1344</ele>
        <time>2023-05-15T14:26:03Z</time>
      </trkpt>
      <trkpt lat="44.68159" lon="6.0018">
        <ele>1344.2</ele>
        <time>2023-05-15T14:26:04Z</time>
      </trkpt>
      <trkpt lat="44.68161" lon="6.00179">
        <ele>1344.4</ele>
        <time>2023-05-15T14:26:05Z</time>
      </trkpt>
      <trkpt lat="44.68162" lon="6.00178">
        <ele>1344.6</ele>
        <time>2023-05-15T14:26:06Z</time>
      </trkpt>
      <trkpt lat="44.68163" lon="6.00177">
        <ele>1344.8</ele>
        <time>2023-05-15T14:26:07Z</time>
      </trkpt>
      <trkpt lat="44.68164" lon="6.00176">
        <ele>1344.8</ele>
        <time>2023-05-15T14:26:08Z</time>
      </trkpt>
      <trkpt lat="44.68166" lon="6.00175">
        <ele>1345</ele>
        <time>2023-05-15T14:26:09Z</time>
      </trkpt>
      <trkpt lat="44.68167" lon="6.00172">
        <ele>1345</ele>
        <time>2023-05-15T14:26:10Z</time>
      </trkpt>
      <trkpt lat="44.68167" lon="6.00172">
        <ele>1345.2</ele>
        <time>2023-05-15T14:26:11Z</time>
      </trkpt>
      <trkpt lat="44.68169" lon="6.00171">
        <ele>1345.2</ele>
        <time>2023-05-15T14:26:12Z</time>
      </trkpt>
      <trkpt lat="44.6817" lon="6.0017">
        <ele>1345.4</ele>
        <time>2023-05-15T14:26:13Z</time>
      </trkpt>
      <trkpt lat="44.68171" lon="6.0017">
        <ele>1345.6</ele>
        <time>2023-05-15T14:26:14Z</time>
      </trkpt>
      <trkpt lat="44.68172" lon="6.00169">
        <ele>1345.6</ele>
        <time>2023-05-15T14:26:15Z</time>
      </trkpt>
      <trkpt lat="44.68173" lon="6.00168">
        <ele>1345.8</ele>
        <time>2023-05-15T14:26:16Z</time>
      </trkpt>
      <trkpt lat="44.68173" lon="6.00168">
        <ele>1346</ele>
        <time>2023-05-15T14:26:17Z</time>
      </trkpt>
      <trkpt lat="44.68174" lon="6.00167">
        <ele>1346.2</ele>
        <time>2023-05-15T14:26:18Z</time>
      </trkpt>
      <trkpt lat="44.68175" lon="6.00166">
        <ele>1346.2</ele>
        <time>2023-05-15T14:26:19Z</time>
      </trkpt>
      <trkpt lat="44.68175" lon="6.00166">
        <ele>1346.4</ele>
        <time>2023-05-15T14:26:20Z</time>
      </trkpt>
      <trkpt lat="44.68176" lon="6.00165">
        <ele>1346.6</ele>
        <time>2023-05-15T14:26:21Z</time>
      </trkpt>
      <trkpt lat="44.68178" lon="6.00164">
        <ele>1346.8</ele>
        <time>2023-05-15T14:26:22Z</time>
      </trkpt>
      <trkpt lat="44.68178" lon="6.00164">
        <ele>1346.8</ele>
        <time>2023-05-15T14:26:23Z</time>
      </trkpt>
      <trkpt lat="44.68178" lon="6.00164">
        <ele>1347</ele>
        <time>2023-05-15T14:26:24Z</time>
      </trkpt>
      <trkpt lat="44.68179" lon="6.00163">
        <ele>1347.2</ele>
        <time>2023-05-15T14:26:25Z</time>
      </trkpt>
      <trkpt lat="44.68181" lon="6.00161">
        <ele>1347.2</ele>
        <time>2023-05-15T14:26:26Z</time>
      </trkpt>
      <trkpt lat="44.68182" lon="6.00159">
        <ele>1347.4</ele>
        <time>2023-05-15T14:26:27Z</time>
      </trkpt>
      <trkpt lat="44.68183" lon="6.00157">
        <ele>1347.4</ele>
        <time>2023-05-15T14:26:28Z</time>
      </trkpt>
      <trkpt lat="44.68184" lon="6.00155">
        <ele>1347.6</ele>
        <time>2023-05-15T14:26:29Z</time>
      </trkpt>
      <trkpt lat="44.68186" lon="6.00155">
        <ele>1347.8</ele>
        <time>2023-05-15T14:26:30Z</time>
      </trkpt>
      <trkpt lat="44.68188" lon="6.00154">
        <ele>1347.8</ele>
        <time>2023-05-15T14:26:31Z</time>
      </trkpt>
      <trkpt lat="44.6819" lon="6.00153">
        <ele>1347.8</ele>
        <time>2023-05-15T14:26:32Z</time>
      </trkpt>
      <trkpt lat="44.68191" lon="6.00151">
        <ele>1348</ele>
        <time>2023-05-15T14:26:33Z</time>
      </trkpt>
      <trkpt lat="44.68193" lon="6.0015">
        <ele>1348</ele>
        <time>2023-05-15T14:26:34Z</time>
      </trkpt>
      <trkpt lat="44.68195" lon="6.00149">
        <ele>1348</ele>
        <time>2023-05-15T14:26:35Z</time>
      </trkpt>
      <trkpt lat="44.68197" lon="6.00148">
        <ele>1348</ele>
        <time>2023-05-15T14:26:36Z</time>
      </trkpt>
      <trkpt lat="44.68198" lon="6.00146">
        <ele>1348</ele>
        <time>2023-05-15T14:26:37Z</time>
      </trkpt>
      <trkpt lat="44.68201" lon="6.00144">
        <ele>1348</ele>
        <time>2023-05-15T14:26:38Z</time>
      </trkpt>
      <trkpt lat="44.68202" lon="6.00144">
        <ele>1348.2</ele>
        <time>2023-05-15T14:26:39Z</time>
      </trkpt>
      <trkpt lat="44.68202" lon="6.00143">
        <ele>1348.2</ele>
        <time>2023-05-15T14:26:40Z</time>
      </trkpt>
      <trkpt lat="44.68203" lon="6.00143">
        <ele>1348.4</ele>
        <time>2023-05-15T14:26:41Z</time>
      </trkpt>
      <trkpt lat="44.68204" lon="6.00142">
        <ele>1348.4</ele>
        <time>2023-05-15T14:26:42Z</time>
      </trkpt>
      <trkpt lat="44.68205" lon="6.00141">
        <ele>1348.4</ele>
        <time>2023-05-15T14:26:43Z</time>
      </trkpt>
      <trkpt lat="44.68207" lon="6.00141">
        <ele>1348.4</ele>
        <time>2023-05-15T14:26:44Z</time>
      </trkpt>
      <trkpt lat="44.68209" lon="6.0014">
        <ele>1348.6</ele>
        <time>2023-05-15T14:26:45Z</time>
      </trkpt>
      <trkpt lat="44.6821" lon="6.0014">
        <ele>1348.6</ele>
        <time>2023-05-15T14:26:46Z</time>
      </trkpt>
      <trkpt lat="44.68211" lon="6.00139">
        <ele>1348.8</ele>
        <time>2023-05-15T14:26:47Z</time>
      </trkpt>
      <trkpt lat="44.68212" lon="6.00138">
        <ele>1349</ele>
        <time>2023-05-15T14:26:48Z</time>
      </trkpt>
      <trkpt lat="44.68214" lon="6.00137">
        <ele>1349</ele>
        <time>2023-05-15T14:26:49Z</time>
      </trkpt>
      <trkpt lat="44.68215" lon="6.00136">
        <ele>1349</ele>
        <time>2023-05-15T14:26:50Z</time>
      </trkpt>
      <trkpt lat="44.68216" lon="6.00136">
        <ele>1349.2</ele>
        <time>2023-05-15T14:26:51Z</time>
      </trkpt>
      <trkpt lat="44.68219" lon="6.00132">
        <ele>1349.6</ele>
        <time>2023-05-15T14:26:54Z</time>
      </trkpt>
      <trkpt lat="44.68221" lon="6.00128">
        <ele>1350</ele>
        <time>2023-05-15T14:26:56Z</time>
      </trkpt>
      <trkpt lat="44.68222" lon="6.00126">
        <ele>1350.2</ele>
        <time>2023-05-15T14:26:57Z</time>
      </trkpt>
      <trkpt lat="44.68223" lon="6.00124">
        <ele>1350.2</ele>
        <time>2023-05-15T14:26:58Z</time>
      </trkpt>
      <trkpt lat="44.68226" lon="6.0012">
        <ele>1350.6</ele>
        <time>2023-05-15T14:27:00Z</time>
      </trkpt>
      <trkpt lat="44.68227" lon="6.00119">
        <ele>1350.6</ele>
        <time>2023-05-15T14:27:01Z</time>
      </trkpt>
      <trkpt lat="44.68228" lon="6.00117">
        <ele>1350.8</ele>
        <time>2023-05-15T14:27:02Z</time>
      </trkpt>
      <trkpt lat="44.68228" lon="6.00115">
        <ele>1351</ele>
        <time>2023-05-15T14:27:03Z</time>
      </trkpt>
      <trkpt lat="44.68228" lon="6.00112">
        <ele>1351.2</ele>
        <time>2023-05-15T14:27:04Z</time>
      </trkpt>
      <trkpt lat="44.68228" lon="6.00111">
        <ele>1351.2</ele>
        <time>2023-05-15T14:27:05Z</time>
      </trkpt>
      <trkpt lat="44.68228" lon="6.00108">
        <ele>1351.4</ele>
        <time>2023-05-15T14:27:06Z</time>
      </trkpt>
      <trkpt lat="44.68229" lon="6.00107">
        <ele>1351.4</ele>
        <time>2023-05-15T14:27:07Z</time>
      </trkpt>
      <trkpt lat="44.6823" lon="6.00105">
        <ele>1351.6</ele>
        <time>2023-05-15T14:27:08Z</time>
      </trkpt>
      <trkpt lat="44.6823" lon="6.00102">
        <ele>1351.6</ele>
        <time>2023-05-15T14:27:09Z</time>
      </trkpt>
      <trkpt lat="44.68229" lon="6.001">
        <ele>1351.8</ele>
        <time>2023-05-15T14:27:10Z</time>
      </trkpt>
      <trkpt lat="44.68229" lon="6.00098">
        <ele>1351.8</ele>
        <time>2023-05-15T14:27:11Z</time>
      </trkpt>
      <trkpt lat="44.68228" lon="6.00097">
        <ele>1351.8</ele>
        <time>2023-05-15T14:27:12Z</time>
      </trkpt>
      <trkpt lat="44.68227" lon="6.00095">
        <ele>1351.8</ele>
        <time>2023-05-15T14:27:13Z</time>
      </trkpt>
      <trkpt lat="44.68227" lon="6.00092">
        <ele>1351.8</ele>
        <time>2023-05-15T14:27:14Z</time>
      </trkpt>
      <trkpt lat="44.68228" lon="6.00089">
        <ele>1352</ele>
        <time>2023-05-15T14:27:15Z</time>
      </trkpt>
      <trkpt lat="44.68228" lon="6.00086">
        <ele>1352</ele>
        <time>2023-05-15T14:27:16Z</time>
      </trkpt>
      <trkpt lat="44.68228" lon="6.00082">
        <ele>1352</ele>
        <time>2023-05-15T14:27:17Z</time>
      </trkpt>
      <trkpt lat="44.68228" lon="6.00079">
        <ele>1352.2</ele>
        <time>2023-05-15T14:27:18Z</time>
      </trkpt>
      <trkpt lat="44.68229" lon="6.00077">
        <ele>1352.4</ele>
        <time>2023-05-15T14:27:19Z</time>
      </trkpt>
      <trkpt lat="44.68229" lon="6.00076">
        <ele>1352.4</ele>
        <time>2023-05-15T14:27:20Z</time>
      </trkpt>
      <trkpt lat="44.68229" lon="6.00074">
        <ele>1352.6</ele>
        <time>2023-05-15T14:27:21Z</time>
      </trkpt>
      <trkpt lat="44.68229" lon="6.00074">
        <ele>1352.8</ele>
        <time>2023-05-15T14:27:22Z</time>
      </trkpt>
      <trkpt lat="44.6823" lon="6.00072">
        <ele>1353</ele>
        <time>2023-05-15T14:27:25Z</time>
      </trkpt>
      <trkpt lat="44.6823" lon="6.0007">
        <ele>1353</ele>
        <time>2023-05-15T14:27:26Z</time>
      </trkpt>
      <trkpt lat="44.68231" lon="6.00068">
        <ele>1353.2</ele>
        <time>2023-05-15T14:27:27Z</time>
      </trkpt>
      <trkpt lat="44.68231" lon="6.00067">
        <ele>1353.2</ele>
        <time>2023-05-15T14:27:28Z</time>
      </trkpt>
      <trkpt lat="44.68231" lon="6.00065">
        <ele>1353.2</ele>
        <time>2023-05-15T14:27:29Z</time>
      </trkpt>
      <trkpt lat="44.68231" lon="6.00064">
        <ele>1353.4</ele>
        <time>2023-05-15T14:27:30Z</time>
      </trkpt>
      <trkpt lat="44.68231" lon="6.00061">
        <ele>1353.4</ele>
        <time>2023-05-15T14:27:31Z</time>
      </trkpt>
      <trkpt lat="44.68232" lon="6.00058">
        <ele>1353.6</ele>
        <time>2023-05-15T14:27:33Z</time>
      </trkpt>
      <trkpt lat="44.68234" lon="6.00054">
        <ele>1354</ele>
        <time>2023-05-15T14:27:35Z</time>
      </trkpt>
      <trkpt lat="44.68234" lon="6.00052">
        <ele>1354.2</ele>
        <time>2023-05-15T14:27:36Z</time>
      </trkpt>
      <trkpt lat="44.68237" lon="6.00045">
        <ele>1354.4</ele>
        <time>2023-05-15T14:27:39Z</time>
      </trkpt>
      <trkpt lat="44.68238" lon="6.00043">
        <ele>1354.6</ele>
        <time>2023-05-15T14:27:40Z</time>
      </trkpt>
      <trkpt lat="44.68239" lon="6.00041">
        <ele>1354.6</ele>
        <time>2023-05-15T14:27:41Z</time>
      </trkpt>
      <trkpt lat="44.68239" lon="6.0004">
        <ele>1354.8</ele>
        <time>2023-05-15T14:27:42Z</time>
      </trkpt>
      <trkpt lat="44.6824" lon="6.00039">
        <ele>1354.8</ele>
        <time>2023-05-15T14:27:43Z</time>
      </trkpt>
      <trkpt lat="44.68241" lon="6.00038">
        <ele>1354.8</ele>
        <time>2023-05-15T14:27:44Z</time>
      </trkpt>
      <trkpt lat="44.68242" lon="6.00038">
        <ele>1355</ele>
        <time>2023-05-15T14:27:45Z</time>
      </trkpt>
      <trkpt lat="44.68243" lon="6.00038">
        <ele>1355</ele>
        <time>2023-05-15T14:27:46Z</time>
      </trkpt>
      <trkpt lat="44.68245" lon="6.00037">
        <ele>1355</ele>
        <time>2023-05-15T14:27:47Z</time>
      </trkpt>
      <trkpt lat="44.68246" lon="6.00037">
        <ele>1355.2</ele>
        <time>2023-05-15T14:27:48Z</time>
      </trkpt>
      <trkpt lat="44.68247" lon="6.00036">
        <ele>1355.4</ele>
        <time>2023-05-15T14:27:49Z</time>
      </trkpt>
      <trkpt lat="44.68249" lon="6.00036">
        <ele>1355.4</ele>
        <time>2023-05-15T14:27:50Z</time>
      </trkpt>
      <trkpt lat="44.68249" lon="6.00037">
        <ele>1355.6</ele>
        <time>2023-05-15T14:27:51Z</time>
      </trkpt>
      <trkpt lat="44.6825" lon="6.00037">
        <ele>1355.6</ele>
        <time>2023-05-15T14:27:52Z</time>
      </trkpt>
      <trkpt lat="44.68251" lon="6.00037">
        <ele>1355.8</ele>
        <time>2023-05-15T14:27:53Z</time>
      </trkpt>
      <trkpt lat="44.68252" lon="6.00036">
        <ele>1356</ele>
        <time>2023-05-15T14:27:54Z</time>
      </trkpt>
      <trkpt lat="44.68253" lon="6.00036">
        <ele>1356.2</ele>
        <time>2023-05-15T14:27:55Z</time>
      </trkpt>
      <trkpt lat="44.68254" lon="6.00035">
        <ele>1356.2</ele>
        <time>2023-05-15T14:27:56Z</time>
      </trkpt>
      <trkpt lat="44.68255" lon="6.00034">
        <ele>1356.2</ele>
        <time>2023-05-15T14:27:57Z</time>
      </trkpt>
      <trkpt lat="44.68256" lon="6.00033">
        <ele>1356.6</ele>
        <time>2023-05-15T14:27:58Z</time>
      </trkpt>
      <trkpt lat="44.68257" lon="6.00032">
        <ele>1356.6</ele>
        <time>2023-05-15T14:27:59Z</time>
      </trkpt>
      <trkpt lat="44.68258" lon="6.00032">
        <ele>1356.8</ele>
        <time>2023-05-15T14:28:00Z</time>
      </trkpt>
      <trkpt lat="44.68259" lon="6.00031">
        <ele>1357</ele>
        <time>2023-05-15T14:28:01Z</time>
      </trkpt>
      <trkpt lat="44.68261" lon="6.00031">
        <ele>1357</ele>
        <time>2023-05-15T14:28:02Z</time>
      </trkpt>
      <trkpt lat="44.68262" lon="6.0003">
        <ele>1357</ele>
        <time>2023-05-15T14:28:03Z</time>
      </trkpt>
      <trkpt lat="44.68264" lon="6.0003">
        <ele>1357.2</ele>
        <time>2023-05-15T14:28:04Z</time>
      </trkpt>
      <trkpt lat="44.68265" lon="6.0003">
        <ele>1357.4</ele>
        <time>2023-05-15T14:28:05Z</time>
      </trkpt>
      <trkpt lat="44.68266" lon="6.00029">
        <ele>1357.8</ele>
        <time>2023-05-15T14:28:06Z</time>
      </trkpt>
      <trkpt lat="44.68268" lon="6.00027">
        <ele>1358</ele>
        <time>2023-05-15T14:28:07Z</time>
      </trkpt>
      <trkpt lat="44.68269" lon="6.00025">
        <ele>1358.2</ele>
        <time>2023-05-15T14:28:08Z</time>
      </trkpt>
      <trkpt lat="44.6827" lon="6.00023">
        <ele>1358.4</ele>
        <time>2023-05-15T14:28:09Z</time>
      </trkpt>
      <trkpt lat="44.68271" lon="6.00021">
        <ele>1358.6</ele>
        <time>2023-05-15T14:28:10Z</time>
      </trkpt>
      <trkpt lat="44.68272" lon="6.00019">
        <ele>1358.8</ele>
        <time>2023-05-15T14:28:11Z</time>
      </trkpt>
      <trkpt lat="44.68273" lon="6.00017">
        <ele>1358.8</ele>
        <time>2023-05-15T14:28:12Z</time>
      </trkpt>
      <trkpt lat="44.68274" lon="6.00016">
        <ele>1358.8</ele>
        <time>2023-05-15T14:28:13Z</time>
      </trkpt>
      <trkpt lat="44.68274" lon="6.00014">
        <ele>1359</ele>
        <time>2023-05-15T14:28:14Z</time>
      </trkpt>
      <trkpt lat="44.68275" lon="6.00012">
        <ele>1359.2</ele>
        <time>2023-05-15T14:28:15Z</time>
      </trkpt>
      <trkpt lat="44.68275" lon="6.00011">
        <ele>1359.2</ele>
        <time>2023-05-15T14:28:16Z</time>
      </trkpt>
      <trkpt lat="44.68276" lon="6.00009">
        <ele>1359.4</ele>
        <time>2023-05-15T14:28:17Z</time>
      </trkpt>
      <trkpt lat="44.68277" lon="6.00007">
        <ele>1359.6</ele>
        <time>2023-05-15T14:28:18Z</time>
      </trkpt>
      <trkpt lat="44.68279" lon="6.00006">
        <ele>1359.6</ele>
        <time>2023-05-15T14:28:19Z</time>
      </trkpt>
      <trkpt lat="44.6828" lon="6.00004">
        <ele>1359.4</ele>
        <time>2023-05-15T14:28:20Z</time>
      </trkpt>
      <trkpt lat="44.68281" lon="6.00003">
        <ele>1359.6</ele>
        <time>2023-05-15T14:28:21Z</time>
      </trkpt>
      <trkpt lat="44.68281" lon="6.00001">
        <ele>1360</ele>
        <time>2023-05-15T14:28:22Z</time>
      </trkpt>
      <trkpt lat="44.68282" lon="6.00001">
        <ele>1360</ele>
        <time>2023-05-15T14:28:23Z</time>
      </trkpt>
      <trkpt lat="44.68282" lon="6">
        <ele>1360</ele>
        <time>2023-05-15T14:28:24Z</time>
      </trkpt>
      <trkpt lat="44.68283" lon="5.99999">
        <ele>1360</ele>
        <time>2023-05-15T14:28:25Z</time>
      </trkpt>
      <trkpt lat="44.68284" lon="5.99997">
        <ele>1360</ele>
        <time>2023-05-15T14:28:26Z</time>
      </trkpt>
      <trkpt lat="44.68285" lon="5.99996">
        <ele>1360.2</ele>
        <time>2023-05-15T14:28:27Z</time>
      </trkpt>
      <trkpt lat="44.68286" lon="5.99994">
        <ele>1360.2</ele>
        <time>2023-05-15T14:28:28Z</time>
      </trkpt>
      <trkpt lat="44.68287" lon="5.99992">
        <ele>1360.2</ele>
        <time>2023-05-15T14:28:29Z</time>
      </trkpt>
      <trkpt lat="44.68288" lon="5.9999">
        <ele>1360.2</ele>
        <time>2023-05-15T14:28:30Z</time>
      </trkpt>
      <trkpt lat="44.6829" lon="5.9999">
        <ele>1360.2</ele>
        <time>2023-05-15T14:28:31Z</time>
      </trkpt>
      <trkpt lat="44.68291" lon="5.99988">
        <ele>1360.2</ele>
        <time>2023-05-15T14:28:32Z</time>
      </trkpt>
      <trkpt lat="44.68292" lon="5.99987">
        <ele>1360.4</ele>
        <time>2023-05-15T14:28:33Z</time>
      </trkpt>
      <trkpt lat="44.68293" lon="5.99986">
        <ele>1360.4</ele>
        <time>2023-05-15T14:28:34Z</time>
      </trkpt>
      <trkpt lat="44.68294" lon="5.99985">
        <ele>1360.4</ele>
        <time>2023-05-15T14:28:35Z</time>
      </trkpt>
      <trkpt lat="44.68295" lon="5.99984">
        <ele>1360.6</ele>
        <time>2023-05-15T14:28:36Z</time>
      </trkpt>
      <trkpt lat="44.68298" lon="5.99981">
        <ele>1360.8</ele>
        <time>2023-05-15T14:28:38Z</time>
      </trkpt>
      <trkpt lat="44.68306" lon="5.99974">
        <ele>1361.6</ele>
        <time>2023-05-15T14:28:44Z</time>
      </trkpt>
      <trkpt lat="44.68307" lon="5.99973">
        <ele>1361.8</ele>
        <time>2023-05-15T14:28:45Z</time>
      </trkpt>
      <trkpt lat="44.68308" lon="5.99971">
        <ele>1362</ele>
        <time>2023-05-15T14:28:46Z</time>
      </trkpt>
      <trkpt lat="44.68313" lon="5.99967">
        <ele>1362.4</ele>
        <time>2023-05-15T14:28:49Z</time>
      </trkpt>
      <trkpt lat="44.68315" lon="5.99967">
        <ele>1362.6</ele>
        <time>2023-05-15T14:28:50Z</time>
      </trkpt>
      <trkpt lat="44.68316" lon="5.99967">
        <ele>1362.6</ele>
        <time>2023-05-15T14:28:51Z</time>
      </trkpt>
      <trkpt lat="44.68317" lon="5.99966">
        <ele>1362.8</ele>
        <time>2023-05-15T14:28:52Z</time>
      </trkpt>
      <trkpt lat="44.68318" lon="5.99965">
        <ele>1362.8</ele>
        <time>2023-05-15T14:28:53Z</time>
      </trkpt>
      <trkpt lat="44.68319" lon="5.99964">
        <ele>1363</ele>
        <time>2023-05-15T14:28:54Z</time>
      </trkpt>
      <trkpt lat="44.6832" lon="5.99963">
        <ele>1363</ele>
        <time>2023-05-15T14:28:55Z</time>
      </trkpt>
      <trkpt lat="44.68321" lon="5.99962">
        <ele>1363.2</ele>
        <time>2023-05-15T14:28:56Z</time>
      </trkpt>
      <trkpt lat="44.68322" lon="5.99962">
        <ele>1363.2</ele>
        <time>2023-05-15T14:28:57Z</time>
      </trkpt>
      <trkpt lat="44.68322" lon="5.99962">
        <ele>1363.2</ele>
        <time>2023-05-15T14:28:58Z</time>
      </trkpt>
      <trkpt lat="44.68323" lon="5.99961">
        <ele>1363.4</ele>
        <time>2023-05-15T14:28:59Z</time>
      </trkpt>
      <trkpt lat="44.68324" lon="5.99961">
        <ele>1363.4</ele>
        <time>2023-05-15T14:29:00Z</time>
      </trkpt>
      <trkpt lat="44.68325" lon="5.99962">
        <ele>1363.6</ele>
        <time>2023-05-15T14:29:01Z</time>
      </trkpt>
      <trkpt lat="44.68326" lon="5.9996">
        <ele>1363.6</ele>
        <time>2023-05-15T14:29:02Z</time>
      </trkpt>
      <trkpt lat="44.68327" lon="5.99958">
        <ele>1363.8</ele>
        <time>2023-05-15T14:29:03Z</time>
      </trkpt>
      <trkpt lat="44.68328" lon="5.99957">
        <ele>1364</ele>
        <time>2023-05-15T14:29:04Z</time>
      </trkpt>
      <trkpt lat="44.6833" lon="5.99956">
        <ele>1364</ele>
        <time>2023-05-15T14:29:05Z</time>
      </trkpt>
      <trkpt lat="44.68331" lon="5.99954">
        <ele>1364</ele>
        <time>2023-05-15T14:29:06Z</time>
      </trkpt>
      <trkpt lat="44.68331" lon="5.99954">
        <ele>1364.2</ele>
        <time>2023-05-15T14:29:07Z</time>
      </trkpt>
      <trkpt lat="44.68332" lon="5.99953">
        <ele>1364.2</ele>
        <time>2023-05-15T14:29:08Z</time>
      </trkpt>
      <trkpt lat="44.68332" lon="5.99953">
        <ele>1364.4</ele>
        <time>2023-05-15T14:29:09Z</time>
      </trkpt>
      <trkpt lat="44.68332" lon="5.99953">
        <ele>1364.6</ele>
        <time>2023-05-15T14:29:10Z</time>
      </trkpt>
      <trkpt lat="44.68333" lon="5.99953">
        <ele>1364.6</ele>
        <time>2023-05-15T14:29:11Z</time>
      </trkpt>
      <trkpt lat="44.68333" lon="5.99953">
        <ele>1364.8</ele>
        <time>2023-05-15T14:29:12Z</time>
      </trkpt>
      <trkpt lat="44.68333" lon="5.99953">
        <ele>1365</ele>
        <time>2023-05-15T14:29:13Z</time>
      </trkpt>
      <trkpt lat="44.68333" lon="5.99953">
        <ele>1365</ele>
        <time>2023-05-15T14:29:18Z</time>
      </trkpt>
      <trkpt lat="44.68333" lon="5.99953">
        <ele>1365</ele>
        <time>2023-05-15T14:29:20Z</time>
      </trkpt>
      <trkpt lat="44.68334" lon="5.99952">
        <ele>1365.6</ele>
        <time>2023-05-15T14:29:25Z</time>
      </trkpt>
      <trkpt lat="44.68336" lon="5.9995">
        <ele>1365.6</ele>
        <time>2023-05-15T14:29:29Z</time>
      </trkpt>
      <trkpt lat="44.68336" lon="5.9995">
        <ele>1365.6</ele>
        <time>2023-05-15T14:29:30Z</time>
      </trkpt>
      <trkpt lat="44.68337" lon="5.9995">
        <ele>1365.8</ele>
        <time>2023-05-15T14:29:31Z</time>
      </trkpt>
      <trkpt lat="44.68342" lon="5.99944">
        <ele>1366</ele>
        <time>2023-05-15T14:29:35Z</time>
      </trkpt>
      <trkpt lat="44.68342" lon="5.99941">
        <ele>1366</ele>
        <time>2023-05-15T14:29:36Z</time>
      </trkpt>
      <trkpt lat="44.68343" lon="5.99939">
        <ele>1366.2</ele>
        <time>2023-05-15T14:29:37Z</time>
      </trkpt>
      <trkpt lat="44.68344" lon="5.99936">
        <ele>1366.2</ele>
        <time>2023-05-15T14:29:38Z</time>
      </trkpt>
      <trkpt lat="44.68346" lon="5.99935">
        <ele>1366.8</ele>
        <time>2023-05-15T14:29:39Z</time>
      </trkpt>
      <trkpt lat="44.68349" lon="5.99931">
        <ele>1367.2</ele>
        <time>2023-05-15T14:29:41Z</time>
      </trkpt>
      <trkpt lat="44.68349" lon="5.99929">
        <ele>1367.2</ele>
        <time>2023-05-15T14:29:42Z</time>
      </trkpt>
      <trkpt lat="44.68351" lon="5.99926">
        <ele>1367.6</ele>
        <time>2023-05-15T14:29:44Z</time>
      </trkpt>
      <trkpt lat="44.68352" lon="5.99925">
        <ele>1367.6</ele>
        <time>2023-05-15T14:29:45Z</time>
      </trkpt>
      <trkpt lat="44.68353" lon="5.99924">
        <ele>1367.8</ele>
        <time>2023-05-15T14:29:46Z</time>
      </trkpt>
      <trkpt lat="44.68353" lon="5.99921">
        <ele>1368</ele>
        <time>2023-05-15T14:29:47Z</time>
      </trkpt>
      <trkpt lat="44.68353" lon="5.9992">
        <ele>1368</ele>
        <time>2023-05-15T14:29:48Z</time>
      </trkpt>
      <trkpt lat="44.68354" lon="5.99918">
        <ele>1368.2</ele>
        <time>2023-05-15T14:29:49Z</time>
      </trkpt>
      <trkpt lat="44.68354" lon="5.99918">
        <ele>1368.2</ele>
        <time>2023-05-15T14:29:50Z</time>
      </trkpt>
      <trkpt lat="44.68355" lon="5.99917">
        <ele>1368.2</ele>
        <time>2023-05-15T14:29:51Z</time>
      </trkpt>
      <trkpt lat="44.68355" lon="5.99915">
        <ele>1368.6</ele>
        <time>2023-05-15T14:29:52Z</time>
      </trkpt>
      <trkpt lat="44.68354" lon="5.99913">
        <ele>1368.6</ele>
        <time>2023-05-15T14:29:53Z</time>
      </trkpt>
      <trkpt lat="44.68354" lon="5.9991">
        <ele>1368.8</ele>
        <time>2023-05-15T14:29:54Z</time>
      </trkpt>
      <trkpt lat="44.68354" lon="5.99908">
        <ele>1368.8</ele>
        <time>2023-05-15T14:29:55Z</time>
      </trkpt>
      <trkpt lat="44.68355" lon="5.99906">
        <ele>1369</ele>
        <time>2023-05-15T14:29:56Z</time>
      </trkpt>
      <trkpt lat="44.68355" lon="5.99904">
        <ele>1369</ele>
        <time>2023-05-15T14:29:57Z</time>
      </trkpt>
      <trkpt lat="44.68355" lon="5.99904">
        <ele>1369.2</ele>
        <time>2023-05-15T14:29:58Z</time>
      </trkpt>
      <trkpt lat="44.68355" lon="5.99904">
        <ele>1369.6</ele>
        <time>2023-05-15T14:29:59Z</time>
      </trkpt>
      <trkpt lat="44.68355" lon="5.99904">
        <ele>1369.8</ele>
        <time>2023-05-15T14:30:00Z</time>
      </trkpt>
      <trkpt lat="44.68355" lon="5.99904">
        <ele>1370.4</ele>
        <time>2023-05-15T14:30:03Z</time>
      </trkpt>
      <trkpt lat="44.68355" lon="5.99904">
        <ele>1370.6</ele>
        <time>2023-05-15T14:30:09Z</time>
      </trkpt>
      <trkpt lat="44.68354" lon="5.99903">
        <ele>1370.4</ele>
        <time>2023-05-15T14:30:17Z</time>
      </trkpt>
      <trkpt lat="44.68356" lon="5.999">
        <ele>1370.6</ele>
        <time>2023-05-15T14:30:20Z</time>
      </trkpt>
      <trkpt lat="44.68361" lon="5.99895">
        <ele>1370.8</ele>
        <time>2023-05-15T14:30:24Z</time>
      </trkpt>
      <trkpt lat="44.68362" lon="5.99894">
        <ele>1371</ele>
        <time>2023-05-15T14:30:25Z</time>
      </trkpt>
      <trkpt lat="44.68363" lon="5.99893">
        <ele>1371.2</ele>
        <time>2023-05-15T14:30:26Z</time>
      </trkpt>
      <trkpt lat="44.68365" lon="5.99891">
        <ele>1371.6</ele>
        <time>2023-05-15T14:30:27Z</time>
      </trkpt>
      <trkpt lat="44.68366" lon="5.9989">
        <ele>1372</ele>
        <time>2023-05-15T14:30:28Z</time>
      </trkpt>
      <trkpt lat="44.68371" lon="5.99888">
        <ele>1372.8</ele>
        <time>2023-05-15T14:30:32Z</time>
      </trkpt>
      <trkpt lat="44.68372" lon="5.99886">
        <ele>1373</ele>
        <time>2023-05-15T14:30:33Z</time>
      </trkpt>
      <trkpt lat="44.68374" lon="5.99884">
        <ele>1373</ele>
        <time>2023-05-15T14:30:34Z</time>
      </trkpt>
      <trkpt lat="44.68375" lon="5.99884">
        <ele>1373.2</ele>
        <time>2023-05-15T14:30:35Z</time>
      </trkpt>
      <trkpt lat="44.68376" lon="5.99882">
        <ele>1373.2</ele>
        <time>2023-05-15T14:30:36Z</time>
      </trkpt>
      <trkpt lat="44.68378" lon="5.9988">
        <ele>1373.4</ele>
        <time>2023-05-15T14:30:37Z</time>
      </trkpt>
      <trkpt lat="44.68378" lon="5.99879">
        <ele>1373.4</ele>
        <time>2023-05-15T14:30:38Z</time>
      </trkpt>
      <trkpt lat="44.6838" lon="5.99877">
        <ele>1373.4</ele>
        <time>2023-05-15T14:30:39Z</time>
      </trkpt>
      <trkpt lat="44.68381" lon="5.99876">
        <ele>1373.4</ele>
        <time>2023-05-15T14:30:40Z</time>
      </trkpt>
      <trkpt lat="44.68382" lon="5.99874">
        <ele>1373.4</ele>
        <time>2023-05-15T14:30:41Z</time>
      </trkpt>
      <trkpt lat="44.68384" lon="5.99872">
        <ele>1373.6</ele>
        <time>2023-05-15T14:30:42Z</time>
      </trkpt>
      <trkpt lat="44.68384" lon="5.9987">
        <ele>1373.6</ele>
        <time>2023-05-15T14:30:43Z</time>
      </trkpt>
      <trkpt lat="44.68385" lon="5.99868">
        <ele>1373.6</ele>
        <time>2023-05-15T14:30:44Z</time>
      </trkpt>
      <trkpt lat="44.68385" lon="5.99866">
        <ele>1373.6</ele>
        <time>2023-05-15T14:30:45Z</time>
      </trkpt>
      <trkpt lat="44.68386" lon="5.99866">
        <ele>1373.8</ele>
        <time>2023-05-15T14:30:46Z</time>
      </trkpt>
      <trkpt lat="44.68387" lon="5.99865">
        <ele>1373.8</ele>
        <time>2023-05-15T14:30:47Z</time>
      </trkpt>
      <trkpt lat="44.68388" lon="5.99865">
        <ele>1373.8</ele>
        <time>2023-05-15T14:30:48Z</time>
      </trkpt>
      <trkpt lat="44.68388" lon="5.99865">
        <ele>1374</ele>
        <time>2023-05-15T14:30:49Z</time>
      </trkpt>
      <trkpt lat="44.68388" lon="5.99863">
        <ele>1374.2</ele>
        <time>2023-05-15T14:30:50Z</time>
      </trkpt>
      <trkpt lat="44.68388" lon="5.99861">
        <ele>1374.2</ele>
        <time>2023-05-15T14:30:51Z</time>
      </trkpt>
      <trkpt lat="44.68388" lon="5.99859">
        <ele>1374.2</ele>
        <time>2023-05-15T14:30:52Z</time>
      </trkpt>
      <trkpt lat="44.68389" lon="5.99855">
        <ele>1374.6</ele>
        <time>2023-05-15T14:30:54Z</time>
      </trkpt>
      <trkpt lat="44.68389" lon="5.99854">
        <ele>1374.6</ele>
        <time>2023-05-15T14:30:55Z</time>
      </trkpt>
      <trkpt lat="44.68389" lon="5.99852">
        <ele>1374.8</ele>
        <time>2023-05-15T14:30:56Z</time>
      </trkpt>
      <trkpt lat="44.6839" lon="5.99851">
        <ele>1374.8</ele>
        <time>2023-05-15T14:30:57Z</time>
      </trkpt>
      <trkpt lat="44.6839" lon="5.99849">
        <ele>1375</ele>
        <time>2023-05-15T14:30:58Z</time>
      </trkpt>
      <trkpt lat="44.6839" lon="5.99847">
        <ele>1375</ele>
        <time>2023-05-15T14:30:59Z</time>
      </trkpt>
      <trkpt lat="44.6839" lon="5.99845">
        <ele>1375.2</ele>
        <time>2023-05-15T14:31:00Z</time>
      </trkpt>
      <trkpt lat="44.68391" lon="5.99841">
        <ele>1375.2</ele>
        <time>2023-05-15T14:31:02Z</time>
      </trkpt>
      <trkpt lat="44.68391" lon="5.99837">
        <ele>1375.4</ele>
        <time>2023-05-15T14:31:04Z</time>
      </trkpt>
      <trkpt lat="44.68393" lon="5.99832">
        <ele>1375.8</ele>
        <time>2023-05-15T14:31:07Z</time>
      </trkpt>
      <trkpt lat="44.68393" lon="5.99831">
        <ele>1376.2</ele>
        <time>2023-05-15T14:31:09Z</time>
      </trkpt>
      <trkpt lat="44.68393" lon="5.9983">
        <ele>1376.2</ele>
        <time>2023-05-15T14:31:10Z</time>
      </trkpt>
      <trkpt lat="44.68393" lon="5.99829">
        <ele>1376.4</ele>
        <time>2023-05-15T14:31:11Z</time>
      </trkpt>
      <trkpt lat="44.68393" lon="5.99827">
        <ele>1376.8</ele>
        <time>2023-05-15T14:31:12Z</time>
      </trkpt>
      <trkpt lat="44.68394" lon="5.99827">
        <ele>1376.8</ele>
        <time>2023-05-15T14:31:13Z</time>
      </trkpt>
      <trkpt lat="44.68394" lon="5.99826">
        <ele>1377</ele>
        <time>2023-05-15T14:31:14Z</time>
      </trkpt>
      <trkpt lat="44.68394" lon="5.99825">
        <ele>1377</ele>
        <time>2023-05-15T14:31:15Z</time>
      </trkpt>
      <trkpt lat="44.68394" lon="5.99824">
        <ele>1377.2</ele>
        <time>2023-05-15T14:31:16Z</time>
      </trkpt>
      <trkpt lat="44.68395" lon="5.99822">
        <ele>1377.2</ele>
        <time>2023-05-15T14:31:17Z</time>
      </trkpt>
      <trkpt lat="44.68395" lon="5.99821">
        <ele>1377.6</ele>
        <time>2023-05-15T14:31:18Z</time>
      </trkpt>
      <trkpt lat="44.68396" lon="5.9982">
        <ele>1377.6</ele>
        <time>2023-05-15T14:31:19Z</time>
      </trkpt>
      <trkpt lat="44.68397" lon="5.9982">
        <ele>1377.8</ele>
        <time>2023-05-15T14:31:20Z</time>
      </trkpt>
      <trkpt lat="44.68397" lon="5.99819">
        <ele>1378.2</ele>
        <time>2023-05-15T14:31:21Z</time>
      </trkpt>
      <trkpt lat="44.68398" lon="5.99818">
        <ele>1378.2</ele>
        <time>2023-05-15T14:31:22Z</time>
      </trkpt>
      <trkpt lat="44.68399" lon="5.99817">
        <ele>1378.4</ele>
        <time>2023-05-15T14:31:23Z</time>
      </trkpt>
      <trkpt lat="44.684" lon="5.99816">
        <ele>1378.4</ele>
        <time>2023-05-15T14:31:24Z</time>
      </trkpt>
      <trkpt lat="44.68401" lon="5.99814">
        <ele>1378.6</ele>
        <time>2023-05-15T14:31:25Z</time>
      </trkpt>
      <trkpt lat="44.68401" lon="5.99812">
        <ele>1378.8</ele>
        <time>2023-05-15T14:31:26Z</time>
      </trkpt>
      <trkpt lat="44.68402" lon="5.99811">
        <ele>1379</ele>
        <time>2023-05-15T14:31:27Z</time>
      </trkpt>
      <trkpt lat="44.68403" lon="5.9981">
        <ele>1379</ele>
        <time>2023-05-15T14:31:28Z</time>
      </trkpt>
      <trkpt lat="44.68404" lon="5.99809">
        <ele>1379.2</ele>
        <time>2023-05-15T14:31:29Z</time>
      </trkpt>
      <trkpt lat="44.68405" lon="5.99809">
        <ele>1379.4</ele>
        <time>2023-05-15T14:31:30Z</time>
      </trkpt>
      <trkpt lat="44.68406" lon="5.99808">
        <ele>1379.4</ele>
        <time>2023-05-15T14:31:31Z</time>
      </trkpt>
      <trkpt lat="44.68406" lon="5.99808">
        <ele>1379.4</ele>
        <time>2023-05-15T14:31:32Z</time>
      </trkpt>
      <trkpt lat="44.68406" lon="5.99808">
        <ele>1379.8</ele>
        <time>2023-05-15T14:31:36Z</time>
      </trkpt>
      <trkpt lat="44.68406" lon="5.99808">
        <ele>1379.8</ele>
        <time>2023-05-15T14:32:02Z</time>
      </trkpt>
      <trkpt lat="44.68406" lon="5.99807">
        <ele>1379.4</ele>
        <time>2023-05-15T14:32:13Z</time>
      </trkpt>
      <trkpt lat="44.68406" lon="5.99807">
        <ele>1378.2</ele>
        <time>2023-05-15T14:32:21Z</time>
      </trkpt>
      <trkpt lat="44.68406" lon="5.99807">
        <ele>1378.6</ele>
        <time>2023-05-15T14:32:31Z</time>
      </trkpt>
      <trkpt lat="44.68406" lon="5.99807">
        <ele>1378.2</ele>
        <time>2023-05-15T14:32:42Z</time>
      </trkpt>
      <trkpt lat="44.68407" lon="5.99808">
        <ele>1378</ele>
        <time>2023-05-15T14:32:49Z</time>
      </trkpt>
      <trkpt lat="44.68407" lon="5.99808">
        <ele>1378.6</ele>
        <time>2023-05-15T14:33:00Z</time>
      </trkpt>
      <trkpt lat="44.68408" lon="5.99809">
        <ele>1378.8</ele>
        <time>2023-05-15T14:33:03Z</time>
      </trkpt>
      <trkpt lat="44.68411" lon="5.9981">
        <ele>1378.6</ele>
        <time>2023-05-15T14:33:05Z</time>
      </trkpt>
      <trkpt lat="44.68415" lon="5.9981">
        <ele>1378.8</ele>
        <time>2023-05-15T14:33:06Z</time>
      </trkpt>
      <trkpt lat="44.68425" lon="5.99814">
        <ele>1378.4</ele>
        <time>2023-05-15T14:33:09Z</time>
      </trkpt>
      <trkpt lat="44.68429" lon="5.99817">
        <ele>1378.4</ele>
        <time>2023-05-15T14:33:10Z</time>
      </trkpt>
      <trkpt lat="44.68434" lon="5.99824">
        <ele>1378</ele>
        <time>2023-05-15T14:33:12Z</time>
      </trkpt>
      <trkpt lat="44.68436" lon="5.99829">
        <ele>1376.8</ele>
        <time>2023-05-15T14:33:13Z</time>
      </trkpt>
      <trkpt lat="44.68439" lon="5.99834">
        <ele>1376.2</ele>
        <time>2023-05-15T14:33:14Z</time>
      </trkpt>
      <trkpt lat="44.68442" lon="5.99839">
        <ele>1375</ele>
        <time>2023-05-15T14:33:15Z</time>
      </trkpt>
      <trkpt lat="44.68446" lon="5.99843">
        <ele>1374</ele>
        <time>2023-05-15T14:33:16Z</time>
      </trkpt>
      <trkpt lat="44.68448" lon="5.99847">
        <ele>1373.6</ele>
        <time>2023-05-15T14:33:17Z</time>
      </trkpt>
      <trkpt lat="44.6845" lon="5.99853">
        <ele>1373</ele>
        <time>2023-05-15T14:33:18Z</time>
      </trkpt>
      <trkpt lat="44.68455" lon="5.99863">
        <ele>1370.8</ele>
        <time>2023-05-15T14:33:20Z</time>
      </trkpt>
      <trkpt lat="44.68459" lon="5.99865">
        <ele>1370.2</ele>
        <time>2023-05-15T14:33:21Z</time>
      </trkpt>
      <trkpt lat="44.68462" lon="5.99867">
        <ele>1369</ele>
        <time>2023-05-15T14:33:22Z</time>
      </trkpt>
      <trkpt lat="44.68464" lon="5.99869">
        <ele>1368.2</ele>
        <time>2023-05-15T14:33:23Z</time>
      </trkpt>
      <trkpt lat="44.68467" lon="5.9987">
        <ele>1366.8</ele>
        <time>2023-05-15T14:33:24Z</time>
      </trkpt>
      <trkpt lat="44.6847" lon="5.99871">
        <ele>1365.4</ele>
        <time>2023-05-15T14:33:25Z</time>
      </trkpt>
      <trkpt lat="44.68474" lon="5.99872">
        <ele>1365</ele>
        <time>2023-05-15T14:33:26Z</time>
      </trkpt>
      <trkpt lat="44.68476" lon="5.99874">
        <ele>1364</ele>
        <time>2023-05-15T14:33:27Z</time>
      </trkpt>
      <trkpt lat="44.68476" lon="5.99874">
        <ele>1363.2</ele>
        <time>2023-05-15T14:33:28Z</time>
      </trkpt>
      <trkpt lat="44.68476" lon="5.99874">
        <ele>1362.2</ele>
        <time>2023-05-15T14:33:29Z</time>
      </trkpt>
      <trkpt lat="44.68476" lon="5.99874">
        <ele>1361</ele>
        <time>2023-05-15T14:33:31Z</time>
      </trkpt>
      <trkpt lat="44.68476" lon="5.99874">
        <ele>1359.6</ele>
        <time>2023-05-15T14:33:33Z</time>
      </trkpt>
      <trkpt lat="44.68476" lon="5.99874">
        <ele>1358.4</ele>
        <time>2023-05-15T14:33:37Z</time>
      </trkpt>
      <trkpt lat="44.68478" lon="5.99878">
        <ele>1358.2</ele>
        <time>2023-05-15T14:33:40Z</time>
      </trkpt>
      <trkpt lat="44.68479" lon="5.99879">
        <ele>1358.2</ele>
        <time>2023-05-15T14:33:41Z</time>
      </trkpt>
      <trkpt lat="44.68479" lon="5.99881">
        <ele>1358.2</ele>
        <time>2023-05-15T14:33:42Z</time>
      </trkpt>
      <trkpt lat="44.6848" lon="5.99885">
        <ele>1358</ele>
        <time>2023-05-15T14:33:44Z</time>
      </trkpt>
      <trkpt lat="44.6848" lon="5.99886">
        <ele>1357.6</ele>
        <time>2023-05-15T14:33:45Z</time>
      </trkpt>
      <trkpt lat="44.6848" lon="5.99886">
        <ele>1357.4</ele>
        <time>2023-05-15T14:33:46Z</time>
      </trkpt>
      <trkpt lat="44.6848" lon="5.99886">
        <ele>1357.2</ele>
        <time>2023-05-15T14:33:47Z</time>
      </trkpt>
      <trkpt lat="44.68481" lon="5.99885">
        <ele>1357</ele>
        <time>2023-05-15T14:33:48Z</time>
      </trkpt>
      <trkpt lat="44.68483" lon="5.99883">
        <ele>1356.4</ele>
        <time>2023-05-15T14:33:49Z</time>
      </trkpt>
      <trkpt lat="44.68484" lon="5.9988">
        <ele>1356.2</ele>
        <time>2023-05-15T14:33:50Z</time>
      </trkpt>
      <trkpt lat="44.68488" lon="5.99873">
        <ele>1355.2</ele>
        <time>2023-05-15T14:33:52Z</time>
      </trkpt>
      <trkpt lat="44.68489" lon="5.9987">
        <ele>1354.2</ele>
        <time>2023-05-15T14:33:54Z</time>
      </trkpt>
      <trkpt lat="44.6849" lon="5.9987">
        <ele>1354.2</ele>
        <time>2023-05-15T14:33:55Z</time>
      </trkpt>
      <trkpt lat="44.68492" lon="5.99869">
        <ele>1353.8</ele>
        <time>2023-05-15T14:33:56Z</time>
      </trkpt>
      <trkpt lat="44.68496" lon="5.99868">
        <ele>1353</ele>
        <time>2023-05-15T14:33:58Z</time>
      </trkpt>
      <trkpt lat="44.68498" lon="5.99867">
        <ele>1352.6</ele>
        <time>2023-05-15T14:33:59Z</time>
      </trkpt>
      <trkpt lat="44.68502" lon="5.99869">
        <ele>1351.6</ele>
        <time>2023-05-15T14:34:01Z</time>
      </trkpt>
      <trkpt lat="44.68505" lon="5.99869">
        <ele>1351</ele>
        <time>2023-05-15T14:34:02Z</time>
      </trkpt>
      <trkpt lat="44.68509" lon="5.9987">
        <ele>1350</ele>
        <time>2023-05-15T14:34:03Z</time>
      </trkpt>
      <trkpt lat="44.68513" lon="5.99873">
        <ele>1349.6</ele>
        <time>2023-05-15T14:34:04Z</time>
      </trkpt>
      <trkpt lat="44.68517" lon="5.99875">
        <ele>1348.6</ele>
        <time>2023-05-15T14:34:05Z</time>
      </trkpt>
      <trkpt lat="44.68524" lon="5.99878">
        <ele>1347.4</ele>
        <time>2023-05-15T14:34:07Z</time>
      </trkpt>
      <trkpt lat="44.68528" lon="5.9988">
        <ele>1346.6</ele>
        <time>2023-05-15T14:34:08Z</time>
      </trkpt>
      <trkpt lat="44.6853" lon="5.99883">
        <ele>1345.4</ele>
        <time>2023-05-15T14:34:09Z</time>
      </trkpt>
      <trkpt lat="44.68532" lon="5.99886">
        <ele>1344</ele>
        <time>2023-05-15T14:34:10Z</time>
      </trkpt>
      <trkpt lat="44.68533" lon="5.99888">
        <ele>1343.4</ele>
        <time>2023-05-15T14:34:11Z</time>
      </trkpt>
      <trkpt lat="44.68534" lon="5.9989">
        <ele>1342.8</ele>
        <time>2023-05-15T14:34:12Z</time>
      </trkpt>
      <trkpt lat="44.68533" lon="5.99892">
        <ele>1342.2</ele>
        <time>2023-05-15T14:34:13Z</time>
      </trkpt>
      <trkpt lat="44.68533" lon="5.99895">
        <ele>1341</ele>
        <time>2023-05-15T14:34:14Z</time>
      </trkpt>
      <trkpt lat="44.68532" lon="5.99899">
        <ele>1340.6</ele>
        <time>2023-05-15T14:34:15Z</time>
      </trkpt>
      <trkpt lat="44.68529" lon="5.99904">
        <ele>1339.4</ele>
        <time>2023-05-15T14:34:16Z</time>
      </trkpt>
      <trkpt lat="44.68525" lon="5.99919">
        <ele>1337.8</ele>
        <time>2023-05-15T14:34:19Z</time>
      </trkpt>
      <trkpt lat="44.68523" lon="5.99924">
        <ele>1337.6</ele>
        <time>2023-05-15T14:34:20Z</time>
      </trkpt>
      <trkpt lat="44.6852" lon="5.99931">
        <ele>1336.8</ele>
        <time>2023-05-15T14:34:22Z</time>
      </trkpt>
      <trkpt lat="44.68521" lon="5.99934">
        <ele>1336</ele>
        <time>2023-05-15T14:34:23Z</time>
      </trkpt>
      <trkpt lat="44.68525" lon="5.99937">
        <ele>1335.4</ele>
        <time>2023-05-15T14:34:24Z</time>
      </trkpt>
      <trkpt lat="44.68528" lon="5.99941">
        <ele>1334.6</ele>
        <time>2023-05-15T14:34:25Z</time>
      </trkpt>
      <trkpt lat="44.6853" lon="5.99945">
        <ele>1334.2</ele>
        <time>2023-05-15T14:34:26Z</time>
      </trkpt>
      <trkpt lat="44.68532" lon="5.99948">
        <ele>1333.4</ele>
        <time>2023-05-15T14:34:27Z</time>
      </trkpt>
      <trkpt lat="44.68535" lon="5.99951">
        <ele>1332.6</ele>
        <time>2023-05-15T14:34:28Z</time>
      </trkpt>
      <trkpt lat="44.68536" lon="5.99955">
        <ele>1332.2</ele>
        <time>2023-05-15T14:34:29Z</time>
      </trkpt>
      <trkpt lat="44.68535" lon="5.99958">
        <ele>1331.2</ele>
        <time>2023-05-15T14:34:30Z</time>
      </trkpt>
      <trkpt lat="44.68534" lon="5.99961">
        <ele>1330.8</ele>
        <time>2023-05-15T14:34:31Z</time>
      </trkpt>
      <trkpt lat="44.68535" lon="5.99965">
        <ele>1330.2</ele>
        <time>2023-05-15T14:34:32Z</time>
      </trkpt>
      <trkpt lat="44.68535" lon="5.9997">
        <ele>1329.8</ele>
        <time>2023-05-15T14:34:33Z</time>
      </trkpt>
      <trkpt lat="44.68532" lon="5.99974">
        <ele>1329</ele>
        <time>2023-05-15T14:34:34Z</time>
      </trkpt>
      <trkpt lat="44.6853" lon="5.99979">
        <ele>1328.6</ele>
        <time>2023-05-15T14:34:35Z</time>
      </trkpt>
      <trkpt lat="44.68531" lon="5.99983">
        <ele>1327.4</ele>
        <time>2023-05-15T14:34:36Z</time>
      </trkpt>
      <trkpt lat="44.68531" lon="5.99987">
        <ele>1326.2</ele>
        <time>2023-05-15T14:34:37Z</time>
      </trkpt>
      <trkpt lat="44.68532" lon="5.99991">
        <ele>1325.6</ele>
        <time>2023-05-15T14:34:38Z</time>
      </trkpt>
      <trkpt lat="44.68532" lon="5.99996">
        <ele>1324.6</ele>
        <time>2023-05-15T14:34:39Z</time>
      </trkpt>
      <trkpt lat="44.68533" lon="6.00001">
        <ele>1324.2</ele>
        <time>2023-05-15T14:34:40Z</time>
      </trkpt>
      <trkpt lat="44.68534" lon="6.00007">
        <ele>1323</ele>
        <time>2023-05-15T14:34:41Z</time>
      </trkpt>
      <trkpt lat="44.68534" lon="6.00012">
        <ele>1322.6</ele>
        <time>2023-05-15T14:34:42Z</time>
      </trkpt>
      <trkpt lat="44.68533" lon="6.00016">
        <ele>1321.8</ele>
        <time>2023-05-15T14:34:43Z</time>
      </trkpt>
      <trkpt lat="44.68532" lon="6.00021">
        <ele>1321.6</ele>
        <time>2023-05-15T14:34:44Z</time>
      </trkpt>
      <trkpt lat="44.68531" lon="6.00027">
        <ele>1320.2</ele>
        <time>2023-05-15T14:34:45Z</time>
      </trkpt>
      <trkpt lat="44.68531" lon="6.00034">
        <ele>1319</ele>
        <time>2023-05-15T14:34:46Z</time>
      </trkpt>
      <trkpt lat="44.68529" lon="6.00041">
        <ele>1318.6</ele>
        <time>2023-05-15T14:34:47Z</time>
      </trkpt>
      <trkpt lat="44.68527" lon="6.00049">
        <ele>1317.8</ele>
        <time>2023-05-15T14:34:48Z</time>
      </trkpt>
      <trkpt lat="44.68525" lon="6.00056">
        <ele>1317.4</ele>
        <time>2023-05-15T14:34:49Z</time>
      </trkpt>
      <trkpt lat="44.68524" lon="6.00064">
        <ele>1316.6</ele>
        <time>2023-05-15T14:34:50Z</time>
      </trkpt>
      <trkpt lat="44.68522" lon="6.00071">
        <ele>1316</ele>
        <time>2023-05-15T14:34:51Z</time>
      </trkpt>
      <trkpt lat="44.68522" lon="6.00077">
        <ele>1314.8</ele>
        <time>2023-05-15T14:34:52Z</time>
      </trkpt>
      <trkpt lat="44.68521" lon="6.00084">
        <ele>1314.2</ele>
        <time>2023-05-15T14:34:53Z</time>
      </trkpt>
      <trkpt lat="44.68519" lon="6.00091">
        <ele>1313.4</ele>
        <time>2023-05-15T14:34:54Z</time>
      </trkpt>
      <trkpt lat="44.68513" lon="6.001">
        <ele>1312</ele>
        <time>2023-05-15T14:34:56Z</time>
      </trkpt>
      <trkpt lat="44.6851" lon="6.00105">
        <ele>1310.6</ele>
        <time>2023-05-15T14:34:57Z</time>
      </trkpt>
      <trkpt lat="44.68509" lon="6.00108">
        <ele>1310</ele>
        <time>2023-05-15T14:34:58Z</time>
      </trkpt>
      <trkpt lat="44.68508" lon="6.0011">
        <ele>1308.6</ele>
        <time>2023-05-15T14:34:59Z</time>
      </trkpt>
      <trkpt lat="44.68507" lon="6.00112">
        <ele>1308.4</ele>
        <time>2023-05-15T14:35:00Z</time>
      </trkpt>
      <trkpt lat="44.68507" lon="6.00114">
        <ele>1307</ele>
        <time>2023-05-15T14:35:01Z</time>
      </trkpt>
      <trkpt lat="44.68508" lon="6.00117">
        <ele>1306.6</ele>
        <time>2023-05-15T14:35:02Z</time>
      </trkpt>
      <trkpt lat="44.6851" lon="6.00119">
        <ele>1306</ele>
        <time>2023-05-15T14:35:03Z</time>
      </trkpt>
      <trkpt lat="44.68512" lon="6.0012">
        <ele>1305.6</ele>
        <time>2023-05-15T14:35:04Z</time>
      </trkpt>
      <trkpt lat="44.68513" lon="6.00123">
        <ele>1305.2</ele>
        <time>2023-05-15T14:35:05Z</time>
      </trkpt>
      <trkpt lat="44.6851" lon="6.0013">
        <ele>1304.4</ele>
        <time>2023-05-15T14:35:08Z</time>
      </trkpt>
      <trkpt lat="44.68509" lon="6.00133">
        <ele>1304.2</ele>
        <time>2023-05-15T14:35:09Z</time>
      </trkpt>
      <trkpt lat="44.68507" lon="6.00135">
        <ele>1303.8</ele>
        <time>2023-05-15T14:35:10Z</time>
      </trkpt>
      <trkpt lat="44.68505" lon="6.00138">
        <ele>1303.6</ele>
        <time>2023-05-15T14:35:11Z</time>
      </trkpt>
      <trkpt lat="44.68503" lon="6.0014">
        <ele>1303</ele>
        <time>2023-05-15T14:35:12Z</time>
      </trkpt>
      <trkpt lat="44.68499" lon="6.00143">
        <ele>1302.4</ele>
        <time>2023-05-15T14:35:13Z</time>
      </trkpt>
      <trkpt lat="44.68497" lon="6.00145">
        <ele>1302.2</ele>
        <time>2023-05-15T14:35:14Z</time>
      </trkpt>
      <trkpt lat="44.68496" lon="6.00147">
        <ele>1301.6</ele>
        <time>2023-05-15T14:35:15Z</time>
      </trkpt>
      <trkpt lat="44.68496" lon="6.00149">
        <ele>1301.4</ele>
        <time>2023-05-15T14:35:16Z</time>
      </trkpt>
      <trkpt lat="44.68497" lon="6.0015">
        <ele>1300.6</ele>
        <time>2023-05-15T14:35:17Z</time>
      </trkpt>
      <trkpt lat="44.68498" lon="6.00152">
        <ele>1300.2</ele>
        <time>2023-05-15T14:35:18Z</time>
      </trkpt>
      <trkpt lat="44.68498" lon="6.00155">
        <ele>1299.4</ele>
        <time>2023-05-15T14:35:19Z</time>
      </trkpt>
      <trkpt lat="44.68497" lon="6.00157">
        <ele>1298.6</ele>
        <time>2023-05-15T14:35:20Z</time>
      </trkpt>
      <trkpt lat="44.68496" lon="6.0016">
        <ele>1298</ele>
        <time>2023-05-15T14:35:21Z</time>
      </trkpt>
      <trkpt lat="44.68496" lon="6.00163">
        <ele>1297.4</ele>
        <time>2023-05-15T14:35:22Z</time>
      </trkpt>
      <trkpt lat="44.68497" lon="6.00166">
        <ele>1297</ele>
        <time>2023-05-15T14:35:23Z</time>
      </trkpt>
      <trkpt lat="44.68499" lon="6.00169">
        <ele>1296.6</ele>
        <time>2023-05-15T14:35:24Z</time>
      </trkpt>
      <trkpt lat="44.68501" lon="6.00172">
        <ele>1296.2</ele>
        <time>2023-05-15T14:35:25Z</time>
      </trkpt>
      <trkpt lat="44.68502" lon="6.00176">
        <ele>1295.4</ele>
        <time>2023-05-15T14:35:26Z</time>
      </trkpt>
      <trkpt lat="44.68501" lon="6.00182">
        <ele>1294.4</ele>
        <time>2023-05-15T14:35:28Z</time>
      </trkpt>
      <trkpt lat="44.685" lon="6.00184">
        <ele>1293.4</ele>
        <time>2023-05-15T14:35:29Z</time>
      </trkpt>
      <trkpt lat="44.68499" lon="6.00185">
        <ele>1293</ele>
        <time>2023-05-15T14:35:30Z</time>
      </trkpt>
      <trkpt lat="44.68497" lon="6.00186">
        <ele>1292</ele>
        <time>2023-05-15T14:35:31Z</time>
      </trkpt>
      <trkpt lat="44.68496" lon="6.00189">
        <ele>1291.4</ele>
        <time>2023-05-15T14:35:32Z</time>
      </trkpt>
      <trkpt lat="44.68496" lon="6.00191">
        <ele>1290.6</ele>
        <time>2023-05-15T14:35:33Z</time>
      </trkpt>
      <trkpt lat="44.68494" lon="6.00202">
        <ele>1289.2</ele>
        <time>2023-05-15T14:35:36Z</time>
      </trkpt>
      <trkpt lat="44.68495" lon="6.00208">
        <ele>1288.4</ele>
        <time>2023-05-15T14:35:37Z</time>
      </trkpt>
      <trkpt lat="44.68496" lon="6.00214">
        <ele>1287.8</ele>
        <time>2023-05-15T14:35:38Z</time>
      </trkpt>
      <trkpt lat="44.68498" lon="6.00219">
        <ele>1287.6</ele>
        <time>2023-05-15T14:35:39Z</time>
      </trkpt>
      <trkpt lat="44.68499" lon="6.00222">
        <ele>1287</ele>
        <time>2023-05-15T14:35:40Z</time>
      </trkpt>
      <trkpt lat="44.685" lon="6.00223">
        <ele>1286.6</ele>
        <time>2023-05-15T14:35:41Z</time>
      </trkpt>
      <trkpt lat="44.685" lon="6.00223">
        <ele>1286.2</ele>
        <time>2023-05-15T14:35:42Z</time>
      </trkpt>
      <trkpt lat="44.68499" lon="6.00224">
        <ele>1285.8</ele>
        <time>2023-05-15T14:35:43Z</time>
      </trkpt>
      <trkpt lat="44.68498" lon="6.00226">
        <ele>1284.6</ele>
        <time>2023-05-15T14:35:44Z</time>
      </trkpt>
      <trkpt lat="44.68497" lon="6.00227">
        <ele>1284.2</ele>
        <time>2023-05-15T14:35:45Z</time>
      </trkpt>
      <trkpt lat="44.68495" lon="6.00229">
        <ele>1283.4</ele>
        <time>2023-05-15T14:35:46Z</time>
      </trkpt>
      <trkpt lat="44.68493" lon="6.0023">
        <ele>1283</ele>
        <time>2023-05-15T14:35:47Z</time>
      </trkpt>
      <trkpt lat="44.68491" lon="6.0023">
        <ele>1282.6</ele>
        <time>2023-05-15T14:35:48Z</time>
      </trkpt>
      <trkpt lat="44.6849" lon="6.0023">
        <ele>1282.2</ele>
        <time>2023-05-15T14:35:49Z</time>
      </trkpt>
      <trkpt lat="44.6849" lon="6.0023">
        <ele>1282</ele>
        <time>2023-05-15T14:35:50Z</time>
      </trkpt>
      <trkpt lat="44.68489" lon="6.00231">
        <ele>1281.4</ele>
        <time>2023-05-15T14:35:52Z</time>
      </trkpt>
      <trkpt lat="44.68488" lon="6.00231">
        <ele>1281</ele>
        <time>2023-05-15T14:35:53Z</time>
      </trkpt>
      <trkpt lat="44.68488" lon="6.00232">
        <ele>1281</ele>
        <time>2023-05-15T14:35:54Z</time>
      </trkpt>
      <trkpt lat="44.68486" lon="6.00233">
        <ele>1280.6</ele>
        <time>2023-05-15T14:35:57Z</time>
      </trkpt>
      <trkpt lat="44.68485" lon="6.00233">
        <ele>1280.4</ele>
        <time>2023-05-15T14:35:59Z</time>
      </trkpt>
      <trkpt lat="44.68485" lon="6.00234">
        <ele>1280</ele>
        <time>2023-05-15T14:36:00Z</time>
      </trkpt>
      <trkpt lat="44.68484" lon="6.00235">
        <ele>1279.8</ele>
        <time>2023-05-15T14:36:01Z</time>
      </trkpt>
      <trkpt lat="44.68484" lon="6.00238">
        <ele>1279.4</ele>
        <time>2023-05-15T14:36:04Z</time>
      </trkpt>
      <trkpt lat="44.68484" lon="6.00238">
        <ele>1279.2</ele>
        <time>2023-05-15T14:36:05Z</time>
      </trkpt>
      <trkpt lat="44.68484" lon="6.00238">
        <ele>1279.2</ele>
        <time>2023-05-15T14:36:06Z</time>
      </trkpt>
      <trkpt lat="44.68484" lon="6.00238">
        <ele>1279</ele>
        <time>2023-05-15T14:36:07Z</time>
      </trkpt>
      <trkpt lat="44.68484" lon="6.00238">
        <ele>1278</ele>
        <time>2023-05-15T14:36:36Z</time>
      </trkpt>
      <trkpt lat="44.68484" lon="6.00238">
        <ele>1277.6</ele>
        <time>2023-05-15T14:36:43Z</time>
      </trkpt>
      <trkpt lat="44.68484" lon="6.00238">
        <ele>1277.6</ele>
        <time>2023-05-15T14:36:44Z</time>
      </trkpt>
      <trkpt lat="44.68483" lon="6.00242">
        <ele>1277.4</ele>
        <time>2023-05-15T14:36:47Z</time>
      </trkpt>
      <trkpt lat="44.68481" lon="6.00248">
        <ele>1277.4</ele>
        <time>2023-05-15T14:36:49Z</time>
      </trkpt>
      <trkpt lat="44.68475" lon="6.00264">
        <ele>1277.2</ele>
        <time>2023-05-15T14:36:53Z</time>
      </trkpt>
      <trkpt lat="44.6847" lon="6.00272">
        <ele>1276.8</ele>
        <time>2023-05-15T14:36:55Z</time>
      </trkpt>
      <trkpt lat="44.68467" lon="6.00278">
        <ele>1276.4</ele>
        <time>2023-05-15T14:36:57Z</time>
      </trkpt>
      <trkpt lat="44.68465" lon="6.00281">
        <ele>1276.2</ele>
        <time>2023-05-15T14:36:58Z</time>
      </trkpt>
      <trkpt lat="44.68463" lon="6.00283">
        <ele>1276</ele>
        <time>2023-05-15T14:36:59Z</time>
      </trkpt>
      <trkpt lat="44.68462" lon="6.00284">
        <ele>1276</ele>
        <time>2023-05-15T14:37:00Z</time>
      </trkpt>
      <trkpt lat="44.68459" lon="6.00285">
        <ele>1275.8</ele>
        <time>2023-05-15T14:37:01Z</time>
      </trkpt>
      <trkpt lat="44.68456" lon="6.00286">
        <ele>1275.8</ele>
        <time>2023-05-15T14:37:02Z</time>
      </trkpt>
      <trkpt lat="44.68452" lon="6.00288">
        <ele>1275.8</ele>
        <time>2023-05-15T14:37:03Z</time>
      </trkpt>
      <trkpt lat="44.68449" lon="6.00291">
        <ele>1275.8</ele>
        <time>2023-05-15T14:37:04Z</time>
      </trkpt>
      <trkpt lat="44.68446" lon="6.00295">
        <ele>1275.8</ele>
        <time>2023-05-15T14:37:05Z</time>
      </trkpt>
      <trkpt lat="44.68443" lon="6.003">
        <ele>1275.8</ele>
        <time>2023-05-15T14:37:06Z</time>
      </trkpt>
      <trkpt lat="44.68442" lon="6.00303">
        <ele>1275.6</ele>
        <time>2023-05-15T14:37:07Z</time>
      </trkpt>
      <trkpt lat="44.68441" lon="6.00305">
        <ele>1275.4</ele>
        <time>2023-05-15T14:37:08Z</time>
      </trkpt>
      <trkpt lat="44.68441" lon="6.00306">
        <ele>1275.2</ele>
        <time>2023-05-15T14:37:09Z</time>
      </trkpt>
      <trkpt lat="44.6844" lon="6.00307">
        <ele>1275</ele>
        <time>2023-05-15T14:37:10Z</time>
      </trkpt>
      <trkpt lat="44.6844" lon="6.00307">
        <ele>1274.8</ele>
        <time>2023-05-15T14:37:11Z</time>
      </trkpt>
      <trkpt lat="44.6844" lon="6.00307">
        <ele>1274.6</ele>
        <time>2023-05-15T14:37:12Z</time>
      </trkpt>
      <trkpt lat="44.6844" lon="6.00307">
        <ele>1274.2</ele>
        <time>2023-05-15T14:37:20Z</time>
      </trkpt>
      <trkpt lat="44.6844" lon="6.00307">
        <ele>1274</ele>
        <time>2023-05-15T14:37:31Z</time>
      </trkpt>
      <trkpt lat="44.6844" lon="6.00311">
        <ele>1274</ele>
        <time>2023-05-15T14:37:36Z</time>
      </trkpt>
      <trkpt lat="44.68441" lon="6.00314">
        <ele>1274</ele>
        <time>2023-05-15T14:37:37Z</time>
      </trkpt>
      <trkpt lat="44.68443" lon="6.00319">
        <ele>1274</ele>
        <time>2023-05-15T14:37:39Z</time>
      </trkpt>
      <trkpt lat="44.68445" lon="6.00322">
        <ele>1273.8</ele>
        <time>2023-05-15T14:37:40Z</time>
      </trkpt>
      <trkpt lat="44.68446" lon="6.00326">
        <ele>1273.8</ele>
        <time>2023-05-15T14:37:41Z</time>
      </trkpt>
      <trkpt lat="44.68452" lon="6.00335">
        <ele>1273.6</ele>
        <time>2023-05-15T14:37:43Z</time>
      </trkpt>
      <trkpt lat="44.68454" lon="6.00341">
        <ele>1273.6</ele>
        <time>2023-05-15T14:37:44Z</time>
      </trkpt>
      <trkpt lat="44.68461" lon="6.00361">
        <ele>1272.8</ele>
        <time>2023-05-15T14:37:47Z</time>
      </trkpt>
      <trkpt lat="44.68463" lon="6.00367">
        <ele>1271.8</ele>
        <time>2023-05-15T14:37:48Z</time>
      </trkpt>
      <trkpt lat="44.68464" lon="6.00375">
        <ele>1270.6</ele>
        <time>2023-05-15T14:37:50Z</time>
      </trkpt>
      <trkpt lat="44.68464" lon="6.00377">
        <ele>1269.8</ele>
        <time>2023-05-15T14:37:51Z</time>
      </trkpt>
      <trkpt lat="44.68463" lon="6.00379">
        <ele>1269</ele>
        <time>2023-05-15T14:37:52Z</time>
      </trkpt>
      <trkpt lat="44.68462" lon="6.00381">
        <ele>1267.2</ele>
        <time>2023-05-15T14:37:53Z</time>
      </trkpt>
      <trkpt lat="44.68462" lon="6.00385">
        <ele>1266.4</ele>
        <time>2023-05-15T14:37:54Z</time>
      </trkpt>
      <trkpt lat="44.68462" lon="6.00389">
        <ele>1265.2</ele>
        <time>2023-05-15T14:37:55Z</time>
      </trkpt>
      <trkpt lat="44.68461" lon="6.00398">
        <ele>1264</ele>
        <time>2023-05-15T14:37:57Z</time>
      </trkpt>
      <trkpt lat="44.6846" lon="6.00403">
        <ele>1263.6</ele>
        <time>2023-05-15T14:37:58Z</time>
      </trkpt>
      <trkpt lat="44.68459" lon="6.00409">
        <ele>1263</ele>
        <time>2023-05-15T14:37:59Z</time>
      </trkpt>
      <trkpt lat="44.68458" lon="6.00415">
        <ele>1262.6</ele>
        <time>2023-05-15T14:38:00Z</time>
      </trkpt>
      <trkpt lat="44.68458" lon="6.00421">
        <ele>1262.2</ele>
        <time>2023-05-15T14:38:01Z</time>
      </trkpt>
      <trkpt lat="44.68459" lon="6.00428">
        <ele>1261.6</ele>
        <time>2023-05-15T14:38:02Z</time>
      </trkpt>
      <trkpt lat="44.6846" lon="6.00437">
        <ele>1261.2</ele>
        <time>2023-05-15T14:38:03Z</time>
      </trkpt>
      <trkpt lat="44.6846" lon="6.00445">
        <ele>1260.6</ele>
        <time>2023-05-15T14:38:04Z</time>
      </trkpt>
      <trkpt lat="44.68459" lon="6.00452">
        <ele>1260.4</ele>
        <time>2023-05-15T14:38:05Z</time>
      </trkpt>
      <trkpt lat="44.68457" lon="6.00459">
        <ele>1259.6</ele>
        <time>2023-05-15T14:38:06Z</time>
      </trkpt>
      <trkpt lat="44.68454" lon="6.00465">
        <ele>1259</ele>
        <time>2023-05-15T14:38:07Z</time>
      </trkpt>
      <trkpt lat="44.68451" lon="6.00471">
        <ele>1258.2</ele>
        <time>2023-05-15T14:38:08Z</time>
      </trkpt>
      <trkpt lat="44.68448" lon="6.00478">
        <ele>1257.2</ele>
        <time>2023-05-15T14:38:09Z</time>
      </trkpt>
      <trkpt lat="44.68446" lon="6.00484">
        <ele>1256.6</ele>
        <time>2023-05-15T14:38:10Z</time>
      </trkpt>
      <trkpt lat="44.68444" lon="6.00491">
        <ele>1256</ele>
        <time>2023-05-15T14:38:11Z</time>
      </trkpt>
      <trkpt lat="44.68443" lon="6.00499">
        <ele>1255.4</ele>
        <time>2023-05-15T14:38:12Z</time>
      </trkpt>
      <trkpt lat="44.68444" lon="6.00506">
        <ele>1253.8</ele>
        <time>2023-05-15T14:38:13Z</time>
      </trkpt>
      <trkpt lat="44.68445" lon="6.00514">
        <ele>1253.2</ele>
        <time>2023-05-15T14:38:14Z</time>
      </trkpt>
      <trkpt lat="44.68446" lon="6.00522">
        <ele>1252</ele>
        <time>2023-05-15T14:38:15Z</time>
      </trkpt>
      <trkpt lat="44.68445" lon="6.00529">
        <ele>1251.2</ele>
        <time>2023-05-15T14:38:16Z</time>
      </trkpt>
      <trkpt lat="44.68441" lon="6.00536">
        <ele>1250.2</ele>
        <time>2023-05-15T14:38:17Z</time>
      </trkpt>
      <trkpt lat="44.68439" lon="6.00541">
        <ele>1248.6</ele>
        <time>2023-05-15T14:38:18Z</time>
      </trkpt>
      <trkpt lat="44.68436" lon="6.00547">
        <ele>1248</ele>
        <time>2023-05-15T14:38:19Z</time>
      </trkpt>
      <trkpt lat="44.68435" lon="6.00551">
        <ele>1246.6</ele>
        <time>2023-05-15T14:38:20Z</time>
      </trkpt>
      <trkpt lat="44.68433" lon="6.00555">
        <ele>1245.6</ele>
        <time>2023-05-15T14:38:21Z</time>
      </trkpt>
      <trkpt lat="44.68432" lon="6.0056">
        <ele>1244.2</ele>
        <time>2023-05-15T14:38:22Z</time>
      </trkpt>
      <trkpt lat="44.6843" lon="6.00565">
        <ele>1243.4</ele>
        <time>2023-05-15T14:38:23Z</time>
      </trkpt>
      <trkpt lat="44.68428" lon="6.00571">
        <ele>1241.2</ele>
        <time>2023-05-15T14:38:24Z</time>
      </trkpt>
      <trkpt lat="44.68426" lon="6.00577">
        <ele>1239.6</ele>
        <time>2023-05-15T14:38:25Z</time>
      </trkpt>
      <trkpt lat="44.68423" lon="6.00588">
        <ele>1237.8</ele>
        <time>2023-05-15T14:38:27Z</time>
      </trkpt>
      <trkpt lat="44.68423" lon="6.00595">
        <ele>1237.6</ele>
        <time>2023-05-15T14:38:28Z</time>
      </trkpt>
      <trkpt lat="44.68423" lon="6.00601">
        <ele>1236.4</ele>
        <time>2023-05-15T14:38:29Z</time>
      </trkpt>
      <trkpt lat="44.68425" lon="6.00608">
        <ele>1235.8</ele>
        <time>2023-05-15T14:38:30Z</time>
      </trkpt>
      <trkpt lat="44.68427" lon="6.00615">
        <ele>1234.6</ele>
        <time>2023-05-15T14:38:31Z</time>
      </trkpt>
      <trkpt lat="44.68431" lon="6.00622">
        <ele>1234.2</ele>
        <time>2023-05-15T14:38:32Z</time>
      </trkpt>
      <trkpt lat="44.68434" lon="6.00628">
        <ele>1233</ele>
        <time>2023-05-15T14:38:33Z</time>
      </trkpt>
      <trkpt lat="44.68439" lon="6.00633">
        <ele>1231.4</ele>
        <time>2023-05-15T14:38:34Z</time>
      </trkpt>
      <trkpt lat="44.68442" lon="6.00637">
        <ele>1231</ele>
        <time>2023-05-15T14:38:35Z</time>
      </trkpt>
      <trkpt lat="44.68445" lon="6.00641">
        <ele>1230</ele>
        <time>2023-05-15T14:38:36Z</time>
      </trkpt>
      <trkpt lat="44.68448" lon="6.00644">
        <ele>1229.2</ele>
        <time>2023-05-15T14:38:37Z</time>
      </trkpt>
      <trkpt lat="44.68452" lon="6.00649">
        <ele>1228.2</ele>
        <time>2023-05-15T14:38:38Z</time>
      </trkpt>
      <trkpt lat="44.68456" lon="6.00655">
        <ele>1227.8</ele>
        <time>2023-05-15T14:38:39Z</time>
      </trkpt>
      <trkpt lat="44.68459" lon="6.00661">
        <ele>1227</ele>
        <time>2023-05-15T14:38:40Z</time>
      </trkpt>
      <trkpt lat="44.68463" lon="6.00667">
        <ele>1226.2</ele>
        <time>2023-05-15T14:38:41Z</time>
      </trkpt>
      <trkpt lat="44.68466" lon="6.00674">
        <ele>1225</ele>
        <time>2023-05-15T14:38:42Z</time>
      </trkpt>
      <trkpt lat="44.68469" lon="6.0068">
        <ele>1223.4</ele>
        <time>2023-05-15T14:38:43Z</time>
      </trkpt>
      <trkpt lat="44.68472" lon="6.00686">
        <ele>1222.8</ele>
        <time>2023-05-15T14:38:44Z</time>
      </trkpt>
      <trkpt lat="44.68475" lon="6.00691">
        <ele>1221.4</ele>
        <time>2023-05-15T14:38:45Z</time>
      </trkpt>
      <trkpt lat="44.68477" lon="6.00696">
        <ele>1220.6</ele>
        <time>2023-05-15T14:38:46Z</time>
      </trkpt>
      <trkpt lat="44.68479" lon="6.00699">
        <ele>1219.2</ele>
        <time>2023-05-15T14:38:47Z</time>
      </trkpt>
      <trkpt lat="44.68481" lon="6.00704">
        <ele>1218.2</ele>
        <time>2023-05-15T14:38:48Z</time>
      </trkpt>
      <trkpt lat="44.68482" lon="6.00708">
        <ele>1217</ele>
        <time>2023-05-15T14:38:49Z</time>
      </trkpt>
      <trkpt lat="44.68482" lon="6.00713">
        <ele>1216.6</ele>
        <time>2023-05-15T14:38:50Z</time>
      </trkpt>
      <trkpt lat="44.68482" lon="6.00717">
        <ele>1215.6</ele>
        <time>2023-05-15T14:38:51Z</time>
      </trkpt>
      <trkpt lat="44.68482" lon="6.00722">
        <ele>1214.4</ele>
        <time>2023-05-15T14:38:52Z</time>
      </trkpt>
      <trkpt lat="44.68481" lon="6.00727">
        <ele>1213.8</ele>
        <time>2023-05-15T14:38:53Z</time>
      </trkpt>
      <trkpt lat="44.68479" lon="6.00733">
        <ele>1212.4</ele>
        <time>2023-05-15T14:38:54Z</time>
      </trkpt>
      <trkpt lat="44.68477" lon="6.00739">
        <ele>1211.8</ele>
        <time>2023-05-15T14:38:55Z</time>
      </trkpt>
      <trkpt lat="44.68475" lon="6.00744">
        <ele>1211.2</ele>
        <time>2023-05-15T14:38:56Z</time>
      </trkpt>
      <trkpt lat="44.68473" lon="6.00751">
        <ele>1210</ele>
        <time>2023-05-15T14:38:58Z</time>
      </trkpt>
      <trkpt lat="44.68472" lon="6.00753">
        <ele>1209</ele>
        <time>2023-05-15T14:38:59Z</time>
      </trkpt>
      <trkpt lat="44.68472" lon="6.00754">
        <ele>1207.2</ele>
        <time>2023-05-15T14:39:00Z</time>
      </trkpt>
      <trkpt lat="44.68472" lon="6.00754">
        <ele>1205.8</ele>
        <time>2023-05-15T14:39:01Z</time>
      </trkpt>
      <trkpt lat="44.68472" lon="6.00754">
        <ele>1204</ele>
        <time>2023-05-15T14:39:03Z</time>
      </trkpt>
      <trkpt lat="44.68473" lon="6.00758">
        <ele>1203</ele>
        <time>2023-05-15T14:39:05Z</time>
      </trkpt>
      <trkpt lat="44.68473" lon="6.0076">
        <ele>1202.8</ele>
        <time>2023-05-15T14:39:06Z</time>
      </trkpt>
      <trkpt lat="44.68474" lon="6.00764">
        <ele>1202.6</ele>
        <time>2023-05-15T14:39:07Z</time>
      </trkpt>
      <trkpt lat="44.68473" lon="6.0078">
        <ele>1201.8</ele>
        <time>2023-05-15T14:39:10Z</time>
      </trkpt>
      <trkpt lat="44.68473" lon="6.00785">
        <ele>1201.4</ele>
        <time>2023-05-15T14:39:11Z</time>
      </trkpt>
      <trkpt lat="44.68474" lon="6.00796">
        <ele>1200.6</ele>
        <time>2023-05-15T14:39:13Z</time>
      </trkpt>
      <trkpt lat="44.68477" lon="6.00814">
        <ele>1199.4</ele>
        <time>2023-05-15T14:39:16Z</time>
      </trkpt>
      <trkpt lat="44.68482" lon="6.00824">
        <ele>1198.4</ele>
        <time>2023-05-15T14:39:18Z</time>
      </trkpt>
      <trkpt lat="44.68485" lon="6.00833">
        <ele>1197</ele>
        <time>2023-05-15T14:39:20Z</time>
      </trkpt>
      <trkpt lat="44.68487" lon="6.00838">
        <ele>1195.6</ele>
        <time>2023-05-15T14:39:21Z</time>
      </trkpt>
      <trkpt lat="44.68491" lon="6.00842">
        <ele>1195.2</ele>
        <time>2023-05-15T14:39:22Z</time>
      </trkpt>
      <trkpt lat="44.68495" lon="6.00845">
        <ele>1194</ele>
        <time>2023-05-15T14:39:23Z</time>
      </trkpt>
      <trkpt lat="44.68499" lon="6.00848">
        <ele>1193.4</ele>
        <time>2023-05-15T14:39:24Z</time>
      </trkpt>
      <trkpt lat="44.68502" lon="6.00851">
        <ele>1192.6</ele>
        <time>2023-05-15T14:39:25Z</time>
      </trkpt>
      <trkpt lat="44.68505" lon="6.00854">
        <ele>1192.2</ele>
        <time>2023-05-15T14:39:26Z</time>
      </trkpt>
      <trkpt lat="44.68507" lon="6.00858">
        <ele>1190.2</ele>
        <time>2023-05-15T14:39:27Z</time>
      </trkpt>
      <trkpt lat="44.68509" lon="6.00862">
        <ele>1188.8</ele>
        <time>2023-05-15T14:39:28Z</time>
      </trkpt>
      <trkpt lat="44.6851" lon="6.00865">
        <ele>1188.4</ele>
        <time>2023-05-15T14:39:29Z</time>
      </trkpt>
      <trkpt lat="44.68512" lon="6.00869">
        <ele>1187.6</ele>
        <time>2023-05-15T14:39:30Z</time>
      </trkpt>
      <trkpt lat="44.68514" lon="6.00872">
        <ele>1187.2</ele>
        <time>2023-05-15T14:39:31Z</time>
      </trkpt>
      <trkpt lat="44.68516" lon="6.00875">
        <ele>1185.8</ele>
        <time>2023-05-15T14:39:32Z</time>
      </trkpt>
      <trkpt lat="44.6852" lon="6.00878">
        <ele>1185.2</ele>
        <time>2023-05-15T14:39:33Z</time>
      </trkpt>
      <trkpt lat="44.68524" lon="6.00883">
        <ele>1184.4</ele>
        <time>2023-05-15T14:39:34Z</time>
      </trkpt>
      <trkpt lat="44.68528" lon="6.00889">
        <ele>1183.4</ele>
        <time>2023-05-15T14:39:35Z</time>
      </trkpt>
      <trkpt lat="44.68534" lon="6.00899">
        <ele>1182</ele>
        <time>2023-05-15T14:39:37Z</time>
      </trkpt>
      <trkpt lat="44.68536" lon="6.00902">
        <ele>1181.6</ele>
        <time>2023-05-15T14:39:38Z</time>
      </trkpt>
      <trkpt lat="44.68539" lon="6.00904">
        <ele>1181.4</ele>
        <time>2023-05-15T14:39:39Z</time>
      </trkpt>
      <trkpt lat="44.68541" lon="6.00905">
        <ele>1180.4</ele>
        <time>2023-05-15T14:39:40Z</time>
      </trkpt>
      <trkpt lat="44.68541" lon="6.00905">
        <ele>1179.2</ele>
        <time>2023-05-15T14:39:41Z</time>
      </trkpt>
      <trkpt lat="44.68541" lon="6.00905">
        <ele>1178.8</ele>
        <time>2023-05-15T14:39:42Z</time>
      </trkpt>
      <trkpt lat="44.68541" lon="6.00905">
        <ele>1177.8</ele>
        <time>2023-05-15T14:39:43Z</time>
      </trkpt>
      <trkpt lat="44.68542" lon="6.00905">
        <ele>1176.8</ele>
        <time>2023-05-15T14:39:45Z</time>
      </trkpt>
      <trkpt lat="44.68548" lon="6.00906">
        <ele>1175.6</ele>
        <time>2023-05-15T14:39:48Z</time>
      </trkpt>
      <trkpt lat="44.6855" lon="6.00906">
        <ele>1175.6</ele>
        <time>2023-05-15T14:39:49Z</time>
      </trkpt>
      <trkpt lat="44.68558" lon="6.00905">
        <ele>1175</ele>
        <time>2023-05-15T14:39:53Z</time>
      </trkpt>
      <trkpt lat="44.68558" lon="6.00905">
        <ele>1174.8</ele>
        <time>2023-05-15T14:39:54Z</time>
      </trkpt>
      <trkpt lat="44.68558" lon="6.00905">
        <ele>1174.6</ele>
        <time>2023-05-15T14:39:55Z</time>
      </trkpt>
      <trkpt lat="44.68558" lon="6.00905">
        <ele>1173.8</ele>
        <time>2023-05-15T14:40:03Z</time>
      </trkpt>
      <trkpt lat="44.68558" lon="6.00905">
        <ele>1173.4</ele>
        <time>2023-05-15T14:40:06Z</time>
      </trkpt>
      <trkpt lat="44.6856" lon="6.00902">
        <ele>1173.2</ele>
        <time>2023-05-15T14:40:20Z</time>
      </trkpt>
      <trkpt lat="44.68563" lon="6.00901">
        <ele>1173</ele>
        <time>2023-05-15T14:40:22Z</time>
      </trkpt>
      <trkpt lat="44.68565" lon="6.00901">
        <ele>1173</ele>
        <time>2023-05-15T14:40:23Z</time>
      </trkpt>
      <trkpt lat="44.68567" lon="6.009">
        <ele>1172.8</ele>
        <time>2023-05-15T14:40:24Z</time>
      </trkpt>
      <trkpt lat="44.68568" lon="6.00899">
        <ele>1172.8</ele>
        <time>2023-05-15T14:40:25Z</time>
      </trkpt>
      <trkpt lat="44.68569" lon="6.00899">
        <ele>1173</ele>
        <time>2023-05-15T14:40:26Z</time>
      </trkpt>
      <trkpt lat="44.68571" lon="6.00897">
        <ele>1173.2</ele>
        <time>2023-05-15T14:40:27Z</time>
      </trkpt>
      <trkpt lat="44.68572" lon="6.00896">
        <ele>1173.2</ele>
        <time>2023-05-15T14:40:28Z</time>
      </trkpt>
      <trkpt lat="44.68576" lon="6.00894">
        <ele>1173.2</ele>
        <time>2023-05-15T14:40:31Z</time>
      </trkpt>
      <trkpt lat="44.68578" lon="6.00891">
        <ele>1173.2</ele>
        <time>2023-05-15T14:40:33Z</time>
      </trkpt>
      <trkpt lat="44.68579" lon="6.00889">
        <ele>1173.4</ele>
        <time>2023-05-15T14:40:34Z</time>
      </trkpt>
      <trkpt lat="44.68581" lon="6.00887">
        <ele>1173.4</ele>
        <time>2023-05-15T14:40:35Z</time>
      </trkpt>
      <trkpt lat="44.68581" lon="6.00887">
        <ele>1173.4</ele>
        <time>2023-05-15T14:40:36Z</time>
      </trkpt>
      <trkpt lat="44.68582" lon="6.00886">
        <ele>1173.4</ele>
        <time>2023-05-15T14:40:37Z</time>
      </trkpt>
      <trkpt lat="44.68583" lon="6.00885">
        <ele>1173.4</ele>
        <time>2023-05-15T14:40:38Z</time>
      </trkpt>
      <trkpt lat="44.68583" lon="6.00885">
        <ele>1173.4</ele>
        <time>2023-05-15T14:40:39Z</time>
      </trkpt>
      <trkpt lat="44.68584" lon="6.00884">
        <ele>1173.4</ele>
        <time>2023-05-15T14:40:40Z</time>
      </trkpt>
      <trkpt lat="44.68585" lon="6.00884">
        <ele>1173.4</ele>
        <time>2023-05-15T14:40:43Z</time>
      </trkpt>
      <trkpt lat="44.68585" lon="6.00884">
        <ele>1173.4</ele>
        <time>2023-05-15T14:40:44Z</time>
      </trkpt>
      <trkpt lat="44.68585" lon="6.00884">
        <ele>1173.4</ele>
        <time>2023-05-15T14:40:45Z</time>
      </trkpt>
      <trkpt lat="44.68585" lon="6.00884">
        <ele>1173.4</ele>
        <time>2023-05-15T14:40:46Z</time>
      </trkpt>
      <trkpt lat="44.68585" lon="6.00884">
        <ele>1173.4</ele>
        <time>2023-05-15T14:40:51Z</time>
      </trkpt>
      <trkpt lat="44.68587" lon="6.00881">
        <ele>1174.4</ele>
        <time>2023-05-15T14:41:02Z</time>
      </trkpt>
      <trkpt lat="44.6859" lon="6.00879">
        <ele>1174.2</ele>
        <time>2023-05-15T14:41:05Z</time>
      </trkpt>
      <trkpt lat="44.68591" lon="6.00878">
        <ele>1174.2</ele>
        <time>2023-05-15T14:41:06Z</time>
      </trkpt>
      <trkpt lat="44.68593" lon="6.00877">
        <ele>1174</ele>
        <time>2023-05-15T14:41:07Z</time>
      </trkpt>
      <trkpt lat="44.68595" lon="6.00873">
        <ele>1174</ele>
        <time>2023-05-15T14:41:08Z</time>
      </trkpt>
      <trkpt lat="44.68596" lon="6.00869">
        <ele>1174</ele>
        <time>2023-05-15T14:41:09Z</time>
      </trkpt>
      <trkpt lat="44.68598" lon="6.00866">
        <ele>1173.8</ele>
        <time>2023-05-15T14:41:10Z</time>
      </trkpt>
      <trkpt lat="44.68601" lon="6.00864">
        <ele>1173.8</ele>
        <time>2023-05-15T14:41:11Z</time>
      </trkpt>
      <trkpt lat="44.68603" lon="6.00862">
        <ele>1173.8</ele>
        <time>2023-05-15T14:41:12Z</time>
      </trkpt>
      <trkpt lat="44.68604" lon="6.0086">
        <ele>1173.8</ele>
        <time>2023-05-15T14:41:13Z</time>
      </trkpt>
      <trkpt lat="44.68607" lon="6.00859">
        <ele>1173.8</ele>
        <time>2023-05-15T14:41:14Z</time>
      </trkpt>
      <trkpt lat="44.68611" lon="6.00858">
        <ele>1173.8</ele>
        <time>2023-05-15T14:41:15Z</time>
      </trkpt>
      <trkpt lat="44.68614" lon="6.00858">
        <ele>1173.8</ele>
        <time>2023-05-15T14:41:16Z</time>
      </trkpt>
      <trkpt lat="44.68617" lon="6.00857">
        <ele>1173.8</ele>
        <time>2023-05-15T14:41:17Z</time>
      </trkpt>
      <trkpt lat="44.6862" lon="6.00856">
        <ele>1174</ele>
        <time>2023-05-15T14:41:18Z</time>
      </trkpt>
      <trkpt lat="44.68623" lon="6.00856">
        <ele>1174</ele>
        <time>2023-05-15T14:41:19Z</time>
      </trkpt>
      <trkpt lat="44.6863" lon="6.00851">
        <ele>1174.2</ele>
        <time>2023-05-15T14:41:24Z</time>
      </trkpt>
      <trkpt lat="44.68631" lon="6.0085">
        <ele>1174.2</ele>
        <time>2023-05-15T14:41:25Z</time>
      </trkpt>
      <trkpt lat="44.68632" lon="6.00849">
        <ele>1174.2</ele>
        <time>2023-05-15T14:41:26Z</time>
      </trkpt>
      <trkpt lat="44.68633" lon="6.00847">
        <ele>1174.2</ele>
        <time>2023-05-15T14:41:27Z</time>
      </trkpt>
      <trkpt lat="44.68635" lon="6.00845">
        <ele>1174.4</ele>
        <time>2023-05-15T14:41:28Z</time>
      </trkpt>
      <trkpt lat="44.68636" lon="6.00844">
        <ele>1174.4</ele>
        <time>2023-05-15T14:41:29Z</time>
      </trkpt>
      <trkpt lat="44.68637" lon="6.00841">
        <ele>1174.4</ele>
        <time>2023-05-15T14:41:30Z</time>
      </trkpt>
      <trkpt lat="44.68638" lon="6.00839">
        <ele>1174.2</ele>
        <time>2023-05-15T14:41:31Z</time>
      </trkpt>
      <trkpt lat="44.6864" lon="6.00838">
        <ele>1174.2</ele>
        <time>2023-05-15T14:41:32Z</time>
      </trkpt>
      <trkpt lat="44.68645" lon="6.00828">
        <ele>1174.4</ele>
        <time>2023-05-15T14:41:35Z</time>
      </trkpt>
      <trkpt lat="44.68646" lon="6.00827">
        <ele>1174.2</ele>
        <time>2023-05-15T14:41:36Z</time>
      </trkpt>
      <trkpt lat="44.6865" lon="6.0082">
        <ele>1174.4</ele>
        <time>2023-05-15T14:41:38Z</time>
      </trkpt>
      <trkpt lat="44.68653" lon="6.00816">
        <ele>1174.2</ele>
        <time>2023-05-15T14:41:40Z</time>
      </trkpt>
      <trkpt lat="44.68655" lon="6.00814">
        <ele>1174.4</ele>
        <time>2023-05-15T14:41:41Z</time>
      </trkpt>
      <trkpt lat="44.68657" lon="6.00813">
        <ele>1174.4</ele>
        <time>2023-05-15T14:41:42Z</time>
      </trkpt>
      <trkpt lat="44.68659" lon="6.0081">
        <ele>1174.4</ele>
        <time>2023-05-15T14:41:43Z</time>
      </trkpt>
      <trkpt lat="44.6866" lon="6.00809">
        <ele>1174.4</ele>
        <time>2023-05-15T14:41:44Z</time>
      </trkpt>
      <trkpt lat="44.68661" lon="6.00808">
        <ele>1174.6</ele>
        <time>2023-05-15T14:41:45Z</time>
      </trkpt>
      <trkpt lat="44.68662" lon="6.00808">
        <ele>1174.6</ele>
        <time>2023-05-15T14:41:46Z</time>
      </trkpt>
      <trkpt lat="44.68664" lon="6.00806">
        <ele>1174.6</ele>
        <time>2023-05-15T14:41:47Z</time>
      </trkpt>
      <trkpt lat="44.68666" lon="6.00804">
        <ele>1174.6</ele>
        <time>2023-05-15T14:41:48Z</time>
      </trkpt>
      <trkpt lat="44.68674" lon="6.00794">
        <ele>1174.8</ele>
        <time>2023-05-15T14:41:50Z</time>
      </trkpt>
      <trkpt lat="44.68676" lon="6.00791">
        <ele>1174.8</ele>
        <time>2023-05-15T14:41:51Z</time>
      </trkpt>
      <trkpt lat="44.68677" lon="6.00788">
        <ele>1174.8</ele>
        <time>2023-05-15T14:41:52Z</time>
      </trkpt>
      <trkpt lat="44.68678" lon="6.00785">
        <ele>1174.6</ele>
        <time>2023-05-15T14:41:53Z</time>
      </trkpt>
      <trkpt lat="44.6868" lon="6.00782">
        <ele>1174.6</ele>
        <time>2023-05-15T14:41:54Z</time>
      </trkpt>
      <trkpt lat="44.68681" lon="6.00779">
        <ele>1174.6</ele>
        <time>2023-05-15T14:41:55Z</time>
      </trkpt>
      <trkpt lat="44.68683" lon="6.00775">
        <ele>1174.6</ele>
        <time>2023-05-15T14:41:57Z</time>
      </trkpt>
      <trkpt lat="44.68685" lon="6.00772">
        <ele>1174.6</ele>
        <time>2023-05-15T14:41:58Z</time>
      </trkpt>
      <trkpt lat="44.68688" lon="6.00764">
        <ele>1174.6</ele>
        <time>2023-05-15T14:42:01Z</time>
      </trkpt>
      <trkpt lat="44.68688" lon="6.00762">
        <ele>1174.6</ele>
        <time>2023-05-15T14:42:02Z</time>
      </trkpt>
      <trkpt lat="44.68689" lon="6.00759">
        <ele>1174.6</ele>
        <time>2023-05-15T14:42:04Z</time>
      </trkpt>
      <trkpt lat="44.68689" lon="6.00757">
        <ele>1174.6</ele>
        <time>2023-05-15T14:42:05Z</time>
      </trkpt>
      <trkpt lat="44.68691" lon="6.00754">
        <ele>1174.6</ele>
        <time>2023-05-15T14:42:07Z</time>
      </trkpt>
      <trkpt lat="44.68692" lon="6.00754">
        <ele>1174.4</ele>
        <time>2023-05-15T14:42:08Z</time>
      </trkpt>
      <trkpt lat="44.68692" lon="6.00754">
        <ele>1174.4</ele>
        <time>2023-05-15T14:42:09Z</time>
      </trkpt>
      <trkpt lat="44.68692" lon="6.00753">
        <ele>1174.4</ele>
        <time>2023-05-15T14:42:10Z</time>
      </trkpt>
      <trkpt lat="44.68692" lon="6.00752">
        <ele>1174.2</ele>
        <time>2023-05-15T14:42:11Z</time>
      </trkpt>
      <trkpt lat="44.68693" lon="6.00751">
        <ele>1174.2</ele>
        <time>2023-05-15T14:42:12Z</time>
      </trkpt>
      <trkpt lat="44.68693" lon="6.00751">
        <ele>1174.2</ele>
        <time>2023-05-15T14:42:13Z</time>
      </trkpt>
      <trkpt lat="44.68694" lon="6.0075">
        <ele>1174.2</ele>
        <time>2023-05-15T14:42:14Z</time>
      </trkpt>
      <trkpt lat="44.68694" lon="6.0075">
        <ele>1174.2</ele>
        <time>2023-05-15T14:42:15Z</time>
      </trkpt>
      <trkpt lat="44.68694" lon="6.0075">
        <ele>1174.2</ele>
        <time>2023-05-15T14:42:16Z</time>
      </trkpt>
      <trkpt lat="44.68695" lon="6.00748">
        <ele>1174.4</ele>
        <time>2023-05-15T14:42:18Z</time>
      </trkpt>
      <trkpt lat="44.68696" lon="6.00748">
        <ele>1174.4</ele>
        <time>2023-05-15T14:42:19Z</time>
      </trkpt>
      <trkpt lat="44.68697" lon="6.00747">
        <ele>1174.4</ele>
        <time>2023-05-15T14:42:20Z</time>
      </trkpt>
      <trkpt lat="44.68697" lon="6.00747">
        <ele>1174.4</ele>
        <time>2023-05-15T14:42:21Z</time>
      </trkpt>
      <trkpt lat="44.68697" lon="6.00747">
        <ele>1174.6</ele>
        <time>2023-05-15T14:42:22Z</time>
      </trkpt>
      <trkpt lat="44.68697" lon="6.00747">
        <ele>1174.6</ele>
        <time>2023-05-15T14:42:23Z</time>
      </trkpt>
      <trkpt lat="44.68697" lon="6.00747">
        <ele>1174.8</ele>
        <time>2023-05-15T14:42:27Z</time>
      </trkpt>
      <trkpt lat="44.68697" lon="6.00747">
        <ele>1174.8</ele>
        <time>2023-05-15T14:42:30Z</time>
      </trkpt>
      <trkpt lat="44.687" lon="6.00746">
        <ele>1175</ele>
        <time>2023-05-15T14:42:38Z</time>
      </trkpt>
      <trkpt lat="44.68705" lon="6.00749">
        <ele>1175</ele>
        <time>2023-05-15T14:42:42Z</time>
      </trkpt>
      <trkpt lat="44.68706" lon="6.0075">
        <ele>1175</ele>
        <time>2023-05-15T14:42:43Z</time>
      </trkpt>
      <trkpt lat="44.68708" lon="6.0075">
        <ele>1175</ele>
        <time>2023-05-15T14:42:44Z</time>
      </trkpt>
      <trkpt lat="44.68709" lon="6.00751">
        <ele>1175</ele>
        <time>2023-05-15T14:42:45Z</time>
      </trkpt>
      <trkpt lat="44.68711" lon="6.00751">
        <ele>1175.2</ele>
        <time>2023-05-15T14:42:46Z</time>
      </trkpt>
      <trkpt lat="44.68713" lon="6.00751">
        <ele>1175.2</ele>
        <time>2023-05-15T14:42:47Z</time>
      </trkpt>
      <trkpt lat="44.68714" lon="6.00752">
        <ele>1175.4</ele>
        <time>2023-05-15T14:42:48Z</time>
      </trkpt>
      <trkpt lat="44.68715" lon="6.00752">
        <ele>1175.6</ele>
        <time>2023-05-15T14:42:49Z</time>
      </trkpt>
      <trkpt lat="44.68718" lon="6.00754">
        <ele>1175.8</ele>
        <time>2023-05-15T14:42:51Z</time>
      </trkpt>
      <trkpt lat="44.68721" lon="6.00755">
        <ele>1176</ele>
        <time>2023-05-15T14:42:53Z</time>
      </trkpt>
      <trkpt lat="44.68724" lon="6.00758">
        <ele>1176</ele>
        <time>2023-05-15T14:42:55Z</time>
      </trkpt>
      <trkpt lat="44.68736" lon="6.00767">
        <ele>1176.2</ele>
        <time>2023-05-15T14:42:59Z</time>
      </trkpt>
      <trkpt lat="44.68738" lon="6.00769">
        <ele>1176.2</ele>
        <time>2023-05-15T14:43:00Z</time>
      </trkpt>
      <trkpt lat="44.68749" lon="6.00771">
        <ele>1176</ele>
        <time>2023-05-15T14:43:05Z</time>
      </trkpt>
      <trkpt lat="44.68767" lon="6.00774">
        <ele>1176.2</ele>
        <time>2023-05-15T14:43:11Z</time>
      </trkpt>
      <trkpt lat="44.68788" lon="6.00775">
        <ele>1175.6</ele>
        <time>2023-05-15T14:43:16Z</time>
      </trkpt>
      <trkpt lat="44.68797" lon="6.00776">
        <ele>1175</ele>
        <time>2023-05-15T14:43:18Z</time>
      </trkpt>
      <trkpt lat="44.68801" lon="6.00777">
        <ele>1174.8</ele>
        <time>2023-05-15T14:43:19Z</time>
      </trkpt>
      <trkpt lat="44.68812" lon="6.0078">
        <ele>1173.4</ele>
        <time>2023-05-15T14:43:22Z</time>
      </trkpt>
      <trkpt lat="44.68821" lon="6.00784">
        <ele>1172.8</ele>
        <time>2023-05-15T14:43:25Z</time>
      </trkpt>
      <trkpt lat="44.68824" lon="6.00784">
        <ele>1172.8</ele>
        <time>2023-05-15T14:43:26Z</time>
      </trkpt>
      <trkpt lat="44.68827" lon="6.00784">
        <ele>1172.6</ele>
        <time>2023-05-15T14:43:27Z</time>
      </trkpt>
      <trkpt lat="44.68829" lon="6.00784">
        <ele>1172.6</ele>
        <time>2023-05-15T14:43:28Z</time>
      </trkpt>
      <trkpt lat="44.68832" lon="6.00784">
        <ele>1172.4</ele>
        <time>2023-05-15T14:43:29Z</time>
      </trkpt>
      <trkpt lat="44.68834" lon="6.00784">
        <ele>1172.4</ele>
        <time>2023-05-15T14:43:30Z</time>
      </trkpt>
      <trkpt lat="44.68836" lon="6.00784">
        <ele>1172.2</ele>
        <time>2023-05-15T14:43:31Z</time>
      </trkpt>
      <trkpt lat="44.68838" lon="6.00784">
        <ele>1172.2</ele>
        <time>2023-05-15T14:43:32Z</time>
      </trkpt>
      <trkpt lat="44.6884" lon="6.00784">
        <ele>1172</ele>
        <time>2023-05-15T14:43:33Z</time>
      </trkpt>
      <trkpt lat="44.68848" lon="6.00785">
        <ele>1172</ele>
        <time>2023-05-15T14:43:36Z</time>
      </trkpt>
      <trkpt lat="44.6885" lon="6.00785">
        <ele>1172</ele>
        <time>2023-05-15T14:43:37Z</time>
      </trkpt>
      <trkpt lat="44.68853" lon="6.00785">
        <ele>1171.8</ele>
        <time>2023-05-15T14:43:38Z</time>
      </trkpt>
      <trkpt lat="44.68855" lon="6.00785">
        <ele>1171.8</ele>
        <time>2023-05-15T14:43:39Z</time>
      </trkpt>
      <trkpt lat="44.68858" lon="6.00785">
        <ele>1171.8</ele>
        <time>2023-05-15T14:43:40Z</time>
      </trkpt>
      <trkpt lat="44.68866" lon="6.00782">
        <ele>1171.8</ele>
        <time>2023-05-15T14:43:44Z</time>
      </trkpt>
      <trkpt lat="44.68868" lon="6.0078">
        <ele>1172</ele>
        <time>2023-05-15T14:43:45Z</time>
      </trkpt>
      <trkpt lat="44.68869" lon="6.00778">
        <ele>1172</ele>
        <time>2023-05-15T14:43:46Z</time>
      </trkpt>
      <trkpt lat="44.6887" lon="6.00776">
        <ele>1172</ele>
        <time>2023-05-15T14:43:47Z</time>
      </trkpt>
      <trkpt lat="44.68871" lon="6.00774">
        <ele>1172</ele>
        <time>2023-05-15T14:43:48Z</time>
      </trkpt>
      <trkpt lat="44.68872" lon="6.00772">
        <ele>1172.2</ele>
        <time>2023-05-15T14:43:49Z</time>
      </trkpt>
      <trkpt lat="44.68872" lon="6.00771">
        <ele>1172.2</ele>
        <time>2023-05-15T14:43:50Z</time>
      </trkpt>
      <trkpt lat="44.68872" lon="6.0077">
        <ele>1172.2</ele>
        <time>2023-05-15T14:43:51Z</time>
      </trkpt>
      <trkpt lat="44.68872" lon="6.00768">
        <ele>1172.4</ele>
        <time>2023-05-15T14:43:52Z</time>
      </trkpt>
      <trkpt lat="44.68872" lon="6.00766">
        <ele>1172.6</ele>
        <time>2023-05-15T14:43:53Z</time>
      </trkpt>
      <trkpt lat="44.68872" lon="6.00765">
        <ele>1172.4</ele>
        <time>2023-05-15T14:43:54Z</time>
      </trkpt>
      <trkpt lat="44.68872" lon="6.00764">
        <ele>1172.4</ele>
        <time>2023-05-15T14:43:55Z</time>
      </trkpt>
      <trkpt lat="44.68872" lon="6.00764">
        <ele>1172.6</ele>
        <time>2023-05-15T14:43:56Z</time>
      </trkpt>
      <trkpt lat="44.68872" lon="6.00764">
        <ele>1172.8</ele>
        <time>2023-05-15T14:43:57Z</time>
      </trkpt>
      <trkpt lat="44.68872" lon="6.00762">
        <ele>1173</ele>
        <time>2023-05-15T14:44:02Z</time>
      </trkpt>
      <trkpt lat="44.68872" lon="6.00762">
        <ele>1173.8</ele>
        <time>2023-05-15T14:44:08Z</time>
      </trkpt>
      <trkpt lat="44.68872" lon="6.00762">
        <ele>1174.2</ele>
        <time>2023-05-15T14:44:16Z</time>
      </trkpt>
      <trkpt lat="44.68872" lon="6.00762">
        <ele>1175</ele>
        <time>2023-05-15T14:44:51Z</time>
      </trkpt>
      <trkpt lat="44.68872" lon="6.00762">
        <ele>1175</ele>
        <time>2023-05-15T14:44:59Z</time>
      </trkpt>
      <trkpt lat="44.68872" lon="6.00762">
        <ele>1174.4</ele>
        <time>2023-05-15T14:45:32Z</time>
      </trkpt>
      <trkpt lat="44.68872" lon="6.00762">
        <ele>1175.2</ele>
        <time>2023-05-15T14:45:42Z</time>
      </trkpt>
      <trkpt lat="44.6887" lon="6.00763">
        <ele>1175.2</ele>
        <time>2023-05-15T14:45:46Z</time>
      </trkpt>
      <trkpt lat="44.68866" lon="6.00764">
        <ele>1175.2</ele>
        <time>2023-05-15T14:45:49Z</time>
      </trkpt>
      <trkpt lat="44.68865" lon="6.00763">
        <ele>1175.2</ele>
        <time>2023-05-15T14:45:50Z</time>
      </trkpt>
      <trkpt lat="44.68865" lon="6.00762">
        <ele>1175.2</ele>
        <time>2023-05-15T14:45:51Z</time>
      </trkpt>
      <trkpt lat="44.68864" lon="6.00761">
        <ele>1175.2</ele>
        <time>2023-05-15T14:45:52Z</time>
      </trkpt>
      <trkpt lat="44.68863" lon="6.0076">
        <ele>1175.2</ele>
        <time>2023-05-15T14:45:53Z</time>
      </trkpt>
      <trkpt lat="44.68862" lon="6.00759">
        <ele>1175.2</ele>
        <time>2023-05-15T14:45:54Z</time>
      </trkpt>
      <trkpt lat="44.6886" lon="6.00756">
        <ele>1175.2</ele>
        <time>2023-05-15T14:45:56Z</time>
      </trkpt>
      <trkpt lat="44.6886" lon="6.00753">
        <ele>1175.2</ele>
        <time>2023-05-15T14:45:58Z</time>
      </trkpt>
      <trkpt lat="44.68859" lon="6.00752">
        <ele>1175.2</ele>
        <time>2023-05-15T14:45:59Z</time>
      </trkpt>
      <trkpt lat="44.68859" lon="6.00752">
        <ele>1175.2</ele>
        <time>2023-05-15T14:46:00Z</time>
      </trkpt>
      <trkpt lat="44.68858" lon="6.0075">
        <ele>1175.2</ele>
        <time>2023-05-15T14:46:01Z</time>
      </trkpt>
      <trkpt lat="44.68857" lon="6.0075">
        <ele>1175.4</ele>
        <time>2023-05-15T14:46:02Z</time>
      </trkpt>
      <trkpt lat="44.68856" lon="6.00749">
        <ele>1175.4</ele>
        <time>2023-05-15T14:46:03Z</time>
      </trkpt>
      <trkpt lat="44.68855" lon="6.00748">
        <ele>1175.4</ele>
        <time>2023-05-15T14:46:04Z</time>
      </trkpt>
      <trkpt lat="44.6885" lon="6.0074">
        <ele>1175.8</ele>
        <time>2023-05-15T14:46:09Z</time>
      </trkpt>
      <trkpt lat="44.6885" lon="6.00738">
        <ele>1175.8</ele>
        <time>2023-05-15T14:46:10Z</time>
      </trkpt>
      <trkpt lat="44.68849" lon="6.00737">
        <ele>1176</ele>
        <time>2023-05-15T14:46:11Z</time>
      </trkpt>
      <trkpt lat="44.68847" lon="6.00736">
        <ele>1176.4</ele>
        <time>2023-05-15T14:46:12Z</time>
      </trkpt>
      <trkpt lat="44.68846" lon="6.00735">
        <ele>1176.6</ele>
        <time>2023-05-15T14:46:13Z</time>
      </trkpt>
      <trkpt lat="44.68845" lon="6.00734">
        <ele>1177</ele>
        <time>2023-05-15T14:46:14Z</time>
      </trkpt>
      <trkpt lat="44.68843" lon="6.00732">
        <ele>1177.2</ele>
        <time>2023-05-15T14:46:16Z</time>
      </trkpt>
      <trkpt lat="44.68842" lon="6.00731">
        <ele>1177.2</ele>
        <time>2023-05-15T14:46:17Z</time>
      </trkpt>
      <trkpt lat="44.68842" lon="6.0073">
        <ele>1177.4</ele>
        <time>2023-05-15T14:46:18Z</time>
      </trkpt>
      <trkpt lat="44.68842" lon="6.00728">
        <ele>1177.6</ele>
        <time>2023-05-15T14:46:19Z</time>
      </trkpt>
      <trkpt lat="44.68842" lon="6.00726">
        <ele>1177.6</ele>
        <time>2023-05-15T14:46:20Z</time>
      </trkpt>
      <trkpt lat="44.68842" lon="6.00725">
        <ele>1177.8</ele>
        <time>2023-05-15T14:46:21Z</time>
      </trkpt>
      <trkpt lat="44.68843" lon="6.00722">
        <ele>1178</ele>
        <time>2023-05-15T14:46:23Z</time>
      </trkpt>
      <trkpt lat="44.68843" lon="6.00722">
        <ele>1178</ele>
        <time>2023-05-15T14:46:24Z</time>
      </trkpt>
      <trkpt lat="44.68844" lon="6.00721">
        <ele>1178</ele>
        <time>2023-05-15T14:46:25Z</time>
      </trkpt>
      <trkpt lat="44.68843" lon="6.00721">
        <ele>1178.4</ele>
        <time>2023-05-15T14:46:30Z</time>
      </trkpt>
      <trkpt lat="44.68843" lon="6.00721">
        <ele>1178.2</ele>
        <time>2023-05-15T14:46:46Z</time>
      </trkpt>
      <trkpt lat="44.68843" lon="6.00721">
        <ele>1178.2</ele>
        <time>2023-05-15T14:46:52Z</time>
      </trkpt>
    </trkseg>
  </trk>
</gpx>